<<back to data home page
Ready for Fall and Cooler Weather?? Stay in touch!! - DONATE ANY AMOUNT BY CLICKING THIS LINK!!!


    Month/Day/Year       Maximum   Minimum    Rel    Dew       Rainfall  Seasonal  Soil     Soil      Baro       Wind    Wind        Peak    Peak Gust  Evap     Leaf     Net
    and                  Air Temp  Air Temp   Hum    Point     Inches    Rainfall  Temp     Moisture  Pressure   Speed   Direction   Gust    Direction  Pan      Wetness  Radiation
    Local Time           Deg F     Deg F      %      Deg F               Inches    Deg F    dS/m      mbar       MPH     comp  deg   MPH     comp  deg  Inches   mV       W_m2
----------------------------------------------------------------------------------------------------------------------------------------------------------------------------------
   12/18/2018 23:00      47.3      46.3       83     41.7      0.00      4.15      58.7     0.46      1022.7     1.0     SSE   157   2.4     SSE   149   9.60    266      -65.7
   12/18/2018 22:50      47.8      47.1       82     42.2      0.00      4.15      58.7     0.46      1022.7     1.5     SSW   205   3.0      SW   227   9.60    266      -65.6
   12/18/2018 22:40      47.6      47.0       82     42.1      0.00      4.15      58.8     0.46      1022.8     1.3     SSW   205   2.3     WSW   239   9.60    268      -65.8
   12/18/2018 22:30      48.4      47.4       81     42.2      0.00      4.15      58.8     0.46      1022.7     0.6     SSW   209   2.4      SW   231   9.60    265      -66.9
   12/18/2018 22:20      48.2      47.5       81     42.4      0.00      4.15      58.8     0.46      1022.6     1.4     SSW   201   3.4     SSW   206   9.60    268      -67.1
   12/18/2018 22:10      48.4      47.8       81     42.5      0.00      4.15      58.8     0.46      1022.4     0.9      SE   139   1.9     NNE    27   9.60    269      -67.2
   12/18/2018 22:00      48.7      48.1       81     42.9      0.00      4.15      58.8     0.46      1022.4     1.3     SSE   149   3.9       S   190   9.60    269      -66.6
   12/18/2018 21:50      49.5      48.3       80     42.9      0.00      4.15      58.8     0.46      1022.3     1.2     SSE   152   2.3      SE   143   9.60    267      -66.6
   12/18/2018 21:40      49.9      49.2       79     43.2      0.00      4.15      58.8     0.46      1022.2     1.1       S   171   2.4     SSE   168   9.60    269      -67.5
   12/18/2018 21:30      49.8      48.9       81     43.8      0.00      4.15      58.8     0.46      1022.1     1.8      SW   217   3.7     SSW   209   9.60    268      -67.9
   12/18/2018 21:20      50.6      49.1       80     43.8      0.00      4.15      58.8     0.46      1021.9     0.4      SE   131   2.1       E    86   9.61    265      -69.3
   12/18/2018 21:10      51.3      50.3       78     44.2      0.00      4.15      58.8     0.46      1021.9     0.6       S   172   1.7     SSW   193   9.61    265      -69.7
   12/18/2018 21:00      51.4      50.3       80     44.9      0.00      4.15      58.8     0.46      1021.8     2.8     SSW   199   4.4     SSW   195   9.61    268      -68.9
   12/18/2018 20:50      51.6      50.4       80     44.9      0.00      4.15      58.8     0.46      1021.7     1.1     ESE   113   2.7      SE   134   9.61    268      -70.2
   12/18/2018 20:40      53.0      51.3       78     45.1      0.00      4.15      58.8     0.46      1021.6     2.1     SSE   155   3.9       S   185   9.61    268      -70.0
   12/18/2018 20:30      53.2      51.6       78     45.6      0.00      4.15      58.8     0.46      1021.4     2.2     WSW   237   4.0     WSW   242   9.61    268      -68.8
   12/18/2018 20:20      53.2      51.7       76     45.3      0.00      4.15      58.8     0.46      1021.4     2.0     ESE   116   5.0     SSW   205   9.61    268      -68.4
   12/18/2018 20:10      52.2      51.3       78     45.3      0.00      4.15      58.8     0.46      1021.4     2.2     WSW   238   4.6     SSW   199   9.61    268      -67.3
   12/18/2018 20:00      52.6      51.5       77     45.2      0.00      4.15      58.8     0.46      1021.4     1.8     ENE    64   4.5     WSW   250   9.61    268      -67.9
   12/18/2018 19:50      52.2      51.6       78     45.3      0.00      4.15      58.8     0.46      1021.4     1.5       S   183   3.0     SSW   211   9.61    268      -67.2
   12/18/2018 19:40      52.4      51.3       78     44.9      0.00      4.15      58.8     0.46      1021.4     1.6       S   184   4.6     SSW   198   9.61    268      -67.5
   12/18/2018 19:30      53.0      52.0       76     45.0      0.00      4.15      58.7     0.46      1021.3     1.1      SE   135   2.3      SW   231   9.62    268      -68.5
   12/18/2018 19:20      53.2      52.4       75     45.1      0.00      4.15      58.7     0.46      1021.3     0.5     WNW   288   2.0      SW   229   9.62    268      -69.3
   12/18/2018 19:10      54.5      52.9       73     45.0      0.00      4.15      58.7     0.46      1021.2     1.2     SSE   149   2.3       S   177   9.62    268      -70.0
   12/18/2018 19:00      54.5      53.2       73     45.3      0.00      4.15      58.7     0.46      1021.1     1.9      SW   232   3.0     WSW   244   9.62    268      -68.5
   12/18/2018 18:50      54.9      53.3       71     44.7      0.00      4.15      58.6     0.46      1021.2     1.0     SSE   151   2.4      SE   136   9.62    268      -69.8
   12/18/2018 18:40      54.9      54.2       69     44.6      0.00      4.15      58.6     0.46      1021.1     1.4      SW   226   2.9      SW   233   9.62    268      -69.3
   12/18/2018 18:30      55.3      54.6       67     44.4      0.00      4.15      58.6     0.46      1021.0     0.8      SE   140   3.1     SSW   207   9.62    267      -70.8
   12/18/2018 18:20      55.9      54.9       66     44.1      0.00      4.15      58.6     0.46      1020.9     0.4     ESE   119   1.4      NE    36   9.62    267      -72.1
   12/18/2018 18:10      55.9      55.5       65     44.3      0.00      4.15      58.6     0.46      1020.9     1.2      SW   233   2.7     SSW   197   9.62    267      -71.8
   12/18/2018 18:00      56.8      55.6       64     44.4      0.00      4.15      58.5     0.46      1020.9     1.0     SSE   149   2.5      SE   139   9.62    267      -73.5
   12/18/2018 17:50      58.1      56.6       61     44.1      0.00      4.15      58.5     0.46      1020.9     1.8       S   173   3.7       S   181   9.63    267      -72.9
   12/18/2018 17:40      58.2      56.9       61     43.9      0.00      4.15      58.5     0.46      1020.8     2.4      SW   215   3.6     SSW   210   9.63    267      -71.3
   12/18/2018 17:30      58.9      57.4       62     44.9      0.00      4.15      58.5     0.46      1020.8     0.9     SSE   165   1.6     SSW   196   9.63    267      -73.9
   12/18/2018 17:20      59.8      58.5       57     44.1      0.00      4.15      58.4     0.46      1020.7     1.4     SSW   201   2.6     WSW   245   9.63    266      -74.3
   12/18/2018 17:10      61.7      59.7       55     44.2      0.00      4.15      58.4     0.46      1020.7     1.3      SW   224   2.3      SW   230   9.63    266      -75.4
   12/18/2018 17:00      63.3      61.5       51     44.0      0.00      4.15      58.4     0.46      1020.8     1.8      SW   227   3.3      SW   230   9.63    266      -75.8
   12/18/2018 16:50      64.8      63.0       48     44.0      0.00      4.15      58.3     0.46      1020.8     2.1      SW   235   3.5      SW   220   9.63    266      -74.4
   12/18/2018 16:40      65.3      64.5       47     44.1      0.00      4.15      58.3     0.46      1020.8     1.0     WNW   301   3.7       W   270   9.63    266      -73.1
   12/18/2018 16:30      66.2      65.1       46     44.1      0.00      4.15      58.3     0.46      1020.8     2.0     WNW   300   5.3     WNW   302   9.64    266      -69.5
   12/18/2018 16:20      67.4      65.9       45     44.3      0.00      4.15      58.3     0.46      1020.8     2.0      NW   310   4.4      NW   326   9.64    265      -62.7
   12/18/2018 16:10      68.1      67.1       43     44.3      0.00      4.15      58.2     0.46      1020.8     1.7     WNW   293   4.5     WSW   255   9.64    264      -45.2
   12/18/2018 16:00      68.2      67.7       42     44.2      0.00      4.15      58.2     0.46      1020.8     1.8     WNW   297   3.9     WNW   281   9.64    264      -16.9
   12/18/2018 15:50      68.7      67.8       41     43.9      0.00      4.15      58.2     0.45      1020.7     2.6      NW   311   5.6     WNW   293   9.64    264       -5.0
   12/18/2018 15:40      69.5      68.5       40     43.7      0.00      4.15      58.1     0.46      1020.8     2.8      NW   306   5.6     WNW   301   9.64    263       18.4
   12/18/2018 15:30      69.8      68.8       40     43.6      0.00      4.15      58.1     0.45      1020.8     2.9     WNW   302   5.3     NNW   347   9.64    263       43.3
   12/18/2018 15:20      70.5      69.3       38     43.6      0.00      4.15      58.1     0.46      1020.7     2.8      NW   307   6.0       W   266   9.65    263       69.7
   12/18/2018 15:10      70.4      69.8       38     43.2      0.00      4.15      58.0     0.46      1020.7     2.9     WNW   287   5.2     WSW   258   9.65    263       95.4
   12/18/2018 15:00      71.2      69.8       37     43.1      0.00      4.15      58.0     0.45      1020.8     3.2      SW   235   6.3       S   184   9.65    264      119.2
   12/18/2018 14:50      71.2      70.2       37     43.0      0.00      4.15      57.9     0.45      1020.8     2.7     WSW   256   5.9     WSW   239   9.65    263      128.6
   12/18/2018 14:40      70.9      70.0       36     42.5      0.00      4.15      57.9     0.46      1020.8     2.6      SW   214   4.4      SW   214   9.65    263      163.0
   12/18/2018 14:30      71.7      70.2       36     42.3      0.00      4.15      57.9     0.46      1020.9     3.8      SW   219   6.9      SW   233   9.65    263      176.9
   12/18/2018 14:20      71.7      69.8       36     42.4      0.00      4.15      57.9     0.45      1021.0     1.9      SW   223   4.6      SW   230   9.65    263      213.2
   12/18/2018 14:10      71.3      70.1       37     42.7      0.00      4.15      57.8     0.45      1021.2     3.5      SW   223   5.4     WSW   241   9.65    264      230.4
   12/18/2018 14:00      71.0      69.7       37     43.0      0.00      4.15      57.8     0.45      1021.3     2.1     WSW   237   4.8     SSW   210   9.65    263      223.5
   12/18/2018 13:50      70.6      69.4       37     42.7      0.00      4.15      57.8     0.45      1021.4     2.0     WSW   241   5.9     WSW   240   9.65    264      202.6
   12/18/2018 13:40      69.7      68.7       38     42.4      0.00      4.15      57.8     0.45      1021.4     2.8     SSW   207   5.2       S   188   9.65    264      244.9
   12/18/2018 13:30      69.9      69.0       38     42.5      0.00      4.15      57.7     0.45      1021.4     2.1      SW   223   5.5       W   261   9.66    263      248.5
   12/18/2018 13:20      70.1      68.6       38     42.5      0.00      4.15      57.7     0.45      1021.5     2.6     SSW   213   6.4      SW   228   9.66    264      282.5
   12/18/2018 13:10      69.9      68.8       38     42.6      0.00      4.15      57.7     0.45      1021.6     1.8      SW   228   3.3     WSW   251   9.66    264      282.3
   12/18/2018 13:00      69.6      68.3       38     42.7      0.00      4.15      57.7     0.45      1021.8     1.5     WNW   288   3.9     WSW   258   9.66    263      311.9
   12/18/2018 12:50      68.6      67.3       40     42.7      0.00      4.15      57.6     0.45      1021.9     1.6     WNW   296   4.4     WNW   297   9.66    264      316.2
   12/18/2018 12:40      67.7      67.2       41     42.7      0.00      4.15      57.6     0.45      1022.1     2.1       W   279   5.3     WSW   251   9.66    264      282.0
   12/18/2018 12:30      67.5      66.4       41     42.8      0.00      4.15      57.6     0.45      1022.2     1.7     WNW   303   4.2      NW   310   9.66    265      334.5
   12/18/2018 12:20      67.7      66.0       42     42.8      0.00      4.15      57.6     0.45      1022.4     2.7       W   268   6.0     WSW   252   9.66    265      308.9
   12/18/2018 12:10      67.6      66.0       41     42.7      0.00      4.15      57.6     0.45      1022.5     0.9       S   187   2.9     SSE   157   9.66    265      324.7
   12/18/2018 12:00      66.5      65.6       42     42.4      0.00      4.15      57.6     0.45      1022.7     2.1       W   262   4.7       W   259   9.66    265      339.4
   12/18/2018 11:50      66.6      66.0       43     42.9      0.00      4.15      57.6     0.45      1022.9     1.1       N   350   3.4      NW   322   9.66    266      338.5
   12/18/2018 11:40      66.1      64.7       43     42.3      0.00      4.15      57.6     0.45      1023.1     0.5      NE    48   2.8      NE    38   9.66    266      300.6
   12/18/2018 11:30      64.9      63.7       44     41.9      0.00      4.15      57.6     0.45      1023.3     1.2       W   276   2.5     WSW   240   9.66    266      348.1
   12/18/2018 11:20      64.6      64.0       44     42.0      0.00      4.15      57.7     0.45      1023.5     1.0     NNW   345   2.6      NW   307   9.66    269      275.6
   12/18/2018 11:10      64.5      62.7       46     42.3      0.00      4.15      57.6     0.45      1023.6     0.9     NNW   347   2.5     NNE    16   9.66    277      291.0
   12/18/2018 11:00      63.0      61.9       48     42.3      0.00      4.15      57.7     0.45      1023.8     1.1     NNE    15   2.8     NNE    13   9.66    283      297.8
   12/18/2018 10:50      62.9      62.0       48     42.6      0.00      4.15      57.7     0.45      1023.9     1.3     NNE    19   2.8     NNE    16   9.66    287      310.2
   12/18/2018 10:40      62.5      60.7       50     42.5      0.00      4.15      57.7     0.45      1024.1     0.7     NNW   337   1.8       N     6   9.66    293      292.1
   12/18/2018 10:30      61.3      60.4       53     43.2      0.00      4.15      57.7     0.45      1024.2     1.3     NNE    25   2.9     NNE    15   9.66    296      247.0
   12/18/2018 10:20      61.2      60.3       54     44.0      0.00      4.15      57.7     0.45      1024.4     0.9      NE    53   3.0      SE   127   9.66    298      237.9
   12/18/2018 10:10      60.5      59.3       59     45.2      0.00      4.15      57.8     0.45      1024.4     0.7     ESE   102   2.6     ENE    72   9.66    300      229.3
   12/18/2018 10:00      59.5      58.2       63     46.5      0.00      4.15      57.8     0.45      1024.5     0.8       E    84   2.1     ESE   109   9.66    301      223.2
   12/18/2018 09:50      58.4      56.9       67     46.7      0.00      4.15      57.8     0.45      1024.5     1.2       E    79   3.0       E    85   9.66    303      222.3
   12/18/2018 09:40      57.1      55.9       72     47.1      0.00      4.15      57.9     0.45      1024.6     1.1      NE    52   2.8     ENE    56   9.66    308      249.2
   12/18/2018 09:30      55.9      54.5       76     47.7      0.00      4.15      57.9     0.45      1024.6     0.5     NNE    22   1.8     NNW   333   9.66    328      267.8
   12/18/2018 09:20      54.6      53.2       81     47.9      0.00      4.15      57.9     0.45      1024.4     0.3     NNE    20   1.7       N     9   9.66    356      243.6
   12/18/2018 09:10      53.4      52.5       85     48.7      0.00      4.15      57.9     0.45      1024.4     0.1     NNW   338   1.1       N   355   9.66    384      232.9
   12/18/2018 09:00      52.5      50.3       90     48.4      0.00      4.15      57.9     0.45      1024.3     0.0     SSW   210   0.9     SSW   210   9.66    410      190.1
   12/18/2018 08:50      50.6      49.3       91     47.6      0.00      4.15      58.0     0.45      1024.2     0.1     SSW   194   1.1       S   188   9.66    439      143.3
   12/18/2018 08:40      49.5      48.1       92     46.5      0.00      4.15      58.0     0.45      1024.2     0.3       N   359   1.3     NNW   339   9.66    481      116.5
   12/18/2018 08:30      48.5      47.6       93     46.1      0.00      4.15      58.0     0.45      1024.0     0.6     NNE    11   2.6       N     5   9.66    498       94.6
   12/18/2018 08:20      47.6      46.3       94     45.4      0.00      4.15      58.0     0.45      1023.8     0.3       N   351   1.6     WNW   303   9.66    508       84.2
   12/18/2018 08:10      46.5      45.3       95     44.5      0.00      4.15      58.0     0.45      1023.6     1.0     NNE    23   2.4     NNE    22   9.66    517       60.7
   12/18/2018 08:00      45.5      43.6       95     43.1      0.00      4.15      58.1     0.45      1023.5     0.5     WSW   256   1.6     WSW   241   9.66    525       40.4
   12/18/2018 07:50      43.7      43.1       95     41.9      0.00      4.15      58.1     0.45      1023.4     0.1     SSE   147   1.0      SE   144   9.66    532       12.4
   12/18/2018 07:40      43.5      42.9       95     41.6      0.00      4.15      58.1     0.45      1023.4     0.1     NNE    18   1.2       N    11   9.66    530        5.1
   12/18/2018 07:30      43.3      42.8       95     41.7      0.00      4.15      58.1     0.45      1023.4     0.6      SE   144   1.4       E    93   9.66    528        1.2
   12/18/2018 07:20      43.1      42.3       95     41.2      0.00      4.15      58.2     0.45      1023.3     0.7     SSE   168   2.5     SSW   193   9.66    526       -3.8
   12/18/2018 07:10      43.2      42.6       95     41.4      0.00      4.15      58.2     0.45      1023.4     1.0       S   171   2.6     SSW   204   9.66    522       -6.6
   12/18/2018 07:00      43.0      42.5       95     41.3      0.00      4.15      58.2     0.45      1023.4     1.0      SE   132   2.2      SE   136   9.66    518      -11.4
   12/18/2018 06:50      43.2      42.5       95     41.4      0.00      4.15      58.2     0.45      1023.4     0.4       S   176   1.3      SE   137   9.66    515      -12.8
   12/18/2018 06:40      43.7      42.8       94     41.6      0.00      4.15      58.3     0.46      1023.2     0.2       S   176   1.9     SSE   166   9.66    511      -14.3
   12/18/2018 06:30      43.6      42.9       95     41.8      0.00      4.15      58.3     0.46      1023.1     0.9       S   176   2.7     SSW   195   9.66    508      -14.1
   12/18/2018 06:20      43.2      42.5       94     41.2      0.00      4.15      58.3     0.46      1023.1     0.4     SSE   154   1.4      SE   141   9.66    504      -14.4
   12/18/2018 06:10      43.4      43.0       95     41.8      0.00      4.15      58.3     0.46      1023.0     0.3      SE   144   1.6      SE   144   9.66    502      -14.9
   12/18/2018 06:00      43.4      42.6       94     41.4      0.00      4.15      58.3     0.46      1022.9     0.0       N     0   0.0     SSE   149   9.66    499      -15.6
   12/18/2018 05:50      43.4      42.8       94     41.6      0.00      4.15      58.3     0.46      1022.8     0.0       N     0   0.0     SSW   210   9.66    496      -16.1
   12/18/2018 05:40      44.4      43.0       94     41.9      0.00      4.15      58.4     0.46      1022.6     0.1       E    80   1.3     ENE    75   9.66    491      -15.9
   12/18/2018 05:30      44.4      44.0       94     42.7      0.00      4.15      58.4     0.46      1022.5     0.1     SSE   160   0.9     ENE    75   9.66    487      -15.8
   12/18/2018 05:20      44.3      43.9       95     42.7      0.00      4.15      58.4     0.46      1022.3     0.0       N     0   0.0      SE   141   9.66    483      -16.3
   12/18/2018 05:10      44.3      43.5       94     42.3      0.00      4.15      58.4     0.46      1022.2     0.4     SSE   151   1.8      SE   139   9.66    479      -16.9
   12/18/2018 05:00      44.4      43.7       94     42.5      0.00      4.15      58.5     0.46      1022.3     0.7     SSE   156   2.6       S   189   9.66    472      -17.4
   12/18/2018 04:50      44.7      44.2       94     42.9      0.00      4.15      58.5     0.46      1022.4     0.7       S   170   2.8     WSW   240   9.66    467      -17.2
   12/18/2018 04:40      44.8      44.2       94     42.8      0.00      4.15      58.5     0.46      1022.3     0.6     SSW   197   2.9     WSW   237   9.66    463      -17.9
   12/18/2018 04:30      45.1      44.4       94     43.1      0.00      4.15      58.5     0.46      1022.4     0.7     SSW   195   2.7       S   176   9.66    459      -17.8
   12/18/2018 04:20      45.4      44.6       94     43.3      0.00      4.15      58.5     0.46      1022.5     0.0     NNE    21   0.5     NNE    27   9.66    454      -18.3
   12/18/2018 04:10      46.0      45.1       94     43.8      0.00      4.15      58.5     0.46      1022.5     0.5      SE   143   1.5     SSE   149   9.66    448      -17.8
   12/18/2018 04:00      45.9      45.1       94     44.0      0.00      4.15      58.5     0.46      1022.5     1.0      SE   138   1.6      SE   141   9.66    443      -17.8
   12/18/2018 03:50      45.8      45.0       94     43.6      0.00      4.15      58.6     0.46      1022.7     0.7     SSE   164   1.6      SE   145   9.66    438      -17.9
   12/18/2018 03:40      45.8      45.4       94     43.9      0.00      4.15      58.5     0.46      1022.8     1.0      SE   144   1.4      SE   136   9.66    433      -18.1
   12/18/2018 03:30      46.2      45.5       94     44.1      0.00      4.15      58.5     0.46      1022.6     0.6     SSE   149   1.4      SE   140   9.66    427      -17.8
   12/18/2018 03:20      46.6      45.9       94     44.4      0.00      4.15      58.6     0.46      1022.5     0.6     SSE   154   1.1     SSE   147   9.66    419      -18.1
   12/18/2018 03:10      47.2      46.4       94     44.8      0.00      4.15      58.6     0.46      1022.4     0.5     SSE   154   1.2     SSE   160   9.66    411      -18.4
   12/18/2018 03:00      47.0      46.1       94     44.9      0.00      4.15      58.6     0.46      1022.5     0.8      SW   223   1.6       S   187   9.66    403      -18.5
   12/18/2018 02:50      46.8      46.2       94     44.6      0.00      4.15      58.6     0.46      1022.5     0.2     SSE   164   0.9     SSE   166   9.66    395      -18.9
   12/18/2018 02:40      47.3      46.6       93     45.0      0.00      4.15      58.6     0.46      1022.6     0.2       S   173   0.8       S   188   9.66    388      -19.0
   12/18/2018 02:30      48.1      47.1       94     46.0      0.00      4.15      58.6     0.46      1022.7     1.1       S   185   2.2     SSW   213   9.66    382      -18.7
   12/18/2018 02:20      48.0      47.2       93     45.6      0.00      4.15      58.6     0.46      1022.7     0.4      SW   217   1.8     SSW   213   9.66    375      -19.6
   12/18/2018 02:10      48.2      47.5       93     45.9      0.00      4.15      58.6     0.46      1022.6     0.2     ESE   111   1.0       E    97   9.66    369      -20.3
   12/18/2018 02:00      48.6      47.8       93     46.3      0.00      4.15      58.6     0.46      1022.5     0.3       N     1   1.2     NNW   336   9.66    363      -20.7
   12/18/2018 01:50      48.6      48.1       93     46.4      0.00      4.15      58.6     0.46      1022.5     0.8      SE   130   2.2      SE   140   9.66    356      -20.9
   12/18/2018 01:40      48.7      48.2       93     46.5      0.00      4.15      58.6     0.46      1022.7     1.1     SSE   151   2.5      SE   142   9.66    347      -21.0
   12/18/2018 01:30      48.7      48.3       93     46.5      0.00      4.15      58.7     0.46      1022.7     0.6     SSE   148   1.4      SE   142   9.66    342      -21.9
   12/18/2018 01:20      49.0      48.4       93     46.6      0.00      4.15      58.6     0.46      1022.7     0.6     SSE   154   1.4      SE   138   9.66    337      -22.7
   12/18/2018 01:10      49.3      48.6       93     46.9      0.00      4.15      58.7     0.46      1022.5     0.4     SSE   157   1.2      SE   141   9.66    333      -23.8
   12/18/2018 01:00      49.5      48.9       93     47.0      0.00      4.15      58.7     0.46      1022.5     0.3     SSE   161   1.1      SE   136   9.66    328      -24.8
   12/18/2018 00:50      49.9      49.0       92     47.2      0.00      4.15      58.7     0.46      1022.6     0.6      SE   146   1.6     SSE   153   9.66    324      -26.2
   12/18/2018 00:40      50.2      49.4       92     47.4      0.00      4.15      58.6     0.46      1022.7     0.3     SSE   153   0.9      SE   127   9.66    319      -28.0
   12/18/2018 00:30      50.4      49.7       92     47.7      0.00      4.15      58.7     0.46      1022.9     1.1     SSW   200   2.0      SW   220   9.66    315      -29.4
   12/18/2018 00:20      51.3      50.1       91     48.2      0.00      4.15      58.7     0.46      1022.9     0.8      SE   130   1.9      SE   134   9.67    310      -31.2
   12/18/2018 00:10      51.2      50.8       91     48.5      0.00      4.15      58.7     0.46      1023.0     0.4      SW   215   1.9      SW   233   9.67    305      -34.7
   12/18/2018 00:00      51.7      50.9       91     48.8      0.00      4.15      58.7     0.46      1023.0     1.2     SSE   163   2.0      SW   216   9.67    300      -37.0
   12/17/2018 23:50      52.3      51.3       90     49.0      0.00      4.15      58.7     0.46      1023.0     0.9      SW   224   1.9      SW   214   9.67    296      -42.1
   12/17/2018 23:40      52.6      51.8       90     49.3      0.00      4.15      58.7     0.46      1023.0     0.3       S   184   1.3       S   181   9.67    292      -48.7
   12/17/2018 23:30      53.1      52.4       89     49.6      0.00      4.15      58.7     0.46      1023.0     0.4     SSE   147   1.9      SE   139   9.67    289      -52.5
   12/17/2018 23:20      54.2      52.9       88     50.1      0.00      4.15      58.7     0.46      1023.1     0.3      SE   143   1.1       S   170   9.67    283      -53.6
   12/17/2018 23:10      54.9      54.0       88     50.9      0.00      4.15      58.7     0.46      1023.0     1.4       S   172   2.8       S   185   9.67    278      -56.9
   12/17/2018 23:00      55.3      54.7       87     51.3      0.00      4.15      58.7     0.46      1023.3     1.6     SSW   205   2.6     SSW   194   9.67    271      -55.5
   12/17/2018 22:50      55.9      55.1       87     51.4      0.00      4.15      58.7     0.46      1023.4     1.1      SW   220   1.9       W   271   9.67    266      -48.0
   12/17/2018 22:40      55.9      55.4       87     51.7      0.00      4.15      58.7     0.46      1023.3     1.5     WSW   257   4.9      SW   236   9.67    266      -48.8
   12/17/2018 22:30      55.7      55.3       87     51.8      0.00      4.15      58.7     0.46      1023.3     2.3       W   261   4.6      SW   231   9.67    270      -45.9
   12/17/2018 22:20      55.5      55.1       87     51.7      0.00      4.15      58.7     0.46      1023.1     0.9       S   185   2.7      SW   217   9.67    266      -37.9
   12/17/2018 22:10      55.7      55.0       87     51.3      0.00      4.15      58.7     0.46      1022.9     0.8     SSW   209   2.0     SSW   209   9.67    267      -31.5
   12/17/2018 22:00      55.9      55.3       86     51.5      0.00      4.15      58.7     0.46      1022.7     0.4     ENE    61   1.7      NE    54   9.67    267      -34.6
   12/17/2018 21:50      55.9      55.5       86     51.6      0.00      4.15      58.6     0.46      1022.4     1.8      SE   143   5.0     SSW   204   9.67    270      -38.6
   12/17/2018 21:40      56.3      55.5       85     51.5      0.00      4.15      58.6     0.46      1022.5     2.5     SSW   208   4.0     SSW   202   9.67    270      -42.4
   12/17/2018 21:30      56.7      55.8       84     51.5      0.00      4.15      58.6     0.46      1022.4     1.0     SSE   155   2.5     ESE   119   9.67    269      -46.3
   12/17/2018 21:20      56.8      56.3       84     51.7      0.00      4.15      58.6     0.46      1022.3     1.3     SSW   200   2.5      SW   214   9.67    270      -47.9
   12/17/2018 21:10      56.9      56.5       84     51.8      0.00      4.15      58.6     0.46      1022.3     3.0      SW   225   5.0     WSW   247   9.67    270      -44.9
   12/17/2018 21:00      57.2      56.6       83     51.9      0.00      4.15      58.6     0.46      1022.5     2.4      SW   223   5.3     WSW   241   9.67    270      -42.8
   12/17/2018 20:50      57.2      56.7       83     51.9      0.00      4.15      58.6     0.46      1022.5     3.0     WSW   241   4.4      SW   233   9.67    270      -31.9
   12/17/2018 20:40      57.0      56.6       83     51.6      0.00      4.15      58.6     0.46      1022.3     1.3      SW   225   2.8     WSW   244   9.67    270      -25.4
   12/17/2018 20:30      57.1      56.6       82     51.5      0.00      4.15      58.6     0.46      1022.4     1.0      SW   221   2.2      SW   218   9.67    270      -27.6
   12/17/2018 20:20      57.5      56.8       82     51.4      0.00      4.15      58.6     0.46      1022.3     0.8      SW   228   2.0     WSW   243   9.67    270      -33.8
   12/17/2018 20:10      58.1      57.2       80     51.4      0.00      4.15      58.6     0.46      1022.4     0.5       S   175   1.6     SSW   200   9.67    269      -40.6
   12/17/2018 20:00      58.5      57.7       79     51.6      0.00      4.15      58.5     0.46      1022.6     1.0     SSW   209   1.6     SSW   203   9.67    269      -39.9
   12/17/2018 19:50      58.6      58.2       78     51.6      0.00      4.15      58.5     0.46      1022.4     1.5     WSW   250   2.4     WSW   258   9.67    269      -35.2
   12/17/2018 19:40      58.8      58.3       77     51.5      0.00      4.15      58.5     0.46      1022.3     1.4      SW   221   2.6     SSW   213   9.67    269      -19.2
   12/17/2018 19:30      58.8      58.5       77     51.5      0.00      4.15      58.5     0.46      1022.4     0.8      SW   233   2.2     WSW   248   9.67    269      -15.5
   12/17/2018 19:20      59.0      58.6       77     51.6      0.00      4.15      58.5     0.46      1022.5     1.3     WSW   253   3.3     WSW   250   9.67    269      -15.3
   12/17/2018 19:10      59.0      58.5       78     51.7      0.00      4.15      58.5     0.46      1022.3     2.4      SW   230   5.5       W   262   9.67    269      -11.1
   12/17/2018 19:00      58.8      58.6       78     51.8      0.00      4.15      58.5     0.46      1022.1     2.4     WSW   238   4.6     WSW   245   9.67    269       -7.8
   12/17/2018 18:50      58.8      58.5       78     51.9      0.00      4.15      58.5     0.46      1021.9     1.9     WSW   237   4.8      SW   218   9.67    269       -9.7
   12/17/2018 18:40      58.8      58.5       78     51.8      0.00      4.15      58.5     0.46      1021.7     1.7      SW   235   3.7     WSW   254   9.67    269      -11.8
   12/17/2018 18:30      59.0      58.5       78     51.7      0.00      4.15      58.4     0.46      1021.5     1.4      SW   220   2.6      SW   229   9.67    269      -18.3
   12/17/2018 18:20      59.0      58.6       78     51.8      0.00      4.15      58.4     0.46      1021.6     0.5     SSW   208   2.0      SW   234   9.67    269      -16.7
   12/17/2018 18:10      58.8      58.4       78     51.7      0.00      4.15      58.4     0.46      1021.7     1.6     WNW   291   3.3     WNW   296   9.67    269       -8.1
   12/17/2018 18:00      58.7      58.3       78     51.6      0.00      4.15      58.4     0.46      1021.4     1.0      SW   230   2.6     SSW   200   9.67    269      -17.5
   12/17/2018 17:50      58.6      58.2       78     51.7      0.00      4.15      58.3     0.46      1021.2     2.6     SSW   193   3.9     SSW   200   9.67    269      -19.7
   12/17/2018 17:40      58.5      57.9       80     51.9      0.00      4.15      58.3     0.46      1021.1     2.7     SSW   201   3.7     SSW   202   9.67    269      -24.0
   12/17/2018 17:30      58.1      57.7       80     51.9      0.00      4.15      58.3     0.46      1021.1     2.3       S   182   3.9     SSW   199   9.67    269      -10.1
   12/17/2018 17:20      58.2      57.7       80     51.9      0.00      4.15      58.3     0.46      1020.9     1.8       S   170   3.6       S   185   9.67    269      -50.3
   12/17/2018 17:10      59.3      58.0       78     51.9      0.00      4.15      58.2     0.46      1020.9     1.2     SSE   148   2.1      SE   137   9.68    269      -64.6
   12/17/2018 17:00      59.7      59.0       77     52.2      0.00      4.15      58.2     0.46      1020.8     1.9     SSW   206   4.5      SW   236   9.68    269      -66.6
   12/17/2018 16:50      60.1      59.4       76     52.1      0.00      4.15      58.2     0.46      1020.8     2.7     WSW   240   5.0     WSW   241   9.68    268      -62.0
   12/17/2018 16:40      60.5      59.8       75     52.1      0.00      4.15      58.2     0.46      1020.8     2.7     WSW   249   5.5     WNW   287   9.68    268      -51.8
   12/17/2018 16:30      60.9      60.2       73     51.9      0.00      4.15      58.1     0.46      1020.8     3.1     WSW   243   6.2     WSW   258   9.68    268      -44.7
   12/17/2018 16:20      61.6      60.5       71     51.8      0.00      4.15      58.1     0.46      1020.6     4.4     WSW   240   6.7     WSW   240   9.68    268      -36.8
   12/17/2018 16:10      62.1      61.2       71     51.9      0.00      4.15      58.1     0.46      1020.6     3.8     WSW   241   6.0     WSW   238   9.68    268      -28.7
   12/17/2018 16:00      61.9      61.5       70     51.9      0.00      4.15      58.1     0.46      1020.7     2.8      SW   233   6.0      SW   230   9.68    268       24.8
   12/17/2018 15:50      62.1      61.5       69     51.5      0.00      4.15      58.0     0.46      1020.6     2.7     SSW   209   4.3       S   184   9.68    268        8.5
   12/17/2018 15:40      62.2      61.8       67     51.0      0.00      4.15      58.0     0.46      1020.6     1.8     SSW   201   4.1     SSE   160   9.68    268       23.7
   12/17/2018 15:30      61.9      61.2       68     50.7      0.00      4.15      58.0     0.46      1020.5     1.7     SSW   196   2.6     SSW   196   9.68    268       57.9
   12/17/2018 15:20      61.4      61.0       68     50.5      0.00      4.15      58.0     0.46      1020.5     2.7     SSW   199   3.6     SSW   204   9.68    268       18.2
   12/17/2018 15:10      61.6      61.1       68     50.5      0.00      4.15      57.9     0.46      1020.4     2.3       S   184   3.6       S   173   9.68    268        9.6
   12/17/2018 15:00      61.7      61.3       67     50.4      0.00      4.15      57.9     0.46      1020.3     1.1      SE   131   3.3      SE   135   9.68    268        6.2
   12/17/2018 14:50      61.7      61.3       67     50.4      0.00      4.15      57.9     0.46      1020.3     1.9      SE   142   3.7      SE   127   9.68    267       28.4
   12/17/2018 14:40      61.7      61.3       66     49.8      0.00      4.15      57.9     0.46      1020.4     2.6     SSE   167   4.3       S   190   9.68    267       30.1
   12/17/2018 14:30      62.2      61.4       65     49.7      0.00      4.15      57.8     0.46      1020.4     2.8       S   180   5.5       S   191   9.68    267       26.9
   12/17/2018 14:20      62.6      61.9       64     49.8      0.00      4.15      57.8     0.46      1020.4     2.7     SSE   167   5.0     SSE   168   9.69    267       62.6
   12/17/2018 14:10      62.5      62.1       63     49.5      0.00      4.15      57.8     0.46      1020.6     2.1     SSE   154   3.5     SSE   164   9.69    267       55.8
   12/17/2018 14:00      62.6      62.2       62     49.2      0.00      4.15      57.7     0.46      1020.6     1.7      SE   145   4.4     SSE   158   9.69    267       50.5
   12/17/2018 13:50      63.0      62.4       61     48.9      0.00      4.15      57.7     0.46      1020.6     1.5      SE   129   3.6      SE   137   9.69    267       44.1
   12/17/2018 13:40      62.7      62.2       61     49.0      0.00      4.15      57.7     0.46      1020.6     1.9      SE   145   4.1     SSW   209   9.69    267      133.6
   12/17/2018 13:30      62.7      62.2       62     49.2      0.00      4.15      57.7     0.46      1020.7     1.0       S   181   1.9       S   183   9.69    267       62.4
   12/17/2018 13:20      62.8      62.4       61     49.0      0.00      4.15      57.6     0.46      1020.7     1.1      NE    54   1.9      NE    50   9.69    267       55.7
   12/17/2018 13:10      62.8      62.4       61     49.0      0.00      4.15      57.6     0.46      1020.8     1.2     ENE    63   3.2       E    84   9.69    267       61.2
   12/17/2018 13:00      63.1      62.6       61     49.0      0.00      4.15      57.6     0.46      1021.0     1.3       E    81   2.8       E    88   9.69    267       77.3
   12/17/2018 12:50      64.0      62.7       60     49.0      0.00      4.15      57.6     0.46      1021.1     1.5       E    91   4.0       E    82   9.70    267       91.0
   12/17/2018 12:40      64.8      63.7       58     49.2      0.00      4.15      57.6     0.46      1021.2     1.3       E    89   3.1     ESE   102   9.70    266      157.5
   12/17/2018 12:30      64.7      63.2       59     49.2      0.00      4.15      57.6     0.46      1021.4     0.7     NNW   327   2.3     NNW   334   9.70    266      248.2
   12/17/2018 12:20      63.3      61.8       61     49.0      0.00      4.15      57.5     0.45      1021.6     0.7     WSW   251   2.4     WSW   242   9.70    267      246.2
   12/17/2018 12:10      62.0      61.4       62     48.7      0.00      4.15      57.5     0.46      1021.8     0.4      NW   307   1.4       W   279   9.70    267       56.1
   12/17/2018 12:00      62.0      61.4       63     48.8      0.00      4.15      57.6     0.46      1022.0     1.4      SW   231   4.1      SW   235   9.70    267       69.8
   12/17/2018 11:50      63.0      61.5       62     48.6      0.00      4.15      57.5     0.46      1022.2     2.2       W   263   5.0       W   264   9.70    267       94.8
   12/17/2018 11:40      63.0      62.2       60     48.9      0.00      4.15      57.5     0.45      1022.3     1.8       W   262   4.8       W   271   9.70    266      226.2
   12/17/2018 11:30      62.5      61.3       62     48.3      0.00      4.15      57.5     0.45      1022.5     1.1     NNW   348   2.6       E    85   9.70    266      257.8
   12/17/2018 11:20      62.2      61.2       62     48.3      0.00      4.15      57.5     0.45      1022.7     1.4     WNW   293   3.2     WNW   289   9.70    267      151.9
   12/17/2018 11:10      62.5      61.5       61     48.7      0.00      4.15      57.5     0.45      1022.9     1.1     WNW   302   3.0     WNW   287   9.70    266      237.8
   12/17/2018 11:00      61.8      60.3       65     48.7      0.00      4.15      57.5     0.45      1023.2     1.1     NNW   344   3.7     NNE    14   9.70    266      277.5
   12/17/2018 10:50      60.6      59.7       65     48.5      0.00      4.15      57.5     0.45      1023.5     0.6     NNE    27   1.8     NNW   341   9.70    267      180.3
   12/17/2018 10:40      61.2      59.8       65     48.5      0.00      4.15      57.5     0.45      1023.6     1.8     NNE    13   3.5       N     0   9.70    267      196.4
   12/17/2018 10:30      61.1      58.6       68     49.0      0.00      4.15      57.5     0.45      1023.6     0.7     WNW   303   3.3      NE    34   9.70    267      274.7
   12/17/2018 10:20      58.9      58.0       70     48.5      0.00      4.15      57.5     0.46      1023.7     1.0      NE    40   2.8       N    11   9.70    268      167.4
   12/17/2018 10:10      58.3      57.9       71     48.6      0.00      4.15      57.5     0.46      1023.9     1.1     SSE   156   2.6     ENE    59   9.70    268      150.0
   12/17/2018 10:00      58.2      57.7       71     48.5      0.00      4.15      57.6     0.46      1024.0     0.4     NNE    28   1.2       S   177   9.70    268      108.5
   12/17/2018 09:50      58.0      57.4       71     48.4      0.00      4.15      57.6     0.46      1024.0     0.5      NE    39   1.5     NNE    21   9.70    268      133.4
   12/17/2018 09:40      57.7      57.0       72     48.6      0.00      4.15      57.5     0.46      1024.1     0.6      NE    37   1.6     SSE   149   9.21    268      132.3
   12/17/2018 09:30      57.2      56.4       73     48.4      0.00      4.15      57.5     0.46      1024.0     0.7      NE    34   1.9      NE    51   9.21    268       87.2
   12/17/2018 09:20      56.5      56.0       74     48.2      0.00      4.15      57.5     0.46      1024.0     0.5       E    82   1.7       E    84   9.21    268       75.1
   12/17/2018 09:10      56.3      55.8       75     48.1      0.00      4.15      57.6     0.46      1024.0     1.0       E    82   2.4     ESE   123   9.21    268       89.7
   12/17/2018 09:00      56.4      55.9       75     48.3      0.00      4.15      57.6     0.46      1023.8     0.5     ENE    71   2.0     ESE   109   9.21    268       91.3
   12/17/2018 08:50      57.3      56.3       73     48.1      0.00      4.15      57.6     0.46      1023.6     0.4     NNE    24   2.0      NE    56   9.21    269       73.7
   12/17/2018 08:40      57.1      55.5       75     48.8      0.00      4.15      57.6     0.46      1023.5     0.5     ENE    78   2.7      SE   144   9.21    271      147.1
   12/17/2018 08:30      55.8      54.5       78     48.3      0.00      4.15      57.6     0.46      1023.2     0.6     ENE    66   2.5       E    87   9.21    288      106.9
   12/17/2018 08:20      54.8      53.8       80     48.0      0.00      4.15      57.6     0.46      1023.0     1.8      NE    49   3.0     ENE    57   9.21    268       86.2
   12/17/2018 08:10      54.2      53.0       83     48.8      0.00      4.15      57.6     0.46      1022.9     0.8      NE    43   2.9      NE    45   9.21    269       77.4
   12/17/2018 08:00      53.2      51.5       88     48.6      0.00      4.15      57.6     0.46      1022.7     0.1      SW   222   0.9     WNW   296   9.21    269       80.4
   12/17/2018 07:50      51.6      50.8       88     47.8      0.00      4.15      57.6     0.46      1022.4     0.0       W   270   0.4       W   267   9.21    271       10.9
   12/17/2018 07:40      50.9      50.0       89     47.4      0.00      4.15      57.6     0.46      1022.4     0.4     SSW   195   1.9     SSW   193   9.21    272        0.9
   12/17/2018 07:30      50.1      49.7       89     46.8      0.00      4.15      57.6     0.46      1022.3     0.3      SW   226   1.8     SSW   200   9.21    270      -14.4
   12/17/2018 07:20      49.9      49.4       89     46.6      0.00      4.15      57.6     0.46      1022.3     0.0     SSE   147   0.5     SSE   155   9.21    270       -9.6
   12/17/2018 07:10      49.7      49.0       89     46.0      0.00      4.15      57.6     0.46      1022.4     0.7      SE   136   1.5      SE   128   9.21    272       -3.1
   12/17/2018 07:00      50.0      49.4       88     46.2      0.00      4.15      57.7     0.46      1022.2     0.6     WNW   297   1.3     WSW   239   9.21    271      -18.9
   12/17/2018 06:50      50.0      49.3       87     45.9      0.00      4.15      57.6     0.46      1021.9     0.3       W   259   1.5     SSE   148   9.21    275      -44.8
   12/17/2018 06:40      51.1      49.8       86     46.0      0.00      4.15      57.7     0.46      1021.6     1.9      SE   144   2.8      SE   144   9.21    270      -48.7
   12/17/2018 06:30      51.7      50.8       84     46.4      0.00      4.15      57.7     0.46      1021.7     1.1     SSW   208   2.3     SSW   197   9.21    268      -52.7
   12/17/2018 06:20      51.9      51.4       83     46.8      0.00      4.15      57.7     0.46      1021.8     0.8     WNW   288   2.8       W   262   9.21    270      -52.6
   12/17/2018 06:10      51.8      51.0       83     46.4      0.00      4.15      57.7     0.46      1021.7     2.7      SW   215   4.2       S   184   9.21    273      -51.4
   12/17/2018 06:00      51.5      50.8       83     46.1      0.00      4.15      57.7     0.46      1021.4     2.4     SSW   208   3.7     WSW   248   9.21    275      -42.8
   12/17/2018 05:50      52.0      51.2       82     46.0      0.00      4.15      57.7     0.46      1021.1     1.5      SE   130   3.4      SE   138   9.21    276      -40.6
   12/17/2018 05:40      52.0      51.6       82     46.3      0.00      4.15      57.7     0.46      1021.2     2.9     SSW   205   5.2     SSW   204   9.21    278      -32.9
   12/17/2018 05:30      52.0      51.4       83     46.8      0.00      4.15      57.7     0.46      1020.9     2.5     WNW   301   4.7      NW   322   9.21    281      -21.1
   12/17/2018 05:20      52.1      51.6       84     46.9      0.00      4.15      57.7     0.46      1020.6     1.2       N     3   3.7       W   274   9.21    283      -18.1
   12/17/2018 05:10      52.0      51.5       85     47.4      0.00      4.15      57.7     0.46      1020.2     3.8      NW   310   7.4     WNW   288   9.21    287      -19.7
   12/17/2018 05:00      51.8      50.5       87     47.2      0.00      4.15      57.7     0.46      1019.0     2.6     ENE    78   6.7     ENE    61   9.21    297      -15.7
   12/17/2018 04:50      50.6      50.1       88     46.9      0.00      4.15      57.7     0.46      1019.8     2.6       E    92   5.3     ESE   104   9.21    273      -13.1
   12/17/2018 04:40      50.6      50.0       88     46.6      0.00      4.15      57.7     0.46      1020.8     1.2       E    83   2.6     ENE    78   9.21    270      -15.4
   12/17/2018 04:30      50.9      50.1       87     46.6      0.00      4.15      57.7     0.46      1021.2     0.9     ENE    63   1.6      NE    55   9.21    270      -17.6
   12/17/2018 04:20      51.4      50.6       86     46.9      0.00      4.15      57.8     0.46      1021.4     0.5      SE   127   1.4      SE   142   9.21    270      -20.7
   12/17/2018 04:10      51.3      50.6       87     47.3      0.00      4.15      57.8     0.46      1021.6     0.6       W   267   2.3     WNW   288   9.21    270      -21.3
   12/17/2018 04:00      50.9      50.1       87     46.5      0.00      4.15      57.8     0.46      1021.4     0.8      NW   310   2.5       W   277   9.21    271      -20.4
   12/17/2018 03:50      51.1      50.4       87     46.9      0.00      4.15      57.8     0.46      1021.4     0.3     ENE    68   1.2     SSW   196   9.21    270      -20.5
   12/17/2018 03:40      50.9      50.0       88     46.8      0.00      4.15      57.7     0.46      1021.4     0.6      SW   225   2.0     SSW   208   9.21    271      -20.7
   12/17/2018 03:30      50.4      49.9       88     46.5      0.00      4.15      57.7     0.46      1021.3     0.3       S   190   1.2      SE   146   9.21    272      -21.0
   12/17/2018 03:20      50.3      49.4       88     46.5      0.00      4.15      57.8     0.46      1021.2     2.1      SW   220   3.4     WSW   242   9.21    275      -22.3
   12/17/2018 03:10      49.8      49.4       88     46.0      0.00      4.15      57.8     0.46      1021.0     0.4       S   186   1.4     SSW   193   9.21    273      -21.4
   12/17/2018 03:00      50.0      49.4       87     46.0      0.00      4.15      57.8     0.46      1021.0     0.0       E    87   0.9       E    87   9.21    274      -21.2
   12/17/2018 02:50      50.0      49.5       87     46.0      0.00      4.15      57.8     0.46      1021.2     0.6      SW   219   1.4      SW   223   9.21    277      -22.1
   12/17/2018 02:40      50.3      49.7       86     46.0      0.00      4.15      57.8     0.46      1021.2     0.3      NE    54   1.2     ENE    58   9.21    275      -22.7
   12/17/2018 02:30      50.3      49.8       87     46.4      0.00      4.15      57.8     0.46      1021.4     0.5       S   180   1.5     WSW   259   9.21    270      -20.8
   12/17/2018 02:20      50.1      49.2       88     46.2      0.00      4.15      57.8     0.46      1021.3     1.6      SW   232   3.2     WSW   243   9.21    270      -24.2
   12/17/2018 02:10      50.0      49.2       87     45.9      0.00      4.15      57.8     0.46      1021.1     0.0       N     0   0.0     ESE   108   9.21    265      -31.1
   12/17/2018 02:00      50.0      49.6       87     46.2      0.00      4.15      57.9     0.46      1021.2     0.7     ESE   122   2.7      SE   139   9.21    266      -41.1
   12/17/2018 01:50      50.1      49.7       87     46.2      0.00      4.15      57.9     0.46      1021.3     0.7     SSE   164   1.4     SSE   157   9.21    269      -32.7
   12/17/2018 01:40      50.1      49.7       87     46.4      0.00      4.15      57.9     0.46      1021.3     0.3       S   178   1.5      SE   138   9.21    270      -26.0
   12/17/2018 01:30      50.0      49.6       88     46.3      0.00      4.15      57.8     0.46      1021.1     0.6      SW   226   1.5      SW   233   9.21    270      -25.9
   12/17/2018 01:20      49.9      49.4       87     45.9      0.00      4.15      57.9     0.46      1021.0     0.9       S   179   1.6      SE   140   9.21    269      -25.4
   12/17/2018 01:10      50.0      49.3       86     45.7      0.00      4.15      57.9     0.46      1020.9     1.1       S   173   2.2      SW   221   9.21    266      -31.7
   12/17/2018 01:00      50.6      49.9       85     46.0      0.00      4.15      57.9     0.46      1021.0     0.5     SSW   203   1.4       S   187   9.21    266      -51.8
   12/17/2018 00:50      50.8      50.2       85     46.2      0.00      4.15      57.8     0.46      1020.9     0.1     SSW   195   1.1     WSW   252   9.21    266      -48.0
   12/17/2018 00:40      51.0      50.5       85     46.4      0.00      4.15      57.8     0.46      1020.9     0.5     SSW   210   1.1      SW   228   9.21    270      -32.8
   12/17/2018 00:30      51.0      50.6       85     46.4      0.00      4.15      57.9     0.46      1021.1     0.0      SW   227   0.7      SW   224   9.21    270      -28.3
   12/17/2018 00:20      51.3      50.7       84     46.3      0.00      4.15      57.9     0.46      1021.1     0.0       N     0   0.0       E    95   9.21    270      -28.2
   12/17/2018 00:10      51.3      51.0       85     46.8      0.00      4.15      57.9     0.46      1021.1     0.3     SSE   154   1.6      SW   235   9.21    270      -27.2
   12/17/2018 00:00      51.2      50.6       86     46.7      0.00      4.15      57.9     0.46      1021.0     1.1      SW   226   2.2      SW   232   9.21    270      -29.3
   12/16/2018 23:50      51.0      50.6       85     46.5      0.00      4.15      57.9     0.46      1021.1     0.0      SE   132   0.7      SE   127   9.21    270      -22.8
   12/16/2018 23:40      51.1      50.6       85     46.5      0.00      4.15      57.9     0.46      1021.3     0.2      SE   139   1.0     ESE   104   9.21    270      -23.6
   12/16/2018 23:30      51.2      50.8       85     46.6      0.00      4.15      57.9     0.46      1021.4     0.0       N     0   0.0     ESE   119   9.21    270      -26.7
   12/16/2018 23:20      51.3      50.9       85     46.7      0.00      4.15      57.9     0.46      1021.5     0.0       N     0   0.0     NNE    32   9.21    270      -25.9
   12/16/2018 23:10      51.3      50.8       86     46.9      0.00      4.15      57.9     0.46      1021.4     0.0       N     0   0.0     WSW   255   9.21    270      -26.2
   12/16/2018 23:00      51.1      50.6       86     46.7      0.00      4.15      57.9     0.46      1021.3     0.2     WSW   243   0.6     WSW   243   9.21    270      -25.9
   12/16/2018 22:50      51.0      50.5       86     46.6      0.00      4.15      57.9     0.46      1021.2     0.2      SE   139   0.9      SE   136   9.21    270      -22.4
   12/16/2018 22:40      50.8      50.3       86     46.6      0.00      4.15      57.9     0.46      1021.3     0.6      SE   131   1.2      SE   133   9.21    270      -26.1
   12/16/2018 22:30      50.8      50.3       86     46.6      0.00      4.15      57.9     0.46      1021.4     0.4      SE   142   1.1     SSE   158   9.21    267      -37.0
   12/16/2018 22:20      50.8      50.3       86     46.5      0.00      4.15      57.9     0.46      1021.4     0.4     SSE   152   1.6      SE   142   9.21    266      -45.6
   12/16/2018 22:10      51.0      50.3       85     46.4      0.00      4.15      57.9     0.46      1021.3     0.3     SSE   157   1.5      SE   142   9.21    266      -43.8
   12/16/2018 22:00      51.5      50.7       84     46.3      0.00      4.15      57.9     0.46      1021.3     0.2      SE   145   0.9     SSE   147   9.21    266      -48.6
   12/16/2018 21:50      52.0      51.1       84     46.9      0.00      4.15      57.9     0.46      1021.3     0.4       S   172   1.5       S   185   9.21    267      -45.3
   12/16/2018 21:40      52.1      51.6       84     47.3      0.00      4.15      57.9     0.46      1021.2     1.1      SW   215   1.5       S   185   9.21    269      -36.3
   12/16/2018 21:30      52.0      51.3       84     46.9      0.00      4.15      57.9     0.46      1021.1     0.6      SW   228   1.5     SSW   194   9.21    269      -38.2
   12/16/2018 21:20      52.0      51.5       84     46.9      0.00      4.15      57.9     0.46      1021.0     0.8     SSE   160   1.7      SE   140   9.21    269      -37.9
   12/16/2018 21:10      51.9      51.4       82     46.4      0.00      4.15      57.9     0.46      1021.1     0.8      SE   145   1.7      SE   140   9.22    269      -41.3
   12/16/2018 21:00      52.0      51.6       81     46.0      0.00      4.15      57.9     0.46      1021.1     0.9     SSE   160   1.5     SSE   150   9.22    268      -40.9
   12/16/2018 20:50      52.0      51.7       81     46.3      0.00      4.15      57.9     0.46      1021.0     0.8       S   191   1.4      SW   224   9.22    268      -38.4
   12/16/2018 20:40      52.0      51.6       82     46.6      0.00      4.15      57.9     0.46      1021.0     1.0     SSW   198   1.7     SSW   203   9.22    268      -36.3
   12/16/2018 20:30      52.5      51.8       82     46.7      0.00      4.15      57.9     0.46      1020.9     0.6       S   182   1.2       S   177   9.22    269      -39.6
   12/16/2018 20:20      52.6      52.1       81     46.6      0.00      4.15      57.9     0.46      1020.9     0.4      SW   216   1.5      SW   222   9.22    268      -50.8
   12/16/2018 20:10      53.0      52.5       81     46.9      0.00      4.15      57.8     0.46      1021.0     0.6     SSW   203   2.0     WSW   257   9.22    268      -51.7
   12/16/2018 20:00      53.0      52.5       81     47.1      0.00      4.15      57.9     0.46      1021.0     1.7     SSW   214   3.0     WSW   250   9.22    268      -47.8
   12/16/2018 19:50      53.2      52.6       80     46.8      0.00      4.15      57.8     0.46      1020.9     0.5     SSW   204   1.4      SW   218   9.22    268      -49.9
   12/16/2018 19:40      53.8      53.0       79     47.0      0.00      4.15      57.8     0.46      1020.8     0.2     SSE   160   0.8     SSE   166   9.22    268      -53.4
   12/16/2018 19:30      54.4      53.5       77     46.9      0.00      4.15      57.8     0.46      1020.7     1.3     SSW   193   2.0     SSW   213   9.22    268      -57.3
   12/16/2018 19:20      54.9      54.0       75     46.6      0.00      4.15      57.8     0.46      1020.7     0.3     SSW   201   1.7      SW   231   9.22    268      -61.8
   12/16/2018 19:10      55.9      54.7       72     46.5      0.00      4.15      57.8     0.46      1020.7     0.5      SE   145   1.3      SE   139   9.22    267      -63.3
   12/16/2018 19:00      56.8      55.6       69     46.1      0.00      4.15      57.7     0.46      1020.7     0.4      NW   305   1.5      NE    38   9.22    266      -63.3
   12/16/2018 18:50      58.0      56.5       67     46.5      0.00      4.15      57.7     0.46      1020.7     0.4     ESE   109   1.4     ENE    62   9.22    266      -60.0
   12/16/2018 18:40      58.5      57.7       66     46.8      0.00      4.15      57.6     0.46      1020.7     0.8     SSW   212   3.8     WSW   243   9.22    266      -56.0
   12/16/2018 18:30      58.8      58.1       64     46.2      0.00      4.15      57.6     0.46      1020.6     1.6     SSW   210   2.9     SSW   198   9.22    266      -51.5
   12/16/2018 18:20      59.4      58.5       61     45.8      0.00      4.15      57.6     0.46      1020.7     0.2     SSW   206   1.0     WSW   238   9.22    266      -51.3
   12/16/2018 18:10      59.4      58.6       60     45.4      0.00      4.15      57.6     0.46      1020.6     1.8     SSW   198   3.6     WSW   251   9.22    266      -50.8
   12/16/2018 18:00      59.0      57.7       59     44.2      0.00      4.15      57.6     0.46      1020.5     1.1     SSW   214   3.0      SW   230   9.22    266      -48.7
   12/16/2018 17:50      57.9      56.7       59     43.1      0.00      4.15      57.5     0.46      1020.4     0.1     SSW   199   0.9      NE    44   9.22    266      -48.9
   12/16/2018 17:40      57.2      56.6       57     41.5      0.00      4.15      57.5     0.46      1020.3     0.1     SSW   195   0.9      SW   214   9.22    266      -51.4
   12/16/2018 17:30      58.0      56.9       53     40.6      0.00      4.15      57.5     0.46      1020.2     0.6       S   176   1.4       S   187   9.22    265      -58.1
   12/16/2018 17:20      59.3      57.5       49     39.4      0.00      4.15      57.4     0.46      1020.0     1.0       S   176   2.6       S   187   9.23    265      -64.0
   12/16/2018 17:10      60.3      59.0       44     37.6      0.00      4.15      57.4     0.46      1019.9     1.3       S   188   2.9     SSW   206   9.23    264      -68.1
   12/16/2018 17:00      61.7      59.9       41     37.1      0.00      4.15      57.4     0.46      1019.8     0.5     SSE   158   2.0      SE   136   9.23    264      -73.0
   12/16/2018 16:50      64.1      61.6       36     35.9      0.00      4.15      57.3     0.46      1019.7     1.5       S   172   2.8       S   185   9.23    264      -74.2
   12/16/2018 16:40      65.2      63.9       33     34.7      0.00      4.15      57.3     0.46      1019.7     1.6     WSW   247   3.3     SSW   195   9.23    264      -73.3
   12/16/2018 16:30      65.9      64.9       32     34.3      0.00      4.15      57.2     0.46      1019.7     2.3      SW   221   4.5      SW   221   9.23    264      -69.3
   12/16/2018 16:20      67.1      65.7       35     37.5      0.00      4.15      57.2     0.46      1019.5     3.1       S   186   5.0       S   172   9.23    264      -63.6
   12/16/2018 16:10      68.3      67.0       35     39.4      0.00      4.15      57.2     0.46      1019.3     2.0       S   188   3.4     SSW   210   9.23    263      -50.4
   12/16/2018 16:00      70.3      68.1       32     38.0      0.00      4.15      57.1     0.46      1019.1     2.5     SSW   195   4.1      SW   217   9.23    263      -35.9
   12/16/2018 15:50      70.9      70.1       28     35.5      0.00      4.15      57.1     0.46      1018.9     1.2      SE   130   3.0     SSE   164   9.24    263      -24.8
   12/16/2018 15:40      72.8      70.5       26     35.2      0.00      4.15      57.0     0.46      1018.9     1.9     ESE   121   3.9     ENE    67   9.24    262      -11.0
   12/16/2018 15:30      73.5      72.5       25     35.2      0.00      4.15      57.0     0.46      1018.9     1.0     WSW   250   2.2     WSW   249   9.24    262        4.7
   12/16/2018 15:20      73.5      72.3       26     35.6      0.00      4.15      57.0     0.46      1018.9     1.4       W   274   3.4       W   267   9.24    262       44.1
   12/16/2018 15:10      72.6      71.5       27     36.3      0.00      4.15      56.9     0.45      1018.8     1.7     WNW   299   3.0      SW   229   9.24    262       84.4
   12/16/2018 15:00      72.0      71.2       27     35.6      0.00      4.15      56.9     0.46      1018.8     2.3     NNW   331   4.8       N    11   9.24    263       47.1
   12/16/2018 14:50      73.9      71.9       24     34.5      0.00      4.15      56.8     0.45      1018.8     3.0     SSW   208   7.4       W   279   9.24    262       69.0
   12/16/2018 14:40      76.0      73.7       22     33.2      0.00      4.15      56.8     0.46      1018.7     0.9     ENE    60   2.1     NNE    20   9.24    262       12.8
   12/16/2018 14:30      76.0      74.5       20     31.3      0.00      4.15      56.8     0.45      1018.7     0.7       S   179   3.3      SE   144   9.24    261       93.9
   12/16/2018 14:20      75.8      74.7       20     31.4      0.00      4.15      56.7     0.45      1018.8     1.1       S   169   2.4     ESE   117   9.24    261      167.1
   12/16/2018 14:10      77.6      74.4       20     32.3      0.00      4.15      56.7     0.45      1018.9     1.9     ENE    73   3.7      SE   135   9.24    261      190.6
   12/16/2018 14:00      77.6      75.8       20     32.6      0.00      4.15      56.6     0.45      1019.1     0.3       E    97   1.4      SE   138   9.24    261      204.1
   12/16/2018 13:50      75.9      74.2       21     32.1      0.00      4.15      56.6     0.45      1019.5     1.1       W   264   5.3     WSW   255   9.24    261      216.4
   12/16/2018 13:40      74.5      73.1       21     31.3      0.00      4.15      56.6     0.45      1019.7     2.3     WSW   251   4.1      NW   309   9.25    261      244.5
   12/16/2018 13:30      73.9      72.8       20     30.3      0.00      4.15      56.6     0.45      1019.7     3.0       W   261   5.2       W   265   9.25    262      196.5
   12/16/2018 13:20      75.0      73.9       20     31.2      0.00      4.15      56.5     0.45      1019.5     2.1       W   276   5.2     WSW   253   9.25    261      251.2
   12/16/2018 13:10      74.3      73.1       21     31.3      0.00      4.15      56.5     0.45      1019.4     1.2       N     8   3.6      NE    36   9.25    261      262.9
   12/16/2018 13:00      73.5      72.8       23     33.2      0.00      4.15      56.5     0.45      1019.4     1.6       N   352   3.3       N     2   9.25    262      277.1
   12/16/2018 12:50      73.2      71.7       24     34.2      0.00      4.15      56.5     0.45      1019.5     1.5       N     5   3.5       N   350   9.25    262      292.9
   12/16/2018 12:40      72.0      71.4       26     34.8      0.00      4.15      56.5     0.45      1019.7     2.1     NNE    20   4.9     NNW   348   9.25    262      304.8
   12/16/2018 12:30      71.7      70.4       27     35.7      0.00      4.15      56.4     0.45      1019.9     1.6     NNE    21   3.5     NNE    19   9.25    262      307.0
   12/16/2018 12:20      70.7      69.5       28     35.3      0.00      4.15      56.4     0.45      1019.9     1.6     NNE    34   3.4     ENE    62   9.25    263      260.4
   12/16/2018 12:10      70.5      69.5       27     34.8      0.00      4.15      56.4     0.45      1020.1     2.3     NNE    31   4.2       N     5   9.25    263      234.0
   12/16/2018 12:00      70.5      68.8       26     32.9      0.00      4.15      56.4     0.45      1020.2     1.8      NE    40   3.5     NNE    32   9.25    262      369.2
   12/16/2018 11:50      69.2      68.6       25     32.0      0.00      4.15      56.4     0.45      1020.3     1.7     NNE    30   3.3      NE    54   9.25    263      225.1
   12/16/2018 11:40      69.6      68.8       24     30.6      0.00      4.15      56.4     0.45      1020.5     2.3     NNE    33   3.5     ENE    57   9.25    263      253.9
   12/16/2018 11:30      69.5      68.2       23     29.8      0.00      4.15      56.4     0.45      1020.6     2.3     ENE    58   4.1      NE    44   9.25    263      372.6
   12/16/2018 11:20      68.3      67.4       25     30.9      0.00      4.15      56.4     0.45      1020.8     2.4      NE    52   4.0     NNE    28   9.25    263      259.5
   12/16/2018 11:10      67.9      67.1       28     33.7      0.00      4.15      56.4     0.45      1020.8     2.0      NE    44   4.2       E    83   9.25    263      320.0
   12/16/2018 11:00      67.4      66.8       29     33.6      0.00      4.15      56.5     0.45      1020.8     2.6      NE    41   4.1      NE    43   9.25    263      304.9
   12/16/2018 10:50      67.0      66.5       30     34.0      0.00      4.15      56.5     0.45      1020.9     2.2      NE    42   3.6      NE    52   9.25    264      294.3
   12/16/2018 10:40      66.9      66.3       30     34.0      0.00      4.15      56.5     0.45      1021.0     1.7     ENE    61   3.4       E    95   9.25    264      287.2
   12/16/2018 10:30      66.6      65.8       32     35.4      0.00      4.15      56.5     0.45      1021.1     1.5      NE    41   3.1     ESE   103   9.25    264      280.0
   12/16/2018 10:20      66.2      65.5       33     35.8      0.00      4.15      56.5     0.45      1021.2     0.8     NNE    26   2.5       N     9   9.25    264      270.7
   12/16/2018 10:10      66.7      65.9       31     35.1      0.00      4.15      56.5     0.45      1021.4     0.2     NNE    18   1.3     NNE    13   9.25    264      260.3
   12/16/2018 10:00      65.9      63.9       33     35.1      0.00      4.15      56.6     0.45      1021.5     0.2     NNE    12   0.9       N   355   9.25    264      251.7
   12/16/2018 09:50      64.5      61.9       35     34.5      0.00      4.15      56.6     0.45      1021.6     0.4      SW   219   1.9       S   186   9.25    264      238.9
   12/16/2018 09:40      62.0      60.8       35     33.6      0.00      4.15      56.6     0.45      1021.6     1.0       W   270   2.8       W   261   9.25    264      219.1
   12/16/2018 09:30      61.0      58.8       35     32.5      0.00      4.15      56.7     0.45      1021.7     0.8     WSW   246   1.8       W   269   9.25    264      210.0
   12/16/2018 09:20      58.9      57.4       38     32.8      0.00      4.15      56.7     0.45      1021.7     1.6     WSW   256   2.4      SW   234   9.25    264      197.4
   12/16/2018 09:10      57.7      56.9       42     34.6      0.00      4.15      56.7     0.45      1021.7     1.1     WSW   252   1.8     WSW   254   9.25    265      179.0
   12/16/2018 09:00      57.2      54.6       49     37.2      0.00      4.15      56.7     0.45      1021.6     0.1     WSW   251   1.2      SW   236   9.25    265      157.8
   12/16/2018 08:50      54.6      52.3       55     37.4      0.00      4.15      56.8     0.45      1021.6     0.0       N     0   0.0      SW   232   9.25    266      131.3
   12/16/2018 08:40      52.4      50.1       59     37.1      0.00      4.15      56.9     0.46      1021.5     0.0       S   185   0.5     SSE   146   9.25    267       86.5
   12/16/2018 08:30      50.4      49.3       61     37.1      0.00      4.15      56.8     0.46      1021.4     0.7       E    88   1.6      SE   143   9.25    267       93.3
   12/16/2018 08:20      49.8      46.9       65     36.9      0.00      4.15      56.9     0.46      1021.3     0.0     ENE    59   0.8     ENE    60   9.25    267       61.1
   12/16/2018 08:10      47.1      43.6       69     35.6      0.00      4.15      56.9     0.46      1021.2     0.4       E    92   0.9       E    94   9.25    267       77.2
   12/16/2018 08:00      43.8      42.0       74     34.9      0.00      4.15      56.9     0.46      1021.1     0.7      NE    56   1.3       E    82   9.25    269       31.6
   12/16/2018 07:50      42.2      41.2       75     34.3      0.00      4.15      56.9     0.46      1020.9     0.5     NNE    12   1.3     NNE    18   9.25    269      -18.4
   12/16/2018 07:40      41.4      40.0       78     34.1      0.00      4.15      57.0     0.46      1020.8     1.0      SE   141   1.9      SE   140   9.25    269      -25.3
   12/16/2018 07:30      40.2      39.3       80     34.0      0.00      4.15      57.0     0.46      1021.0     0.8     SSE   152   1.3      SE   144   9.25    270      -30.2
   12/16/2018 07:20      39.5      39.1       80     33.6      0.00      4.15      57.0     0.46      1020.9     0.6     SSE   156   1.6      SE   144   9.25    270      -37.1
   12/16/2018 07:10      39.3      38.4       81     33.6      0.00      4.15      57.0     0.46      1020.7     0.5       S   186   1.3     SSW   196   9.25    270      -44.7
   12/16/2018 07:00      38.8      38.2       81     33.1      0.00      4.15      57.1     0.46      1020.6     0.6     SSE   162   1.2     SSE   147   9.25    268      -50.8
   12/16/2018 06:50      38.9      38.4       80     33.0      0.00      4.15      57.1     0.46      1020.5     0.0       S   187   0.9       S   184   9.25    267      -55.1
   12/16/2018 06:40      39.3      38.5       79     32.8      0.00      4.15      57.1     0.46      1020.3     0.0       N     0   0.0     ESE   110   9.25    267      -57.6
   12/16/2018 06:30      39.9      39.0       78     33.0      0.00      4.15      57.1     0.46      1020.2     0.0      SE   143   0.7      SE   143   9.25    268      -58.4
   12/16/2018 06:20      39.8      39.3       78     33.2      0.00      4.15      57.1     0.46      1020.2     0.0       N     0   0.0     WSW   246   9.25    270      -58.0
   12/16/2018 06:10      39.5      38.8       81     33.6      0.00      4.15      57.2     0.46      1020.2     0.5      SW   219   1.3     SSW   205   9.25    270      -57.4
   12/16/2018 06:00      39.5      38.8       81     33.8      0.00      4.15      57.2     0.46      1020.2     0.3     SSE   164   1.1       S   173   9.25    267      -57.3
   12/16/2018 05:50      39.8      39.2       81     33.9      0.00      4.15      57.2     0.46      1020.1     0.1      SE   134   1.0      SE   143   9.25    268      -58.3
   12/16/2018 05:40      40.0      39.3       80     34.0      0.00      4.15      57.2     0.46      1020.0     0.6     SSE   155   1.6      SE   144   9.25    269      -57.8
   12/16/2018 05:30      40.1      39.7       80     34.2      0.00      4.15      57.3     0.46      1019.9     0.1     SSE   151   0.7     SSE   150   9.25    269      -57.9
   12/16/2018 05:20      40.4      39.8       80     34.1      0.00      4.15      57.3     0.46      1019.8     0.2     SSE   150   1.1     SSE   150   9.25    268      -58.6
   12/16/2018 05:10      40.4      39.6       81     34.4      0.00      4.15      57.3     0.46      1019.5     0.8     WSW   239   1.8     WSW   252   9.25    269      -58.2
   12/16/2018 05:00      40.1      39.6       80     34.1      0.00      4.15      57.3     0.46      1019.4     0.0       S   187   0.8       S   187   9.25    268      -58.4
   12/16/2018 04:50      40.6      39.9       79     34.3      0.00      4.15      57.4     0.46      1019.4     0.8     SSE   147   1.6      SE   143   9.25    268      -57.9
   12/16/2018 04:40      41.0      40.2       79     34.4      0.00      4.15      57.4     0.46      1019.4     0.2     SSE   154   0.9     SSE   166   9.25    270      -56.9
   12/16/2018 04:30      41.0      40.7       79     34.6      0.00      4.15      57.4     0.46      1019.4     0.0       N     0   0.0       S   174   9.25    268      -55.1
   12/16/2018 04:20      41.5      40.8       79     34.8      0.00      4.15      57.4     0.46      1019.5     0.1     SSE   166   1.1     SSE   153   9.25    271      -53.0
   12/16/2018 04:10      41.4      40.9       79     35.2      0.00      4.15      57.4     0.46      1019.5     0.7     SSE   158   1.2     SSE   148   9.25    271      -50.7
   12/16/2018 04:00      41.4      41.0       80     35.5      0.00      4.15      57.4     0.46      1019.6     0.8      SE   145   1.6      SE   138   9.25    272      -49.4
   12/16/2018 03:50      41.5      41.0       81     35.6      0.00      4.15      57.4     0.46      1019.6     0.7     SSE   156   1.4     SSE   159   9.26    272      -48.9
   12/16/2018 03:40      41.5      41.1       81     35.8      0.00      4.15      57.5     0.46      1019.7     0.5     SSE   156   1.1     SSE   154   9.26    273      -48.4
   12/16/2018 03:30      41.6      41.2       82     36.2      0.00      4.15      57.5     0.46      1019.8     0.2     SSE   154   1.0     SSE   157   9.26    274      -47.6
   12/16/2018 03:20      41.5      41.2       84     36.7      0.00      4.15      57.5     0.46      1019.8     0.4     SSE   158   0.9     SSE   156   9.25    275      -46.0
   12/16/2018 03:10      41.7      41.2       84     36.8      0.00      4.15      57.5     0.46      1019.9     0.0     SSE   155   0.6     SSE   155   9.25    276      -47.2
   12/16/2018 03:00      42.1      41.5       84     37.2      0.00      4.15      57.5     0.46      1020.0     0.0     SSE   150   0.6     SSE   151   9.25    276      -49.3
   12/16/2018 02:50      42.1      41.6       84     37.4      0.00      4.15      57.6     0.46      1020.1     0.5     SSE   152   1.2      SE   146   9.25    274      -51.0
   12/16/2018 02:40      42.6      41.7       83     37.1      0.00      4.15      57.6     0.46      1020.2     0.3     SSE   159   0.9     SSE   151   9.25    273      -53.2
   12/16/2018 02:30      42.8      42.4       82     37.5      0.00      4.15      57.6     0.46      1020.2     0.1     SSE   161   0.9     SSE   163   9.26    271      -54.3
   12/16/2018 02:20      43.1      42.5       82     37.4      0.00      4.15      57.6     0.46      1020.2     0.2     SSE   163   0.8     SSW   199   9.26    270      -55.8
   12/16/2018 02:10      43.2      42.6       81     37.6      0.00      4.15      57.6     0.46      1020.3     0.2       S   177   0.8      SW   215   9.26    269      -56.1
   12/16/2018 02:00      43.5      42.8       81     37.6      0.00      4.15      57.6     0.46      1020.2     0.4     SSE   148   1.1     SSE   155   9.26    269      -57.4
   12/16/2018 01:50      43.5      43.1       81     37.8      0.00      4.15      57.7     0.46      1020.2     0.5       S   179   1.4      SE   145   9.26    267      -57.7
   12/16/2018 01:40      43.9      43.2       80     37.9      0.00      4.15      57.7     0.46      1020.2     0.0       N     0   0.0      SE   139   9.26    266      -58.9
   12/16/2018 01:30      43.9      43.5       80     38.0      0.00      4.15      57.7     0.46      1020.2     0.0       N     0   0.0      SE   138   9.26    266      -59.3
   12/16/2018 01:20      44.5      43.6       79     37.9      0.00      4.15      57.7     0.46      1020.2     0.0      SE   144   0.4      SE   142   9.26    267      -61.2
   12/16/2018 01:10      44.9      44.2       79     38.4      0.00      4.15      57.7     0.46      1020.1     0.3     SSE   146   0.8     SSE   158   9.26    268      -61.5
   12/16/2018 01:00      44.9      44.5       80     38.8      0.00      4.15      57.8     0.46      1020.1     0.9      SE   141   1.6      SE   144   9.26    269      -60.0
   12/16/2018 00:50      45.0      44.5       81     39.1      0.00      4.15      57.8     0.46      1020.1     0.6     SSE   148   1.6      SE   141   9.26    269      -58.2
   12/16/2018 00:40      45.0      44.5       81     39.2      0.00      4.15      57.8     0.46      1020.1     0.7     SSE   152   1.7      SE   143   9.26    267      -58.2
   12/16/2018 00:30      45.3      44.7       81     39.3      0.00      4.15      57.8     0.46      1020.2     0.5     SSE   152   1.4      SE   139   9.26    266      -58.7
   12/16/2018 00:20      45.7      45.0       80     39.5      0.00      4.15      57.8     0.46      1020.1     0.4     SSE   151   1.4      SE   146   9.26    266      -59.2
   12/16/2018 00:10      45.6      45.1       80     39.6      0.00      4.15      57.8     0.46      1020.1     0.5     SSW   199   1.1      SW   230   9.26    268      -59.3
   12/16/2018 00:00      45.5      45.1       81     39.8      0.00      4.15      57.8     0.46      1020.1     0.3       S   175   1.3     SSE   163   9.26    267      -58.7
   12/15/2018 23:50      45.6      45.1       81     39.9      0.00      4.15      57.8     0.46      1020.2     0.5     SSE   165   1.0     SSE   159   9.26    267      -59.2
   12/15/2018 23:40      45.6      45.1       81     39.8      0.00      4.15      57.8     0.46      1020.3     0.7     SSE   164   1.2     SSE   147   9.26    267      -60.0
   12/15/2018 23:30      46.0      45.3       81     39.9      0.00      4.15      57.9     0.46      1020.3     0.0     SSW   194   0.9     SSW   195   9.26    266      -60.5
   12/15/2018 23:20      46.4      45.7       80     40.1      0.00      4.15      57.9     0.46      1020.3     0.4     SSE   150   1.2      SE   138   9.26    266      -61.2
   12/15/2018 23:10      46.5      46.1       80     40.4      0.00      4.15      57.9     0.46      1020.3     0.7       S   171   1.6      SE   141   9.26    266      -60.4
   12/15/2018 23:00      46.9      46.2       79     40.5      0.00      4.15      57.9     0.46      1020.3     0.1     SSE   164   0.7     SSE   164   9.26    266      -60.7
   12/15/2018 22:50      46.9      46.4       79     40.5      0.00      4.15      57.9     0.46      1020.3     0.3       S   170   0.9     SSE   162   9.26    268      -61.2
   12/15/2018 22:40      47.5      46.5       78     40.4      0.00      4.15      57.9     0.46      1020.4     0.3     SSE   154   1.4      SE   145   9.26    268      -61.0
   12/15/2018 22:30      47.5      46.9       78     40.6      0.00      4.15      57.9     0.46      1020.4     0.4     SSE   166   1.0     SSE   156   9.26    268      -61.1
   12/15/2018 22:20      47.7      47.0       77     40.5      0.00      4.15      57.9     0.46      1020.5     0.1       S   171   0.8       S   177   9.26    268      -61.9
   12/15/2018 22:10      48.3      47.4       76     40.5      0.00      4.15      57.9     0.46      1020.5     0.3     SSE   157   1.1     SSE   163   9.26    268      -62.4
   12/15/2018 22:00      48.3      47.8       76     40.7      0.00      4.15      57.9     0.46      1020.4     0.6     SSE   156   1.3     SSE   164   9.26    268      -62.5
   12/15/2018 21:50      48.5      48.0       74     40.4      0.00      4.15      57.9     0.46      1020.3     0.9     SSE   152   1.6     SSE   146   9.26    268      -62.2
   12/15/2018 21:40      48.9      48.3       73     40.3      0.00      4.15      57.9     0.46      1020.3     0.9     SSE   168   1.6      SW   217   9.26    268      -61.9
   12/15/2018 21:30      49.4      48.5       73     40.4      0.00      4.15      57.9     0.46      1020.2     0.6       S   188   1.7      SW   227   9.26    268      -62.5
   12/15/2018 21:20      49.5      48.9       71     40.1      0.00      4.15      57.9     0.46      1020.1     0.7       S   174   2.1       S   179   9.26    267      -62.2
   12/15/2018 21:10      49.6      48.9       72     40.4      0.00      4.15      57.9     0.46      1020.2     0.2       S   170   0.9       S   176   9.27    268      -62.2
   12/15/2018 21:00      50.0      49.2       72     40.8      0.00      4.15      57.9     0.46      1020.1     0.0     SSE   150   0.4     SSE   150   9.27    267      -62.4
   12/15/2018 20:50      50.6      49.6       71     41.0      0.00      4.15      57.9     0.46      1020.0     0.6      SE   144   1.2      SE   146   9.27    267      -63.0
   12/15/2018 20:40      50.9      50.2       71     41.4      0.00      4.15      57.9     0.46      1019.9     0.8      SE   146   1.2      SE   141   9.27    267      -62.4
   12/15/2018 20:30      51.0      50.4       71     41.5      0.00      4.15      57.9     0.46      1019.8     0.9     SSE   149   1.7      SE   146   9.27    267      -62.9
   12/15/2018 20:20      51.1      50.7       70     41.5      0.00      4.15      57.8     0.46      1019.8     1.0     SSE   151   1.7      SE   145   9.27    267      -63.2
   12/15/2018 20:10      52.0      50.9       69     41.4      0.00      4.15      57.8     0.46      1019.7     0.9     SSE   154   1.5      SE   145   9.27    267      -63.7
   12/15/2018 20:00      52.3      51.3       67     41.1      0.00      4.15      57.8     0.46      1019.7     1.1       S   186   2.1      SE   144   9.27    266      -63.6
   12/15/2018 19:50      52.5      52.1       65     41.0      0.00      4.15      57.8     0.46      1019.6     1.3     SSE   162   2.5      SE   141   9.27    266      -64.2
   12/15/2018 19:40      52.9      52.0       65     41.2      0.00      4.15      57.8     0.46      1019.6     1.0     SSE   158   1.6      SE   143   9.27    266      -63.9
   12/15/2018 19:30      53.0      52.5       65     41.1      0.00      4.15      57.8     0.46      1019.5     1.0     SSE   159   1.6      SE   145   9.27    266      -64.0
   12/15/2018 19:20      53.3      52.5       64     41.0      0.00      4.15      57.8     0.46      1019.5     0.6     SSE   158   1.9       S   181   9.27    266      -65.0
   12/15/2018 19:10      54.1      53.1       62     41.0      0.00      4.15      57.7     0.46      1019.5     0.8      SE   146   1.9      SE   146   9.27    266      -65.7
   12/15/2018 19:00      54.7      54.0       61     40.9      0.00      4.15      57.7     0.46      1019.3     1.1      SE   143   1.7      SE   135   9.28    266      -65.7
   12/15/2018 18:50      54.7      54.2       59     40.4      0.00      4.15      57.7     0.46      1019.1     0.3       S   171   1.2     SSW   198   9.28    266      -65.1
   12/15/2018 18:40      54.8      54.3       58     39.9      0.00      4.15      57.6     0.46      1019.1     0.9     SSE   160   1.4     SSE   151   9.28    266      -64.8
   12/15/2018 18:30      55.7      54.2       56     39.6      0.00      4.15      57.6     0.46      1019.0     0.3     SSE   152   1.1     SSE   148   9.28    266      -65.9
   12/15/2018 18:20      55.8      55.1       55     39.4      0.00      4.15      57.6     0.46      1018.9     0.5       S   174   1.3       S   191   9.28    266      -66.6
   12/15/2018 18:10      56.3      55.4       54     39.3      0.00      4.15      57.6     0.46      1018.8     0.2     SSW   196   2.0     SSW   202   9.28    266      -67.6
   12/15/2018 18:00      57.7      56.1       52     39.2      0.00      4.15      57.6     0.46      1018.8     0.8      SE   143   1.6       E    84   9.28    265      -68.1
   12/15/2018 17:50      57.9      57.4       50     39.1      0.00      4.15      57.5     0.46      1018.6     0.9      SW   219   2.1     SSW   203   9.28    265      -67.7
   12/15/2018 17:40      58.3      57.4       50     39.0      0.00      4.15      57.5     0.46      1018.4     0.5     SSE   168   1.5     SSE   153   9.28    265      -69.5
   12/15/2018 17:30      59.4      58.1       48     39.1      0.00      4.15      57.4     0.46      1018.3     0.9     SSE   160   1.8      SE   146   9.28    265      -70.9
   12/15/2018 17:20      60.8      59.3       46     38.8      0.00      4.15      57.4     0.46      1018.1     0.8      SE   146   1.5     SSE   151   9.28    264      -72.6
   12/15/2018 17:10      63.0      60.5       42     38.5      0.00      4.15      57.4     0.46      1018.0     1.0     SSE   162   2.0      SE   141   9.29    264      -73.2
   12/15/2018 17:00      65.7      62.8       38     37.7      0.00      4.15      57.3     0.46      1018.0     2.1     SSW   192   2.8     SSW   198   9.29    264      -72.3
   12/15/2018 16:50      67.3      65.4       34     37.4      0.00      4.15      57.3     0.46      1018.1     1.8      SW   225   2.5     WSW   242   9.29    264      -72.8
   12/15/2018 16:40      67.5      66.7       33     37.1      0.00      4.15      57.3     0.46      1018.0     1.8       W   260   3.4       W   279   9.29    263      -72.5
   12/15/2018 16:30      70.1      67.2       31     36.6      0.00      4.15      57.3     0.46      1017.9     0.8      SW   235   2.2      SW   218   9.29    263      -72.0
   12/15/2018 16:20      71.5      69.8       26     34.2      0.00      4.15      57.2     0.46      1017.7     2.7       W   264   4.6     WSW   255   9.29    262      -66.5
   12/15/2018 16:10      74.1      71.3       20     28.3      0.00      4.15      57.2     0.46      1017.6     2.3      SW   234   4.1       W   264   9.29    261      -46.1
   12/15/2018 16:00      76.4      73.9       13     21.2      0.00      4.15      57.1     0.46      1017.5     1.5      SW   229   2.3      SW   224   9.29    261      -28.3
   12/15/2018 15:50      76.2      75.5       10     16.1      0.00      4.15      57.1     0.46      1017.4     1.0     SSW   193   3.3     SSW   198   9.29    261      -14.2
   12/15/2018 15:40      76.6      75.7        9     14.3      0.00      4.15      57.1     0.46      1017.2     1.7     SSW   209   2.8      SW   220   9.29    260        2.2
   12/15/2018 15:30      78.3      76.4       10     15.4      0.00      4.15      57.0     0.46      1017.1     1.4     SSW   202   2.1     SSW   192   9.30    260       21.9
   12/15/2018 15:20      79.9      77.8        9     15.7      0.00      4.15      57.0     0.46      1017.1     1.1       W   272   2.4      NW   310   9.30    260       43.3
   12/15/2018 15:10      79.6      77.7       10     16.4      0.00      4.15      57.0     0.46      1017.0     1.1      SW   234   3.8     SSW   211   9.30    260       65.4
   12/15/2018 15:00      79.5      78.3        9     15.9      0.00      4.15      56.9     0.46      1017.0     0.5       W   261   1.3       W   269   9.30    260       86.5
   12/15/2018 14:50      79.1      78.3        9     14.8      0.00      4.15      56.9     0.46      1016.9     0.4       E    94   1.8       E    82   9.30    259      107.1
   12/15/2018 14:40      78.5      77.6        9     14.3      0.00      4.15      56.8     0.46      1016.9     1.2       W   264   3.7       W   267   9.30    260      128.7
   12/15/2018 14:30      78.6      77.5       11     18.8      0.00      4.15      56.8     0.46      1016.9     0.7       N     6   3.5       W   267   9.30    260      146.9
   12/15/2018 14:20      78.8      77.7       10     17.4      0.00      4.15      56.7     0.46      1016.9     0.5     SSE   152   2.0       N    11   9.30    260      163.8
   12/15/2018 14:10      78.2      76.6       10     17.5      0.00      4.15      56.7     0.46      1016.9     0.9      SW   236   2.7     WSW   237   9.30    260      181.1
   12/15/2018 14:00      77.3      76.6       11     17.6      0.00      4.15      56.7     0.46      1017.0     0.7     NNE    26   2.5       N     8   9.30    260      197.1
   12/15/2018 13:50      76.8      75.8       11     17.5      0.00      4.15      56.6     0.46      1017.1     1.1       S   186   3.4     SSW   208   9.30    261      213.8
   12/15/2018 13:40      77.2      75.7       11     17.3      0.00      4.15      56.6     0.46      1017.1     1.4     WSW   238   4.2     SSW   203   9.30    260      226.2
   12/15/2018 13:30      76.3      75.2       11     18.2      0.00      4.15      56.6     0.46      1017.1     1.2      NW   317   3.3     WNW   300   9.31    260      240.1
   12/15/2018 13:20      77.7      75.3       11     17.7      0.00      4.15      56.5     0.46      1017.2     3.2     WSW   247   5.7     WSW   244   9.31    261      253.1
   12/15/2018 13:10      77.9      76.3       11     18.5      0.00      4.15      56.5     0.46      1017.2     0.9     WNW   291   2.7       W   266   9.31    261      260.8
   12/15/2018 13:00      76.7      76.2       10     16.1      0.00      4.15      56.5     0.46      1017.2     0.9     NNW   337   2.2     NNW   337   9.31    261      270.9
   12/15/2018 12:50      77.3      75.8        9     14.1      0.00      4.15      56.5     0.46      1017.3     1.3     WSW   239   2.5      SW   218   9.31    261      281.5
   12/15/2018 12:40      77.2      74.8       10     15.7      0.00      4.15      56.5     0.46      1017.5     0.4      SW   231   3.0     SSW   206   9.31    261      287.6
   12/15/2018 12:30      75.0      73.9       10     15.5      0.00      4.15      56.4     0.46      1017.6     1.1       W   279   3.4     WNW   284   9.31    261      294.4
   12/15/2018 12:20      74.6      73.8       12     17.4      0.00      4.15      56.5     0.46      1017.6     1.4      NW   310   3.1     WNW   283   9.31    261      300.6
   12/15/2018 12:10      74.5      73.7       12     18.4      0.00      4.15      56.5     0.46      1017.8     1.1      NW   310   2.9      NW   322   9.31    261      306.1
   12/15/2018 12:00      73.8      71.7       13     18.7      0.00      4.15      56.4     0.46      1017.9     0.9       W   273   3.4     WSW   252   9.31    261      308.7
   12/15/2018 11:50      73.5      71.9       14     20.5      0.00      4.15      56.5     0.46      1018.1     1.5     NNW   344   3.1     WNW   299   9.31    261      310.5
   12/15/2018 11:40      73.8      71.9       16     23.3      0.00      4.15      56.5     0.46      1018.3     0.7     WNW   298   2.7     WNW   290   9.31    262      311.4
   12/15/2018 11:30      72.0      70.8       16     23.3      0.00      4.15      56.5     0.46      1018.5     0.8     NNW   336   1.7      NW   322   9.31    262      310.1
   12/15/2018 11:20      71.6      70.5       16     22.5      0.00      4.15      56.5     0.46      1018.7     0.9     NNW   348   2.7       N   355   9.31    263      308.1
   12/15/2018 11:10      70.5      69.1       17     23.4      0.00      4.15      56.5     0.46      1018.8     0.3     NNW   342   1.5     NNW   334   9.31    263      305.6
   12/15/2018 11:00      69.8      69.2       21     27.6      0.00      4.15      56.5     0.46      1018.9     0.8     NNW   339   1.9     WNW   295   9.31    263      300.7
   12/15/2018 10:50      69.5      68.1       23     29.3      0.00      4.15      56.5     0.46      1019.2     0.4     NNW   346   1.4     NNE    29   9.31    263      296.0
   12/15/2018 10:40      68.5      67.8       23     29.2      0.00      4.15      56.5     0.46      1019.4     0.5      NW   317   1.5       N   355   9.31    264      287.9
   12/15/2018 10:30      67.9      65.8       24     29.2      0.00      4.15      56.6     0.46      1019.6     0.3       W   271   1.2       N     0   9.31    263      281.2
   12/15/2018 10:20      66.2      64.9       26     29.6      0.00      4.15      56.6     0.46      1019.7     0.4     NNW   335   1.6     NNW   338   9.31    263      271.9
   12/15/2018 10:10      64.9      63.2       27     28.9      0.00      4.15      56.6     0.46      1019.8     0.7     NNW   330   2.3       N   355   9.31    264      262.6
   12/15/2018 10:00      63.5      62.4       28     28.9      0.00      4.15      56.6     0.46      1019.9     1.0       N     8   2.1     NNE    22   9.31    264      250.9
   12/15/2018 09:50      62.6      61.1       30     30.1      0.00      4.15      56.7     0.46      1019.9     0.6       N     4   1.4       N     2   9.31    264      239.0
   12/15/2018 09:40      61.4      60.4       31     29.9      0.00      4.15      56.7     0.46      1019.9     0.5     NNE    18   1.2     NNE    16   9.31    264      226.5
   12/15/2018 09:30      60.8      58.6       36     32.6      0.00      4.15      56.7     0.46      1020.1     0.4     NNE    28   1.4       N     0   9.31    264      211.1
   12/15/2018 09:20      58.7      56.9       41     34.4      0.00      4.15      56.8     0.46      1020.0     0.9     ENE    62   1.7       E    84   9.31    265      195.1
   12/15/2018 09:10      57.0      56.4       41     33.2      0.00      4.15      56.8     0.46      1019.9     1.1     NNE    23   1.6     NNE    24   9.31    265      179.9
   12/15/2018 09:00      56.8      56.0       42     33.4      0.00      4.15      56.8     0.46      1019.8     0.0       N     0   0.0     NNE    26   9.31    265      163.0
   12/15/2018 08:50      56.2      53.9       44     33.6      0.00      4.15      56.9     0.46      1019.7     0.0      SE   137   0.4      SE   137   9.31    266      142.6
   12/15/2018 08:40      54.0      52.2       48     34.1      0.00      4.15      56.9     0.46      1019.6     0.0       N     0   0.0     ENE    74   9.31    266      123.5
   12/15/2018 08:30      52.4      49.2       53     34.3      0.00      4.15      56.9     0.46      1019.4     0.0     ENE    74   0.3     ENE    74   9.31    266      104.7
   12/15/2018 08:20      49.1      46.0       57     32.7      0.00      4.15      56.9     0.46      1019.3     0.0      NE    53   0.3     ENE    74   9.31    266       86.7
   12/15/2018 08:10      46.1      42.0       64     32.8      0.00      4.15      56.9     0.46      1019.1     0.0       N     0   0.0      NE    39   9.31    267       68.2
   12/15/2018 08:00      42.1      39.8       72     32.5      0.00      4.15      57.0     0.46      1019.1     0.5      SE   142   1.6      SE   142   9.31    268       21.8
   12/15/2018 07:50      40.1      39.3       74     31.9      0.00      4.15      57.1     0.46      1019.2     0.6      SE   138   1.6      SE   142   9.31    269      -36.5
   12/15/2018 07:40      39.4      38.4       75     31.5      0.00      4.15      57.0     0.46      1019.3     0.0     ESE   120   0.4     ESE   120   9.31    269      -40.1
   12/15/2018 07:30      38.7      38.0       76     31.3      0.00      4.15      57.1     0.46      1019.3     0.0     ESE   112   0.5     ESE   119   9.31    269      -42.9
   12/15/2018 07:20      38.5      37.9       75     30.9      0.00      4.15      57.1     0.46      1019.2     0.0       E    79   0.4       E    79   9.31    269      -46.6
   12/15/2018 07:10      38.4      37.8       75     31.0      0.00      4.15      57.1     0.46      1019.3     0.3     SSE   168   1.1      SW   219   9.31    269      -50.1
   12/15/2018 07:00      38.1      37.6       76     31.0      0.00      4.15      57.1     0.46      1019.3     0.4     SSE   160   0.9     SSE   148   9.31    269      -55.0
   12/15/2018 06:50      38.5      37.8       75     31.1      0.00      4.15      57.2     0.46      1019.2     0.2     SSE   161   1.1     SSE   150   9.31    269      -57.9
   12/15/2018 06:40      38.7      38.2       76     31.4      0.00      4.15      57.2     0.46      1019.1     0.1      NW   320   0.9      NW   322   9.31    269      -58.7
   12/15/2018 06:30      38.7      38.4       76     31.4      0.00      4.15      57.2     0.46      1018.9     0.4     SSE   148   1.4      SE   142   9.31    269      -58.3
   12/15/2018 06:20      38.9      38.4       75     31.2      0.00      4.15      57.3     0.46      1019.0     0.9     SSE   161   1.8      SE   142   9.31    269      -58.7
   12/15/2018 06:10      38.7      38.2       76     31.5      0.00      4.15      57.3     0.46      1018.9     0.3      SW   221   1.5      SW   224   9.31    269      -59.1
   12/15/2018 06:00      39.1      38.4       75     31.5      0.00      4.15      57.3     0.46      1018.8     0.2     SSE   164   1.0      SE   135   9.31    269      -59.2
   12/15/2018 05:50      39.6      38.8       74     31.5      0.00      4.15      57.3     0.46      1018.7     1.0      SE   139   1.9      SE   136   9.31    269      -59.6
   12/15/2018 05:40      39.7      39.2       73     31.5      0.00      4.15      57.3     0.46      1018.8     0.2     SSE   163   1.0      SE   143   9.31    269      -59.5
   12/15/2018 05:30      39.8      39.0       75     31.9      0.00      4.15      57.4     0.46      1018.8     0.8     SSE   153   1.1      SE   144   9.32    268      -60.3
   12/15/2018 05:20      39.4      38.8       74     31.3      0.00      4.15      57.4     0.46      1018.7     0.8     SSE   159   1.6       S   176   9.31    269      -60.4
   12/15/2018 05:10      39.7      39.1       72     31.1      0.00      4.15      57.4     0.46      1018.7     0.2     SSE   165   1.2     SSE   162   9.32    269      -60.1
   12/15/2018 05:00      39.6      39.1       72     31.1      0.00      4.15      57.4     0.46      1018.7     0.2     SSW   213   0.8       S   172   9.32    268      -59.6
   12/15/2018 04:50      39.5      39.1       73     31.2      0.00      4.15      57.5     0.46      1018.6     0.3     SSE   159   1.0     SSE   154   9.32    268      -60.2
   12/15/2018 04:40      40.0      39.2       73     31.3      0.00      4.15      57.5     0.46      1018.7     0.2      SE   145   1.1      SE   136   9.32    269      -60.6
   12/15/2018 04:30      40.4      39.8       71     31.6      0.00      4.15      57.5     0.46      1018.8     0.0     NNE    31   0.7      SE   133   9.32    268      -59.7
   12/15/2018 04:20      40.3      39.7       72     31.5      0.00      4.15      57.5     0.46      1018.9     0.5     SSE   161   1.3     SSE   161   9.32    268      -58.9
   12/15/2018 04:10      39.9      39.3       73     31.7      0.00      4.15      57.6     0.46      1019.1     1.0     SSE   162   1.7      SE   145   9.32    268      -59.4
   12/15/2018 04:00      39.8      39.5       74     31.9      0.00      4.15      57.5     0.46      1019.3     0.2     SSE   151   1.1     SSE   152   9.32    268      -60.6
   12/15/2018 03:50      40.7      39.5       73     32.0      0.00      4.15      57.6     0.46      1019.3     0.9      SE   140   1.9      SE   138   9.32    268      -61.5
   12/15/2018 03:40      41.0      40.3       71     31.8      0.00      4.15      57.5     0.46      1019.3     0.1     SSE   152   0.8     SSE   155   9.32    268      -61.2
   12/15/2018 03:30      41.4      40.7       70     31.9      0.00      4.15      57.6     0.46      1019.3     0.0       N     0   0.0     WSW   253   9.32    268      -61.3
   12/15/2018 03:20      41.6      41.0       69     32.0      0.00      4.15      57.6     0.46      1019.3     0.4       N     5   1.2       N   350   9.32    268      -61.1
   12/15/2018 03:10      42.0      41.4       67     31.8      0.00      4.15      57.6     0.46      1019.3     0.5      SE   141   1.9      SE   129   9.32    268      -61.9
   12/15/2018 03:00      42.0      41.0       69     32.0      0.00      4.15      57.6     0.46      1019.5     1.6     SSE   156   2.8      SE   134   9.32    268      -62.0
   12/15/2018 02:50      41.5      40.9       70     32.0      0.00      4.15      57.7     0.46      1019.8     1.0     SSE   159   2.1      SE   144   9.32    268      -63.0
   12/15/2018 02:40      41.8      41.2       68     31.7      0.00      4.15      57.7     0.46      1019.8     0.6      SE   143   2.1      SE   143   9.32    268      -63.1
   12/15/2018 02:30      42.0      41.1       68     31.7      0.00      4.15      57.7     0.46      1019.7     1.3     SSW   196   2.5      SW   236   9.32    268      -63.4
   12/15/2018 02:20      42.3      41.7       68     32.0      0.00      4.15      57.7     0.46      1019.6     0.0     SSE   151   0.5     SSE   151   9.32    268      -64.0
   12/15/2018 02:10      42.6      42.0       68     32.2      0.00      4.15      57.7     0.46      1019.5     0.4      SE   138   1.3      SE   134   9.32    268      -64.1
   12/15/2018 02:00      42.9      42.2       67     32.3      0.00      4.15      57.7     0.46      1019.8     0.7     SSE   155   2.0      SE   141   9.32    268      -63.6
   12/15/2018 01:50      42.9      42.3       67     32.5      0.00      4.15      57.7     0.46      1019.8     0.0     SSE   155   0.9     SSE   155   9.32    268      -63.5
   12/15/2018 01:40      42.8      42.3       66     32.1      0.00      4.15      57.8     0.46      1019.8     0.8     SSE   164   1.7       S   174   9.32    267      -63.6
   12/15/2018 01:30      43.4      42.3       68     32.9      0.00      4.15      57.8     0.46      1019.9     0.4     SSW   209   1.2      SW   222   9.32    268      -64.0
   12/15/2018 01:20      44.0      43.0       66     32.9      0.00      4.15      57.8     0.46      1019.9     0.0       N     0   0.0     SSW   200   9.32    268      -64.6
   12/15/2018 01:10      44.3      43.6       65     32.7      0.00      4.15      57.8     0.46      1020.0     0.2       S   185   1.0       S   187   9.32    267      -64.8
   12/15/2018 01:00      44.6      44.0       64     32.7      0.00      4.15      57.8     0.46      1020.1     0.4     SSE   151   0.9     SSE   152   9.32    267      -65.1
   12/15/2018 00:50      45.0      44.2       65     33.5      0.00      4.15      57.8     0.46      1020.2     0.5     SSE   156   1.0     SSE   157   9.32    267      -65.6
   12/15/2018 00:40      45.6      44.7       65     33.9      0.00      4.15      57.8     0.46      1020.3     0.2      SE   128   1.3      SE   137   9.32    267      -65.8
   12/15/2018 00:30      45.9      45.3       65     34.3      0.00      4.15      57.8     0.46      1020.3     0.7      SE   144   1.7      SE   136   9.32    267      -66.5
   12/15/2018 00:20      46.5      45.6       64     34.4      0.00      4.15      57.8     0.46      1020.4     0.7     SSE   157   1.5      SE   145   9.32    267      -66.8
   12/15/2018 00:10      47.8      46.2       63     35.0      0.00      4.15      57.8     0.46      1020.5     0.5     SSE   152   1.7     SSE   146   9.32    267      -67.3
   12/15/2018 00:00      48.3      47.5       61     35.2      0.00      4.15      57.8     0.46      1020.5     0.0     ESE   111   0.4     ESE   110   9.32    267      -64.5
   12/14/2018 23:50      48.5      47.9       61     35.2      0.00      4.15      57.9     0.46      1020.4     0.7       N     8   2.3      SE   137   9.32    267      -59.1
   12/14/2018 23:40      48.5      48.1       61     35.6      0.00      4.15      57.8     0.46      1020.4     1.3     SSE   159   3.2      SE   140   9.32    267      -53.5
   12/14/2018 23:30      48.5      48.1       63     36.1      0.00      4.15      57.8     0.46      1020.5     0.9     SSE   156   2.2      SE   138   9.32    267      -44.6
   12/14/2018 23:20      48.8      48.3       62     36.2      0.00      4.15      57.8     0.46      1020.8     0.4      SE   143   1.5      SE   136   9.32    267      -40.3
   12/14/2018 23:10      49.4      48.7       61     35.9      0.00      4.15      57.9     0.46      1020.7     0.3      SE   146   1.3      SE   132   9.32    267      -45.1
   12/14/2018 23:00      49.5      49.0       61     36.2      0.00      4.15      57.9     0.46      1020.6     0.7     SSE   164   2.7      SE   140   9.33    267      -48.2
   12/14/2018 22:50      49.5      48.7       62     36.7      0.00      4.15      57.9     0.46      1020.7     1.4     SSE   154   3.0      SE   137   9.33    267      -47.0
   12/14/2018 22:40      50.0      48.8       62     36.8      0.00      4.15      57.9     0.46      1020.8     1.4     SSE   152   2.7     SSE   148   9.33    267      -46.2
   12/14/2018 22:30      50.0      49.4       61     36.9      0.00      4.15      57.9     0.46      1020.8     0.9     SSW   197   2.4     WSW   240   9.33    267      -47.1
   12/14/2018 22:20      49.9      49.0       62     36.7      0.00      4.15      57.9     0.46      1020.6     1.0     SSW   205   2.5       S   190   9.33    267      -46.5
   12/14/2018 22:10      50.6      49.2       60     36.5      0.00      4.15      57.9     0.46      1020.6     1.2      SE   139   2.5      SE   141   9.33    266      -43.5
   12/14/2018 22:00      50.6      50.1       58     36.3      0.00      4.15      57.9     0.46      1020.8     0.2      SW   226   1.0     WSW   243   9.33    266      -43.1
   12/14/2018 21:50      51.3      50.3       58     36.6      0.00      4.15      57.9     0.46      1020.7     0.0       N     0   0.0     ENE    76   9.33    266      -44.4
   12/14/2018 21:40      51.4      50.8       57     36.3      0.00      4.15      57.8     0.46      1020.7     0.5     SSE   153   1.5     SSE   164   9.33    266      -46.3
   12/14/2018 21:30      52.5      51.3       54     35.7      0.00      4.15      57.9     0.46      1020.8     1.0     SSE   156   1.8      SE   141   9.33    266      -47.1
   12/14/2018 21:20      52.4      51.5       52     35.0      0.00      4.15      57.9     0.46      1020.7     0.6     SSW   209   2.0       S   187   9.33    266      -46.6
   12/14/2018 21:10      52.7      51.3       55     36.5      0.00      4.15      57.9     0.46      1020.6     0.6       S   180   1.9     WSW   237   9.33    266      -48.4
   12/14/2018 21:00      54.9      52.6       51     36.0      0.00      4.15      57.9     0.46      1020.8     1.1      SE   145   2.3      SE   145   9.33    266      -49.7
   12/14/2018 20:50      54.8      53.5       48     35.0      0.00      4.15      57.8     0.46      1020.9     1.5       W   259   3.0     WSW   247   9.33    266      -49.3
   12/14/2018 20:40      54.2      53.5       51     35.9      0.00      4.15      57.8     0.46      1020.8     0.5      SW   236   1.5       W   279   9.33    266      -47.0
   12/14/2018 20:30      54.0      52.8       52     36.3      0.00      4.15      57.8     0.46      1020.6     1.9     WSW   245   3.4     WSW   252   9.33    266      -39.8
   12/14/2018 20:20      54.0      53.0       52     36.5      0.00      4.15      57.8     0.46      1020.4     0.7       S   191   2.2      SE   143   9.33    266      -34.7
   12/14/2018 20:10      54.1      53.6       52     36.5      0.00      4.15      57.8     0.46      1020.3     1.4      SW   228   2.1     WSW   240   9.33    266      -36.4
   12/14/2018 20:00      55.3      54.0       50     36.4      0.00      4.15      57.8     0.46      1020.4     0.5      SE   137   2.2      SE   143   9.33    266      -36.9
   12/14/2018 19:50      56.0      55.1       47     35.8      0.00      4.15      57.8     0.46      1020.6     0.1      SE   142   1.0      SE   140   9.33    266      -33.9
   12/14/2018 19:40      56.9      55.7       46     35.8      0.00      4.15      57.8     0.46      1020.6     0.9       S   185   2.8       S   185   9.33    266      -32.2
   12/14/2018 19:30      56.8      56.2       44     35.0      0.00      4.15      57.8     0.46      1020.7     1.4       W   272   4.3      NW   309   9.33    266      -32.5
   12/14/2018 19:20      56.4      55.4       45     35.1      0.00      4.15      57.8     0.46      1020.6     1.7     WSW   241   4.1      NW   321   9.33    266      -30.7
   12/14/2018 19:10      55.9      55.4       48     36.0      0.00      4.15      57.8     0.46      1020.6     1.1     SSE   160   2.4      SE   143   9.33    266      -30.2
   12/14/2018 19:00      57.0      55.5       47     36.0      0.00      4.15      57.7     0.46      1020.7     2.1      SE   146   3.1      SE   142   9.33    266      -28.7
   12/14/2018 18:50      57.6      56.5       43     34.7      0.00      4.15      57.7     0.46      1020.6     2.0     SSW   213   5.7      SW   226   9.33    266      -28.8
   12/14/2018 18:40      56.5      54.9       49     36.3      0.00      4.15      57.7     0.46      1020.5     1.8       W   276   5.7     WNW   285   9.33    266      -28.0
   12/14/2018 18:30      55.5      54.9       53     38.5      0.00      4.15      57.7     0.46      1020.5     0.4     SSE   152   1.4      SE   142   9.33    266      -29.9
   12/14/2018 18:20      56.0      55.2       54     38.9      0.00      4.15      57.7     0.46      1020.4     0.4      SW   228   1.5     SSW   204   9.33    266      -30.9
   12/14/2018 18:10      56.1      55.8       51     38.2      0.00      4.15      57.7     0.46      1020.4     1.2      SE   142   2.1      SE   140   9.33    266      -31.1
   12/14/2018 18:00      56.1      55.5       51     38.3      0.00      4.15      57.6     0.46      1020.4     0.8     SSE   147   1.7      SE   142   9.33    266      -29.5
   12/14/2018 17:50      56.0      55.5       53     38.6      0.00      4.15      57.6     0.46      1020.4     0.9     SSE   160   1.7       S   172   9.33    266      -27.3
   12/14/2018 17:40      56.4      55.8       52     38.7      0.00      4.15      57.6     0.46      1020.4     0.5      SE   139   1.6      SE   124   9.34    266      -30.1
   12/14/2018 17:30      56.4      56.0       52     38.6      0.00      4.15      57.6     0.46      1020.5     1.7      SE   140   2.4      SE   145   9.34    266      -31.2
   12/14/2018 17:20      56.8      56.0       50     38.1      0.00      4.15      57.5     0.46      1020.5     0.6     SSE   156   1.1     SSE   155   9.34    266      -32.7
   12/14/2018 17:10      57.2      56.5       48     37.3      0.00      4.15      57.5     0.46      1020.4     0.7     SSE   155   1.8     SSE   146   9.34    266      -35.3
   12/14/2018 17:00      57.7      57.0       49     38.1      0.00      4.15      57.5     0.46      1020.4     0.0       S   173   0.5     SSE   164   9.34    266      -35.7
   12/14/2018 16:50      58.1      57.4       49     38.5      0.00      4.15      57.5     0.46      1020.4     0.7      SE   143   2.0      SE   136   9.34    266      -37.4
   12/14/2018 16:40      58.8      57.8       49     39.0      0.00      4.15      57.5     0.46      1020.4     0.6     SSE   155   1.9      SE   142   9.34    266      -38.7
   12/14/2018 16:30      59.8      58.6       48     39.3      0.00      4.15      57.4     0.46      1020.4     0.5     SSE   151   1.0      SE   144   9.34    266      -38.0
   12/14/2018 16:20      60.6      59.6       46     38.9      0.00      4.15      57.4     0.46      1020.3     0.5       S   175   1.4     SSE   159   9.34    266      -37.1
   12/14/2018 16:10      61.4      60.3       44     38.9      0.00      4.15      57.4     0.46      1020.2     0.4       S   184   1.1     SSE   150   9.34    266      -33.2
   12/14/2018 16:00      62.8      61.1       44     39.6      0.00      4.15      57.4     0.46      1020.2     0.3       S   174   1.2       S   187   9.34    265      -27.4
   12/14/2018 15:50      64.7      62.5       40     38.8      0.00      4.15      57.4     0.46      1020.2     1.1      SW   230   1.6     SSW   210   9.34    265      -16.8
   12/14/2018 15:40      65.4      64.4       38     38.5      0.00      4.15      57.4     0.46      1020.1     0.0      SW   228   0.4      SW   228   9.34    265       -6.9
   12/14/2018 15:30      65.9      65.0       33     35.3      0.00      4.15      57.3     0.46      1020.2     0.2       E    79   0.9     ENE    74   9.34    264        1.3
   12/14/2018 15:20      66.3      65.7       30     33.5      0.00      4.15      57.3     0.46      1020.2     0.4     SSE   167   1.5      SE   139   9.34    264       26.9
   12/14/2018 15:10      66.2      65.3       30     33.3      0.00      4.15      57.3     0.46      1020.2     0.2     SSE   163   0.9     SSW   211   9.34    264       69.9
   12/14/2018 15:00      65.6      64.7       31     34.0      0.00      4.15      57.2     0.46      1020.1     0.4     ESE   123   1.2       S   187   9.34    264       90.0
   12/14/2018 14:50      65.0      64.4       33     35.0      0.00      4.15      57.2     0.46      1020.1     0.0       N     0   0.0      NE    49   9.34    264       45.5
   12/14/2018 14:40      64.7      64.1       31     33.0      0.00      4.15      57.2     0.46      1020.2     0.0      NE    39   0.5      NE    35   9.34    264       38.5
   12/14/2018 14:30      64.7      64.0       30     31.9      0.00      4.15      57.2     0.46      1020.2     0.5       S   171   2.0       S   174   9.34    264       47.3
   12/14/2018 14:20      64.5      64.1       29     31.2      0.00      4.15      57.2     0.46      1020.2     0.6     ESE   117   1.7       E    86   9.34    264       63.6
   12/14/2018 14:10      64.4      63.6       29     30.8      0.00      4.15      57.2     0.46      1020.2     1.1      NE    54   2.0      NE    51   9.34    264       82.1
   12/14/2018 14:00      64.5      63.7       31     33.0      0.00      4.15      57.1     0.46      1020.2     1.8      NE    50   2.8      NE    40   9.34    264       87.3
   12/14/2018 13:50      65.2      64.3       30     32.9      0.00      4.15      57.2     0.46      1020.5     1.0       N   358   2.9      NE    50   9.34    264       79.7
   12/14/2018 13:40      65.3      64.4       29     32.3      0.00      4.15      57.1     0.46      1020.5     0.5       N   355   2.1     NNE    13   9.34    264       84.0
   12/14/2018 13:30      64.7      64.0       32     33.5      0.00      4.15      57.1     0.46      1020.7     0.3       W   277   1.3       W   269   9.34    264      100.1
   12/14/2018 13:20      64.2      63.4       31     32.6      0.00      4.15      57.1     0.46      1020.8     0.4     ESE   110   1.5     SSE   150   9.34    264      106.2
   12/14/2018 13:10      63.4      62.5       31     31.4      0.00      4.15      57.1     0.46      1021.1     0.8     WSW   255   2.1     WSW   253   9.34    264      100.3
   12/14/2018 13:00      62.6      62.2       34     33.9      0.00      4.15      57.1     0.46      1021.3     1.9       W   263   3.9     WSW   254   9.34    264       90.2
   12/14/2018 12:50      62.6      62.0       36     34.8      0.00      4.15      57.1     0.46      1021.2     0.9     NNW   330   1.8     NNW   331   9.34    264       87.5
   12/14/2018 12:40      62.5      61.8       36     35.1      0.00      4.15      57.1     0.46      1021.2     1.0      NW   309   2.0      NW   306   9.34    264       86.1
   12/14/2018 12:30      62.3      61.5       36     34.8      0.00      4.15      57.1     0.46      1021.2     1.4       W   266   2.8     WSW   259   9.34    265       97.5
   12/14/2018 12:20      61.9      61.5       38     35.9      0.00      4.15      57.1     0.46      1021.4     2.1       W   265   3.7       W   265   9.34    265       86.4
   12/14/2018 12:10      62.0      61.5       38     36.1      0.00      4.15      57.1     0.46      1021.4     0.8     WNW   299   1.7      NW   310   9.34    265       75.7
   12/14/2018 12:00      61.7      61.4       38     35.5      0.00      4.15      57.1     0.46      1021.6     0.8     WNW   286   2.4     WSW   258   9.34    265       73.4
   12/14/2018 11:50      61.5      60.5       39     36.1      0.00      4.15      57.1     0.46      1021.7     0.1      NW   312   0.8      NW   313   9.34    265       82.2
   12/14/2018 11:40      60.8      59.9       41     36.8      0.00      4.15      57.1     0.46      1021.7     0.1       N   353   0.6     NNW   331   9.34    266       89.6
   12/14/2018 11:30      60.2      59.6       42     36.6      0.00      4.15      57.1     0.46      1021.9     1.1       W   278   3.0       W   269   9.34    265       92.8
   12/14/2018 11:20      59.9      59.3       42     36.5      0.00      4.15      57.1     0.46      1022.1     0.4     WNW   297   1.3     WNW   298   9.34    266       92.2
   12/14/2018 11:10      59.6      58.6       42     36.0      0.00      4.15      57.1     0.46      1022.2     0.2       E    85   0.9       E    95   9.34    266       97.8
   12/14/2018 11:00      58.9      57.6       42     35.1      0.00      4.15      57.1     0.46      1022.5     0.0       S   180   0.6      SE   140   9.34    266      104.0
   12/14/2018 10:50      57.8      56.5       41     33.4      0.00      4.15      57.1     0.46      1022.7     0.2       W   260   1.3     WSW   250   9.34    266       92.1
   12/14/2018 10:40      56.6      55.9       42     33.2      0.00      4.15      57.1     0.46      1023.0     1.6       W   260   3.3       W   262   9.34    266       77.4
   12/14/2018 10:30      56.1      55.4       46     35.2      0.00      4.15      57.1     0.46      1023.1     1.2       W   268   2.4     WSW   259   9.34    266       70.0
   12/14/2018 10:20      55.7      55.1       48     36.0      0.00      4.15      57.2     0.46      1023.1     0.7     WNW   292   1.8      NW   307   9.34    266       66.6
   12/14/2018 10:10      55.4      55.0       48     35.6      0.00      4.15      57.2     0.46      1023.2     1.1      NW   313   2.1      NW   316   9.34    266       61.2
   12/14/2018 10:00      55.4      55.0       49     36.2      0.00      4.15      57.2     0.46      1023.4     1.2      NW   319   2.4     WNW   291   9.34    266       63.4
   12/14/2018 09:50      55.7      55.1       48     35.9      0.00      4.15      57.2     0.46      1023.4     1.4      NW   322   3.0     NNW   332   9.34    266       67.0
   12/14/2018 09:40      56.1      55.4       48     36.1      0.00      4.15      57.2     0.46      1023.3     0.9       N   354   2.1       N     0   9.34    266       65.6
   12/14/2018 09:30      56.0      55.0       42     33.1      0.00      4.15      57.2     0.46      1023.3     0.3      NW   324   2.5      NW   307   9.34    266       69.6
   12/14/2018 09:20      55.2      53.0       45     33.0      0.00      4.15      57.3     0.46      1023.3     0.5      SW   225   1.3     WSW   245   9.34    266       70.0
   12/14/2018 09:10      53.2      51.6       52     35.3      0.00      4.15      57.2     0.46      1023.2     0.9     SSE   162   1.7      SE   138   9.34    266       67.4
   12/14/2018 09:00      51.8      50.3       55     35.3      0.00      4.15      57.3     0.46      1023.1     1.4      SE   135   2.3      SE   131   9.34    266       66.2
   12/14/2018 08:50      50.5      49.3       60     36.5      0.00      4.15      57.3     0.46      1023.0     1.0     SSE   148   2.0     SSE   152   9.34    267       47.2
   12/14/2018 08:40      49.4      48.6       61     35.9      0.00      4.15      57.3     0.46      1022.9     0.2     SSE   151   1.1     SSE   151   9.34    267       27.8
   12/14/2018 08:30      48.8      48.1       61     35.7      0.00      4.15      57.3     0.46      1023.1     0.1       S   177   1.0       S   180   9.34    267       16.6
   12/14/2018 08:20      48.3      47.1       62     35.1      0.00      4.15      57.4     0.46      1023.0     1.1     SSW   202   1.6     SSW   193   9.34    267       13.2
   12/14/2018 08:10      47.3      46.6       65     35.7      0.00      4.15      57.4     0.46      1023.1     0.3      SW   217   1.6     SSW   213   9.34    267       13.0
   12/14/2018 08:00      46.9      46.3       64     34.9      0.00      4.15      57.4     0.46      1023.0     0.4     NNE    33   1.1      NE    35   9.34    267       10.9
   12/14/2018 07:50      46.6      46.1       63     34.4      0.00      4.15      57.4     0.46      1023.1     0.4     SSE   153   1.3     SSE   147   9.35    267        0.7
   12/14/2018 07:40      46.3      45.6       64     34.4      0.00      4.15      57.4     0.46      1022.9     0.6      SW   231   1.2      SW   220   9.35    267       -9.1
   12/14/2018 07:30      45.9      45.5       64     34.3      0.00      4.15      57.4     0.46      1022.8     0.0       N     0   0.0     SSE   149   9.35    267      -19.4
   12/14/2018 07:20      45.7      44.9       64     33.9      0.00      4.15      57.4     0.46      1022.8     0.5     SSE   164   1.4     SSE   149   9.35    267      -21.9
   12/14/2018 07:10      45.6      44.9       65     34.0      0.00      4.15      57.5     0.46      1022.7     0.2     SSE   168   0.8      SE   144   9.35    267      -26.6
   12/14/2018 07:00      45.5      45.2       63     33.5      0.00      4.15      57.5     0.46      1022.8     0.3      SE   144   0.7      SE   128   9.35    267      -32.1
   12/14/2018 06:50      45.5      45.0       63     33.5      0.00      4.15      57.5     0.46      1022.7     0.0     WSW   245   0.8      SW   235   9.35    267      -32.1
   12/14/2018 06:40      45.3      44.9       63     33.1      0.00      4.15      57.5     0.46      1022.5     0.4       S   173   1.4       E    92   9.35    267      -32.4
   12/14/2018 06:30      45.4      44.6       62     32.6      0.00      4.15      57.5     0.46      1022.5     0.4     SSW   201   1.2      SW   232   9.35    267      -31.2
   12/14/2018 06:20      45.3      44.7       62     32.6      0.00      4.15      57.5     0.46      1022.5     0.3      SE   138   2.1      SE   135   9.35    267      -32.4
   12/14/2018 06:10      45.5      45.0       62     32.9      0.00      4.15      57.5     0.46      1022.4     0.0     ESE   123   0.7     ESE   123   9.35    267      -30.7
   12/14/2018 06:00      45.5      45.0       63     33.3      0.00      4.15      57.6     0.46      1022.4     0.0       N     0   0.0      SE   131   9.35    267      -31.4
   12/14/2018 05:50      45.5      45.0       61     32.4      0.00      4.15      57.6     0.46      1022.2     0.2       S   176   1.2       S   178   9.35    267      -29.2
   12/14/2018 05:40      45.5      44.9       59     31.6      0.00      4.15      57.6     0.46      1022.1     0.4     SSE   166   1.2     SSE   149   9.35    267      -27.0
   12/14/2018 05:30      45.1      44.7       59     31.3      0.00      4.15      57.6     0.46      1022.0     0.0       N     0   0.0       S   182   9.35    267      -25.8
   12/14/2018 05:20      45.0      44.4       61     31.8      0.00      4.15      57.6     0.46      1021.9     0.0       S   187   0.8       S   187   9.35    267      -29.9
   12/14/2018 05:10      45.0      44.5       60     31.6      0.00      4.15      57.6     0.46      1021.9     0.2      SE   138   1.0     SSE   150   9.35    267      -34.1
   12/14/2018 05:00      44.9      44.3       60     31.8      0.00      4.15      57.7     0.46      1021.9     0.4     NNW   332   1.7       N   352   9.35    267      -35.4
   12/14/2018 04:50      45.3      44.5       60     31.9      0.00      4.15      57.7     0.46      1022.0     0.5      SE   126   1.2      SE   145   9.35    267      -38.2
   12/14/2018 04:40      45.1      44.4       60     31.7      0.00      4.15      57.7     0.46      1021.9     0.4     SSE   167   1.1       S   185   9.35    267      -38.8
   12/14/2018 04:30      44.7      44.2       62     32.1      0.00      4.15      57.7     0.46      1022.0     0.3       S   188   0.9      NW   308   9.35    267      -39.1
   12/14/2018 04:20      44.7      44.3       61     31.9      0.00      4.15      57.7     0.46      1022.0     0.7     SSE   157   1.6      SE   142   9.35    267      -41.3
   12/14/2018 04:10      45.1      44.3       60     31.6      0.00      4.15      57.8     0.46      1021.9     0.6     SSE   146   1.5      SE   141   9.35    267      -42.5
   12/14/2018 04:00      45.0      44.5       58     30.8      0.00      4.15      57.8     0.46      1021.8     0.4       S   173   1.0       S   188   9.35    267      -42.7
   12/14/2018 03:50      45.3      44.4       61     32.1      0.00      4.15      57.8     0.46      1021.7     0.2       S   190   1.4       S   188   9.35    267      -44.6
   12/14/2018 03:40      45.3      44.9       59     31.8      0.00      4.15      57.8     0.46      1021.9     0.0     WNW   288   0.7     WNW   285   9.35    267      -44.6
   12/14/2018 03:30      45.6      44.9       60     32.2      0.00      4.15      57.8     0.46      1021.9     0.1       S   181   0.7     SSW   194   9.35    267      -44.3
   12/14/2018 03:20      45.6      45.0       59     32.0      0.00      4.15      57.8     0.46      1021.9     0.2       S   173   1.2       S   180   9.35    267      -42.2
   12/14/2018 03:10      45.8      45.4       59     32.0      0.00      4.15      57.9     0.46      1021.8     0.3     SSE   157   1.3     SSE   150   9.35    266      -40.6
   12/14/2018 03:00      45.7      45.3       59     32.1      0.00      4.15      57.9     0.46      1022.0     0.9      SE   144   1.5      SE   143   9.35    267      -40.0
   12/14/2018 02:50      45.7      45.4       56     30.7      0.00      4.15      57.9     0.46      1022.1     0.5     SSE   150   1.6      SE   137   9.35    267      -39.3
   12/14/2018 02:40      45.7      45.1       57     30.9      0.00      4.15      57.9     0.46      1022.3     0.4       S   189   1.3     SSW   201   9.35    266      -41.1
   12/14/2018 02:30      45.8      45.3       57     31.0      0.00      4.15      57.9     0.46      1022.5     0.2     SSE   160   1.2      SE   138   9.35    267      -41.4
   12/14/2018 02:20      45.7      45.2       57     31.1      0.00      4.15      58.0     0.46      1022.5     0.2     SSW   212   0.9      SW   220   9.35    267      -40.7
   12/14/2018 02:10      46.0      45.3       59     31.9      0.00      4.15      58.0     0.46      1022.5     0.1     WSW   252   1.2     WSW   257   9.35    267      -39.4
   12/14/2018 02:00      46.2      45.7       56     31.2      0.00      4.15      58.0     0.46      1022.6     0.3      SE   132   1.6      SE   136   9.35    267      -38.3
   12/14/2018 01:50      46.1      45.6       56     30.9      0.00      4.15      58.0     0.46      1022.7     0.0     SSW   197   0.7     SSW   202   9.35    266      -39.4
   12/14/2018 01:40      46.2      45.7       56     31.1      0.00      4.15      58.0     0.46      1022.7     0.6     SSE   154   1.6      SE   136   9.35    266      -41.2
   12/14/2018 01:30      46.3      45.8       55     30.8      0.00      4.15      58.0     0.46      1022.7     0.2       S   170   1.0       S   181   9.35    266      -41.0
   12/14/2018 01:20      46.3      45.8       56     31.0      0.00      4.15      58.0     0.46      1022.6     0.2      SE   145   1.2      SE   137   9.35    266      -42.4
   12/14/2018 01:10      46.3      45.9       56     31.0      0.00      4.15      58.0     0.46      1022.5     0.1     SSE   166   1.1     SSE   152   9.35    266      -44.0
   12/14/2018 01:00      46.1      45.8       57     31.7      0.00      4.15      58.1     0.46      1022.5     0.0       N     0   0.0     SSW   198   9.35    266      -45.0
   12/14/2018 00:50      46.2      45.9       57     31.5      0.00      4.15      58.1     0.46      1022.5     0.0     SSW   198   0.5     SSW   198   9.35    266      -46.3
   12/14/2018 00:40      46.6      46.0       55     31.0      0.00      4.15      58.1     0.46      1022.6     0.2     SSE   150   1.0      SE   141   9.35    266      -46.3
   12/14/2018 00:30      46.7      46.4       54     30.7      0.00      4.15      58.1     0.46      1022.8     0.0       S   181   0.7       S   187   9.35    266      -44.0
   12/14/2018 00:20      46.7      46.3       55     31.1      0.00      4.15      58.1     0.47      1022.9     0.3     SSW   199   1.8     SSW   200   9.35    266      -44.1
   12/14/2018 00:10      47.1      46.4       54     30.8      0.00      4.15      58.1     0.47      1022.9     0.1     SSE   164   1.1       S   170   9.35    266      -46.1
   12/14/2018 00:00      47.2      46.6       53     30.6      0.00      4.15      58.1     0.47      1023.0     0.8       S   183   1.9     SSE   161   9.35    266      -45.5
   12/13/2018 23:50      47.1      46.5       52     30.2      0.00      4.15      58.1     0.47      1023.1     0.2     SSE   156   1.2       S   174   9.35    266      -46.7
   12/13/2018 23:40      47.3      46.6       53     30.8      0.00      4.15      58.2     0.47      1023.1     0.2       S   181   1.1     SSW   194   9.35    266      -49.6
   12/13/2018 23:30      47.6      47.0       52     30.7      0.00      4.15      58.2     0.46      1023.2     0.0       E    94   0.6     ESE   124   9.35    266      -49.9
   12/13/2018 23:20      47.7      47.2       51     30.3      0.00      4.15      58.2     0.46      1023.2     0.2     SSW   205   1.1     SSW   198   9.35    266      -48.3
   12/13/2018 23:10      47.7      47.4       51     30.6      0.00      4.15      58.1     0.47      1023.1     0.1     SSE   148   1.0       S   185   9.36    266      -46.4
   12/13/2018 23:00      48.5      47.4       51     30.6      0.00      4.15      58.2     0.47      1023.1     0.5       S   171   2.4       S   186   9.36    266      -47.4
   12/13/2018 22:50      48.8      47.9       51     30.9      0.00      4.15      58.2     0.46      1023.1     0.3       S   189   1.0     SSW   195   9.36    266      -49.0
   12/13/2018 22:40      49.4      48.5       50     31.1      0.00      4.15      58.2     0.46      1023.1     0.2       N   349   1.1     NNW   334   9.36    266      -51.6
   12/13/2018 22:30      49.3      48.3       48     30.0      0.00      4.15      58.2     0.47      1023.1     1.3     SSE   147   2.0      SE   146   9.36    266      -52.4
   12/13/2018 22:20      48.5      48.1       50     30.3      0.00      4.15      58.2     0.47      1023.0     1.0     SSE   152   1.5      SE   141   9.36    266      -53.3
   12/13/2018 22:10      48.6      48.0       50     30.5      0.00      4.15      58.2     0.47      1023.1     0.2       S   186   0.8       S   179   9.36    266      -55.0
   12/13/2018 22:00      49.0      48.3       51     31.0      0.00      4.15      58.2     0.47      1023.4     0.3     SSE   159   1.1     SSE   167   9.36    266      -54.9
   12/13/2018 21:50      49.1      48.7       48     30.0      0.00      4.15      58.2     0.47      1023.5     0.3     SSE   147   1.2      SE   144   9.36    266      -51.9
   12/13/2018 21:40      49.0      48.7       48     30.1      0.00      4.15      58.2     0.47      1023.4     0.0     SSW   203   0.6     SSW   203   9.36    266      -49.9
   12/13/2018 21:30      49.5      48.7       48     30.2      0.00      4.15      58.2     0.47      1023.2     0.3       S   169   0.9     SSW   203   9.36    266      -52.5
   12/13/2018 21:20      49.5      49.0       47     30.0      0.00      4.15      58.2     0.47      1023.3     0.5     SSE   159   1.3      SE   141   9.36    266      -57.1
   12/13/2018 21:10      50.1      49.3       47     30.1      0.00      4.15      58.2     0.47      1023.3     0.5     SSE   161   1.5     SSE   149   9.36    266      -60.8
   12/13/2018 21:00      50.5      49.7       46     30.0      0.00      4.15      58.2     0.47      1023.4     0.7     SSE   166   1.2       S   185   9.36    266      -63.8
   12/13/2018 20:50      50.5      50.0       46     30.3      0.00      4.15      58.2     0.47      1023.4     0.9     SSE   154   1.8     SSE   154   9.36    266      -66.2
   12/13/2018 20:40      51.1      50.3       46     30.4      0.00      4.15      58.2     0.47      1023.4     1.1     SSE   157   1.5     SSE   152   9.36    266      -67.7
   12/13/2018 20:30      51.6      50.7       45     30.6      0.00      4.15      58.2     0.47      1023.3     1.0     SSE   156   1.5     SSE   155   9.36    266      -68.8
   12/13/2018 20:20      51.9      51.2       45     30.6      0.00      4.15      58.2     0.47      1023.3     0.9     SSE   157   1.5     SSE   149   9.36    266      -68.4
   12/13/2018 20:10      52.1      51.5       45     31.1      0.00      4.15      58.1     0.47      1023.2     1.0     SSE   152   1.8      SE   145   9.36    266      -67.8
   12/13/2018 20:00      52.2      51.8       45     31.3      0.00      4.15      58.2     0.47      1023.2     1.4     SSE   147   2.5      SE   138   9.37    266      -65.3
   12/13/2018 19:50      52.7      51.9       45     31.5      0.00      4.15      58.2     0.47      1023.1     1.6     SSE   151   2.8     SSE   155   9.37    266      -64.8
   12/13/2018 19:40      53.2      52.4       45     32.2      0.00      4.15      58.2     0.47      1023.1     1.3     SSE   148   2.4      SE   140   9.37    266      -66.5
   12/13/2018 19:30      53.0      52.2       46     32.3      0.00      4.15      58.2     0.47      1023.1     1.4      SE   143   2.2      SE   137   9.37    266      -67.1
   12/13/2018 19:20      53.8      52.2       47     33.4      0.00      4.15      58.1     0.47      1023.0     1.1     SSE   162   2.4      SE   135   9.37    266      -66.6
   12/13/2018 19:10      53.7      52.6       46     32.8      0.00      4.15      58.1     0.47      1022.9     2.2      SE   144   3.2     SSE   147   9.37    266      -66.6
   12/13/2018 19:00      53.5      52.5       47     33.4      0.00      4.15      58.1     0.47      1022.9     1.3     SSE   160   2.3      SE   141   9.37    265      -68.2
   12/13/2018 18:50      53.8      53.0       46     33.1      0.00      4.15      58.1     0.47      1022.9     1.3     SSE   149   2.1      SE   135   9.37    265      -70.7
   12/13/2018 18:40      54.3      53.2       46     33.2      0.00      4.15      58.1     0.47      1022.8     1.2     SSE   157   2.7      SE   137   9.37    265      -72.5
   12/13/2018 18:30      54.4      54.0       44     32.9      0.00      4.15      58.1     0.47      1022.7     1.5     SSE   148   2.5      SE   140   9.37    265      -73.6
   12/13/2018 18:20      55.4      53.9       45     33.4      0.00      4.15      58.0     0.47      1022.6     1.2     SSE   160   2.7      SE   132   9.37    265      -73.9
   12/13/2018 18:10      55.8      55.0       42     32.9      0.00      4.15      58.0     0.47      1022.5     1.9      SE   145   2.9      SE   142   9.38    264      -75.0
   12/13/2018 18:00      56.5      55.5       42     33.1      0.00      4.15      58.0     0.47      1022.5     1.7     SSE   154   2.6     SSE   151   9.38    264      -75.2
   12/13/2018 17:50      57.4      56.4       40     32.6      0.00      4.15      57.9     0.47      1022.5     1.3     SSE   154   2.8      SE   144   9.38    264      -75.3
   12/13/2018 17:40      58.3      57.0       39     32.5      0.00      4.15      57.9     0.47      1022.6     1.4     SSE   159   2.3     SSE   168   9.38    264      -76.5
   12/13/2018 17:30      59.3      58.1       38     32.7      0.00      4.15      57.9     0.47      1022.6     1.2     SSE   166   2.6      SE   141   9.38    264      -77.2
   12/13/2018 17:20      60.2      59.2       34     31.5      0.00      4.15      57.8     0.47      1022.6     1.1     SSE   161   2.1       S   170   9.38    264      -78.3
   12/13/2018 17:10      60.3      59.4       35     32.3      0.00      4.15      57.8     0.47      1022.5     1.4     SSE   153   3.1     SSE   149   9.38    264      -80.4
   12/13/2018 17:00      60.8      60.0       34     32.2      0.00      4.15      57.8     0.47      1022.3     1.4     SSE   161   2.9      SE   138   9.39    264      -81.4
   12/13/2018 16:50      62.8      60.6       34     33.0      0.00      4.15      57.8     0.47      1022.2     0.9       S   189   1.7       S   184   9.39    264      -82.3
   12/13/2018 16:40      65.8      62.7       29     31.3      0.00      4.15      57.7     0.47      1022.1     1.0     SSE   167   2.7     SSW   197   9.39    263      -82.6
   12/13/2018 16:30      69.2      65.6       24     29.6      0.00      4.15      57.7     0.47      1022.0     1.0     SSE   162   3.0       S   176   9.39    263      -82.5
   12/13/2018 16:20      70.7      68.8       21     27.8      0.00      4.15      57.7     0.47      1022.0     0.6     WNW   302   3.9      NW   315   9.39    262      -73.7
   12/13/2018 16:10      70.8      70.3       20     26.9      0.00      4.15      57.6     0.46      1021.9     0.3      NW   314   1.9     NNW   334   9.39    261      -56.5
   12/13/2018 16:00      71.0      70.2       18     25.4      0.00      4.15      57.6     0.47      1021.9     3.3       N     7   7.4     NNE    22   9.39    261      -37.3
   12/13/2018 15:50      71.7      70.6       18     25.5      0.00      4.15      57.5     0.46      1021.8     3.4       N     9   7.0       N     6   9.40    261      -17.5
   12/13/2018 15:40      72.1      71.2       18     25.4      0.00      4.15      57.5     0.46      1021.8     3.2     NNE    18   6.0     NNE    29   9.40    261        0.5
   12/13/2018 15:30      73.0      71.8       17     25.0      0.00      4.15      57.4     0.46      1021.9     2.6       N     1   7.4     NNW   347   9.40    261       21.7
   12/13/2018 15:20      73.0      72.2       16     23.7      0.00      4.15      57.4     0.46      1021.9     2.2       N     3   5.8       N    10   9.40    261       43.6
   12/13/2018 15:10      72.6      72.0       15     22.7      0.00      4.15      57.4     0.46      1022.0     3.8       N     6   8.4     NNE    27   9.40    261       66.8
   12/13/2018 15:00      73.1      72.2       15     22.9      0.00      4.15      57.4     0.46      1022.0     3.5     NNE    15   7.2       N     3   9.40    261       88.7
   12/13/2018 14:50      73.5      72.9       14     21.8      0.00      4.15      57.3     0.46      1022.1     3.5     NNE    13   8.1       N     3   9.40    260      109.9
   12/13/2018 14:40      73.5      72.8       14     20.6      0.00      4.15      57.2     0.46      1022.0     3.4     NNE    15   6.7     NNE    23   9.41    261      131.7
   12/13/2018 14:30      73.4      72.7       14     20.6      0.00      4.15      57.2     0.46      1022.1     4.3       N     9   9.3     NNE    26   9.41    261      151.5
   12/13/2018 14:20      73.4      72.7       14     21.4      0.00      4.15      57.2     0.46      1022.1     4.3     NNE    12  10.2     NNE    23   9.41    261      169.2
   12/13/2018 14:10      73.1      72.6       14     21.4      0.00      4.15      57.1     0.46      1022.1     4.4     NNE    12   8.1       N     3   9.41    261      186.6
   12/13/2018 14:00      73.3      72.7       15     22.2      0.00      4.15      57.1     0.46      1022.1     4.2       N     2   7.8      NW   324   9.41    261      202.5
   12/13/2018 13:50      73.2      72.7       15     22.4      0.00      4.15      57.1     0.46      1022.1     4.0       N     3   9.1      NW   324   9.41    261      218.2
   12/13/2018 13:40      73.3      72.6       15     22.3      0.00      4.15      57.1     0.46      1022.1     4.5     NNE    13   8.1     NNE    18   9.41    261      231.9
   12/13/2018 13:30      73.2      72.3       15     21.7      0.00      4.15      57.0     0.46      1022.2     5.6     NNE    12   9.2     NNW   336   9.41    262      246.4
   12/13/2018 13:20      73.2      72.2       15     22.4      0.00      4.15      57.0     0.46      1022.3     3.8     NNE    19   8.9     NNE    34   9.41    261      256.8
   12/13/2018 13:10      73.1      72.2       15     22.1      0.00      4.15      57.0     0.46      1022.4     5.5       N    10  11.0     NNE    19   9.41    262      268.2
   12/13/2018 13:00      73.2      72.6       15     22.2      0.00      4.15      56.9     0.46      1022.6     4.4     NNE    21   9.5       N     6   9.41    261      278.2
   12/13/2018 12:50      73.0      72.0       15     22.2      0.00      4.15      57.0     0.46      1022.8     4.4       N     9  10.1     NNE    26   9.41    262      288.1
   12/13/2018 12:40      72.8      72.0       15     22.1      0.00      4.15      56.9     0.46      1023.0     4.8       N     3  10.4       N     9   9.41    262      295.1
   12/13/2018 12:30      72.5      72.1       15     22.1      0.00      4.15      56.9     0.46      1023.1     4.9       N    11   8.8     NNE    15   9.41    262      301.1
   12/13/2018 12:20      73.2      72.2       16     23.1      0.00      4.15      56.9     0.46      1023.1     4.1     NNE    20   8.7      NE    36   9.41    262      306.1
   12/13/2018 12:10      73.1      71.8       17     24.8      0.00      4.15      56.9     0.46      1023.2     2.6     NNE    20   6.9       N     7   9.42    262      311.3
   12/13/2018 12:00      72.0      71.2       17     24.1      0.00      4.15      56.8     0.46      1023.5     4.2       N     5   8.1      NW   318   9.42    262      315.0
   12/13/2018 11:50      71.5      70.9       17     23.8      0.00      4.15      56.9     0.46      1023.6     4.4       N     7   8.5      NE    38   9.42    263      317.5
   12/13/2018 11:40      71.5      70.8       17     24.4      0.00      4.15      56.8     0.46      1024.0     4.2     NNE    15   9.3       N     7   9.42    263      317.5
   12/13/2018 11:30      71.5      70.9       18     25.1      0.00      4.15      56.9     0.46      1024.1     4.0       N     9   8.0       N   351   9.42    263      316.0
   12/13/2018 11:20      71.9      71.1       18     26.0      0.00      4.15      56.9     0.46      1024.3     3.1     NNE    16   6.3       N     2   9.42    263      312.6
   12/13/2018 11:10      71.8      70.4       22     30.1      0.00      4.15      56.9     0.46      1024.4     1.0     NNE    21   3.3      NE    42   9.42    264      309.6
   12/13/2018 11:00      70.9      70.3       24     32.0      0.00      4.15      56.9     0.46      1024.6     1.1     ENE    67   3.7      NE    43   9.42    264      304.7
   12/13/2018 10:50      70.6      69.1       24     31.1      0.00      4.15      56.9     0.46      1024.7     0.6      SE   124   1.8     SSE   151   9.42    264      300.8
   12/13/2018 10:40      69.9      68.7       24     30.3      0.00      4.15      56.9     0.46      1024.9     1.6      SE   133   3.4      SE   140   9.42    265      297.2
   12/13/2018 10:30      70.2      69.2       23     30.0      0.00      4.15      57.0     0.46      1024.9     0.7       S   180   1.8     ESE   119   9.42    265      289.2
   12/13/2018 10:20      69.3      67.6       23     29.4      0.00      4.15      57.0     0.46      1024.9     0.4      NW   319   2.4     NNW   341   9.42    265      290.3
   12/13/2018 10:10      68.0      66.3       26     31.2      0.00      4.15      57.0     0.46      1025.1     0.8     SSW   191   2.7     WSW   241   9.42    272      285.4
   12/13/2018 10:00      66.4      64.8       34     36.2      0.00      4.15      57.0     0.46      1025.2     0.7       S   177   2.2     NNW   337   9.42    281      270.9
   12/13/2018 09:50      65.1      62.4       42     40.4      0.00      4.15      57.1     0.46      1025.1     0.4     SSE   149   2.0     SSE   157   9.42    288      292.2
   12/13/2018 09:40      62.5      61.0       54     44.8      0.00      4.15      57.1     0.46      1025.1     0.7       S   186   1.9     NNE    29   9.42    304      308.9
   12/13/2018 09:30      61.2      58.9       58     45.1      0.00      4.15      57.1     0.46      1025.2     0.3      NE    49   1.2     SSW   198   9.42    330      290.5
   12/13/2018 09:20      59.1      56.4       62     45.1      0.00      4.15      57.2     0.46      1025.0     0.3     ESE   115   1.2      NE    45   9.42    369      269.7
   12/13/2018 09:10      56.5      54.5       68     44.9      0.00      4.15      57.2     0.46      1024.9     0.8       W   266   3.4     WSW   254   9.42    427      245.5
   12/13/2018 09:00      54.7      52.4       79     46.8      0.00      4.15      57.2     0.46      1024.8     0.3     ENE    58   1.5     NNE    29   9.42    478      215.9
   12/13/2018 08:50      52.5      50.8       86     47.8      0.00      4.15      57.3     0.46      1024.8     0.0     ENE    67   1.1      NE    50   9.42    510      183.8
   12/13/2018 08:40      50.8      49.3       90     47.3      0.00      4.15      57.3     0.46      1024.8     0.0      NE    51   0.9      NE    46   9.42    532      150.8
   12/13/2018 08:30      49.5      47.6       93     46.8      0.00      4.15      57.3     0.46      1024.7     0.0       N     0   0.0      SE   140   9.42    554      116.9
   12/13/2018 08:20      47.8      45.1       95     44.9      0.00      4.15      57.3     0.46      1024.6     0.0      SE   140   0.8      SE   140   9.42    574       89.5
   12/13/2018 08:10      45.2      43.2       96     43.1      0.00      4.15      57.3     0.46      1024.5     0.3       E   100   1.2      SE   127   9.42    589       65.2
   12/13/2018 08:00      43.3      41.8       96     41.3      0.00      4.15      57.4     0.46      1024.5     0.0      NW   318   0.4      NW   318   9.42    602       45.0
   12/13/2018 07:50      41.9      40.7       95     40.0      0.00      4.15      57.4     0.46      1024.4     0.3      SW   219   1.3      SW   221   9.42    610       12.1
   12/13/2018 07:40      41.0      40.4       95     39.4      0.00      4.15      57.4     0.46      1024.3     0.0       N     0   0.0     NNE    32   9.42    611        7.4
   12/13/2018 07:30      40.6      40.1       95     39.1      0.00      4.15      57.5     0.46      1024.3     0.3      SE   128   1.4      SE   134   9.42    610        3.6
   12/13/2018 07:20      40.4      39.5       95     38.6      0.00      4.15      57.5     0.46      1024.3     0.5     SSE   147   1.6      SE   143   9.42    607       -0.5
   12/13/2018 07:10      39.8      39.2       95     38.2      0.00      4.15      57.5     0.46      1024.3     1.0     SSE   149   2.1      SE   137   9.42    604       -5.2
   12/13/2018 07:00      39.4      38.7       95     37.6      0.00      4.15      57.5     0.46      1024.3     0.7     SSE   164   1.9       S   177   9.42    607       -9.2
   12/13/2018 06:50      39.6      38.8       95     37.9      0.00      4.15      57.6     0.46      1024.1     0.6      SE   142   1.7      SE   138   9.42    606      -12.3
   12/13/2018 06:40      39.5      39.0       95     38.0      0.00      4.15      57.6     0.46      1024.1     0.2       W   277   1.4       W   265   9.42    603      -14.0
   12/13/2018 06:30      39.8      38.9       95     37.8      0.00      4.15      57.6     0.46      1023.9     0.0       N     0   0.0     ENE    69   9.42    601      -14.8
   12/13/2018 06:20      40.0      39.5       95     38.4      0.00      4.15      57.6     0.47      1023.9     0.1     ESE   101   1.3       E    96   9.42    601      -14.3
   12/13/2018 06:10      40.1      39.4       95     38.4      0.00      4.15      57.6     0.47      1023.8     0.6       S   173   1.8     SSW   196   9.42    594      -14.6
   12/13/2018 06:00      40.0      39.3       95     38.1      0.00      4.15      57.7     0.47      1023.9     0.3     SSW   193   1.8     SSW   195   9.42    601      -14.9
   12/13/2018 05:50      40.1      39.4       95     38.4      0.00      4.15      57.6     0.47      1023.7     0.1       N     7   1.1       N     6   9.42    600      -15.2
   12/13/2018 05:40      40.6      40.0       95     38.9      0.00      4.15      57.7     0.47      1023.7     0.5     SSE   154   1.6      SE   143   9.42    595      -14.9
   12/13/2018 05:30      41.0      40.4       95     39.3      0.00      4.15      57.8     0.47      1023.7     0.2     NNW   338   1.1     NNW   348   9.42    592      -15.0
   12/13/2018 05:20      41.2      40.7       95     39.5      0.00      4.15      57.7     0.47      1023.5     0.2      SE   142   1.1       N   354   9.42    587      -14.8
   12/13/2018 05:10      41.0      40.5       95     39.4      0.00      4.15      57.8     0.47      1023.5     0.0      SE   135   0.9      SE   135   9.42    582      -15.1
   12/13/2018 05:00      41.4      40.5       95     39.5      0.00      4.15      57.8     0.47      1023.4     0.5     SSE   147   1.6      SE   144   9.42    579      -15.3
   12/13/2018 04:50      41.4      40.7       95     39.5      0.00      4.15      57.8     0.47      1023.3     1.0     SSE   154   1.7     SSE   164   9.42    573      -15.3
   12/13/2018 04:40      42.1      41.1       95     40.3      0.00      4.15      57.8     0.47      1023.3     1.1       S   174   2.3     SSW   202   9.42    569      -15.0
   12/13/2018 04:30      42.2      40.8       94     39.8      0.00      4.15      57.9     0.47      1023.4     0.6       S   169   1.7       S   172   9.42    564      -15.8
   12/13/2018 04:20      42.1      41.5       95     40.4      0.00      4.15      57.9     0.47      1023.2     0.5     SSE   164   1.6      SE   145   9.42    560      -15.4
   12/13/2018 04:10      42.3      41.6       95     40.4      0.00      4.15      57.9     0.47      1023.1     0.3      SE   146   1.0      SE   141   9.42    555      -15.7
   12/13/2018 04:00      42.6      42.0       95     40.9      0.00      4.15      57.9     0.47      1023.1     0.1      SE   139   1.2      SE   137   9.42    549      -16.3
   12/13/2018 03:50      42.5      41.4       95     40.5      0.00      4.15      58.0     0.47      1022.9     0.6       W   277   2.0       W   276   9.42    544      -16.0
   12/13/2018 03:40      42.1      41.5       94     40.2      0.00      4.15      58.0     0.47      1022.9     0.0       N     0   0.0     NNE    19   9.42    540      -16.3
   12/13/2018 03:30      42.6      41.8       95     40.6      0.00      4.15      58.0     0.47      1022.9     0.0     NNE    19   0.7     NNE    19   9.42    535      -16.3
   12/13/2018 03:20      42.6      41.8       95     40.8      0.00      4.15      58.0     0.47      1022.9     1.2      SE   140   2.1      SE   137   9.42    529      -16.3
   12/13/2018 03:10      42.2      41.6       95     40.4      0.00      4.15      58.0     0.47      1022.8     0.9     SSE   147   2.1      SE   142   9.42    525      -16.4
   12/13/2018 03:00      42.5      42.0       95     40.8      0.00      4.15      58.0     0.47      1022.6     0.4     SSE   155   1.2      SE   139   9.42    521      -16.9
   12/13/2018 02:50      42.3      42.0       95     40.7      0.00      4.15      58.1     0.47      1022.6     0.9     SSE   151   2.2      SE   143   9.42    525      -17.1
   12/13/2018 02:40      43.1      41.8       94     40.8      0.00      4.15      58.1     0.47      1022.6     1.1     SSE   159   2.4      SE   140   9.42    520      -16.8
   12/13/2018 02:30      43.0      42.3       95     41.2      0.00      4.15      58.1     0.47      1022.6     0.1     SSE   148   1.4      SE   142   9.42    517      -16.2
   12/13/2018 02:20      42.6      42.0       95     40.8      0.00      4.15      58.1     0.47      1022.5     0.8     SSE   159   1.7      SE   141   9.42    513      -16.8
   12/13/2018 02:10      42.7      42.1       94     40.8      0.00      4.15      58.1     0.47      1022.4     0.2     SSE   157   1.2      SE   142   9.42    509      -16.7
   12/13/2018 02:00      43.2      42.2       94     41.0      0.00      4.15      58.2     0.47      1022.4     0.0       N     0   0.0     ESE   123   9.42    505      -16.8
   12/13/2018 01:50      43.6      42.9       94     41.6      0.00      4.15      58.2     0.47      1022.4     0.0       S   180   0.6       S   187   9.42    500      -16.7
   12/13/2018 01:40      43.7      43.2       94     41.9      0.00      4.15      58.2     0.47      1022.3     0.3      SW   215   1.3      SW   215   9.42    496      -17.2
   12/13/2018 01:30      44.3      43.2       94     42.2      0.00      4.15      58.2     0.47      1022.2     0.3     SSW   199   1.2      SW   215   9.42    491      -17.6
   12/13/2018 01:20      44.3      43.5       94     42.1      0.00      4.15      58.2     0.47      1022.2     0.3     SSW   209   1.6     SSW   210   9.42    485      -17.8
   12/13/2018 01:10      44.3      44.0       94     42.5      0.00      4.15      58.2     0.47      1022.2     0.5       S   174   0.9      SW   219   9.42    480      -17.6
   12/13/2018 01:00      44.7      44.0       94     42.6      0.00      4.15      58.3     0.47      1022.2     0.0      SE   136   0.8      SE   134   9.42    475      -18.1
   12/13/2018 00:50      44.8      44.3       94     42.8      0.00      4.15      58.3     0.47      1022.3     0.5     SSW   193   1.9      SW   220   9.42    468      -17.8
   12/13/2018 00:40      45.1      44.6       94     43.3      0.00      4.15      58.3     0.47      1022.3     0.6     SSE   156   1.5     SSW   202   9.42    464      -18.3
   12/13/2018 00:30      45.3      44.8       94     43.3      0.00      4.15      58.3     0.47      1022.5     0.4       S   182   1.6       S   179   9.43    458      -18.4
   12/13/2018 00:20      45.8      45.0       93     43.4      0.00      4.15      58.3     0.47      1022.5     0.3      SE   144   1.1      SE   134   9.43    453      -18.8
   12/13/2018 00:10      46.3      45.5       93     44.0      0.00      4.15      58.3     0.47      1022.5     1.0     ESE   111   2.0     SSW   200   9.43    446      -18.2
   12/13/2018 00:00      46.6      45.9       94     44.4      0.00      4.15      58.3     0.47      1022.7     1.0       S   173   2.7     SSW   208   9.43    440      -18.3
   12/12/2018 23:50      47.1      45.9       93     44.7      0.00      4.15      58.3     0.47      1022.8     1.1       E   100   3.1      SW   220   9.43    434      -18.3
   12/12/2018 23:40      47.2      46.1       93     44.9      0.00      4.15      58.4     0.47      1022.8     0.9       S   176   3.1     SSW   205   9.43    429      -19.2
   12/12/2018 23:30      47.1      46.1       94     44.7      0.00      4.15      58.4     0.47      1022.8     1.2       W   261   3.0       W   271   9.43    418      -19.7
   12/12/2018 23:20      46.7      46.1       93     44.5      0.00      4.15      58.4     0.47      1022.9     0.9     SSE   152   2.3     SSE   152   9.43    410      -20.2
   12/12/2018 23:10      46.4      45.9       93     44.2      0.00      4.15      58.4     0.47      1023.0     1.2     SSE   151   2.6     SSE   147   9.43    408      -20.3
   12/12/2018 23:00      46.7      46.2       93     44.5      0.00      4.15      58.4     0.47      1023.1     0.2       S   172   1.0       S   180   9.43    399      -20.6
   12/12/2018 22:50      46.9      46.4       93     44.6      0.00      4.15      58.4     0.47      1023.1     0.1     SSE   148   0.7     NNW   328   9.43    389      -21.0
   12/12/2018 22:40      47.1      46.4       93     44.6      0.00      4.15      58.4     0.47      1023.0     0.4     SSE   151   2.0      SE   141   9.43    373      -21.5
   12/12/2018 22:30      47.1      46.9       93     45.0      0.00      4.15      58.4     0.47      1023.0     0.4     SSE   162   1.0      SE   142   9.43    365      -21.7
   12/12/2018 22:20      47.8      46.8       92     45.1      0.00      4.15      58.4     0.47      1023.0     0.3     SSE   154   1.2     SSE   149   9.43    357      -22.4
   12/12/2018 22:10      47.6      47.1       93     45.4      0.00      4.15      58.4     0.47      1023.0     0.5     SSE   154   1.1     SSE   152   9.43    352      -22.6
   12/12/2018 22:00      47.6      46.9       92     44.9      0.00      4.15      58.4     0.47      1023.0     1.1     SSE   165   2.7       S   183   9.43    346      -23.3
   12/12/2018 21:50      48.1      47.3       92     45.5      0.00      4.15      58.4     0.47      1023.0     1.0       S   181   2.0     SSW   210   9.43    341      -23.5
   12/12/2018 21:40      48.7      47.8       92     45.7      0.00      4.15      58.4     0.47      1023.0     0.6     SSE   166   1.2       S   177   9.43    336      -24.1
   12/12/2018 21:30      48.6      48.1       92     46.1      0.00      4.15      58.4     0.47      1022.8     0.6     SSW   210   1.9     WSW   237   9.43    330      -25.3
   12/12/2018 21:20      48.7      47.6       91     45.5      0.00      4.15      58.4     0.47      1022.7     1.3       S   173   3.0     SSE   157   9.43    325      -26.5
   12/12/2018 21:10      48.7      48.2       91     45.9      0.00      4.15      58.4     0.47      1022.7     0.7     SSW   192   1.2     SSE   151   9.43    320      -27.6
   12/12/2018 21:00      48.7      48.0       91     45.9      0.00      4.15      58.4     0.47      1022.6     0.9      SW   221   2.3       W   260   9.43    315      -28.6
   12/12/2018 20:50      49.2      47.9       90     45.6      0.00      4.15      58.4     0.47      1022.6     0.7      SE   146   1.7       S   175   9.43    311      -30.5
   12/12/2018 20:40      49.3      48.9       90     46.3      0.00      4.15      58.4     0.47      1022.5     0.4     SSE   164   1.6       S   175   9.43    307      -32.3
   12/12/2018 20:30      49.7      49.0       90     46.4      0.00      4.15      58.4     0.47      1022.5     0.5     SSW   195   1.3     SSW   193   9.43    303      -33.8
   12/12/2018 20:20      49.9      49.2       90     46.6      0.00      4.15      58.4     0.47      1022.5     0.3     SSE   150   1.8      SE   143   9.43    299      -35.9
   12/12/2018 20:10      50.3      49.5       90     46.9      0.00      4.15      58.4     0.47      1022.3     2.2     SSW   202   3.4       W   264   9.43    295      -38.0
   12/12/2018 20:00      50.1      49.2       89     46.3      0.00      4.15      58.4     0.47      1022.3     1.1       S   183   2.8      SE   141   9.43    292      -42.2
   12/12/2018 19:50      50.6      49.8       88     46.8      0.00      4.15      58.4     0.47      1022.2     1.0      SE   143   2.5      SE   133   9.43    289      -45.1
   12/12/2018 19:40      51.0      50.3       88     47.2      0.00      4.15      58.4     0.47      1022.1     0.5     SSE   167   1.2      SW   215   9.44    285      -48.9
   12/12/2018 19:30      51.4      50.8       87     47.3      0.00      4.15      58.4     0.47      1022.0     0.3     SSE   160   1.2     SSE   153   9.44    282      -54.8
   12/12/2018 19:20      52.0      50.8       86     47.3      0.00      4.15      58.4     0.47      1021.8     0.8     SSE   164   2.0      SE   143   9.44    278      -61.8
   12/12/2018 19:10      52.5      51.8       86     47.8      0.00      4.15      58.3     0.47      1021.8     0.5       S   176   2.1     SSE   151   9.44    275      -66.0
   12/12/2018 19:00      53.0      52.1       85     48.0      0.00      4.15      58.3     0.47      1021.8     1.6      SE   144   2.9      SE   136   9.44    271      -68.9
   12/12/2018 18:50      53.2      52.7       84     48.4      0.00      4.15      58.3     0.47      1021.7     1.0     SSW   209   2.7     WSW   254   9.44    267      -70.1
   12/12/2018 18:40      53.6      52.7       83     48.2      0.00      4.15      58.3     0.47      1021.5     1.2     SSE   163   3.0       S   172   9.44    268      -72.3
   12/12/2018 18:30      54.3      53.2       82     48.3      0.00      4.15      58.3     0.47      1021.4     1.7       S   184   3.3       S   180   9.44    268      -71.7
   12/12/2018 18:20      54.3      53.6       82     48.7      0.00      4.15      58.2     0.47      1021.3     0.8       W   272   2.1     SSW   206   9.44    268      -72.7
   12/12/2018 18:10      54.4      53.7       81     48.5      0.00      4.15      58.2     0.47      1021.0     1.9     SSE   151   4.3       S   182   9.44    269      -73.1
   12/12/2018 18:00      54.9      54.1       80     48.4      0.00      4.15      58.2     0.47      1021.2     0.9       S   179   2.6     SSE   167   9.44    269      -71.6
   12/12/2018 17:50      55.9      54.7       78     48.5      0.00      4.15      58.2     0.47      1021.0     1.2     SSE   166   2.4     SSW   213   9.44    268      -72.0
   12/12/2018 17:40      57.4      55.6       75     48.6      0.00      4.15      58.1     0.47      1020.9     1.1       S   175   2.1      SW   215   9.44    268      -73.7
   12/12/2018 17:30      57.9      57.1       74     49.4      0.00      4.15      58.1     0.47      1020.6     0.7       W   260   1.9      NW   324   9.44    268      -76.0
   12/12/2018 17:20      58.3      57.5       74     49.4      0.00      4.15      58.1     0.47      1020.4     1.3     WSW   256   3.9       S   186   9.44    268      -76.2
   12/12/2018 17:10      59.1      58.0       72     49.6      0.00      4.15      58.1     0.47      1020.3     1.1     ESE   119   2.3     WNW   294   9.44    268      -77.2
   12/12/2018 17:00      60.4      58.8       70     49.7      0.00      4.15      58.0     0.47      1019.9     0.7     ESE   116   2.2       E    95   9.45    268      -77.6
   12/12/2018 16:50      61.1      60.1       68     50.0      0.00      4.15      58.0     0.47      1019.7     1.4     ESE   107   5.1      SE   137   9.45    267      -77.2
   12/12/2018 16:40      61.7      60.8       68     50.5      0.00      4.15      58.0     0.47      1019.7     1.4     ENE    74   3.0     ENE    79   9.45    267      -73.9
   12/12/2018 16:30      62.6      61.5       67     50.9      0.00      4.15      57.9     0.47      1019.5     1.7      NE    52   3.4     ENE    60   9.45    267      -71.4
   12/12/2018 16:20      63.8      62.3       65     50.9      0.00      4.15      57.9     0.47      1019.3     2.2      NE    46   4.4       E    83   9.45    266      -64.7
   12/12/2018 16:10      65.3      63.6       62     50.9      0.00      4.15      57.9     0.47      1019.3     2.5      NE    46   4.1      NE    34   9.45    266      -48.3
   12/12/2018 16:00      66.2      65.0       58     50.4      0.00      4.15      57.8     0.47      1019.2     2.2      NE    52   3.7     ENE    57   9.45    265      -31.0
   12/12/2018 15:50      67.0      66.0       55     49.6      0.00      4.15      57.8     0.47      1019.0     2.1      NE    54   4.3     NNE    26   9.45    265      -13.7
   12/12/2018 15:40      68.6      66.7       51     48.7      0.00      4.15      57.8     0.47      1019.1     2.8      NE    56   4.8      SE   144   9.45    264        4.4
   12/12/2018 15:30      70.1      68.3       44     46.3      0.00      4.15      57.7     0.47      1019.0     1.8      NE    56   4.1      NE    39   9.45    264       26.6
   12/12/2018 15:20      70.7      69.7       41     45.0      0.00      4.15      57.7     0.47      1018.8     2.0     ENE    78   4.8       E    98   9.45    263       48.5
   12/12/2018 15:10      71.0      70.1       39     44.0      0.00      4.15      57.6     0.47      1018.7     1.8     ENE    70   3.2       E    87   9.45    263       71.5
   12/12/2018 15:00      71.3      70.5       39     45.0      0.00      4.15      57.6     0.47      1018.7     1.3      NE    52   2.7      NE    46   9.45    264       92.9
   12/12/2018 14:50      71.4      69.5       39     44.1      0.00      4.15      57.6     0.47      1018.6     1.4     WNW   287   3.0     WSW   242   9.45    263      115.5
   12/12/2018 14:40      69.6      67.7       43     45.3      0.00      4.15      57.6     0.47      1018.6     2.4      SW   235   3.8     SSW   214   9.45    264      135.8
   12/12/2018 14:30      67.9      67.2       45     45.4      0.00      4.15      57.5     0.47      1018.6     4.6     WSW   255   6.7     WSW   241   9.45    264      155.8
   12/12/2018 14:20      67.9      67.2       46     45.9      0.00      4.15      57.5     0.47      1018.7     3.8     WSW   257   6.8       W   278   9.45    264      153.7
   12/12/2018 14:10      67.9      66.8       46     45.8      0.00      4.15      57.5     0.47      1018.8     2.7     WSW   245   5.3     WSW   245   9.45    264      185.9
   12/12/2018 14:00      67.0      66.4       47     46.0      0.00      4.15      57.4     0.47      1018.9     2.2       S   171   5.9     SSW   199   9.45    264      196.4
   12/12/2018 13:50      66.9      66.4       48     46.2      0.00      4.15      57.4     0.47      1019.0     2.0     SSW   205   4.4      SW   223   9.45    265      188.3
   12/12/2018 13:40      67.7      66.3       47     45.8      0.00      4.15      57.4     0.47      1019.2     1.9       S   191   3.7     WSW   239   9.45    264      254.9
   12/12/2018 13:30      67.9      66.4       48     46.7      0.00      4.15      57.3     0.47      1019.3     1.1      SW   233   3.6      NW   309   9.45    264      253.1
   12/12/2018 13:20      66.7      65.7       51     47.8      0.00      4.15      57.3     0.47      1019.4     1.8       N   354   4.8     NNE    15   9.45    264      253.9
   12/12/2018 13:10      66.9      65.7       52     48.3      0.00      4.15      57.3     0.47      1019.5     1.2     NNE    23   4.1       W   276   9.45    265      264.8
   12/12/2018 13:00      66.0      65.2       53     48.1      0.00      4.15      57.3     0.47      1019.7     1.8     NNW   330   4.3     NNE    24   9.45    266      283.1
   12/12/2018 12:50      65.4      64.1       55     48.3      0.00      4.15      57.2     0.47      1019.7     1.2     NNE    22   3.3       E    98   9.45    266      291.3
   12/12/2018 12:40      64.6      63.2       57     48.5      0.00      4.15      57.3     0.47      1019.5     1.4      NE    43   3.6      NE    35   9.45    266      295.9
   12/12/2018 12:30      63.6      63.1       58     48.5      0.00      4.15      57.2     0.47      1019.5     2.5     NNW   330   4.8       N     8   9.45    266      213.7
   12/12/2018 12:20      63.5      62.9       60     48.9      0.00      4.15      57.2     0.47      1019.6     2.0       N   358   4.2       N   353   9.45    266      180.0
   12/12/2018 12:10      63.4      62.8       60     49.0      0.00      4.15      57.2     0.47      1019.6     1.8      NE    41   4.1       N   354   9.45    266      192.0
   12/12/2018 12:00      63.3      62.5       61     49.1      0.00      4.15      57.2     0.47      1019.4     1.2     ENE    67   2.9      NE    50   9.45    266      218.5
   12/12/2018 11:50      63.5      62.6       61     49.3      0.00      4.15      57.2     0.47      1019.4     2.0     NNE    18   3.5     WSW   245   9.45    266      216.1
   12/12/2018 11:40      63.4      62.3       61     49.1      0.00      4.15      57.2     0.47      1019.4     1.3       W   268   4.1       W   279   9.45    266      308.5
   12/12/2018 11:30      62.5      61.3       63     48.8      0.00      4.15      57.2     0.47      1019.3     1.2      NE    36   4.0     ENE    72   9.45    266      314.0
   12/12/2018 11:20      62.1      61.3       62     48.8      0.00      4.15      57.2     0.47      1019.6     1.6       E    93   3.2     ENE    70   9.45    266      380.4
   12/12/2018 11:10      61.6      59.7       65     48.5      0.00      4.15      57.3     0.47      1019.8     1.9      NE    37   5.4       N   352   9.45    267      358.5
   12/12/2018 11:00      60.0      59.4       65     47.8      0.00      4.15      57.3     0.47      1019.9     2.0       N     4   4.1     NNE    17   9.46    267      313.8
   12/12/2018 10:50      60.3      59.5       63     47.3      0.00      4.15      57.3     0.47      1019.9     1.4     ESE   105   3.2     NNE    12   9.46    267      317.4
   12/12/2018 10:40      60.3      59.5       62     47.0      0.00      4.15      57.3     0.47      1019.9     0.7     NNE    17   2.3       N     8   9.46    267      305.3
   12/12/2018 10:30      59.6      57.8       65     46.6      0.00      4.15      57.3     0.47      1020.2     0.7       N     4   2.8       N     4   9.46    267      268.2
   12/12/2018 10:20      57.7      56.6       65     45.8      0.00      4.15      57.3     0.47      1020.3     1.1       N    10   3.4     NNW   332   9.46    267      274.4
   12/12/2018 10:10      56.7      55.3       67     45.2      0.00      4.15      57.3     0.47      1020.2     0.9      NE    47   2.0      NE    36   9.45    267      258.1
   12/12/2018 10:00      55.6      54.5       67     44.3      0.00      4.15      57.4     0.47      1020.4     0.7       W   280   2.0     WSW   253   9.46    267      156.8
   12/12/2018 09:50      55.1      54.6       66     43.8      0.00      4.15      57.4     0.47      1020.5     1.9      NW   321   5.1       N     9   9.46    267      215.7
   12/12/2018 09:40      54.7      53.3       68     43.6      0.00      4.15      57.4     0.47      1020.5     1.1       N   355   3.4       N     0   9.46    267      294.5
   12/12/2018 09:30      53.6      52.1       70     43.4      0.00      4.15      57.4     0.47      1020.3     1.6     NNE    14   3.5      NW   321   9.46    267      221.8
   12/12/2018 09:20      52.4      51.3       72     43.0      0.00      4.15      57.5     0.47      1020.3     0.6     NNE    28   2.7      NE    42   9.45    268      120.3
   12/12/2018 09:10      52.0      51.4       71     42.8      0.00      4.15      57.5     0.47      1020.3     0.8      NE    43   2.8      NE    51   9.46    268       28.5
   12/12/2018 09:00      51.9      50.7       73     43.0      0.00      4.15      57.5     0.47      1020.4     1.0       W   261   2.3      NW   306   9.46    268      138.6
   12/12/2018 08:50      50.9      50.2       75     42.7      0.00      4.15      57.6     0.47      1020.6     0.4     SSW   196   1.3      NW   315   9.45    279      137.9
   12/12/2018 08:40      50.5      49.6       79     43.7      0.00      4.15      57.5     0.47      1020.4     0.7      NW   311   2.5      NW   310   9.45    292      113.3
   12/12/2018 08:30      49.6      47.4       86     44.6      0.00      4.15      57.6     0.47      1020.0     0.4     NNW   340   1.6     NNW   343   9.45    314      185.9
   12/12/2018 08:20      47.6      46.3       90     43.9      0.00      4.15      57.6     0.47      1019.9     0.9      NW   317   2.1     NNW   340   9.46    341       92.4
   12/12/2018 08:10      46.5      44.7       92     43.3      0.00      4.15      57.6     0.47      1019.8     0.7     NNW   332   2.3     NNW   332   9.46    361       88.5
   12/12/2018 08:00      44.8      43.0       93     41.8      0.00      4.15      57.6     0.47      1019.6     0.4      NE    36   1.2      NE    49   9.46    379       87.3
   12/12/2018 07:50      43.3      42.3       93     40.8      0.00      4.15      57.6     0.47      1019.6     0.2       N     2   1.2       N     2   9.45    392       37.3
   12/12/2018 07:40      42.5      42.0       93     40.1      0.00      4.15      57.7     0.47      1019.7     0.0     SSE   149   0.4     SSE   149   9.45    390       18.5
   12/12/2018 07:30      42.2      41.2       93     39.7      0.00      4.15      57.7     0.47      1019.8     0.3     SSE   162   0.8     SSE   149   9.45    385        8.9
   12/12/2018 07:20      41.7      40.8       93     39.3      0.00      4.15      57.7     0.47      1019.6     0.2       S   176   1.2       S   177   9.46    379        5.6
   12/12/2018 07:10      41.0      40.6       92     38.6      0.00      4.15      57.8     0.47      1019.3     0.7     SSE   166   2.0       S   171   9.46    372       -6.5
   12/12/2018 07:00      41.5      40.7       92     38.8      0.00      4.15      57.8     0.47      1019.4     0.6     ESE   108   1.6      SE   142   9.46    365      -15.2
   12/12/2018 06:50      41.5      41.0       92     39.1      0.00      4.15      57.8     0.47      1019.3     0.4       N     9   1.4       N   353   9.46    358      -18.5
   12/12/2018 06:40      41.5      41.1       92     39.1      0.00      4.15      57.8     0.47      1019.0     0.3       S   171   1.2      SE   143   9.46    350      -20.1
   12/12/2018 06:30      41.8      41.2       92     39.2      0.00      4.15      57.8     0.47      1019.1     0.0       E   101   0.7     ESE   117   9.46    345      -22.3
   12/12/2018 06:20      41.6      41.2       92     39.1      0.00      4.15      57.9     0.47      1019.2     1.7      SE   141   3.2      SE   145   9.46    341      -21.5
   12/12/2018 06:10      41.6      41.2       92     39.2      0.00      4.15      57.8     0.47      1019.7     0.7     SSW   204   1.7       S   188   9.46    337      -20.1
   12/12/2018 06:00      41.5      41.0       92     38.9      0.00      4.15      57.9     0.47      1019.3     0.4       S   190   1.4     WSW   247   9.46    334      -20.7
   12/12/2018 05:50      41.8      41.0       91     39.0      0.00      4.15      57.9     0.47      1019.2     0.4     SSE   163   1.2      SE   146   9.46    331      -18.8
   12/12/2018 05:40      41.8      41.2       91     38.9      0.00      4.15      57.9     0.47      1019.2     0.2     SSW   209   0.9     SSW   213   9.46    329      -19.7
   12/12/2018 05:30      42.1      41.6       91     39.3      0.00      4.15      58.0     0.47      1019.0     0.2      SE   125   1.1     SSE   146   9.46    326      -19.0
   12/12/2018 05:20      42.2      41.7       91     39.4      0.00      4.15      58.0     0.47      1018.9     0.2      SE   141   1.1      SE   144   9.46    324      -18.4
   12/12/2018 05:10      42.7      42.0       91     39.7      0.00      4.15      58.0     0.47      1018.9     0.2     NNE    21   1.3     NNE    21   9.46    321      -19.7
   12/12/2018 05:00      42.7      41.8       91     39.8      0.00      4.15      58.0     0.47      1018.7     0.8     SSE   146   1.9     SSE   157   9.46    319      -18.8
   12/12/2018 04:50      42.6      42.1       91     39.6      0.00      4.15      58.1     0.47      1019.1     0.1     SSE   164   1.4      SE   141   9.46    316      -20.3
   12/12/2018 04:40      42.5      41.6       91     39.4      0.00      4.15      58.1     0.47      1018.9     0.4     SSE   159   1.0     SSE   150   9.46    314      -21.5
   12/12/2018 04:30      42.0      41.5       90     38.9      0.00      4.15      58.1     0.47      1018.9     0.6     SSE   159   1.6      SE   143   9.46    312      -21.9
   12/12/2018 04:20      42.3      41.5       89     38.8      0.00      4.15      58.1     0.47      1018.8     0.3      SE   141   1.6      SE   140   9.46    310      -23.8
   12/12/2018 04:10      42.7      42.1       89     39.5      0.00      4.15      58.1     0.47      1018.8     1.1       N    10   2.0       N   352   9.46    308      -23.4
   12/12/2018 04:00      42.8      42.2       89     39.5      0.00      4.15      58.1     0.47      1018.4     0.0      SE   132   0.8      SE   138   9.46    306      -24.9
   12/12/2018 03:50      43.1      42.5       89     39.8      0.00      4.15      58.2     0.47      1018.5     0.0       N     8   0.7       N   353   9.46    304      -26.3
   12/12/2018 03:40      42.9      42.5       89     39.7      0.00      4.15      58.2     0.47      1018.6     0.4      SE   130   1.1      SE   139   9.46    302      -27.3
   12/12/2018 03:30      43.2      42.6       89     40.0      0.00      4.15      58.2     0.47      1018.9     0.3      SE   140   1.2      SE   145   9.46    300      -28.9
   12/12/2018 03:20      43.1      42.6       90     40.0      0.00      4.15      58.2     0.47      1019.0     1.0      SE   142   2.4      SE   141   9.46    298      -30.0
   12/12/2018 03:10      43.2      42.8       89     40.0      0.00      4.15      58.3     0.47      1019.2     0.3     SSE   156   1.1     SSE   147   9.46    295      -31.6
   12/12/2018 03:00      43.3      42.7       89     39.8      0.00      4.15      58.3     0.47      1019.2     0.7     SSE   157   1.9     SSE   147   9.46    293      -32.9
   12/12/2018 02:50      43.4      42.9       88     39.8      0.00      4.15      58.3     0.47      1019.1     0.1     SSW   204   1.0     SSE   149   9.46    290      -34.6
   12/12/2018 02:40      43.5      43.0       88     39.8      0.00      4.15      58.3     0.47      1018.9     0.7      SE   142   1.6      SE   140   9.46    289      -36.6
   12/12/2018 02:30      43.6      43.0       87     39.6      0.00      4.15      58.3     0.47      1018.9     0.6     SSE   155   1.9      SE   142   9.46    287      -37.0
   12/12/2018 02:20      43.9      43.4       86     39.8      0.00      4.15      58.4     0.47      1018.9     1.1      SE   143   2.2      SE   139   9.46    285      -38.2
   12/12/2018 02:10      43.9      43.1       86     39.5      0.00      4.15      58.4     0.47      1019.0     0.9       S   179   2.0     SSW   206   9.46    284      -40.8
   12/12/2018 02:00      44.2      43.5       86     39.8      0.00      4.15      58.4     0.47      1019.1     0.7       S   176   1.7      SE   145   9.46    283      -42.7
   12/12/2018 01:50      44.4      43.9       85     40.0      0.00      4.15      58.4     0.47      1019.2     0.5       S   181   1.6      SW   221   9.46    281      -44.1
   12/12/2018 01:40      45.1      44.0       84     39.9      0.00      4.15      58.4     0.47      1019.1     0.6     SSE   164   1.7       S   180   9.46    280      -44.8
   12/12/2018 01:30      45.6      45.0       84     40.7      0.00      4.15      58.4     0.47      1019.2     1.1     NNE    25   2.9      NW   316   9.46    278      -45.4
   12/12/2018 01:20      45.4      44.9       84     40.4      0.00      4.15      58.4     0.47      1019.1     1.0     WSW   237   3.0      NW   310   9.46    279      -45.4
   12/12/2018 01:10      45.8      45.1       83     40.6      0.00      4.15      58.5     0.47      1019.2     0.5     SSE   165   1.2     ESE   122   9.46    279      -47.7
   12/12/2018 01:00      46.0      45.4       83     40.9      0.00      4.15      58.5     0.47      1019.2     0.5      SE   145   1.6      SE   133   9.46    279      -47.5
   12/12/2018 00:50      46.4      45.6       84     41.5      0.00      4.15      58.5     0.47      1019.2     0.9      SE   144   2.4      SE   140   9.46    279      -46.6
   12/12/2018 00:40      46.5      45.9       86     42.1      0.00      4.15      58.5     0.47      1019.3     1.0     SSE   149   2.0      SE   133   9.46    279      -46.7
   12/12/2018 00:30      47.1      45.9       85     42.2      0.00      4.15      58.5     0.47      1019.2     1.0     SSE   153   1.9      SE   142   9.46    278      -49.2
   12/12/2018 00:20      47.6      46.9       83     42.3      0.00      4.15      58.5     0.47      1019.0     0.4     SSE   162   1.1      SE   145   9.46    276      -54.0
   12/12/2018 00:10      47.5      46.7       84     42.4      0.00      4.15      58.5     0.47      1019.0     0.6       W   275   2.2       W   278   9.46    273      -55.8
   12/12/2018 00:00      47.6      46.9       83     42.5      0.00      4.15      58.5     0.47      1018.9     0.9     NNW   338   2.6      NW   320   9.46    269      -59.2
   12/11/2018 23:50      48.1      47.0       82     42.3      0.00      4.15      58.5     0.47      1018.9     0.5      SE   141   1.1      SW   223   9.46    269      -61.1
   12/11/2018 23:40      49.2      47.8       81     42.7      0.00      4.15      58.5     0.47      1019.0     0.5     ENE    75   1.6     ENE    67   9.46    268      -60.2
   12/11/2018 23:30      49.5      47.0       82     43.1      0.00      4.15      58.6     0.47      1019.0     1.8     SSW   201   3.9     WSW   237   9.46    268      -61.6
   12/11/2018 23:20      47.6      47.0       77     40.4      0.00      4.15      58.6     0.47      1019.0     2.2      SE   142   3.9      SE   142   9.46    268      -66.3
   12/11/2018 23:10      47.3      46.9       76     40.0      0.00      4.15      58.6     0.47      1019.2     1.5     SSE   146   3.7      SE   141   9.46    268      -65.2
   12/11/2018 23:00      47.6      46.9       75     39.5      0.00      4.15      58.6     0.47      1019.2     1.1     SSE   165   2.2      SE   145   9.47    268      -66.3
   12/11/2018 22:50      48.0      47.3       72     39.0      0.00      4.15      58.6     0.47      1019.1     0.9       S   187   2.5      SE   144   9.46    268      -66.9
   12/11/2018 22:40      48.1      47.8       71     38.8      0.00      4.15      58.6     0.47      1019.1     1.4     SSW   193   2.7     SSW   198   9.47    267      -66.5
   12/11/2018 22:30      48.4      47.8       70     38.9      0.00      4.15      58.6     0.47      1019.0     0.9      SW   214   1.7     WSW   252   9.47    267      -66.6
   12/11/2018 22:20      49.2      47.9       69     38.7      0.00      4.15      58.6     0.47      1018.9     0.3       S   170   1.3      SE   140   9.47    267      -67.7
   12/11/2018 22:10      50.1      48.9       67     38.8      0.00      4.15      58.6     0.47      1018.7     0.2      SE   139   1.8      NE    40   9.47    267      -68.6
   12/11/2018 22:00      50.9      49.7       65     39.0      0.00      4.15      58.6     0.47      1018.6     0.6       S   174   2.0     NNE    15   9.47    267      -68.5
   12/11/2018 21:50      51.4      50.0       64     38.7      0.00      4.15      58.6     0.47      1018.6     1.0       S   175   3.4      SW   228   9.47    266      -68.7
   12/11/2018 21:40      51.4      50.5       61     38.3      0.00      4.15      58.6     0.47      1018.6     2.1       S   190   5.3      SW   215   9.47    266      -68.9
   12/11/2018 21:30      50.5      49.4       63     37.6      0.00      4.15      58.6     0.47      1018.5     1.8       S   170   3.9       S   188   9.47    266      -68.6
   12/11/2018 21:20      51.1      49.7       60     37.1      0.00      4.15      58.6     0.47      1018.7     1.1      SE   128   2.6     SSE   160   9.47    266      -69.1
   12/11/2018 21:10      51.1      50.2       60     37.1      0.00      4.15      58.6     0.47      1018.6     1.2     NNW   332   2.6       S   184   9.47    266      -68.7
   12/11/2018 21:00      52.0      50.6       58     36.7      0.00      4.15      58.6     0.47      1018.6     1.0     SSE   168   2.9     SSW   193   9.47    266      -69.1
   12/11/2018 20:50      52.4      51.3       55     36.0      0.00      4.15      58.6     0.47      1018.5     1.2       S   174   3.0       S   187   9.47    266      -69.4
   12/11/2018 20:40      52.1      51.5       54     35.7      0.00      4.15      58.6     0.47      1018.4     1.1     SSW   202   3.0      SW   220   9.47    266      -69.3
   12/11/2018 20:30      52.7      51.9       52     35.0      0.00      4.15      58.6     0.47      1018.3     0.7     SSE   162   1.8     SSW   197   9.47    266      -70.2
   12/11/2018 20:20      53.1      52.0       52     35.2      0.00      4.15      58.5     0.47      1018.2     0.7       S   174   1.8     ENE    62   9.48    266      -70.8
   12/11/2018 20:10      54.1      52.9       50     35.3      0.00      4.15      58.6     0.47      1018.0     0.4     SSE   159   1.7       S   181   9.48    266      -70.9
   12/11/2018 20:00      54.5      53.9       47     34.5      0.00      4.15      58.5     0.47      1017.9     1.3     SSE   157   3.2       S   172   9.48    265      -71.5
   12/11/2018 19:50      55.3      54.2       47     34.6      0.00      4.15      58.5     0.47      1017.7     1.7     SSE   157   3.2      SE   140   9.48    265      -71.9
   12/11/2018 19:40      56.6      55.0       44     34.2      0.00      4.15      58.5     0.47      1017.6     1.3     SSE   157   2.7       S   170   9.48    265      -73.7
   12/11/2018 19:30      56.6      56.0       42     33.5      0.00      4.15      58.5     0.47      1017.5     1.1       S   176   3.2       S   176   9.48    265      -74.2
   12/11/2018 19:20      58.6      56.3       41     34.0      0.00      4.15      58.5     0.47      1017.4     1.1     SSE   156   3.1      SE   138   9.48    265      -75.8
   12/11/2018 19:10      61.4      58.4       36     32.7      0.00      4.15      58.5     0.47      1017.2     1.6     SSE   148   3.8      SE   139   9.48    264      -78.4
   12/11/2018 19:00      64.1      61.5       31     31.3      0.00      4.15      58.4     0.47      1017.1     1.2      SE   132   3.0     SSE   149   9.48    264      -80.6
   12/11/2018 18:50      64.3      63.7       28     30.5      0.00      4.15      58.4     0.47      1017.0     1.6      NE    39   5.3     NNE    28   9.48    264      -81.9
   12/11/2018 18:40      64.6      64.1       28     30.4      0.00      4.15      58.4     0.47      1016.9     1.8       N   352   4.6     NNE    31   9.48    264      -82.0
   12/11/2018 18:30      65.1      64.3       27     30.4      0.00      4.15      58.4     0.47      1016.9     1.2      NW   319   3.0     WSW   239   9.49    264      -82.9
   12/11/2018 18:20      65.2      64.8       27     30.4      0.00      4.15      58.4     0.47      1016.9     2.5     NNW   344   5.7       N     4   9.49    264      -84.0
   12/11/2018 18:10      65.2      64.8       28     30.8      0.00      4.15      58.3     0.47      1016.8     3.0     NNW   346   6.7       N   355   9.49    264      -84.3
   12/11/2018 18:00      65.2      64.8       28     31.1      0.00      4.15      58.3     0.47      1016.7     3.4       N     6   7.9       N   349   9.49    264      -84.5
   12/11/2018 17:50      65.1      64.7       28     31.2      0.00      4.15      58.3     0.47      1016.6     2.4       N   355   6.7       N     0   9.49    264      -84.3
   12/11/2018 17:40      65.2      64.7       29     31.5      0.00      4.15      58.3     0.47      1016.5     1.6     NNW   337   4.5     NNW   328   9.49    264      -84.2
   12/11/2018 17:30      65.5      64.9       28     31.5      0.00      4.15      58.2     0.47      1016.6     2.0      NW   313   4.4       W   280   9.49    264      -84.1
   12/11/2018 17:20      65.8      65.2       28     31.4      0.00      4.15      58.2     0.47      1016.5     1.9     NNW   327   4.4      NW   310   9.49    264      -84.6
   12/11/2018 17:10      65.9      65.4       27     31.0      0.00      4.15      58.2     0.47      1016.3     1.6      NW   316   4.5     WNW   300   9.49    264      -85.5
   12/11/2018 17:00      66.4      65.6       27     31.1      0.00      4.15      58.1     0.47      1016.2     2.0     NNW   339   5.2     NNW   332   9.50    264      -86.2
   12/11/2018 16:50      66.8      66.2       27     31.1      0.00      4.15      58.1     0.47      1016.2     2.7     NNW   330   6.8     WNW   300   9.50    264      -85.1
   12/11/2018 16:40      67.5      66.6       26     31.0      0.00      4.15      58.1     0.47      1016.2     2.4       N   349   5.7     NNE    17   9.50    264      -83.2
   12/11/2018 16:30      67.8      67.1       25     30.7      0.00      4.15      58.0     0.47      1016.1     4.4       N     6   8.8     NNE    16   9.50    263      -81.3
   12/11/2018 16:20      68.2      67.6       25     30.9      0.00      4.15      58.0     0.47      1016.1     4.1       N   359   9.8     NNW   339   9.50    263      -72.8
   12/11/2018 16:10      68.7      68.0       25     30.9      0.00      4.15      58.0     0.47      1016.1     5.5       N     3  11.4       N   351   9.51    262      -51.4
   12/11/2018 16:00      69.1      68.4       25     31.2      0.00      4.15      58.0     0.47      1016.1     5.0       N     2   9.7       N     9   9.51    262      -34.4
   12/11/2018 15:50      69.4      68.7       25     31.6      0.00      4.15      57.9     0.47      1015.9     4.8       N   359   9.2       N   354   9.51    262      -14.7
   12/11/2018 15:40      69.8      69.0       25     31.8      0.00      4.15      57.9     0.47      1015.9     5.0       N   353  10.0     NNE    24   9.51    262        4.7
   12/11/2018 15:30      69.9      69.4       25     31.9      0.00      4.15      57.9     0.47      1015.8     4.8       N   359   9.4       N     0   9.51    262       26.9
   12/11/2018 15:20      69.9      69.3       25     31.9      0.00      4.15      57.8     0.47      1015.9     5.2       N     7  10.0     NNE    25   9.51    262       49.2
   12/11/2018 15:10      70.4      69.5       25     32.1      0.00      4.15      57.8     0.47      1015.9     6.3       N     9  10.9     NNW   338   9.52    262       71.8
   12/11/2018 15:00      70.5      70.1       24     32.1      0.00      4.15      57.7     0.47      1016.0     5.2       N     3   8.8      NW   321   9.52    262       93.5
   12/11/2018 14:50      70.5      70.1       25     32.5      0.00      4.15      57.7     0.47      1016.0     5.5       N     3   9.3     NNW   348   9.52    261      115.0
   12/11/2018 14:40      71.2      70.3       25     33.3      0.00      4.15      57.7     0.47      1016.0     5.1       N     3  10.7      NW   311   9.52    262      133.5
   12/11/2018 14:30      71.4      70.8       26     34.6      0.00      4.15      57.6     0.47      1015.9     4.0       N   351  11.2       N     3   9.52    262      150.9
   12/11/2018 14:20      71.7      70.7       26     34.8      0.00      4.15      57.6     0.47      1015.9     4.4       N   360  11.0     NNE    15   9.52    263      168.7
   12/11/2018 14:10      71.7      71.1       26     35.0      0.00      4.15      57.5     0.47      1015.8     3.9      NW   325   8.4      NW   322   9.52    262      185.5
   12/11/2018 14:00      72.4      71.5       25     34.3      0.00      4.15      57.5     0.47      1015.9     2.9      NW   310   6.2     WNW   291   9.53    262      199.1
   12/11/2018 13:50      72.3      71.3       25     34.0      0.00      4.15      57.5     0.47      1015.8     2.2       N     4   4.7      NE    41   9.53    262      214.4
   12/11/2018 13:40      72.2      71.6       25     34.5      0.00      4.15      57.4     0.47      1015.8     2.4       N   356   5.9     NNW   331   9.53    262      227.8
   12/11/2018 13:30      71.9      71.3       25     34.0      0.00      4.15      57.4     0.47      1015.9     2.8       N    11   6.9       N     8   9.53    262      242.0
   12/11/2018 13:20      72.6      71.4       25     34.5      0.00      4.15      57.4     0.47      1015.9     2.5       N   355   7.7     NNW   345   9.53    262      254.8
   12/11/2018 13:10      72.4      71.3       25     34.5      0.00      4.15      57.3     0.47      1016.0     2.1     WNW   301   4.6     WNW   296   9.53    262      267.4
   12/11/2018 13:00      72.4      71.4       25     34.5      0.00      4.15      57.3     0.47      1016.1     1.4       E    99   4.6     ENE    57   9.53    262      278.5
   12/11/2018 12:50      71.5      70.1       26     34.5      0.00      4.15      57.3     0.47      1016.2     1.2     ENE    77   3.4     ENE    74   9.53    262      286.9
   12/11/2018 12:40      70.3      69.6       26     33.4      0.00      4.15      57.3     0.47      1016.4     2.1      SW   218   5.6      SW   219   9.53    263      296.7
   12/11/2018 12:30      70.5      69.7       26     34.0      0.00      4.15      57.3     0.47      1016.6     2.4       S   181   4.9     SSE   167   9.53    263      301.9
   12/11/2018 12:20      71.1      69.8       26     34.2      0.00      4.15      57.3     0.47      1016.7     1.9      SW   227   4.3       W   265   9.53    263      306.1
   12/11/2018 12:10      70.7      69.1       27     34.2      0.00      4.15      57.3     0.47      1016.8     1.9     NNW   331   4.6      NW   307   9.53    263      309.8
   12/11/2018 12:00      69.3      68.7       27     34.0      0.00      4.15      57.3     0.47      1016.9     3.2     WNW   286   5.9     WNW   303   9.53    263      315.5
   12/11/2018 11:50      69.1      68.1       27     33.7      0.00      4.15      57.2     0.47      1017.1     3.1     WNW   301   6.1     WNW   294   9.53    263      317.2
   12/11/2018 11:40      69.1      68.1       28     34.3      0.00      4.15      57.2     0.47      1017.2     2.9     NNW   344   5.6      NW   309   9.53    263      315.8
   12/11/2018 11:30      69.1      68.3       29     35.3      0.00      4.15      57.2     0.47      1017.4     3.5       N   353   9.8     NNE    28   9.53    264      313.7
   12/11/2018 11:20      68.5      67.7       29     34.9      0.00      4.15      57.2     0.47      1017.5     3.7       N     8   7.9       N   352   9.53    264      313.1
   12/11/2018 11:10      68.4      67.8       30     35.2      0.00      4.15      57.2     0.47      1017.6     3.2     NNE    30   6.9     NNE    17   9.53    265      309.5
   12/11/2018 11:00      68.3      67.0       31     35.8      0.00      4.15      57.2     0.47      1017.7     3.1     NNE    16   7.5     NNW   346   9.53    265      305.0
   12/11/2018 10:50      67.7      66.6       32     36.5      0.00      4.15      57.2     0.47      1017.8     3.0     NNE    17   9.8     NNW   334   9.53    264      299.0
   12/11/2018 10:40      66.8      66.2       33     36.4      0.00      4.15      57.2     0.47      1017.9     3.6       N     2   7.4       N     0   9.54    265      292.6
   12/11/2018 10:30      66.9      66.0       34     36.9      0.00      4.15      57.2     0.47      1017.9     4.4       N     5   8.2     NNW   339   9.54    265      285.1
   12/11/2018 10:20      66.8      66.2       36     38.8      0.00      4.15      57.3     0.47      1017.9     2.1     NNW   334   8.0       N     4   9.54    264      274.5
   12/11/2018 10:10      66.5      66.2       37     39.3      0.00      4.15      57.3     0.47      1017.8     1.2      NW   324   3.1      NW   325   9.54    265      262.9
   12/11/2018 10:00      67.0      65.9       37     39.3      0.00      4.15      57.3     0.47      1017.9     1.1     WNW   294   3.1      NW   321   9.54    265      252.9
   12/11/2018 09:50      66.8      65.3       37     39.3      0.00      4.15      57.3     0.47      1017.9     0.3     WNW   299   2.2      NW   305   9.54    265      232.4
   12/11/2018 09:40      65.6      64.3       38     38.9      0.00      4.15      57.3     0.47      1018.0     0.3     NNW   336   1.8     NNW   346   9.54    265      224.4
   12/11/2018 09:30      64.5      62.7       40     38.5      0.00      4.15      57.4     0.47      1018.0     0.5      NW   321   1.9     NNE    21   9.54    265      226.1
   12/11/2018 09:20      63.3      62.7       41     38.6      0.00      4.15      57.4     0.47      1018.0     1.4      SW   234   2.9      SW   235   9.54    266      212.0
   12/11/2018 09:10      63.2      61.4       43     39.7      0.00      4.15      57.4     0.47      1018.1     0.6     WSW   239   1.7      SW   225   9.54    266      203.9
   12/11/2018 09:00      61.9      59.4       46     39.8      0.00      4.15      57.5     0.47      1018.0     0.9     WSW   236   2.2     SSW   199   9.54    266      187.1
   12/11/2018 08:50      59.5      57.4       56     42.6      0.00      4.15      57.5     0.47      1018.0     0.5       W   264   1.3       W   270   9.54    266      153.3
   12/11/2018 08:40      57.6      56.4       61     43.7      0.00      4.15      57.5     0.47      1017.9     0.0     WSW   243   0.5     WSW   243   9.54    268       78.3
   12/11/2018 08:30      56.6      54.4       63     43.5      0.00      4.15      57.5     0.47      1017.8     0.2     ENE    60   1.0     ENE    64   9.54    268       58.0
   12/11/2018 08:20      54.6      52.7       68     43.1      0.00      4.15      57.5     0.47      1017.6     0.7     WNW   288   1.5       N     0   9.54    268      108.5
   12/11/2018 08:10      52.8      50.5       71     42.6      0.00      4.15      57.5     0.47      1017.4     0.3     ESE   112   1.3     NNE    21   9.54    269      105.7
   12/11/2018 08:00      50.7      48.6       75     42.0      0.00      4.15      57.6     0.47      1017.3     0.8       E    90   2.3     SSW   197   9.54    271       93.5
   12/11/2018 07:50      48.8      48.0       78     41.8      0.00      4.15      57.6     0.47      1017.2     0.4      SE   138   1.4     NNE    21   9.54    280       36.1
   12/11/2018 07:40      48.2      47.2       79     41.4      0.00      4.15      57.6     0.47      1017.2     0.3     SSE   158   1.4     SSE   149   9.54    286       22.2
   12/11/2018 07:30      47.5      45.9       80     40.7      0.00      4.15      57.6     0.47      1017.2     0.7      SE   140   2.3      SE   141   9.54    290       14.4
   12/11/2018 07:20      46.2      45.8       80     40.3      0.00      4.15      57.6     0.47      1017.2     0.8     SSE   158   2.3       S   177   9.54    298        6.8
   12/11/2018 07:10      46.0      45.4       82     40.3      0.00      4.15      57.7     0.47      1017.2     0.3     SSE   158   1.8     SSE   163   9.54    303       -4.3
   12/11/2018 07:00      45.5      44.4       84     40.3      0.00      4.15      57.7     0.47      1017.1     0.8     SSE   157   1.6     SSE   157   9.54    306      -11.5
   12/11/2018 06:50      44.6      44.0       85     40.1      0.00      4.15      57.7     0.47      1017.1     0.8     SSE   154   2.3       S   191   9.54    309      -14.5
   12/11/2018 06:40      44.2      43.4       86     39.7      0.00      4.15      57.7     0.47      1017.1     1.0      SE   145   2.1      SE   137   9.54    310      -16.9
   12/11/2018 06:30      44.0      43.4       86     39.7      0.00      4.15      57.7     0.47      1017.1     0.5       S   173   2.1       N     5   9.54    311      -18.9
   12/11/2018 06:20      43.8      43.2       87     39.9      0.00      4.15      57.7     0.47      1017.0     0.4       S   177   1.0       S   175   9.54    312      -18.3
   12/11/2018 06:10      43.5      42.9       88     39.8      0.00      4.15      57.8     0.47      1016.9     0.3      SW   224   1.3     NNW   345   9.54    312      -18.0
   12/11/2018 06:00      43.2      42.7       88     39.7      0.00      4.15      57.8     0.47      1016.8     0.8     SSE   161   1.9       S   179   9.54    313      -18.9
   12/11/2018 05:50      43.1      42.6       89     39.6      0.00      4.15      57.8     0.47      1016.8     0.7     SSE   156   3.3       S   175   9.54    313      -18.3
   12/11/2018 05:40      42.9      42.2       89     39.5      0.00      4.15      57.9     0.47      1016.8     0.1      NW   325   1.5      NW   312   9.54    313      -18.1
   12/11/2018 05:30      42.6      42.1       89     39.2      0.00      4.15      57.9     0.47      1016.8     0.3       S   187   1.3       S   174   9.54    312      -19.1
   12/11/2018 05:20      42.8      42.2       89     39.2      0.00      4.15      57.9     0.47      1016.8     0.6     ESE   112   2.3       S   182   9.54    311      -20.2
   12/11/2018 05:10      42.9      42.4       89     39.6      0.00      4.15      57.9     0.47      1016.7     0.6     SSE   164   1.7     NNE    23   9.54    311      -21.3
   12/11/2018 05:00      42.9      42.3       89     39.6      0.00      4.15      57.9     0.47      1016.6     1.1       S   190   3.0     SSW   205   9.54    311      -20.9
   12/11/2018 04:50      42.6      42.2       89     39.4      0.00      4.15      58.0     0.47      1016.6     1.2      SE   141   3.2       S   190   9.54    310      -22.2
   12/11/2018 04:40      42.6      42.0       89     39.3      0.00      4.15      58.0     0.47      1016.5     0.6      SE   130   1.9     SSE   147   9.54    309      -23.6
   12/11/2018 04:30      42.8      42.1       89     39.2      0.00      4.15      58.0     0.47      1016.6     0.4     SSE   166   1.8     SSW   192   9.54    307      -23.8
   12/11/2018 04:20      42.9      42.5       89     39.6      0.00      4.15      58.0     0.47      1016.7     0.5      NE    56   1.5       N     8   9.54    306      -23.2
   12/11/2018 04:10      42.9      42.4       89     39.6      0.00      4.15      58.0     0.47      1016.7     0.1       S   173   1.1       S   176   9.54    305      -22.6
   12/11/2018 04:00      42.9      42.3       89     39.4      0.00      4.15      58.1     0.47      1016.8     0.5     SSE   156   1.4     SSE   154   9.54    303      -23.6
   12/11/2018 03:50      43.0      42.6       89     39.7      0.00      4.15      58.1     0.47      1017.0     0.2     SSE   158   1.3      SE   146   9.54    301      -27.4
   12/11/2018 03:40      43.1      42.7       89     39.7      0.00      4.15      58.1     0.47      1017.0     0.3      SE   132   2.2      SE   138   9.54    300      -28.5
   12/11/2018 03:30      43.1      42.6       89     39.7      0.00      4.15      58.1     0.47      1017.1     1.0      SE   143   2.4      SE   140   9.54    299      -29.8
   12/11/2018 03:20      43.5      42.7       88     39.7      0.00      4.15      58.1     0.47      1017.2     0.7     SSE   159   1.5      SE   146   9.54    296      -30.9
   12/11/2018 03:10      43.4      42.9       88     40.0      0.00      4.15      58.1     0.47      1017.3     0.3       S   191   1.3     SSE   147   9.54    294      -32.3
   12/11/2018 03:00      43.5      43.0       88     39.9      0.00      4.15      58.2     0.47      1017.2     0.4       S   170   1.4     SSE   165   9.54    293      -33.8
   12/11/2018 02:50      43.7      43.2       88     40.0      0.00      4.15      58.2     0.47      1017.2     0.2     SSE   150   1.1       S   190   9.54    291      -35.4
   12/11/2018 02:40      43.8      43.2       88     40.0      0.00      4.15      58.2     0.47      1017.3     0.5     SSE   159   1.3       S   169   9.54    290      -37.0
   12/11/2018 02:30      44.2      43.4       87     40.0      0.00      4.15      58.2     0.47      1017.3     0.4     SSE   155   1.1       S   170   9.54    288      -38.9
   12/11/2018 02:20      44.9      43.9       86     40.2      0.00      4.15      58.2     0.47      1017.4     0.5     SSE   160   1.9     SSE   150   9.54    286      -40.2
   12/11/2018 02:10      44.9      44.4       86     40.8      0.00      4.15      58.2     0.47      1017.4     0.8       S   186   1.5      SW   215   9.54    284      -41.6
   12/11/2018 02:00      44.8      44.5       86     40.8      0.00      4.15      58.2     0.47      1017.3     0.4       N     9   2.4       N    10   9.54    284      -44.1
   12/11/2018 01:50      45.2      44.6       86     40.9      0.00      4.15      58.3     0.47      1017.4     0.5     SSE   152   1.3      SE   137   9.54    283      -45.3
   12/11/2018 01:40      45.8      44.9       86     41.2      0.00      4.15      58.3     0.47      1017.3     0.3      SE   143   1.3       S   173   9.54    282      -46.4
   12/11/2018 01:30      45.8      45.4       87     41.7      0.00      4.15      58.3     0.47      1017.3     1.2      SE   139   2.4     SSE   152   9.54    281      -47.2
   12/11/2018 01:20      46.0      45.5       87     42.0      0.00      4.15      58.3     0.47      1017.2     0.6     SSE   163   2.2      SE   143   9.54    280      -49.1
   12/11/2018 01:10      46.5      45.8       86     42.1      0.00      4.15      58.3     0.47      1017.1     0.4     SSE   157   1.0     SSE   157   9.54    279      -53.1
   12/11/2018 01:00      47.1      46.1       85     42.2      0.00      4.15      58.3     0.47      1017.3     0.2      SE   146   1.0     SSE   154   9.54    276      -57.0
   12/11/2018 00:50      47.3      46.9       85     42.8      0.00      4.15      58.3     0.47      1017.2     0.4     NNE    21   1.8     NNW   334   9.54    273      -59.4
   12/11/2018 00:40      47.6      46.9       85     42.7      0.00      4.15      58.3     0.47      1017.1     0.6      SW   232   1.4      SE   126   9.54    272      -61.0
   12/11/2018 00:30      47.5      47.2       84     42.9      0.00      4.15      58.3     0.47      1017.0     1.4      SE   143   3.2      SE   142   9.54    270      -59.8
   12/11/2018 00:20      47.9      47.0       84     42.7      0.00      4.15      58.3     0.47      1017.2     1.6      SE   145   2.8      SE   132   9.54    270      -60.1
   12/11/2018 00:10      48.1      47.5       82     42.6      0.00      4.15      58.3     0.47      1017.3     0.3       S   186   1.3       S   184   9.54    269      -61.7
   12/11/2018 00:00      48.6      47.8       81     42.6      0.00      4.15      58.4     0.47      1017.3     0.4      SE   139   1.2      SE   143   9.54    269      -64.1
   12/10/2018 23:50      48.7      47.9       81     42.7      0.00      4.15      58.3     0.47      1017.4     1.1     SSE   152   2.2      SE   141   9.54    269      -64.6
   12/10/2018 23:40      49.8      48.4       78     42.6      0.00      4.15      58.3     0.47      1017.3     0.6     SSE   168   1.7     SSE   156   9.54    270      -65.4
   12/10/2018 23:30      50.0      49.4       78     43.1      0.00      4.15      58.4     0.47      1017.3     0.8      SW   214   2.8     WSW   238   9.55    269      -61.7
   12/10/2018 23:20      49.7      49.3       78     43.0      0.00      4.15      58.4     0.47      1017.3     1.6      SW   219   2.8     SSW   201   9.55    269      -63.9
   12/10/2018 23:10      49.6      48.9       80     43.4      0.00      4.15      58.3     0.47      1017.1     1.1      SW   234   2.0     WSW   251   9.55    269      -63.0
   12/10/2018 23:00      49.9      49.1       80     43.7      0.00      4.15      58.4     0.47      1017.1     0.9      SE   141   1.9      SE   140   9.55    269      -59.5
   12/10/2018 22:50      50.3      49.1       80     43.7      0.00      4.15      58.4     0.47      1017.4     1.0     SSE   161   2.0      SE   134   9.55    269      -61.5
   12/10/2018 22:40      50.6      50.0       79     44.0      0.00      4.15      58.4     0.47      1017.5     0.1      NE    48   1.0     NNE    31   9.55    269      -55.1
   12/10/2018 22:30      51.1      50.3       78     43.9      0.00      4.15      58.4     0.47      1017.6     1.2       S   180   2.8     SSE   165   9.55    269      -50.3
   12/10/2018 22:20      51.7      50.8       76     44.2      0.00      4.15      58.4     0.47      1017.5     0.7       S   186   1.6     WSW   249   9.55    268      -60.1
   12/10/2018 22:10      52.5      51.3       76     44.3      0.00      4.15      58.3     0.47      1017.5     0.5     WSW   239   1.6     WSW   248   9.55    269      -62.8
   12/10/2018 22:00      53.2      52.2       73     44.3      0.00      4.15      58.3     0.47      1017.6     0.3      SE   136   1.3      SE   132   9.55    268      -55.5
   12/10/2018 21:50      53.8      52.6       73     44.4      0.00      4.15      58.4     0.47      1017.5     1.5       S   188   2.6      SE   145   9.55    268      -54.5
   12/10/2018 21:40      53.8      53.0       72     44.6      0.00      4.15      58.3     0.47      1017.4     1.8     WSW   247   3.6       W   274   9.55    268      -52.4
   12/10/2018 21:30      53.7      53.2       71     44.3      0.00      4.15      58.4     0.47      1017.2     0.7     ENE    72   1.9      SE   138   9.55    268      -40.4
   12/10/2018 21:20      54.0      53.5       71     44.5      0.00      4.15      58.4     0.47      1017.4     1.0     SSE   147   2.2     SSE   152   9.55    268      -52.3
   12/10/2018 21:10      53.9      52.9       73     44.8      0.00      4.15      58.3     0.47      1017.4     2.0     SSE   156   3.7       S   176   9.55    268      -53.9
   12/10/2018 21:00      53.9      53.0       73     44.8      0.00      4.15      58.3     0.47      1017.3     1.2     SSE   157   2.1      SE   142   9.55    268      -52.2
   12/10/2018 20:50      54.9      53.6       70     44.7      0.00      4.15      58.3     0.47      1017.4     0.2     SSE   164   0.9     SSE   162   9.55    268      -45.0
   12/10/2018 20:40      54.8      54.3       69     44.7      0.00      4.15      58.3     0.47      1017.3     0.0     NNE    11   0.6     NNE    12   9.55    268      -41.0
   12/10/2018 20:30      54.8      54.0       70     44.9      0.00      4.15      58.3     0.47      1017.2     0.9     SSW   193   1.8       S   187   9.55    268      -45.8
   12/10/2018 20:20      54.9      54.6       69     44.8      0.00      4.15      58.3     0.47      1017.2     0.8      SE   145   1.6      SE   140   9.55    268      -41.4
   12/10/2018 20:10      55.2      54.6       68     44.7      0.00      4.15      58.3     0.47      1017.3     1.3     SSE   161   2.2     SSW   199   9.55    268      -33.6
   12/10/2018 20:00      55.1      54.5       68     44.6      0.00      4.15      58.3     0.47      1017.3     0.5       S   172   1.8     SSW   204   9.55    268      -31.0
   12/10/2018 19:50      55.1      54.4       68     44.5      0.00      4.15      58.3     0.47      1017.3     0.7     SSE   149   2.0     SSE   157   9.55    268      -39.5
   12/10/2018 19:40      54.9      54.4       68     44.4      0.00      4.15      58.3     0.47      1017.3     0.8     SSE   157   2.3     SSW   209   9.56    268      -43.1
   12/10/2018 19:30      55.4      54.4       68     44.6      0.00      4.15      58.2     0.47      1017.2     1.1       S   169   2.5       S   188   9.56    268      -53.0
   12/10/2018 19:20      56.0      55.0       67     44.6      0.00      4.15      58.2     0.47      1017.1     0.8     SSE   163   2.0     SSE   148   9.56    268      -52.5
   12/10/2018 19:10      56.9      55.8       64     44.3      0.00      4.15      58.2     0.47      1017.1     1.3     SSE   156   2.3      SE   143   9.55    268      -50.9
   12/10/2018 19:00      57.6      56.6       62     44.0      0.00      4.15      58.2     0.47      1017.1     1.4       S   180   2.5       S   177   9.56    267      -48.1
   12/10/2018 18:50      57.5      56.9       62     44.1      0.00      4.15      58.2     0.47      1017.0     1.5      SW   229   2.4      SW   227   9.56    267      -43.1
   12/10/2018 18:40      57.9      57.0       61     44.0      0.00      4.15      58.2     0.47      1016.9     0.2      NE    53   1.4     ENE    60   9.56    267      -39.3
   12/10/2018 18:30      58.3      57.6       59     43.8      0.00      4.15      58.1     0.47      1016.9     1.1      SE   128   2.2     SSW   192   9.56    267      -37.3
   12/10/2018 18:20      59.3      58.0       58     43.8      0.00      4.15      58.1     0.47      1016.9     0.2      SE   126   1.1     NNE    20   9.56    267      -36.8
   12/10/2018 18:10      60.4      59.0       55     43.4      0.00      4.15      58.1     0.47      1016.9     1.2       S   176   2.1       S   190   9.56    267      -36.0
   12/10/2018 18:00      60.5      59.1       53     42.7      0.00      4.15      58.1     0.47      1016.9     1.9      SW   229   4.2     WNW   284   9.56    267      -38.4
   12/10/2018 17:50      59.3      58.5       57     43.8      0.00      4.15      58.0     0.47      1016.6     1.8       S   183   4.2     WSW   251   9.56    267      -34.6
   12/10/2018 17:40      59.4      59.0       57     43.9      0.00      4.15      58.0     0.47      1016.5     0.7      SE   145   1.7     SSE   161   9.56    267      -33.5
   12/10/2018 17:30      59.2      58.6       61     45.2      0.00      4.15      58.0     0.47      1016.3     1.5     SSE   166   2.3     SSW   204   9.56    267      -36.4
   12/10/2018 17:20      59.6      58.7       61     45.7      0.00      4.15      58.0     0.47      1016.2     0.7     SSE   162   1.9     SSE   149   9.56    267      -38.8
   12/10/2018 17:10      59.9      59.3       60     45.5      0.00      4.15      57.9     0.47      1016.1     0.5      SE   134   1.3      SE   141   9.56    267      -38.7
   12/10/2018 17:00      60.3      59.7       59     45.4      0.00      4.15      57.9     0.47      1016.2     1.6      SE   138   2.8     SSE   149   9.56    267      -39.1
   12/10/2018 16:50      60.8      59.9       58     45.7      0.00      4.15      57.9     0.47      1016.1     1.4       S   177   2.3     SSW   205   9.56    267      -43.9
   12/10/2018 16:40      61.9      60.4       59     46.5      0.00      4.15      57.9     0.47      1015.9     0.7     SSE   163   2.1      SE   144   9.56    266      -45.3
   12/10/2018 16:30      63.2      61.6       54     45.7      0.00      4.15      57.8     0.47      1016.1     0.9     SSE   147   2.6      SE   135   9.56    266      -43.2
   12/10/2018 16:20      64.5      63.0       50     44.9      0.00      4.15      57.8     0.47      1016.4     0.8      SW   223   1.5     WSW   242   9.56    266      -36.1
   12/10/2018 16:10      65.2      64.2       47     43.9      0.00      4.15      57.8     0.47      1016.4     0.4     SSW   192   1.7     SSW   192   9.56    266      -28.2
   12/10/2018 16:00      66.7      64.9       46     44.5      0.00      4.15      57.8     0.47      1016.6     0.6       S   183   1.8     SSE   164   9.56    266      -27.9
   12/10/2018 15:50      67.5      66.2       44     43.9      0.00      4.15      57.7     0.47      1016.5     0.5       E    88   1.5       E    83   9.57    265      -20.3
   12/10/2018 15:40      68.0      67.3       40     42.3      0.00      4.15      57.7     0.47      1016.6     0.3     SSE   155   1.0      SE   137   9.57    265        7.5
   12/10/2018 15:30      68.4      67.6       37     40.5      0.00      4.15      57.7     0.47      1016.6     0.0     ESE   121   0.5      SE   125   9.57    265       27.4
   12/10/2018 15:20      68.4      67.8       36     40.2      0.00      4.15      57.7     0.47      1016.6     0.4     ENE    71   1.5     ENE    77   9.57    264       31.1
   12/10/2018 15:10      68.4      67.7       36     40.2      0.00      4.15      57.6     0.47      1016.7     0.5     NNE    32   1.4     NNW   346   9.57    264       55.7
   12/10/2018 15:00      68.2      67.4       37     40.4      0.00      4.15      57.6     0.47      1016.6     0.0       S   177   0.4       S   178   9.57    265       27.0
   12/10/2018 14:50      68.1      67.3       36     40.0      0.00      4.15      57.6     0.47      1016.7     0.9     ESE   124   1.6     SSE   151   9.57    265       38.7
   12/10/2018 14:40      68.2      67.7       34     38.6      0.00      4.15      57.5     0.47      1016.8     0.8       S   180   2.1     SSW   195   9.57    264       44.4
   12/10/2018 14:30      68.4      67.9       34     38.8      0.00      4.15      57.5     0.47      1016.7     1.1      SE   132   2.5       S   183   9.57    264       46.8
   12/10/2018 14:20      69.0      68.1       31     37.0      0.00      4.15      57.5     0.47      1016.7     1.0      SE   126   1.6      SE   134   9.57    264       62.0
   12/10/2018 14:10      69.7      68.7       30     36.9      0.00      4.15      57.5     0.47      1016.9     0.5     ESE   119   1.6      SE   144   9.57    264       82.8
   12/10/2018 14:00      70.0      69.2       30     37.0      0.00      4.15      57.5     0.47      1016.8     0.2     SSW   210   1.1      SW   214   9.57    264       92.5
   12/10/2018 13:50      70.1      69.4       31     37.6      0.00      4.15      57.5     0.47      1016.8     0.3       W   281   1.4       W   271   9.57    264       87.4
   12/10/2018 13:40      70.1      68.6       32     38.3      0.00      4.15      57.4     0.47      1016.9     0.3      NW   304   1.8     WNW   289   9.57    264      137.3
   12/10/2018 13:30      69.8      68.6       33     38.8      0.00      4.15      57.4     0.47      1017.0     1.0     NNW   329   2.4      NW   310   9.57    264       92.1
   12/10/2018 13:20      70.6      69.3       30     36.9      0.00      4.15      57.4     0.47      1017.3     0.6       N   349   1.7       N   355   9.57    264      114.7
   12/10/2018 13:10      70.0      68.2       34     39.3      0.00      4.15      57.4     0.47      1017.4     0.7       W   273   2.9       W   279   9.57    264      209.2
   12/10/2018 13:00      68.5      67.6       35     39.6      0.00      4.15      57.4     0.47      1017.2     0.6      SE   138   1.8      SE   134   9.57    264      156.7
   12/10/2018 12:50      67.9      67.1       35     38.9      0.00      4.15      57.4     0.47      1017.2     1.3       E    92   2.2       E    93   9.57    264      170.7
   12/10/2018 12:40      69.0      67.6       36     39.9      0.00      4.15      57.4     0.47      1017.2     1.3     ESE   107   3.2     ENE    63   9.57    265      148.5
   12/10/2018 12:30      68.9      66.7       36     39.7      0.00      4.15      57.3     0.47      1017.5     0.8     ESE   105   2.9       E    96   9.57    264      353.0
   12/10/2018 12:20      66.9      66.3       37     39.8      0.00      4.15      57.4     0.47      1017.7     0.6       E   100   2.1       S   170   9.57    266      135.4
   12/10/2018 12:10      66.5      64.6       40     40.1      0.00      4.15      57.3     0.47      1018.1     1.3     SSW   208   3.8     SSW   210   9.57    265      195.6
   12/10/2018 12:00      65.1      63.8       45     42.4      0.00      4.15      57.3     0.47      1018.4     3.1      SW   219   5.1     SSW   210   9.57    266      215.0
   12/10/2018 11:50      64.1      63.3       48     43.7      0.00      4.15      57.3     0.47      1018.4     1.0      SW   233   3.5     WSW   242   9.57    266      125.3
   12/10/2018 11:40      63.4      62.8       50     44.2      0.00      4.15      57.3     0.47      1018.3     0.4      NE    39   1.4     NNE    16   9.57    266      116.8
   12/10/2018 11:30      63.1      62.5       50     44.1      0.00      4.15      57.3     0.47      1018.6     0.6     ENE    57   1.9     ENE    69   9.57    266      111.1
   12/10/2018 11:20      62.8      61.8       52     44.3      0.00      4.15      57.3     0.47      1018.8     0.5      SE   126   1.4     SSE   153   9.57    266      110.6
   12/10/2018 11:10      62.3      61.6       52     43.9      0.00      4.15      57.3     0.47      1019.2     1.8       W   280   3.8       W   268   9.57    267      108.5
   12/10/2018 11:00      62.1      61.3       52     43.7      0.00      4.15      57.3     0.47      1019.4     0.4      NW   310   1.9      NW   314   9.57    266       97.3
   12/10/2018 10:50      61.5      60.7       55     44.6      0.00      4.15      57.3     0.47      1019.5     0.9       W   264   2.1       W   277   9.57    267      105.8
   12/10/2018 10:40      60.9      60.1       55     44.3      0.00      4.15      57.4     0.47      1019.5     1.3     WSW   245   2.9      SW   225   9.57    267      118.5
   12/10/2018 10:30      60.2      59.1       57     44.2      0.00      4.15      57.3     0.47      1019.5     0.7       N     5   2.5     NNE    17   9.57    267       97.6
   12/10/2018 10:20      59.3      58.6       58     44.0      0.00      4.15      57.4     0.47      1019.8     1.7     SSW   196   3.6       S   190   9.57    267       73.8
   12/10/2018 10:10      59.1      58.6       59     44.4      0.00      4.15      57.4     0.47      1019.5     0.8     WNW   303   2.2      NW   308   9.57    267       71.1
   12/10/2018 10:00      59.2      58.7       59     44.5      0.00      4.15      57.4     0.47      1019.5     1.1     ENE    65   2.3     ENE    62   9.57    268       56.5
   12/10/2018 09:50      59.7      58.9       56     43.6      0.00      4.15      57.3     0.47      1020.1     2.0      NE    34   3.5     NNE    33   9.57    267       79.1
   12/10/2018 09:40      59.6      58.6       55     42.8      0.00      4.15      57.4     0.47      1020.4     0.4     NNE    12   1.3     ENE    60   9.57    267       92.7
   12/10/2018 09:30      58.8      57.5       57     42.9      0.00      4.15      57.4     0.47      1020.7     1.7     SSW   209   4.0     WSW   243   9.57    268       72.6
   12/10/2018 09:20      57.6      56.3       61     43.6      0.00      4.15      57.4     0.47      1020.6     2.9     WSW   251   5.0      SW   235   9.57    268       64.5
   12/10/2018 09:10      56.5      55.1       65     44.3      0.00      4.15      57.4     0.47      1020.5     0.8     WSW   254   2.4     WSW   257   9.57    268       72.3
   12/10/2018 09:00      55.3      54.0       68     44.2      0.00      4.15      57.4     0.47      1020.3     1.0      SW   226   2.1     WSW   246   9.57    268       60.4
   12/10/2018 08:50      54.3      53.6       69     44.0      0.00      4.15      57.4     0.47      1020.3     0.4     ESE   120   2.1      SE   145   9.57    268       42.3
   12/10/2018 08:40      53.8      53.5       69     43.9      0.00      4.15      57.4     0.47      1020.3     1.2     SSE   166   3.2     SSW   194   9.57    268       28.2
   12/10/2018 08:30      53.8      53.5       69     43.8      0.00      4.15      57.4     0.47      1020.1     1.0      NE    43   3.0     NNE    25   9.57    268       19.8
   12/10/2018 08:20      53.6      53.0       71     43.9      0.00      4.15      57.4     0.47      1020.5     1.1       N     3   3.1     NNE    25   9.57    268       29.8
   12/10/2018 08:10      53.1      52.2       70     43.3      0.00      4.15      57.5     0.47      1020.4     0.7      SE   127   1.9     ENE    69   9.57    268       33.0
   12/10/2018 08:00      52.4      51.1       74     43.5      0.00      4.15      57.5     0.47      1020.1     1.6      SW   214   2.5     WSW   246   9.57    269       18.6
   12/10/2018 07:50      51.3      50.6       78     44.2      0.00      4.15      57.5     0.47      1019.9     1.2     ENE    63   2.6     ENE    67   9.57    269       11.3
   12/10/2018 07:40      50.8      50.1       78     43.6      0.00      4.15      57.5     0.47      1020.3     1.1      NE    55   2.2      NE    51   9.57    269       10.3
   12/10/2018 07:30      50.4      49.0       79     43.1      0.00      4.15      57.5     0.47      1020.3     0.8     SSE   146   2.2       S   176   9.57    269        6.9
   12/10/2018 07:20      49.2      48.7       80     43.0      0.00      4.15      57.5     0.47      1020.2     0.9      NE    54   1.9      SE   136   9.57    269       -2.1
   12/10/2018 07:10      49.0      48.5       80     42.8      0.00      4.15      57.5     0.47      1020.1     0.6      NE    54   1.5     ENE    57   9.57    269      -12.4
   12/10/2018 07:00      49.0      48.4       79     42.5      0.00      4.15      57.5     0.47      1020.0     0.6     SSE   158   2.0      SE   140   9.57    269      -27.2
   12/10/2018 06:50      49.5      48.8       78     42.6      0.00      4.15      57.6     0.47      1019.9     0.4      SE   139   1.5       S   187   9.57    269      -29.6
   12/10/2018 06:40      49.5      48.8       78     42.5      0.00      4.15      57.5     0.47      1020.1     1.3       N   357   2.3     WSW   258   9.57    269      -25.1
   12/10/2018 06:30      49.0      48.4       80     42.6      0.00      4.15      57.5     0.47      1019.9     1.5     SSE   161   3.3      SW   216   9.57    269      -31.7
   12/10/2018 06:20      48.8      48.3       80     42.6      0.00      4.15      57.5     0.47      1019.8     0.4     ENE    65   1.2      NE    36   9.57    269      -29.5
   12/10/2018 06:10      48.6      48.2       80     42.6      0.00      4.15      57.6     0.47      1019.7     0.4     SSW   196   1.2       W   265   9.57    269      -24.9
   12/10/2018 06:00      49.1      48.3       79     42.4      0.00      4.15      57.6     0.47      1019.7     0.3     SSE   149   1.2      SE   135   9.57    269      -24.1
   12/10/2018 05:50      49.0      48.7       79     42.5      0.00      4.15      57.6     0.47      1019.7     0.2     ESE   114   0.9       E    91   9.57    269      -25.3
   12/10/2018 05:40      49.0      48.7       79     42.7      0.00      4.15      57.6     0.47      1019.7     0.4     WNW   282   1.1     NNE    21   9.57    269      -27.9
   12/10/2018 05:30      49.1      48.4       80     42.6      0.00      4.15      57.6     0.47      1019.5     0.8      SW   233   1.9     WSW   241   9.57    269      -30.1
   12/10/2018 05:20      49.0      48.3       79     42.6      0.00      4.15      57.6     0.47      1019.5     0.5       N    11   1.6       N     2   9.57    269      -26.6
   12/10/2018 05:10      48.6      48.2       81     42.6      0.00      4.15      57.6     0.47      1019.7     0.5     SSE   150   1.5      SE   143   9.57    269      -28.4
   12/10/2018 05:00      48.7      48.3       80     42.6      0.00      4.15      57.7     0.47      1019.7     0.3     ESE   122   1.2      SE   127   9.57    269      -29.0
   12/10/2018 04:50      48.6      48.2       80     42.5      0.00      4.15      57.7     0.47      1019.8     1.5      SE   146   3.0      SE   142   9.57    269      -31.1
   12/10/2018 04:40      48.4      48.0       81     42.6      0.00      4.15      57.7     0.47      1019.7     0.4     SSW   206   1.7     SSW   192   9.57    269      -32.4
   12/10/2018 04:30      48.8      48.1       80     42.6      0.00      4.15      57.7     0.47      1019.6     0.4     SSE   166   1.1      SW   219   9.57    269      -35.5
   12/10/2018 04:20      48.9      48.3       80     42.6      0.00      4.15      57.7     0.47      1019.6     0.3     SSW   209   0.9     WSW   247   9.57    269      -31.7
   12/10/2018 04:10      48.7      48.3       80     42.5      0.00      4.15      57.7     0.47      1019.7     0.4     NNE    22   1.0     NNE    21   9.57    269      -29.7
   12/10/2018 04:00      48.6      48.1       81     42.7      0.00      4.15      57.7     0.47      1019.8     0.7     SSE   160   1.7       S   188   9.57    269      -30.9
   12/10/2018 03:50      49.0      48.3       79     42.5      0.00      4.15      57.7     0.47      1019.9     0.3      SE   144   1.2     NNW   337   9.57    269      -34.9
   12/10/2018 03:40      49.4      48.7       79     42.5      0.00      4.15      57.8     0.47      1020.0     0.0       N     1   0.9       N     1   9.57    269      -37.3
   12/10/2018 03:30      49.4      48.8       79     42.9      0.00      4.15      57.7     0.47      1020.1     0.6      SW   233   1.7     WSW   255   9.57    269      -40.0
   12/10/2018 03:20      49.2      48.7       79     42.8      0.00      4.15      57.8     0.47      1020.2     0.3     ESE   110   1.0     ENE    59   9.57    269      -37.8
   12/10/2018 03:10      49.4      48.9       79     42.9      0.00      4.15      57.7     0.47      1020.3     0.8     SSE   156   1.4      SE   136   9.57    269      -31.7
   12/10/2018 03:00      49.4      49.0       79     42.9      0.00      4.15      57.8     0.47      1020.4     0.4       E    91   1.6     ESE   107   9.57    269      -30.2
   12/10/2018 02:50      49.3      48.7       80     43.0      0.00      4.15      57.8     0.47      1020.3     0.3      SW   222   1.4       S   182   9.57    269      -29.0
   12/10/2018 02:40      49.1      48.7       80     42.9      0.00      4.15      57.8     0.48      1020.4     0.4      SE   128   1.4       E    95   9.57    269      -29.5
   12/10/2018 02:30      49.5      48.8       79     42.7      0.00      4.15      57.8     0.48      1020.6     0.0       E    81   0.9       E    80   9.57    269      -30.1
   12/10/2018 02:20      49.4      48.7       79     42.7      0.00      4.15      57.8     0.48      1020.5     0.4       S   187   1.7     SSW   192   9.58    269      -30.6
   12/10/2018 02:10      49.1      48.7       79     42.7      0.00      4.15      57.8     0.47      1020.4     0.1     SSE   147   1.2     SSE   147   9.58    269      -31.4
   12/10/2018 02:00      49.1      48.6       79     42.8      0.00      4.15      57.9     0.47      1020.4     0.5       S   191   1.4     SSW   197   9.58    269      -32.7
   12/10/2018 01:50      49.0      48.3       81     42.9      0.00      4.15      57.9     0.47      1020.4     0.8       S   177   1.7     SSW   209   9.58    269      -31.4
   12/10/2018 01:40      49.0      48.3       80     42.9      0.00      4.15      57.9     0.48      1020.5     0.0     ENE    57   0.8     ENE    57   9.58    269      -30.8
   12/10/2018 01:30      48.8      48.4       81     42.8      0.00      4.15      57.9     0.48      1020.8     0.2       S   189   1.1     SSW   197   9.58    269      -32.4
   12/10/2018 01:20      49.0      48.5       80     42.8      0.00      4.15      57.9     0.48      1020.8     0.1     SSW   209   1.1     SSW   197   9.58    269      -32.1
   12/10/2018 01:10      49.0      48.6       79     42.7      0.00      4.15      57.9     0.48      1020.9     0.8      SE   133   1.9      SE   145   9.58    269      -33.1
   12/10/2018 01:00      49.0      48.7       79     42.6      0.00      4.15      57.9     0.48      1021.0     0.9       S   169   1.9     SSW   192   9.58    269      -35.5
   12/10/2018 00:50      48.9      48.1       81     42.9      0.00      4.15      57.9     0.48      1021.0     0.2      NW   326   0.9      NW   304   9.58    269      -38.2
   12/10/2018 00:40      48.2      47.6       82     42.6      0.00      4.15      58.0     0.48      1020.9     0.7      SW   220   2.1      SW   226   9.58    269      -40.6
   12/10/2018 00:30      48.4      47.8       81     42.4      0.00      4.15      58.0     0.48      1020.9     0.5     SSE   158   1.3       S   188   9.58    269      -45.4
   12/10/2018 00:20      48.9      48.3       80     42.5      0.00      4.15      58.0     0.48      1021.3     0.2      SE   137   1.5      SE   143   9.58    269      -44.6
   12/10/2018 00:10      48.9      48.4       80     42.6      0.00      4.15      58.0     0.48      1021.5     0.2     SSE   162   1.5      SE   144   9.58    269      -41.2
   12/10/2018 00:00      48.8      48.4       80     42.6      0.00      4.15      58.0     0.48      1021.7     0.0       S   183   0.7       S   183   9.58    269      -38.7
   12/09/2018 23:50      49.2      48.6       79     42.6      0.00      4.15      58.0     0.48      1021.8     0.0       S   183   0.8       S   183   9.58    269      -40.5
   12/09/2018 23:40      49.0      48.6       79     42.7      0.00      4.15      58.0     0.48      1022.0     0.3       S   187   1.6       S   185   9.58    269      -43.5
   12/09/2018 23:30      49.3      48.7       79     42.7      0.00      4.15      58.0     0.48      1021.9     0.2       S   188   1.5       S   186   9.58    269      -46.7
   12/09/2018 23:20      49.4      48.9       79     42.7      0.00      4.15      58.0     0.48      1022.0     0.7       S   190   2.3       S   187   9.58    269      -46.6
   12/09/2018 23:10      49.4      49.1       78     42.8      0.00      4.15      58.0     0.48      1022.1     0.3     ESE   123   2.0     SSE   154   9.58    269      -42.1
   12/09/2018 23:00      49.3      48.8       79     42.8      0.00      4.15      58.0     0.48      1022.4     0.5     SSE   155   1.9      SE   141   9.58    269      -38.0
   12/09/2018 22:50      49.2      48.6       79     42.7      0.00      4.15      58.0     0.48      1022.4     0.2     SSE   151   1.1      SE   143   9.58    269      -38.0
   12/09/2018 22:40      49.0      48.5       80     42.8      0.00      4.15      58.0     0.48      1022.4     0.3       S   178   1.3       S   178   9.58    269      -45.0
   12/09/2018 22:30      49.7      48.7       79     42.7      0.00      4.15      58.0     0.48      1022.4     0.3       S   169   1.1     SSE   155   9.58    269      -51.6
   12/09/2018 22:20      49.4      49.0       78     42.8      0.00      4.15      58.0     0.48      1022.5     0.7     SSE   159   1.8     SSW   195   9.58    269      -51.7
   12/09/2018 22:10      49.8      49.1       78     42.8      0.00      4.15      58.0     0.48      1022.5     0.2     SSE   149   1.1     SSE   167   9.58    269      -52.7
   12/09/2018 22:00      50.1      49.4       78     43.0      0.00      4.15      58.0     0.48      1022.6     0.2       S   169   0.9       S   186   9.58    268      -53.8
   12/09/2018 21:50      50.1      49.7       78     43.1      0.00      4.15      58.0     0.48      1022.5     0.2     WNW   290   1.3     WNW   285   9.58    268      -53.3
   12/09/2018 21:40      50.2      49.8       77     43.2      0.00      4.15      58.0     0.48      1022.6     0.5     SSW   212   2.4     WSW   254   9.58    268      -51.9
   12/09/2018 21:30      50.3      49.9       77     43.2      0.00      4.15      58.0     0.48      1022.5     0.5     SSE   152   1.8      SE   132   9.58    268      -51.4
   12/09/2018 21:20      50.6      50.0       77     43.3      0.00      4.15      58.0     0.48      1022.4     0.3     SSE   148   1.0       S   175   9.58    268      -50.8
   12/09/2018 21:10      51.0      50.3       75     43.1      0.00      4.15      58.0     0.48      1022.6     0.4      SE   125   1.2      SE   138   9.58    268      -48.2
   12/09/2018 21:00      51.0      50.6       75     43.3      0.00      4.15      58.0     0.48      1022.7     0.5       S   187   1.4     SSW   205   9.58    268      -47.2
   12/09/2018 20:50      51.3      50.7       75     43.4      0.00      4.15      58.0     0.48      1022.5     0.1      SE   145   1.1     SSW   194   9.58    268      -47.7
   12/09/2018 20:40      51.3      50.8       75     43.5      0.00      4.15      58.0     0.48      1022.6     0.0      SE   127   1.6      SE   129   9.58    268      -45.4
   12/09/2018 20:30      51.8      51.0       73     43.3      0.00      4.15      58.0     0.48      1022.6     1.0     SSE   162   2.2      SE   135   9.58    268      -45.4
   12/09/2018 20:20      52.0      51.4       73     43.3      0.00      4.15      58.0     0.48      1022.6     0.5     SSW   206   1.6     SSW   213   9.58    268      -48.8
   12/09/2018 20:10      52.5      51.8       72     43.2      0.00      4.15      58.0     0.48      1022.6     0.8       S   173   1.5     SSW   201   9.59    268      -51.9
   12/09/2018 20:00      52.6      52.1       71     43.3      0.00      4.15      58.0     0.48      1022.6     0.6      SE   137   1.9      SE   139   9.59    268      -53.6
   12/09/2018 19:50      52.5      51.3       72     43.3      0.00      4.15      58.0     0.48      1022.6     1.9      SE   137   3.8     SSE   147   9.59    268      -53.9
   12/09/2018 19:40      52.2      51.5       72     43.2      0.00      4.15      58.0     0.48      1022.8     0.9     SSE   149   2.6      SE   144   9.59    268      -57.6
   12/09/2018 19:30      52.5      51.9       72     43.2      0.00      4.15      57.9     0.48      1022.8     0.4     SSE   153   1.4       S   170   9.59    268      -59.8
   12/09/2018 19:20      52.9      52.2       71     43.3      0.00      4.15      57.9     0.48      1022.9     0.6     SSE   155   1.7       S   176   9.59    268      -58.2
   12/09/2018 19:10      53.2      52.5       70     43.2      0.00      4.15      57.9     0.48      1022.9     0.9       S   182   1.8     SSE   150   9.59    268      -63.4
   12/09/2018 19:00      53.6      52.9       69     43.2      0.00      4.15      57.9     0.48      1022.9     0.8       S   170   1.9      SE   145   9.59    268      -66.9
   12/09/2018 18:50      53.9      53.5       68     43.4      0.00      4.15      57.9     0.48      1023.0     0.6       S   183   1.6      SE   134   9.59    267      -64.5
   12/09/2018 18:40      54.2      53.5       69     43.6      0.00      4.15      57.8     0.48      1022.9     0.3       S   180   1.1      SW   219   9.59    267      -55.5
   12/09/2018 18:30      54.7      53.9       68     43.7      0.00      4.15      57.8     0.48      1022.8     0.1     SSW   198   0.9     SSW   198   9.59    267      -53.9
   12/09/2018 18:20      54.9      54.5       66     43.5      0.00      4.15      57.8     0.48      1022.8     1.3     SSE   151   2.3      SE   141   9.59    267      -61.4
   12/09/2018 18:10      55.9      54.7       65     43.7      0.00      4.15      57.8     0.48      1022.7     0.6       S   178   1.6       S   191   9.59    267      -64.9
   12/09/2018 18:00      56.9      55.6       62     43.5      0.00      4.15      57.7     0.48      1022.7     1.5      SE   135   2.5     SSE   156   9.59    267      -62.6
   12/09/2018 17:50      57.2      56.5       60     43.1      0.00      4.15      57.7     0.48      1022.7     1.1     SSE   167   2.8       S   185   9.59    266      -64.9
   12/09/2018 17:40      57.6      56.8       60     43.4      0.00      4.15      57.7     0.48      1022.6     1.2       S   190   2.7      SE   141   9.59    267      -67.7
   12/09/2018 17:30      58.3      57.4       57     42.9      0.00      4.15      57.6     0.48      1022.6     1.2     SSE   166   3.0      SE   133   9.60    266      -68.8
   12/09/2018 17:20      58.6      58.0       57     43.0      0.00      4.15      57.6     0.48      1022.5     0.5       S   171   1.4       S   183   9.60    266      -70.9
   12/09/2018 17:10      59.1      58.0       58     43.6      0.00      4.15      57.5     0.48      1022.3     1.5      SE   125   2.9      SE   139   9.60    266      -73.3
   12/09/2018 17:00      61.1      58.8       55     43.5      0.00      4.15      57.5     0.48      1022.3     1.1       S   172   3.0      SE   143   9.60    266      -75.8
   12/09/2018 16:50      62.9      61.0       49     42.5      0.00      4.15      57.5     0.48      1022.2     0.6     SSE   150   1.6     SSE   162   9.60    266      -76.8
   12/09/2018 16:40      64.1      62.6       46     42.1      0.00      4.15      57.5     0.48      1022.3     0.1      SE   128   0.9     ENE    67   9.60    266      -71.0
   12/09/2018 16:30      64.8      63.9       44     41.7      0.00      4.15      57.4     0.48      1022.2     0.6     NNE    15   3.0     NNE    24   9.60    265      -62.9
   12/09/2018 16:20      65.4      64.4       42     41.2      0.00      4.15      57.4     0.48      1022.2     2.4     NNE    19   6.4       N     0   9.60    265      -48.1
   12/09/2018 16:10      65.7      64.9       41     41.1      0.00      4.15      57.3     0.48      1022.2     1.7     NNE    34   3.8     NNW   339   9.60    265      -28.4
   12/09/2018 16:00      66.2      65.3       42     41.7      0.00      4.15      57.3     0.48      1022.2     0.5     ENE    66   1.9      NE    34   9.60    265      -16.3
   12/09/2018 15:50      66.5      65.8       40     41.0      0.00      4.15      57.3     0.48      1022.4     0.5     ENE    60   1.8     ENE    58   9.60    265       -8.9
   12/09/2018 15:40      66.5      65.9       37     39.4      0.00      4.15      57.2     0.48      1022.3     1.5       N   356   3.6     NNE    22   9.60    264        6.6
   12/09/2018 15:30      66.7      66.0       37     39.2      0.00      4.15      57.2     0.48      1022.2     3.3     NNE    15   6.2     NNW   348   9.60    264        4.8
   12/09/2018 15:20      66.8      66.3       37     39.6      0.00      4.15      57.1     0.48      1022.5     2.6     NNE    12   5.4      NE    39   9.60    264        5.9
   12/09/2018 15:10      67.0      66.5       37     39.5      0.00      4.15      57.1     0.48      1022.6     3.4     NNE    14   5.5       N     0   9.61    264       27.1
   12/09/2018 15:00      67.2      66.6       37     39.6      0.00      4.15      57.0     0.47      1022.7     3.4     NNE    19   7.2     NNW   343   9.61    264       36.9
   12/09/2018 14:50      67.6      67.0       36     39.2      0.00      4.15      57.0     0.47      1022.7     4.2       N    11   7.3     NNW   347   9.61    264       32.7
   12/09/2018 14:40      68.3      67.4       35     39.2      0.00      4.15      57.0     0.47      1022.7     3.7     NNE    18   7.5     NNW   341   9.61    264       37.1
   12/09/2018 14:30      69.0      67.9       35     39.4      0.00      4.15      56.9     0.47      1022.6     3.8     NNE    20   9.2     NNE    23   9.61    263       72.9
   12/09/2018 14:20      69.7      68.7       34     39.5      0.00      4.15      56.9     0.47      1022.7     3.2      NE    38   5.7     ENE    67   9.61    263      123.9
   12/09/2018 14:10      71.0      69.3       32     38.6      0.00      4.15      56.8     0.47      1022.9     3.4     NNE    16   7.2     NNW   346   9.61    263      158.8
   12/09/2018 14:00      70.8      69.6       31     38.5      0.00      4.15      56.8     0.47      1022.9     1.3     NNE    16   3.3     NNE    21   9.61    263      157.4
   12/09/2018 13:50      70.3      69.3       30     36.6      0.00      4.15      56.8     0.47      1022.9     2.6       N   356   4.5      NW   311   9.61    263      126.8
   12/09/2018 13:40      70.7      70.1       30     37.5      0.00      4.15      56.7     0.47      1023.0     2.6       N     1   5.0     NNW   332   9.61    263      125.5
   12/09/2018 13:30      70.8      70.2       31     38.3      0.00      4.15      56.7     0.47      1023.0     1.8     NNE    32   4.2     ENE    60   9.61    263      224.5
   12/09/2018 13:20      70.5      69.1       33     39.3      0.00      4.15      56.7     0.47      1023.2     1.6     NNE    26   3.0     WNW   302   9.61    263      258.6
   12/09/2018 13:10      69.3      68.4       34     39.1      0.00      4.15      56.6     0.47      1023.3     2.0       N    11   4.8       N     7   9.61    264      215.2
   12/09/2018 13:00      68.5      67.9       34     38.9      0.00      4.15      56.6     0.47      1023.5     2.3     NNE    17   6.4     NNE    22   9.61    264      170.1
   12/09/2018 12:50      68.3      67.8       34     39.0      0.00      4.15      56.6     0.47      1023.6     3.0     NNE    19   5.5     NNE    28   9.61    264      173.3
   12/09/2018 12:40      68.5      67.7       34     38.6      0.00      4.15      56.5     0.47      1023.6     3.2     NNE    14   6.1       N     2   9.61    264      168.7
   12/09/2018 12:30      68.6      68.1       34     39.1      0.00      4.15      56.5     0.47      1023.7     3.1     NNE    22   5.7     NNE    20   9.61    264      166.3
   12/09/2018 12:20      68.7      68.2       34     39.0      0.00      4.15      56.5     0.47      1023.8     3.4       N     9   6.6     NNE    26   9.61    264      213.2
   12/09/2018 12:10      68.5      67.9       35     39.2      0.00      4.15      56.5     0.47      1023.9     4.0       N     9   8.1     NNW   330   9.62    264      254.4
   12/09/2018 12:00      68.1      67.5       36     39.6      0.00      4.15      56.5     0.47      1024.1     3.9     NNE    13   9.0       N     8   9.62    264      221.7
   12/09/2018 11:50      68.3      67.5       35     39.5      0.00      4.15      56.5     0.47      1024.3     4.1     NNE    18   6.8       N     7   9.62    264      209.6
   12/09/2018 11:40      68.2      67.8       36     40.1      0.00      4.15      56.5     0.47      1024.3     3.0     NNE    26   5.5      NE    40   9.62    264      192.8
   12/09/2018 11:30      68.2      67.7       35     39.5      0.00      4.15      56.4     0.47      1024.7     3.8     NNE    19   6.5       N   355   9.62    264      252.6
   12/09/2018 11:20      68.4      67.5       35     39.5      0.00      4.15      56.4     0.47      1025.0     3.3       N    11   7.4       N   351   9.62    265      220.1
   12/09/2018 11:10      68.3      67.8       36     40.1      0.00      4.15      56.4     0.47      1025.3     3.2       N   360   7.6      NW   311   9.62    265      316.5
   12/09/2018 11:00      68.4      67.8       36     40.4      0.00      4.15      56.4     0.47      1025.6     2.7       N   358   5.4      NW   324   9.62    265      341.5
   12/09/2018 10:50      68.1      67.6       37     40.9      0.00      4.15      56.5     0.47      1025.7     2.2       N   350   5.0      NW   311   9.62    265      302.8
   12/09/2018 10:40      67.9      67.2       40     42.3      0.00      4.15      56.5     0.47      1025.7     0.8       N     2   3.0     NNE    17   9.62    265      279.7
   12/09/2018 10:30      67.5      65.5       42     42.6      0.00      4.15      56.5     0.47      1025.9     0.5       W   266   1.5     WSW   255   9.62    266      244.9
   12/09/2018 10:20      66.7      65.3       42     42.4      0.00      4.15      56.5     0.47      1026.1     1.7     WSW   240   3.4     WSW   243   9.62    266      225.3
   12/09/2018 10:10      66.8      66.1       42     42.8      0.00      4.15      56.5     0.47      1026.2     0.6       W   265   1.5      NW   308   9.62    266      179.7
   12/09/2018 10:00      66.8      65.7       43     43.3      0.00      4.15      56.5     0.47      1026.2     0.4      SE   130   2.4     ESE   119   9.62    266      221.5
   12/09/2018 09:50      66.3      65.8       43     42.7      0.00      4.15      56.6     0.47      1026.3     0.5     ENE    64   2.2      SE   130   9.62    266      246.9
   12/09/2018 09:40      66.0      65.0       43     42.5      0.00      4.15      56.6     0.47      1026.4     0.8     SSW   192   2.5     SSW   211   9.62    266      249.9
   12/09/2018 09:30      65.8      64.8       47     44.3      0.00      4.15      56.6     0.47      1026.4     0.5     NNW   348   1.1      NW   318   9.62    266      237.9
   12/09/2018 09:20      65.5      63.3       51     46.2      0.00      4.15      56.6     0.47      1026.4     0.0     NNW   336   0.5     NNW   337   9.62    266      216.2
   12/09/2018 09:10      63.5      62.4       55     46.4      0.00      4.15      56.6     0.47      1026.4     0.2     NNE    26   1.1       N   350   9.62    267      190.7
   12/09/2018 09:00      62.4      60.2       59     46.9      0.00      4.15      56.7     0.47      1026.3     0.0      NE    41   0.5      NE    37   9.62    267      181.0
   12/09/2018 08:50      60.5      58.9       59     45.7      0.00      4.15      56.6     0.47      1026.2     0.0     NNE    27   0.7     NNE    27   9.62    268      181.3
   12/09/2018 08:40      59.0      57.5       61     45.1      0.00      4.15      56.7     0.47      1026.2     0.0       N     0   0.0     ESE   102   9.62    274      169.2
   12/09/2018 08:30      57.7      55.1       69     46.1      0.00      4.15      56.7     0.47      1026.3     0.0       N     0   0.0     NNW   346   9.62    302      161.6
   12/09/2018 08:20      55.3      51.0       79     46.7      0.00      4.15      56.7     0.47      1026.2     0.0       N     0   0.0       N     0   9.62    344      142.4
   12/09/2018 08:10      51.1      48.3       85     45.4      0.00      4.15      56.8     0.47      1026.0     0.0       N     0   0.0       E    85   9.62    386      108.7
   12/09/2018 08:00      48.5      45.8       90     44.1      0.00      4.15      56.8     0.47      1025.9     0.0     SSE   166   0.7       S   179   9.62    406       73.6
   12/09/2018 07:50      46.1      44.9       91     42.8      0.00      4.15      56.8     0.47      1025.9     0.2      SE   145   1.2     SSE   149   9.62    414       30.5
   12/09/2018 07:40      45.1      44.2       91     42.1      0.00      4.15      56.8     0.47      1025.8     0.0       S   175   0.5       S   175   9.62    414       26.0
   12/09/2018 07:30      44.4      43.5       92     41.6      0.00      4.15      56.8     0.48      1025.6     0.0     SSE   155   0.4     SSE   155   9.62    413       15.2
   12/09/2018 07:20      43.7      43.1       92     41.1      0.00      4.15      56.8     0.48      1025.6     0.1     SSE   156   0.9     SSE   155   9.62    412        6.3
   12/09/2018 07:10      43.5      43.0       92     40.9      0.00      4.15      56.9     0.48      1025.6     0.0     SSE   148   0.4     SSE   148   9.62    410       -3.6
   12/09/2018 07:00      43.4      42.9       91     40.7      0.00      4.15      56.8     0.48      1025.7     0.4     SSE   166   1.3       S   182   9.62    407      -10.7
   12/09/2018 06:50      43.7      43.2       91     41.0      0.00      4.15      56.9     0.48      1025.7     0.5     SSE   158   1.4     SSE   150   9.62    403      -14.8
   12/09/2018 06:40      43.5      43.0       91     40.8      0.00      4.15      56.9     0.48      1025.6     0.0     SSW   194   0.9     SSW   207   9.62    397      -16.9
   12/09/2018 06:30      43.9      43.3       91     41.2      0.00      4.15      56.9     0.48      1025.6     0.1      SE   145   1.0      SE   144   9.62    394      -17.2
   12/09/2018 06:20      43.9      43.6       91     41.4      0.00      4.15      56.9     0.48      1025.4     0.2     SSE   148   0.8     SSE   148   9.62    390      -17.3
   12/09/2018 06:10      44.0      43.7       91     41.5      0.00      4.15      56.9     0.48      1025.4     0.2     SSE   151   0.9      SE   144   9.62    386      -17.6
   12/09/2018 06:00      44.2      43.7       92     41.6      0.00      4.15      57.0     0.48      1025.3     0.2       S   177   1.4     SSW   192   9.62    379      -18.0
   12/09/2018 05:50      44.1      43.6       91     41.4      0.00      4.15      57.0     0.48      1025.2     0.3       S   172   1.2     SSW   192   9.62    370      -18.3
   12/09/2018 05:40      44.6      43.7       91     41.5      0.00      4.15      57.0     0.48      1025.2     0.2       E    87   1.0      SE   136   9.62    363      -18.4
   12/09/2018 05:30      44.6      44.2       91     42.1      0.00      4.15      57.0     0.48      1025.2     0.1     SSE   155   0.7     SSE   166   9.62    356      -18.1
   12/09/2018 05:20      44.8      44.2       91     42.0      0.00      4.15      57.0     0.48      1025.1     0.0     SSE   159   0.7     SSE   159   9.62    350      -18.6
   12/09/2018 05:10      44.9      44.5       91     42.1      0.00      4.15      57.0     0.48      1024.9     0.2     SSE   165   0.7       S   171   9.62    346      -18.3
   12/09/2018 05:00      44.8      44.4       91     42.0      0.00      4.15      57.0     0.48      1024.8     0.0       N     0   0.0     SSE   166   9.62    342      -18.1
   12/09/2018 04:50      45.1      44.5       91     42.2      0.00      4.15      57.1     0.48      1024.8     0.0       N     0   0.0     SSE   166   9.62    339      -17.8
   12/09/2018 04:40      45.3      44.8       91     42.4      0.00      4.15      57.1     0.48      1024.9     0.2     SSE   167   0.9       S   169   9.62    336      -17.1
   12/09/2018 04:30      45.4      44.9       91     42.5      0.00      4.15      57.1     0.48      1024.8     0.3     SSE   149   0.8     SSE   149   9.62    334      -15.6
   12/09/2018 04:20      45.5      45.1       91     42.7      0.00      4.15      57.1     0.48      1024.9     0.0       N     0   0.0       S   184   9.62    333      -12.5
   12/09/2018 04:10      45.4      44.9       91     42.6      0.00      4.15      57.1     0.48      1024.9     0.2       S   182   1.3       S   185   9.62    332      -11.4
   12/09/2018 04:00      45.1      44.5       91     42.4      0.00      4.15      57.2     0.48      1024.9     0.3     SSE   162   1.1     SSE   160   9.62    331      -12.2
   12/09/2018 03:50      45.0      44.5       91     42.1      0.00      4.15      57.2     0.48      1025.0     0.2      SE   131   0.8      SE   124   9.62    330      -12.6
   12/09/2018 03:40      45.0      44.5       91     42.4      0.00      4.15      57.2     0.48      1024.9     0.0      NW   325   0.6     NNE    18   9.62    329      -11.5
   12/09/2018 03:30      44.8      44.2       91     42.0      0.00      4.15      57.2     0.48      1024.9     0.5      SW   222   1.4      SW   234   9.62    329      -11.5
   12/09/2018 03:20      44.5      44.2       91     42.0      0.00      4.15      57.2     0.48      1025.1     0.0     ESE   109   0.7       E    92   9.62    328      -11.9
   12/09/2018 03:10      44.4      44.0       91     41.8      0.00      4.15      57.2     0.48      1025.2     0.1     SSE   165   0.9     SSE   160   9.62    326      -12.8
   12/09/2018 03:00      44.4      43.9       91     41.7      0.00      4.15      57.3     0.48      1025.2     0.0     SSE   158   0.8     SSE   157   9.62    325      -15.1
   12/09/2018 02:50      44.3      44.0       91     41.7      0.00      4.15      57.3     0.48      1025.2     0.3     SSE   161   1.0     SSE   165   9.62    322      -16.6
   12/09/2018 02:40      44.3      43.7       91     41.5      0.00      4.15      57.3     0.48      1025.2     0.0     SSW   204   0.7     SSW   205   9.62    320      -18.0
   12/09/2018 02:30      44.3      43.8       91     41.4      0.00      4.15      57.3     0.48      1025.3     0.0       S   181   0.7       S   173   9.62    318      -20.1
   12/09/2018 02:20      44.7      44.0       90     41.6      0.00      4.15      57.3     0.48      1025.4     0.5     SSE   153   1.3     SSE   160   9.62    316      -21.1
   12/09/2018 02:10      44.6      44.2       90     41.8      0.00      4.15      57.3     0.48      1025.2     0.0      SE   144   0.8      SE   141   9.62    313      -21.4
   12/09/2018 02:00      44.5      44.0       90     41.5      0.00      4.15      57.4     0.48      1025.2     0.0      SW   223   0.2      SW   223   9.62    310      -20.6
   12/09/2018 01:50      44.8      44.0       90     41.5      0.00      4.15      57.3     0.48      1025.2     0.0     SSW   192   0.6      SE   134   9.62    308      -21.1
   12/09/2018 01:40      45.2      44.4       90     42.0      0.00      4.15      57.4     0.48      1025.3     0.2      SE   132   1.0      SE   142   9.62    306      -22.8
   12/09/2018 01:30      45.2      44.6       90     42.2      0.00      4.15      57.4     0.48      1025.3     0.6     SSE   162   1.3     SSE   166   9.62    304      -23.8
   12/09/2018 01:20      45.0      44.5       90     41.8      0.00      4.15      57.4     0.48      1025.3     0.0       N     0   0.0     SSE   157   9.63    302      -24.2
   12/09/2018 01:10      45.0      44.5       90     41.8      0.00      4.15      57.4     0.48      1025.3     0.0     SSE   157   0.5     SSE   157   9.63    300      -25.3
   12/09/2018 01:00      45.1      44.5       89     41.8      0.00      4.15      57.4     0.48      1025.5     0.3     SSE   155   0.9     SSE   153   9.63    298      -27.0
   12/09/2018 00:50      45.4      45.0       89     42.2      0.00      4.15      57.4     0.48      1025.4     0.3     SSE   157   0.9     SSE   154   9.63    295      -28.1
   12/09/2018 00:40      45.3      45.0       89     42.1      0.00      4.15      57.4     0.48      1025.4     0.0       S   170   0.4       S   170   9.63    293      -29.5
   12/09/2018 00:30      45.4      45.0       89     42.0      0.00      4.15      57.4     0.48      1025.4     0.0       S   171   0.7       S   172   9.63    291      -31.3
   12/09/2018 00:20      45.8      45.1       89     42.2      0.00      4.15      57.5     0.48      1025.5     0.3     SSE   154   0.7     SSE   155   9.63    289      -33.0
   12/09/2018 00:10      46.1      45.4       88     42.4      0.00      4.15      57.5     0.48      1025.5     0.5     SSE   159   1.1       S   178   9.63    288      -34.8
   12/09/2018 00:00      46.1      45.4       88     42.3      0.00      4.15      57.5     0.48      1025.6     0.5       S   170   0.9       S   183   9.63    286      -37.2
   12/08/2018 23:50      46.2      45.7       88     42.4      0.00      4.15      57.5     0.48      1025.7     0.0     SSE   158   0.6     SSE   156   9.63    283      -39.8
   12/08/2018 23:40      46.6      45.8       87     42.4      0.00      4.15      57.4     0.48      1025.7     0.4     SSE   159   1.2     SSE   157   9.63    282      -41.9
   12/08/2018 23:30      46.5      46.2       87     42.6      0.00      4.15      57.5     0.48      1025.8     0.4     SSE   160   1.1      SE   141   9.63    280      -44.5
   12/08/2018 23:20      46.8      46.2       86     42.5      0.00      4.15      57.5     0.48      1025.8     0.4     SSW   193   2.1       S   185   9.63    279      -47.4
   12/08/2018 23:10      47.3      46.5       86     42.7      0.00      4.15      57.5     0.48      1025.8     0.2      SE   141   0.9      NE    48   9.63    277      -50.1
   12/08/2018 23:00      47.8      46.9       85     43.0      0.00      4.15      57.5     0.48      1025.9     0.6     SSE   154   1.2      SE   139   9.63    275      -52.1
   12/08/2018 22:50      47.6      47.1       85     43.0      0.00      4.15      57.5     0.48      1026.0     0.6     SSE   153   1.3      SE   144   9.63    273      -54.8
   12/08/2018 22:40      47.8      47.1       84     42.8      0.00      4.15      57.5     0.48      1026.0     0.9       S   181   1.5      SW   218   9.63    273      -57.2
   12/08/2018 22:30      47.9      47.6       84     43.2      0.00      4.15      57.5     0.48      1026.0     0.7     SSE   167   1.4     SSE   156   9.63    272      -59.6
   12/08/2018 22:20      48.0      47.5       83     43.0      0.00      4.15      57.5     0.48      1025.9     0.2       S   179   1.1     SSW   195   9.63    272      -62.7
   12/08/2018 22:10      48.3      47.8       83     43.1      0.00      4.15      57.5     0.48      1025.8     0.4       S   186   1.6      SW   220   9.63    270      -63.6
   12/08/2018 22:00      48.9      48.1       82     43.2      0.00      4.15      57.5     0.48      1025.7     0.8     SSE   154   1.5      SE   141   9.63    270      -64.6
   12/08/2018 21:50      49.3      48.7       80     43.1      0.00      4.15      57.5     0.48      1025.8     1.0     SSE   147   1.5      SE   142   9.63    269      -65.0
   12/08/2018 21:40      49.3      48.7       80     43.2      0.00      4.15      57.4     0.48      1025.7     1.4     SSW   200   2.5     SSW   204   9.63    269      -64.3
   12/08/2018 21:30      49.8      48.9       79     43.2      0.00      4.15      57.5     0.48      1025.7     0.0      SE   138   0.9      SE   138   9.63    269      -65.3
   12/08/2018 21:20      49.7      49.3       79     43.3      0.00      4.15      57.5     0.48      1025.7     0.4       S   170   1.0       S   182   9.63    268      -65.3
   12/08/2018 21:10      50.1      49.4       78     43.3      0.00      4.15      57.5     0.48      1025.6     0.6     SSE   153   1.4     SSE   147   9.63    268      -65.3
   12/08/2018 21:00      50.8      49.7       77     43.2      0.00      4.15      57.5     0.48      1025.7     0.5     SSE   162   1.4     SSE   157   9.63    268      -65.7
   12/08/2018 20:50      51.3      50.4       75     43.2      0.00      4.15      57.5     0.48      1025.5     0.3     SSE   148   1.4     SSE   166   9.64    268      -65.6
   12/08/2018 20:40      51.4      50.7       75     43.4      0.00      4.15      57.4     0.48      1025.5     0.1     SSW   192   0.7     SSE   165   9.64    268      -65.8
   12/08/2018 20:30      52.4      51.1       73     43.4      0.00      4.15      57.4     0.48      1025.3     0.2     SSE   158   0.9      SE   141   9.64    268      -66.8
   12/08/2018 20:20      53.5      52.1       71     43.4      0.00      4.15      57.4     0.48      1025.2     0.4     SSE   148   1.2     SSE   162   9.64    268      -67.5
   12/08/2018 20:10      55.2      53.2       67     43.4      0.00      4.15      57.4     0.48      1025.2     0.2      SE   142   1.1     SSE   156   9.64    267      -68.7
   12/08/2018 20:00      57.3      55.2       61     43.1      0.00      4.15      57.4     0.48      1025.1     0.5     ESE   110   2.0      SE   146   9.64    267      -71.1
   12/08/2018 19:50      57.5      56.9       59     42.9      0.00      4.15      57.4     0.48      1025.1     2.7     SSW   203   5.1     SSW   211   9.64    267      -71.9
   12/08/2018 19:40      57.4      57.0       59     43.0      0.00      4.15      57.4     0.48      1025.1     3.2     SSW   209   6.0     SSW   208   9.64    267      -71.7
   12/08/2018 19:30      57.2      56.3       61     43.5      0.00      4.15      57.4     0.48      1024.9     3.4     SSW   203   6.0     SSW   209   9.64    267      -70.6
   12/08/2018 19:20      56.5      55.3       64     44.0      0.00      4.15      57.3     0.48      1024.8     2.0     SSW   194   4.0       S   187   9.64    267      -68.8
   12/08/2018 19:10      56.2      55.4       65     44.2      0.00      4.15      57.3     0.48      1024.6     1.2       S   174   2.3       S   172   9.64    268      -68.8
   12/08/2018 19:00      56.2      54.4       67     44.4      0.00      4.15      57.2     0.48      1024.6     1.9       S   184   3.4     WSW   242   9.64    268      -68.4
   12/08/2018 18:50      54.8      53.6       70     44.7      0.00      4.15      57.3     0.48      1024.6     1.2     SSE   151   1.9     SSE   165   9.64    268      -68.5
   12/08/2018 18:40      54.3      53.6       71     44.8      0.00      4.15      57.2     0.48      1024.5     0.7     SSE   161   1.4       S   173   9.64    268      -68.9
   12/08/2018 18:30      54.7      54.1       71     44.9      0.00      4.15      57.2     0.48      1024.4     0.4      SE   134   1.4      SE   136   9.64    267      -69.8
   12/08/2018 18:20      55.2      54.4       70     44.9      0.00      4.15      57.2     0.48      1024.2     1.0      SE   144   1.6      SE   143   9.64    267      -70.3
   12/08/2018 18:10      56.4      55.0       67     44.8      0.00      4.15      57.2     0.48      1024.1     0.8     SSE   159   2.3      SE   144   9.65    267      -70.0
   12/08/2018 18:00      57.4      56.0       64     44.5      0.00      4.15      57.1     0.48      1024.0     0.7      SE   142   2.0      SE   139   9.65    267      -70.7
   12/08/2018 17:50      57.5      56.9       62     44.2      0.00      4.15      57.1     0.48      1023.9     1.2       S   173   2.3       S   179   9.65    266      -71.0
   12/08/2018 17:40      58.1      56.9       61     44.2      0.00      4.15      57.0     0.48      1023.9     0.9      SE   143   2.0     SSE   148   9.65    266      -72.3
   12/08/2018 17:30      59.7      57.8       59     44.4      0.00      4.15      57.0     0.48      1023.9     0.9     SSE   150   2.2      SE   140   9.65    266      -73.0
   12/08/2018 17:20      59.9      58.4       57     43.8      0.00      4.15      57.0     0.48      1023.7     1.7     SSW   201   3.2      SW   216   9.65    266      -73.0
   12/08/2018 17:10      60.6      58.9       56     44.0      0.00      4.15      56.9     0.48      1023.6     1.1       S   173   1.9     SSE   154   9.65    266      -75.9
   12/08/2018 17:00      62.5      60.3       53     44.0      0.00      4.15      56.9     0.48      1023.5     0.4     SSE   168   1.2       S   174   9.65    266      -76.6
   12/08/2018 16:50      65.0      62.3       47     43.0      0.00      4.15      56.9     0.48      1023.5     0.7     SSE   148   1.8     SSE   149   9.65    266      -75.6
   12/08/2018 16:40      66.8      64.9       42     41.9      0.00      4.15      56.8     0.48      1023.5     0.7     NNE    26   1.6      NW   325   9.66    265      -75.5
   12/08/2018 16:30      67.7      66.4       39     41.5      0.00      4.15      56.8     0.48      1023.3     1.0       N   355   3.4     NNE    20   9.66    264      -75.0
   12/08/2018 16:20      68.8      67.3       38     41.2      0.00      4.15      56.7     0.48      1023.2     1.8       N   351   4.1     NNE    15   9.66    264      -69.9
   12/08/2018 16:10      69.6      68.6       37     41.4      0.00      4.15      56.7     0.48      1023.2     1.5     NNW   347   3.9     NNE    15   9.66    263      -52.3
   12/08/2018 16:00      70.1      69.1       36     41.1      0.00      4.15      56.6     0.48      1023.1     1.6       N     9   3.9     NNE    26   9.66    263      -30.8
   12/08/2018 15:50      69.9      69.5       35     40.9      0.00      4.15      56.6     0.48      1023.0     1.2     NNE    24   2.8     NNE    33   9.66    263      -12.9
   12/08/2018 15:40      70.2      69.5       34     40.3      0.00      4.15      56.6     0.48      1023.0     2.3     NNE    22   3.8       N    11   9.66    263        7.9
   12/08/2018 15:30      70.9      69.8       34     40.5      0.00      4.15      56.5     0.48      1023.0     2.8     NNE    19   5.1       N   349   9.66    263       31.7
   12/08/2018 15:20      71.0      70.7       33     40.1      0.00      4.15      56.5     0.48      1023.1     1.9       N     8   4.0       N     2   9.66    263       47.8
   12/08/2018 15:10      71.6      70.6       32     39.9      0.00      4.15      56.4     0.48      1023.1     2.0     NNE    22   4.2      NE    45   9.66    263       74.0
   12/08/2018 15:00      72.0      71.3       32     40.0      0.00      4.15      56.4     0.48      1023.1     1.9       N     9   3.9     NNE    13   9.66    263       95.8
   12/08/2018 14:50      71.8      70.8       31     39.1      0.00      4.15      56.4     0.48      1023.1     1.4      NE    50   4.2     NNW   331   9.66    262      118.4
   12/08/2018 14:40      72.0      71.0       31     39.5      0.00      4.15      56.3     0.48      1023.2     2.9       N   353   5.8     NNE    24   9.66    262      139.8
   12/08/2018 14:30      72.0      70.7       32     39.8      0.00      4.15      56.2     0.48      1023.2     2.0       N     4   5.5       N     0   9.66    262      161.5
   12/08/2018 14:20      71.8      71.2       33     40.9      0.00      4.15      56.2     0.48      1023.2     2.4     ENE    58   4.0     ESE   105   9.66    262      185.5
   12/08/2018 14:10      71.9      71.2       33     40.7      0.00      4.15      56.1     0.48      1023.2     1.5      NE    42   5.4     NNE    15   9.66    263      204.4
   12/08/2018 14:00      71.7      71.1       33     41.0      0.00      4.15      56.1     0.48      1023.2     1.9     ENE    61   5.8      NE    48   9.66    263      214.1
   12/08/2018 13:50      71.4      70.5       33     40.4      0.00      4.15      56.1     0.48      1023.3     1.8     NNE    26   4.6     NNE    27   9.66    263      226.9
   12/08/2018 13:40      72.0      71.1       33     40.8      0.00      4.15      56.0     0.48      1023.3     2.1     NNE    23   6.3       N    11   9.66    263      244.2
   12/08/2018 13:30      72.1      71.1       34     41.5      0.00      4.15      56.0     0.48      1023.4     1.4     NNE    13   4.1     NNE    19   9.66    263      259.8
   12/08/2018 13:20      72.3      71.3       34     42.0      0.00      4.15      56.0     0.48      1023.5     1.0     NNE    27   3.4       N     7   9.67    263      270.7
   12/08/2018 13:10      72.4      70.4       34     41.5      0.00      4.15      56.0     0.48      1023.6     0.6      NW   314   2.2       E    90   9.67    263      282.4
   12/08/2018 13:00      70.7      69.1       36     41.7      0.00      4.15      55.9     0.48      1023.7     1.1     SSE   167   2.6     ESE   108   9.67    263      294.2
   12/08/2018 12:50      69.4      68.2       38     42.1      0.00      4.15      55.9     0.48      1023.8     2.8     SSE   155   7.3      SE   136   9.67    264      306.0
   12/08/2018 12:40      68.9      68.1       38     41.8      0.00      4.15      55.9     0.48      1023.9     3.2     SSE   167   5.4     SSW   193   9.67    264      306.7
   12/08/2018 12:30      68.3      67.7       39     42.0      0.00      4.15      55.8     0.48      1024.0     3.0       S   172   5.4      SE   135   9.67    264      308.3
   12/08/2018 12:20      69.1      67.8       39     42.3      0.00      4.15      55.8     0.48      1024.2     3.1      SW   226   5.1     SSW   210   9.67    264      318.3
   12/08/2018 12:10      69.8      68.8       37     42.2      0.00      4.15      55.8     0.48      1024.3     1.6      SW   219   3.7      SW   232   9.67    264      321.7
   12/08/2018 12:00      69.9      68.8       38     42.6      0.00      4.15      55.8     0.48      1024.4     1.0      SE   127   3.2     ENE    61   9.67    264      327.9
   12/08/2018 11:50      69.3      67.8       38     41.7      0.00      4.15      55.8     0.48      1024.6     0.9       W   281   3.1       E    84   9.67    264      327.5
   12/08/2018 11:40      68.7      67.7       39     42.5      0.00      4.15      55.8     0.48      1024.8     1.5     ESE   120   3.3     ESE   110   9.67    264      331.7
   12/08/2018 11:30      68.8      67.8       39     42.4      0.00      4.15      55.8     0.48      1024.8     1.0      NW   309   2.6       N   354   9.67    264      328.9
   12/08/2018 11:20      68.3      66.9       40     42.2      0.00      4.15      55.8     0.48      1025.0     0.7      NW   318   2.1     NNW   343   9.67    265      318.0
   12/08/2018 11:10      67.4      66.4       41     42.4      0.00      4.15      55.8     0.48      1025.2     1.3     NNE    16   3.0     NNW   348   9.67    266      321.5
   12/08/2018 11:00      67.1      65.7       43     43.0      0.00      4.15      55.7     0.48      1025.2     1.1     ENE    68   3.1       E    81   9.67    266      317.5
   12/08/2018 10:50      66.6      65.4       43     42.7      0.00      4.15      55.8     0.48      1025.5     1.1     SSE   152   3.3     NNE    23   9.67    266      312.3
   12/08/2018 10:40      66.7      65.1       43     43.1      0.00      4.15      55.8     0.48      1025.6     0.6      SE   143   2.3     SSW   202   9.67    266      305.6
   12/08/2018 10:30      65.5      64.2       45     43.1      0.00      4.15      55.8     0.48      1025.7     0.9     NNE    18   2.1     NNE    20   9.67    266      298.5
   12/08/2018 10:20      64.8      64.1       45     42.9      0.00      4.15      55.8     0.48      1025.7     1.1       N   360   2.4     NNW   349   9.67    266      288.2
   12/08/2018 10:10      64.7      63.8       46     42.9      0.00      4.15      55.9     0.48      1025.7     1.0     ENE    68   2.6       N    11   9.67    266      279.1
   12/08/2018 10:00      64.5      63.5       47     43.2      0.00      4.15      55.9     0.48      1025.8     0.7     WSW   249   1.9     SSW   201   9.67    266      268.1
   12/08/2018 09:50      63.6      62.3       49     43.3      0.00      4.15      55.9     0.48      1025.9     0.7      NW   325   2.0     NNW   326   9.67    266      254.8
   12/08/2018 09:40      62.4      61.8       52     44.3      0.00      4.15      55.9     0.48      1025.8     0.6     NNW   337   1.6      NW   321   9.67    266      243.1
   12/08/2018 09:30      62.2      60.8       53     44.3      0.00      4.15      56.0     0.48      1025.7     0.3     NNW   338   1.9      NW   324   9.67    266      227.7
   12/08/2018 09:20      61.2      58.7       57     44.6      0.00      4.15      56.0     0.48      1025.5     0.1      NW   321   1.4      NW   318   9.67    266      211.4
   12/08/2018 09:10      58.8      57.1       59     44.2      0.00      4.15      56.0     0.48      1025.4     0.4     NNE    18   1.3       N     9   9.67    267      195.4
   12/08/2018 09:00      57.1      56.2       62     43.9      0.00      4.15      56.0     0.48      1025.4     0.5     NNE    33   1.2     NNE    25   9.67    267      211.0
   12/08/2018 08:50      57.1      56.3       61     43.6      0.00      4.15      56.0     0.48      1025.3     0.4     NNE    31   1.4     NNE    27   9.67    269      212.2
   12/08/2018 08:40      56.3      54.5       66     44.1      0.00      4.15      56.0     0.48      1025.3     0.0       N     0   0.0     NNE    25   9.67    288      191.2
   12/08/2018 08:30      54.6      50.8       79     46.0      0.00      4.15      56.1     0.48      1025.2     0.0       N     0   0.0     NNE    25   9.67    329      166.3
   12/08/2018 08:20      50.9      47.8       87     45.5      0.00      4.15      56.1     0.48      1025.0     0.0       N     0   0.0     NNE    33   9.67    374      135.7
   12/08/2018 08:10      48.0      45.4       91     44.0      0.00      4.15      56.1     0.48      1025.0     0.1      NE    56   1.3     ENE    63   9.67    398      103.6
   12/08/2018 08:00      45.3      42.9       93     42.0      0.00      4.15      56.1     0.48      1025.0     0.2     NNE    27   1.2     NNE    27   9.67    415       73.3
   12/08/2018 07:50      43.1      41.7       93     40.5      0.00      4.15      56.1     0.48      1025.0     0.7      SE   143   2.0      SE   146   9.67    420       14.4
   12/08/2018 07:40      42.0      41.4       93     39.8      0.00      4.15      56.1     0.48      1025.0     0.4     SSE   151   1.1     SSE   167   9.67    419        4.9
   12/08/2018 07:30      41.7      40.5       93     39.3      0.00      4.15      56.2     0.48      1024.9     0.2       S   189   0.9     SSW   206   9.67    417        1.2
   12/08/2018 07:20      40.9      40.4       93     38.7      0.00      4.15      56.2     0.48      1024.8     0.4     ESE   103   1.3       S   182   9.67    413       -2.8
   12/08/2018 07:10      41.0      40.2       93     38.5      0.00      4.15      56.2     0.48      1024.8     0.7       S   181   1.2      SW   214   9.67    410       -6.7
   12/08/2018 07:00      40.9      40.4       92     38.6      0.00      4.15      56.2     0.48      1024.8     0.1     SSE   163   0.7     SSE   158   9.67    406      -10.8
   12/08/2018 06:50      40.8      40.3       92     38.6      0.00      4.15      56.3     0.48      1024.8     0.4     SSE   163   1.3     SSW   207   9.67    402      -14.1
   12/08/2018 06:40      41.1      40.4       92     38.5      0.00      4.15      56.3     0.48      1024.7     0.3     SSE   149   1.2       S   178   9.67    397      -16.6
   12/08/2018 06:30      41.4      40.7       92     38.9      0.00      4.15      56.3     0.48      1024.7     0.4     SSW   213   1.5      SW   221   9.67    393      -17.5
   12/08/2018 06:20      41.2      40.7       92     38.9      0.00      4.15      56.3     0.48      1024.6     0.1      SE   138   0.9     ENE    67   9.67    389      -17.8
   12/08/2018 06:10      41.5      40.7       92     38.9      0.00      4.15      56.3     0.48      1024.4     1.0       S   183   2.6     ENE    70   9.67    384      -17.6
   12/08/2018 06:00      41.5      40.8       92     39.0      0.00      4.15      56.4     0.48      1024.3     0.9     SSE   153   2.2     SSW   194   9.67    378      -18.0
   12/08/2018 05:50      41.7      41.0       92     39.0      0.00      4.15      56.4     0.48      1024.2     0.5     SSE   154   1.4       N     6   9.67    369      -18.2
   12/08/2018 05:40      41.7      41.0       92     39.2      0.00      4.15      56.3     0.48      1024.2     1.0       S   177   2.5       S   186   9.67    359      -18.6
   12/08/2018 05:30      41.5      40.8       92     38.8      0.00      4.15      56.4     0.48      1024.2     0.1      NE    38   1.2      NE    37   9.67    351      -19.4
   12/08/2018 05:20      41.7      41.2       91     39.1      0.00      4.15      56.4     0.48      1024.1     0.6     SSE   148   1.9       S   176   9.67    345      -19.4
   12/08/2018 05:10      42.0      41.4       91     39.2      0.00      4.15      56.4     0.48      1023.9     0.1      SE   143   1.2      SE   143   9.67    339      -19.9
   12/08/2018 05:00      42.0      41.4       91     39.3      0.00      4.15      56.5     0.48      1023.8     0.5     SSW   193   1.5     SSW   211   9.67    334      -20.2
   12/08/2018 04:50      42.3      41.5       91     39.5      0.00      4.15      56.5     0.48      1023.8     0.0     SSE   150   0.6       N     0   9.67    330      -20.5
   12/08/2018 04:40      42.2      41.6       91     39.5      0.00      4.15      56.5     0.48      1023.8     0.2     SSE   166   1.1     SSE   165   9.67    326      -20.6
   12/08/2018 04:30      42.5      41.7       91     39.5      0.00      4.15      56.4     0.48      1023.8     0.0       N     0   0.0      SE   132   9.67    322      -21.2
   12/08/2018 04:20      42.4      42.0       91     39.7      0.00      4.15      56.5     0.48      1023.7     0.2       S   181   0.9     SSW   199   9.67    319      -21.3
   12/08/2018 04:10      42.5      42.0       90     39.6      0.00      4.15      56.5     0.48      1023.7     0.4     SSE   163   1.0      SE   144   9.67    316      -21.9
   12/08/2018 04:00      42.8      42.2       90     39.8      0.00      4.15      56.5     0.48      1023.7     0.0       N     0   0.0     NNW   329   9.67    313      -22.6
   12/08/2018 03:50      42.8      42.3       91     40.0      0.00      4.15      56.6     0.48      1023.6     0.3       S   184   1.1       S   176   9.67    311      -22.9
   12/08/2018 03:40      42.9      42.2       90     39.8      0.00      4.15      56.6     0.48      1023.6     0.2      SE   144   1.2      SE   144   9.67    308      -23.6
   12/08/2018 03:30      42.9      42.4       90     40.0      0.00      4.15      56.6     0.48      1023.6     0.1       S   169   1.1      SE   144   9.67    305      -24.0
   12/08/2018 03:20      43.1      42.3       89     39.7      0.00      4.15      56.6     0.48      1023.6     0.0     SSE   160   1.0     SSE   160   9.67    303      -25.0
   12/08/2018 03:10      43.3      42.8       90     40.1      0.00      4.15      56.6     0.48      1023.6     0.0     SSW   194   0.6     SSW   194   9.67    301      -25.5
   12/08/2018 03:00      43.3      42.9       89     40.1      0.00      4.15      56.6     0.48      1023.6     0.0       N     0   0.0       S   184   9.67    299      -26.3
   12/08/2018 02:50      43.4      42.9       89     40.0      0.00      4.15      56.6     0.48      1023.6     0.0       S   184   0.6       S   184   9.67    296      -27.3
   12/08/2018 02:40      43.5      43.1       88     40.0      0.00      4.15      56.7     0.48      1023.6     0.2     SSE   150   1.1     SSE   158   9.68    294      -28.2
   12/08/2018 02:30      43.8      43.2       88     40.4      0.00      4.15      56.7     0.48      1023.6     0.1      SE   134   0.9      SE   131   9.68    292      -28.7
   12/08/2018 02:20      43.7      43.4       88     40.3      0.00      4.15      56.7     0.48      1023.6     0.5     SSE   168   1.3     SSW   193   9.67    290      -29.5
   12/08/2018 02:10      44.2      43.4       88     40.4      0.00      4.15      56.7     0.48      1023.5     0.3       S   174   1.4     SSW   193   9.68    289      -31.4
   12/08/2018 02:00      44.1      43.5       88     40.4      0.00      4.15      56.7     0.48      1023.3     0.4     SSE   149   1.5      SE   145   9.68    287      -33.4
   12/08/2018 01:50      44.3      43.7       87     40.4      0.00      4.15      56.7     0.48      1023.4     0.5      SE   143   1.7      SE   135   9.68    285      -33.7
   12/08/2018 01:40      44.5      43.8       87     40.4      0.00      4.15      56.7     0.48      1023.3     0.7     SSW   210   2.2      SW   228   9.68    284      -35.0
   12/08/2018 01:30      44.5      44.2       87     40.6      0.00      4.15      56.8     0.48      1023.2     0.4      SE   127   1.2      SE   142   9.68    282      -36.0
   12/08/2018 01:20      44.8      44.2       87     40.7      0.00      4.15      56.8     0.48      1023.2     0.6       S   189   1.4     SSW   192   9.68    281      -37.2
   12/08/2018 01:10      44.8      44.4       87     40.8      0.00      4.15      56.8     0.48      1023.3     0.3       E   100   1.4     NNW   347   9.68    280      -39.0
   12/08/2018 01:00      44.8      44.3       86     40.7      0.00      4.15      56.8     0.48      1023.2     0.5       S   188   1.3       S   184   9.68    279      -40.0
   12/08/2018 00:50      45.3      44.5       86     40.8      0.00      4.15      56.8     0.48      1023.3     0.7      SE   133   1.6      SE   143   9.68    278      -42.5
   12/08/2018 00:40      45.5      44.8       85     40.9      0.00      4.15      56.8     0.48      1023.3     0.5     SSE   159   1.2     SSE   166   9.68    277      -44.3
   12/08/2018 00:30      45.5      45.0       85     40.9      0.00      4.15      56.8     0.48      1023.2     0.0      NW   308   0.9      NW   308   9.68    276      -47.3
   12/08/2018 00:20      45.8      45.1       84     40.9      0.00      4.15      56.8     0.48      1023.2     0.0     SSE   152   0.7      NW   308   9.68    275      -49.2
   12/08/2018 00:10      46.1      45.5       84     41.2      0.00      4.15      56.8     0.48      1023.1     0.5     SSE   147   1.3      SE   139   9.68    274      -50.8
   12/08/2018 00:00      46.2      45.5       85     41.3      0.00      4.15      56.8     0.48      1023.1     0.5     SSE   163   1.5      SE   142   9.68    273      -52.8
   12/07/2018 23:50      46.2      45.4       84     41.2      0.00      4.15      56.8     0.48      1023.1     0.2     SSW   200   0.7     SSW   200   9.68    273      -54.9
   12/07/2018 23:40      46.2      45.9       84     41.4      0.00      4.15      56.8     0.48      1023.1     0.4     SSW   196   1.5      SW   215   9.68    272      -55.9
   12/07/2018 23:30      46.5      45.9       84     41.5      0.00      4.15      56.8     0.49      1023.2     0.2      SE   144   1.5      SE   143   9.68    272      -58.1
   12/07/2018 23:20      46.5      45.9       84     41.5      0.00      4.15      56.8     0.49      1023.2     0.8     SSE   147   1.7      SE   144   9.68    271      -59.8
   12/07/2018 23:10      46.6      46.1       83     41.5      0.00      4.15      56.8     0.49      1023.2     0.6     SSE   152   1.3      SE   137   9.68    271      -60.6
   12/07/2018 23:00      47.1      46.3       83     41.5      0.00      4.15      56.8     0.49      1023.1     0.6     SSE   161   1.8      SE   139   9.68    270      -61.4
   12/07/2018 22:50      47.1      46.7       82     41.5      0.00      4.15      56.8     0.49      1023.0     0.4     SSE   167   1.1       S   175   9.68    270      -62.2
   12/07/2018 22:40      47.6      46.9       81     41.6      0.00      4.15      56.8     0.49      1022.9     0.3     SSE   149   1.5       S   181   9.68    270      -62.2
   12/07/2018 22:30      47.9      47.3       80     41.7      0.00      4.15      56.8     0.49      1022.9     0.4       S   176   1.2     SSE   159   9.68    270      -62.0
   12/07/2018 22:20      48.4      47.6       79     41.6      0.00      4.15      56.8     0.49      1022.8     0.3     SSE   163   1.2     SSE   152   9.68    269      -62.4
   12/07/2018 22:10      48.6      48.1       78     41.7      0.00      4.15      56.8     0.49      1022.7     0.5     SSE   148   1.2     SSE   167   9.68    269      -62.3
   12/07/2018 22:00      49.2      48.3       77     41.8      0.00      4.15      56.8     0.49      1022.6     0.3       S   191   1.6       S   189   9.68    268      -62.5
   12/07/2018 21:50      49.5      48.9       76     42.0      0.00      4.15      56.8     0.49      1022.5     0.6      SE   140   1.7      SE   142   9.68    268      -62.6
   12/07/2018 21:40      50.0      49.2       76     42.0      0.00      4.15      56.8     0.49      1022.5     1.1     SSE   156   2.5      SE   139   9.68    268      -63.2
   12/07/2018 21:30      50.1      49.7       74     42.1      0.00      4.15      56.8     0.49      1022.4     0.8      SE   140   2.4      SE   146   9.69    268      -63.1
   12/07/2018 21:20      50.5      49.7       74     42.1      0.00      4.15      56.8     0.49      1022.4     0.8     SSE   158   2.0      SE   143   9.69    268      -63.6
   12/07/2018 21:10      50.4      49.9       74     42.1      0.00      4.15      56.8     0.49      1022.3     1.2     SSE   150   2.7     SSW   195   9.69    268      -63.9
   12/07/2018 21:00      51.7      50.3       71     41.9      0.00      4.15      56.8     0.49      1022.1     1.2     SSE   166   3.1       S   176   9.69    268      -64.2
   12/07/2018 20:50      52.4      51.2       70     42.0      0.00      4.15      56.8     0.49      1022.0     2.1     SSE   159   4.5     SSE   153   9.69    268      -64.5
   12/07/2018 20:40      52.2      50.3       71     42.1      0.00      4.15      56.8     0.49      1021.9     2.0       S   175   3.7      SE   143   9.69    268      -65.0
   12/07/2018 20:30      50.5      50.2       74     42.4      0.00      4.15      56.8     0.49      1021.9     2.0      SE   142   3.2      SE   142   9.69    268      -65.7
   12/07/2018 20:20      51.0      50.2       74     42.4      0.00      4.15      56.8     0.49      1021.8     0.8     SSE   161   2.6     SSE   157   9.69    268      -65.7
   12/07/2018 20:10      51.6      50.6       73     42.5      0.00      4.15      56.7     0.49      1021.6     1.5     SSE   146   2.6      SE   132   9.69    268      -65.8
   12/07/2018 20:00      52.0      51.2       71     42.5      0.00      4.15      56.7     0.49      1021.7     1.2     SSE   147   2.7      SE   133   9.69    268      -66.5
   12/07/2018 19:50      54.4      51.9       67     42.3      0.00      4.15      56.7     0.49      1021.7     1.5     SSE   157   3.2       S   185   9.69    267      -67.1
   12/07/2018 19:40      54.6      53.2       62     41.6      0.00      4.15      56.7     0.49      1021.5     1.4     SSW   198   3.6      SW   219   9.69    267      -67.1
   12/07/2018 19:30      54.7      53.0       65     42.2      0.00      4.15      56.7     0.49      1021.3     1.3     SSE   159   3.8       S   179   9.70    267      -67.9
   12/07/2018 19:20      54.9      54.1       63     42.0      0.00      4.15      56.7     0.49      1021.2     1.1     SSE   168   3.6     SSE   148   9.70    267      -68.8
   12/07/2018 19:10      55.2      53.8       63     42.1      0.00      4.15      56.7     0.49      1021.1     0.9       S   184   3.9     SSE   154   9.70    267      -69.1
   12/07/2018 19:00      56.0      54.7       60     41.8      0.00      4.15      56.6     0.49      1021.1     1.3     SSE   162   3.0       S   183   9.70    267      -69.8
   12/07/2018 18:50      58.8      55.7       55     41.4      0.00      4.15      56.6     0.49      1021.0     1.8       S   185   3.5     SSW   194   9.70    266      -70.8
   12/07/2018 18:40      59.0      58.5       52     40.9      0.00      4.15      56.6     0.49      1020.8     1.7       W   261   4.5     WSW   253   9.70    266      -72.2
   12/07/2018 18:30      59.3      58.7       51     40.9      0.00      4.15      56.5     0.49      1020.7     1.2     WNW   285   4.2     NNW   344   9.70    266      -73.7
   12/07/2018 18:20      59.7      59.0       51     41.0      0.00      4.15      56.5     0.49      1020.6     1.6     NNW   335   3.8      NW   317   9.70    266      -74.1
   12/07/2018 18:10      59.8      59.3       50     41.0      0.00      4.15      56.5     0.49      1020.5     3.1       N     5   6.1      NE    35   9.70    266      -74.8
   12/07/2018 18:00      59.8      59.3       50     41.1      0.00      4.15      56.5     0.49      1020.5     2.7       N   356   6.8       N     5   9.70    266      -75.2
   12/07/2018 17:50      59.7      59.3       51     41.1      0.00      4.15      56.5     0.49      1020.4     3.1     NNW   340   8.3     WNW   288   9.70    266      -75.4
   12/07/2018 17:40      59.8      59.4       50     41.1      0.00      4.15      56.4     0.49      1020.4     3.5     NNW   336   6.9       N    11   9.70    266      -75.5
   12/07/2018 17:30      60.2      59.5       50     41.2      0.00      4.15      56.4     0.49      1020.4     3.3     NNW   336   6.8     NNW   327   9.70    266      -76.0
   12/07/2018 17:20      60.4      59.9       49     41.0      0.00      4.15      56.4     0.49      1020.3     2.9     NNW   339   6.0     NNW   348   9.71    266      -76.8
   12/07/2018 17:10      60.5      59.9       50     41.3      0.00      4.15      56.3     0.49      1020.1     3.7     NNW   348   8.5      NW   308   9.71    266      -77.3
   12/07/2018 17:00      60.7      60.1       49     41.3      0.00      4.15      56.3     0.49      1019.9     3.6      NW   325   7.6       N     0   9.71    266      -77.1
   12/07/2018 16:50      61.0      60.2       49     41.3      0.00      4.15      56.3     0.49      1019.8     3.6     NNW   343   7.2     NNE    21   9.71    266      -75.3
   12/07/2018 16:40      61.1      60.5       49     41.7      0.00      4.15      56.3     0.49      1019.8     3.5      NW   325   9.7       N     4   9.71    266      -73.0
   12/07/2018 16:30      61.6      60.8       49     41.8      0.00      4.15      56.2     0.49      1019.7     4.6     NNW   333   8.3      NW   323   9.71    266      -70.8
   12/07/2018 16:20      62.2      61.4       48     41.8      0.00      4.15      56.1     0.49      1019.5     4.9     NNW   337   8.8     NNW   343   9.71    266      -63.4
   12/07/2018 16:10      62.9      62.0       47     41.8      0.00      4.15      56.1     0.49      1019.5     4.8     NNW   344  11.0     NNW   341   9.72    264      -41.6
   12/07/2018 16:00      63.5      62.5       46     41.9      0.00      4.15      56.1     0.49      1019.2     4.8     NNW   343  11.5     NNW   337   9.72    264      -24.8
   12/07/2018 15:50      64.0      63.0       45     42.0      0.00      4.15      56.1     0.49      1019.1     4.5       N   349  11.3       N   350   9.72    264       -4.2
   12/07/2018 15:40      64.1      63.7       45     42.2      0.00      4.15      56.0     0.49      1019.0     3.8     NNW   345   9.2       N     7   9.72    264       16.5
   12/07/2018 15:30      64.1      63.6       46     42.3      0.00      4.15      56.0     0.49      1019.0     4.5       N   358   9.4     NNW   340   9.72    264       39.7
   12/07/2018 15:20      64.2      63.8       45     42.1      0.00      4.15      55.9     0.49      1018.9     5.6       N   356  10.1     NNE    17   9.72    264       63.2
   12/07/2018 15:10      64.7      64.0       44     42.0      0.00      4.15      55.9     0.49      1018.9     5.4       N   359  11.0       N     8   9.72    264       85.2
   12/07/2018 15:00      65.3      64.3       44     42.0      0.00      4.15      55.9     0.49      1018.7     6.0       N     0  11.0       N   349   9.72    264      108.0
   12/07/2018 14:50      65.6      64.9       44     42.6      0.00      4.15      55.9     0.49      1018.7     4.7       N   359  10.3       N     6   9.73    263      128.6
   12/07/2018 14:40      65.9      65.2       44     42.9      0.00      4.15      55.8     0.49      1018.5     4.1       N     2   7.9     NNE    17   9.73    264      149.4
   12/07/2018 14:30      65.7      65.2       43     42.4      0.00      4.15      55.7     0.49      1018.4     4.3       N   357   7.5      NW   323   9.73    264      169.4
   12/07/2018 14:20      65.8      65.2       43     42.6      0.00      4.15      55.7     0.49      1018.4     4.6       N     8   9.8       N     2   9.73    264      187.8
   12/07/2018 14:10      65.6      65.2       44     42.7      0.00      4.15      55.7     0.49      1018.3     4.2       N     4   8.3      NE    55   9.73    264      205.5
   12/07/2018 14:00      65.4      64.4       44     42.6      0.00      4.15      55.6     0.49      1018.3     4.4       N     7  10.2     NNW   337   9.73    264      223.5
   12/07/2018 13:50      65.1      64.3       44     42.4      0.00      4.15      55.6     0.49      1018.3     6.7       N     8  11.9     NNE    22   9.73    264      240.0
   12/07/2018 13:40      65.3      64.7       44     42.4      0.00      4.15      55.5     0.49      1018.3     6.0       N    11  11.0       N     9   9.73    264      254.5
   12/07/2018 13:30      65.8      64.7       43     42.3      0.00      4.15      55.5     0.49      1018.3     5.3       N     0  10.2       N   354   9.73    264      268.3
   12/07/2018 13:20      65.8      64.9       43     42.4      0.00      4.15      55.5     0.49      1018.4     5.0       N     4   9.9     NNW   334   9.73    264      273.3
   12/07/2018 13:10      66.0      65.3       43     42.7      0.00      4.15      55.4     0.49      1018.5     4.6       N   356   9.7     NNW   338   9.73    264      279.6
   12/07/2018 13:00      65.7      65.2       43     42.5      0.00      4.15      55.4     0.49      1018.4     5.1     NNW   347   8.6     NNE    16   9.73    264      296.2
   12/07/2018 12:50      65.7      64.8       44     42.5      0.00      4.15      55.4     0.49      1018.3     5.2     NNE    12  11.9       N     6   9.73    264      310.0
   12/07/2018 12:40      65.7      64.9       43     42.3      0.00      4.15      55.3     0.49      1018.2     4.8     NNW   348   9.9      NE    44   9.73    264      316.7
   12/07/2018 12:30      65.4      64.9       43     42.4      0.00      4.15      55.3     0.49      1018.4     5.3       N   354  12.0       N     5   9.73    265      324.4
   12/07/2018 12:20      65.4      64.8       44     42.5      0.00      4.15      55.3     0.49      1018.5     5.5       N   354   9.3       N   351   9.73    265      329.4
   12/07/2018 12:10      65.4      64.6       44     42.5      0.00      4.15      55.2     0.49      1018.5     5.1       N     5  10.7     NNE    15   9.73    265      333.2
   12/07/2018 12:00      65.4      64.8       43     41.8      0.00      4.15      55.3     0.49      1018.6     4.9     NNE    19   9.3     NNE    26   9.73    265      336.6
   12/07/2018 11:50      65.3      64.6       42     41.3      0.00      4.15      55.2     0.49      1018.6     5.8       N     8  11.1      NE    40   9.74    265      337.8
   12/07/2018 11:40      65.2      64.1       42     41.2      0.00      4.15      55.2     0.49      1018.7     5.7     NNE    16  11.6       N    10   9.73    265      338.7
   12/07/2018 11:30      64.7      63.8       42     40.8      0.00      4.15      55.2     0.49      1018.9     6.4     NNE    17  12.0      NE    45   9.74    266      337.0
   12/07/2018 11:20      64.4      63.4       43     40.9      0.00      4.15      55.2     0.49      1019.1     5.9       N   359  10.9      NE    38   9.74    266      334.7
   12/07/2018 11:10      64.1      63.6       42     40.4      0.00      4.15      55.2     0.49      1019.3     6.7     NNE    16  13.7     NNE    19   9.74    266      330.6
   12/07/2018 11:00      64.0      63.6       43     41.0      0.00      4.15      55.2     0.49      1019.4     5.6       N    10  11.6       N    10   9.74    266      324.2
   12/07/2018 10:50      63.9      62.8       44     41.2      0.00      4.15      55.1     0.49      1019.4     4.4     NNE    12  10.0       N     0   9.74    266      318.0
   12/07/2018 10:40      63.2      62.6       45     41.1      0.00      4.15      55.2     0.49      1019.5     5.0       N    11  10.0       N     4   9.74    266      310.7
   12/07/2018 10:30      63.0      62.4       45     41.2      0.00      4.15      55.2     0.49      1019.6     5.0     NNE    11  11.5       N   351   9.74    266      302.3
   12/07/2018 10:20      63.6      62.7       45     41.5      0.00      4.15      55.2     0.49      1019.6     3.5     NNE    14   7.3     NNW   328   9.74    266      290.9
   12/07/2018 10:10      63.5      62.1       46     41.5      0.00      4.15      55.2     0.49      1019.6     2.5       N   352   5.6     NNW   339   9.74    266      280.8
   12/07/2018 10:00      62.8      62.2       45     41.2      0.00      4.15      55.4     0.49      1019.5     3.6     NNW   348   6.7       N   353   9.74    266      269.2
   12/07/2018 09:50      62.9      61.4       47     41.9      0.00      4.15      55.4     0.49      1019.4     1.7     NNW   343   3.2       W   276   9.74    266      256.4
   12/07/2018 09:40      61.5      60.5       49     41.4      0.00      4.15      55.2     0.49      1019.3     2.9       N   354   5.4       N     0   9.74    266      242.7
   12/07/2018 09:30      61.1      60.4       50     41.8      0.00      4.15      55.1     0.49      1019.2     3.3       N   349   6.7     NNW   341   9.74    266      227.4
   12/07/2018 09:20      60.7      60.0       50     41.6      0.00      4.15      55.2     0.49      1019.1     2.5     WNW   302   4.0     WNW   295   9.74    266      210.4
   12/07/2018 09:10      60.4      59.5       50     41.3      0.00      4.15      55.2     0.49      1018.9     2.1      NW   316   4.6      NW   307   9.74    266      192.9
   12/07/2018 09:00      59.6      58.7       51     41.2      0.00      4.15      55.2     0.49      1018.7     2.7     NNE    20   8.4       N     0   9.74    266      175.7
   12/07/2018 08:50      58.8      58.2       52     41.0      0.00      4.15      55.2     0.49      1018.6     3.5      NE    37   6.0     ENE    59   9.75    266      157.1
   12/07/2018 08:40      58.4      57.5       54     41.3      0.00      4.15      55.2     0.49      1018.5     2.7      NE    45   5.8      NE    43   9.75    266      136.5
   12/07/2018 08:30      57.7      57.0       54     40.8      0.00      4.15      55.2     0.49      1018.6     3.4     NNE    29   6.4       N     0   9.75    267      116.5
   12/07/2018 08:20      57.2      56.4       55     40.7      0.00      4.15      55.2     0.49      1018.5     3.1     NNE    26   7.3     NNE    17   9.75    267       97.3
   12/07/2018 08:10      56.7      55.7       55     40.4      0.00      4.15      55.2     0.49      1018.5     3.8     NNE    17   7.6      NE    47   9.75    267       77.7
   12/07/2018 08:00      55.8      54.5       57     40.4      0.00      4.15      55.2     0.49      1018.6     2.7     NNE    17   6.0      NE    38   9.75    268       59.9
   12/07/2018 07:50      54.7      54.0       59     40.4      0.00      4.15      55.2     0.49      1018.6     1.3      SW   232   4.2      SW   225   9.75    268      -20.0
   12/07/2018 07:40      54.3      53.7       59     40.2      0.00      4.15      55.2     0.49      1018.4     0.9      NW   322   2.9     WSW   249   9.75    268      -41.8
   12/07/2018 07:30      54.0      53.6       60     40.0      0.00      4.15      55.2     0.49      1018.3     1.3       N     0   6.2       N     7   9.75    268      -46.8
   12/07/2018 07:20      54.0      53.5       59     39.8      0.00      4.15      55.2     0.49      1018.3     3.9       N     0   7.8     NNE    15   9.75    268      -49.7
   12/07/2018 07:10      53.8      53.3       59     39.7      0.00      4.15      55.2     0.49      1018.2     3.5     NNW   348   8.5     NNW   344   9.75    268      -53.4
   12/07/2018 07:00      53.8      53.4       59     39.6      0.00      4.15      55.2     0.49      1018.0     3.7       N    10   9.3      NE    43   9.75    268      -57.2
   12/07/2018 06:50      53.8      53.2       59     39.6      0.00      4.15      55.2     0.49      1017.8     4.5       N     9   8.8     NNE    34   9.75    268      -60.4
   12/07/2018 06:40      53.3      52.5       61     39.7      0.00      4.15      55.2     0.49      1017.6     4.5     NNE    20  11.7     NNW   343   9.75    268      -62.3
   12/07/2018 06:30      53.0      52.6       61     39.7      0.00      4.15      55.2     0.49      1017.5     3.6       N   357   8.7     NNE    23   9.75    268      -63.0
   12/07/2018 06:20      52.9      52.5       61     39.6      0.00      4.15      55.2     0.49      1017.5     3.1      NW   326   8.6       N     0   9.75    268      -62.7
   12/07/2018 06:10      52.9      52.2       61     39.6      0.00      4.15      55.3     0.49      1017.4     2.0      NW   314   6.3      NW   320   9.75    269      -62.0
   12/07/2018 06:00      52.5      52.0       62     39.6      0.00      4.15      55.2     0.49      1017.3     2.7     NNW   348   5.5       N   354   9.75    269      -61.3
   12/07/2018 05:50      52.4      51.7       63     39.6      0.00      4.15      55.2     0.49      1017.1     2.0       N     2   6.2      NW   325   9.75    269      -59.9
   12/07/2018 05:40      51.9      51.3       64     39.8      0.00      4.15      55.2     0.49      1017.0     1.8       N     0   4.4      NE    37   9.76    269      -60.2
   12/07/2018 05:30      51.5      50.0       66     39.9      0.00      4.15      55.2     0.49      1017.1     1.5       N     0   6.0       N   355   9.76    269      -59.8
   12/07/2018 05:20      50.0      47.4       74     40.6      0.00      4.15      55.3     0.49      1017.1     1.5       N   350   4.4      NW   310   9.76    269      -59.3
   12/07/2018 05:10      47.5      45.8       82     41.1      0.00      4.15      55.3     0.49      1016.9     1.8     SSW   202   3.0     SSE   147   9.76    270      -59.4
   12/07/2018 05:00      47.5      46.4       80     40.9      0.00      4.15      55.3     0.49      1016.5     1.5     SSE   160   2.5      SE   143   9.76    270      -60.0
   12/07/2018 04:50      47.7      46.8       79     41.0      0.00      4.15      55.3     0.49      1016.5     0.9       S   175   2.5      SE   146   9.76    270      -59.9
   12/07/2018 04:40      48.6      46.9       77     40.8      0.00      4.15      55.3     0.49      1016.4     1.4     SSE   160   2.5       S   181   9.76    270      -61.1
   12/07/2018 04:30      51.1      48.4       70     40.5      0.00      4.15      55.3     0.49      1016.2     1.3       S   169   2.5      SW   234   9.76    269      -62.0
   12/07/2018 04:20      50.9      50.0       67     40.1      0.00      4.15      55.3     0.49      1015.9     2.4     WSW   244   4.1     WSW   237   9.76    269      -61.4
   12/07/2018 04:10      51.7      49.8       67     40.3      0.00      4.15      55.3     0.49      1015.9     2.2     SSW   213   4.3      SW   235   9.76    269      -61.3
   12/07/2018 04:00      51.6      50.4       67     40.3      0.00      4.15      55.3     0.49      1016.0     2.6      SW   222   4.1     SSW   202   9.76    269      -62.6
   12/07/2018 03:50      51.4      50.3       68     40.8      0.00      4.15      55.3     0.49      1015.9     2.4       S   171   4.0     SSW   211   9.76    269      -63.0
   12/07/2018 03:40      52.9      51.0       64     40.5      0.00      4.15      55.3     0.49      1016.0     1.8     SSW   196   3.6     WSW   253   9.77    269      -59.2
   12/07/2018 03:30      53.1      52.6       62     40.1      0.00      4.15      55.3     0.49      1016.1     2.5      SW   227   5.5      SW   233   9.77    268      -34.7
   12/07/2018 03:20      53.0      52.5       62     40.2      0.00      4.15      55.3     0.49      1016.2     1.7     WSW   255   4.1       W   280   9.77    268      -24.7
   12/07/2018 03:10      52.8      52.2       64     40.6      0.00      4.15      55.3     0.49      1016.2     1.6       W   261   3.6     WSW   247   9.77    268      -21.1
   12/07/2018 03:00      52.6      52.2       65     40.9      0.00      4.15      55.3     0.49      1016.3     2.0      SW   227   4.6     WSW   239   9.77    269      -16.9
   12/07/2018 02:50      52.7      51.9       65     40.8      0.00      4.15      55.3     0.50      1016.4     3.8     WSW   249   6.5      SW   235   9.77    269      -12.2
   12/07/2018 02:40      51.9      51.0       68     41.3      0.00      4.15      55.3     0.49      1016.4     2.6      SW   230   4.4     WSW   258   9.77    269      -15.6
   12/07/2018 02:30      52.0      51.0       69     41.5      0.00      4.15      55.3     0.50      1016.4     2.0       S   176   3.9       S   179   9.77    269      -20.2
   12/07/2018 02:20      52.0      51.5       67     41.1      0.00      4.15      55.3     0.50      1016.4     0.8      NW   314   1.9      NW   314   9.77    269      -14.3
   12/07/2018 02:10      51.6      49.8       71     41.6      0.00      4.15      55.3     0.50      1016.4     1.6      NW   306   4.9     WSW   250   9.77    269       -7.4
   12/07/2018 02:00      50.0      49.4       77     42.7      0.00      4.15      55.3     0.50      1016.4     0.6      SW   236   3.2       N   352   9.77    269       -5.9
   12/07/2018 01:50      49.7      49.0       79     42.9      0.00      4.15      55.3     0.50      1016.3     1.2     SSE   146   3.7     SSE   151   9.77    269       -4.7
   12/07/2018 01:40      49.4      48.9       78     42.7      0.00      4.15      55.3     0.50      1016.2     0.9       S   179   2.2       S   179   9.77    269       -4.8
   12/07/2018 01:30      49.7      48.9       78     42.6      0.00      4.15      55.3     0.50      1016.2     1.1      SE   135   2.2      SE   131   9.77    269       -6.7
   12/07/2018 01:20      50.4      49.4       74     41.8      0.00      4.15      55.3     0.50      1016.1     1.3     SSE   152   2.4      SE   136   9.78    270       -4.1
   12/07/2018 01:10      51.0      49.8       71     41.2      0.00      4.15      55.3     0.50      1016.0     1.5       S   186   3.0      SE   140   9.78    269       -1.9
   12/07/2018 01:00      51.1      48.8       69     40.5      0.00      4.15      55.3     0.50      1016.0     2.6     SSW   197   4.2     SSW   212   9.78    269       -1.6
   12/07/2018 00:50      48.8      47.5       78     41.4      0.00      4.15      55.3     0.50      1015.9     1.9       S   171   3.4       S   182   9.78    270      -10.0
   12/07/2018 00:40      48.1      47.5       78     41.3      0.00      4.15      55.3     0.50      1015.9     1.5     SSE   163   2.7     SSE   153   9.78    270      -21.0
   12/07/2018 00:30      48.4      47.8       76     40.7      0.00      4.15      55.3     0.50      1015.9     0.7      SE   139   2.5      SE   144   9.78    269      -17.6
   12/07/2018 00:20      48.3      47.8       75     40.4      0.00      4.15      55.4     0.50      1015.9     1.3       S   169   2.6       S   174   9.78    269      -42.0
   12/07/2018 00:10      48.6      47.8       75     40.5      0.00      4.15      55.4     0.50      1015.8     1.3     SSE   163   3.0     SSW   195   9.78    269      -52.1
   12/07/2018 00:00      50.4      48.3       71     40.2      0.00      4.15      55.4     0.50      1015.7     0.7     SSE   164   1.8     SSE   154   9.78    269      -43.3
   12/06/2018 23:50      51.3      50.1       66     39.8      0.00      4.15      55.3     0.50      1015.7     1.5     SSE   161   3.7     WSW   253   9.78    269      -35.6
   12/06/2018 23:40      51.7      50.9       65     39.6      0.00      4.15      55.4     0.50      1015.5     1.1       S   175   3.8     WSW   239   9.78    269      -25.2
   12/06/2018 23:30      51.9      51.3       64     39.6      0.00      4.15      55.3     0.50      1015.4     2.2     NNE    24   5.8       N   350   9.79    269      -21.6
   12/06/2018 23:20      51.5      51.1       65     39.8      0.00      4.15      55.4     0.50      1015.3     3.2     NNE    14   8.2     WNW   302   9.79    269      -16.8
   12/06/2018 23:10      51.8      51.1       64     39.8      0.00      4.15      55.4     0.50      1015.2     4.3       N     5   9.4       N   352   9.79    269      -13.5
   12/06/2018 23:00      51.7      51.1       65     39.9      0.00      4.15      55.4     0.50      1015.2     6.0       N    10  11.5     NNE    13   9.79    269       -7.4
   12/06/2018 22:50      51.5      51.0       65     40.0      0.00      4.15      55.3     0.50      1015.2     5.0       N     2  11.6     NNW   331   9.79    269       -3.7
   12/06/2018 22:40      51.4      51.0       65     40.0      0.00      4.15      55.3     0.50      1015.1     4.6       N    11  13.1       N   353   9.79    269       -3.2
   12/06/2018 22:30      51.3      51.0       65     39.9      0.00      4.15      55.4     0.50      1015.1     4.2       N   358   8.6       N   355   9.79    269       -3.6
   12/06/2018 22:20      51.1      50.3       67     40.1      0.00      4.15      55.4     0.50      1015.1     3.5       N   354   8.7      NW   310   9.80    269       -4.0
   12/06/2018 22:10      50.5      48.4       71     40.6      0.00      4.15      55.4     0.50      1015.1     2.2       N   359   6.7      NE    37   9.80    269       -4.4
   12/06/2018 22:00      49.0      47.8       76     41.0      0.00      4.15      55.4     0.50      1015.1     1.8       S   169   5.0      SE   145   9.80    270       -3.7
   12/06/2018 21:50      51.0      48.7       71     40.6      0.00      4.15      55.4     0.50      1014.9     0.8     SSE   149   2.3      SE   131   9.80    269       -2.5
   12/06/2018 21:40      50.9      50.3       68     40.2      0.00      4.15      55.4     0.50      1014.8     1.4       E    99   3.9       E    83   9.80    269       -3.4
   12/06/2018 21:30      51.0      50.1       67     40.0      0.00      4.15      55.4     0.50      1014.8     1.0     SSW   205   3.1       N   350   9.80    269       -2.4
   12/06/2018 21:20      50.3      48.7       71     40.4      0.00      4.15      55.4     0.50      1014.8     0.5     NNW   339   3.2      SW   219   9.80    269       -3.1
   12/06/2018 21:10      49.5      48.7       73     40.7      0.00      4.15      55.4     0.50      1014.7     0.7       S   178   2.5     SSE   161   9.81    269       -3.3
   12/06/2018 21:00      49.6      48.4       72     40.5      0.00      4.15      55.4     0.50      1014.6     0.9     SSE   149   2.9     NNW   335   9.81    269       -3.8
   12/06/2018 20:50      48.4      47.3       79     41.4      0.00      4.15      55.4     0.50      1014.5     1.6     SSE   162   3.2     SSE   160   9.81    271       -3.3
   12/06/2018 20:40      47.5      46.5       81     41.4      0.00      4.15      55.4     0.51      1014.3     1.5     SSE   154   3.2     SSE   166   9.81    274       -3.6
   12/06/2018 20:30      47.6      46.7       79     41.0      0.00      4.15      55.4     0.51      1014.2     1.7     SSE   160   3.3     SSE   155   9.81    276       -4.4
   12/06/2018 20:20      47.3      46.8       81     41.4      0.00      4.15      55.4     0.51      1014.2     1.7     SSE   151   3.5      SE   137   9.82    277       -4.6
   12/06/2018 20:10      48.2      46.8       78     41.0      0.00      4.15      55.3     0.51      1014.1     0.9     SSE   163   3.9     SSE   167   9.82    279       -4.0
   12/06/2018 20:00      48.4      47.8       76     40.9      0.00      4.15      55.4     0.51      1014.0     0.8     SSE   149   3.1     SSE   155   9.82    280       -3.9
   12/06/2018 19:50      48.3      47.3       79     41.5      0.00      4.15      55.3     0.51      1014.0     1.5      SE   129   4.6       S   173   9.82    281       -3.6
   12/06/2018 19:40      50.1      48.2       72     40.6      0.00      4.15      55.3     0.51      1014.0     1.7     SSE   150   3.9     SSE   163   9.82    283       -2.9
   12/06/2018 19:30      51.4      49.8       67     40.0      0.00      4.15      55.3     0.51      1014.0     1.7     ESE   112   4.6       N     0   9.83    285       -3.4
   12/06/2018 19:20      51.4      50.8       65     39.8      0.00      4.15      55.3     0.51      1013.7     2.4     NNE    28   6.4     NNE    22   9.83    288       -4.4
   12/06/2018 19:10      51.0      50.4       67     40.0      0.00      4.15      55.3     0.51      1013.5     2.3       N     2   7.0     NNE    14   9.83    293       -4.7
   12/06/2018 19:00      50.5      49.4       69     40.4      0.00      4.15      55.3     0.51      1013.6     2.6       N   354   5.7     NNW   347   9.83    297       -5.2
   12/06/2018 18:50      49.5      48.3       75     41.0      0.00      4.15      55.3     0.51      1013.7     1.5       N    10   6.1     NNE    13   9.84    299       -6.3
   12/06/2018 18:40      48.6      47.8       77     41.4      0.00      4.15      55.3     0.51      1013.8     1.7     ESE   114   3.6      SE   128   9.84    301       -6.3
   12/06/2018 18:30      47.9      47.1       81     42.0      0.00      4.15      55.3     0.51      1013.7     0.9     ESE   106   2.5     ESE   117   9.84    303       -7.2
   12/06/2018 18:20      47.1      46.5       85     42.5      0.00      4.15      55.3     0.51      1013.5     0.9      SE   145   3.0     NNW   335   9.84    304       -6.8
   12/06/2018 18:10      46.9      46.4       86     42.6      0.00      4.15      55.3     0.51      1013.3     1.6      SE   144   2.8      SE   142   9.85    305       -6.7
   12/06/2018 18:00      47.3      46.6       85     42.6      0.00      4.15      55.2     0.51      1013.3     2.1     SSE   160   4.3     SSE   149   9.85    306       -6.4
   12/06/2018 17:50      48.2      47.1       82     42.2      0.00      4.15      55.2     0.51      1013.2     1.2     SSE   164   2.8       S   175   9.85    306       -6.3
   12/06/2018 17:40      49.2      47.8       79     42.1      0.00      4.15      55.2     0.51      1013.1     1.2       S   170   2.0     SSW   205   9.85    305       -5.8
   12/06/2018 17:30      50.0      48.9       73     41.3      0.00      4.15      55.1     0.51      1013.1     0.4      SE   130   1.5     SSE   159   9.86    306       -5.5
   12/06/2018 17:20      49.9      49.2       75     41.7      0.00      4.15      55.2     0.51      1013.1     1.2      SE   138   2.6     SSE   148   9.86    306       -5.7
   12/06/2018 17:10      52.0      49.2       73     41.9      0.00      4.15      55.2     0.51      1013.0     1.6     SSE   162   3.3       S   170   9.86    307       -4.4
   12/06/2018 17:00      52.0      51.3       65     40.1      0.00      4.15      55.2     0.51      1012.9     1.9     WNW   290   8.1     WSW   252   9.87    307       -4.6
   12/06/2018 16:50      52.1      51.2       67     40.8      0.00      4.15      55.1     0.52      1012.9     2.2      NW   312   5.9      NE    39   9.87    309       -0.5
   12/06/2018 16:40      52.5      51.8       65     40.7      0.00      4.15      55.1     0.52      1012.9     1.2       N     5   3.9     NNE    19   9.87    312        3.7
   12/06/2018 16:30      53.0      52.2       65     41.1      0.00      4.15      55.1     0.52      1012.9     1.4     NNW   334   5.1       N     4   9.87    314        9.3
   12/06/2018 16:20      54.2      52.7       67     42.7      0.00      4.15      55.1     0.52      1012.7     1.9     NNW   332   6.2     WSW   249   9.88    315       21.0
   12/06/2018 16:10      54.7      54.0       70     44.7      0.00      4.15      55.1     0.52      1012.5     0.6       N    10   2.7     WNW   287   9.88    316       47.1
   12/06/2018 16:00      54.6      53.6       71     44.9      0.00      4.15      55.1     0.52      1012.5     0.8     SSE   148   2.3      NW   320   9.88    319       88.8
   12/06/2018 15:50      54.0      52.2       74     44.9      0.00      4.15      55.1     0.52      1012.4     0.7      NW   310   2.2       W   263   9.88    322      106.9
   12/06/2018 15:40      52.2      50.7       84     46.6      0.00      4.15      55.0     0.52      1012.4     1.4     SSW   206   2.3       S   173   9.89    324      111.8
   12/06/2018 15:30      51.0      50.3       87     46.9      0.00      4.15      55.0     0.52      1012.3     1.8       S   182   2.7     SSW   198   9.89    326       84.0
   12/06/2018 15:20      50.6      50.1       88     47.0      0.00      4.15      55.0     0.52      1012.2     1.0     SSE   161   1.8     SSE   158   9.89    327       78.5
   12/06/2018 15:10      50.5      49.9       89     47.0      0.00      4.15      55.0     0.52      1012.3     1.3     SSE   162   2.7     SSE   164   9.90    327       80.0
   12/06/2018 15:00      50.3      49.7       89     46.6      0.00      4.15      55.0     0.52      1012.2     0.8      SE   136   1.8     ESE   107   9.90    328       75.8
   12/06/2018 14:50      49.9      49.1       88     46.1      0.00      4.15      55.0     0.52      1012.2     0.6      SE   130   2.5     SSW   193   9.90    328       67.8
   12/06/2018 14:40      49.5      49.0       89     46.0      0.00      4.15      55.0     0.52      1012.3     1.9     SSW   207   2.6     SSW   201   9.91    329       40.6
   12/06/2018 14:30      49.4      48.6       89     45.7      0.00      4.15      54.9     0.52      1012.1     1.5     SSE   166   2.5     SSE   161   9.91    331       37.5
   12/06/2018 14:20      48.8      48.5       89     45.5      0.00      4.15      54.9     0.52      1012.0     1.8     SSE   159   3.9     SSE   159   9.91    341       43.1
   12/06/2018 14:10      48.8      48.2       89     45.2      0.01      4.15      54.9     0.52      1011.7     1.1       E    84   2.1      NE    47   9.92    368       62.8
   12/06/2018 14:00      48.8      48.2       88     45.1      0.00      4.14      54.9     0.52      1011.9     0.8      SE   140   1.9      NE    44   9.92    373       52.2
   12/06/2018 13:50      48.7      48.3       88     45.0      0.01      4.14      54.9     0.53      1012.0     0.7     ENE    67   2.1     NNE    33   9.91    431       53.8
   12/06/2018 13:40      48.6      48.2       86     44.5      0.02      4.13      54.8     0.52      1012.2     0.7     ENE    73   3.5     ESE   121   9.91    427       47.6
   12/06/2018 13:30      48.8      48.1       85     44.0      0.02      4.11      54.8     0.53      1012.4     1.3     ESE   108   2.8       E   101   9.90    440       35.8
   12/06/2018 13:20      49.2      48.6       84     44.3      0.02      4.09      54.8     0.53      1012.5     0.7       E    82   2.1      NE    56   9.88    432       34.5
   12/06/2018 13:10      49.1      48.7       83     43.8      0.02      4.07      54.8     0.53      1012.6     0.7       E    91   2.4     ENE    68   9.86    432       35.5
   12/06/2018 13:00      49.5      48.7       81     43.5      0.01      4.05      54.8     0.53      1012.8     1.1     ESE   114   2.7      SE   131   9.85    457       26.3
   12/06/2018 12:50      49.7      49.2       78     43.0      0.00      4.04      54.7     0.53      1012.8     0.2     ESE   103   1.7     ENE    73   9.85    364       23.9
   12/06/2018 12:40      50.1      49.4       76     42.4      0.01      4.04      54.7     0.53      1012.9     0.8       E    93   3.1      NE    56   9.85    385       28.4
   12/06/2018 12:30      50.6      49.7       74     42.1      0.00      4.03      54.7     0.53      1012.9     1.3       E    98   2.8     ENE    76   9.85    329       34.4
   12/06/2018 12:20      50.9      50.4       72     41.8      0.00      4.03      54.7     0.53      1012.9     1.0     ENE    78   2.4     ESE   115   9.85    291       45.7
   12/06/2018 12:10      50.6      50.0       71     41.2      0.00      4.03      54.7     0.53      1012.8     0.6      NE    48   2.8     ENE    74   9.86    286       54.4
   12/06/2018 12:00      50.3      49.5       71     40.8      0.00      4.03      54.6     0.53      1012.6     1.0     ENE    63   3.5      NE    48   9.87    288       58.0
   12/06/2018 11:50      49.8      49.0       71     40.3      0.00      4.03      54.6     0.54      1012.8     1.3     SSE   150   4.0      SE   140   9.88    290       75.7
   12/06/2018 11:40      49.5      49.0       71     40.2      0.00      4.03      54.6     0.54      1013.0     2.2      SE   125   6.7      SE   131   9.89    293      103.5
   12/06/2018 11:30      49.4      48.9       72     40.6      0.00      4.03      54.6     0.54      1013.4     1.6     ENE    72   7.6       N     7   9.90    294       84.0
   12/06/2018 11:20      49.4      48.7       73     40.8      0.00      4.03      54.5     0.54      1013.6     1.9       N     5   5.2     ESE   103   9.91    296      102.1
   12/06/2018 11:10      48.9      47.8       76     41.0      0.00      4.03      54.5     0.55      1013.7     2.3     NNE    27   8.7     NNE    31   9.92    299      161.3
   12/06/2018 11:00      48.1      47.3       78     41.0      0.00      4.03      54.4     0.55      1013.7     2.9     NNE    27   8.4       N     0   9.94    301      132.3
   12/06/2018 10:50      47.6      46.7       80     41.1      0.00      4.03      54.4     0.56      1013.9     4.6     NNE    15  10.9       N     2   9.95    303      143.4
   12/06/2018 10:40      47.1      46.5       83     41.9      0.00      4.03      54.4     0.56      1014.0     5.1     NNE    19   9.2     NNE    16   9.97    305      107.8
   12/06/2018 10:30      47.5      46.8       88     43.8      0.00      4.03      54.4     0.56      1014.0     2.6     NNE    17   7.6     NNE    26   9.99    309      236.1
   12/06/2018 10:20      47.0      46.0       91     43.9      0.00      4.03      54.5     0.57      1014.0     2.0      NE    36   3.6      NE    47  10.01    326      239.5
   12/06/2018 10:10      46.6      45.9       92     44.2      0.00      4.03      54.5     0.57      1014.2     2.3     ENE    71   5.7     NNW   333  10.04    357       75.8
   12/06/2018 10:00      46.7      46.4       92     44.3      0.03      4.03      54.7     0.57      1014.4     1.9     NNE    33   4.1      NE    35  10.07    431       38.9
   12/06/2018 09:50      46.7      46.3       92     44.3      0.05      4.00      54.8     0.58      1014.8     2.9      NE    35   6.1      NE    50  10.08    450       16.5
   12/06/2018 09:40      46.6      46.3       92     44.2      0.05      3.95      55.0     0.57      1015.5     1.7      SW   226   3.6     WSW   255  10.08    448        9.4
   12/06/2018 09:30      46.9      46.4       92     44.5      0.05      3.90      55.2     0.57      1015.4     2.4     WSW   243   5.2      SW   231  10.08    363        9.9
   12/06/2018 09:20      47.1      46.6       92     44.7      0.04      3.85      55.4     0.58      1015.2     2.9     WSW   251   5.8       W   265  10.08    426        8.9
   12/06/2018 09:10      46.8      46.3       92     44.3      0.06      3.81      55.5     0.58      1015.0     1.2     WSW   258   4.3     SSE   168  10.09    399       10.4
   12/06/2018 09:00      46.6      46.2       92     44.2      0.08      3.75      55.7     0.58      1014.8     2.8     WNW   286   5.5     NNW   333  10.08    382       10.2
   12/06/2018 08:50      47.0      46.4       93     44.6      0.05      3.67      56.0     0.59      1014.5     4.9     WNW   287  10.3       W   270  10.08    424       15.3
   12/06/2018 08:40      47.1      46.5       93     44.9      0.13      3.62      56.3     0.59      1014.4     4.7     WSW   255   8.1       W   279  10.08    405        8.5
   12/06/2018 08:30      47.9      46.7       93     45.2      0.13      3.49      56.5     0.59      1013.9     6.7     WSW   250  11.3       W   263  10.06    336        1.5
   12/06/2018 08:20      48.1      47.7       94     46.3      0.10      3.36      56.7     0.58      1013.4     4.4     SSW   203   8.6     SSW   205  10.06    372       -0.7
   12/06/2018 08:10      47.9      47.5       94     46.2      0.10      3.26      56.9     0.57      1012.4     2.8       W   269   5.6      SW   217  10.07    361        0.4
   12/06/2018 08:00      47.8      47.5       94     46.0      0.04      3.16      57.1     0.57      1012.1     1.0     ENE    60   2.9      NE    55  10.08    447        1.4
   12/06/2018 07:50      48.1      47.6       94     46.2      0.05      3.12      57.3     0.55      1012.2     1.0      SE   143   3.1     ENE    58  10.08    445        1.8
   12/06/2018 07:40      48.3      47.8       94     46.4      0.08      3.07      57.5     0.53      1012.1     1.8      NE    55   5.8     ENE    56  10.08    492        0.4
   12/06/2018 07:30      48.4      47.8       94     46.5      0.04      2.99      57.6     0.52      1012.1     0.7     ENE    60   2.8       E    97  10.08    464       -0.9
   12/06/2018 07:20      48.1      47.8       94     46.4      0.05      2.95      57.7     0.51      1012.0     0.2       E    99   1.5     SSE   147  10.06    435       -1.0
   12/06/2018 07:10      48.2      47.8       94     46.4      0.03      2.90      57.7     0.50      1012.1     1.5      SE   134   3.5      SE   136  10.04    449       -1.3
   12/06/2018 07:00      48.1      47.7       94     46.3      0.03      2.87      57.7     0.49      1012.1     1.7     SSE   160   4.5      SE   144  10.03    453       -2.0
   12/06/2018 06:50      48.0      47.6       94     46.3      0.01      2.84      57.8     0.49      1012.1     1.8     SSE   153   4.5       S   177  10.03    386       -2.1
   12/06/2018 06:40      48.0      47.5       94     46.2      0.04      2.83      57.8     0.48      1011.9     0.7     ESE   112   3.4      SE   137  10.03    447       -2.4
   12/06/2018 06:30      47.8      47.5       94     46.1      0.02      2.79      57.9     0.47      1012.0     0.9       E    93   1.9     ENE    61  10.01    446       -2.9
   12/06/2018 06:20      47.9      47.5       95     46.1      0.02      2.77      57.9     0.47      1012.0     0.7     ENE    77   2.4      NE    56  10.01    434       -2.9
   12/06/2018 06:10      47.8      47.4       95     46.1      0.03      2.75      57.9     0.46      1012.0     1.3     ESE   121   3.5      SE   133  10.00    432       -2.9
   12/06/2018 06:00      48.1      47.5       95     46.3      0.03      2.72      57.9     0.46      1012.0     0.7     ESE   104   3.1      SE   138   9.99    405       -2.8
   12/06/2018 05:50      48.0      47.6       95     46.3      0.01      2.69      57.9     0.45      1012.0     1.7     ESE   118   4.0      SE   128   9.98    457       -2.9
   12/06/2018 05:40      48.2      47.7       95     46.5      0.01      2.68      57.9     0.45      1011.9     1.0     NNE    19   2.6     NNE    24   9.98    389       -2.5
   12/06/2018 05:30      48.3      47.8       95     46.6      0.03      2.67      57.9     0.45      1011.9     1.5     NNE    21   4.0       N     2   9.98    465       -2.2
   12/06/2018 05:20      48.6      48.1       95     47.0      0.02      2.64      57.9     0.44      1012.0     1.9      SE   127   3.7      SE   125   9.96    437       -2.0
   12/06/2018 05:10      48.6      48.2       95     47.0      0.03      2.62      57.9     0.44      1011.8     1.6     ENE    67   4.5      NE    55   9.95    453       -2.2
   12/06/2018 05:00      48.6      48.3       95     47.0      0.01      2.59      57.9     0.44      1011.9     0.7       E    92   2.0     ENE    72   9.93    449       -2.2
   12/06/2018 04:50      48.7      48.3       95     47.1      0.02      2.58      58.0     0.44      1011.8     0.9       E    79   3.0     ESE   106   9.93    428       -2.2
   12/06/2018 04:40      48.8      48.3       95     47.1      0.00      2.56      58.0     0.44      1011.8     1.3       E    94   3.1     ESE   122   9.93    433       -2.2
   12/06/2018 04:30      48.7      48.4       95     47.1      0.01      2.56      58.0     0.44      1011.8     0.6       E    93   2.4     ESE   121   9.93    405       -2.3
   12/06/2018 04:20      48.7      48.4       95     47.1      0.00      2.55      58.0     0.43      1012.0     0.2     ESE   115   1.3     ESE   116   9.93    419       -2.3
   12/06/2018 04:10      48.7      48.3       95     47.1      0.01      2.55      58.0     0.43      1011.9     0.0      SE   138   1.2      SE   141   9.93    418       -2.3
   12/06/2018 04:00      48.7      48.3       95     47.1      0.00      2.54      58.0     0.43      1012.0     0.8     ESE   103   2.0       E    90   9.93    431       -2.2
   12/06/2018 03:50      48.7      48.3       95     47.1      0.00      2.54      58.0     0.43      1012.0     1.3     ESE   107   3.3     ESE   108   9.94    417       -2.1
   12/06/2018 03:40      48.8      48.3       95     47.1      0.01      2.54      58.0     0.43      1011.9     0.9       E   100   2.3     ENE    77   9.94    408       -2.1
   12/06/2018 03:30      48.9      48.4       95     47.2      0.00      2.53      58.0     0.43      1012.0     1.5     ESE   121   3.3     ESE   113   9.95    450       -2.0
   12/06/2018 03:20      48.8      48.4       95     47.2      0.01      2.53      58.0     0.43      1012.0     1.0     ENE    68   3.2     ENE    59   9.96    432       -2.1
   12/06/2018 03:10      48.9      48.6       95     47.3      0.01      2.52      58.0     0.42      1012.1     1.1       E    89   2.9     ENE    59   9.96    447       -2.0
   12/06/2018 03:00      48.9      48.5       95     47.3      0.00      2.51      58.0     0.42      1012.1     1.0       E    81   3.2     ENE    73   9.96    423       -2.1
   12/06/2018 02:50      49.1      48.4       95     47.2      0.01      2.51      58.1     0.42      1012.1     1.3       E    91   4.8     ENE    78   9.97    416       -2.0
   12/06/2018 02:40      49.0      48.6       95     47.4      0.00      2.50      58.1     0.42      1012.2     1.4       E    91   3.3      SE   126   9.98    435       -1.9
   12/06/2018 02:30      49.2      48.7       95     47.4      0.02      2.50      58.1     0.41      1012.3     1.5     ESE   109   3.6       E    91   9.98    474       -1.9
   12/06/2018 02:20      49.2      48.8       95     47.5      0.01      2.48      58.1     0.41      1012.2     0.9       E    94   2.7     ESE   102   9.98    428       -1.9
   12/06/2018 02:10      49.3      48.9       95     47.6      0.02      2.47      58.0     0.41      1012.4     1.5       E    81   3.8       E    97   9.98    448       -1.9
   12/06/2018 02:00      49.5      49.0       95     47.8      0.01      2.45      58.1     0.40      1012.4     0.9       E    92   2.5       E    89   9.97    432       -1.8
   12/06/2018 01:50      49.7      49.2       95     47.9      0.01      2.44      58.1     0.40      1012.4     1.2       E    84   2.9     ESE   115   9.97    452       -1.8
   12/06/2018 01:40      49.7      49.3       95     48.0      0.02      2.43      58.1     0.39      1012.4     0.7     ESE   103   2.0     ENE    67   9.97    495       -1.7
   12/06/2018 01:30      49.7      49.2       95     47.9      0.01      2.41      58.1     0.39      1012.4     0.7     ESE   110   2.4     ENE    73   9.96    452       -1.7
   12/06/2018 01:20      49.6      49.2       95     47.9      0.02      2.40      58.2     0.39      1012.4     0.6     ESE   122   2.5      SE   137   9.96    446       -1.7
   12/06/2018 01:10      49.6      49.2       95     47.9      0.01      2.38      58.2     0.38      1012.4     0.5       E    80   2.1      NE    56   9.96    456       -1.8
   12/06/2018 01:00      49.5      49.2       95     47.8      0.01      2.37      58.2     0.38      1012.6     1.0     ESE   119   2.7      SE   129   9.96    466       -1.9
   12/06/2018 00:50      49.6      49.2       95     47.8      0.01      2.36      58.2     0.38      1012.4     0.9     ENE    68   2.0     ESE   118   9.96    420       -2.1
   12/06/2018 00:40      49.6      49.2       95     47.8      0.01      2.35      58.2     0.38      1012.6     1.5       E    93   2.7     SSE   162   9.96    430       -2.0
   12/06/2018 00:30      49.7      49.2       95     47.8      0.01      2.34      58.2     0.37      1012.7     1.7     ESE   120   5.2      SE   129   9.97    392       -2.0
   12/06/2018 00:20      49.7      49.2       94     47.9      0.01      2.33      58.2     0.37      1012.6     1.2     ESE   107   3.2      SE   131   9.97    427       -2.0
   12/06/2018 00:10      49.8      49.3       94     48.0      0.01      2.32      58.2     0.37      1012.7     1.0       E    95   3.0      SE   131   9.97    414       -2.1
   12/06/2018 00:00      49.9      49.5       94     48.0      0.02      2.31      58.2     0.37      1012.8     1.0       E    89   2.5      NE    36   9.97    487       -2.0
   12/05/2018 23:50      49.8      49.5       94     48.0      0.02      2.29      58.3     0.36      1012.9     0.6       E    83   2.1     ENE    62   9.96    438       -2.0
   12/05/2018 23:40      49.8      49.4       94     47.9      0.01      2.27      58.3     0.36      1012.9     0.5      NE    52   1.7      NE    54   9.96    426       -2.2
   12/05/2018 23:30      49.7      49.2       94     47.9      0.02      2.26      58.3     0.36      1012.9     0.7     ENE    62   1.8     ENE    60   9.96    457       -2.3
   12/05/2018 23:20      49.9      49.4       94     47.9      0.01      2.24      58.3     0.36      1012.9     1.6      SE   143   3.2      SE   131   9.95    436       -2.3
   12/05/2018 23:10      50.0      49.5       94     48.1      0.04      2.23      58.3     0.36      1013.0     0.0     ESE   118   0.6     ESE   110   9.95    459       -2.3
   12/05/2018 23:00      50.0      49.5       94     48.1      0.03      2.19      58.4     0.35      1013.0     0.9     ESE   113   2.8       E    98   9.92    467       -2.4
   12/05/2018 22:50      50.3      49.7       94     48.2      0.02      2.16      58.3     0.35      1013.0     0.9     ESE   110   2.5     ESE   122   9.90    468       -2.3
   12/05/2018 22:40      50.3      50.0       94     48.5      0.00      2.14      58.4     0.35      1013.1     0.3     ESE   103   2.2     ENE    69   9.89    413       -2.3
   12/05/2018 22:30      50.3      49.9       94     48.5      0.00      2.14      58.4     0.35      1013.2     0.7      SE   127   1.9       E    97   9.90    416       -2.3
   12/05/2018 22:20      50.5      50.0       94     48.5      0.00      2.14      58.4     0.35      1013.2     0.3     ESE   121   0.9     ESE   107   9.90    373       -2.3
   12/05/2018 22:10      50.5      50.0       94     48.6      0.00      2.14      58.4     0.35      1013.2     0.2       E    82   1.8     ENE    71   9.90    368       -2.2
   12/05/2018 22:00      50.5      50.0       94     48.6      0.00      2.14      58.4     0.35      1013.2     0.6     ESE   117   2.0     ESE   111   9.91    375       -2.2
   12/05/2018 21:50      50.5      50.1       94     48.6      0.01      2.14      58.5     0.35      1013.2     0.5       E    97   1.8       E    82   9.92    378       -2.1
   12/05/2018 21:40      50.5      50.0       94     48.7      0.00      2.13      58.4     0.35      1013.2     0.4     ENE    65   1.8     ENE    60   9.92    436       -2.0
   12/05/2018 21:30      50.3      49.9       94     48.5      0.00      2.13      58.4     0.35      1013.2     0.7     ENE    56   2.7     ENE    59   9.92    352       -1.9
   12/05/2018 21:20      50.2      49.9       94     48.5      0.00      2.13      58.4     0.35      1013.2     1.5      NE    40   2.6     ENE    62   9.93    358       -2.0
   12/05/2018 21:10      50.1      49.7       94     48.4      0.01      2.13      58.5     0.34      1013.2     1.4      NE    44   4.0      NE    39   9.93    375       -2.0
   12/05/2018 21:00      50.0      49.7       95     48.3      0.00      2.12      58.5     0.34      1013.2     1.1     NNE    31   2.3       N     8   9.93    418       -2.1
   12/05/2018 20:50      49.9      49.4       94     48.0      0.01      2.12      58.5     0.34      1013.2     0.5      NE    38   1.7      NE    55   9.93    427       -2.2
   12/05/2018 20:40      49.7      49.3       94     47.9      0.01      2.11      58.5     0.34      1013.2     0.0      SE   130   1.0      SE   144   9.93    451       -2.3
   12/05/2018 20:30      49.7      49.3       94     47.8      0.02      2.10      58.5     0.34      1013.2     1.3     ESE   116   2.6      SE   131   9.93    454       -2.3
   12/05/2018 20:20      49.6      49.2       94     47.8      0.02      2.08      58.6     0.34      1013.2     1.0       E    87   2.1     ESE   113   9.93    434       -2.4
   12/05/2018 20:10      49.7      49.3       94     47.7      0.03      2.06      58.6     0.34      1013.2     1.6     SSE   147   3.5      SE   138   9.91    474       -2.4
   12/05/2018 20:00      49.7      49.2       94     47.7      0.02      2.03      58.6     0.33      1013.0     1.5     ENE    76   3.7      SE   130   9.88    445       -2.4
   12/05/2018 19:50      49.9      49.3       94     47.7      0.03      2.01      58.6     0.33      1013.0     1.3       E   100   2.8     ESE   114   9.87    458       -2.2
   12/05/2018 19:40      50.0      49.5       94     48.0      0.04      1.98      58.6     0.33      1013.0     0.4     ENE    66   1.3       E    89   9.84    442       -2.3
   12/05/2018 19:30      50.0      49.7       94     48.0      0.05      1.94      58.6     0.33      1012.9     0.1      NE    49   1.8      NW   319   9.80    481       -2.4
   12/05/2018 19:20      50.0      49.7       94     48.0      0.01      1.89      58.6     0.32      1012.8     1.0     NNE    25   3.5       N   354   9.76    434       -2.5
   12/05/2018 19:10      50.0      49.6       93     48.0      0.04      1.88      58.6     0.32      1012.7     1.2     NNE    29   2.7      NE    45   9.74    467       -2.5
   12/05/2018 19:00      50.1      49.7       93     48.1      0.03      1.84      58.6     0.32      1012.6     1.7      NE    34   3.3      NE    42   9.71    464       -2.4
   12/05/2018 18:50      50.7      49.9       93     48.3      0.04      1.81      58.6     0.32      1012.6     1.9      NE    37   3.9     NNE    22   9.68    461       -2.4
   12/05/2018 18:40      50.8      50.2       93     48.5      0.02      1.77      58.6     0.31      1012.5     1.7      NE    52   3.4      NE    45   9.65    521       -2.3
   12/05/2018 18:30      50.6      50.2       93     48.5      0.03      1.75      58.6     0.31      1012.5     1.5      NE    38   3.3      NE    38   9.63    487       -2.3
   12/05/2018 18:20      50.6      50.2       93     48.5      0.01      1.72      58.6     0.31      1012.6     1.1      NE    44   2.3      NE    41   9.60    459       -2.6
   12/05/2018 18:10      50.5      50.1       93     48.3      0.00      1.71      58.6     0.31      1012.5     0.6      NE    54   1.6     ENE    58   9.59    408       -2.8
   12/05/2018 18:00      50.4      50.0       93     48.1      0.00      1.71      58.6     0.31      1012.4     1.1     ENE    60   2.2     ENE    64   9.59    404       -3.0
   12/05/2018 17:50      50.4      50.0       93     48.0      0.00      1.71      58.6     0.31      1012.4     1.4      NE    54   2.8     ENE    56   9.59    367       -2.9
   12/05/2018 17:40      50.5      50.0       92     48.1      0.01      1.71      58.6     0.31      1012.3     1.1      NE    52   2.8      NE    43   9.59    383       -3.1
   12/05/2018 17:30      50.4      49.9       92     47.9      0.00      1.70      58.6     0.31      1012.3     1.7      NE    51   3.3      NE    37   9.59    461       -3.2
   12/05/2018 17:20      50.3      50.0       92     47.9      0.00      1.70      58.6     0.31      1012.3     0.9      NE    54   2.4     ENE    60   9.58    356       -3.3
   12/05/2018 17:10      50.3      49.8       92     47.7      0.01      1.70      58.6     0.31      1012.2     1.2      NE    47   3.9      NE    54   9.58    390       -3.5
   12/05/2018 17:00      50.3      49.9       91     47.5      0.01      1.69      58.5     0.31      1012.2     1.8      NE    53   3.5      NE    42   9.57    456       -3.3
   12/05/2018 16:50      50.3      49.9       90     47.3      0.01      1.68      58.5     0.31      1012.3     1.2      NE    51   2.1     NNE    33   9.56    443       -3.0
   12/05/2018 16:40      50.5      49.9       90     47.4      0.01      1.67      58.6     0.31      1012.3     0.9      NE    38   2.9      NE    49   9.56    457       -1.3
   12/05/2018 16:30      50.5      50.1       89     47.3      0.00      1.66      58.5     0.31      1012.3     0.6      NE    53   1.9     ENE    65   9.54    437        2.6
   12/05/2018 16:20      50.5      50.0       89     47.0      0.01      1.66      58.5     0.31      1012.2     0.5     ENE    70   1.6     NNW   348   9.54    355        3.2
   12/05/2018 16:10      50.4      50.0       88     46.8      0.00      1.65      58.5     0.31      1012.2     0.5     ENE    60   2.8      NE    48   9.54    359        6.5
   12/05/2018 16:00      50.5      50.0       87     46.4      0.00      1.65      58.5     0.31      1012.2     1.7      NE    48   3.5      NE    55   9.54    382        6.4
   12/05/2018 15:50      50.9      50.3       84     45.8      0.01      1.65      58.5     0.31      1012.4     2.0     ENE    63   3.9      NE    40   9.54    477        8.2
   12/05/2018 15:40      50.7      50.2       83     45.5      0.00      1.64      58.5     0.31      1012.3     2.2     ENE    72   4.9     ENE    72   9.53    374        6.6
   12/05/2018 15:30      50.7      50.3       83     45.6      0.01      1.64      58.5     0.31      1012.2     2.1       E    80   5.4     ENE    66   9.53    364        3.2
   12/05/2018 15:20      50.9      50.5       83     45.6      0.00      1.63      58.5     0.31      1012.2     1.5     ENE    78   3.6       E   101   9.53    416       25.2
   12/05/2018 15:10      51.5      50.5       81     45.0      0.00      1.63      58.5     0.31      1012.3     2.5       E    88   5.8     ESE   105   9.53    389       14.4
   12/05/2018 15:00      51.9      51.0       77     44.5      0.00      1.63      58.5     0.31      1012.3     3.1       E    99   5.7       E    80   9.53    338       17.8
   12/05/2018 14:50      53.5      51.7       73     43.9      0.00      1.63      58.4     0.31      1012.3     3.1       E    97   7.3       E    97   9.53    322       27.1
   12/05/2018 14:40      54.1      53.2       68     43.3      0.00      1.63      58.5     0.31      1012.3     3.7     ESE   104   7.6     SSE   147   9.53    335       65.3
   12/05/2018 14:30      53.8      53.4       69     43.6      0.00      1.63      58.4     0.31      1012.1     2.7     ENE    73   6.6      NE    56   9.52    326       59.9
   12/05/2018 14:20      53.7      53.0       70     44.0      0.00      1.63      58.5     0.31      1012.1     2.5      NE    56   5.8      NE    41   9.52    367       64.8
   12/05/2018 14:10      53.3      52.6       71     43.8      0.00      1.63      58.5     0.31      1012.3     1.6     ENE    66   3.1     ENE    57   9.52    310       64.5
   12/05/2018 14:00      53.0      52.6       71     43.7      0.00      1.63      58.5     0.31      1012.4     1.3     ENE    74   4.3       E    81   9.52    330       49.7
   12/05/2018 13:50      54.1      52.7       68     42.8      0.00      1.63      58.4     0.31      1012.5     4.4       E    90  10.3       E    82   9.52    389       54.8
   12/05/2018 13:40      54.9      53.9       62     41.5      0.00      1.63      58.4     0.31      1012.5     4.8       E    97  10.6      SE   138   9.52    269       60.4
   12/05/2018 13:30      54.9      54.5       62     41.8      0.00      1.63      58.4     0.31      1012.4     4.8       E    91   8.9     ESE   106   9.52    283       44.7
   12/05/2018 13:20      54.9      54.2       64     42.6      0.00      1.63      58.4     0.31      1012.5     2.8       E    92   9.1       S   172   9.52    273       26.6
   12/05/2018 13:10      54.4      53.3       67     43.1      0.00      1.63      58.4     0.31      1012.6     3.0     ENE    71   8.1     ENE    67   9.52    274       31.1
   12/05/2018 13:00      53.4      52.5       72     44.0      0.00      1.63      58.4     0.31      1012.7     2.5     ENE    76   7.2      NE    36   9.52    267       21.7
   12/05/2018 12:50      54.1      52.5       72     44.4      0.00      1.63      58.4     0.31      1013.0     4.0     ESE   113   9.3     SSE   148   9.52    286       43.2
   12/05/2018 12:40      54.5      53.9       66     43.0      0.00      1.63      58.3     0.31      1013.0     4.2     ESE   118   8.0     ESE   104   9.52    271       77.4
   12/05/2018 12:30      54.9      54.0       65     42.6      0.00      1.63      58.3     0.31      1013.2     5.0     ESE   108   9.1     ESE   106   9.52    267       61.6
   12/05/2018 12:20      56.3      54.6       58     40.8      0.00      1.63      58.3     0.31      1013.2     5.9     ESE   118  12.2     SSE   163   9.52    266       65.3
   12/05/2018 12:10      56.8      56.0       52     39.0      0.00      1.63      58.3     0.31      1013.3     5.3       E    83   9.1     ENE    63   9.52    266       98.1
   12/05/2018 12:00      57.2      56.4       52     39.4      0.00      1.63      58.4     0.31      1013.4     3.6       E    90   7.7      SE   130   9.52    266       98.5
   12/05/2018 11:50      57.0      56.4       52     39.3      0.00      1.63      58.3     0.31      1013.5     2.6     ENE    75   6.4     ESE   115   9.52    266      107.3
   12/05/2018 11:40      56.7      56.3       53     39.4      0.00      1.63      58.3     0.31      1013.6     3.2     ENE    63   5.5     ENE    59   9.52    266      101.1
   12/05/2018 11:30      56.6      56.1       53     39.3      0.00      1.63      58.3     0.31      1013.8     2.7     ENE    57   5.7     NNE    24   9.52    266       99.0
   12/05/2018 11:20      56.6      56.1       53     39.3      0.00      1.63      58.3     0.31      1014.0     2.4     ENE    60   5.6      NE    49   9.52    266      100.5
   12/05/2018 11:10      56.8      56.3       52     39.0      0.00      1.63      58.3     0.31      1014.1     2.5     ENE    65   6.0     ESE   117   9.52    266      132.3
   12/05/2018 11:00      56.6      55.8       52     38.8      0.00      1.63      58.3     0.31      1014.3     2.6     ENE    70   6.2     ESE   103   9.52    266      171.2
   12/05/2018 10:50      56.0      55.5       53     38.9      0.00      1.63      58.3     0.31      1014.6     3.2     ENE    61   7.0     ENE    66   9.52    266      143.5
   12/05/2018 10:40      55.8      55.0       59     41.1      0.00      1.63      58.4     0.31      1014.8     1.8     ENE    72   4.3     ESE   107   9.52    266      134.9
   12/05/2018 10:30      55.1      54.1       62     41.7      0.00      1.63      58.4     0.31      1014.8     0.9     ENE    69   2.5     ENE    66   9.52    267      106.8
   12/05/2018 10:20      54.4      53.8       63     41.8      0.00      1.63      58.4     0.31      1014.9     1.7     NNE    31   3.3       N     0   9.52    267      113.7
   12/05/2018 10:10      54.3      53.7       64     42.1      0.00      1.63      58.4     0.31      1015.1     1.2      NE    42   2.8     ENE    61   9.52    267      119.7
   12/05/2018 10:00      54.0      53.5       63     41.5      0.00      1.63      58.4     0.31      1015.1     1.1     ENE    73   2.3       E   101   9.52    267      136.2
   12/05/2018 09:50      53.7      52.5       63     40.8      0.00      1.63      58.4     0.31      1015.1     1.3       E    98   3.5       E    84   9.52    267      210.2
   12/05/2018 09:40      52.9      51.9       66     41.4      0.00      1.63      58.4     0.31      1015.1     1.1     ESE   116   2.7     SSE   158   9.52    267      194.2
   12/05/2018 09:30      52.0      51.1       70     42.1      0.00      1.63      58.4     0.31      1015.1     0.8      NE    54   1.9      NE    56   9.52    267      144.6
   12/05/2018 09:20      51.4      50.4       76     43.8      0.00      1.63      58.4     0.31      1015.2     1.2      NE    49   2.6     NNE    31   9.52    268      138.0
   12/05/2018 09:10      50.6      49.2       80     43.9      0.00      1.63      58.4     0.31      1015.2     1.0     ESE   107   2.4       S   171   9.52    268      144.2
   12/05/2018 09:00      49.5      48.4       85     44.4      0.00      1.63      58.4     0.31      1015.2     0.4       E   101   2.4      SE   143   9.52    269      122.9
   12/05/2018 08:50      48.7      48.2       85     44.1      0.00      1.63      58.4     0.31      1015.3     0.0     ENE    59   0.7     ENE    69   9.52    272       34.5
   12/05/2018 08:40      48.4      48.1       85     44.1      0.00      1.63      58.5     0.31      1015.3     0.5      SE   134   1.9      SE   133   9.52    273       20.3
   12/05/2018 08:30      48.4      47.7       84     43.5      0.00      1.63      58.5     0.31      1015.1     0.4     ENE    73   1.9      SE   139   9.52    275       12.7
   12/05/2018 08:20      48.0      47.4       84     43.0      0.00      1.63      58.5     0.31      1015.1     0.4      NE    50   1.5      NE    54   9.52    276       11.0
   12/05/2018 08:10      47.7      47.1       85     43.0      0.00      1.63      58.5     0.31      1014.8     0.8     ESE   112   3.1      SE   138   9.52    277       15.0
   12/05/2018 08:00      47.2      46.8       86     42.9      0.00      1.63      58.5     0.31      1014.8     0.3      SE   146   2.9      SE   142   9.52    279       13.2
   12/05/2018 07:50      47.1      46.7       88     43.6      0.00      1.63      58.5     0.31      1014.9     1.1     SSE   155   2.4      SE   145   9.52    281       10.4
   12/05/2018 07:40      47.1      46.3       88     43.4      0.00      1.63      58.5     0.31      1014.8     0.7     SSE   167   2.0      SE   144   9.52    283       11.7
   12/05/2018 07:30      46.5      45.9       88     42.9      0.00      1.63      58.5     0.31      1014.6     0.0      SE   136   0.6      SE   136   9.52    283       10.4
   12/05/2018 07:20      46.3      45.9       88     42.7      0.00      1.63      58.6     0.31      1014.5     0.4       S   182   1.4       S   191   9.52    285        6.2
   12/05/2018 07:10      46.1      45.6       88     42.4      0.00      1.63      58.6     0.31      1014.4     0.2      SE   145   1.3      SE   142   9.52    286        0.9
   12/05/2018 07:00      45.8      45.0       88     42.0      0.00      1.63      58.6     0.31      1014.3     0.1       N   358   1.1       N     5   9.52    286       -1.2
   12/05/2018 06:50      45.3      44.8       88     41.6      0.00      1.63      58.6     0.31      1014.3     0.7       S   170   2.1      SE   144   9.52    288       -2.8
   12/05/2018 06:40      45.0      44.6       88     41.3      0.00      1.63      58.6     0.31      1014.2     1.1      SE   138   2.7      SE   142   9.52    288       -3.6
   12/05/2018 06:30      44.8      44.5       85     40.3      0.00      1.63      58.6     0.31      1014.0     1.1     SSE   147   2.5      SE   140   9.52    290       -5.0
   12/05/2018 06:20      44.8      44.4       84     40.0      0.00      1.63      58.6     0.31      1013.8     1.3       S   184   3.6       S   182   9.52    292       -6.9
   12/05/2018 06:10      45.1      44.4       86     40.8      0.00      1.63      58.6     0.31      1013.9     1.2       S   178   3.2     SSW   206   9.52    302       -6.9
   12/05/2018 06:00      45.3      44.8       86     41.0      0.00      1.63      58.6     0.31      1013.9     1.4      SE   140   4.1     SSE   166   9.52    306       -7.4
   12/05/2018 05:50      45.9      45.1       85     41.2      0.00      1.63      58.6     0.31      1013.8     0.8     SSE   149   2.6       S   180   9.52    337       -7.7
   12/05/2018 05:40      47.0      45.7       84     41.5      0.00      1.63      58.7     0.31      1013.9     2.5     SSE   166   5.0     SSW   202   9.52    341       -7.4
   12/05/2018 05:30      46.8      46.2       83     41.6      0.01      1.63      58.7     0.31      1013.5     2.0     NNW   346   6.3     NNE    18   9.52    368       -7.1
   12/05/2018 05:20      46.4      45.9       86     41.9      0.01      1.62      58.7     0.31      1013.3     3.1     ENE    64   5.3      SE   142   9.52    373       -6.5
   12/05/2018 05:10      47.1      45.9       86     42.3      0.00      1.61      58.7     0.31      1014.1     2.1       E    92   4.5     SSE   147   9.51    384       -5.0
   12/05/2018 05:00      47.2      46.5       84     42.2      0.02      1.61      58.7     0.31      1014.5     1.3     SSE   153   3.2     SSW   210   9.50    409       -5.8
   12/05/2018 04:50      48.1      47.0       81     42.0      0.01      1.59      58.7     0.31      1014.3     1.2     ESE   104   3.2     SSW   202   9.49    388       -5.3
   12/05/2018 04:40      48.6      47.8       78     41.6      0.01      1.58      58.7     0.31      1014.4     0.7     ESE   120   1.4       S   176   9.48    378       -5.7
   12/05/2018 04:30      48.8      48.2       74     40.5      0.00      1.57      58.7     0.31      1014.3     0.5     NNE    28   1.8       N     7   9.47    337       -4.2
   12/05/2018 04:20      48.7      48.2       73     40.2      0.00      1.57      58.7     0.31      1014.1     1.1     WSW   253   3.3       W   275   9.47    307       -4.2
   12/05/2018 04:10      49.0      48.3       73     40.4      0.00      1.57      58.7     0.31      1013.8     1.4       N     7   2.7      NE    47   9.47    307       -4.3
   12/05/2018 04:00      48.8      47.5       65     36.9      0.00      1.57      58.7     0.31      1014.2     1.2       S   176   2.2       S   181   9.47    308       -5.4
   12/05/2018 03:50      47.9      47.3       73     39.3      0.00      1.57      58.8     0.31      1013.9     0.3      SW   225   1.5      SW   225   9.47    309       -4.7
   12/05/2018 03:40      47.9      47.3       71     38.6      0.00      1.57      58.8     0.31      1013.8     0.0       E    91   0.9       E    91   9.47    311       -4.5
   12/05/2018 03:30      47.8      47.2       72     38.6      0.00      1.57      58.8     0.31      1013.9     0.5      SE   131   1.6      SE   139   9.47    311       -4.7
   12/05/2018 03:20      47.8      47.3       73     39.1      0.00      1.57      58.8     0.31      1013.8     0.2      NE    35   1.3     NNE    33   9.47    312       -4.9
   12/05/2018 03:10      47.8      47.2       71     38.7      0.00      1.57      58.8     0.31      1014.2     0.6     SSE   159   1.9      SW   232   9.47    313       -4.7
   12/05/2018 03:00      48.1      47.2       73     39.3      0.00      1.57      58.8     0.31      1014.1     1.1       E    85   2.3      SW   234   9.47    313       -4.8
   12/05/2018 02:50      48.0      47.3       70     38.2      0.00      1.57      58.8     0.31      1014.4     0.5      NE    38   1.5     ENE    64   9.47    314       -4.6
   12/05/2018 02:40      47.5      47.0       72     38.5      0.00      1.57      58.9     0.31      1014.4     1.2      SE   143   2.6     SSE   148   9.47    315       -5.1
   12/05/2018 02:30      47.1      46.7       72     38.2      0.00      1.57      58.9     0.31      1014.5     0.9     SSE   155   1.7      SE   129   9.47    316       -4.9
   12/05/2018 02:20      47.4      46.7       72     38.5      0.00      1.57      58.9     0.31      1014.6     1.2     SSE   148   2.5     SSE   147   9.47    317       -5.1
   12/05/2018 02:10      48.2      47.1       64     35.7      0.00      1.57      58.9     0.31      1014.7     1.3     SSE   161   2.1     SSE   166   9.47    318       -6.9
   12/05/2018 02:00      48.2      47.8       58     34.0      0.00      1.57      58.9     0.31      1014.3     0.4       S   184   2.1       S   175   9.47    326      -11.4
   12/05/2018 01:50      48.1      47.3       62     35.2      0.01      1.57      59.0     0.31      1014.1     1.8     ESE   108   4.8       E    81   9.47    363      -11.3
   12/05/2018 01:40      48.9      47.8       64     36.6      0.00      1.56      58.9     0.31      1015.0     1.2     ENE    59   2.9     ESE   104   9.46    354       -8.4
   12/05/2018 01:30      48.7      47.3       59     34.4      0.00      1.56      58.9     0.31      1015.5     2.0      SE   128   4.0      SE   127   9.46    306       -9.1
   12/05/2018 01:20      48.6      48.2       56     33.4      0.00      1.56      59.0     0.31      1015.5     0.7     SSE   161   2.2      SE   136   9.46    313      -10.1
   12/05/2018 01:10      48.5      48.1       54     32.4      0.00      1.56      59.0     0.31      1015.7     0.2     ESE   108   0.8      SE   128   9.46    266      -13.3
   12/05/2018 01:00      48.3      47.5       55     32.5      0.00      1.56      59.0     0.31      1015.9     1.0       S   177   1.8       S   179   9.46    266      -15.5
   12/05/2018 00:50      48.0      47.5       56     32.6      0.00      1.56      59.0     0.31      1015.7     0.2      SE   143   0.9      SE   138   9.46    266      -15.5
   12/05/2018 00:40      48.1      47.5       54     32.0      0.00      1.56      59.1     0.31      1015.9     0.3       S   180   0.9     SSW   197   9.46    266      -15.0
   12/05/2018 00:30      48.1      47.7       54     32.1      0.00      1.56      59.0     0.31      1015.9     0.0     NNE    12   0.7     NNE    11   9.46    266      -14.2
   12/05/2018 00:20      48.0      47.2       52     30.8      0.00      1.56      59.1     0.31      1015.9     0.0     NNE    20   0.5     NNE    20   9.46    266      -15.1
   12/05/2018 00:10      47.6      47.2       53     31.2      0.00      1.56      59.1     0.31      1016.0     0.3       S   184   1.4       S   186   9.46    266      -16.7
   12/05/2018 00:00      47.6      47.2       54     31.5      0.00      1.56      59.1     0.31      1016.1     0.6      NE    45   1.6      NE    53   9.46    266      -16.0
   12/04/2018 23:50      47.7      47.0       53     30.9      0.00      1.56      59.1     0.31      1016.4     0.2       S   170   1.3       S   177   9.46    266      -17.4
   12/04/2018 23:40      47.7      46.9       50     29.8      0.00      1.56      59.1     0.31      1016.3     0.0       N     0   0.0     SSE   166   9.47    266      -13.8
   12/04/2018 23:30      47.2      46.8       52     30.1      0.00      1.56      59.2     0.31      1016.2     0.0       S   170   0.6       S   174   9.47    266      -20.8
   12/04/2018 23:20      47.0      45.9       53     30.5      0.00      1.56      59.1     0.31      1016.0     0.7      SE   141   1.4      SE   146   9.47    266      -32.0
   12/04/2018 23:10      46.2      45.8       55     30.7      0.00      1.56      59.2     0.31      1015.9     0.5     SSE   157   1.2     SSE   148   9.47    266      -27.5
   12/04/2018 23:00      46.0      45.4       55     30.3      0.00      1.56      59.2     0.31      1015.9     0.0     SSE   164   0.7     SSE   163   9.47    266      -37.7
   12/04/2018 22:50      45.7      44.9       56     30.3      0.00      1.56      59.2     0.31      1015.8     0.6     SSE   160   1.6     SSE   148   9.47    266      -34.0
   12/04/2018 22:40      45.2      44.6       57     30.4      0.00      1.56      59.2     0.31      1015.7     0.4       S   176   1.4       S   191   9.47    266      -44.5
   12/04/2018 22:30      45.1      44.6       58     30.8      0.00      1.56      59.2     0.31      1015.7     0.9       S   174   1.9     SSE   166   9.47    266      -54.0
   12/04/2018 22:20      45.6      44.8       56     30.1      0.00      1.56      59.3     0.31      1015.7     0.6     SSE   164   1.5       S   172   9.47    266      -57.0
   12/04/2018 22:10      45.9      45.1       54     29.9      0.00      1.56      59.3     0.31      1015.7     0.5     SSE   157   1.1     SSE   154   9.47    266      -57.1
   12/04/2018 22:00      46.2      45.6       52     29.1      0.00      1.56      59.3     0.31      1015.9     0.6     SSE   156   1.2      SE   142   9.47    266      -57.1
   12/04/2018 21:50      46.5      45.9       51     28.9      0.00      1.56      59.3     0.31      1015.9     0.4       S   173   1.0      SE   142   9.47    266      -58.0
   12/04/2018 21:40      46.8      46.2       52     29.6      0.00      1.56      59.3     0.31      1015.8     0.6     SSW   202   1.4     SSW   209   9.47    266      -57.6
   12/04/2018 21:30      47.1      46.2       52     29.8      0.00      1.56      59.3     0.31      1015.8     0.2      NW   322   1.1      NW   318   9.47    265      -58.0
   12/04/2018 21:20      47.0      46.2       51     29.5      0.00      1.56      59.3     0.31      1015.8     0.7      SE   141   1.9      SE   139   9.47    266      -59.8
   12/04/2018 21:10      46.9      46.3       52     29.7      0.00      1.56      59.3     0.31      1015.7     1.3     SSE   155   2.1       S   175   9.47    265      -63.1
   12/04/2018 21:00      47.0      46.4       51     29.7      0.00      1.56      59.3     0.31      1015.8     1.3     SSE   150   2.1      SE   144   9.47    265      -64.4
   12/04/2018 20:50      47.2      46.5       51     29.7      0.00      1.56      59.3     0.31      1015.9     0.7     SSE   156   1.6      SE   142   9.47    265      -64.0
   12/04/2018 20:40      47.3      46.9       49     29.1      0.00      1.56      59.3     0.31      1015.9     0.8     SSE   155   1.6     SSE   148   9.47    265      -63.9
   12/04/2018 20:30      48.1      47.0       49     29.0      0.00      1.56      59.3     0.31      1015.7     0.5      SE   142   1.2     SSE   157   9.47    265      -64.1
   12/04/2018 20:20      48.8      47.8       45     27.6      0.00      1.56      59.3     0.31      1015.6     0.8     SSE   154   1.5      SE   138   9.47    265      -64.3
   12/04/2018 20:10      49.0      48.6       43     27.1      0.00      1.56      59.3     0.31      1015.6     0.2     SSE   153   0.8     SSE   153   9.47    265      -64.7
   12/04/2018 20:00      49.6      48.7       43     27.6      0.00      1.56      59.3     0.31      1015.6     0.5     SSE   153   1.2     SSE   149   9.47    264      -65.1
   12/04/2018 19:50      49.5      49.2       42     27.1      0.00      1.56      59.3     0.31      1015.4     0.7     SSE   159   1.1     SSE   150   9.48    264      -64.0
   12/04/2018 19:40      49.8      49.3       43     27.7      0.00      1.56      59.3     0.31      1015.3     0.8     SSE   157   1.8      SE   144   9.48    264      -64.5
   12/04/2018 19:30      50.1      49.5       43     28.1      0.00      1.56      59.3     0.31      1015.1     1.3     SSE   153   2.1     SSE   148   9.48    264      -64.5
   12/04/2018 19:20      50.6      49.9       41     27.5      0.00      1.56      59.3     0.31      1015.0     1.1     SSE   157   2.0       S   184   9.48    264      -65.7
   12/04/2018 19:10      51.0      50.4       41     27.5      0.00      1.56      59.2     0.31      1015.0     1.2     SSE   153   2.5      SE   142   9.48    264      -67.0
   12/04/2018 19:00      51.3      50.7       40     27.7      0.00      1.56      59.2     0.31      1015.0     1.0       S   180   2.8       S   172   9.48    264      -68.7
   12/04/2018 18:50      51.8      51.0       39     27.2      0.00      1.56      59.2     0.31      1015.0     1.2     SSE   152   2.5      SE   144   9.48    264      -70.5
   12/04/2018 18:40      52.2      51.7       38     26.8      0.00      1.56      59.2     0.31      1014.9     1.1     SSE   163   2.0      SE   139   9.48    264      -70.4
   12/04/2018 18:30      52.1      51.3       38     26.8      0.00      1.56      59.2     0.31      1014.8     0.9     SSE   158   1.7     SSE   148   9.48    264      -72.7
   12/04/2018 18:20      51.9      51.2       40     27.9      0.00      1.56      59.1     0.31      1014.8     1.0     SSE   165   2.0     SSE   163   9.49    264      -74.2
   12/04/2018 18:10      53.1      51.7       39     27.9      0.00      1.56      59.1     0.31      1014.6     1.0     SSE   162   1.7      SE   144   9.49    264      -75.6
   12/04/2018 18:00      53.6      52.7       36     26.6      0.00      1.56      59.1     0.31      1014.7     1.2     SSE   161   2.4      SE   144   9.49    264      -76.5
   12/04/2018 17:50      54.4      53.1       36     27.5      0.00      1.56      59.1     0.31      1014.7     1.2     SSE   160   2.6      SE   144   9.49    264      -77.8
   12/04/2018 17:40      54.7      53.7       35     27.2      0.00      1.56      59.1     0.31      1014.7     1.2     SSE   163   2.7       S   188   9.49    264      -79.1
   12/04/2018 17:30      55.9      54.5       33     26.9      0.00      1.56      59.0     0.31      1014.7     1.2     SSE   156   3.1      SE   140   9.49    264      -79.5
   12/04/2018 17:20      57.1      55.6       31     26.4      0.00      1.56      59.0     0.31      1014.6     0.9     SSE   167   2.1     SSW   192   9.49    263      -81.4
   12/04/2018 17:10      58.1      56.4       31     27.1      0.00      1.56      59.0     0.31      1014.5     1.5       S   173   3.0     SSW   193   9.49    263      -82.8
   12/04/2018 17:00      61.3      58.0       27     25.1      0.00      1.56      58.9     0.31      1014.4     1.0     SSE   153   3.2      SE   143   9.50    263      -84.6
   12/04/2018 16:50      62.6      60.9       22     22.6      0.00      1.56      58.9     0.31      1014.5     0.5       S   184   1.5       S   181   9.50    262      -85.9
   12/04/2018 16:40      63.6      62.4       21     22.1      0.00      1.56      58.9     0.31      1014.4     1.0      NE    52   3.1     NNE    12   9.50    262      -85.2
   12/04/2018 16:30      65.3      63.3       22     24.6      0.00      1.56      58.8     0.31      1014.4     1.0      NW   312   4.3       N   351   9.50    262      -81.8
   12/04/2018 16:20      66.7      65.3       21     25.1      0.00      1.56      58.8     0.31      1014.5     0.1       E    81   1.2     ESE   111   9.50    261      -79.9
   12/04/2018 16:10      67.6      66.3       20     24.6      0.00      1.56      58.8     0.31      1014.5     1.2      SE   138   2.6      SE   144   9.50    261      -60.0
   12/04/2018 16:00      68.4      67.3       19     24.0      0.00      1.56      58.8     0.31      1014.3     1.1      SE   132   3.5      SE   130   9.51    261      -46.0
   12/04/2018 15:50      68.7      68.2       18     22.8      0.00      1.56      58.7     0.31      1014.3     0.8     ESE   107   4.1      SE   135   9.51    261      -27.3
   12/04/2018 15:40      69.1      68.2       18     22.8      0.00      1.56      58.7     0.31      1014.1     0.8      NE    56   3.0     ENE    67   9.51    261       -4.8
   12/04/2018 15:30      68.4      67.7       17     21.9      0.00      1.56      58.7     0.31      1014.1     1.7     ENE    73   4.2      NE    42   9.51    261       19.7
   12/04/2018 15:20      68.6      68.0       17     22.1      0.00      1.56      58.6     0.31      1014.2     2.6      NE    55   4.8       E    93   9.51    261       40.0
   12/04/2018 15:10      68.7      68.2       17     22.6      0.00      1.56      58.5     0.31      1014.3     2.4      NE    52   5.5     ESE   110   9.51    261       61.3
   12/04/2018 15:00      68.7      68.3       17     22.1      0.00      1.56      58.6     0.31      1014.5     1.9      NE    54   4.1     ESE   111   9.51    261       84.3
   12/04/2018 14:50      69.1      68.2       17     21.9      0.00      1.56      58.5     0.31      1014.5     2.6       E    92   6.6       E    92   9.51    260      107.6
   12/04/2018 14:40      69.4      68.5       17     22.2      0.00      1.56      58.5     0.31      1014.7     1.8       E    80   4.6      SE   134   9.52    260      127.8
   12/04/2018 14:30      69.0      68.5       17     22.7      0.00      1.56      58.5     0.31      1014.8     2.6     NNE    33   5.1      NE    37   9.52    260      145.9
   12/04/2018 14:20      69.0      68.3       18     22.9      0.00      1.56      58.5     0.31      1015.0     2.9     NNE    20   5.4      NE    47   9.52    260      165.1
   12/04/2018 14:10      69.0      68.2       18     23.1      0.00      1.56      58.4     0.31      1015.0     3.6     NNE    28   7.7       N   355   9.52    261      183.2
   12/04/2018 14:00      69.7      68.5       17     22.8      0.00      1.56      58.4     0.31      1015.1     2.8      NE    47   7.3      NE    42   9.52    261      200.2
   12/04/2018 13:50      69.3      68.3       17     21.6      0.00      1.56      58.4     0.31      1015.2     2.4       E    88   4.7       E    82   9.52    260      216.7
   12/04/2018 13:40      69.3      68.1       17     21.7      0.00      1.56      58.3     0.31      1015.4     2.3      NE    44   5.1     NNW   340   9.52    260      230.5
   12/04/2018 13:30      70.5      68.3       16     21.3      0.00      1.56      58.3     0.31      1015.6     3.2      NE    43   6.6      NE    48   9.52    261      247.7
   12/04/2018 13:20      70.4      69.0       15     20.8      0.00      1.56      58.3     0.31      1015.7     1.2     NNE    30   4.2     ENE    60   9.52    261      259.8
   12/04/2018 13:10      69.8      68.5       15     19.9      0.00      1.56      58.3     0.31      1015.9     1.4       E   100   4.9     ESE   122   9.52    261      271.0
   12/04/2018 13:00      68.8      67.6       15     18.9      0.00      1.56      58.2     0.31      1015.9     2.5       E    98   6.7       E    84   9.52    261      282.8
   12/04/2018 12:50      67.9      67.3       15     18.5      0.00      1.56      58.2     0.31      1016.0     3.3       E    81   6.9     NNE    32   9.53    261      293.2
   12/04/2018 12:40      68.3      67.3       15     18.8      0.00      1.56      58.2     0.31      1016.2     3.8     ENE    59   7.8      NE    55   9.53    261      298.0
   12/04/2018 12:30      68.2      67.3       16     19.4      0.00      1.56      58.2     0.31      1016.4     2.4      NE    47   4.7      NE    44   9.53    261      302.6
   12/04/2018 12:20      68.0      67.3       16     20.2      0.00      1.56      58.2     0.31      1016.6     2.8     ENE    67   5.9     ENE    63   9.53    261      311.2
   12/04/2018 12:10      67.7      67.2       16     20.3      0.00      1.56      58.2     0.31      1016.8     2.7      NE    45   6.5      NE    53   9.53    261      315.9
   12/04/2018 12:00      67.7      67.1       17     20.6      0.00      1.56      58.2     0.31      1017.0     2.7     ENE    58   5.6     ENE    73   9.53    261      321.0
   12/04/2018 11:50      67.3      66.3       17     20.6      0.00      1.56      58.2     0.31      1017.2     2.9     ENE    62   7.2     ESE   117   9.53    261      331.8
   12/04/2018 11:40      67.2      66.3       17     20.5      0.00      1.56      58.2     0.31      1017.5     2.6       E    80   5.8      SE   128   9.53    261      346.4
   12/04/2018 11:30      66.9      66.1       17     20.9      0.00      1.56      58.2     0.31      1017.6     2.9       E    86   5.3     ENE    58   9.53    261      340.2
   12/04/2018 11:20      66.4      65.5       18     20.8      0.00      1.56      58.2     0.31      1017.8     3.1     ENE    70   8.2     ENE    76   9.53    261      333.0
   12/04/2018 11:10      66.3      65.0       18     20.5      0.00      1.56      58.2     0.30      1018.0     3.1      NE    44   6.1      NE    39   9.54    262      317.8
   12/04/2018 11:00      66.2      65.2       18     20.6      0.00      1.56      58.2     0.30      1018.2     2.4     ENE    69   5.2       E    89   9.54    261      313.5
   12/04/2018 10:50      65.4      64.6       19     21.6      0.00      1.56      58.2     0.30      1018.4     3.1     ENE    61   5.9      NE    48   9.54    261      307.4
   12/04/2018 10:40      65.0      64.3       20     22.4      0.00      1.56      58.2     0.30      1018.6     2.5     NNE    30   5.3       N     6   9.54    261      299.1
   12/04/2018 10:30      64.6      63.3       21     22.5      0.00      1.56      58.3     0.30      1018.8     1.8     NNE    30   4.1      NW   322   9.54    261      292.3
   12/04/2018 10:20      63.6      62.4       21     22.6      0.00      1.56      58.3     0.31      1018.9     2.4     NNE    33   5.1     NNE    22   9.54    262      289.2
   12/04/2018 10:10      63.5      62.5       21     22.9      0.00      1.56      58.3     0.31      1019.1     2.0     NNE    20   4.6     NNW   348   9.54    262      274.9
   12/04/2018 10:00      63.5      61.9       22     23.1      0.00      1.56      58.3     0.30      1019.3     0.9     NNE    31   2.7       N     8   9.54    263      276.6
   12/04/2018 09:50      62.4      61.6       22     22.8      0.00      1.56      58.4     0.31      1019.4     1.1       E    97   2.7      SE   131   9.54    263      250.9
   12/04/2018 09:40      62.0      61.0       23     23.2      0.00      1.56      58.4     0.31      1019.5     1.3       E    91   3.4     ENE    76   9.54    263      230.8
   12/04/2018 09:30      62.6      61.2       22     22.8      0.00      1.56      58.4     0.31      1019.5     1.1     ENE    66   2.7       N    10   9.54    263      217.0
   12/04/2018 09:20      61.9      60.8       22     22.2      0.00      1.56      58.4     0.31      1019.6     0.6     ESE   115   2.6       E    96   9.51    263      203.4
   12/04/2018 09:10      60.7      58.9       24     22.9      0.00      1.56      58.5     0.31      1019.5     0.5      SW   236   1.5     SSE   153   9.51    263      187.7
   12/04/2018 09:00      59.3      58.4       25     22.9      0.00      1.56      58.5     0.31      1019.5     1.2      SE   144   2.4       E    95   9.51    264      171.3
   12/04/2018 08:50      58.6      58.1       25     22.7      0.00      1.56      58.6     0.31      1019.5     1.0      SE   145   3.2     ESE   102   9.51    264      152.6
   12/04/2018 08:40      58.1      56.3       28     24.1      0.00      1.56      58.6     0.31      1019.4     0.9     ESE   117   2.4     ENE    69   9.51    264      134.0
   12/04/2018 08:30      56.3      54.5       30     24.4      0.00      1.56      58.6     0.31      1019.4     1.5      SE   126   3.6     ESE   110   9.51    264      116.4
   12/04/2018 08:20      54.7      52.0       34     25.5      0.00      1.56      58.6     0.31      1019.3     1.5      SE   132   2.3      SE   136   9.51    265       99.8
   12/04/2018 08:10      52.0      48.2       45     29.2      0.00      1.56      58.7     0.31      1019.3     1.3     SSE   158   3.1      SE   142   9.52    266       82.3
   12/04/2018 08:00      48.1      43.7       51     28.6      0.00      1.56      58.7     0.31      1019.3     0.8      SE   144   2.1     SSE   147   9.52    266       66.0
   12/04/2018 07:50      43.7      42.0       61     29.9      0.00      1.56      58.7     0.31      1019.3     0.0     SSE   168   0.7     SSE   168   9.52    267       16.8
   12/04/2018 07:40      42.2      41.8       57     28.0      0.00      1.56      58.7     0.31      1019.3     0.0       E    86   0.5       E    94   9.52    267      -40.8
   12/04/2018 07:30      42.3      41.7       56     27.7      0.00      1.56      58.8     0.31      1019.4     0.8       E   100   2.2      SE   138   9.52    267      -46.8
   12/04/2018 07:20      42.0      41.4       57     27.3      0.00      1.56      58.8     0.31      1019.4     0.6     SSE   152   1.7     SSE   151   9.52    267      -48.3
   12/04/2018 07:10      41.9      41.1       57     27.2      0.00      1.56      58.8     0.31      1019.5     0.8     SSE   147   2.2      SE   142   9.52    267      -53.2
   12/04/2018 07:00      41.4      40.8       58     27.2      0.00      1.56      58.8     0.31      1019.4     0.7     SSE   167   1.5      SE   139   9.52    267      -57.3
   12/04/2018 06:50      41.4      40.1       60     27.8      0.00      1.56      58.8     0.31      1019.3     1.1     SSE   151   2.4      SE   138   9.52    267      -60.1
   12/04/2018 06:40      40.4      40.0       62     28.3      0.00      1.56      58.9     0.31      1019.3     0.9     SSE   165   1.5       S   175   9.52    267      -61.6
   12/04/2018 06:30      40.3      39.8       63     28.3      0.00      1.56      58.8     0.31      1019.2     0.5     SSE   154   1.6      SE   139   9.52    267      -62.9
   12/04/2018 06:20      40.4      39.7       65     29.1      0.00      1.56      58.9     0.31      1019.2     0.4       S   174   1.9      SE   141   9.52    267      -63.9
   12/04/2018 06:10      40.6      40.0       64     29.1      0.00      1.56      58.9     0.31      1019.1     0.7       S   189   2.0     NNW   346   9.52    267      -63.9
   12/04/2018 06:00      40.6      40.0       66     29.8      0.00      1.56      59.0     0.31      1019.0     0.8       S   184   2.3     SSW   212   9.52    267      -63.7
   12/04/2018 05:50      40.9      40.4       65     29.8      0.00      1.56      59.0     0.31      1018.9     0.6     SSE   163   1.7       S   175   9.52    267      -63.0
   12/04/2018 05:40      41.6      40.7       63     29.3      0.00      1.56      59.0     0.31      1018.8     0.2      SE   133   0.8     SSW   191   9.52    267      -62.2
   12/04/2018 05:30      42.3      41.4       60     29.0      0.00      1.56      59.0     0.31      1019.0     0.6     ESE   117   1.6      SE   145   9.52    267      -57.3
   12/04/2018 05:20      42.3      41.9       60     29.2      0.00      1.56      59.0     0.31      1019.0     0.0       S   180   0.9     SSE   168   9.52    267      -51.4
   12/04/2018 05:10      42.0      41.6       60     28.9      0.00      1.56      59.1     0.31      1018.7     0.1     WSW   239   1.1      SW   229   9.52    267      -37.9
   12/04/2018 05:00      42.4      41.5       60     29.0      0.00      1.56      59.1     0.31      1018.6     0.5       S   176   1.2       S   185   9.52    267      -35.5
   12/04/2018 04:50      42.5      42.1       57     28.2      0.00      1.56      59.1     0.31      1018.6     0.4       S   174   1.6     NNE    20   9.52    267      -42.2
   12/04/2018 04:40      43.3      42.3       57     28.6      0.00      1.56      59.2     0.31      1018.4     0.2       E    91   1.4     ESE   121   9.52    267      -52.3
   12/04/2018 04:30      43.1      42.4       56     28.0      0.00      1.56      59.2     0.31      1018.6     0.9      SE   146   2.6      SE   134   9.52    267      -51.6
   12/04/2018 04:20      43.1      42.5       55     27.8      0.00      1.56      59.2     0.31      1018.6     1.1     SSE   156   2.3       S   184   9.52    267      -49.0
   12/04/2018 04:10      43.4      42.6       54     27.7      0.00      1.56      59.2     0.31      1018.7     1.1      SE   146   2.3      SE   135   9.52    267      -60.3
   12/04/2018 04:00      43.2      42.6       56     28.0      0.00      1.56      59.2     0.31      1018.7     0.9     SSE   166   2.2       S   175   9.52    266      -62.3
   12/04/2018 03:50      43.1      42.7       56     28.4      0.00      1.56      59.2     0.31      1018.8     0.9      SE   145   2.0      SE   138   9.52    266      -59.4
   12/04/2018 03:40      43.3      42.6       57     28.6      0.00      1.56      59.3     0.31      1018.9     0.3       S   172   1.0       S   187   9.52    266      -56.9
   12/04/2018 03:30      43.7      42.9       55     28.4      0.00      1.56      59.3     0.31      1018.8     0.3     SSE   153   1.2     SSE   167   9.52    266      -57.4
   12/04/2018 03:20      43.7      42.8       55     28.2      0.00      1.56      59.3     0.31      1018.8     0.6      SE   142   1.3      SE   142   9.52    266      -56.6
   12/04/2018 03:10      43.2      42.4       57     28.9      0.00      1.56      59.3     0.31      1018.8     0.5     SSE   162   1.3      SE   131   9.52    266      -58.1
   12/04/2018 03:00      43.0      42.4       60     29.7      0.00      1.56      59.4     0.31      1018.9     0.5       S   173   1.8     SSE   159   9.52    267      -59.1
   12/04/2018 02:50      43.2      42.8       59     29.9      0.00      1.56      59.4     0.31      1019.0     0.2     SSE   159   1.2      SE   146   9.52    266      -55.9
   12/04/2018 02:40      43.7      43.0       59     30.2      0.00      1.56      59.4     0.31      1019.2     0.3       S   169   1.5     SSW   199   9.52    267      -55.9
   12/04/2018 02:30      43.6      43.0       60     30.2      0.00      1.56      59.4     0.31      1019.3     0.2       S   171   1.5     SSE   160   9.53    267      -55.1
   12/04/2018 02:20      44.3      43.2       61     31.0      0.00      1.56      59.4     0.31      1019.2     0.5      SE   146   1.7      SE   144   9.53    266      -52.7
   12/04/2018 02:10      44.2      43.5       61     31.2      0.00      1.56      59.5     0.31      1019.3     0.9      SE   145   2.6      SE   140   9.53    266      -55.1
   12/04/2018 02:00      44.2      43.5       63     31.9      0.00      1.56      59.5     0.31      1019.3     0.5     SSW   193   1.9     SSE   149   9.53    266      -50.7
   12/04/2018 01:50      44.4      43.6       62     31.5      0.00      1.56      59.5     0.31      1019.3     0.3     SSE   157   1.6     SSE   156   9.53    266      -39.6
   12/04/2018 01:40      44.2      43.5       61     31.2      0.00      1.56      59.5     0.31      1019.3     0.4     NNE    29   2.2       N     3   9.53    266      -38.4
   12/04/2018 01:30      43.8      43.1       60     30.6      0.00      1.56      59.5     0.31      1019.1     0.5     SSW   211   2.4       S   176   9.53    266      -41.3
   12/04/2018 01:20      43.5      43.0       60     30.5      0.00      1.56      59.6     0.31      1018.9     1.1     ESE   115   2.9      SE   139   9.53    266      -46.8
   12/04/2018 01:10      43.3      43.0       61     30.6      0.00      1.56      59.6     0.31      1018.8     1.0     SSE   147   3.0       N   355   9.53    266      -49.8
   12/04/2018 01:00      43.4      43.0       62     30.9      0.00      1.56      59.6     0.31      1018.9     0.4     SSE   150   1.0      SE   140   9.53    266      -53.3
   12/04/2018 00:50      43.3      42.9       62     31.1      0.00      1.56      59.6     0.31      1019.0     0.7     SSE   159   1.7       S   169   9.53    266      -58.6
   12/04/2018 00:40      43.4      43.0       62     31.1      0.00      1.56      59.6     0.31      1019.1     0.3       S   176   1.1     SSW   193   9.53    266      -54.7
   12/04/2018 00:30      43.7      43.2       62     31.1      0.00      1.56      59.6     0.31      1019.2     0.3     SSE   161   1.2       S   173   9.53    266      -51.5
   12/04/2018 00:20      44.3      43.4       61     31.3      0.00      1.56      59.7     0.31      1019.2     0.8     SSE   167   1.7     SSW   197   9.53    266      -54.5
   12/04/2018 00:10      44.3      43.9       61     31.4      0.00      1.56      59.7     0.31      1019.3     0.9       S   172   2.7     SSW   196   9.53    266      -52.0
   12/04/2018 00:00      44.3      44.0       60     31.2      0.00      1.56      59.7     0.31      1019.2     1.2      SE   130   2.7       S   174   9.53    266      -50.8
   12/03/2018 23:50      44.6      43.9       59     30.6      0.00      1.56      59.7     0.31      1019.2     0.7       S   181   2.6     NNW   329   9.53    266      -53.2
   12/03/2018 23:40      44.7      43.9       58     30.5      0.00      1.56      59.7     0.31      1019.2     0.8      SW   232   1.9       S   172   9.53    266      -60.4
   12/03/2018 23:30      44.3      43.9       58     30.4      0.00      1.56      59.8     0.31      1019.2     0.7      SE   139   2.5      SE   139   9.53    266      -60.4
   12/03/2018 23:20      44.6      43.9       57     30.1      0.00      1.56      59.8     0.31      1019.5     0.5      SE   132   2.6     SSE   149   9.53    266      -59.0
   12/03/2018 23:10      45.0      44.2       58     30.5      0.00      1.56      59.8     0.31      1019.6     0.4     SSE   154   2.3       S   169   9.53    266      -60.3
   12/03/2018 23:00      45.9      44.6       55     30.0      0.00      1.56      59.8     0.31      1019.7     0.9     SSE   148   2.1      SE   141   9.53    266      -59.2
   12/03/2018 22:50      45.9      45.3       54     30.0      0.00      1.56      59.8     0.31      1019.7     0.3     SSE   148   0.9     NNW   336   9.53    266      -58.2
   12/03/2018 22:40      45.9      45.1       55     30.2      0.00      1.56      59.8     0.31      1019.7     0.0       S   172   1.0       S   176   9.53    266      -59.1
   12/03/2018 22:30      46.1      45.6       54     30.3      0.00      1.56      59.8     0.31      1019.7     0.3     SSE   151   1.0     SSE   155   9.53    266      -61.1
   12/03/2018 22:20      46.1      45.4       55     30.3      0.00      1.56      59.8     0.31      1019.8     0.3     SSE   165   0.9     SSE   164   9.53    266      -59.9
   12/03/2018 22:10      46.1      45.4       55     30.5      0.00      1.56      59.8     0.31      1019.8     0.9     SSE   158   1.8      SE   139   9.54    266      -61.9
   12/03/2018 22:00      46.2      45.8       55     30.5      0.00      1.56      59.8     0.31      1019.8     0.7       S   171   1.7       S   185   9.54    266      -63.6
   12/03/2018 21:50      46.6      45.9       55     30.9      0.00      1.56      59.8     0.31      1020.0     0.6     SSE   157   1.1      SE   138   9.54    266      -64.1
   12/03/2018 21:40      46.8      46.4       53     30.4      0.00      1.56      59.8     0.31      1019.9     0.3       S   179   1.0     SSE   168   9.54    266      -64.4
   12/03/2018 21:30      47.1      46.4       54     30.8      0.00      1.56      59.8     0.31      1019.9     0.4     SSE   155   0.9       S   169   9.54    266      -64.6
   12/03/2018 21:20      47.6      46.8       52     30.6      0.00      1.56      59.9     0.31      1019.9     0.7      SE   141   1.8      SE   140   9.54    266      -62.4
   12/03/2018 21:10      48.0      47.2       51     30.4      0.00      1.56      59.9     0.31      1019.9     1.2     SSE   152   2.5      SE   141   9.54    266      -63.7
   12/03/2018 21:00      48.1      47.3       51     30.4      0.00      1.56      59.8     0.31      1019.8     1.5     SSE   153   2.7      SE   139   9.54    266      -66.8
   12/03/2018 20:50      48.1      47.3       51     30.4      0.00      1.56      59.9     0.31      1019.7     1.1     SSE   158   1.9     ESE   121   9.54    266      -68.0
   12/03/2018 20:40      48.8      47.8       50     30.4      0.00      1.56      59.9     0.31      1019.7     1.6     SSE   153   3.9      SE   143   9.54    266      -69.0
   12/03/2018 20:30      48.8      47.8       51     30.7      0.00      1.56      59.9     0.31      1019.7     1.4     SSE   152   3.4      SE   144   9.54    266      -69.7
   12/03/2018 20:20      48.9      48.3       49     30.4      0.00      1.56      59.9     0.31      1019.7     1.6     SSE   151   2.9      SE   141   9.54    266      -69.9
   12/03/2018 20:10      49.4      48.4       49     30.7      0.00      1.56      59.9     0.31      1019.7     1.2     SSE   154   2.5      SE   145   9.54    266      -70.4
   12/03/2018 20:00      50.2      48.9       48     30.8      0.00      1.56      59.9     0.31      1019.7     1.6     SSE   149   3.3     SSE   150   9.54    266      -70.5
   12/03/2018 19:50      50.0      49.5       47     30.5      0.00      1.56      59.9     0.31      1019.6     1.1     SSE   159   2.1     SSE   167   9.55    265      -70.3
   12/03/2018 19:40      50.4      49.8       47     30.7      0.00      1.56      59.9     0.31      1019.7     1.2     SSE   158   2.9      SE   138   9.55    265      -71.0
   12/03/2018 19:30      51.1      50.1       47     31.0      0.00      1.56      59.8     0.31      1019.6     1.4     SSE   153   3.2      SE   142   9.55    265      -72.0
   12/03/2018 19:20      51.3      50.7       45     30.6      0.00      1.56      59.8     0.31      1019.6     1.5     SSE   156   2.8      SE   146   9.55    265      -71.7
   12/03/2018 19:10      52.4      50.6       47     31.6      0.00      1.56      59.8     0.31      1019.6     1.0       S   170   1.8       S   184   9.55    265      -71.6
   12/03/2018 19:00      52.4      51.8       43     30.5      0.00      1.56      59.8     0.31      1019.5     1.1     SSE   160   2.4      SE   146   9.55    265      -69.8
   12/03/2018 18:50      52.6      51.8       45     31.4      0.00      1.56      59.8     0.31      1019.6     1.5     SSE   156   2.9      SE   137   9.55    265      -70.4
   12/03/2018 18:40      53.5      52.2       44     31.6      0.00      1.56      59.8     0.31      1019.6     1.5     SSE   161   3.1      SE   142   9.55    265      -72.0
   12/03/2018 18:30      54.0      53.1       42     31.0      0.00      1.56      59.8     0.31      1019.6     0.9     SSE   158   1.7     SSE   160   9.56    264      -73.9
   12/03/2018 18:20      55.5      53.6       41     31.0      0.00      1.56      59.7     0.31      1019.6     1.1     SSE   156   2.2      SE   139   9.56    264      -74.5
   12/03/2018 18:10      57.1      55.2       37     30.3      0.00      1.56      59.7     0.31      1019.6     1.4     SSW   212   2.7     SSW   208   9.56    264      -74.8
   12/03/2018 18:00      57.1      56.4       35     29.5      0.00      1.56      59.7     0.31      1019.5     2.6     SSW   212   4.5     SSW   201   9.56    264      -73.8
   12/03/2018 17:50      59.0      56.6       35     30.1      0.00      1.56      59.7     0.31      1019.4     1.1     SSW   200   2.2      SW   218   9.56    264      -75.9
   12/03/2018 17:40      59.6      58.8       32     29.1      0.00      1.56      59.6     0.31      1019.2     1.2     WSW   256   2.7     WSW   251   9.56    264      -78.2
   12/03/2018 17:30      59.8      59.3       31     29.0      0.00      1.56      59.6     0.31      1019.0     1.4      NW   316   3.9      NW   305   9.56    264      -80.9
   12/03/2018 17:20      60.1      59.6       32     29.5      0.00      1.56      59.6     0.31      1019.0     1.5     NNW   332   4.3      NW   308   9.56    264      -82.6
   12/03/2018 17:10      60.7      59.9       32     30.1      0.00      1.56      59.6     0.31      1019.0     1.5     NNW   345   3.6       N     0   9.57    264      -83.1
   12/03/2018 17:00      61.1      60.3       31     30.2      0.00      1.56      59.5     0.31      1019.0     1.4     NNW   329   3.8       N     1   9.57    264      -83.6
   12/03/2018 16:50      61.6      60.8       31     30.2      0.00      1.56      59.5     0.31      1019.0     2.2      NW   325   4.4     NNW   338   9.57    264      -83.5
   12/03/2018 16:40      62.2      61.4       31     30.4      0.00      1.56      59.5     0.31      1018.9     1.8     NNW   347   4.1      NW   318   9.57    263      -81.0
   12/03/2018 16:30      62.8      61.9       30     30.1      0.00      1.56      59.5     0.31      1018.9     2.7       N   350   6.2       N     6   9.57    263      -79.0
   12/03/2018 16:20      63.5      62.4       29     30.0      0.00      1.56      59.4     0.31      1018.9     2.6       N   349   6.4      NW   323   9.57    263      -76.8
   12/03/2018 16:10      64.0      63.3       28     30.0      0.00      1.56      59.4     0.31      1018.8     2.1       N   353   4.4       N     6   9.57    262      -63.5
   12/03/2018 16:00      65.0      63.8       27     29.5      0.00      1.56      59.4     0.31      1018.6     3.2     NNE    14   8.3      NE    35   9.58    262      -47.1
   12/03/2018 15:50      65.5      64.8       25     28.3      0.00      1.56      59.3     0.31      1018.8     2.1     NNE    21   5.8       E    87   9.58    261      -22.2
   12/03/2018 15:40      66.4      65.2       24     27.6      0.00      1.56      59.4     0.31      1018.7     1.9      NE    41   3.9     NNW   341   9.58    262       -1.8
   12/03/2018 15:30      67.0      65.9       23     27.7      0.00      1.56      59.3     0.31      1018.6     1.1      NE    40   3.7      NE    36   9.58    261       19.9
   12/03/2018 15:20      67.1      66.3       23     27.8      0.00      1.56      59.2     0.31      1018.7     1.3      NW   313   4.5     WNW   299   9.58    261       42.8
   12/03/2018 15:10      68.0      66.4       22     27.5      0.00      1.56      59.2     0.31      1018.8     1.1       E    88   2.6      SE   129   9.58    261       64.7
   12/03/2018 15:00      68.0      66.5       22     27.1      0.00      1.56      59.2     0.31      1018.7     1.0     WSW   245   2.8     WSW   254   9.58    261       88.3
   12/03/2018 14:50      67.3      65.7       22     26.8      0.00      1.56      59.1     0.31      1018.8     1.6     WSW   250   3.6     SSW   214   9.58    261      110.5
   12/03/2018 14:40      66.0      65.5       23     27.1      0.00      1.56      59.1     0.31      1018.8     2.1       E    93   4.5      SE   129   9.58    261      133.4
   12/03/2018 14:30      65.9      65.3       23     26.9      0.00      1.56      59.1     0.31      1018.7     2.5       E    80   4.0     ENE    62   9.58    261      152.9
   12/03/2018 14:20      67.1      65.4       23     27.3      0.00      1.56      59.0     0.31      1018.7     2.8      NE    47   5.1      NE    52   9.58    261      170.1
   12/03/2018 14:10      67.1      66.1       23     27.2      0.00      1.56      59.0     0.31      1018.8     1.3      NE    51   3.6       E    99   9.59    261      187.5
   12/03/2018 14:00      66.6      65.7       22     26.1      0.00      1.56      59.0     0.31      1018.9     2.2     WSW   255   3.9     NNW   338   9.59    261      206.5
   12/03/2018 13:50      66.5      65.7       23     26.7      0.00      1.56      58.9     0.31      1019.2     2.2     NNE    15   5.2     NNW   337   9.59    261      219.9
   12/03/2018 13:40      66.5      65.5       23     26.8      0.00      1.56      58.9     0.31      1019.2     2.4       N   354   6.5     NNW   344   9.59    261      232.5
   12/03/2018 13:30      66.1      65.1       23     26.5      0.00      1.56      58.9     0.31      1019.4     1.8      NE    34   4.2     NNE    18   9.59    261      247.6
   12/03/2018 13:20      66.0      65.2       23     27.1      0.00      1.56      58.8     0.31      1019.4     2.2       N     5   5.1      NW   321   9.59    261      259.9
   12/03/2018 13:10      66.0      64.9       23     26.8      0.00      1.56      58.8     0.31      1019.5     2.3     NNW   331   6.0       N     0   9.59    261      269.1
   12/03/2018 13:00      66.3      65.3       23     27.3      0.00      1.56      58.8     0.31      1019.6     1.5       W   262   4.0      NW   307   9.59    261      279.3
   12/03/2018 12:50      65.6      64.4       25     27.9      0.00      1.56      58.9     0.31      1019.7     2.2      NE    38   4.7     NNE    26   9.59    261      289.3
   12/03/2018 12:40      65.2      64.1       24     27.4      0.00      1.56      58.8     0.31      1019.9     3.3       N     5   7.7     NNW   343   9.59    261      298.4
   12/03/2018 12:30      65.8      64.9       24     27.4      0.00      1.56      58.8     0.31      1020.0     2.2       N   350   5.5       N   350   9.59    261      305.9
   12/03/2018 12:20      65.5      64.8       23     26.5      0.00      1.56      58.7     0.31      1020.1     1.5     WNW   294   4.4       W   261   9.59    261      314.9
   12/03/2018 12:10      65.4      64.3       24     27.1      0.00      1.56      58.7     0.31      1020.3     1.3      SE   127   3.0      NE    48   9.59    262      317.4
   12/03/2018 12:00      65.3      64.2       25     28.3      0.00      1.56      58.7     0.31      1020.5     1.9       N     3   4.7      NE    49   9.59    262      316.6
   12/03/2018 11:50      64.4      63.4       26     28.5      0.00      1.56      58.7     0.31      1020.7     1.6     NNE    16   4.6      NE    38   9.59    262      318.7
   12/03/2018 11:40      63.9      63.4       26     27.9      0.00      1.56      58.7     0.31      1021.0     2.0       E    86   4.0     SSE   149   9.59    262      322.2
   12/03/2018 11:30      63.9      63.0       26     27.8      0.00      1.56      58.7     0.31      1021.1     1.9     NNE    22   3.7       N     0   9.59    262      320.5
   12/03/2018 11:20      64.0      62.9       26     28.4      0.00      1.56      58.7     0.31      1021.3     1.8     NNE    13   4.1     NNE    13   9.59    263      318.7
   12/03/2018 11:10      64.6      63.4       27     29.5      0.00      1.56      58.7     0.31      1021.4     1.7      NW   320   4.2     WNW   298   9.59    264      315.0
   12/03/2018 11:00      63.6      62.5       27     28.4      0.00      1.56      58.7     0.31      1021.6     1.4      SW   230   3.0     WSW   246   9.59    263      312.6
   12/03/2018 10:50      63.1      61.9       27     28.2      0.00      1.56      58.8     0.31      1021.7     1.6       N   351   5.4       N     0   9.59    263      304.8
   12/03/2018 10:40      63.0      61.2       29     29.3      0.00      1.56      58.8     0.31      1021.9     1.2      NE    34   4.1     NNW   346   9.59    263      300.4
   12/03/2018 10:30      61.7      61.1       29     29.0      0.00      1.56      58.8     0.31      1021.9     1.6       N   358   4.1       N     9   9.59    263      292.3
   12/03/2018 10:20      61.6      60.8       30     29.4      0.00      1.56      58.8     0.31      1022.0     1.3      NE    45   3.5     ENE    75   9.59    264      288.4
   12/03/2018 10:10      61.3      60.3       30     29.5      0.00      1.56      58.8     0.31      1022.1     1.3       N     3   3.5     NNE    12   9.59    264      289.5
   12/03/2018 10:00      61.6      61.2       30     29.8      0.00      1.56      58.8     0.31      1022.2     1.0     ENE    66   2.5     ESE   107   9.59    264      278.0
   12/03/2018 09:50      61.4      59.7       33     31.2      0.00      1.56      58.9     0.31      1022.3     0.5     ENE    67   1.9     ESE   124   9.59    264      255.4
   12/03/2018 09:40      60.0      59.1       35     31.7      0.00      1.56      58.9     0.31      1022.3     0.7     NNE    33   1.7     NNW   343   9.64    264      235.0
   12/03/2018 09:30      59.8      59.1       36     32.6      0.00      1.56      58.9     0.31      1022.1     0.5     NNE    32   2.3      NE    38   9.64    265      221.1
   12/03/2018 09:20      60.9      59.3       36     32.9      0.00      1.56      59.0     0.31      1022.1     0.5      NE    48   1.9     NNE    23   9.64    265      203.6
   12/03/2018 09:10      60.5      58.8       36     32.7      0.00      1.56      59.0     0.31      1022.0     0.0     WSW   246   0.5     WSW   257   9.64    264      188.0
   12/03/2018 09:00      58.9      57.5       38     33.0      0.00      1.56      59.0     0.31      1021.9     0.2     WSW   252   1.2     WSW   250   9.64    265      171.8
   12/03/2018 08:50      57.5      55.3       41     32.7      0.00      1.56      59.0     0.31      1021.8     0.1     WSW   242   1.3     WSW   255   9.64    266      152.8
   12/03/2018 08:40      55.3      53.4       44     32.7      0.00      1.56      59.0     0.31      1021.7     0.6      SW   235   1.9     WSW   245   9.64    266      135.0
   12/03/2018 08:30      55.0      53.2       44     32.6      0.00      1.56      59.0     0.31      1021.7     1.9       W   260   3.0       W   270   9.64    266      116.7
   12/03/2018 08:20      55.1      53.5       48     34.9      0.00      1.56      59.0     0.31      1021.5     0.2      NW   322   1.5      NW   308   9.64    266       97.5
   12/03/2018 08:10      53.6      48.6       57     36.6      0.00      1.56      59.0     0.31      1021.4     0.0       N     0   0.0       S   169   9.64    266       78.5
   12/03/2018 08:00      48.6      45.1       70     37.4      0.00      1.56      59.1     0.31      1021.4     0.0       S   169   0.6       S   169   9.64    267       60.4
   12/03/2018 07:50      45.4      44.0       72     36.0      0.00      1.56      59.1     0.31      1021.4     0.2     SSE   153   1.1      SE   146   9.64    269       17.1
   12/03/2018 07:40      44.2      43.5       72     35.4      0.00      1.56      59.1     0.31      1021.4     0.2     SSE   151   0.9     SSE   147   9.64    269      -41.7
   12/03/2018 07:30      43.7      43.0       74     35.5      0.00      1.56      59.1     0.31      1021.3     0.0     SSE   157   0.6     SSE   156   9.64    269      -44.8
   12/03/2018 07:20      43.4      43.0       74     35.5      0.00      1.56      59.2     0.31      1021.1     0.4     SSE   151   1.1     SSE   150   9.64    268      -37.2
   12/03/2018 07:10      43.8      43.0       73     35.4      0.00      1.56      59.1     0.31      1021.1     0.4     SSE   153   1.5     SSE   147   9.64    269      -50.5
   12/03/2018 07:00      44.2      43.5       70     34.6      0.00      1.56      59.2     0.31      1021.3     0.5     SSE   149   1.4      SE   144   9.64    269      -46.7
   12/03/2018 06:50      44.1      43.5       69     34.2      0.00      1.56      59.2     0.31      1021.2     0.0       N     0   0.0     SSE   162   9.64    268      -38.2
   12/03/2018 06:40      44.2      43.7       71     35.0      0.00      1.56      59.2     0.31      1021.1     0.0       N     0   0.0     SSE   161   9.64    268      -33.4
   12/03/2018 06:30      44.1      43.5       70     34.8      0.00      1.56      59.2     0.31      1021.1     0.0     SSE   162   0.7     SSE   161   9.64    268      -28.7
   12/03/2018 06:20      44.2      43.5       71     35.1      0.00      1.56      59.2     0.31      1021.0     0.0     SSE   163   1.2     SSE   164   9.64    268      -26.0
   12/03/2018 06:10      44.2      43.9       69     34.5      0.00      1.56      59.3     0.31      1021.1     0.0      SE   143   0.5      SE   143   9.64    268      -31.0
   12/03/2018 06:00      44.2      43.7       68     33.9      0.00      1.56      59.3     0.31      1021.1     0.1     SSE   161   0.8       S   182   9.64    268      -37.4
   12/03/2018 05:50      44.2      43.7       71     35.2      0.00      1.56      59.3     0.31      1021.0     0.2     SSE   146   0.8      SE   146   9.64    268      -31.9
   12/03/2018 05:40      44.2      43.6       71     35.1      0.00      1.56      59.3     0.31      1020.9     0.0     SSW   197   0.6     SSW   197   9.64    268      -29.1
   12/03/2018 05:30      44.0      43.6       72     35.2      0.00      1.56      59.4     0.31      1020.7     0.3       S   172   1.0       S   172   9.64    268      -26.8
   12/03/2018 05:20      44.0      43.7       70     34.6      0.00      1.56      59.4     0.31      1020.7     0.0       S   171   0.6       S   171   9.64    268      -27.4
   12/03/2018 05:10      44.0      43.5       69     34.2      0.00      1.56      59.4     0.31      1020.7     0.0       S   172   0.8       S   172   9.64    268      -27.6
   12/03/2018 05:00      43.8      43.4       69     34.3      0.00      1.56      59.4     0.31      1020.7     0.0       S   172   0.5       S   172   9.64    268      -27.2
   12/03/2018 04:50      44.0      43.4       69     34.3      0.00      1.56      59.4     0.31      1020.5     0.1       S   172   0.9       S   172   9.64    268      -27.6
   12/03/2018 04:40      44.0      43.6       68     34.0      0.00      1.56      59.5     0.31      1020.5     0.0       N     0   0.0       S   172   9.64    268      -27.2
   12/03/2018 04:30      43.9      43.5       68     34.0      0.00      1.56      59.5     0.31      1020.6     0.0       N     0   0.0       S   172   9.64    268      -27.4
   12/03/2018 04:20      44.1      43.6       69     34.1      0.00      1.56      59.5     0.31      1020.5     0.0       S   171   0.3       S   172   9.64    268      -27.4
   12/03/2018 04:10      44.1      43.7       68     34.0      0.00      1.56      59.5     0.31      1020.6     0.1       S   172   0.9       S   172   9.64    268      -28.4
   12/03/2018 04:00      44.0      43.7       68     33.8      0.00      1.56      59.5     0.31      1020.6     0.0       N     0   0.0       S   172   9.64    268      -29.1
   12/03/2018 03:50      43.9      43.5       68     33.8      0.00      1.56      59.5     0.31      1020.5     0.0       N     0   0.0       S   172   9.64    268      -30.5
   12/03/2018 03:40      43.9      43.4       69     34.1      0.00      1.56      59.5     0.31      1020.4     0.0       N     0   0.0       S   172   9.64    268      -30.2
   12/03/2018 03:30      43.7      43.2       70     34.5      0.00      1.56      59.6     0.31      1020.4     0.0       S   171   0.7       S   172   9.64    268      -30.9
   12/03/2018 03:20      43.4      43.0       72     34.7      0.00      1.56      59.6     0.31      1020.4     0.0       S   172   0.7       S   172   9.64    268      -31.1
   12/03/2018 03:10      43.4      43.0       74     35.3      0.00      1.56      59.6     0.31      1020.5     0.1       S   172   0.7       S   172   9.64    268      -31.6
   12/03/2018 03:00      43.4      43.0       73     35.1      0.00      1.56      59.6     0.31      1020.6     0.1       S   171   0.9       S   174   9.64    268      -31.8
   12/03/2018 02:50      43.3      42.9       72     34.7      0.00      1.56      59.7     0.31      1020.8     0.2       S   174   0.8       S   178   9.64    268      -31.4
   12/03/2018 02:40      43.4      43.0       72     34.6      0.00      1.56      59.7     0.31      1020.9     0.1       S   174   0.8       S   174   9.64    268      -31.5
   12/03/2018 02:30      43.4      43.0       72     34.6      0.00      1.56      59.6     0.31      1020.8     0.0       S   174   0.6       S   174   9.64    268      -31.4
   12/03/2018 02:20      43.5      43.1       71     34.6      0.00      1.56      59.7     0.31      1020.8     0.0       N     0   0.0       S   174   9.64    268      -31.0
   12/03/2018 02:10      43.5      43.2       70     34.4      0.00      1.56      59.7     0.31      1020.7     0.1       S   169   1.1     SSE   146   9.64    268      -30.8
   12/03/2018 02:00      43.7      43.2       69     33.9      0.00      1.56      59.7     0.31      1020.6     0.3     SSE   159   1.4      SE   134   9.64    268      -30.3
   12/03/2018 01:50      43.7      43.2       69     33.9      0.00      1.56      59.8     0.31      1020.6     0.3     SSE   153   1.5     SSE   153   9.64    268      -30.6
   12/03/2018 01:40      43.7      43.0       68     33.6      0.00      1.56      59.8     0.31      1020.4     0.7     SSE   149   1.5     SSE   168   9.64    268      -31.0
   12/03/2018 01:30      43.3      42.6       69     33.6      0.00      1.56      59.8     0.31      1020.3     1.0     SSE   160   2.8       S   178   9.64    268      -34.3
   12/03/2018 01:20      42.9      42.5       71     33.8      0.00      1.56      59.8     0.31      1020.1     0.8       S   181   2.1     SSW   201   9.64    268      -41.8
   12/03/2018 01:10      43.0      42.6       69     33.3      0.00      1.56      59.9     0.31      1020.0     0.9     SSE   158   2.4       S   177   9.64    268      -43.8
   12/03/2018 01:00      42.9      42.5       68     32.7      0.00      1.56      59.9     0.31      1020.0     0.2       S   171   1.4       S   184   9.64    268      -43.5
   12/03/2018 00:50      43.4      42.6       69     33.3      0.00      1.56      59.9     0.31      1019.8     0.3     SSE   165   1.5       S   184   9.65    267      -53.5
   12/03/2018 00:40      44.3      43.2       67     33.3      0.00      1.56      59.9     0.31      1019.8     0.4     SSE   156   1.0     SSE   165   9.65    267      -62.3
   12/03/2018 00:30      44.5      43.9       66     33.4      0.00      1.56      59.9     0.31      1019.9     0.9     SSW   194   2.7     SSW   199   9.65    267      -64.0
   12/03/2018 00:20      45.0      44.2       65     33.7      0.00      1.56      59.9     0.31      1019.9     0.3      SW   230   1.2     SSW   204   9.65    267      -63.1
   12/03/2018 00:10      45.5      44.9       64     33.8      0.00      1.56      59.9     0.31      1020.0     0.2       S   189   1.1     SSW   193   9.65    267      -56.0
   12/03/2018 00:00      45.8      45.3       64     33.8      0.00      1.56      60.0     0.31      1019.9     0.6       S   183   1.7     SSE   154   9.65    267      -49.1
   12/02/2018 23:50      45.5      45.0       64     33.6      0.00      1.56      60.0     0.31      1020.0     1.8      SE   137   3.3      NE    53   9.65    267      -44.4
   12/02/2018 23:40      45.4      45.1       65     34.1      0.00      1.56      60.0     0.31      1019.9     1.1       S   176   2.8       S   181   9.65    267      -38.8
   12/02/2018 23:30      45.8      45.0       64     34.0      0.00      1.56      60.0     0.31      1020.0     0.4     SSE   160   1.7      SE   146   9.65    267      -37.6
   12/02/2018 23:20      45.8      45.3       63     33.8      0.00      1.56      60.0     0.31      1020.0     0.2     SSE   158   1.3     SSE   155   9.65    267      -37.2
   12/02/2018 23:10      45.5      44.8       64     33.8      0.00      1.56      60.0     0.31      1019.9     1.4     SSE   147   2.5     SSE   155   9.65    267      -36.1
   12/02/2018 23:00      45.9      45.0       63     33.4      0.00      1.56      60.1     0.31      1019.9     0.7       S   185   1.3     SSE   168   9.65    267      -38.3
   12/02/2018 22:50      45.7      45.2       62     33.0      0.00      1.56      60.1     0.31      1019.8     0.6     WSW   258   2.6       W   261   9.65    267      -37.2
   12/02/2018 22:40      45.5      45.0       62     32.9      0.00      1.56      60.1     0.31      1019.8     0.9     SSW   199   2.2     SSW   195   9.65    267      -37.4
   12/02/2018 22:30      45.7      45.1       61     32.8      0.00      1.56      60.1     0.31      1019.8     0.5       E    81   1.6       S   174   9.65    267      -41.7
   12/02/2018 22:20      46.1      45.4       61     32.9      0.00      1.56      60.1     0.31      1019.8     0.6       S   183   2.1       S   190   9.65    267      -40.3
   12/02/2018 22:10      46.2      45.7       59     32.3      0.00      1.56      60.1     0.31      1019.8     0.5     SSE   167   1.6      SE   142   9.65    267      -49.6
   12/02/2018 22:00      47.1      46.0       60     33.3      0.00      1.56      60.1     0.31      1019.7     0.9     SSE   160   1.6       S   178   9.65    267      -52.8
   12/02/2018 21:50      47.6      46.9       57     32.7      0.00      1.56      60.2     0.31      1019.7     0.3     SSE   151   1.2      SE   140   9.66    267      -47.5
   12/02/2018 21:40      47.6      46.7       56     32.1      0.00      1.56      60.2     0.31      1019.7     1.3       S   169   2.4       S   182   9.66    267      -42.8
   12/02/2018 21:30      47.2      46.8       61     34.2      0.00      1.56      60.2     0.31      1019.7     0.7     SSE   161   2.0      SE   140   9.66    267      -43.1
   12/02/2018 21:20      47.2      46.0       60     33.7      0.00      1.56      60.2     0.31      1019.5     1.5     SSE   162   2.6     SSE   157   9.66    267      -41.7
   12/02/2018 21:10      46.5      46.1       64     35.0      0.00      1.56      60.2     0.31      1019.5     0.6     SSE   160   1.4      SE   139   9.66    267      -39.8
   12/02/2018 21:00      46.5      45.4       65     34.7      0.00      1.56      60.2     0.31      1019.4     1.5       S   188   2.8     SSW   208   9.66    267      -42.4
   12/02/2018 20:50      45.8      45.3       66     34.8      0.00      1.56      60.2     0.31      1019.3     0.9      SE   130   2.7      NE    50   9.66    267      -39.5
   12/02/2018 20:40      45.4      44.5       68     34.9      0.00      1.56      60.2     0.31      1019.2     1.2       E    94   3.1     SSE   148   9.66    267      -44.1
   12/02/2018 20:30      45.4      44.6       66     34.5      0.00      1.56      60.3     0.31      1019.2     1.2     SSE   151   3.1     SSW   202   9.66    267      -59.0
   12/02/2018 20:20      45.0      44.5       66     34.1      0.00      1.56      60.2     0.31      1019.2     1.4     SSW   203   2.5      SW   218   9.66    267      -66.8
   12/02/2018 20:10      45.3      44.4       66     33.9      0.00      1.56      60.2     0.31      1019.2     1.0     ESE   118   2.4      NE    53   9.66    267      -70.5
   12/02/2018 20:00      45.9      45.0       63     33.5      0.00      1.56      60.2     0.31      1019.0     0.7       S   176   1.8       S   180   9.66    266      -70.6
   12/02/2018 19:50      46.5      45.6       61     33.2      0.00      1.56      60.2     0.31      1019.1     0.5     SSE   166   1.6       S   170   9.66    266      -72.2
   12/02/2018 19:40      47.9      46.4       58     32.9      0.00      1.56      60.2     0.31      1019.1     0.5     SSE   154   1.3       S   176   9.66    266      -72.7
   12/02/2018 19:30      48.3      46.2       55     32.4      0.00      1.56      60.2     0.31      1019.0     1.7       S   174   3.7       S   178   9.66    266      -72.9
   12/02/2018 19:20      47.2      46.1       58     32.6      0.00      1.56      60.2     0.31      1019.0     1.1      SE   129   2.6     SSE   163   9.66    266      -73.3
   12/02/2018 19:10      47.8      46.9       56     32.2      0.00      1.56      60.2     0.31      1018.8     0.9     SSE   159   2.2       S   183   9.66    266      -74.0
   12/02/2018 19:00      47.8      47.0       55     32.0      0.00      1.56      60.2     0.31      1018.8     1.7     SSW   199   3.4     SSW   211   9.66    266      -74.7
   12/02/2018 18:50      49.6      47.4       52     31.7      0.00      1.56      60.2     0.31      1018.6     0.6       S   179   1.3       S   184   9.67    266      -75.4
   12/02/2018 18:40      51.5      49.4       48     31.0      0.00      1.56      60.2     0.31      1018.4     0.7       S   181   2.0       S   187   9.67    266      -76.6
   12/02/2018 18:30      52.7      51.3       43     30.4      0.00      1.56      60.2     0.31      1018.5     0.8     SSW   198   2.8     WSW   251   9.67    265      -79.9
   12/02/2018 18:20      53.0      52.0       42     30.2      0.00      1.56      60.2     0.31      1018.3     3.5     WSW   242   6.0     WSW   237   9.67    265      -81.4
   12/02/2018 18:10      53.6      52.7       41     30.0      0.00      1.56      60.2     0.31      1018.1     1.6       W   264   3.5     WSW   257   9.67    265      -82.7
   12/02/2018 18:00      54.1      53.2       40     29.8      0.00      1.56      60.2     0.31      1017.9     0.6      NW   320   2.1       N   355   9.68    265      -84.3
   12/02/2018 17:50      54.4      53.7       39     29.7      0.00      1.56      60.2     0.31      1017.9     1.7      NW   309   3.2     WNW   294   9.68    264      -86.3
   12/02/2018 17:40      54.7      54.0       39     29.6      0.00      1.56      60.2     0.31      1017.7     2.4     WNW   294   4.5     WSW   258   9.68    264      -87.0
   12/02/2018 17:30      55.2      54.4       38     29.4      0.00      1.56      60.2     0.31      1017.5     1.8     NNW   347   3.5       N     1   9.68    264      -87.1
   12/02/2018 17:20      55.5      54.9       37     29.0      0.00      1.56      60.1     0.31      1017.4     2.5       N   349   5.6     NNW   329   9.68    264      -88.1
   12/02/2018 17:10      55.9      55.1       36     28.7      0.00      1.56      60.1     0.31      1017.3     1.7     NNW   339   5.0     WNW   296   9.68    264      -89.0
   12/02/2018 17:00      56.4      55.6       35     28.4      0.00      1.56      60.1     0.31      1017.1     2.3       N     7   5.0       N     3   9.68    264      -89.1
   12/02/2018 16:50      56.9      56.0       33     27.6      0.00      1.56      60.1     0.31      1017.2     3.1       N   359   7.8       N   350   9.69    264      -88.0
   12/02/2018 16:40      57.6      56.6       30     25.9      0.00      1.56      60.0     0.31      1017.2     3.3       N   349   7.6      NW   311   9.69    264      -86.4
   12/02/2018 16:30      58.3      57.4       28     24.6      0.00      1.56      60.1     0.31      1017.0     2.9       N   351   6.8      NW   305   9.69    264      -83.0
   12/02/2018 16:20      59.0      58.0       27     24.2      0.00      1.56      60.0     0.31      1016.9     3.1     NNW   343   6.4     NNE    16   9.69    263      -77.5
   12/02/2018 16:10      59.4      58.7       27     24.7      0.00      1.56      60.0     0.31      1016.9     3.3     NNW   340   8.1     NNW   345   9.69    262      -55.1
   12/02/2018 16:00      60.3      59.2       27     25.4      0.00      1.56      60.0     0.31      1016.8     4.0      NW   321   8.5     WNW   302   9.70    262      -37.4
   12/02/2018 15:50      60.6      59.8       27     26.0      0.00      1.56      60.0     0.31      1016.8     2.7     NNW   331   5.1       N     0   9.70    262      -16.8
   12/02/2018 15:40      60.6      60.1       27     26.3      0.00      1.56      59.9     0.31      1016.7     3.2       N   354   6.9     NNW   344   9.70    263        0.8
   12/02/2018 15:30      60.8      60.1       27     26.4      0.00      1.56      59.9     0.31      1016.7     3.7     NNW   343   8.5       N     6   9.70    263       23.8
   12/02/2018 15:20      61.5      60.5       27     26.8      0.00      1.56      59.9     0.31      1016.6     3.7       N   359   7.6       N    10   9.70    262       41.4
   12/02/2018 15:10      61.8      61.3       26     26.5      0.00      1.56      59.9     0.31      1016.5     3.2     NNW   330   7.1      NW   323   9.70    262       71.6
   12/02/2018 15:00      61.7      60.9       26     25.9      0.00      1.56      59.8     0.31      1016.6     3.3       N   358   7.8     NNW   347   9.71    263       96.1
   12/02/2018 14:50      62.2      61.4       26     26.0      0.00      1.56      59.8     0.31      1016.5     3.5     NNW   342   9.2     NNW   340   9.71    261      118.0
   12/02/2018 14:40      62.2      61.3       26     26.8      0.00      1.56      59.8     0.31      1016.4     2.4      NW   314   5.6       W   269   9.71    262      140.7
   12/02/2018 14:30      61.7      60.9       27     27.4      0.00      1.56      59.8     0.31      1016.5     3.4      NW   325   8.1       N   349   9.71    262      161.6
   12/02/2018 14:20      61.7      60.9       28     27.9      0.00      1.56      59.7     0.31      1016.5     4.5      NW   324  10.3     NNW   342   9.71    262      182.2
   12/02/2018 14:10      61.6      61.1       29     28.6      0.00      1.56      59.7     0.31      1016.5     4.4     NNW   327   8.1       N   349   9.71    262      199.4
   12/02/2018 14:00      61.4      60.8       28     27.8      0.00      1.56      59.6     0.31      1016.5     4.6     NNW   330   8.1     NNE    14   9.71    262      215.7
   12/02/2018 13:50      62.2      61.1       27     27.1      0.00      1.56      59.6     0.31      1016.5     4.2       N   356   8.3     NNW   342   9.71    262      231.0
   12/02/2018 13:40      62.4      61.7       27     27.8      0.00      1.56      59.6     0.31      1016.7     3.1      NW   310   6.2     WNW   288   9.71    262      244.5
   12/02/2018 13:30      62.0      61.3       28     27.9      0.00      1.56      59.6     0.31      1016.6     2.3     NNW   336   5.3       N   351   9.72    262      258.6
   12/02/2018 13:20      62.5      61.4       28     28.3      0.00      1.56      59.6     0.31      1016.6     3.1     NNW   333   8.9       N   352   9.72    262      269.5
   12/02/2018 13:10      61.6      60.7       28     27.4      0.00      1.56      59.6     0.31      1016.7     3.1      NW   317   6.5     NNW   336   9.72    262      284.2
   12/02/2018 13:00      61.4      60.5       28     27.5      0.00      1.56      59.6     0.31      1016.7     3.6      NW   312   6.7      NW   304   9.72    262      296.4
   12/02/2018 12:50      61.4      60.2       28     27.2      0.00      1.56      59.6     0.31      1016.9     4.2      NW   310   8.1      NW   306   9.72    262      306.2
   12/02/2018 12:40      60.7      60.1       28     26.8      0.00      1.56      59.6     0.31      1017.0     5.0       N   354  10.6     WNW   293   9.72    263      312.5
   12/02/2018 12:30      60.3      59.7       28     26.8      0.00      1.56      59.5     0.31      1017.1     4.5     NNW   337   8.0       N   353   9.72    263      320.7
   12/02/2018 12:20      60.6      59.8       29     27.6      0.00      1.56      59.5     0.31      1017.2     4.6     NNW   347  10.1     NNW   338   9.72    263      326.8
   12/02/2018 12:10      61.1      59.8       29     27.6      0.00      1.56      59.6     0.31      1017.2     4.6     NNW   347  10.1     NNW   328   9.72    263      325.7
   12/02/2018 12:00      60.9      59.7       29     27.6      0.00      1.56      59.5     0.31      1017.5     4.0       N   355   9.6       N     0   9.72    263      332.9
   12/02/2018 11:50      60.3      59.3       29     27.0      0.00      1.56      59.6     0.31      1017.7     4.8       N   355  11.3       N   352   9.72    263      314.7
   12/02/2018 11:40      60.0      59.3       29     27.6      0.00      1.56      59.6     0.31      1017.7     4.5     NNW   344  11.3       N     0   9.72    263      331.0
   12/02/2018 11:30      59.5      58.7       30     28.1      0.00      1.56      59.6     0.31      1017.8     5.0       N     7   9.4     NNW   348   9.72    264      334.0
   12/02/2018 11:20      59.5      58.7       30     28.0      0.00      1.56      59.6     0.31      1017.8     5.1       N     0  11.7     NNE    20   9.73    264      334.3
   12/02/2018 11:10      59.5      58.5       31     28.1      0.00      1.56      59.6     0.31      1017.9     4.8       N   350  10.0       N     9   9.72    264      329.5
   12/02/2018 11:00      58.9      57.9       31     28.1      0.00      1.56      59.6     0.31      1018.2     4.5     NNW   348  10.9       N   355   9.72    264      318.1
   12/02/2018 10:50      58.4      57.7       32     28.2      0.00      1.56      59.6     0.31      1018.3     5.7     NNW   340  10.6      NW   313   9.73    264      310.1
   12/02/2018 10:40      59.4      57.7       32     28.6      0.00      1.56      59.6     0.31      1018.4     6.2     NNW   348  12.4      NE    34   9.73    264      312.2
   12/02/2018 10:30      59.9      58.3       31     28.7      0.00      1.56      59.6     0.31      1018.6     3.1     NNW   341   7.4     WNW   288   9.73    264      296.9
   12/02/2018 10:20      58.9      58.0       31     27.8      0.00      1.56      59.7     0.31      1018.5     4.8       N   355   8.7     NNW   348   9.73    264      280.7
   12/02/2018 10:10      59.1      58.3       31     28.5      0.00      1.56      59.7     0.31      1018.4     3.6       N   351   9.6      NW   324   9.73    264      289.1
   12/02/2018 10:00      58.3      57.5       31     27.7      0.00      1.56      59.7     0.31      1018.4     4.5     NNW   336   9.0       N   354   9.73    264      273.9
   12/02/2018 09:50      58.0      57.3       32     27.8      0.00      1.56      59.8     0.31      1018.4     5.0     NNW   345  11.6       W   280   9.73    264      262.8
   12/02/2018 09:40      57.7      57.4       33     28.3      0.00      1.56      59.8     0.31      1018.3     5.0     NNW   329  10.5     WNW   286   9.73    264      248.4
   12/02/2018 09:30      57.6      56.0       34     28.9      0.00      1.56      59.8     0.31      1018.3     3.5      NW   318   8.2      NW   315   9.73    264      233.7
   12/02/2018 09:20      56.1      55.2       37     29.7      0.00      1.56      59.9     0.31      1018.2     4.5      NW   324   9.7     WNW   290   9.73    265      212.0
   12/02/2018 09:10      55.5      54.5       38     29.8      0.00      1.56      59.9     0.31      1018.1     6.0      NW   317  10.7     NNW   343   9.73    266      198.9
   12/02/2018 09:00      54.8      54.2       38     29.6      0.00      1.56      59.9     0.31      1018.1     6.2     NNW   327   9.9      NW   324   9.73    266      174.4
   12/02/2018 08:50      54.4      54.0       40     30.4      0.00      1.56      59.9     0.31      1018.1     6.1     NNW   334  13.1       N     3   9.73    266      148.4
   12/02/2018 08:40      54.2      53.5       41     30.7      0.00      1.56      60.0     0.31      1018.0     5.2       N   350  11.4     NNW   345   9.73    266      132.3
   12/02/2018 08:30      53.8      53.5       42     31.0      0.00      1.56      60.0     0.31      1017.9     6.2       N     2   9.7     NNE    27   9.73    266      121.4
   12/02/2018 08:20      53.8      53.2       44     31.9      0.00      1.56      60.0     0.31      1017.9     4.2       N   352   9.0     NNW   338   9.73    266      103.7
   12/02/2018 08:10      53.3      52.5       46     32.5      0.00      1.56      60.0     0.31      1017.8     3.2       N     9   6.4      NW   307   9.73    266       86.1
   12/02/2018 08:00      52.7      51.7       47     32.4      0.00      1.56      60.1     0.31      1017.8     3.7       N    11   7.6      NE    39   9.73    266       67.5
   12/02/2018 07:50      51.9      51.2       47     32.1      0.00      1.56      60.1     0.31      1017.8     4.1       N     4   8.3     NNW   337   9.73    266       30.7
   12/02/2018 07:40      51.3      50.8       48     32.2      0.00      1.56      60.1     0.31      1017.7     3.2       N     1   6.0      NW   307   9.73    267      -29.9
   12/02/2018 07:30      51.0      50.2       49     31.9      0.00      1.56      60.2     0.31      1017.5     3.8       N     3   9.5      NW   317   9.73    267      -40.4
   12/02/2018 07:20      50.5      49.6       50     31.9      0.00      1.56      60.2     0.31      1017.4     3.8     NNE    12   6.5       N   355   9.73    267      -51.6
   12/02/2018 07:10      49.7      49.3       51     32.0      0.00      1.56      60.2     0.31      1017.2     2.8       N     7   5.0     NNW   347   9.73    267      -58.6
   12/02/2018 07:00      49.7      49.3       50     31.9      0.00      1.56      60.3     0.31      1016.9     3.3     NNE    12   7.8       N   355   9.73    267      -64.0
   12/02/2018 06:50      49.7      49.3       50     31.6      0.00      1.56      60.3     0.31      1016.7     3.4     NNE    14   6.8       N     0   9.73    267      -68.2
   12/02/2018 06:40      49.6      49.1       50     31.6      0.00      1.56      60.3     0.31      1016.7     2.7       N   360   6.1     NNW   347   9.73    267      -71.0
   12/02/2018 06:30      49.3      48.8       51     31.9      0.00      1.56      60.3     0.31      1016.7     2.3       N   350   6.6     NNW   349   9.73    267      -72.0
   12/02/2018 06:20      49.1      47.6       52     31.8      0.00      1.56      60.4     0.31      1016.6     2.9       N     9   5.9     NNW   328   9.73    267      -71.1
   12/02/2018 06:10      47.6      45.4       55     31.5      0.00      1.56      60.4     0.31      1016.5     1.6     NNE    27   4.5       N     5   9.73    268      -69.3
   12/02/2018 06:00      45.5      44.7       59     31.5      0.00      1.56      60.4     0.31      1016.3     0.3     SSE   169   1.4     SSW   201   9.73    268      -68.6
   12/02/2018 05:50      44.9      43.5       62     31.9      0.00      1.56      60.4     0.31      1016.2     0.8       E    85   3.4     ENE    64   9.73    268      -69.3
   12/02/2018 05:40      43.5      42.6       67     32.9      0.00      1.56      60.5     0.31      1016.1     1.4     SSE   151   3.5      SE   145   9.73    268      -69.7
   12/02/2018 05:30      43.4      42.6       68     32.9      0.00      1.56      60.5     0.31      1016.0     0.9     SSE   161   2.5      SE   132   9.73    268      -70.1
   12/02/2018 05:20      44.6      43.2       64     32.5      0.00      1.56      60.4     0.31      1015.9     0.9     SSE   163   2.1      SE   142   9.73    268      -70.3
   12/02/2018 05:10      45.0      44.1       63     32.5      0.00      1.56      60.5     0.31      1015.7     0.9     SSE   156   2.3      SE   135   9.73    268      -70.9
   12/02/2018 05:00      45.7      44.6       61     32.3      0.00      1.56      60.5     0.31      1015.6     1.2     SSE   154   2.2     SSW   200   9.73    267      -71.1
   12/02/2018 04:50      47.1      45.5       58     32.3      0.00      1.56      60.6     0.31      1015.6     0.9     SSE   166   2.0     SSE   157   9.73    267      -71.7
   12/02/2018 04:40      48.7      46.9       54     31.9      0.00      1.56      60.6     0.31      1015.5     0.8     SSW   208   1.8     NNE    14   9.73    267      -73.0
   12/02/2018 04:30      50.0      48.6       50     31.3      0.00      1.56      60.6     0.31      1015.4     1.4     WSW   254   3.2       W   277   9.74    267      -74.3
   12/02/2018 04:20      49.9      49.4       48     30.9      0.00      1.56      60.6     0.31      1015.4     1.6      NW   319   3.3     WSW   253   9.74    267      -74.0
   12/02/2018 04:10      50.1      49.4       50     31.5      0.00      1.56      60.6     0.31      1015.4     1.0     NNW   334   3.8     NNE    20   9.74    267      -74.3
   12/02/2018 04:00      50.1      49.7       49     31.7      0.00      1.56      60.7     0.31      1015.4     1.1      NW   321   3.1      NW   321   9.74    267      -74.5
   12/02/2018 03:50      50.3      49.9       49     31.9      0.00      1.56      60.6     0.31      1015.2     2.0     NNW   329   4.9       N     3   9.74    267      -75.0
   12/02/2018 03:40      50.5      49.9       50     32.0      0.00      1.56      60.7     0.31      1015.2     1.6     NNW   346   4.2     NNW   329   9.74    267      -74.9
   12/02/2018 03:30      50.5      50.0       49     32.0      0.00      1.56      60.8     0.31      1015.2     2.3     NNW   347   5.8       N     9   9.74    267      -75.2
   12/02/2018 03:20      50.6      50.1       49     32.0      0.00      1.56      60.8     0.31      1015.2     1.8     NNW   334   4.8       N    11   9.74    267      -75.2
   12/02/2018 03:10      50.8      50.3       49     31.9      0.00      1.56      60.8     0.31      1015.2     1.7     NNW   347   4.9     NNW   348   9.74    267      -75.5
   12/02/2018 03:00      51.0      50.3       49     32.0      0.00      1.56      60.8     0.31      1015.3     2.5       N     5   6.7     NNE    29   9.74    267      -76.0
   12/02/2018 02:50      51.3      50.8       48     31.8      0.00      1.56      60.8     0.31      1015.3     3.1       N     7   6.0     NNW   348   9.74    267      -76.3
   12/02/2018 02:40      51.5      50.9       47     31.9      0.00      1.56      60.9     0.31      1015.3     3.6       N     3   7.0     WNW   295   9.74    267      -76.4
   12/02/2018 02:30      51.6      51.1       48     32.0      0.00      1.56      60.9     0.31      1015.3     3.7       N     4   8.4     NNW   347   9.74    267      -76.7
   12/02/2018 02:20      51.8      51.1       47     32.0      0.00      1.56      60.9     0.31      1015.2     3.4       N   357   7.0     NNE    22   9.74    267      -76.5
   12/02/2018 02:10      51.9      51.4       47     31.9      0.00      1.56      60.9     0.31      1015.1     3.5       N     6   7.8      NE    34   9.75    267      -76.4
   12/02/2018 02:00      52.0      51.6       46     31.7      0.00      1.56      60.9     0.31      1015.0     3.6       N     6  10.2       N   351   9.75    267      -76.6
   12/02/2018 01:50      52.1      51.6       46     31.5      0.00      1.56      60.9     0.31      1014.9     4.5       N     8   8.5       N     2   9.75    267      -76.4
   12/02/2018 01:40      52.0      51.6       46     31.4      0.00      1.56      61.0     0.31      1014.8     4.4       N     0   7.8       N    10   9.75    267      -76.2
   12/02/2018 01:30      51.9      51.2       46     31.5      0.00      1.56      61.0     0.31      1014.8     3.8       N   353  10.8      NW   324   9.75    267      -76.2
   12/02/2018 01:20      51.8      51.4       46     31.6      0.00      1.56      61.0     0.31      1014.8     3.1     NNW   344   7.5      NW   324   9.75    267      -76.3
   12/02/2018 01:10      51.6      51.2       47     31.7      0.00      1.56      61.0     0.31      1014.8     2.9     NNW   349   6.9     WNW   296   9.75    267      -75.7
   12/02/2018 01:00      51.4      50.9       48     31.9      0.00      1.56      61.1     0.31      1014.8     2.1     NNW   336   6.1      NW   312   9.75    267      -75.9
   12/02/2018 00:50      51.3      51.0       48     32.1      0.00      1.56      61.1     0.31      1014.8     2.3      NW   308   5.0     NNW   332   9.75    267      -75.9
   12/02/2018 00:40      51.4      50.8       49     32.4      0.00      1.56      61.0     0.31      1014.8     1.1      NW   326   4.8     NNW   344   9.75    268      -75.3
   12/02/2018 00:30      51.4      51.0       49     32.8      0.00      1.56      61.1     0.31      1014.6     2.1     WNW   285   4.1      NE    43   9.75    268      -75.0
   12/02/2018 00:20      51.3      50.1       51     33.3      0.00      1.56      61.1     0.31      1014.8     1.4     NNW   342   4.5     NNW   345   9.75    268      -74.3
   12/02/2018 00:10      50.2      48.4       62     36.4      0.00      1.56      61.1     0.31      1014.8     1.3     NNW   340   5.4      NW   319   9.75    268      -73.5
   12/02/2018 00:00      48.6      47.3       72     39.0      0.00      1.56      61.1     0.31      1014.8     1.2      SW   220   2.7     SSE   160   9.75    268      -72.3
   12/01/2018 23:50      47.8      47.2       73     39.2      0.00      1.56      61.1     0.31      1014.8     0.8      SE   140   3.7       S   188   9.75    269      -71.6
   12/01/2018 23:40      48.6      47.5       71     38.9      0.00      1.56      61.1     0.31      1014.8     1.1       S   183   3.0       S   179   9.75    269      -62.9
   12/01/2018 23:30      50.1      48.2       69     38.9      0.00      1.56      61.1     0.31      1014.8     0.2     SSE   147   1.0      SE   141   9.75    269      -61.9
   12/01/2018 23:20      50.5      49.8       63     38.2      0.00      1.56      61.1     0.31      1014.7     0.3     WSW   240   1.4      SE   138   9.75    268      -69.7
   12/01/2018 23:10      50.3      49.4       69     40.2      0.00      1.56      61.2     0.31      1014.7     1.0     NNW   337   3.1       N   353   9.75    268      -61.4
   12/01/2018 23:00      50.1      49.2       79     43.2      0.00      1.56      61.2     0.31      1014.7     0.6       W   264   1.8     NNE    17   9.76    269      -62.8
   12/01/2018 22:50      51.9      49.8       76     43.3      0.00      1.56      61.2     0.31      1014.5     0.4     SSW   201   1.4      SW   220   9.76    267      -71.1
   12/01/2018 22:40      52.3      51.6       74     43.9      0.00      1.56      61.2     0.31      1014.4     0.6      NW   318   2.1      NW   307   9.76    269      -72.8
   12/01/2018 22:30      52.6      52.1       73     44.0      0.00      1.56      61.2     0.31      1014.3     1.4     WNW   291   2.6      NW   322   9.76    268      -70.8
   12/01/2018 22:20      53.0      52.3       72     44.0      0.00      1.56      61.2     0.31      1014.2     1.8     WNW   297   3.0       W   267   9.76    268      -58.1
   12/01/2018 22:10      52.7      51.6       74     44.1      0.00      1.56      61.2     0.31      1014.2     2.7     WNW   302   7.8     WNW   297   9.76    268      -48.8
   12/01/2018 22:00      51.9      50.7       77     44.4      0.00      1.56      61.2     0.31      1014.1     1.8     WSW   255   3.3     WSW   243   9.76    268      -57.4
   12/01/2018 21:50      50.9      50.0       79     44.2      0.00      1.56      61.3     0.31      1014.1     0.5       W   267   1.4       N     2   9.76    268      -26.8
   12/01/2018 21:40      51.2      50.0       77     43.5      0.00      1.56      61.3     0.31      1014.0     0.3       S   178   1.1      SW   223   9.76    268      -33.1
   12/01/2018 21:30      52.5      51.0       74     43.6      0.00      1.56      61.3     0.31      1013.9     0.3       E    83   1.2     ENE    70   9.76    268      -62.9
   12/01/2018 21:20      53.0      52.2       72     44.0      0.00      1.56      61.2     0.31      1013.8     0.6     NNW   341   2.7     WNW   296   9.76    268      -69.4
   12/01/2018 21:10      53.0      52.7       72     44.0      0.00      1.56      61.3     0.31      1013.7     1.6       W   264   5.6     WNW   284   9.76    268      -71.5
   12/01/2018 21:00      53.1      52.7       72     44.1      0.00      1.56      61.3     0.31      1013.6     2.9       W   264   6.7     WSW   247   9.76    268      -70.7
   12/01/2018 20:50      53.5      52.8       71     44.1      0.00      1.56      61.3     0.31      1013.5     3.1     WSW   257   6.6       W   265   9.76    268      -68.1
   12/01/2018 20:40      53.6      53.1       70     43.9      0.00      1.56      61.3     0.31      1013.7     5.2     WSW   238   8.6     WSW   257   9.77    268      -71.4
   12/01/2018 20:30      53.5      53.1       70     43.6      0.00      1.56      61.3     0.31      1013.7     4.8       W   266  13.0     WNW   281   9.77    268      -71.9
   12/01/2018 20:20      53.5      53.2       70     43.7      0.00      1.56      61.3     0.31      1013.7     2.4     WNW   286   5.3     WNW   282   9.77    268      -72.4
   12/01/2018 20:10      53.5      53.1       70     43.8      0.00      1.56      61.3     0.31      1013.7     2.8       W   278   7.9     WSW   240   9.77    268      -72.4
   12/01/2018 20:00      53.9      53.2       70     43.9      0.00      1.56      61.3     0.31      1013.6     3.0       W   280   6.0     WSW   257   9.77    268      -72.9
   12/01/2018 19:50      53.9      53.5       70     43.9      0.00      1.56      61.3     0.31      1013.5     4.1       W   271  12.2      SW   214   9.77    267      -73.5
   12/01/2018 19:40      53.8      53.5       69     43.7      0.00      1.56      61.3     0.31      1013.3     5.1     WSW   249  10.6       W   279   9.77    267      -74.0
   12/01/2018 19:30      54.0      53.6       68     43.6      0.00      1.56      61.3     0.31      1013.2     5.7      SW   235  11.2      SW   216   9.77    267      -74.4
   12/01/2018 19:20      54.2      53.7       68     43.6      0.00      1.56      61.3     0.31      1013.2     5.1      SW   225  10.7     WSW   249   9.77    267      -74.3
   12/01/2018 19:10      54.3      53.9       68     43.8      0.00      1.56      61.3     0.31      1013.2     5.2      SW   233   8.1     SSW   207   9.77    267      -74.4
   12/01/2018 19:00      54.5      54.0       69     44.3      0.00      1.56      61.2     0.31      1013.3     4.9      SW   217   8.4       S   190   9.77    267      -68.3
   12/01/2018 18:50      54.5      54.1       69     44.4      0.00      1.56      61.3     0.31      1013.3     5.6      SW   217  10.3     WSW   252   9.78    267      -60.7
   12/01/2018 18:40      54.8      54.2       68     44.0      0.00      1.56      61.2     0.31      1013.2     6.6      SW   216   9.8      SW   214   9.78    267      -53.0
   12/01/2018 18:30      55.0      54.4       66     43.7      0.00      1.56      61.2     0.31      1013.1     7.1     SSW   213  12.3     SSW   208   9.78    267      -66.2
   12/01/2018 18:20      55.4      54.8       63     42.5      0.00      1.56      61.2     0.31      1013.1     5.5      SW   234  11.5     SSW   214   9.78    267      -74.2
   12/01/2018 18:10      55.3      54.9       60     41.7      0.00      1.56      61.2     0.31      1013.0     3.8      SW   233   6.8     WSW   252   9.78    266      -75.5
   12/01/2018 18:00      55.7      55.0       60     41.5      0.00      1.56      61.1     0.31      1012.9     3.0      SW   224   6.7      SW   234   9.78    266      -76.9
   12/01/2018 17:50      55.9      55.3       59     41.4      0.00      1.56      61.2     0.31      1012.8     4.4      SW   225   8.2     SSW   208   9.78    266      -77.8
   12/01/2018 17:40      56.1      55.6       58     41.3      0.00      1.56      61.1     0.31      1012.8     6.1      SW   230  10.8      SW   222   9.78    266      -77.3
   12/01/2018 17:30      56.1      55.6       58     41.4      0.00      1.56      61.1     0.31      1012.8     4.0      SW   226   7.7     WSW   243   9.78    266      -76.9
   12/01/2018 17:20      56.4      55.8       58     41.6      0.00      1.56      61.1     0.31      1012.8     3.3     SSW   202   6.8       W   268   9.79    266      -78.3
   12/01/2018 17:10      56.9      56.1       58     41.6      0.00      1.56      61.1     0.31      1012.9     4.1     SSW   202   7.3      SW   215   9.79    266      -79.0
   12/01/2018 17:00      57.1      56.4       56     41.5      0.00      1.56      61.0     0.31      1013.0     3.7     SSW   205   7.1     SSW   206   9.79    266      -78.7
   12/01/2018 16:50      57.6      56.9       54     40.9      0.00      1.56      61.0     0.31      1013.1     3.8     SSW   203   7.1       S   178   9.79    266      -77.9
   12/01/2018 16:40      58.3      57.4       52     40.1      0.00      1.56      61.0     0.31      1013.0     3.4     SSW   198   6.3     SSW   204   9.79    266      -74.7
   12/01/2018 16:30      58.8      57.9       50     39.7      0.00      1.56      61.0     0.31      1013.0     3.1      SW   219   7.9       W   264   9.79    266      -68.4
   12/01/2018 16:20      59.8      58.6       48     39.5      0.00      1.56      61.0     0.31      1012.9     3.3      SW   222   6.8     WSW   247   9.80    266      -59.6
   12/01/2018 16:10      60.3      59.5       47     39.4      0.00      1.56      60.9     0.31      1012.8     2.9      SW   219   6.4      SW   227   9.80    264      -31.8
   12/01/2018 16:00      60.5      59.7       46     39.5      0.00      1.56      60.9     0.31      1012.9     2.5     WSW   242   6.4     WNW   284   9.80    264      -22.7
   12/01/2018 15:50      60.0      59.6       46     39.3      0.00      1.56      60.9     0.31      1013.0     4.7     WSW   243   8.1     WSW   240   9.80    264       -6.5
   12/01/2018 15:40      61.1      59.7       45     38.7      0.00      1.56      60.8     0.31      1013.2     5.6      SW   231   8.2      SW   227   9.80    264       14.2
   12/01/2018 15:30      61.1      60.6       44     38.8      0.00      1.56      60.8     0.31      1013.3     4.7     WSW   246   8.9     WSW   249   9.81    264       35.6
   12/01/2018 15:20      61.9      60.6       41     37.1      0.00      1.56      60.8     0.31      1013.4     6.3       W   263  12.6       W   277   9.81    264       59.3
   12/01/2018 15:10      62.4      61.5       35     33.5      0.00      1.56      60.7     0.31      1013.4     5.8       W   262  11.1      SW   236   9.81    264       81.7
   12/01/2018 15:00      62.8      62.0       32     31.9      0.00      1.56      60.7     0.31      1013.3     5.8       W   259  10.3     WSW   246   9.81    263      104.5
   12/01/2018 14:50      63.5      62.3       33     33.2      0.00      1.56      60.7     0.31      1013.3     5.7     WSW   254   9.7      NW   321   9.81    264      126.2
   12/01/2018 14:40      63.6      62.8       31     32.1      0.00      1.56      60.7     0.31      1013.3     4.4       W   275   9.5      SW   233   9.81    263      141.3
   12/01/2018 14:30      63.6      62.8       29     30.4      0.00      1.56      60.6     0.31      1013.3     4.8     WSW   254   8.7       W   269   9.82    263      167.0
   12/01/2018 14:20      63.3      62.7       29     29.9      0.00      1.56      60.6     0.31      1013.4     6.1       W   265  10.3     WNW   303   9.82    263      186.9
   12/01/2018 14:10      64.0      63.0       29     30.2      0.00      1.56      60.6     0.31      1013.4     6.1     WSW   249  11.5       W   260   9.82    263      204.7
   12/01/2018 14:00      64.0      63.1       30     31.1      0.00      1.56      60.5     0.31      1013.4     5.8     WSW   247  12.5     WSW   253   9.82    263      219.1
   12/01/2018 13:50      63.8      63.1       32     33.1      0.00      1.56      60.5     0.31      1013.4     5.0     WSW   244   8.6     WSW   241   9.82    263      233.6
   12/01/2018 13:40      64.4      63.0       36     35.9      0.00      1.56      60.5     0.31      1013.5     5.6      SW   219  10.0     SSW   208   9.83    264      250.4
   12/01/2018 13:30      64.4      62.9       36     36.4      0.00      1.56      60.4     0.31      1013.7     2.7      SW   215   6.2       S   169   9.83    263      260.3
   12/01/2018 13:20      63.4      62.8       36     35.4      0.00      1.56      60.4     0.31      1013.8     3.4      SW   225   7.6      SW   232   9.83    264      273.8
   12/01/2018 13:10      63.6      62.8       34     34.6      0.00      1.56      60.4     0.31      1013.7     3.6     WSW   247   9.0     SSW   213   9.83    264      285.3
   12/01/2018 13:00      63.6      62.4       35     34.6      0.00      1.56      60.4     0.31      1014.0     3.7     WSW   242   8.0       W   279   9.83    263      296.1
   12/01/2018 12:50      63.0      62.0       36     34.8      0.00      1.56      60.4     0.31      1014.1     4.7      SW   220   7.3      SW   218   9.83    263      307.0
   12/01/2018 12:40      63.2      62.4       35     34.7      0.00      1.56      60.4     0.31      1014.3     3.8     WSW   245   7.6     SSW   211   9.83    263      311.8
   12/01/2018 12:30      63.3      62.5       35     34.5      0.00      1.56      60.4     0.31      1014.5     2.8       W   260   6.9     WSW   258   9.83    263      305.7
   12/01/2018 12:20      63.7      62.3       34     34.3      0.00      1.56      60.3     0.31      1014.7     4.0       W   267   7.4       W   281   9.83    264      325.2
   12/01/2018 12:10      63.7      62.8       35     35.1      0.00      1.56      60.4     0.31      1014.8     2.1     SSW   209   5.1     SSW   193   9.83    264      329.9
   12/01/2018 12:00      63.3      61.9       34     34.0      0.00      1.56      60.3     0.31      1015.1     2.5     WSW   252   6.5     WSW   240   9.83    264      334.2
   12/01/2018 11:50      62.6      61.6       35     34.2      0.00      1.56      60.3     0.31      1015.3     3.4     WSW   251   7.6     WSW   242   9.83    264      343.9
   12/01/2018 11:40      62.4      61.6       37     35.3      0.00      1.56      60.3     0.31      1015.6     3.8      SW   221   7.8     WSW   255   9.83    264      340.4
   12/01/2018 11:30      61.8      61.3       37     34.7      0.00      1.56      60.4     0.31      1015.8     2.7      SW   214   5.4      SW   214   9.83    264      321.0
   12/01/2018 11:20      62.0      61.0       37     34.7      0.00      1.56      60.4     0.31      1015.9     3.2      SW   228   6.0     SSW   204   9.83    265      320.2
   12/01/2018 11:10      61.6      60.7       37     34.7      0.00      1.56      60.4     0.31      1016.2     3.1      SW   225   5.6     WSW   237   9.83    266      321.4
   12/01/2018 11:00      61.4      60.5       37     34.7      0.00      1.56      60.4     0.31      1016.3     4.0     WSW   237   6.3      SW   223   9.83    265      326.2
   12/01/2018 10:50      61.1      60.5       37     34.0      0.00      1.56      60.4     0.31      1016.2     3.1       W   266   6.2     WSW   246   9.83    264      315.5
   12/01/2018 10:40      61.5      60.5       37     34.5      0.00      1.56      60.4     0.31      1016.3     3.3      SW   219   7.0     WSW   239   9.83    265      313.2
   12/01/2018 10:30      61.4      60.7       37     34.4      0.00      1.56      60.5     0.31      1016.4     2.1     SSW   191   3.7     SSW   196   9.83    266      307.0
   12/01/2018 10:20      61.3      60.7       38     35.2      0.00      1.56      60.5     0.31      1016.5     2.1      SW   219   5.0      SW   231   9.83    266      295.4
   12/01/2018 10:10      61.1      59.9       39     35.5      0.00      1.56      60.5     0.31      1016.6     1.2     SSE   150   3.1     WNW   298   9.83    266      282.8
   12/01/2018 10:00      60.7      59.9       40     35.8      0.00      1.56      60.6     0.31      1016.9     1.4     NNE    24   4.0     NNE    12   9.83    266      271.4
   12/01/2018 09:50      60.2      59.4       40     35.6      0.00      1.56      60.6     0.31      1016.9     1.1       S   179   3.2       S   190   9.83    266      259.6
   12/01/2018 09:40      59.9      58.8       41     35.5      0.00      1.56      60.7     0.31      1016.9     0.8     ESE   105   2.7     ENE    70   9.83    266      244.7
   12/01/2018 09:30      59.0      58.3       43     35.8      0.00      1.56      60.6     0.31      1017.0     1.2     ENE    61   3.5     ENE    79   9.83    266      230.9
   12/01/2018 09:20      58.8      57.8       44     36.3      0.00      1.56      60.7     0.31      1017.0     1.6       S   181   2.8      SW   215   9.83    266      216.0
   12/01/2018 09:10      59.4      58.2       44     37.2      0.00      1.56      60.7     0.31      1016.8     0.7     SSE   165   2.1      SW   225   9.83    266      199.3
   12/01/2018 09:00      58.4      56.4       50     38.5      0.00      1.56      60.8     0.31      1016.8     0.4     ENE    58   1.6     NNE    32   9.83    266      182.1
   12/01/2018 08:50      56.7      55.1       54     39.8      0.00      1.56      60.8     0.31      1016.8     0.6      NE    50   1.5      NW   324   9.83    267      162.5
   12/01/2018 08:40      55.1      54.1       58     40.0      0.00      1.56      60.8     0.31      1016.6     0.8       N    11   2.3       S   177   9.83    267      139.2
   12/01/2018 08:30      54.1      52.9       62     40.6      0.00      1.56      60.9     0.31      1016.7     0.3       N    10   1.1       N     7   9.82    268      120.9
   12/01/2018 08:20      53.1      50.4       67     41.3      0.00      1.56      60.9     0.31      1016.6     0.0     NNE    29   0.3     NNE    29   9.82    268      116.4
   12/01/2018 08:10      50.5      48.0       75     41.5      0.00      1.56      61.0     0.31      1016.6     0.0       N     0   0.0     NNE    28   9.82    271      122.7
   12/01/2018 08:00      48.1      44.0       82     40.6      0.00      1.56      61.0     0.31      1016.6     0.0       N     0   0.0     NNE    28   9.82    282      107.5
   12/01/2018 07:50      44.2      42.6       85     38.9      0.00      1.56      61.0     0.31      1016.5     0.0      NE    54   0.6      NE    54   9.82    292       72.3
   12/01/2018 07:40      42.8      41.9       86     38.5      0.00      1.56      61.1     0.31      1016.4     0.8     ESE   117   1.6      SE   139   9.82    293       -4.6
   12/01/2018 07:30      42.0      41.0       88     38.1      0.00      1.56      61.1     0.31      1016.4     1.3     SSE   151   2.4      SE   141   9.82    294       -9.7
   12/01/2018 07:20      41.2      40.3       89     37.4      0.00      1.56      61.1     0.31      1016.6     0.0     SSW   192   0.8     SSW   213   9.82    294      -14.9
   12/01/2018 07:10      40.5      40.1       88     37.1      0.00      1.56      61.2     0.31      1016.5     0.8     SSE   151   2.2      SE   144   9.82    292      -20.3
   12/01/2018 07:00      40.5      40.1       88     36.9      0.00      1.56      61.2     0.31      1016.6     0.0     SSE   169   0.7     SSE   169   9.82    291      -26.2
   12/01/2018 06:50      40.7      40.2       87     36.9      0.00      1.56      61.2     0.31      1016.5     0.3     ESE   108   1.2       S   171   9.82    289      -31.6
   12/01/2018 06:40      40.7      40.2       87     36.9      0.00      1.56      61.3     0.31      1016.6     0.5     SSE   160   1.3     SSE   161   9.82    288      -36.0
   12/01/2018 06:30      40.9      40.3       86     36.9      0.00      1.56      61.3     0.31      1016.6     0.6       S   172   1.3      SW   216   9.82    285      -39.1
   12/01/2018 06:20      40.9      40.5       87     36.9      0.00      1.56      61.3     0.31      1016.6     0.6     SSW   199   1.5       S   184   9.82    284      -40.9
   12/01/2018 06:10      41.4      40.5       86     36.9      0.00      1.56      61.4     0.31      1016.4     0.2      NE    54   1.0     ENE    60   9.82    283      -43.7
   12/01/2018 06:00      41.6      41.0       85     37.0      0.00      1.56      61.4     0.31      1016.3     0.4      SE   146   1.4     SSE   155   9.82    280      -45.6
   12/01/2018 05:50      41.7      41.2       84     37.2      0.00      1.56      61.4     0.31      1016.3     0.8     SSE   151   1.7      SE   131   9.82    278      -46.0
   12/01/2018 05:40      42.0      41.3       84     37.1      0.00      1.56      61.4     0.31      1016.1     0.5       S   189   2.2       S   176   9.82    279      -47.4
   12/01/2018 05:30      42.3      41.7       84     37.6      0.00      1.56      61.4     0.31      1016.0     0.6     ESE   107   2.2     SSE   164   9.83    277      -47.9
   12/01/2018 05:20      42.3      41.8       84     37.7      0.00      1.56      61.5     0.31      1016.0     0.8     SSE   161   3.0       S   173   9.83    277      -49.0
   12/01/2018 05:10      42.5      41.9       84     37.7      0.00      1.56      61.5     0.31      1016.0     0.5     WNW   286   2.3      NW   313   9.83    278      -50.6
   12/01/2018 05:00      42.8      42.1       84     37.8      0.00      1.56      61.5     0.31      1015.9     0.2     WSW   251   1.0       S   187   9.83    276      -52.4
   12/01/2018 04:50      42.8      42.4       84     38.2      0.00      1.56      61.6     0.31      1015.7     0.5     SSE   148   1.5      SE   141   9.82    275      -54.7
   12/01/2018 04:40      42.6      42.1       84     37.8      0.00      1.56      61.6     0.31      1015.6     0.5     SSE   159   1.4     SSE   151   9.82    274      -57.6
   12/01/2018 04:30      43.0      42.1       83     37.5      0.00      1.56      61.6     0.31      1015.5     0.4     SSW   203   1.2     SSW   211   9.82    271      -60.1
   12/01/2018 04:20      43.7      42.8       82     38.0      0.00      1.56      61.7     0.31      1015.7     0.1     ESE   111   1.0     SSE   150   9.83    270      -62.4
   12/01/2018 04:10      43.7      43.2       81     38.1      0.00      1.56      61.7     0.31      1015.7     0.5     SSE   155   1.1     SSE   154   9.83    267      -62.6
   12/01/2018 04:00      44.2      43.5       80     38.0      0.00      1.56      61.7     0.31      1015.8     0.5     SSE   159   1.2     SSE   159   9.83    269      -63.3
   12/01/2018 03:50      44.9      43.9       78     37.8      0.00      1.56      61.8     0.31      1015.8     0.4     SSE   158   1.6     SSE   166   9.83    270      -64.3
   12/01/2018 03:40      44.8      44.3       78     38.2      0.00      1.56      61.8     0.31      1015.7     1.2      SE   136   2.3      SE   144   9.83    270      -64.7
   12/01/2018 03:30      44.6      44.0       79     38.2      0.00      1.56      61.8     0.31      1015.7     1.3     SSE   154   2.4      SE   144   9.83    270      -63.8
   12/01/2018 03:20      44.8      44.2       78     38.0      0.00      1.56      61.9     0.31      1015.8     0.8     SSE   151   1.6     SSE   147   9.83    270      -64.5
   12/01/2018 03:10      44.9      44.4       78     38.3      0.00      1.56      61.9     0.31      1015.8     1.3     SSE   147   2.7     SSE   148   9.83    269      -64.9
   12/01/2018 03:00      44.7      44.3       79     38.4      0.00      1.56      61.9     0.31      1015.7     1.2     SSE   152   2.2      SE   139   9.83    270      -64.8
   12/01/2018 02:50      44.6      44.2       79     38.4      0.00      1.56      61.9     0.31      1015.7     1.0      SE   146   2.0      SE   144   9.83    270      -65.0
   12/01/2018 02:40      45.1      44.2       79     38.4      0.00      1.56      61.9     0.31      1015.9     0.8     SSE   156   1.5     SSE   150   9.83    269      -64.9
   12/01/2018 02:30      45.0      44.5       79     38.5      0.00      1.56      62.0     0.31      1015.9     0.9      SE   138   1.8      SE   137   9.83    269      -64.8
   12/01/2018 02:20      45.3      44.5       78     38.5      0.00      1.56      62.0     0.31      1015.8     1.2     SSE   156   2.3      SE   146   9.83    269      -65.8
   12/01/2018 02:10      45.3      45.0       77     38.5      0.00      1.56      62.0     0.31      1015.9     0.9      SE   142   2.2      SE   141   9.83    269      -66.0
   12/01/2018 02:00      46.0      45.1       76     38.3      0.00      1.56      62.0     0.31      1016.0     0.5     SSE   158   1.6      SE   131   9.83    269      -66.0
   12/01/2018 01:50      46.0      45.4       76     38.4      0.00      1.56      62.1     0.31      1016.1     1.1      SE   138   2.6      SE   143   9.83    269      -65.5
   12/01/2018 01:40      46.4      45.5       75     38.3      0.00      1.56      62.1     0.31      1016.2     0.9     SSE   163   2.4      SE   141   9.83    268      -66.2
   12/01/2018 01:30      46.4      45.8       74     38.3      0.00      1.56      62.1     0.31      1016.0     1.3      SE   138   3.6      SE   140   9.83    268      -66.5
   12/01/2018 01:20      46.5      45.9       74     38.3      0.00      1.56      62.1     0.31      1016.0     1.2     SSE   162   2.1      SE   142   9.83    268      -66.8
   12/01/2018 01:10      46.7      46.2       73     38.4      0.00      1.56      62.1     0.31      1016.2     1.2      SE   130   2.3      SE   135   9.83    268      -67.3
   12/01/2018 01:00      47.4      46.3       73     38.4      0.00      1.56      62.2     0.31      1016.1     1.5     SSE   148   2.6      SE   144   9.83    268      -67.4
   12/01/2018 00:50      48.2      47.2       69     38.0      0.00      1.56      62.2     0.31      1016.0     0.9     SSE   149   2.8     SSW   198   9.84    268      -68.1
   12/01/2018 00:40      48.1      47.1       70     38.2      0.00      1.56      62.2     0.31      1016.0     1.7     SSE   148   3.7       S   184   9.84    268      -67.6
   12/01/2018 00:30      47.6      47.1       71     38.2      0.00      1.56      62.3     0.31      1016.2     1.9     SSE   157   3.8       S   172   9.84    268      -68.0
   12/01/2018 00:20      48.6      47.3       69     38.0      0.00      1.56      62.3     0.31      1016.4     1.3       S   176   2.8      SE   137   9.84    268      -68.3
   12/01/2018 00:10      49.2      48.6       66     38.0      0.00      1.56      62.3     0.31      1016.4     1.0     ESE   123   3.9      SE   146   9.84    268      -69.7
   12/01/2018 00:00      48.9      47.9       68     38.3      0.00      1.56      62.3     0.31      1016.4     2.5      SE   133   4.6      SE   139   9.84    268      -69.4
   11/30/2018 23:50      49.2      47.9       67     38.1      0.00      1.56      62.3     0.31      1016.5     2.1     SSE   156   3.6      SE   144   9.84    268      -69.2
   11/30/2018 23:40      50.1      48.7       66     38.2      0.00      1.56      62.4     0.31      1016.7     1.0       S   184   2.6     SSE   161   9.84    268      -69.3
   11/30/2018 23:30      51.3      49.9       61     37.7      0.00      1.56      62.4     0.31      1016.7     2.6     SSE   154   4.2      SE   140   9.84    267      -69.4
   11/30/2018 23:20      51.3      50.8       59     37.3      0.00      1.56      62.4     0.31      1016.5     2.1     SSE   168   4.3       S   187   9.84    267      -69.8
   11/30/2018 23:10      51.1      50.1       61     37.7      0.00      1.56      62.4     0.31      1016.5     1.5       S   171   4.1       S   180   9.84    267      -69.9
   11/30/2018 23:00      52.5      50.8       58     37.6      0.00      1.56      62.4     0.31      1016.7     1.6     SSE   154   3.1      SE   143   9.85    267      -71.2
   11/30/2018 22:50      52.5      51.3       58     37.5      0.00      1.56      62.4     0.31      1016.6     1.7     SSE   167   3.5     SSE   154   9.85    267      -70.5
   11/30/2018 22:40      52.4      51.4       59     37.7      0.00      1.56      62.5     0.31      1016.5     1.8     SSE   156   3.8      SE   142   9.85    267      -70.8
   11/30/2018 22:30      54.9      52.2       55     37.4      0.00      1.56      62.5     0.31      1016.5     1.6      SE   145   2.8      SE   131   9.85    267      -72.0
   11/30/2018 22:20      55.8      54.6       50     36.5      0.00      1.56      62.5     0.31      1016.4     0.4     SSW   193   2.1       S   177   9.85    266      -73.4
   11/30/2018 22:10      55.9      55.5       48     36.3      0.00      1.56      62.5     0.31      1016.3     2.0       N     0   7.5     NNE    26   9.85    266      -74.4
   11/30/2018 22:00      56.3      55.5       48     36.5      0.00      1.56      62.5     0.31      1016.2     1.3       N     8   3.8     NNW   345   9.85    266      -75.6
   11/30/2018 21:50      56.5      55.9       47     36.4      0.00      1.56      62.5     0.31      1016.4     4.1       N   353   6.7     NNE    16   9.85    266      -76.5
   11/30/2018 21:40      56.4      55.9       47     36.3      0.00      1.56      62.5     0.31      1016.4     5.3     NNW   347  12.3     NNW   329   9.85    266      -76.7
   11/30/2018 21:30      56.4      55.9       47     36.2      0.00      1.56      62.6     0.31      1016.4     3.6       N   351   9.2       N     0   9.85    266      -76.9
   11/30/2018 21:20      56.4      55.9       46     35.8      0.00      1.56      62.6     0.31      1016.4     3.9     NNW   344   8.0       N    11   9.86    266      -76.7
   11/30/2018 21:10      56.2      55.7       47     36.0      0.00      1.56      62.6     0.31      1016.3     3.6       N     0   7.3      NW   311   9.86    266      -76.3
   11/30/2018 21:00      56.2      55.7       47     36.1      0.00      1.56      62.6     0.31      1016.1     4.2     NNE    13   8.2      NE    35   9.86    266      -76.3
   11/30/2018 20:50      56.3      55.9       47     36.1      0.00      1.56      62.6     0.31      1016.1     4.4     NNE    12   7.9     NNW   344   9.86    266      -76.5
   11/30/2018 20:40      56.4      55.9       46     35.8      0.00      1.56      62.6     0.31      1016.0     4.1     NNE    12   8.4     NNE    28   9.86    266      -76.0
   11/30/2018 20:30      56.6      56.0       46     35.8      0.00      1.56      62.6     0.31      1016.1     3.8       N     5  10.1      NW   314   9.86    266      -75.4
   11/30/2018 20:20      56.6      56.3       46     35.8      0.00      1.56      62.6     0.31      1016.1     4.4       N     1   9.3     NNW   342   9.86    266      -75.0
   11/30/2018 20:10      56.5      56.0       46     35.9      0.00      1.56      62.6     0.31      1016.2     5.3       N     6  10.6      NW   310   9.86    266      -74.7
   11/30/2018 20:00      56.2      55.5       47     36.0      0.00      1.56      62.6     0.31      1016.2     4.0       N     3   8.9       N     8   9.86    266      -74.3
   11/30/2018 19:50      55.9      55.5       48     36.1      0.00      1.56      62.6     0.31      1016.1     2.0       N   353   6.0       W   276   9.86    266      -74.9
   11/30/2018 19:40      56.0      55.5       48     36.2      0.00      1.56      62.7     0.31      1015.9     1.8       N     6   6.4     NNE    18   9.86    266      -74.9
   11/30/2018 19:30      56.0      55.5       48     36.1      0.00      1.56      62.7     0.31      1015.9     2.5     NNW   341   5.8     NNW   344   9.87    266      -75.0
   11/30/2018 19:20      56.3      55.7       47     36.2      0.00      1.56      62.6     0.31      1015.8     1.4     NNW   340   3.8     NNW   344   9.87    266      -75.1
   11/30/2018 19:10      56.3      56.0       47     36.3      0.00      1.56      62.7     0.31      1015.7     2.4       N   360   5.7       N     0   9.87    266      -75.1
   11/30/2018 19:00      56.6      56.0       47     36.3      0.00      1.56      62.6     0.31      1015.8     2.9     NNE    17   6.8       N   354   9.87    266      -75.3
   11/30/2018 18:50      56.8      56.1       47     36.5      0.00      1.56      62.6     0.31      1015.9     2.6     NNE    22   5.9     NNW   348   9.87    266      -75.4
   11/30/2018 18:40      56.9      56.4       47     36.6      0.00      1.56      62.6     0.31      1015.9     2.9     NNE    14   5.9      NE    35   9.87    266      -75.8
   11/30/2018 18:30      57.1      56.5       48     37.0      0.00      1.56      62.6     0.31      1015.9     2.9     NNE    17   6.7     NNE    16   9.87    266      -76.2
   11/30/2018 18:20      57.4      56.8       47     37.3      0.00      1.56      62.6     0.31      1015.9     2.9       N    11   5.8       N     4   9.87    266      -76.4
   11/30/2018 18:10      57.7      57.0       47     37.5      0.00      1.56      62.6     0.31      1015.8     3.4       N     1   8.2       N     6   9.87    266      -76.8
   11/30/2018 18:00      57.9      57.4       49     38.3      0.00      1.56      62.6     0.31      1015.9     2.2      NW   308   6.2      NW   310   9.87    266      -75.2
   11/30/2018 17:50      58.2      57.5       48     38.3      0.00      1.56      62.6     0.31      1015.8     1.7      NW   321   3.4      NW   310   9.88    266      -74.1
   11/30/2018 17:40      58.3      57.9       48     38.6      0.00      1.56      62.6     0.31      1015.5     1.9      NW   310   4.2      NW   313   9.88    266      -73.7
   11/30/2018 17:30      58.8      58.0       48     38.8      0.00      1.56      62.6     0.31      1015.2     1.4     NNW   329   3.2      NW   323   9.88    266      -72.9
   11/30/2018 17:20      59.0      58.4       48     38.8      0.00      1.56      62.5     0.31      1015.0     1.8      NW   325   4.5     NNW   329   9.88    266      -67.6
   11/30/2018 17:10      59.4      58.6       47     39.0      0.00      1.56      62.5     0.31      1015.0     2.2     NNW   337   4.7      NW   326   9.88    266      -56.8
   11/30/2018 17:00      59.6      59.0       47     39.0      0.00      1.56      62.5     0.31      1014.9     2.4     NNW   345   5.5     WNW   292   9.88    266      -50.1
   11/30/2018 16:50      60.2      59.4       46     39.0      0.00      1.56      62.5     0.31      1014.9     3.0     NNW   330   5.5     WNW   300   9.89    266      -53.7
   11/30/2018 16:40      60.8      59.9       46     39.3      0.00      1.56      62.5     0.31      1014.8     2.2     NNW   329   6.8       N   355   9.89    266      -35.2
   11/30/2018 16:30      61.2      60.5       45     39.5      0.00      1.56      62.5     0.31      1014.7     1.5     NNW   326   4.1     WNW   286   9.89    266      -30.8
   11/30/2018 16:20      61.6      60.9       45     39.5      0.00      1.56      62.5     0.31      1014.6     2.3     NNW   339   5.5     NNE    11   9.89    266      -20.7
   11/30/2018 16:10      62.1      61.4       45     39.9      0.00      1.56      62.4     0.31      1014.5     2.4     NNW   346   5.7       N   352   9.89    265       10.8
   11/30/2018 16:00      62.5      61.8       48     42.4      0.00      1.56      62.4     0.31      1014.4     3.1       N   359   8.1     NNE    21   9.89    266       28.3
   11/30/2018 15:50      62.0      59.9       54     44.1      0.00      1.56      62.4     0.31      1014.4     0.2       W   279   1.1     WNW   298   9.89    266       20.6
   11/30/2018 15:40      61.3      60.0       55     44.2      0.00      1.56      62.3     0.31      1014.2     0.3      SE   137   1.2      SE   142   9.90    266      -18.0
   11/30/2018 15:30      61.5      61.0       50     42.3      0.00      1.56      62.3     0.31      1014.3     0.7     NNW   342   2.6     NNW   345   9.90    266      -26.8
   11/30/2018 15:20      61.7      61.3       47     41.2      0.00      1.56      62.3     0.31      1014.3     0.7      NW   315   2.3      NW   305   9.90    266      -34.0
   11/30/2018 15:10      61.8      61.3       46     40.6      0.00      1.56      62.3     0.31      1014.0     1.0       N   357   2.8       N   350   9.90    266      -38.5
   11/30/2018 15:00      62.0      61.3       46     40.6      0.00      1.56      62.2     0.31      1013.8     1.7       N     4   3.8       N     1   9.90    266      -32.6
   11/30/2018 14:50      62.1      61.6       46     40.9      0.00      1.56      62.2     0.31      1013.8     1.6     NNE    18   3.2       N     8   9.90    266      -21.5
   11/30/2018 14:40      62.2      61.8       46     40.9      0.00      1.56      62.2     0.31      1014.1     2.1       N     0   5.0       N     2   9.90    266      -10.8
   11/30/2018 14:30      62.1      61.7       47     41.4      0.00      1.56      62.1     0.31      1014.0     2.4       N     6   4.9     NNE    26   9.90    266       12.9
   11/30/2018 14:20      62.0      61.7       47     41.6      0.00      1.56      62.1     0.31      1014.0     2.3       N     9   4.2     NNW   346   9.90    266        7.5
   11/30/2018 14:10      62.2      61.7       47     41.3      0.00      1.56      62.1     0.31      1013.8     2.8     NNE    17   6.7       N     8   9.90    266        5.7
   11/30/2018 14:00      62.7      61.9       46     40.9      0.00      1.56      62.0     0.31      1013.8     4.2       N     9   8.9       N     8   9.91    266       12.5
   11/30/2018 13:50      62.8      62.4       46     41.4      0.00      1.56      62.0     0.31      1013.9     3.1       N    11   8.0     NNE    29   9.91    266       46.7
   11/30/2018 13:40      64.0      62.4       45     41.4      0.00      1.56      62.0     0.31      1014.2     3.7       N     1   7.4     NNE    11   9.91    266       64.4
   11/30/2018 13:30      65.2      63.8       44     42.2      0.00      1.56      62.0     0.31      1014.4     3.1     NNW   343   5.8      NW   320   9.91    265      136.7
   11/30/2018 13:20      65.0      64.4       45     42.8      0.00      1.56      62.0     0.31      1014.1     2.1      NW   310   5.4      NE    37   9.91    265      244.9
   11/30/2018 13:10      64.9      62.7       45     41.9      0.00      1.56      61.9     0.31      1013.9     1.9       N    10   4.5      NE    34   9.91    265      312.8
   11/30/2018 13:00      63.3      62.7       45     41.4      0.00      1.56      61.9     0.31      1013.8     2.4       N     8   5.9       N     0   9.91    266       99.1
   11/30/2018 12:50      63.4      62.8       45     41.6      0.00      1.56      61.9     0.31      1013.8     2.8     NNW   334   6.0       W   264   9.92    266      208.7
   11/30/2018 12:40      63.6      62.8       45     41.2      0.00      1.56      61.9     0.31      1013.9     3.9     NNW   341  11.1     NNE    17   9.92    266      161.7
   11/30/2018 12:30      63.4      62.8       47     42.6      0.00      1.56      61.9     0.31      1014.0     2.4       W   263   4.1       W   264   9.92    266      112.8
   11/30/2018 12:20      64.6      63.2       46     42.6      0.00      1.56      61.9     0.31      1014.0     3.1     WSW   249   6.0     WSW   259   9.92    266      253.3
   11/30/2018 12:10      64.8      63.9       45     42.6      0.00      1.56      61.9     0.31      1014.2     2.0     SSW   207   3.9     SSW   193   9.92    265      437.4
   11/30/2018 12:00      64.2      63.5       46     42.5      0.00      1.56      61.8     0.31      1014.2     2.1     WNW   293   4.2     WNW   293   9.92    264      371.1
   11/30/2018 11:50      63.6      62.2       48     42.8      0.00      1.56      61.8     0.31      1014.4     2.5     WNW   287   4.8     WSW   247   9.92    266      360.4
   11/30/2018 11:40      63.4      62.2       48     42.6      0.00      1.56      61.9     0.31      1014.3     3.3      SW   222   5.9       W   261   9.92    266      344.4
   11/30/2018 11:30      63.8      62.2       49     43.1      0.00      1.56      61.9     0.31      1014.4     2.1       S   190   4.7     SSW   194   9.92    266      345.7
   11/30/2018 11:20      63.8      62.8       48     43.3      0.00      1.56      61.9     0.31      1014.5     1.0      NE    53   3.4       N     0   9.92    266      330.4
   11/30/2018 11:10      63.1      62.2       49     43.3      0.00      1.56      61.8     0.31      1014.7     1.4     ENE    71   2.9     NNE    33   9.93    267      268.8
   11/30/2018 11:00      62.6      61.9       49     43.1      0.00      1.56      61.8     0.31      1014.8     2.4       N   355   6.5     NNE    15   9.93    266      327.1
   11/30/2018 10:50      63.0      62.2       49     43.2      0.00      1.56      61.9     0.31      1014.8     2.2     NNW   339   5.9       N   352   9.93    266      324.4
   11/30/2018 10:40      62.8      61.7       51     43.9      0.00      1.56      61.9     0.31      1014.7     1.4      NE    41   4.4       E    82   9.93    267      317.0
   11/30/2018 10:30      62.2      61.6       53     44.3      0.00      1.56      61.9     0.31      1014.7     1.7      SE   136   4.8      SE   129   9.93    267      297.2
   11/30/2018 10:20      62.1      60.8       52     43.7      0.00      1.56      61.9     0.31      1014.8     1.4      SE   127   3.6       S   186   9.93    267      300.6
   11/30/2018 10:10      61.4      59.9       57     45.1      0.00      1.56      62.0     0.31      1014.8     1.2      NE    39   3.3     NNE    20   9.93    267      288.9
   11/30/2018 10:00      60.3      59.7       59     45.6      0.00      1.56      62.0     0.31      1014.8     1.6     NNE    31   4.3      NE    56   9.93    267      284.2
   11/30/2018 09:50      60.2      59.8       61     46.5      0.00      1.56      62.0     0.31      1014.8     1.3     NNE    23   2.8     ENE    58   9.93    268      245.5
   11/30/2018 09:40      60.8      59.8       62     47.0      0.00      1.56      62.0     0.31      1014.8     1.2      NE    40   2.4      SE   129   9.93    268      295.1
   11/30/2018 09:30      60.7      59.9       63     47.7      0.00      1.56      62.1     0.31      1014.8     0.6      NW   306   2.2      NE    51   9.93    268      315.1
   11/30/2018 09:20      60.1      59.1       65     47.7      0.00      1.56      62.1     0.31      1014.7     0.7      SE   143   2.6      SE   134   9.93    268      313.7
   11/30/2018 09:10      59.3      57.0       70     48.2      0.00      1.56      62.1     0.31      1014.7     0.5      SE   131   1.6     ESE   124   9.94    269      294.1
   11/30/2018 09:00      57.3      56.5       73     48.2      0.00      1.56      62.2     0.31      1014.6     1.3      SE   144   3.9      SE   139   9.94    269      260.8
   11/30/2018 08:50      56.8      55.5       75     48.4      0.00      1.56      62.2     0.31      1014.4     0.9     SSE   149   2.3      SE   134   9.94    272      242.7
   11/30/2018 08:40      55.8      54.8       77     48.3      0.00      1.56      62.2     0.31      1014.3     0.6       S   182   1.4      SW   216   9.94    288      196.9
   11/30/2018 08:30      55.3      54.2       81     48.9      0.00      1.56      62.2     0.31      1014.0     0.4     NNE    14   1.2       N     5   9.94    303      195.5
   11/30/2018 08:20      54.2      53.2       87     49.9      0.00      1.56      62.2     0.31      1013.9     0.1       S   190   0.9       S   188   9.94    326      192.3
   11/30/2018 08:10      53.3      50.8       91     49.2      0.00      1.56      62.3     0.31      1013.9     0.5     NNE    21   1.8     NNE    20   9.94    338      157.3
   11/30/2018 08:00      51.0      49.4       93     48.1      0.00      1.56      62.3     0.31      1013.7     0.9       E    98   1.6     NNE    20   9.94    352      127.7
   11/30/2018 07:50      49.5      48.7       93     47.2      0.00      1.56      62.3     0.31      1013.5     0.2     SSE   152   1.4      SE   145   9.94    360       82.6
   11/30/2018 07:40      49.0      48.6       93     46.7      0.00      1.56      62.3     0.31      1013.2     0.3       E   100   0.9     ENE    73   9.94    355       36.3
   11/30/2018 07:30      48.8      47.4       93     46.0      0.00      1.56      62.3     0.31      1013.1     0.8     SSW   202   1.8     SSW   213   9.94    348       29.7
   11/30/2018 07:20      47.6      47.2       93     45.4      0.00      1.56      62.3     0.31      1012.9     0.3      SE   141   1.1      SE   133   9.94    343       15.2
   11/30/2018 07:10      47.6      47.2       93     45.5      0.00      1.56      62.4     0.31      1012.6     0.3       S   173   1.0     SSE   149   9.94    337        5.9
   11/30/2018 07:00      47.6      47.1       93     45.3      0.00      1.56      62.4     0.31      1012.4     0.9     SSE   151   2.3      SE   139   9.94    332        3.7
   11/30/2018 06:50      47.5      46.9       92     45.0      0.00      1.56      62.4     0.31      1012.4     1.4     SSE   165   2.9       S   171   9.94    326       -0.9
   11/30/2018 06:40      48.0      47.1       92     45.2      0.00      1.56      62.4     0.31      1012.2     1.0       S   174   2.0     SSW   198   9.94    321       -3.4
   11/30/2018 06:30      48.2      47.7       92     45.6      0.00      1.56      62.4     0.31      1011.9     0.0       S   175   0.6       S   175   9.95    315       -5.8
   11/30/2018 06:20      48.5      47.8       91     45.7      0.00      1.56      62.5     0.31      1011.7     0.0       S   182   0.5       S   175   9.95    311       -6.8
   11/30/2018 06:10      48.9      48.3       91     45.9      0.00      1.56      62.5     0.31      1011.6     0.5     SSW   195   1.4     SSW   196   9.95    307       -6.8
   11/30/2018 06:00      49.0      48.3       90     45.9      0.00      1.56      62.5     0.31      1011.5     0.0       N     0   0.0       E    79   9.95    303       -7.1
   11/30/2018 05:50      49.6      48.7       90     46.1      0.00      1.56      62.5     0.31      1011.2     0.4       E    86   0.9     ESE   101   9.95    299       -6.7
   11/30/2018 05:40      49.9      49.2       89     46.4      0.00      1.56      62.5     0.31      1011.1     1.5       S   177   2.6       S   179   9.95    293       -6.6
   11/30/2018 05:30      50.5      49.6       88     46.5      0.00      1.56      62.5     0.31      1011.0     0.8     SSE   167   1.9       S   179   9.95    290       -7.0
   11/30/2018 05:20      51.1      50.3       88     47.2      0.00      1.56      62.5     0.31      1011.0     0.9     SSW   198   2.1     SSW   199   9.96    285       -6.8
   11/30/2018 05:10      51.5      50.8       89     47.9      0.00      1.56      62.5     0.31      1010.9     0.2      SW   220   1.2      SW   216   9.96    282       -7.1
   11/30/2018 05:00      51.6      51.2       89     48.3      0.00      1.56      62.6     0.31      1010.8     0.2     WSW   258   2.0       W   266   9.96    279       -6.3
   11/30/2018 04:50      51.8      51.4       89     48.4      0.00      1.56      62.6     0.31      1010.5     0.3     SSW   194   1.4       S   173   9.96    276       -4.6
   11/30/2018 04:40      52.1      51.4       87     48.0      0.00      1.56      62.6     0.31      1010.4     0.8     SSE   162   1.8       S   171   9.96    276       -4.4
   11/30/2018 04:30      52.9      51.9       85     47.9      0.00      1.56      62.6     0.31      1010.4     0.4     SSE   166   1.4      SE   143   9.96    275       -5.8
   11/30/2018 04:20      53.2      52.5       84     48.1      0.00      1.56      62.6     0.31      1010.3     0.3     SSW   196   1.1     SSW   205   9.96    270       -5.1
   11/30/2018 04:10      53.7      53.0       83     48.2      0.00      1.56      62.7     0.31      1010.4     0.8       S   170   1.8       S   185   9.96    270       -3.1
   11/30/2018 04:00      54.0      53.5       80     47.7      0.00      1.56      62.7     0.31      1010.3     0.7     SSW   212   2.2     WNW   282   9.96    270       -3.1
   11/30/2018 03:50      54.0      53.6       80     47.6      0.00      1.56      62.7     0.31      1010.2     0.2       W   262   1.3     WNW   284   9.97    270       -3.6
   11/30/2018 03:40      54.1      53.6       80     47.6      0.00      1.56      62.7     0.31      1010.1     0.6     NNW   338   2.2      NW   319   9.97    270       -3.3
   11/30/2018 03:30      54.2      53.7       80     47.9      0.00      1.56      62.7     0.31      1009.9     1.0     WNW   302   3.6       W   270   9.97    270       -3.0
   11/30/2018 03:20      54.3      53.8       80     48.0      0.00      1.56      62.7     0.31      1010.0     0.2       W   263   1.5     NNW   344   9.97    270       -2.0
   11/30/2018 03:10      54.7      54.0       79     48.0      0.00      1.56      62.7     0.31      1010.1     0.4       N     2   2.6     NNW   341   9.97    270       -1.5
   11/30/2018 03:00      54.7      54.3       78     47.6      0.00      1.56      62.7     0.31      1010.0     0.7     NNW   345   2.3       W   281   9.97    270       -1.8
   11/30/2018 02:50      54.7      54.2       77     47.5      0.00      1.56      62.8     0.31      1010.0     1.6       W   279   4.0      NW   325   9.97    270       -2.0
   11/30/2018 02:40      54.8      54.4       77     47.6      0.00      1.56      62.8     0.31      1010.0     2.1     WNW   303   5.9      NW   312   9.97    270       -1.9
   11/30/2018 02:30      54.7      54.3       77     47.6      0.00      1.56      62.8     0.31      1010.0     2.7       W   264   7.1     WSW   258   9.97    270       -2.5
   11/30/2018 02:20      54.6      54.3       78     47.6      0.00      1.56      62.8     0.31      1009.9     1.7     WSW   242   4.2       W   267   9.97    270       -1.7
   11/30/2018 02:10      54.6      54.2       78     47.7      0.00      1.56      62.8     0.31      1009.9     1.9     WSW   243   4.9      SW   220   9.97    270       -1.8
   11/30/2018 02:00      54.6      54.1       78     47.6      0.00      1.56      62.9     0.31      1009.9     2.7     WSW   249   5.6     WSW   245   9.97    270       -1.9
   11/30/2018 01:50      54.6      54.1       78     47.6      0.00      1.56      62.9     0.31      1009.7     3.0     WSW   241   5.4     WSW   249   9.98    272       -2.2
   11/30/2018 01:40      54.5      54.2       78     47.5      0.00      1.56      62.9     0.31      1009.7     3.6     WSW   247   8.3     WSW   250   9.98    278       -2.3
   11/30/2018 01:30      54.6      54.2       78     47.7      0.00      1.56      62.9     0.31      1009.7     3.9       W   259   8.6      SW   228   9.98    283       -2.6
   11/30/2018 01:20      54.3      54.1       79     47.7      0.00      1.56      62.9     0.31      1009.5     4.8     WSW   243  10.7      NW   308   9.98    288       -3.1
   11/30/2018 01:10      54.3      53.8       80     47.9      0.00      1.56      62.9     0.31      1009.4     4.8      SW   232   8.1      SW   227   9.98    292       -4.1
   11/30/2018 01:00      54.3      53.8       79     47.9      0.00      1.56      63.0     0.31      1009.2     4.5     WSW   238   8.4      SW   227   9.98    296       -5.6
   11/30/2018 00:50      54.5      54.0       79     47.9      0.00      1.56      63.0     0.31      1009.2     4.6      SW   233   8.2     WSW   242   9.98    298       -4.7
   11/30/2018 00:40      54.3      54.0       80     48.1      0.00      1.56      63.0     0.31      1009.3     3.8     WSW   243   9.1       W   274   9.98    300       -3.8
   11/30/2018 00:30      54.3      53.7       82     48.5      0.00      1.56      63.0     0.31      1009.4     3.5     WSW   254   7.5     WSW   242   9.98    303       -3.6
   11/30/2018 00:20      54.0      53.5       84     48.9      0.00      1.56      63.0     0.31      1009.4     3.7     WSW   246   7.1     WNW   292   9.98    305       -3.6
   11/30/2018 00:10      54.0      53.5       84     48.9      0.00      1.56      63.0     0.31      1009.4     2.1     WSW   255   5.4     WSW   247   9.98    307       -3.8
   11/30/2018 00:00      54.1      53.5       83     48.6      0.00      1.56      63.0     0.31      1009.4     2.7     WSW   243   4.9       S   184   9.98    307       -4.7
   11/29/2018 23:50      54.3      53.8       82     48.5      0.00      1.56      63.1     0.31      1009.4     3.6      SW   235   6.8      SW   219   9.98    308       -5.2
   11/29/2018 23:40      54.5      54.0       81     48.4      0.00      1.56      63.1     0.31      1009.4     3.8      SW   236   5.7       S   182   9.98    309       -4.3
   11/29/2018 23:30      54.5      54.0       81     48.4      0.00      1.56      63.1     0.31      1009.5     2.7      SW   221   4.5     WSW   241   9.98    311       -2.8
   11/29/2018 23:20      54.5      54.0       81     48.4      0.00      1.56      63.1     0.31      1009.6     2.2     WSW   244   4.5       W   270   9.98    312       -2.4
   11/29/2018 23:10      54.1      53.6       82     48.6      0.00      1.56      63.1     0.31      1009.3     2.6     SSW   208   4.1       W   259   9.99    314       -2.6
   11/29/2018 23:00      54.0      53.5       83     48.7      0.00      1.56      63.2     0.31      1009.3     2.2     SSW   201   4.1      SW   227   9.99    315       -3.2
   11/29/2018 22:50      54.1      53.5       83     48.8      0.00      1.56      63.2     0.31      1009.3     1.9       S   190   3.7     SSW   211   9.99    317       -3.4
   11/29/2018 22:40      54.1      53.6       83     48.7      0.00      1.56      63.2     0.31      1009.3     2.7     SSW   211   5.9      SW   231   9.99    317       -2.7
   11/29/2018 22:30      54.0      53.5       83     48.8      0.00      1.56      63.2     0.31      1009.2     2.6     SSW   196   6.7     SSW   201   9.99    318       -2.9
   11/29/2018 22:20      53.9      53.5       84     49.1      0.00      1.56      63.2     0.31      1009.2     3.7     SSW   198   7.6       S   191   9.99    320       -4.5
   11/29/2018 22:10      53.9      53.4       86     49.5      0.00      1.56      63.3     0.31      1009.2     2.8     SSW   192   4.5       S   179   9.99    321       -3.6
   11/29/2018 22:00      53.7      53.3       87     49.8      0.00      1.56      63.2     0.31      1009.2     2.5       S   188   5.1       S   182   9.99    322       -2.1
   11/29/2018 21:50      53.6      53.2       88     49.8      0.00      1.56      63.3     0.31      1009.2     1.7       S   185   3.9     SSW   199   9.99    322       -1.8
   11/29/2018 21:40      53.3      53.0       88     49.8      0.00      1.56      63.3     0.31      1009.1     1.4       S   191   3.7     WSW   239   9.99    323       -1.9
   11/29/2018 21:30      53.3      53.0       88     49.8      0.00      1.56      63.3     0.31      1009.1     0.6     SSW   193   1.7     SSE   169   9.99    324       -2.8
   11/29/2018 21:20      53.3      53.0       89     49.8      0.00      1.56      63.3     0.31      1009.0     0.4      SW   221   2.5     WSW   248   9.99    324       -4.9
   11/29/2018 21:10      53.6      53.0       89     50.0      0.00      1.56      63.4     0.31      1009.0     1.3       S   189   3.3     SSW   198   9.99    324       -4.5
   11/29/2018 21:00      54.1      53.3       88     50.2      0.00      1.56      63.4     0.30      1009.1     0.7       E    82   2.6      NE    34   9.99    326       -4.3
   11/29/2018 20:50      54.1      53.6       87     50.2      0.00      1.56      63.4     0.30      1009.1     0.6     NNW   333   2.3     WNW   301   9.99    325       -2.2
   11/29/2018 20:40      53.9      53.5       87     50.1      0.00      1.56      63.4     0.30      1009.1     2.3     WSW   246   4.7     WSW   237   9.99    326       -1.4
   11/29/2018 20:30      53.8      53.4       88     50.2      0.00      1.56      63.4     0.30      1008.9     2.8     SSW   209   5.8       S   181   9.99    326       -1.6
   11/29/2018 20:20      53.8      53.2       90     50.5      0.00      1.56      63.5     0.30      1008.9     2.1     SSW   197   5.7      SW   226   9.99    328       -2.4
   11/29/2018 20:10      53.5      52.8       91     50.6      0.00      1.56      63.5     0.31      1008.8     2.5     SSW   206   6.0      SW   230  10.00    329       -2.4
   11/29/2018 20:00      53.0      52.5       92     50.6      0.00      1.56      63.5     0.30      1008.8     2.5     SSW   194   5.8     SSW   203  10.00    335       -2.6
   11/29/2018 19:50      52.9      52.5       93     50.7      0.00      1.56      63.5     0.30      1008.7     1.9     SSE   168   4.0      SW   224  10.00    361       -1.8
   11/29/2018 19:40      52.8      52.4       93     50.6      0.00      1.56      63.5     0.30      1008.8     1.1      SE   127   2.3      SE   129  10.00    343       -2.0
   11/29/2018 19:30      52.7      52.4       93     50.5      0.00      1.56      63.5     0.30      1008.9     0.7     ESE   109   1.6       S   175  10.00    350       -1.7
   11/29/2018 19:20      52.7      52.3       92     50.3      0.00      1.56      63.6     0.30      1008.9     0.3     ENE    73   1.9     ENE    59  10.00    343       -1.9
   11/29/2018 19:10      52.7      52.2       92     50.3      0.00      1.56      63.6     0.30      1008.9     0.4       N     1   2.0       N   349  10.00    359       -1.7
   11/29/2018 19:00      52.4      51.8       92     49.8      0.02      1.56      63.6     0.30      1008.8     1.7      SW   231   3.3     SSE   162  10.00    429       -1.6
   11/29/2018 18:50      52.1      51.7       92     49.5      0.08      1.54      63.6     0.30      1008.7     2.2     SSE   167   4.4      SE   144   9.98    440       -1.8
   11/29/2018 18:40      51.9      51.6       91     49.3      0.03      1.46      63.6     0.30      1008.6     1.5      SE   131   2.7     ESE   109   9.90    480       -1.9
   11/29/2018 18:30      51.9      51.5       91     49.0      0.00      1.43      63.6     0.30      1008.6     1.7      SE   124   4.5      SE   139   9.88    348       -2.3
   11/29/2018 18:20      51.7      51.1       90     48.6      0.00      1.43      63.6     0.30      1008.7     1.0     SSE   148   2.9      SE   142   9.88    352       -2.7
   11/29/2018 18:10      51.5      51.0       90     48.4      0.01      1.43      63.6     0.30      1008.7     3.3       S   182   6.9      SW   232   9.88    371       -2.5
   11/29/2018 18:00      51.4      51.1       90     48.5      0.01      1.42      63.6     0.30      1008.7     3.5      SE   136   6.6      SE   130   9.87    429       -2.2
   11/29/2018 17:50      51.3      50.8       90     48.2      0.00      1.41      63.6     0.30      1008.8     1.7     ESE   114   3.7     ESE   106   9.86    334       -2.9
   11/29/2018 17:40      51.5      51.0       90     48.3      0.00      1.41      63.6     0.30      1008.8     0.7     ESE   118   2.5      SE   128   9.86    346       -5.2
   11/29/2018 17:30      51.5      51.1       89     48.2      0.00      1.41      63.7     0.30      1009.0     1.0      SE   135   2.8     ESE   121   9.86    351       -4.1
   11/29/2018 17:20      51.5      51.0       88     47.8      0.00      1.41      63.6     0.30      1009.0     0.0      SE   140   0.7      SE   140   9.86    344       -4.1
   11/29/2018 17:10      51.9      51.2       87     47.8      0.00      1.41      63.6     0.30      1008.8     0.6      NE    49   1.9      NE    39   9.86    345       -5.4
   11/29/2018 17:00      51.9      51.2       86     47.5      0.01      1.41      63.6     0.30      1008.4     1.1     ENE    70   3.2     ESE   117   9.86    361       -3.4
   11/29/2018 16:50      51.7      51.3       85     47.1      0.00      1.40      63.6     0.30      1008.4     2.9       S   174   6.0      SE   133   9.86    329       -2.3
   11/29/2018 16:40      52.0      51.3       85     47.1      0.00      1.40      63.6     0.30      1008.7     3.3     SSW   193   5.8       S   177   9.86    313       -0.0
   11/29/2018 16:30      52.2      51.6       83     46.9      0.01      1.40      63.6     0.30      1008.8     3.0       S   189   6.3     SSW   204   9.86    320        1.5
   11/29/2018 16:20      52.6      51.8       80     46.3      0.00      1.39      63.6     0.30      1008.9     4.3     SSW   194  10.9     SSW   204   9.85    324       12.0
   11/29/2018 16:10      53.7      52.4       77     45.8      0.01      1.39      63.6     0.30      1009.0     6.5      SW   225  16.4      SW   214   9.85    328        3.3
   11/29/2018 16:00      57.7      53.4       71     46.5      0.04      1.38      63.6     0.30      1008.9     7.2     WSW   247  17.4     WSW   246   9.84    345       -5.8
   11/29/2018 15:50      57.7      57.4       68     46.9      0.00      1.34      63.6     0.29      1008.1     2.5     SSW   203   4.9       S   187   9.82    268      -16.3
   11/29/2018 15:40      58.2      57.4       66     46.5      0.00      1.34      63.6     0.29      1007.9     3.6       S   184   6.2      SW   218   9.82    268      -41.9
   11/29/2018 15:30      58.8      57.9       64     46.2      0.00      1.34      63.6     0.29      1008.1     5.3     SSW   203   8.5      SW   218   9.82    268        6.8
   11/29/2018 15:20      59.1      58.5       62     45.6      0.00      1.34      63.6     0.29      1008.1     4.9     SSW   196   9.0     WSW   253   9.82    267        1.9
   11/29/2018 15:10      59.1      58.8       61     45.4      0.00      1.34      63.6     0.29      1008.0     5.8      SW   215   9.0     SSW   206   9.83    267      -20.1
   11/29/2018 15:00      59.7      58.8       62     46.1      0.00      1.34      63.6     0.29      1007.9     5.6     SSW   207  10.7      SW   229   9.83    268      -33.5
   11/29/2018 14:50      60.3      59.3       61     46.2      0.00      1.34      63.5     0.29      1007.8     5.3      SW   215   9.8       S   187   9.83    267       -5.0
   11/29/2018 14:40      60.9      60.0       59     46.0      0.00      1.34      63.5     0.29      1007.8     6.8      SW   234  11.5     SSW   205   9.83    266      121.0
   11/29/2018 14:30      60.9      60.2       60     46.5      0.00      1.34      63.5     0.29      1007.8     7.0      SW   233  12.8     WSW   247   9.83    266      195.2
   11/29/2018 14:20      60.7      60.1       60     46.8      0.00      1.34      63.5     0.29      1007.8     7.0      SW   231  12.4     WSW   244   9.83    266      194.3
   11/29/2018 14:10      60.3      59.2       60     45.8      0.00      1.34      63.5     0.29      1007.8     7.9      SW   230  14.1     WSW   240   9.83    267      183.1
   11/29/2018 14:00      59.7      59.2       59     45.0      0.00      1.34      63.4     0.29      1007.8     8.4      SW   227  15.3      SW   233   9.84    267       57.5
   11/29/2018 13:50      59.8      59.3       59     45.1      0.00      1.34      63.5     0.29      1007.8     6.8      SW   226  11.0     SSW   195   9.84    267       39.2
   11/29/2018 13:40      61.0      59.5       57     44.9      0.00      1.34      63.5     0.29      1007.9     9.3      SW   220  17.1     SSW   196   9.84    267       35.6
   11/29/2018 13:30      61.8      60.6       56     45.5      0.00      1.34      63.5     0.29      1008.0     9.6      SW   232  14.8     WSW   244   9.85    266      192.6
   11/29/2018 13:20      61.6      61.2       58     46.3      0.00      1.34      63.5     0.29      1007.9     8.6      SW   235  13.3     WSW   248   9.85    266      316.6
   11/29/2018 13:10      62.0      61.2       58     46.8      0.00      1.34      63.5     0.29      1008.0     8.0      SW   236  15.1     SSW   196   9.85    266      345.7
   11/29/2018 13:00      62.2      61.0       61     48.3      0.00      1.34      63.4     0.29      1008.1     6.9      SW   223  16.1      SW   218   9.85    267      381.5
   11/29/2018 12:50      61.3      60.7       64     48.5      0.00      1.34      63.5     0.29      1008.2     6.9      SW   218  10.1       W   281   9.85    267      376.7
   11/29/2018 12:40      61.6      60.8       66     49.9      0.00      1.34      63.4     0.29      1008.3     6.0      SW   221  13.9     WSW   241   9.86    267      364.6
   11/29/2018 12:30      61.0      59.3       71     50.4      0.00      1.34      63.4     0.29      1008.5     4.2      SW   227   8.3       W   278   9.85    267      382.7
   11/29/2018 12:20      59.3      57.2       73     49.6      0.00      1.34      63.4     0.29      1008.7     3.4      SW   218   6.7      SW   214   9.85    270      458.6
   11/29/2018 12:10      57.2      55.6       76     48.9      0.00      1.34      63.4     0.29      1009.0     3.4      SW   233   6.2       S   180   9.85    274      350.2
   11/29/2018 12:00      55.9      55.1       77     48.2      0.00      1.34      63.4     0.29      1009.2     4.4      SW   214   8.1      SW   228   9.85    276      340.4
   11/29/2018 11:50      59.7      55.6       75     49.3      0.04      1.34      63.5     0.29      1009.5     7.4      SW   223  12.5     SSW   196   9.85    281      110.3
   11/29/2018 11:40      61.1      59.4       65     48.3      0.00      1.30      63.4     0.29      1009.4     7.8      SW   235  13.3     WSW   237   9.83    270      117.0
   11/29/2018 11:30      62.5      60.9       61     48.2      0.00      1.30      63.5     0.29      1009.3     7.0      SW   227  13.9     SSW   208   9.83    268      287.1
   11/29/2018 11:20      62.0      61.3       60     47.4      0.00      1.30      63.5     0.29      1009.5     5.9      SW   229  11.4      SW   214   9.83    268      395.4
   11/29/2018 11:10      61.8      61.2       62     48.3      0.00      1.30      63.5     0.29      1009.6     4.9     SSW   213  10.3     WSW   240   9.83    268      198.0
   11/29/2018 11:00      61.6      60.7       62     48.2      0.00      1.30      63.5     0.29      1009.8     5.5      SW   221   9.1     SSW   194   9.83    268      400.5
   11/29/2018 10:50      60.8      59.8       64     47.8      0.00      1.30      63.5     0.29      1009.8     7.2     WSW   240  12.6       S   182   9.83    270      369.8
   11/29/2018 10:40      60.0      59.6       65     47.9      0.00      1.30      63.5     0.29      1009.8     8.0      SW   215  16.2     SSW   210   9.83    285      303.4
   11/29/2018 10:30      59.8      58.9       71     50.0      0.00      1.30      63.5     0.29      1009.8     4.2     SSW   200   8.6       S   183   9.83    298      326.3
   11/29/2018 10:20      59.1      58.6       72     50.0      0.00      1.30      63.5     0.29      1010.0     5.5     WSW   241   9.9     SSW   200   9.83    304      308.3
   11/29/2018 10:10      58.7      58.3       72     49.6      0.00      1.30      63.5     0.29      1010.0     4.9      SW   234   9.5     WSW   243   9.83    309      212.1
   11/29/2018 10:00      58.6      57.3       73     49.4      0.00      1.30      63.5     0.29      1009.9     3.4      SW   223   7.0       W   271   9.83    312      254.9
   11/29/2018 09:50      57.5      56.9       75     49.3      0.00      1.30      63.5     0.29      1009.8     4.0      SW   215   7.9     WSW   239   9.83    315      163.5
   11/29/2018 09:40      57.1      56.5       77     49.6      0.00      1.30      63.6     0.29      1009.8     4.8     SSW   201   8.7       S   181   9.83    318      126.0
   11/29/2018 09:30      56.8      56.3       82     51.0      0.00      1.30      63.5     0.29      1009.8     6.2     SSW   212  11.6       S   190   9.83    321       63.0
   11/29/2018 09:20      56.6      56.1       87     52.6      0.00      1.30      63.6     0.29      1009.8     3.4      SW   214   7.9     SSW   210   9.83    309       65.5
   11/29/2018 09:10      56.7      56.0       87     52.4      0.01      1.30      63.6     0.29      1009.7     4.8      SW   220   8.4       W   259   9.82    307       59.0
   11/29/2018 09:00      56.8      56.4       86     52.5      0.00      1.29      63.6     0.29      1009.7     3.0     SSW   206   6.9     SSW   208   9.82    314       42.5
   11/29/2018 08:50      56.9      56.4       86     52.6      0.00      1.29      63.6     0.29      1009.6     3.8     SSW   208   6.8      SW   228   9.82    308       56.2
   11/29/2018 08:40      57.0      56.6       87     53.0      0.01      1.29      63.6     0.29      1009.5     3.0     SSW   209   5.7     SSW   200   9.82    314       65.3
   11/29/2018 08:30      57.1      56.6       88     53.4      0.00      1.28      63.6     0.29      1009.5     3.1     SSW   194   6.1       S   183   9.81    307       65.2
   11/29/2018 08:20      57.2      56.8       89     54.0      0.01      1.28      63.6     0.29      1009.6     3.0       S   190   6.3     SSW   201   9.81    318       41.7
   11/29/2018 08:10      57.3      56.9       90     54.2      0.00      1.27      63.6     0.29      1009.6     2.8      SW   229   6.5     WSW   245   9.80    310       62.0
   11/29/2018 08:00      57.2      56.6       90     54.1      0.01      1.27      63.7     0.29      1009.5     3.2      SW   224   7.0      SW   226   9.80    327       67.1
   11/29/2018 07:50      58.1      56.7       91     54.8      0.03      1.26      63.7     0.29      1009.5     3.3       W   270   7.2     WSW   254   9.79    349       16.4
   11/29/2018 07:40      58.0      57.6       91     55.1      0.03      1.23      63.7     0.29      1009.4     3.3     WSW   242   7.0       S   185   9.76    360       17.1
   11/29/2018 07:30      57.9      57.5       90     54.8      0.06      1.20      63.7     0.29      1009.4     4.5      SW   236   8.8       S   189   9.74    416        5.3
   11/29/2018 07:20      57.7      57.2       90     54.6      0.04      1.14      63.7     0.29      1009.2     4.8     SSW   204   8.1       S   188   9.68    398        6.7
   11/29/2018 07:10      57.4      56.9       91     54.4      0.01      1.10      63.7     0.29      1009.0     3.9       S   176   7.0     SSW   209   9.65    390        3.6
   11/29/2018 07:00      57.1      56.7       91     54.1      0.05      1.09      63.7     0.29      1009.0     3.1     SSE   162   6.5      SE   142   9.64    413        0.2
   11/29/2018 06:50      57.2      56.7       89     53.8      0.06      1.04      63.7     0.29      1009.1     3.3       S   174   7.3       S   185   9.59    434       -1.4
   11/29/2018 06:40      57.3      56.8       88     53.6      0.01      0.98      63.7     0.29      1009.2     4.6       S   189   9.0     SSW   199   9.53    396       -2.3
   11/29/2018 06:30      57.5      57.0       88     53.7      0.01      0.97      63.7     0.29      1009.1     4.3     SSE   169  10.8     SSW   193   9.52    343       -3.0
   11/29/2018 06:20      57.5      56.9       88     53.7      0.00      0.96      63.7     0.29      1009.2     3.9     SSE   161   7.8       S   170   9.51    332       -3.8
   11/29/2018 06:10      57.3      56.8       88     53.6      0.01      0.96      63.7     0.29      1009.2     3.9     SSE   157   7.4     SSE   160   9.51    339       -4.4
   11/29/2018 06:00      56.9      56.6       89     53.4      0.01      0.95      63.7     0.29      1009.3     2.1      SE   145   7.7      SE   146   9.50    369       -4.3
   11/29/2018 05:50      56.9      56.5       89     53.3      0.01      0.94      63.7     0.29      1009.4     2.4       S   170   6.6     SSW   194   9.49    430       -4.0
   11/29/2018 05:40      56.8      56.3       88     53.1      0.00      0.93      63.7     0.29      1009.4     2.3     SSE   159   6.5      SE   129   9.48    362       -4.1
   11/29/2018 05:30      56.8      56.3       87     52.7      0.00      0.93      63.7     0.29      1009.4     2.2      SE   138   5.6      SE   130   9.48    377       -4.8
   11/29/2018 05:20      56.8      56.3       87     52.6      0.00      0.93      63.8     0.29      1009.5     1.6     ESE   118   3.0      SE   131   9.48    351       -4.8
   11/29/2018 05:10      56.9      56.4       86     52.4      0.00      0.93      63.8     0.29      1009.5     1.2     SSE   148   3.4     SSW   197   9.48    303       -5.0
   11/29/2018 05:00      57.0      56.6       85     52.3      0.00      0.93      63.8     0.29      1009.8     2.6     SSW   198   5.1     SSW   204   9.48    298       -5.8
   11/29/2018 04:50      57.3      56.7       85     52.4      0.00      0.93      63.8     0.29      1009.8     2.1     SSW   207   5.0     SSW   191   9.48    298       -5.6
   11/29/2018 04:40      57.1      56.3       87     52.8      0.00      0.93      63.8     0.29      1009.8     3.8      SW   216   9.2      SW   233   9.48    300       -6.2
   11/29/2018 04:30      56.5      56.0       90     53.1      0.00      0.93      63.8     0.29      1009.9     2.1      SW   228   5.9     SSW   202   9.48    311       -4.7
   11/29/2018 04:20      56.4      55.9       89     53.0      0.02      0.93      63.8     0.29      1009.8     0.5       E    94   1.7     ENE    70   9.48    320       -4.3
   11/29/2018 04:10      56.3      56.0       89     53.0      0.00      0.91      63.8     0.29      1009.9     0.9      SW   225   2.0      NE    52   9.48    309       -4.3
   11/29/2018 04:00      56.6      56.0       89     53.0      0.00      0.91      63.8     0.29      1010.1     1.4     ENE    69   3.5       E    82   9.48    311       -4.2
   11/29/2018 03:50      56.8      56.3       89     53.3      0.00      0.91      63.8     0.29      1010.4     1.0     ESE   120   3.9       S   174   9.48    313       -4.4
   11/29/2018 03:40      56.9      56.1       90     53.6      0.00      0.91      63.8     0.29      1010.6     1.5      SE   141   5.1      SE   134   9.48    319       -3.9
   11/29/2018 03:30      57.0      56.6       91     54.0      0.00      0.91      63.8     0.29      1010.7     0.5      NE    47   1.8     ENE    65   9.48    337       -3.3
   11/29/2018 03:20      57.2      56.8       90     54.1      0.00      0.91      63.8     0.29      1010.7     0.4       E    81   2.3     ENE    63   9.48    343       -3.6
   11/29/2018 03:10      57.4      56.9       90     54.1      0.00      0.91      63.7     0.29      1010.6     0.6     SSE   149   1.7       S   187   9.48    342       -2.7
   11/29/2018 03:00      57.5      56.9       89     53.9      0.00      0.91      63.8     0.29      1010.8     0.3      NE    51   2.2     ENE    63   9.47    334       -3.3
   11/29/2018 02:50      57.4      56.9       89     53.8      0.00      0.91      63.8     0.29      1011.0     0.8      SW   219   4.0     WSW   241   9.47    337       -4.3
   11/29/2018 02:40      57.4      56.9       88     53.7      0.00      0.91      63.8     0.29      1011.0     0.4       E    84   1.7     ENE    67   9.47    352       -4.1
   11/29/2018 02:30      57.4      57.0       87     53.5      0.02      0.91      63.8     0.29      1011.1     0.6     SSW   210   2.2     SSW   196   9.47    383       -4.8
   11/29/2018 02:20      57.4      56.9       88     53.5      0.00      0.89      63.8     0.29      1010.9     1.9     SSW   199   4.1     SSW   204   9.46    343       -3.8
   11/29/2018 02:10      57.3      56.9       89     53.8      0.00      0.89      63.8     0.29      1010.9     1.9       S   179   3.9     SSW   206   9.45    320       -3.5
   11/29/2018 02:00      57.4      56.9       89     54.0      0.00      0.89      63.8     0.29      1011.0     1.7       S   181   2.8     SSE   167   9.45    319       -3.6
   11/29/2018 01:50      57.5      57.0       90     54.3      0.00      0.89      63.8     0.29      1011.1     2.5     SSW   195   4.9     SSE   167   9.45    319       -3.2
   11/29/2018 01:40      57.4      57.0       92     54.7      0.00      0.89      63.8     0.29      1011.1     2.7       S   185   5.0     SSW   204   9.45    321       -4.2
   11/29/2018 01:30      57.3      56.9       92     54.8      0.00      0.89      63.8     0.29      1011.2     2.2       S   188   4.3       S   188   9.45    328       -3.7
   11/29/2018 01:20      57.4      56.9       92     54.8      0.00      0.89      63.8     0.29      1011.2     1.1       S   177   3.3     SSW   213   9.45    349       -2.8
   11/29/2018 01:10      57.4      56.9       92     54.8      0.00      0.89      63.8     0.29      1011.2     0.7     SSE   159   4.0      SW   218   9.45    357       -2.5
   11/29/2018 01:00      57.3      56.8       92     54.7      0.00      0.89      63.8     0.29      1011.3     0.0      SW   224   0.7      SW   230   9.45    326       -2.5
   11/29/2018 00:50      57.0      56.6       92     54.5      0.00      0.89      63.8     0.29      1011.4     0.1       S   173   0.8      SW   214   9.45    348       -2.7
   11/29/2018 00:40      56.9      56.5       92     54.3      0.01      0.89      63.8     0.29      1011.5     0.8       S   190   2.8      SW   215   9.45    375       -2.6
   11/29/2018 00:30      56.8      56.4       91     54.1      0.02      0.88      63.9     0.29      1011.4     1.8       S   173   4.8     SSE   167   9.44    392       -3.0
   11/29/2018 00:20      56.8      56.4       91     53.9      0.01      0.86      63.8     0.29      1011.3     1.8      SE   133   4.5     ESE   116   9.42    394       -3.9
   11/29/2018 00:10      56.9      56.4       91     53.8      0.00      0.85      63.8     0.29      1011.3     1.5     ESE   119   4.1      SE   139   9.42    373       -4.0
   11/29/2018 00:00      56.9      56.5       90     53.7      0.00      0.85      63.8     0.29      1011.5     1.4       E    96   3.2     ENE    69   9.41    350       -4.0
   11/28/2018 23:50      57.2      56.5       89     53.6      0.00      0.85      63.8     0.29      1011.7     1.5     ESE   107   3.4     SSE   147   9.41    336       -4.0
   11/28/2018 23:40      57.2      56.8       89     53.6      0.00      0.85      63.8     0.29      1012.0     1.3      SE   127   3.6     ENE    72   9.41    331       -4.1
   11/28/2018 23:30      57.6      56.9       87     53.3      0.01      0.85      63.8     0.29      1012.1     2.3      SE   130   4.4      SE   126   9.41    343       -4.4
   11/28/2018 23:20      58.0      57.4       84     52.9      0.00      0.84      63.8     0.29      1012.3     2.3      SE   135   4.9      SE   129   9.41    322       -6.7
   11/28/2018 23:10      58.2      57.7       82     52.5      0.00      0.84      63.8     0.29      1012.4     2.4     SSE   155   5.0      SE   144   9.41    272       -8.9
   11/28/2018 23:00      58.3      57.9       81     52.1      0.00      0.84      63.8     0.29      1012.3     1.5       S   176   3.0       S   176   9.41    268       -9.1
   11/28/2018 22:50      58.3      57.9       81     52.1      0.00      0.84      63.8     0.29      1012.4     1.0       S   186   2.4     SSE   155   9.41    268      -11.3
   11/28/2018 22:40      58.4      57.9       80     52.1      0.00      0.84      63.8     0.29      1012.4     0.8     SSE   150   2.9       S   182   9.41    268      -12.9
   11/28/2018 22:30      58.5      58.1       80     52.1      0.00      0.84      63.8     0.29      1012.5     0.7      SE   130   2.1      SE   145   9.41    268      -13.1
   11/28/2018 22:20      58.6      58.2       80     52.1      0.00      0.84      63.8     0.29      1012.8     0.7      SW   216   2.7      SW   219   9.41    268      -11.3
   11/28/2018 22:10      58.6      58.2       79     52.0      0.00      0.84      63.8     0.29      1012.8     1.2       S   183   3.5     ESE   115   9.41    268      -13.8
   11/28/2018 22:00      58.6      58.2       79     52.0      0.00      0.84      63.8     0.29      1012.8     1.8     SSE   148   4.1     SSE   148   9.41    269      -11.1
   11/28/2018 21:50      58.6      58.2       80     52.2      0.00      0.84      63.8     0.29      1012.8     0.6      SE   145   2.5      SE   139   9.41    268      -10.8
   11/28/2018 21:40      58.6      58.2       80     52.2      0.00      0.84      63.8     0.29      1012.8     0.7     ENE    71   1.4     ENE    74   9.41    268      -18.9
   11/28/2018 21:30      58.6      58.3       80     52.1      0.00      0.84      63.8     0.29      1012.9     0.8       E    82   2.3     ENE    72   9.41    268      -10.8
   11/28/2018 21:20      58.7      58.2       79     52.0      0.00      0.84      63.8     0.29      1013.0     1.1     ESE   102   3.4       E    84   9.41    268       -9.4
   11/28/2018 21:10      58.6      58.3       79     52.0      0.00      0.84      63.8     0.29      1013.1     0.0     ESE   124   0.2     ESE   124   9.41    268       -8.1
   11/28/2018 21:00      58.8      58.3       79     51.9      0.00      0.84      63.8     0.29      1013.2     0.0     SSW   195   0.7     SSW   199   9.41    268       -7.3
   11/28/2018 20:50      58.6      58.2       79     51.8      0.00      0.84      63.8     0.29      1013.1     1.6       E    87   3.4       E    82   9.41    268       -9.5
   11/28/2018 20:40      58.6      58.2       79     51.8      0.00      0.84      63.8     0.29      1013.0     1.0     ESE   123   2.9      NE    41   9.41    268       -9.4
   11/28/2018 20:30      58.8      58.3       78     51.7      0.00      0.84      63.7     0.29      1013.0     0.9     ESE   116   2.5     ESE   110   9.41    268      -12.1
   11/28/2018 20:20      58.7      58.3       78     51.7      0.00      0.84      63.8     0.29      1013.1     1.5     ESE   103   3.7     ESE   115   9.41    268       -9.8
   11/28/2018 20:10      58.6      57.9       79     51.9      0.00      0.84      63.7     0.29      1013.1     1.3     ESE   102   3.3     ENE    59   9.41    268       -8.6
   11/28/2018 20:00      58.2      57.8       82     52.4      0.00      0.84      63.7     0.29      1013.1     0.9     ESE   123   2.3      SE   136   9.41    268       -8.8
   11/28/2018 19:50      58.0      57.5       83     52.5      0.00      0.84      63.7     0.29      1013.2     0.3      SE   139   1.0       E    85   9.41    267       -9.8
   11/28/2018 19:40      57.9      57.4       83     52.6      0.00      0.84      63.7     0.29      1013.2     0.4       S   181   1.2     SSW   194   9.41    267       -8.8
   11/28/2018 19:30      58.2      57.5       83     52.7      0.00      0.84      63.6     0.29      1013.2     0.5     SSW   200   1.2     SSW   199   9.41    266      -12.1
   11/28/2018 19:20      58.6      58.0       83     52.9      0.00      0.84      63.6     0.29      1013.1     0.1       S   171   0.9       S   179   9.41    264      -13.5
   11/28/2018 19:10      58.7      58.3       82     53.1      0.00      0.84      63.6     0.29      1013.3     0.1     SSE   150   1.0      SE   138   9.41    266      -10.6
   11/28/2018 19:00      58.6      58.3       83     53.1      0.00      0.84      63.6     0.29      1013.3     0.5     ESE   109   1.1      SE   135   9.41    266       -9.8
   11/28/2018 18:50      58.7      58.3       83     53.3      0.00      0.84      63.6     0.29      1013.4     0.4      SE   125   1.0      SE   132   9.41    266       -9.9
   11/28/2018 18:40      58.9      58.4       83     53.3      0.00      0.84      63.6     0.29      1013.4     0.0       E    84   0.7       E    80   9.41    268       -8.9
   11/28/2018 18:30      59.1      58.5       81     53.0      0.00      0.84      63.5     0.29      1013.5     0.5       S   177   1.6     SSW   212   9.41    271       -9.5
   11/28/2018 18:20      59.5      58.7       80     52.8      0.00      0.84      63.5     0.29      1013.6     1.3      SW   221   1.6      SW   227   9.41    279       -9.8
   11/28/2018 18:10      59.8      59.3       77     52.4      0.00      0.84      63.5     0.29      1013.5     0.3       S   173   0.9       S   175   9.41    287      -11.1
   11/28/2018 18:00      60.7      59.5       75     52.1      0.00      0.84      63.5     0.29      1013.3     0.8      NW   323   2.0      NW   315   9.41    285      -14.0
   11/28/2018 17:50      60.7      60.2       71     51.1      0.00      0.84      63.4     0.29      1013.3     0.3      NW   316   2.0      NW   319   9.41    277      -14.7
   11/28/2018 17:40      60.7      60.1       72     51.2      0.00      0.84      63.4     0.29      1013.2     0.0      SW   228   0.5      SW   215   9.41    268      -14.3
   11/28/2018 17:30      60.5      60.1       72     51.0      0.00      0.84      63.4     0.29      1013.1     0.6      SW   219   1.4      SW   224   9.41    267      -14.3
   11/28/2018 17:20      60.7      60.0       71     50.7      0.00      0.84      63.4     0.29      1013.0     1.5     SSE   167   4.5      SE   141   9.41    267      -14.3
   11/28/2018 17:10      61.5      60.3       70     50.8      0.00      0.84      63.3     0.29      1012.8     1.7       S   173   3.1     SSE   162   9.41    267      -19.0
   11/28/2018 17:00      61.9      61.3       66     50.0      0.00      0.84      63.3     0.29      1012.7     2.5     SSW   193   4.1     SSW   198   9.42    267      -16.6
   11/28/2018 16:50      62.2      61.6       66     50.5      0.00      0.84      63.2     0.29      1012.7     2.3     SSW   208   4.4     WSW   242   9.42    267      -15.7
   11/28/2018 16:40      62.4      61.8       67     50.9      0.00      0.84      63.2     0.29      1012.7     1.2       W   279   2.8      SW   224   9.42    267      -14.0
   11/28/2018 16:30      62.5      62.0       67     51.0      0.00      0.84      63.2     0.29      1012.7     1.5      NW   316   2.8      NW   326   9.42    267      -11.8
   11/28/2018 16:20      62.5      62.1       67     51.2      0.00      0.84      63.2     0.29      1012.5     0.9     WNW   296   2.5     WNW   294   9.42    267       -8.9
   11/28/2018 16:10      62.4      62.0       67     51.3      0.00      0.84      63.1     0.29      1012.5     1.5      NW   316   2.7      NW   316   9.42    267        3.4
   11/28/2018 16:00      62.2      61.8       70     52.0      0.00      0.84      63.1     0.29      1012.4     1.6     WNW   294   4.3     WSW   244   9.42    267        3.0
   11/28/2018 15:50      62.9      61.8       70     52.3      0.00      0.84      63.0     0.29      1012.5     2.2     WNW   288   4.3     WSW   243   9.42    267        3.3
   11/28/2018 15:40      63.1      62.5       64     50.6      0.00      0.84      63.0     0.29      1012.6     2.7     WSW   257   5.4     WSW   251   9.42    270       15.0
   11/28/2018 15:30      64.5      62.8       60     49.4      0.00      0.84      63.0     0.29      1012.7     2.4      SE   126   5.2      SE   142   9.42    266        8.1
   11/28/2018 15:20      64.9      64.2       56     48.2      0.00      0.84      62.9     0.29      1012.7     3.5       S   179   6.6     SSW   194   9.42    266       16.4
   11/28/2018 15:10      64.9      64.5       56     48.4      0.00      0.84      62.9     0.29      1012.6     2.5       S   188   6.1       S   183   9.42    266       29.9
   11/28/2018 15:00      65.7      64.4       56     48.8      0.00      0.84      62.9     0.29      1012.7     3.5      SW   217   6.1     SSW   194   9.42    266       32.9
   11/28/2018 14:50      65.7      65.1       55     48.7      0.00      0.84      62.8     0.29      1012.7     1.8      SW   227   4.3     SSW   201   9.42    266       28.1
   11/28/2018 14:40      66.0      65.4       54     48.5      0.00      0.84      62.8     0.29      1012.5     2.8       S   184   6.2     SSW   213   9.42    266       42.7
   11/28/2018 14:30      65.8      65.3       54     48.3      0.00      0.84      62.8     0.29      1012.4     2.8     SSE   166   5.9     SSE   163   9.42    266       79.1
   11/28/2018 14:20      66.2      65.4       54     48.4      0.00      0.84      62.7     0.29      1012.4     3.3       S   175   5.3      SE   129   9.43    266       59.5
   11/28/2018 14:10      67.0      66.0       52     48.3      0.00      0.84      62.7     0.29      1012.4     2.9       S   172   5.5       S   174   9.43    266       75.2
   11/28/2018 14:00      67.7      66.6       51     48.3      0.00      0.84      62.7     0.29      1012.4     3.1     SSW   193   6.4     WSW   240   9.43    265      103.7
   11/28/2018 13:50      67.7      67.0       50     48.2      0.00      0.84      62.6     0.29      1012.3     3.1     SSE   148   6.9      SW   218   9.43    265      201.8
   11/28/2018 13:40      67.6      66.6       50     47.8      0.00      0.84      62.6     0.29      1012.4     2.0       S   184   6.0      NE    47   9.43    264      211.8
   11/28/2018 13:30      67.0      66.2       50     47.2      0.00      0.84      62.6     0.29      1012.5     2.9     SSW   204   5.6     SSW   192   9.43    265      136.6
   11/28/2018 13:20      67.4      66.8       48     46.6      0.00      0.84      62.5     0.29      1012.6     2.5     WSW   245   6.7       S   187   9.43    265      152.3
   11/28/2018 13:10      67.1      66.1       49     46.4      0.00      0.84      62.5     0.29      1012.8     1.2     SSE   164   3.8     SSE   156   9.43    265      114.6
   11/28/2018 13:00      68.3      66.3       47     46.2      0.00      0.84      62.5     0.29      1013.1     2.8       E    98   5.5     ENE    68   9.43    265       38.2
   11/28/2018 12:50      68.6      67.7       46     46.4      0.00      0.84      62.5     0.29      1013.1     2.1      SE   138   4.8       E    98   9.43    263      291.0
   11/28/2018 12:40      68.6      67.4       46     46.5      0.00      0.84      62.5     0.29      1013.1     1.3      NW   315   3.2       W   276   9.43    263      311.7
   11/28/2018 12:30      69.4      67.5       46     47.0      0.00      0.84      62.4     0.29      1013.3     2.0     NNE    20   5.0      NE    34   9.43    264      310.7
   11/28/2018 12:20      68.2      67.4       48     47.5      0.00      0.84      62.4     0.29      1013.4     1.6       S   185   5.0      SE   142   9.43    264      307.7
   11/28/2018 12:10      67.4      65.7       53     49.2      0.00      0.84      62.4     0.29      1013.6     1.0      NW   326   3.6      NW   307   9.43    265      310.2
   11/28/2018 12:00      66.1      65.5       55     49.2      0.00      0.84      62.4     0.29      1013.5     2.1      SE   129   4.9       E   100   9.43    265      317.8
   11/28/2018 11:50      66.0      65.4       55     49.4      0.00      0.84      62.4     0.29      1013.6     2.5       N   354   5.3       N   352   9.43    265      308.9
   11/28/2018 11:40      65.7      65.2       57     49.7      0.00      0.84      62.4     0.29      1013.7     2.2     NNE    16   4.3       N     7   9.43    266      315.6
   11/28/2018 11:30      65.4      64.6       57     49.7      0.00      0.84      62.4     0.29      1014.0     1.5     NNE    12   3.8      NW   305   9.43    266      318.6
   11/28/2018 11:20      65.0      64.2       58     49.5      0.00      0.84      62.4     0.29      1014.3     1.6      NE    50   3.4     ESE   111   9.43    266      315.3
   11/28/2018 11:10      64.4      63.3       60     49.5      0.00      0.84      62.4     0.29      1014.7     1.9       N   351   3.5     WNW   290   9.43    266      319.1
   11/28/2018 11:00      64.0      63.3       60     49.7      0.00      0.84      62.4     0.29      1014.9     2.2      NW   310   5.1     NNW   337   9.43    266      314.9
   11/28/2018 10:50      64.1      62.8       61     49.8      0.00      0.84      62.4     0.29      1015.0     1.8     NNW   338   4.6     NNW   338   9.43    266      300.9
   11/28/2018 10:40      64.0      62.7       62     49.8      0.00      0.84      62.4     0.29      1015.1     1.5     ESE   111   4.1      SE   137   9.43    266      306.1
   11/28/2018 10:30      63.8      61.8       63     49.9      0.00      0.84      62.4     0.29      1015.4     0.8     WNW   290   2.5       N     0   9.43    266      294.7
   11/28/2018 10:20      62.6      61.7       64     49.6      0.00      0.84      62.4     0.29      1015.4     1.5     ESE   110   3.0     NNE    12   9.43    281      271.7
   11/28/2018 10:10      62.5      61.3       65     49.9      0.00      0.84      62.5     0.29      1015.4     1.1     NNW   348   3.4       E    88   9.43    293      276.7
   11/28/2018 10:00      61.6      60.6       67     49.9      0.00      0.84      62.4     0.29      1015.5     1.2     NNE    13   3.4      NE    52   9.43    302      261.8
   11/28/2018 09:50      61.1      60.6       67     49.8      0.00      0.84      62.4     0.29      1015.5     1.6     ENE    65   3.2     NNW   332   9.43    307      251.5
   11/28/2018 09:40      60.8      59.3       69     50.0      0.00      0.84      62.4     0.29      1015.6     0.8     ENE    75   2.2      NE    40   9.43    310      235.9
   11/28/2018 09:30      59.4      57.8       73     50.0      0.00      0.84      62.5     0.29      1015.7     0.8     NNW   333   2.8       N     1   9.43    311      222.8
   11/28/2018 09:20      58.0      57.1       78     50.6      0.00      0.84      62.5     0.29      1015.6     1.4       N   359   3.0      NE    47   9.43    312      207.8
   11/28/2018 09:10      57.2      56.0       84     51.7      0.00      0.84      62.5     0.29      1015.5     1.0       N     4   2.8      NE    37   9.43    313      240.3
   11/28/2018 09:00      56.3      55.4       87     52.0      0.00      0.84      62.5     0.29      1015.4     0.8       N     8   2.3       N    11   9.43    315      247.3
   11/28/2018 08:50      55.7      54.5       90     52.4      0.00      0.84      62.5     0.29      1015.4     0.7     ENE    59   1.7     NNW   345   9.43    316      230.7
   11/28/2018 08:40      54.7      53.2       94     52.2      0.00      0.84      62.5     0.29      1015.6     0.7      SE   126   1.8     SSE   155   9.43    318      211.2
   11/28/2018 08:30      53.4      51.5       96     51.0      0.00      0.84      62.5     0.29      1015.7     0.7      SE   145   2.2     SSE   155   9.45    326      187.1
   11/28/2018 08:20      51.5      49.9       96     49.6      0.00      0.84      62.5     0.29      1015.7     1.4     SSE   160   2.6      SE   132   9.45    337      163.9
   11/28/2018 08:10      50.0      48.9       96     48.4      0.00      0.84      62.6     0.29      1015.8     1.4     SSE   157   2.5     SSE   156   9.45    344      102.8
   11/28/2018 08:00      49.1      48.1       96     47.6      0.00      0.84      62.5     0.29      1015.9     1.5     SSE   160   3.0       S   175   9.45    350       84.3
   11/28/2018 07:50      48.3      47.3       96     46.7      0.00      0.84      62.6     0.29      1015.7     1.6       S   180   3.3       S   175   9.45    357       62.3
   11/28/2018 07:40      48.6      47.2       96     46.5      0.00      0.84      62.6     0.29      1015.7     3.4      SW   221   5.7     WSW   256   9.45    363       45.0
   11/28/2018 07:30      49.5      48.3       96     47.9      0.00      0.84      62.6     0.29      1015.6     2.1       W   279   4.8       W   271   9.45    368       28.1
   11/28/2018 07:20      49.7      49.2       96     48.3      0.00      0.84      62.6     0.29      1015.3     1.6      NW   305   4.4      NW   312   9.45    372       19.0
   11/28/2018 07:10      49.5      49.0       96     48.2      0.00      0.84      62.7     0.29      1014.8     0.9     WSW   244   2.1     WNW   283   9.44    373       11.1
   11/28/2018 07:00      49.5      48.8       96     48.0      0.00      0.84      62.7     0.29      1014.5     1.2       S   188   1.8       S   185   9.44    375        3.5
   11/28/2018 06:50      49.5      49.2       96     48.3      0.00      0.84      62.7     0.29      1014.7     0.4     SSE   162   2.4       S   185   9.44    379        0.0
   11/28/2018 06:40      49.6      49.0       96     48.1      0.00      0.84      62.7     0.29      1015.0     0.0     ENE    74   0.8     ENE    78   9.44    382       -2.3
   11/28/2018 06:30      49.6      49.2       96     48.1      0.00      0.84      62.7     0.29      1015.1     0.0      SW   222   0.7      SW   220   9.44    379       -3.4
   11/28/2018 06:20      49.5      49.2       96     48.1      0.00      0.84      62.7     0.29      1015.2     0.0       N     0   0.0      NW   326   9.44    377       -2.7
   11/28/2018 06:10      49.5      49.2       96     48.1      0.00      0.84      62.8     0.29      1015.3     0.2      NW   314   1.3      NW   313   9.44    375       -2.5
   11/28/2018 06:00      49.5      49.2       96     48.1      0.00      0.84      62.8     0.29      1015.4     0.5      NW   319   1.8     NNW   333   9.44    373       -2.5
   11/28/2018 05:50      49.4      48.9       96     47.9      0.00      0.84      62.8     0.29      1015.3     0.2       S   179   0.8       S   184   9.44    372       -2.8
   11/28/2018 05:40      49.3      48.9       96     47.8      0.00      0.84      62.8     0.29      1015.3     0.2     SSE   154   0.9     SSE   160   9.44    371       -3.4
   11/28/2018 05:30      49.5      48.9       95     47.8      0.00      0.84      62.8     0.29      1015.2     0.5     SSE   164   1.5       S   185   9.44    371       -3.3
   11/28/2018 05:20      49.9      49.1       95     48.1      0.00      0.84      62.8     0.29      1015.3     1.4     SSE   155   2.6      SE   145   9.44    372       -4.9
   11/28/2018 05:10      50.3      49.7       95     48.5      0.00      0.84      62.9     0.29      1015.3     1.1       S   190   2.1       S   185   9.44    371       -4.7
   11/28/2018 05:00      50.8      50.1       95     49.1      0.00      0.84      62.9     0.29      1015.5     1.7     WSW   240   3.0     WSW   240   9.44    368       -3.4
   11/28/2018 04:50      50.6      50.1       95     49.0      0.00      0.84      62.9     0.29      1015.2     1.4      SW   216   2.0     SSW   208   9.44    367       -2.2
   11/28/2018 04:40      50.4      49.7       95     48.5      0.00      0.84      62.9     0.29      1015.2     2.1      SW   222   3.4     WSW   247   9.44    367       -1.8
   11/28/2018 04:30      49.9      49.2       95     48.1      0.00      0.84      63.0     0.29      1015.3     0.2     WSW   256   2.0       W   262   9.44    365       -1.8
   11/28/2018 04:20      49.4      48.7       95     47.5      0.00      0.84      63.0     0.29      1015.0     0.6     WSW   241   1.4       W   274   9.44    358       -1.8
   11/28/2018 04:10      49.0      48.5       94     47.2      0.00      0.84      63.0     0.29      1014.8     0.4     WNW   302   2.1       W   270   9.44    352       -1.9
   11/28/2018 04:00      48.9      48.5       94     47.1      0.00      0.84      63.0     0.29      1014.8     0.9      NW   320   2.1       W   280   9.44    345       -1.8
   11/28/2018 03:50      48.8      48.3       94     46.8      0.00      0.84      63.0     0.29      1014.6     0.2     NNE    25   1.2     NNE    27   9.44    335       -1.9
   11/28/2018 03:40      48.6      48.1       93     46.5      0.00      0.84      63.0     0.29      1014.7     0.5     NNE    20   1.6     NNE    20   9.44    322       -2.0
   11/28/2018 03:30      49.3      48.3       93     46.7      0.00      0.84      63.1     0.29      1015.0     1.4       N     8   2.4      NW   322   9.44    310       -1.5
   11/28/2018 03:20      49.7      49.1       92     47.3      0.00      0.84      63.1     0.29      1015.0     0.8     NNE    27   2.1     NNW   337   9.44    293       -0.0
   11/28/2018 03:10      49.3      47.8       92     46.0      0.00      0.84      63.1     0.29      1015.1     0.2     WNW   304   1.1      NW   323   9.44    281       -1.1
   11/28/2018 03:00      48.1      47.5       90     44.8      0.00      0.84      63.2     0.29      1015.5     0.3     SSE   164   0.8     SSE   160   9.44    269       -7.9
   11/28/2018 02:50      47.7      46.5       86     43.3      0.00      0.84      63.2     0.29      1015.9     1.1      SE   145   1.8      SE   140   9.44    260      -14.2
   11/28/2018 02:40      46.6      46.0       83     41.5      0.00      0.84      63.2     0.29      1016.0     0.4     SSE   157   1.8      SE   141   9.44    269      -28.3
   11/28/2018 02:30      46.4      45.9       83     41.4      0.00      0.84      63.2     0.29      1016.0     0.9     SSE   148   1.5      SE   139   9.44    260      -53.5
   11/28/2018 02:20      46.7      46.1       83     41.4      0.00      0.84      63.2     0.29      1015.8     0.7     SSE   153   1.4      SE   139   9.44    261      -55.8
   11/28/2018 02:10      46.7      46.3       82     41.3      0.00      0.84      63.3     0.29      1015.9     0.6     SSE   165   1.3      SE   141   9.44    262      -57.0
   11/28/2018 02:00      46.6      46.2       82     41.1      0.00      0.84      63.3     0.29      1015.9     0.4       S   183   1.1     SSW   195   9.44    263      -57.9
   11/28/2018 01:50      47.0      46.4       81     40.9      0.00      0.84      63.3     0.29      1015.7     0.4     SSE   147   1.2      SE   143   9.44    262      -59.7
   11/28/2018 01:40      47.3      46.6       80     41.0      0.00      0.84      63.3     0.29      1015.6     0.3     SSE   165   0.9     SSE   158   9.44    266      -58.4
   11/28/2018 01:30      47.6      47.1       79     41.3      0.00      0.84      63.3     0.29      1015.6     0.2     SSE   161   0.9     SSE   159   9.45    266      -58.0
   11/28/2018 01:20      48.0      47.5       79     41.3      0.00      0.84      63.3     0.29      1015.6     0.0       N     0   0.0     SSW   197   9.45    266      -58.9
   11/28/2018 01:10      48.6      47.8       79     41.8      0.00      0.84      63.3     0.29      1015.6     0.0     SSW   197   0.3     SSW   197   9.45    267      -59.1
   11/28/2018 01:00      48.4      47.9       79     42.1      0.00      0.84      63.3     0.29      1015.5     0.5     SSE   148   1.6      SE   138   9.45    267      -59.9
   11/28/2018 00:50      48.2      47.8       79     41.9      0.00      0.84      63.4     0.29      1015.5     0.7     SSE   152   1.7      SE   143   9.45    267      -59.9
   11/28/2018 00:40      48.6      47.8       78     41.6      0.00      0.84      63.3     0.29      1015.7     0.4     SSE   158   1.4     SSE   166   9.45    267      -59.4
   11/28/2018 00:30      49.0      48.3       76     41.5      0.00      0.84      63.4     0.29      1015.8     0.3     SSE   157   1.1      SE   144   9.45    267      -53.7
   11/28/2018 00:20      48.9      48.6       75     41.3      0.00      0.84      63.4     0.29      1015.9     0.0       N     0   0.0     SSW   206   9.45    267      -54.5
   11/28/2018 00:10      49.4      48.7       76     41.7      0.00      0.84      63.4     0.29      1015.9     0.2     SSE   162   0.7     SSE   162   9.45    267      -57.6
   11/28/2018 00:00      49.7      48.9       75     41.7      0.00      0.84      63.4     0.29      1016.0     0.1     SSE   159   0.7     SSE   160   9.45    267      -58.0
   11/27/2018 23:50      50.0      49.3       74     41.8      0.00      0.84      63.5     0.29      1016.0     0.2     SSE   157   1.0     SSE   154   9.45    267      -56.7
   11/27/2018 23:40      50.1      49.6       74     41.9      0.00      0.84      63.4     0.29      1015.9     0.5     SSE   163   0.9     SSE   165   9.45    267      -56.1
   11/27/2018 23:30      50.5      49.7       73     41.6      0.00      0.84      63.5     0.29      1016.0     0.2     SSE   158   0.7       S   172   9.45    267      -56.5
   11/27/2018 23:20      50.9      50.1       72     41.6      0.00      0.84      63.5     0.29      1016.2     0.0       S   169   0.5       S   169   9.45    267      -57.4
   11/27/2018 23:10      51.1      50.5       71     41.8      0.00      0.84      63.5     0.29      1016.2     0.0     SSE   152   0.8     SSE   151   9.45    267      -57.7
   11/27/2018 23:00      51.6      51.0       70     41.7      0.00      0.84      63.5     0.29      1016.1     0.4     SSE   155   1.2      SE   145   9.45    267      -59.3
   11/27/2018 22:50      51.9      51.3       69     41.7      0.00      0.84      63.5     0.29      1016.2     0.7     SSE   160   1.1      SE   145   9.45    266      -56.9
   11/27/2018 22:40      51.9      51.4       68     41.6      0.00      0.84      63.5     0.29      1016.3     1.3     SSE   148   2.3      SE   135   9.45    267      -58.9
   11/27/2018 22:30      51.8      51.4       69     41.6      0.00      0.84      63.5     0.29      1016.3     1.2     SSE   151   2.3      SE   141   9.45    266      -57.3
   11/27/2018 22:20      52.0      51.5       68     41.5      0.00      0.84      63.5     0.29      1016.3     1.2     SSE   155   2.0      SE   138   9.45    266      -57.0
   11/27/2018 22:10      52.4      51.8       67     41.4      0.00      0.84      63.5     0.29      1016.3     0.8     SSE   159   1.3     SSE   149   9.45    266      -57.7
   11/27/2018 22:00      52.8      52.1       65     41.1      0.00      0.84      63.5     0.29      1016.4     0.6     SSE   157   1.5     SSE   156   9.46    266      -57.1
   11/27/2018 21:50      53.0      52.5       65     41.1      0.00      0.84      63.5     0.29      1016.4     0.4       S   177   1.0       S   182   9.46    266      -54.2
   11/27/2018 21:40      53.1      52.6       64     40.9      0.00      0.84      63.5     0.29      1016.4     0.0       N     0   0.0     SSW   211   9.46    266      -53.3
   11/27/2018 21:30      53.5      52.8       65     41.5      0.00      0.84      63.5     0.29      1016.4     0.5     SSW   199   1.3       S   188   9.46    266      -54.0
   11/27/2018 21:20      54.2      53.1       64     41.7      0.00      0.84      63.5     0.29      1016.4     0.1       S   185   0.9     SSW   209   9.46    266      -57.3
   11/27/2018 21:10      54.3      53.8       63     41.8      0.00      0.84      63.5     0.29      1016.4     0.9      SE   141   1.7      SE   145   9.46    266      -57.9
   11/27/2018 21:00      54.3      53.8       63     41.7      0.00      0.84      63.5     0.29      1016.6     0.2       S   184   1.2       S   181   9.46    266      -57.8
   11/27/2018 20:50      55.0      54.1       62     41.7      0.00      0.84      63.5     0.29      1016.7     0.7       S   174   2.0      SE   144   9.46    266      -56.5
   11/27/2018 20:40      55.3      54.6       61     41.7      0.00      0.84      63.5     0.29      1016.6     1.1     SSE   164   2.0      SE   140   9.46    266      -55.4
   11/27/2018 20:30      55.3      54.9       60     41.5      0.00      0.84      63.5     0.29      1016.5     0.7       S   178   1.9       S   180   9.46    266      -53.6
   11/27/2018 20:20      55.9      55.0       60     41.7      0.00      0.84      63.5     0.29      1016.4     0.3     SSE   157   0.9       S   179   9.46    266      -53.8
   11/27/2018 20:10      56.2      55.6       58     41.7      0.00      0.84      63.5     0.29      1016.4     0.3     SSE   157   1.2      SE   133   9.46    266      -51.1
   11/27/2018 20:00      56.3      55.9       58     41.5      0.00      0.84      63.5     0.29      1016.3     1.0     SSE   155   3.0       S   173   9.46    266      -48.4
   11/27/2018 19:50      56.8      56.0       56     41.1      0.00      0.84      63.5     0.29      1016.3     0.6     SSE   165   1.2      SE   139   9.46    266      -50.5
   11/27/2018 19:40      56.8      56.5       55     40.4      0.00      0.84      63.4     0.29      1016.3     0.4       S   181   1.1       S   189   9.46    266      -49.4
   11/27/2018 19:30      56.8      56.2       55     40.6      0.00      0.84      63.4     0.29      1016.3     0.3       S   171   0.9       S   182   9.46    265      -48.7
   11/27/2018 19:20      57.4      56.5       54     40.4      0.00      0.84      63.4     0.29      1016.3     1.1       S   176   1.7      SW   219   9.46    265      -50.5
   11/27/2018 19:10      57.8      57.0       54     40.7      0.00      0.84      63.4     0.29      1016.3     0.8       S   191   2.0      SW   219   9.47    265      -53.3
   11/27/2018 19:00      57.9      57.1       55     41.1      0.00      0.84      63.4     0.29      1016.2     0.8     SSE   152   2.1      SW   219   9.47    265      -54.0
   11/27/2018 18:50      57.9      57.4       55     41.4      0.00      0.84      63.4     0.29      1016.3     0.4       S   176   1.5     SSW   199   9.47    265      -53.5
   11/27/2018 18:40      58.3      57.6       54     41.3      0.00      0.84      63.3     0.29      1016.3     1.0     SSE   166   2.6       S   182   9.47    265      -52.9
   11/27/2018 18:30      58.3      57.9       54     41.7      0.00      0.84      63.2     0.29      1016.3     0.7     SSE   168   2.3      SW   215   9.47    264      -55.5
   11/27/2018 18:20      59.6      58.1       53     41.5      0.00      0.84      63.3     0.29      1016.3     1.0       S   170   1.9      SE   143   9.47    264      -60.9
   11/27/2018 18:10      60.8      59.4       50     41.2      0.00      0.84      63.2     0.29      1016.3     1.4     SSE   152   3.6     SSW   207   9.47    264      -68.7
   11/27/2018 18:00      61.1      60.4       48     40.9      0.00      0.84      63.2     0.29      1016.5     2.3      SW   228   4.1      SW   235   9.47    264      -70.0
   11/27/2018 17:50      63.7      61.0       46     40.8      0.00      0.84      63.2     0.29      1016.4     0.6      SE   131   1.8     ESE   121   9.47    264      -73.7
   11/27/2018 17:40      64.2      63.4       42     40.5      0.00      0.84      63.1     0.29      1016.3     2.1      SW   221   3.0      SW   234   9.47    264      -74.6
   11/27/2018 17:30      64.1      62.3       43     40.2      0.00      0.84      63.1     0.29      1016.3     1.8     WSW   257   3.3       W   268   9.48    264      -73.5
   11/27/2018 17:20      63.4      62.3       44     40.4      0.00      0.84      63.1     0.29      1016.2     1.2     WSW   238   2.7      SW   220   9.48    264      -73.7
   11/27/2018 17:10      65.2      63.1       42     40.3      0.00      0.84      63.0     0.29      1016.2     0.7       S   187   2.1     SSW   202   9.48    264      -74.6
   11/27/2018 17:00      66.8      64.9       38     39.9      0.00      0.84      63.0     0.29      1016.1     1.4     SSW   213   2.2     SSW   196   9.48    264      -75.5
   11/27/2018 16:50      67.9      66.6       37     39.8      0.00      0.84      63.0     0.29      1016.1     1.7     WSW   254   3.2     WSW   255   9.48    263      -75.8
   11/27/2018 16:40      68.8      67.5       36     39.8      0.00      0.84      62.9     0.29      1015.9     1.0       W   280   3.2     WSW   255   9.49    263      -72.6
   11/27/2018 16:30      69.5      68.4       34     39.5      0.00      0.84      62.8     0.29      1015.9     0.7     NNW   340   2.0       W   273   9.49    263      -70.2
   11/27/2018 16:20      70.4      69.2       33     39.4      0.00      0.84      62.8     0.29      1015.9     1.7     WNW   295   3.9     WNW   302   9.49    262      -66.0
   11/27/2018 16:10      71.3      70.1       30     38.1      0.00      0.84      62.8     0.29      1015.9     2.3      NW   315   4.7      NW   319   9.49    262      -53.1
   11/27/2018 16:00      72.1      71.0       28     37.0      0.00      0.84      62.8     0.29      1015.9     3.0      NW   307   5.8     WNW   303   9.49    261      -28.6
   11/27/2018 15:50      72.9      71.8       27     36.6      0.00      0.84      62.7     0.29      1015.8     3.2      NW   313   5.4      NW   325   9.49    261       -5.0
   11/27/2018 15:40      73.3      72.5       27     37.0      0.00      0.84      62.7     0.29      1015.8     2.7     WNW   289   7.0     NNW   338   9.49    261       22.8
   11/27/2018 15:30      74.0      72.9       26     36.2      0.00      0.84      62.6     0.29      1015.8     2.0      NW   305   5.6      NW   316   9.50    262        0.9
   11/27/2018 15:20      74.8      73.7       23     33.6      0.00      0.84      62.6     0.29      1016.0     3.0       W   259   7.1     WSW   244   9.50    261      -18.2
   11/27/2018 15:10      75.2      74.4       21     32.5      0.00      0.84      62.5     0.29      1015.9     3.6      SW   234   6.3     WSW   239   9.50    261       35.1
   11/27/2018 15:00      75.9      74.9       21     32.5      0.00      0.84      62.5     0.29      1016.0     3.7     WSW   251   6.7       W   274   9.50    261       51.0
   11/27/2018 14:50      75.9      75.2       21     33.0      0.00      0.84      62.4     0.29      1016.1     4.1     WSW   256   7.1     WSW   238   9.50    261      120.9
   11/27/2018 14:40      76.0      75.3       20     31.7      0.00      0.84      62.4     0.29      1016.1     4.8     WSW   254   8.5     WSW   245   9.50    261       98.3
   11/27/2018 14:30      76.4      75.6       19     31.0      0.00      0.84      62.4     0.29      1016.2     5.5     WSW   241   8.0     WSW   257   9.50    261      138.7
   11/27/2018 14:20      77.0      76.2       18     30.5      0.00      0.84      62.3     0.29      1016.2     4.6     WSW   256   7.0     WNW   291   9.51    261      132.7
   11/27/2018 14:10      77.2      76.6       18     29.9      0.00      0.84      62.3     0.29      1016.3     4.8     WSW   258   7.8       W   276   9.51    261      136.2
   11/27/2018 14:00      77.2      76.6       18     29.6      0.00      0.84      62.3     0.29      1016.2     4.2     WSW   258   6.8       W   265   9.51    261      153.7
   11/27/2018 13:50      77.1      76.5       18     29.7      0.00      0.84      62.2     0.29      1016.3     4.5     SSW   209   7.5      SW   228   9.51    261      213.3
   11/27/2018 13:40      77.0      76.5       17     28.7      0.00      0.84      62.2     0.29      1016.3     4.1     SSW   202   7.5     SSW   211   9.51    261      171.2
   11/27/2018 13:30      77.7      76.5       16     28.0      0.00      0.84      62.1     0.29      1016.4     5.4     SSW   206   7.9       S   186   9.51    261      248.4
   11/27/2018 13:20      78.4      77.6       16     27.8      0.00      0.84      62.1     0.29      1016.5     3.6      SW   218   7.6       S   189   9.52    260      278.0
   11/27/2018 13:10      78.1      76.9       16     27.7      0.00      0.84      62.0     0.29      1016.5     2.5     SSW   213   6.6     SSW   213   9.52    261      252.6
   11/27/2018 13:00      77.6      76.8       15     26.6      0.00      0.84      62.1     0.29      1016.5     3.2     SSE   167   8.0      SW   218   9.52    261      260.3
   11/27/2018 12:50      77.6      77.0       15     26.1      0.00      0.84      62.1     0.29      1016.8     2.9     SSW   198   6.4       S   179   9.52    260      269.7
   11/27/2018 12:40      77.6      76.4       14     23.9      0.00      0.84      62.0     0.29      1017.0     2.2      SW   218   6.0     WSW   252   9.52    260      240.4
   11/27/2018 12:30      77.4      76.6       12     21.1      0.00      0.84      62.0     0.29      1017.1     2.7      SW   218   4.8     WSW   251   9.52    261      237.4
   11/27/2018 12:20      78.6      77.2       11     19.6      0.00      0.84      61.9     0.29      1017.2     3.2       S   181   5.7     SSW   192   9.52    260      331.5
   11/27/2018 12:10      78.4      77.0       12     21.2      0.00      0.84      62.0     0.29      1017.4     1.5     SSW   191   3.1      SE   144   9.52    261      316.7
   11/27/2018 12:00      77.4      76.5       15     25.2      0.00      0.84      62.0     0.29      1017.5     1.2       E    92   3.7     ENE    78   9.52    261      260.1
   11/27/2018 11:50      76.8      75.8       15     25.0      0.00      0.84      62.0     0.29      1017.8     1.6     ESE   106   3.8      SE   146   9.52    261      327.9
   11/27/2018 11:40      76.7      75.7       14     24.3      0.00      0.84      62.0     0.29      1018.0     0.9       E    93   3.0     ENE    79   9.52    261      251.7
   11/27/2018 11:30      76.3      75.4       14     23.8      0.00      0.84      62.0     0.28      1018.1     0.5      NE    52   2.2      NE    46   9.52    261      217.8
   11/27/2018 11:20      75.8      74.6       14     21.9      0.00      0.84      62.0     0.28      1018.2     0.9     SSE   155   2.3      NE    37   9.52    261      290.7
   11/27/2018 11:10      74.9      74.0       14     21.7      0.00      0.84      62.0     0.28      1018.5     1.0     ESE   121   2.8       E    95   9.52    261      305.7
   11/27/2018 11:00      75.0      73.6       14     22.7      0.00      0.84      62.0     0.29      1018.7     0.9      NE    38   2.3      NE    40   9.52    261      315.2
   11/27/2018 10:50      73.6      73.1       15     23.2      0.00      0.84      62.0     0.29      1018.9     0.7       N   360   1.9      NW   308   9.52    261      265.0
   11/27/2018 10:40      73.5      71.6       17     24.8      0.00      0.84      62.0     0.29      1018.9     0.7     NNE    22   2.3     NNE    24   9.52    261      289.7
   11/27/2018 10:30      71.8      70.5       18     25.4      0.00      0.84      62.0     0.29      1018.9     0.9      NE    51   2.0       E    81   9.52    261      230.1
   11/27/2018 10:20      71.5      70.5       18     25.8      0.00      0.84      62.1     0.29      1019.0     1.1      NE    41   2.5     ENE    71   9.52    262      157.5
   11/27/2018 10:10      71.5      70.2       21     28.7      0.00      0.84      62.2     0.29      1019.1     0.9     ENE    71   2.4     ENE    60   9.52    262      281.6
   11/27/2018 10:00      70.5      69.3       22     29.2      0.00      0.84      62.1     0.29      1019.4     0.9     ENE    70   2.1       E    80   9.52    262      279.7
   11/27/2018 09:50      69.5      68.2       25     31.0      0.00      0.84      62.2     0.29      1019.5     0.7     NNE    29   1.6     ESE   110   9.52    262      260.9
   11/27/2018 09:40      68.4      67.9       26     32.5      0.00      0.84      62.2     0.29      1019.6     0.5       N     2   2.2       N   352   9.52    262      233.6
   11/27/2018 09:30      68.1      65.8       28     32.2      0.00      0.84      62.2     0.29      1019.6     0.2       E    82   1.0       N    11   9.52    263      196.8
   11/27/2018 09:20      66.0      64.2       27     30.4      0.00      0.84      62.3     0.29      1019.7     0.7     NNE    28   1.5     NNE    20   9.53    263      212.8
   11/27/2018 09:10      64.6      64.1       31     33.2      0.00      0.84      62.3     0.29      1019.6     0.9       N    10   1.8     NNE    17   9.52    263      204.7
   11/27/2018 09:00      64.4      62.9       32     33.0      0.00      0.84      62.3     0.29      1019.7     0.0      NE    43   1.1     ENE    78   9.53    263      200.7
   11/27/2018 08:50      62.9      61.1       33     32.7      0.00      0.84      62.3     0.29      1019.7     0.2     ENE    60   0.9     ENE    58   9.52    263      176.6
   11/27/2018 08:40      61.3      60.2       35     33.1      0.00      0.84      62.4     0.29      1019.7     0.4     ENE    69   1.2     ENE    78   9.52    264      140.8
   11/27/2018 08:30      60.3      58.3       38     33.5      0.00      0.84      62.4     0.29      1019.7     0.2     ENE    68   0.8     ENE    73   9.52    264      134.8
   11/27/2018 08:20      58.5      56.4       38     31.9      0.00      0.84      62.4     0.29      1019.7     0.0     NNE    17   0.8     NNE    13   9.52    264      124.6
   11/27/2018 08:10      56.7      54.6       41     32.3      0.00      0.84      62.4     0.29      1019.5     0.0       N     0   0.0     ESE   112   9.52    264       88.1
   11/27/2018 08:00      54.8      50.7       44     31.1      0.00      0.84      62.5     0.29      1019.5     0.0       N     0   0.0     SSE   168   9.52    264       93.8
   11/27/2018 07:50      50.7      49.4       47     30.4      0.00      0.84      62.5     0.29      1019.5     0.3      SE   145   1.0     SSE   147   9.52    265       64.3
   11/27/2018 07:40      51.0      50.0       43     28.8      0.00      0.84      62.5     0.29      1019.7     0.0       N     0   0.0      SE   144   9.52    266      -29.3
   11/27/2018 07:30      50.9      46.8       47     29.3      0.00      0.84      62.6     0.29      1019.6     0.0       N     0   0.0      SE   144   9.52    266      -33.2
   11/27/2018 07:20      46.9      44.8       54     29.4      0.00      0.84      62.6     0.29      1019.5     0.0       N     0   0.0      SE   144   9.52    266      -37.3
   11/27/2018 07:10      45.0      44.7       55     29.5      0.00      0.84      62.6     0.29      1019.5     0.3     SSE   151   1.3      SE   138   9.52    266      -39.1
   11/27/2018 07:00      45.1      44.6       55     29.5      0.00      0.84      62.6     0.29      1019.5     0.7      SE   145   1.2      SE   133   9.52    266      -43.0
   11/27/2018 06:50      45.1      44.5       52     28.1      0.00      0.84      62.7     0.29      1019.4     0.4     SSE   155   1.0     SSE   152   9.52    266      -44.8
   11/27/2018 06:40      44.8      44.2       52     28.1      0.00      0.84      62.7     0.29      1019.1     0.5     SSE   160   1.3     SSE   151   9.52    266      -45.6
   11/27/2018 06:30      44.8      44.3       52     28.1      0.00      0.84      62.7     0.29      1019.0     0.6     SSE   157   1.6      SE   140   9.53    266      -52.6
   11/27/2018 06:20      45.1      44.5       53     28.6      0.00      0.84      62.7     0.29      1019.0     0.8     ENE    76   1.7      NW   319   9.53    266      -55.4
   11/27/2018 06:10      45.0      44.2       50     27.3      0.00      0.84      62.8     0.29      1018.8     0.8       S   176   2.1     NNW   332   9.53    266      -54.5
   11/27/2018 06:00      44.6      44.2       52     28.1      0.00      0.84      62.8     0.29      1018.9     0.8     SSE   160   1.8      SE   138   9.53    266      -54.9
   11/27/2018 05:50      44.6      44.1       55     28.9      0.00      0.84      62.8     0.29      1019.0     0.2       N   357   0.7       W   272   9.53    266      -55.2
   11/27/2018 05:40      45.0      44.3       54     29.0      0.00      0.84      62.8     0.29      1018.9     0.4     SSE   157   1.3     SSE   147   9.53    266      -55.9
   11/27/2018 05:30      45.5      44.8       52     28.5      0.00      0.84      62.9     0.29      1019.0     0.3      SE   143   1.1      SE   139   9.53    266      -56.3
   11/27/2018 05:20      45.6      45.1       52     28.7      0.00      0.84      62.8     0.29      1019.0     0.3       S   174   1.1     SSE   161   9.53    266      -56.3
   11/27/2018 05:10      46.2      45.1       53     29.4      0.00      0.84      62.9     0.29      1018.9     0.4       S   179   1.1     SSE   161   9.53    266      -56.6
   11/27/2018 05:00      46.0      45.0       53     29.3      0.00      0.84      62.9     0.29      1018.8     0.4     SSE   162   1.1     SSE   152   9.53    266      -54.2
   11/27/2018 04:50      45.8      45.0       53     29.1      0.00      0.84      62.9     0.29      1018.9     0.6     SSE   154   1.7      SE   144   9.53    266      -55.0
   11/27/2018 04:40      46.4      45.4       52     29.4      0.00      0.84      62.9     0.29      1018.9     0.3     SSE   155   1.2     SSE   165   9.53    266      -53.7
   11/27/2018 04:30      46.3      45.9       51     29.1      0.00      0.84      62.9     0.29      1019.0     0.2      SE   146   0.8       S   175   9.53    265      -51.5
   11/27/2018 04:20      46.9      45.9       52     29.7      0.00      0.84      63.0     0.29      1019.0     0.9     SSE   166   1.9     ESE   102   9.53    265      -48.0
   11/27/2018 04:10      47.0      46.4       52     30.0      0.00      0.84      63.0     0.29      1018.9     0.3       W   268   2.4     NNW   347   9.53    265      -53.2
   11/27/2018 04:00      47.3      46.2       51     29.3      0.00      0.84      63.0     0.29      1018.8     0.9     SSE   147   3.0     NNW   340   9.53    265      -57.4
   11/27/2018 03:50      47.6      46.9       51     29.8      0.00      0.84      63.1     0.29      1019.0     0.5       S   181   2.3       S   174   9.53    265      -58.8
   11/27/2018 03:40      48.2      47.3       49     29.6      0.00      0.84      63.1     0.29      1019.1     0.8     SSW   202   2.0     NNW   348   9.53    265      -59.5
   11/27/2018 03:30      48.2      47.7       48     29.3      0.00      0.84      63.1     0.29      1019.2     0.4     WNW   286   1.6       N     0   9.53    265      -57.8
   11/27/2018 03:20      48.6      48.0       47     28.9      0.00      0.84      63.1     0.29      1019.1     0.4     SSE   147   1.5       S   180   9.53    264      -54.8
   11/27/2018 03:10      48.9      48.2       47     29.3      0.00      0.84      63.2     0.29      1019.2     0.0       S   177   0.5       S   177   9.53    265      -48.9
   11/27/2018 03:00      49.1      48.7       46     29.2      0.00      0.84      63.2     0.29      1019.2     0.4      SE   137   1.8      SE   138   9.53    264      -38.8
   11/27/2018 02:50      49.1      48.5       44     27.6      0.00      0.84      63.2     0.29      1019.2     0.8     SSE   154   2.0      SE   140   9.54    264      -28.6
   11/27/2018 02:40      48.9      48.2       45     28.3      0.00      0.84      63.3     0.29      1019.3     0.4     SSE   155   1.3      SE   137   9.54    264      -27.0
   11/27/2018 02:30      48.9      48.3       45     28.1      0.00      0.84      63.3     0.29      1019.3     0.0       S   174   0.7      SE   128   9.54    264      -27.7
   11/27/2018 02:20      48.8      47.7       44     27.5      0.00      0.84      63.3     0.29      1019.2     0.9       N   352   2.3      NW   315   9.54    264      -32.4
   11/27/2018 02:10      48.1      47.7       44     26.9      0.00      0.84      63.3     0.29      1019.2     0.2     SSW   195   1.4     NNW   342   9.54    264      -39.3
   11/27/2018 02:00      48.1      47.6       44     27.2      0.00      0.84      63.4     0.29      1019.2     0.2     ESE   121   1.3       S   171   9.54    264      -43.1
   11/27/2018 01:50      48.4      47.9       43     26.5      0.00      0.84      63.4     0.29      1019.3     0.7      SE   137   1.8      SE   133   9.54    264      -41.5
   11/27/2018 01:40      48.9      48.0       42     26.6      0.00      0.84      63.4     0.29      1019.3     0.5     SSE   157   1.8       S   177   9.54    264      -45.8
   11/27/2018 01:30      48.9      47.8       41     25.7      0.00      0.84      63.5     0.29      1019.5     0.7     SSE   165   2.5       S   180   9.54    264      -50.7
   11/27/2018 01:20      48.0      47.5       42     25.8      0.00      0.84      63.4     0.29      1019.5     0.0     SSE   154   0.8     SSE   154   9.54    264      -52.5
   11/27/2018 01:10      48.3      47.4       44     27.1      0.00      0.84      63.4     0.29      1019.5     0.6     SSW   204   1.7      SW   225   9.54    264      -50.5
   11/27/2018 01:00      48.3      47.8       41     25.5      0.00      0.84      63.4     0.29      1019.5     0.4     SSE   164   1.2       S   176   9.54    264      -48.9
   11/27/2018 00:50      48.4      47.8       40     25.2      0.00      0.84      63.5     0.29      1019.5     0.3       S   173   1.1     SSE   167   9.54    264      -51.1
   11/27/2018 00:40      48.2      47.8       39     24.1      0.00      0.84      63.6     0.29      1019.5     0.4       S   174   1.0       S   180   9.54    264      -55.1
   11/27/2018 00:30      48.7      47.8       41     25.7      0.00      0.84      63.5     0.29      1019.5     0.5     SSE   163   1.5       S   177   9.54    264      -57.2
   11/27/2018 00:20      49.3      48.4       38     24.3      0.00      0.84      63.5     0.29      1019.6     0.2     SSE   165   1.2     SSE   165   9.54    264      -57.1
   11/27/2018 00:10      49.6      48.9       37     24.1      0.00      0.84      63.5     0.29      1019.4     0.4     SSE   156   1.1     SSE   160   9.54    264      -57.7
   11/27/2018 00:00      49.5      49.1       38     24.6      0.00      0.84      63.5     0.29      1019.4     0.1     SSE   162   1.0     SSE   163   9.54    264      -59.1
   11/26/2018 23:50      49.9      49.2       39     25.4      0.00      0.84      63.6     0.29      1019.5     0.3     SSE   157   1.0      SE   144   9.54    264      -60.7
   11/26/2018 23:40      49.9      49.4       38     25.3      0.00      0.84      63.6     0.29      1019.5     0.3     SSW   193   1.1      SE   139   9.54    264      -62.0
   11/26/2018 23:30      50.5      49.5       39     25.8      0.00      0.84      63.6     0.29      1019.6     0.7      SE   142   1.6     SSE   148   9.55    264      -62.6
   11/26/2018 23:20      50.9      50.2       37     24.9      0.00      0.84      63.6     0.29      1019.7     0.3     SSE   161   1.6     SSE   147   9.55    264      -62.6
   11/26/2018 23:10      50.6      49.7       37     25.0      0.00      0.84      63.6     0.29      1019.7     0.3       S   170   1.3      NW   314   9.55    264      -61.4
   11/26/2018 23:00      51.0      49.7       39     26.3      0.00      0.84      63.7     0.29      1019.7     0.9       S   169   1.8       S   169   9.55    264      -59.8
   11/26/2018 22:50      51.8      50.5       37     25.6      0.00      0.84      63.7     0.29      1019.8     0.8      SE   136   2.8      SE   138   9.55    264      -62.7
   11/26/2018 22:40      51.8      51.2       35     24.6      0.00      0.84      63.7     0.29      1020.0     0.7       S   187   2.2     SSW   211   9.55    264      -64.5
   11/26/2018 22:30      52.0      51.4       35     25.2      0.00      0.84      63.7     0.29      1020.0     0.5       S   182   1.9     SSE   161   9.55    264      -65.1
   11/26/2018 22:20      52.2      51.5       35     25.3      0.00      0.84      63.7     0.29      1019.9     0.6     SSW   203   1.5      NW   309   9.55    264      -66.8
   11/26/2018 22:10      53.5      52.1       33     24.8      0.00      0.84      63.7     0.29      1020.0     0.4     SSE   152   1.3       S   169   9.55    264      -67.6
   11/26/2018 22:00      54.4      53.2       32     24.5      0.00      0.84      63.7     0.29      1020.1     0.2     SSE   152   0.9      SE   144   9.55    264      -66.6
   11/26/2018 21:50      54.3      53.5       31     24.2      0.00      0.84      63.7     0.29      1020.0     0.8       S   170   1.9       S   170   9.55    263      -65.9
   11/26/2018 21:40      53.6      52.5       34     25.3      0.00      0.84      63.8     0.29      1020.0     1.3     SSE   150   2.6      SE   130   9.56    264      -62.6
   11/26/2018 21:30      53.6      52.7       34     25.3      0.00      0.84      63.7     0.29      1020.0     0.9      SE   146   2.1      SE   144   9.56    263      -59.9
   11/26/2018 21:20      53.7      53.2       32     24.1      0.00      0.84      63.7     0.29      1019.9     0.6       S   182   1.5       S   187   9.56    263      -56.1
   11/26/2018 21:10      54.3      53.5       31     24.0      0.00      0.84      63.8     0.29      1019.9     0.5       S   172   1.8       S   175   9.56    263      -57.0
   11/26/2018 21:00      54.1      53.7       31     23.8      0.00      0.84      63.7     0.29      1019.8     0.2     SSE   158   1.6       S   180   9.56    263      -60.8
   11/26/2018 20:50      55.4      53.8       31     24.7      0.00      0.84      63.7     0.29      1019.7     0.7       S   175   1.5     SSW   198   9.56    263      -63.4
   11/26/2018 20:40      55.7      54.9       29     23.5      0.00      0.84      63.7     0.29      1019.8     0.4       S   191   1.6     SSW   193   9.56    263      -65.2
   11/26/2018 20:30      55.8      55.2       29     23.7      0.00      0.84      63.7     0.29      1019.8     0.9      SE   137   2.5     SSE   163   9.56    263      -65.9
   11/26/2018 20:20      55.7      55.0       29     23.7      0.00      0.84      63.7     0.29      1019.8     1.1      SE   144   1.9      SE   140   9.57    263      -65.7
   11/26/2018 20:10      56.3      55.2       29     24.1      0.00      0.84      63.7     0.29      1019.8     1.8     SSE   152   3.1      SE   137   9.57    263      -66.3
   11/26/2018 20:00      56.2      55.4       28     23.3      0.00      0.84      63.7     0.29      1019.7     1.6     SSE   148   3.0      SE   141   9.57    263      -66.3
   11/26/2018 19:50      56.5      55.4       29     24.3      0.00      0.84      63.7     0.29      1019.7     1.5     SSE   147   2.7     SSE   147   9.57    263      -66.2
   11/26/2018 19:40      56.8      55.9       29     23.9      0.00      0.84      63.7     0.29      1019.8     1.2     SSE   153   2.5      SE   140   9.57    263      -66.9
   11/26/2018 19:30      57.2      56.2       27     23.3      0.00      0.84      63.7     0.29      1019.7     1.0     SSE   159   3.3     SSE   159   9.57    263      -67.8
   11/26/2018 19:20      57.8      57.0       25     21.9      0.00      0.84      63.7     0.29      1019.7     2.1     SSE   159   3.8      SE   135   9.57    263      -68.7
   11/26/2018 19:10      57.4      57.0       26     22.7      0.00      0.84      63.6     0.29      1019.6     1.3       S   170   3.2       S   182   9.58    262      -70.0
   11/26/2018 19:00      57.7      56.9       26     22.4      0.00      0.84      63.6     0.29      1019.6     0.9     SSE   160   2.4      SE   142   9.58    262      -71.0
   11/26/2018 18:50      58.3      57.0       27     23.5      0.00      0.84      63.6     0.29      1019.6     1.4     SSE   155   2.5     SSE   149   9.58    262      -73.2
   11/26/2018 18:40      59.3      58.1       24     22.2      0.00      0.84      63.6     0.29      1019.5     1.6     SSE   157   2.6      SE   137   9.58    262      -75.2
   11/26/2018 18:30      59.7      59.0       22     20.7      0.00      0.84      63.6     0.29      1019.4     1.4     SSE   155   3.0      SE   143   9.58    262      -76.1
   11/26/2018 18:20      61.0      59.4       22     21.0      0.00      0.84      63.6     0.29      1019.3     1.7     SSE   148   3.6      SE   145   9.58    262      -76.9
   11/26/2018 18:10      62.8      60.8       19     19.2      0.00      0.84      63.6     0.29      1019.2     1.2     SSE   156   2.1     SSW   199   9.58    262      -78.5
   11/26/2018 18:00      65.5      62.7       16     17.0      0.00      0.84      63.5     0.29      1019.1     1.2     SSE   163   2.6      SE   139   9.59    261      -80.4
   11/26/2018 17:50      67.0      65.3       13     14.2      0.00      0.84      63.5     0.29      1019.0     1.8      SW   223   2.8     SSW   212   9.59    261      -81.7
   11/26/2018 17:40      68.5      66.9       12     12.4      0.00      0.84      63.5     0.29      1018.9     2.1      SW   233   3.2      SW   217   9.59    261      -85.7
   11/26/2018 17:30      69.2      68.3       11     11.1      0.00      0.84      63.5     0.29      1018.9     1.7     WNW   283   3.3     WSW   251   9.59    261      -89.3
   11/26/2018 17:20      69.5      68.8       10     10.7      0.00      0.84      63.4     0.29      1018.6     1.7     NNW   339   3.6     WNW   287   9.60    261      -90.2
   11/26/2018 17:10      70.1      69.2       10     10.7      0.00      0.84      63.4     0.29      1018.6     1.7       N   352   4.0       N   351   9.60    261      -91.9
   11/26/2018 17:00      70.6      69.9       10     10.1      0.00      0.84      63.4     0.29      1018.7     3.5     NNE    20   8.8       N   355   9.60    261      -93.1
   11/26/2018 16:50      71.1      70.3        9     10.0      0.00      0.84      63.3     0.29      1018.8     4.0       N     9   7.4       N     7   9.60    261      -92.1
   11/26/2018 16:40      71.2      70.6        9     10.2      0.00      0.84      63.3     0.29      1018.8     5.1       N     3   9.9     NNE    19   9.61    261      -89.1
   11/26/2018 16:30      71.7      70.9        9     10.6      0.00      0.84      63.3     0.29      1018.9     4.5       N   354  10.0     NNW   341   9.61    261      -85.9
   11/26/2018 16:20      72.3      71.3       10     11.3      0.00      0.84      63.2     0.29      1019.0     4.2       N   351  10.0       N   353   9.61    261      -83.7
   11/26/2018 16:10      72.8      72.1        9     11.4      0.00      0.84      63.2     0.29      1018.9     3.5       N   354   8.1       N   354   9.62    260      -59.4
   11/26/2018 16:00      73.6      72.6        9     11.7      0.00      0.84      63.2     0.29      1018.9     4.0     NNW   344  10.3       N     0   9.62    260      -56.8
   11/26/2018 15:50      74.3      73.3        9     11.8      0.00      0.84      63.1     0.29      1018.8     4.6       N   352  11.0      NW   310   9.62    260      -23.9
   11/26/2018 15:40      74.7      74.0        9     11.9      0.00      0.84      63.1     0.29      1018.8     4.1       N   355   7.8     NNW   338   9.62    260        0.8
   11/26/2018 15:30      74.8      74.2        9     11.4      0.00      0.84      63.1     0.29      1018.7     5.1       N    10   9.3     NNE    13   9.63    260       24.7
   11/26/2018 15:20      75.3      74.5        9     11.8      0.00      0.84      63.0     0.29      1018.6     5.1       N   355  11.0     NNW   327   9.63    260       46.1
   11/26/2018 15:10      75.4      74.8        9     11.8      0.00      0.84      62.9     0.29      1018.5     4.8       N   355  10.1      NW   319   9.63    260       68.9
   11/26/2018 15:00      75.6      75.0        9     11.5      0.00      0.84      62.9     0.29      1018.5     4.7     NNW   343   9.6       W   278   9.63    261       90.4
   11/26/2018 14:50      76.0      75.2        9     12.2      0.00      0.84      62.9     0.29      1018.6     5.3     NNE    12  12.2       N     6   9.64    260      112.2
   11/26/2018 14:40      76.2      75.3        9     12.5      0.00      0.84      62.8     0.29      1018.7     4.3       N     3   9.9     NNW   345   9.64    260      133.2
   11/26/2018 14:30      76.2      75.4        9     12.1      0.00      0.84      62.8     0.29      1018.7     5.4       N   358  11.2       N     8   9.64    260      154.0
   11/26/2018 14:20      76.6      75.8        9     12.5      0.00      0.84      62.8     0.29      1018.6     5.2     NNW   349   9.5      NW   310   9.64    260      172.0
   11/26/2018 14:10      77.4      76.3        9     14.3      0.00      0.84      62.8     0.29      1018.6     4.4       N   349   9.2     NNW   344   9.65    260      188.4
   11/26/2018 14:00      76.9      76.2       10     15.5      0.00      0.84      62.7     0.29      1018.6     4.3       N     2   7.8     NNE    18   9.65    260      207.0
   11/26/2018 13:50      76.6      76.0       10     16.4      0.00      0.84      62.7     0.29      1018.6     4.0       N     6   8.4     NNE    25   9.65    260      222.3
   11/26/2018 13:40      76.7      75.9       11     17.9      0.00      0.84      62.7     0.29      1018.6     3.7       N   349   7.3     WNW   293   9.65    260      234.8
   11/26/2018 13:30      76.5      75.8       11     18.2      0.00      0.84      62.6     0.29      1018.7     3.4       N     4   7.6     NNW   343   9.65    260      250.1
   11/26/2018 13:20      76.3      75.4       11     18.1      0.00      0.84      62.6     0.29      1018.7     4.6       N    10  10.0     NNE    33   9.65    260      264.4
   11/26/2018 13:10      76.0      74.9       11     17.2      0.00      0.84      62.6     0.29      1018.9     4.9     NNW   348   9.2     NNE    20   9.66    260      275.9
   11/26/2018 13:00      76.1      75.2       11     16.9      0.00      0.84      62.5     0.29      1018.9     4.9       N     1   9.8       N    11   9.66    260      285.8
   11/26/2018 12:50      76.2      75.0       10     16.1      0.00      0.84      62.5     0.29      1019.0     4.0       N   354   9.8     NNW   342   9.66    260      295.8
   11/26/2018 12:40      75.8      75.0       10     14.7      0.00      0.84      62.5     0.29      1019.1     5.4       N   353  10.0       N   354   9.66    260      305.4
   11/26/2018 12:30      76.2      75.5       10     14.9      0.00      0.84      62.5     0.29      1019.2     4.6       N   353   9.0     NNW   333   9.66    260      311.5
   11/26/2018 12:20      76.1      75.2       10     14.8      0.00      0.84      62.5     0.29      1019.3     4.2       N   353   9.2       N     0   9.66    260      318.7
   11/26/2018 12:10      75.4      74.3       10     14.4      0.00      0.84      62.5     0.29      1019.4     3.9       N     2   7.3      NE    39   9.66    261      325.3
   11/26/2018 12:00      75.0      74.1       10     14.9      0.00      0.84      62.4     0.29      1019.6     5.1       N   359  10.8     NNW   346   9.66    260      332.2
   11/26/2018 11:50      74.4      73.6       10     14.8      0.00      0.84      62.4     0.29      1019.8     4.6     NNW   348  11.0       N   353   9.66    261      337.1
   11/26/2018 11:40      73.9      73.3       10     14.5      0.00      0.84      62.5     0.29      1019.9     5.2       N   357   9.8       N     0   9.67    261      338.4
   11/26/2018 11:30      74.0      73.3       10     14.8      0.00      0.84      62.5     0.29      1020.1     5.1       N   357  10.4       N   354   9.67    261      333.8
   11/26/2018 11:20      74.0      73.3       10     14.7      0.00      0.84      62.5     0.29      1020.3     4.1     NNW   347  11.5     NNW   348   9.67    261      329.6
   11/26/2018 11:10      74.0      73.5       11     15.2      0.00      0.84      62.5     0.29      1020.5     4.2       N   358   8.8     NNW   344   9.67    261      322.0
   11/26/2018 11:00      73.8      72.8       11     15.6      0.00      0.84      62.5     0.29      1020.7     3.5       N    10   7.0      NE    38   9.67    261      319.7
   11/26/2018 10:50      73.3      72.0       11     15.4      0.00      0.84      62.5     0.29      1020.7     3.7       N   358   8.2       N   349   9.68    261      315.4
   11/26/2018 10:40      72.4      71.8       11     14.9      0.00      0.84      62.5     0.29      1021.0     4.9       N   360  11.6     NNW   327   9.68    261      310.1
   11/26/2018 10:30      72.0      71.3       11     14.6      0.00      0.84      62.5     0.29      1021.1     5.0       N   357   8.3       N     5   9.68    261      302.6
   11/26/2018 10:20      71.7      71.3       11     14.7      0.00      0.84      62.5     0.29      1021.3     5.4       N    11   8.7       N   352   9.68    261      293.4
   11/26/2018 10:10      72.4      71.2       12     16.6      0.00      0.84      62.5     0.29      1021.4     3.0       N     6   7.2      NE    36   9.68    261      281.6
   11/26/2018 10:00      71.5      70.3       14     18.7      0.00      0.84      62.6     0.29      1021.5     1.6      SW   228   3.5       W   279   9.68    261      271.2
   11/26/2018 09:50      70.6      70.1       14     18.3      0.00      0.84      62.6     0.29      1021.5     2.1     WSW   244   4.8     WSW   246   9.68    261      259.4
   11/26/2018 09:40      70.2      69.3       15     19.4      0.00      0.84      62.6     0.29      1021.6     2.2     WNW   288   4.2      NW   313   9.68    261      245.7
   11/26/2018 09:30      70.4      69.2       15     19.2      0.00      0.84      62.7     0.29      1021.5     2.2     WSW   244   4.6     WSW   253   9.68    261      232.2
   11/26/2018 09:20      70.3      69.2       15     20.5      0.00      0.84      62.7     0.29      1021.5     0.9      NW   315   2.8      NW   306   9.68    261      215.0
   11/26/2018 09:10      69.9      68.4       15     19.9      0.00      0.84      62.7     0.29      1021.4     0.8       W   260   3.1     NNE    18   9.68    261      199.0
   11/26/2018 09:00      69.2      68.7       15     19.1      0.00      0.84      62.7     0.29      1021.4     1.0      SW   233   2.5      SW   227   9.68    262      183.4
   11/26/2018 08:50      68.8      67.7       17     22.1      0.00      0.84      62.8     0.29      1021.3     0.8      SE   140   2.5     SSW   208   9.68    262      165.2
   11/26/2018 08:40      68.5      67.5       17     21.8      0.00      0.84      62.8     0.29      1021.3     0.6      SE   125   1.8       W   259   9.52    262      147.2
   11/26/2018 08:30      67.6      65.5       20     23.7      0.00      0.84      62.8     0.29      1021.3     0.3     ESE   116   1.2      SE   130   9.52    262      129.1
   11/26/2018 08:20      65.7      62.7       21     22.8      0.00      0.84      62.8     0.29      1021.2     0.6     SSE   147   1.4      SE   145   9.52    263      112.0
   11/26/2018 08:10      62.5      60.5       27     26.9      0.00      0.84      62.9     0.29      1021.2     1.2     SSE   156   2.7      SE   133   9.52    263       94.6
   11/26/2018 08:00      60.8      58.6       30     28.1      0.00      0.84      62.8     0.29      1021.1     0.8     SSE   165   2.6       S   177   9.52    264       75.7
   11/26/2018 07:50      58.7      57.8       29     26.1      0.00      0.84      62.9     0.29      1021.1     0.8     SSE   160   1.8      SE   142   9.52    264       53.1
   11/26/2018 07:40      58.6      56.3       27     23.5      0.00      0.84      62.9     0.29      1021.0     1.4      SE   128   5.0     ESE   113   9.52    264      -39.5
   11/26/2018 07:30      58.6      55.8       25     22.1      0.00      0.84      63.0     0.29      1020.9     1.4     SSE   160   3.4      SE   142   9.52    264      -42.1
   11/26/2018 07:20      55.9      52.7       32     24.8      0.00      0.84      63.0     0.29      1020.8     0.8       S   184   2.3      SW   230   9.52    264      -46.6
   11/26/2018 07:10      53.6      52.7       33     25.1      0.00      0.84      63.0     0.29      1020.7     1.4       S   173   2.9      SE   141   9.52    264      -51.9
   11/26/2018 07:00      55.1      52.9       32     24.5      0.00      0.84      63.0     0.29      1020.6     1.9     SSE   157   3.9     SSE   149   9.52    264      -56.6
   11/26/2018 06:50      54.9      54.0       29     22.8      0.00      0.84      63.0     0.29      1020.5     2.0     SSE   159   3.8      SE   140   9.52    264      -60.1
   11/26/2018 06:40      54.9      53.6       30     23.4      0.00      0.84      63.0     0.29      1020.4     1.9     SSE   161   3.4      SE   140   9.52    264      -64.1
   11/26/2018 06:30      56.7      54.7       27     22.4      0.00      0.84      63.1     0.29      1020.3     1.6     SSE   160   3.7     SSE   153   9.52    264      -66.2
   11/26/2018 06:20      59.0      56.5       24     20.9      0.00      0.84      63.1     0.29      1020.3     1.2     SSE   157   2.5      SE   142   9.52    264      -67.6
   11/26/2018 06:10      60.5      58.9       20     18.3      0.00      0.84      63.1     0.29      1020.2     1.2       S   178   3.0     SSW   205   9.53    264      -68.3
   11/26/2018 06:00      60.5      58.9       19     17.8      0.00      0.84      63.1     0.29      1020.1     1.6     WNW   294   3.5       N     1   9.53    264      -67.2
   11/26/2018 05:50      59.0      58.0       22     19.7      0.00      0.84      63.1     0.29      1020.0     1.8      SW   232   3.4     WSW   248   9.53    264      -65.7
   11/26/2018 05:40      59.2      57.6       23     21.0      0.00      0.84      63.2     0.29      1019.9     1.2     SSW   206   5.0      SW   225   9.53    264      -67.6
   11/26/2018 05:30      60.3      57.6       24     21.6      0.00      0.84      63.2     0.29      1019.8     2.4       S   190   3.9       S   187   9.53    264      -66.9
   11/26/2018 05:20      60.6      59.4       22     20.5      0.00      0.84      63.2     0.29      1019.8     1.5     SSW   192   4.9       S   187   9.53    264      -69.0
   11/26/2018 05:10      60.5      58.5       24     22.2      0.00      0.84      63.2     0.29      1019.8     2.0     WSW   254   5.5      NW   317   9.53    264      -68.4
   11/26/2018 05:00      61.2      59.6       22     21.8      0.00      0.84      63.2     0.29      1019.7     2.9     SSW   213   5.3     WSW   238   9.53    264      -68.3
   11/26/2018 04:50      59.7      58.0       25     23.3      0.00      0.84      63.3     0.29      1019.8     2.6      SW   224   5.1       W   265   9.53    264      -65.7
   11/26/2018 04:40      57.9      56.5       30     25.5      0.00      0.84      63.3     0.29      1019.8     1.7     SSW   199   4.3      SE   145   9.53    265      -65.3
   11/26/2018 04:30      57.6      56.2       31     26.1      0.00      0.84      63.3     0.29      1019.7     2.0     SSW   195   5.2      SW   216   9.53    265      -63.5
   11/26/2018 04:20      59.0      57.4       28     25.3      0.00      0.84      63.3     0.29      1019.7     1.8     SSW   209   3.3     SSW   214   9.53    264      -65.5
   11/26/2018 04:10      61.4      58.9       25     24.2      0.00      0.84      63.4     0.29      1019.7     1.3     SSE   159   3.6      NW   316   9.53    264      -68.2
   11/26/2018 04:00      61.3      60.5       23     23.0      0.00      0.84      63.4     0.29      1019.6     1.9     NNW   335   5.8     NNE    24   9.53    264      -68.4
   11/26/2018 03:50      60.8      60.3       24     23.8      0.00      0.84      63.4     0.29      1019.5     2.1      NW   306   4.9     NNE    26   9.53    264      -67.9
   11/26/2018 03:40      60.8      60.3       24     23.9      0.00      0.84      63.5     0.29      1019.5     1.5      NW   319   3.9     NNW   331   9.53    264      -67.3
   11/26/2018 03:30      61.1      60.3       25     24.6      0.00      0.84      63.4     0.29      1019.5     1.7      NW   308   7.1     WNW   291   9.53    264      -67.6
   11/26/2018 03:20      60.6      59.7       25     24.6      0.00      0.84      63.5     0.29      1019.6     1.7       W   275   3.7     WNW   301   9.54    265      -66.0
   11/26/2018 03:10      59.9      58.0       27     25.3      0.00      0.84      63.5     0.29      1019.6     1.4     WNW   288   5.2     WNW   300   9.54    265      -64.7
   11/26/2018 03:00      58.1      57.0       31     27.4      0.00      0.84      63.5     0.29      1019.6     1.1       W   265   4.6      NW   308   9.54    265      -64.5
   11/26/2018 02:50      57.0      55.6       35     28.9      0.00      0.84      63.5     0.29      1019.6     1.2      SE   144   4.2      NW   309   9.54    266      -63.2
   11/26/2018 02:40      57.1      56.4       35     29.5      0.00      0.84      63.6     0.29      1019.7     0.8     SSE   153   2.8       S   173   9.54    266      -63.3
   11/26/2018 02:30      57.1      55.6       35     29.4      0.00      0.84      63.5     0.29      1019.7     1.4       S   179   3.0       S   179   9.54    265      -62.8
   11/26/2018 02:20      56.9      56.3       36     29.7      0.00      0.84      63.6     0.29      1019.6     1.0     SSW   193   2.7      SW   214   9.54    265      -62.3
   11/26/2018 02:10      56.8      55.9       36     30.1      0.00      0.84      63.6     0.29      1019.4     0.8       S   174   2.7     SSW   196   9.54    266      -63.4
   11/26/2018 02:00      56.6      55.5       37     30.1      0.00      0.84      63.6     0.29      1019.5     1.0      SW   222   4.5     WSW   246   9.54    266      -62.4
   11/26/2018 01:50      56.0      55.5       38     30.6      0.00      0.84      63.6     0.29      1019.5     0.7     SSE   158   2.1       S   176   9.54    266      -62.2
   11/26/2018 01:40      57.4      55.5       39     31.4      0.00      0.84      63.6     0.29      1019.4     1.3     SSE   169   3.3     SSW   204   9.54    266      -62.6
   11/26/2018 01:30      58.7      57.3       35     30.6      0.00      0.84      63.7     0.29      1019.4     0.7     SSE   156   2.7      SE   134   9.54    265      -64.0
   11/26/2018 01:20      58.9      55.4       37     30.7      0.00      0.84      63.7     0.29      1019.4     1.7       S   190   6.3      NW   320   9.54    265      -63.2
   11/26/2018 01:10      56.5      54.9       40     32.1      0.00      0.84      63.7     0.29      1019.4     1.6       S   176   5.0      SW   214   9.54    266      -62.3
   11/26/2018 01:00      55.8      54.3       41     31.9      0.00      0.84      63.7     0.29      1019.3     1.8     SSE   167   3.3      SW   217   9.54    266      -61.5
   11/26/2018 00:50      54.7      54.1       44     32.9      0.00      0.84      63.8     0.29      1019.3     1.3       S   172   3.6       S   182   9.54    266      -61.5
   11/26/2018 00:40      55.5      54.1       44     33.3      0.00      0.84      63.7     0.29      1019.3     1.4     SSE   148   2.6      SE   140   9.54    266      -61.9
   11/26/2018 00:30      56.4      55.5       42     33.0      0.00      0.84      63.8     0.29      1019.4     0.8     SSE   147   2.8     SSE   157   9.55    266      -62.0
   11/26/2018 00:20      56.2      54.0       44     33.3      0.00      0.84      63.8     0.29      1019.5     1.8       S   188   3.3      SW   222   9.55    266      -61.5
   11/26/2018 00:10      54.2      53.0       48     34.3      0.00      0.84      63.8     0.29      1019.4     1.2     SSE   165   3.0      SE   143   9.55    266      -61.5
   11/26/2018 00:00      54.0      53.0       50     35.1      0.00      0.84      63.8     0.29      1019.4     1.1      SE   144   2.6     SSE   163   9.55    266      -62.3
   11/25/2018 23:50      54.6      53.6       47     34.6      0.00      0.84      63.8     0.29      1019.4     1.3     SSE   162   2.1     SSE   147   9.55    266      -62.1
   11/25/2018 23:40      55.3      54.2       46     34.2      0.00      0.84      63.8     0.29      1019.4     0.9     SSE   156   2.0     SSE   148   9.55    266      -62.3
   11/25/2018 23:30      55.8      54.6       45     34.2      0.00      0.84      63.8     0.29      1019.3     1.0     SSE   158   2.6     SSE   152   9.55    266      -62.8
   11/25/2018 23:20      58.4      55.5       43     34.4      0.00      0.84      63.8     0.29      1019.3     1.0     SSE   146   2.7      SE   144   9.55    266      -63.5
   11/25/2018 23:10      58.3      56.0       39     32.7      0.00      0.84      63.9     0.29      1019.4     0.7       N     7   5.8       N     2   9.55    265      -62.9
   11/25/2018 23:00      56.4      55.5       43     34.0      0.00      0.84      63.8     0.29      1019.3     0.9     SSE   169   2.3       S   185   9.55    266      -62.6
   11/25/2018 22:50      56.6      55.7       43     34.1      0.00      0.84      63.8     0.29      1019.3     1.0       S   179   2.4     SSE   153   9.55    266      -63.7
   11/25/2018 22:40      56.3      55.0       45     34.3      0.00      0.84      63.9     0.29      1019.3     1.5       S   172   3.0     SSE   147   9.55    266      -63.9
   11/25/2018 22:30      56.1      55.4       44     34.0      0.00      0.84      63.9     0.29      1019.3     0.8       S   171   2.8      SE   142   9.56    266      -64.1
   11/25/2018 22:20      56.6      55.7       44     34.5      0.00      0.84      63.9     0.29      1019.2     1.1     SSE   161   2.4     SSE   165   9.56    266      -64.6
   11/25/2018 22:10      58.4      56.2       42     34.5      0.00      0.84      63.9     0.29      1019.1     1.6     SSE   150   3.3      SE   139   9.56    266      -64.3
   11/25/2018 22:00      58.9      58.2       38     33.1      0.00      0.84      63.9     0.29      1019.1     0.9     SSE   165   2.6      SE   140   9.56    265      -64.1
   11/25/2018 21:50      59.2      58.4       38     33.2      0.00      0.84      63.9     0.29      1019.1     0.5      SE   143   2.2     SSE   146   9.56    265      -65.2
   11/25/2018 21:40      60.6      58.6       37     33.3      0.00      0.84      63.9     0.29      1019.0     1.2       S   175   3.0     SSE   159   9.56    265      -65.7
   11/25/2018 21:30      60.4      59.5       36     32.9      0.00      0.84      63.9     0.29      1019.0     0.6     ESE   112   2.4      NW   321   9.56    265      -65.9
   11/25/2018 21:20      60.3      59.1       36     32.9      0.00      0.84      63.9     0.29      1019.0     1.0       S   180   3.4     NNW   339   9.56    265      -65.6
   11/25/2018 21:10      59.3      58.2       38     33.4      0.00      0.84      63.9     0.29      1019.0     0.7     SSE   159   2.1       S   170   9.56    265      -65.4
   11/25/2018 21:00      60.1      58.6       39     34.1      0.00      0.84      63.9     0.29      1018.8     1.7     SSE   161   3.5      SE   136   9.56    265      -65.8
   11/25/2018 20:50      60.8      59.6       37     33.6      0.00      0.84      63.9     0.29      1018.7     1.1     SSE   155   2.0     SSE   152   9.57    265      -66.4
   11/25/2018 20:40      60.7      58.3       36     32.8      0.00      0.84      63.9     0.29      1018.5     0.5      SE   134   1.7       S   173   9.57    264      -67.4
   11/25/2018 20:30      58.9      58.2       41     34.9      0.00      0.84      63.9     0.29      1018.5     1.0     SSE   160   2.3     SSE   158   9.57    265      -67.0
   11/25/2018 20:20      60.2      58.6       40     34.9      0.00      0.84      63.9     0.29      1018.5     1.2     SSE   156   2.9      SE   136   9.57    264      -68.1
   11/25/2018 20:10      61.6      59.5       37     33.8      0.00      0.84      63.9     0.29      1018.4     2.2       S   186   3.6       S   190   9.57    264      -68.3
   11/25/2018 20:00      60.1      59.4       39     34.9      0.00      0.84      63.9     0.29      1018.4     1.3     SSE   167   3.6     SSW   199   9.57    265      -68.6
   11/25/2018 19:50      61.2      59.9       38     34.7      0.00      0.84      63.8     0.29      1018.5     1.3     SSE   150   3.1     SSE   147   9.57    264      -68.9
   11/25/2018 19:40      61.0      60.2       36     33.9      0.00      0.84      63.8     0.29      1018.5     0.8     SSE   160   2.4     SSE   153   9.57    264      -69.1
   11/25/2018 19:30      60.5      59.6       39     35.1      0.00      0.84      63.8     0.29      1018.3     1.8     SSE   161   4.1     SSW   198   9.58    264      -69.4
   11/25/2018 19:20      62.4      60.3       37     35.0      0.00      0.84      63.8     0.29      1018.2     1.4     SSE   164   2.5     SSW   195   9.58    264      -69.9
   11/25/2018 19:10      62.7      61.8       35     34.2      0.00      0.84      63.8     0.29      1017.9     1.4       S   181   2.4     SSW   199   9.58    264      -70.7
   11/25/2018 19:00      64.9      62.4       34     34.4      0.00      0.84      63.8     0.29      1017.8     1.3     SSE   168   3.0      SW   216   9.58    264      -72.4
   11/25/2018 18:50      66.7      65.0       29     32.5      0.00      0.84      63.8     0.29      1017.7     0.9       W   271   3.0     SSE   155   9.58    264      -74.7
   11/25/2018 18:40      67.5      66.4       28     32.2      0.00      0.84      63.8     0.29      1017.4     0.6     WSW   258   2.1      NW   304   9.58    264      -76.3
   11/25/2018 18:30      67.8      67.1       27     32.0      0.00      0.84      63.8     0.29      1017.4     1.7     NNW   331   6.2     NNE    17   9.58    264      -77.6
   11/25/2018 18:20      67.6      67.0       27     32.4      0.00      0.84      63.7     0.29      1017.4     1.6     NNW   340   8.0     NNW   333   9.59    264      -77.9
   11/25/2018 18:10      68.1      67.3       27     32.6      0.00      0.84      63.7     0.29      1017.4     2.1     NNW   337   5.3     NNW   333   9.59    264      -78.5
   11/25/2018 18:00      68.5      67.6       27     32.9      0.00      0.84      63.7     0.29      1017.2     2.2     NNW   338   6.2      NW   307   9.59    264      -79.3
   11/25/2018 17:50      68.4      68.1       27     33.2      0.00      0.84      63.6     0.29      1017.1     3.5     NNW   329   6.9     NNW   342   9.59    264      -79.6
   11/25/2018 17:40      68.6      68.1       28     33.5      0.00      0.84      63.6     0.29      1016.9     2.5     NNW   331   7.5     NNW   339   9.59    264      -79.7
   11/25/2018 17:30      69.0      68.2       28     33.8      0.00      0.84      63.6     0.29      1016.7     2.4     NNW   341   5.3     NNE    19   9.60    264      -80.5
   11/25/2018 17:20      69.3      68.5       27     33.9      0.00      0.84      63.6     0.29      1016.6     2.6     NNW   327   7.1     WNW   298   9.60    264      -81.2
   11/25/2018 17:10      69.9      68.9       27     34.0      0.00      0.84      63.5     0.29      1016.5     2.2      NW   324   4.1       N     0   9.60    264      -81.6
   11/25/2018 17:00      70.0      69.5       27     34.2      0.00      0.84      63.5     0.29      1016.3     2.1       N   354   4.2       N   349   9.60    264      -81.7
   11/25/2018 16:50      70.6      69.7       27     34.8      0.00      0.84      63.5     0.29      1016.4     1.9       N   353   5.3     NNW   343   9.60    263      -80.2
   11/25/2018 16:40      71.0      70.2       28     35.5      0.00      0.84      63.5     0.29      1016.4     1.9     NNW   328   4.2       N     0   9.61    263      -78.0
   11/25/2018 16:30      71.8      70.8       27     36.0      0.00      0.84      63.4     0.29      1016.2     2.0       N   350   5.3      NE    36   9.61    263      -76.0
   11/25/2018 16:20      72.6      71.5       27     36.0      0.00      0.84      63.4     0.29      1016.1     2.6       N   357   5.0       N   354   9.61    263      -73.9
   11/25/2018 16:10      73.4      72.3       27     36.6      0.00      0.84      63.4     0.29      1016.1     2.9       N     7   6.4      NW   319   9.61    262      -48.1
   11/25/2018 16:00      73.7      73.1       27     37.0      0.00      0.84      63.3     0.29      1016.1     2.8       N     9   5.1       N   353   9.61    262      -33.4
   11/25/2018 15:50      74.7      73.5       26     37.0      0.00      0.84      63.3     0.29      1016.0     2.6     NNW   340   6.2       N    11   9.61    262      -13.1
   11/25/2018 15:40      74.6      74.2       26     36.7      0.00      0.84      63.2     0.29      1015.9     1.9     NNW   333   4.8     NNW   330   9.62    262        5.9
   11/25/2018 15:30      74.5      74.0       26     37.0      0.00      0.84      63.2     0.29      1015.8     2.0       N   350   4.4     WNW   298   9.62    262       28.3
   11/25/2018 15:20      74.6      73.8       26     37.0      0.00      0.84      63.2     0.29      1015.7     3.5       N   351   7.4       N   354   9.62    263       50.9
   11/25/2018 15:10      74.6      74.0       26     37.0      0.00      0.84      63.1     0.29      1015.6     3.5       N     6   6.5      NE    34   9.62    262       73.4
   11/25/2018 15:00      74.8      74.2       26     36.9      0.00      0.84      63.1     0.29      1015.5     3.6     NNE    13   6.6       N     8   9.62    263       95.6
   11/25/2018 14:50      76.2      74.4       25     37.0      0.00      0.84      63.0     0.29      1015.5     3.7     NNE    12   6.9      NE    50   9.62    262      116.7
   11/25/2018 14:40      76.0      75.3       25     37.1      0.00      0.84      63.0     0.29      1015.4     2.2       N   358   4.5      NW   319   9.62    261      136.9
   11/25/2018 14:30      76.0      75.2       25     37.1      0.00      0.84      63.0     0.29      1015.5     2.5       N   352   7.3     NNW   334   9.62    262      156.2
   11/25/2018 14:20      77.0      75.3       24     37.2      0.00      0.84      62.9     0.29      1015.4     3.0       N   360   5.6      NE    43   9.62    262      175.6
   11/25/2018 14:10      76.9      75.9       24     37.3      0.00      0.84      62.9     0.29      1015.4     2.3     WNW   303   5.3      NW   313   9.63    262      194.6
   11/25/2018 14:00      76.5      75.9       24     37.3      0.00      0.84      62.9     0.29      1015.3     2.9     WNW   282   6.7       W   269   9.63    262      211.8
   11/25/2018 13:50      77.0      75.9       25     37.7      0.00      0.84      62.8     0.29      1015.3     1.6     ESE   107   3.8       S   176   9.63    262      226.1
   11/25/2018 13:40      76.9      76.0       26     38.5      0.00      0.84      62.8     0.29      1015.2     1.7       W   277   4.8      SW   236   9.63    262      239.6
   11/25/2018 13:30      76.4      75.3       26     38.2      0.00      0.84      62.8     0.29      1015.3     1.8     NNW   334   5.9      NE    41   9.63    262      253.3
   11/25/2018 13:20      76.6      75.8       26     38.7      0.00      0.84      62.7     0.29      1015.2     2.1     NNW   333   6.7      NW   323   9.63    262      265.1
   11/25/2018 13:10      76.0      74.9       28     40.0      0.00      0.84      62.7     0.29      1015.4     1.5     WNW   302   4.8     WSW   245   9.63    262      280.8
   11/25/2018 13:00      76.0      75.2       28     40.3      0.00      0.84      62.7     0.29      1015.4     2.2      SE   144   5.5       S   188   9.63    263      292.1
   11/25/2018 12:50      76.0      75.3       30     42.4      0.00      0.84      62.7     0.29      1015.5     1.4      NW   316   3.5       W   269   9.63    263      301.2
   11/25/2018 12:40      76.1      74.6       32     43.0      0.00      0.84      62.7     0.29      1015.6     0.6       E   101   1.8       E    91   9.63    263      306.3
   11/25/2018 12:30      75.2      74.0       33     43.4      0.00      0.84      62.6     0.29      1015.8     1.2       W   269   3.2      NE    51   9.63    263      319.7
   11/25/2018 12:20      74.4      72.8       35     44.2      0.00      0.84      62.7     0.29      1015.9     0.9     ENE    71   3.3       E    84   9.63    263      311.0
   11/25/2018 12:10      73.7      72.2       36     44.5      0.00      0.84      62.7     0.29      1016.0     0.9       E    87   3.1       E    91   9.63    263      325.4
   11/25/2018 12:00      73.3      71.7       38     45.2      0.00      0.84      62.6     0.29      1016.3     1.7      NE    42   2.8       N     8   9.63    264      313.9
   11/25/2018 11:50      73.6      72.3       38     45.5      0.00      0.84      62.6     0.29      1016.6     1.2      NE    40   3.2     NNE    19   9.63    264      329.8
   11/25/2018 11:40      73.6      72.2       38     45.8      0.00      0.84      62.7     0.29      1016.7     1.2      SW   232   3.2      SW   220   9.63    264      347.3
   11/25/2018 11:30      73.4      70.2       40     45.8      0.00      0.84      62.6     0.29      1016.8     0.4       W   259   2.6      SW   234   9.63    265      339.1
   11/25/2018 11:20      70.4      69.3       42     45.7      0.00      0.84      62.7     0.29      1017.0     1.1      NE    40   3.2      SW   226   9.63    266      309.9
   11/25/2018 11:10      70.5      69.6       43     46.2      0.00      0.84      62.6     0.29      1017.0     0.9       N   353   3.3     NNW   341   9.63    266      326.2
   11/25/2018 11:00      70.1      69.2       44     46.5      0.00      0.84      62.7     0.29      1017.1     1.0     ENE    76   3.5     NNE    21   9.63    266      327.5
   11/25/2018 10:50      69.3      67.8       46     46.7      0.00      0.84      62.7     0.29      1017.1     1.1     SSE   169   2.8      SE   132   9.63    266      328.1
   11/25/2018 10:40      68.0      66.8       47     46.7      0.00      0.84      62.7     0.29      1017.2     0.6      SW   215   2.0       S   183   9.63    266      223.5
   11/25/2018 10:30      67.2      65.8       49     47.0      0.00      0.84      62.7     0.29      1017.2     0.8       S   174   2.3      SE   138   9.63    270      232.0
   11/25/2018 10:20      66.5      65.7       51     47.5      0.00      0.84      62.8     0.29      1017.3     1.1       S   186   3.5      SE   141   9.63    283      238.4
   11/25/2018 10:10      66.0      65.1       53     48.3      0.00      0.84      62.8     0.29      1017.3     0.9       W   276   2.2     NNE    29   9.63    291      289.4
   11/25/2018 10:00      65.2      64.1       56     48.6      0.00      0.84      62.8     0.29      1017.4     1.1     NNE    17   2.9     NNE    15   9.63    298      327.5
   11/25/2018 09:50      64.2      62.1       60     48.9      0.00      0.84      62.8     0.29      1017.4     0.9     NNE    28   2.0       N   354   9.63    302      303.3
   11/25/2018 09:40      62.5      60.9       64     49.4      0.00      0.84      62.8     0.29      1017.3     0.7     NNW   339   2.3      NW   312   9.63    307      200.6
   11/25/2018 09:30      61.0      60.0       69     50.1      0.00      0.84      62.8     0.29      1017.3     1.0       N    11   2.4      NE    36   9.63    314      215.4
   11/25/2018 09:20      60.1      58.0       72     50.2      0.00      0.84      62.9     0.29      1017.2     0.4     NNE    12   1.5     NNE    30   9.63    332      265.4
   11/25/2018 09:10      58.3      56.9       78     50.9      0.00      0.84      62.9     0.29      1017.1     0.3       N     7   1.5       N     0   9.63    362      200.2
   11/25/2018 09:00      57.0      55.1       83     50.8      0.00      0.84      63.0     0.29      1017.1     0.0     WNW   293   0.8       W   268   9.63    385      212.7
   11/25/2018 08:50      55.2      54.2       85     50.3      0.00      0.84      63.0     0.29      1017.0     0.2     NNE    21   0.9       N     4   9.63    403      151.0
   11/25/2018 08:40      54.3      53.1       88     50.1      0.00      0.84      63.0     0.29      1017.0     0.2     ESE   118   1.0      SE   124   9.63    418      127.8
   11/25/2018 08:30      53.3      52.2       89     49.5      0.00      0.84      63.0     0.29      1016.9     0.2     ENE    69   1.2      SE   132   9.63    429      112.3
   11/25/2018 08:20      52.3      51.3       91     49.0      0.00      0.84      63.0     0.29      1016.8     0.1       E    97   0.9     ESE   102   9.63    441      104.4
   11/25/2018 08:10      51.4      50.7       91     48.5      0.00      0.84      63.0     0.29      1016.6     0.3     ESE   123   1.2      SE   133   9.63    459       81.2
   11/25/2018 08:00      51.1      50.6       92     48.6      0.00      0.84      63.1     0.29      1016.5     0.0      SE   139   1.2      SE   133   9.63    478       65.1
   11/25/2018 07:50      50.8      50.2       92     48.2      0.00      0.84      63.1     0.29      1016.4     0.0      NE    36   0.9      NE    36   9.63    481       58.0
   11/25/2018 07:40      50.8      50.1       93     48.6      0.00      0.84      63.1     0.29      1016.4     0.2     NNE    32   0.9     NNE    32   9.63    484       48.3
   11/25/2018 07:30      50.5      49.1       94     47.8      0.00      0.84      63.2     0.29      1016.4     0.5     ESE   104   1.8     ESE   109   9.63    486       44.7
   11/25/2018 07:20      49.3      47.7       94     46.7      0.00      0.84      63.2     0.29      1016.4     0.2      SE   143   1.1      SE   144   9.63    488       38.0
   11/25/2018 07:10      48.0      47.6       94     46.1      0.00      0.84      63.2     0.29      1016.4     0.0      NE    44   0.6       N    10   9.63    490       29.2
   11/25/2018 07:00      47.8      46.8       94     45.9      0.00      0.84      63.3     0.29      1016.4     0.0     ESE   103   0.5     SSE   164   9.63    490       18.2
   11/25/2018 06:50      47.1      46.5       94     45.2      0.00      0.84      63.3     0.29      1016.2     0.5      SE   145   1.2      SE   138   9.63    490        8.8
   11/25/2018 06:40      46.7      46.1       94     44.9      0.00      0.84      63.3     0.29      1016.2     0.5     SSE   157   1.5      SE   144   9.63    489        0.0
   11/25/2018 06:30      46.4      45.9       94     44.5      0.00      0.84      63.3     0.29      1016.0     0.5       S   178   1.3     SSW   191   9.63    487      -10.3
   11/25/2018 06:20      46.4      45.9       94     44.3      0.00      0.84      63.4     0.29      1016.0     1.1      SE   132   2.5      SE   139   9.63    485      -14.2
   11/25/2018 06:10      46.7      46.1       94     44.6      0.00      0.84      63.4     0.29      1016.0     0.7       S   187   1.6     SSW   203   9.63    482      -14.8
   11/25/2018 06:00      46.5      45.8       94     44.4      0.00      0.84      63.4     0.29      1015.9     0.4       S   187   1.6     SSW   193   9.63    478      -15.6
   11/25/2018 05:50      46.5      46.0       94     44.6      0.00      0.84      63.4     0.29      1015.8     0.1     ENE    74   0.9       E    89   9.63    476      -16.3
   11/25/2018 05:40      46.6      45.9       93     44.3      0.00      0.84      63.5     0.29      1015.6     0.3       S   171   1.0     SSE   148   9.63    470      -16.4
   11/25/2018 05:30      47.2      46.4       93     45.0      0.00      0.84      63.5     0.29      1015.5     0.2      SE   129   1.2      SE   135   9.63    466      -16.5
   11/25/2018 05:20      47.0      46.5       93     45.0      0.00      0.84      63.5     0.29      1015.4     0.8       S   173   1.8     SSW   209   9.63    454      -16.8
   11/25/2018 05:10      47.0      46.5       93     44.9      0.00      0.84      63.5     0.29      1015.5     0.3     SSE   158   1.7       S   175   9.63    440      -16.9
   11/25/2018 05:00      47.3      46.6       93     45.0      0.00      0.84      63.5     0.29      1015.4     0.8       S   181   1.8      SW   227   9.63    435      -16.8
   11/25/2018 04:50      47.4      46.8       93     45.0      0.00      0.84      63.6     0.29      1015.2     0.4       S   182   1.1     SSW   204   9.63    428      -17.4
   11/25/2018 04:40      47.3      47.0       93     45.2      0.00      0.84      63.6     0.29      1015.1     0.0       S   181   0.2       S   181   9.63    425      -17.3
   11/25/2018 04:30      48.1      47.0       93     45.3      0.00      0.84      63.6     0.29      1015.0     0.2      NE    36   0.9      NE    36   9.63    421      -18.2
   11/25/2018 04:20      48.4      47.7       93     45.9      0.00      0.84      63.6     0.29      1014.9     0.3      SE   144   1.1     SSE   155   9.63    418      -17.8
   11/25/2018 04:10      48.1      47.3       93     45.9      0.00      0.84      63.7     0.29      1014.8     0.8     SSE   151   2.1      SE   139   9.63    413      -18.6
   11/25/2018 04:00      47.6      47.0       93     45.3      0.00      0.84      63.7     0.29      1014.8     0.9     SSE   165   2.0     SSE   158   9.63    410      -18.5
   11/25/2018 03:50      48.1      47.3       92     45.5      0.00      0.84      63.7     0.29      1014.8     1.2      SE   142   2.0      SE   135   9.64    407      -18.9
   11/25/2018 03:40      48.1      47.6       92     45.7      0.00      0.84      63.7     0.29      1014.8     0.6     SSE   154   1.7      SE   142   9.64    405      -19.1
   11/25/2018 03:30      48.6      47.8       92     45.9      0.00      0.84      63.7     0.29      1014.7     0.1      SE   146   1.0     SSE   153   9.64    401      -19.2
   11/25/2018 03:20      48.7      48.2       92     46.1      0.00      0.84      63.7     0.29      1014.8     0.4     SSE   169   1.3     SSE   159   9.64    398      -19.4
   11/25/2018 03:10      49.0      48.3       92     46.4      0.00      0.84      63.8     0.29      1014.7     0.4     SSE   155   1.5       S   175   9.64    394      -19.8
   11/25/2018 03:00      49.6      48.7       92     47.0      0.00      0.84      63.8     0.29      1014.8     0.4      SE   126   1.8       N     9   9.64    389      -20.1
   11/25/2018 02:50      50.1      49.3       92     47.3      0.00      0.84      63.8     0.29      1014.8     0.4       N     2   1.4     NNE    17   9.64    381      -20.2
   11/25/2018 02:40      50.0      49.5       92     47.7      0.00      0.84      63.9     0.29      1014.8     0.6      SE   135   1.8       N     2   9.64    382      -20.3
   11/25/2018 02:30      49.7      49.0       93     47.4      0.00      0.84      63.9     0.29      1014.8     1.8      SE   140   2.6      SE   134   9.64    373      -20.6
   11/25/2018 02:20      49.6      48.7       92     46.9      0.00      0.84      63.9     0.29      1015.0     0.4     SSE   157   1.1       S   181   9.64    373      -20.9
   11/25/2018 02:10      49.5      49.0       92     47.1      0.00      0.84      63.9     0.29      1014.9     1.4      SE   137   2.7      SE   138   9.64    371      -20.7
   11/25/2018 02:00      49.5      49.2       92     47.2      0.00      0.84      63.9     0.29      1014.8     0.5      SE   136   1.7     SSE   151   9.64    366      -21.1
   11/25/2018 01:50      49.7      49.2       92     47.3      0.00      0.84      63.9     0.29      1014.8     0.8      SE   146   1.6      SE   145   9.64    363      -21.6
   11/25/2018 01:40      50.1      49.2       92     47.1      0.00      0.84      64.0     0.29      1014.7     0.6     SSE   162   1.7      SE   146   9.64    359      -22.1
   11/25/2018 01:30      50.1      49.7       92     47.6      0.00      0.84      64.0     0.29      1014.5     0.4       S   175   1.7     SSW   206   9.64    356      -22.4
   11/25/2018 01:20      50.1      49.6       92     47.4      0.00      0.84      64.0     0.29      1014.4     0.2     SSE   161   1.1       S   181   9.64    350      -23.9
   11/25/2018 01:10      50.6      49.9       92     47.9      0.00      0.84      64.0     0.29      1014.4     0.2     ENE    64   1.3     ENE    62   9.64    350      -24.8
   11/25/2018 01:00      50.6      50.2       91     47.9      0.00      0.84      64.0     0.29      1014.3     0.3     SSE   156   1.1     SSE   150   9.64    343      -25.4
   11/25/2018 00:50      50.5      50.1       91     47.8      0.00      0.84      64.0     0.29      1014.3     0.6     SSW   203   1.6     SSW   197   9.64    340      -26.6
   11/25/2018 00:40      50.6      50.0       90     47.6      0.00      0.84      64.0     0.29      1014.3     0.4       S   172   1.3     SSW   192   9.64    335      -28.0
   11/25/2018 00:30      51.3      50.4       90     47.9      0.00      0.84      64.1     0.29      1014.3     0.2     ESE   107   1.1       N   352   9.64    331      -29.5
   11/25/2018 00:20      51.7      50.9       90     48.3      0.00      0.84      64.1     0.29      1014.3     0.3     SSE   167   1.4       S   174   9.64    325      -30.3
   11/25/2018 00:10      51.8      51.3       90     48.6      0.00      0.84      64.1     0.29      1014.4     0.0      SE   130   1.3     NNE    21   9.65    319      -31.8
   11/25/2018 00:00      52.0      51.6       90     48.8      0.00      0.84      64.2     0.29      1014.5     1.2     ESE   110   3.6     ENE    63   9.65    314      -32.7
   11/24/2018 23:50      52.1      51.6       89     48.7      0.00      0.84      64.1     0.29      1014.6     1.0     SSE   165   2.1      SE   140   9.65    310      -34.2
   11/24/2018 23:40      52.1      51.7       89     48.6      0.00      0.84      64.2     0.29      1014.7     0.5     SSE   163   1.4       S   174   9.65    306      -37.0
   11/24/2018 23:30      52.3      51.8       88     48.7      0.00      0.84      64.2     0.29      1014.6     0.2      SE   136   1.2      SE   131   9.65    300      -39.6
   11/24/2018 23:20      53.1      51.8       87     48.8      0.00      0.84      64.2     0.29      1014.7     0.8     SSE   161   2.2      SE   140   9.65    295      -41.2
   11/24/2018 23:10      53.1      52.5       88     49.4      0.00      0.84      64.2     0.29      1014.8     0.4       S   191   2.4     SSW   191   9.65    291      -42.9
   11/24/2018 23:00      52.9      52.2       88     49.0      0.00      0.84      64.2     0.29      1014.7     0.9     SSE   159   2.3     SSE   152   9.65    288      -47.1
   11/24/2018 22:50      52.9      52.5       87     49.0      0.00      0.84      64.2     0.29      1014.7     0.2       S   189   1.0      SE   145   9.65    283      -51.0
   11/24/2018 22:40      53.6      52.6       86     49.0      0.00      0.84      64.2     0.29      1014.6     1.2     SSE   150   2.2      SE   142   9.65    277      -54.1
   11/24/2018 22:30      53.6      53.2       86     49.2      0.00      0.84      64.2     0.29      1014.6     0.4     SSE   153   2.1      SE   142   9.65    274      -56.2
   11/24/2018 22:20      54.0      53.3       85     49.1      0.00      0.84      64.2     0.29      1014.5     0.9      SE   144   1.8     SSE   151   9.65    269      -58.9
   11/24/2018 22:10      54.3      53.6       84     49.2      0.00      0.84      64.2     0.29      1014.5     0.9      SE   139   2.0      SE   135   9.65    263      -60.3
   11/24/2018 22:00      54.6      54.1       83     49.2      0.00      0.84      64.2     0.29      1014.5     1.0       S   183   2.1      SW   235   9.65    261      -60.6
   11/24/2018 21:50      54.6      53.9       83     49.1      0.00      0.84      64.2     0.29      1014.5     1.0     SSE   163   2.2      SE   141   9.65    264      -61.3
   11/24/2018 21:40      54.7      54.0       81     48.6      0.00      0.84      64.2     0.29      1014.5     1.5      SE   142   2.7      SE   141   9.65    268      -62.0
   11/24/2018 21:30      55.4      54.5       80     48.6      0.00      0.84      64.2     0.29      1014.5     1.2     SSE   153   2.7     SSE   147   9.66    266      -62.6
   11/24/2018 21:20      56.8      55.1       78     49.0      0.00      0.84      64.2     0.29      1014.4     0.8     SSE   151   1.8      SE   142   9.66    267      -63.2
   11/24/2018 21:10      57.0      56.5       77     49.6      0.00      0.84      64.2     0.29      1014.4     0.9       S   180   1.8       S   174   9.66    268      -63.1
   11/24/2018 21:00      57.6      56.7       74     48.9      0.00      0.84      64.2     0.29      1014.4     1.0     SSE   153   2.3     SSE   151   9.66    268      -62.8
   11/24/2018 20:50      57.7      57.3       72     48.5      0.00      0.84      64.2     0.29      1014.3     1.1     SSE   159   2.3     SSE   156   9.66    268      -62.9
   11/24/2018 20:40      58.1      57.3       68     47.4      0.00      0.84      64.3     0.29      1014.2     0.7      SE   134   2.6      SE   146   9.66    268      -62.4
   11/24/2018 20:30      57.4      56.5       70     47.3      0.00      0.84      64.2     0.29      1014.1     0.1       N     6   1.5       N     0   9.66    268      -62.8
   11/24/2018 20:20      56.6      55.7       74     47.7      0.00      0.84      64.2     0.29      1014.0     0.2     SSW   198   1.5      SE   127   9.66    268      -63.5
   11/24/2018 20:10      56.3      55.6       75     48.0      0.00      0.84      64.2     0.29      1013.9     1.6     SSE   152   3.0     SSE   148   9.66    268      -64.0
   11/24/2018 20:00      56.8      56.0       74     48.2      0.00      0.84      64.2     0.29      1013.9     1.9     SSE   148   2.9      SE   141   9.66    268      -64.3
   11/24/2018 19:50      56.8      56.2       75     48.4      0.00      0.84      64.2     0.29      1013.8     1.3     SSE   158   2.4      SE   141   9.66    268      -64.6
   11/24/2018 19:40      57.1      56.4       74     48.4      0.00      0.84      64.2     0.29      1013.8     1.0     SSE   160   2.2      SE   142   9.66    268      -65.2
   11/24/2018 19:30      57.7      56.9       73     48.5      0.00      0.84      64.1     0.29      1013.7     0.9     SSE   161   2.8      SE   140   9.66    268      -65.9
   11/24/2018 19:20      58.1      57.4       72     48.8      0.00      0.84      64.1     0.29      1013.6     1.1     SSE   150   2.3      SE   144   9.66    268      -66.1
   11/24/2018 19:10      58.2      57.8       72     48.9      0.00      0.84      64.1     0.29      1013.6     2.0      SW   217   4.6       S   177   9.66    268      -65.2
   11/24/2018 19:00      58.2      57.7       73     49.1      0.00      0.84      64.0     0.29      1013.6     0.7      SW   222   2.1     WSW   240   9.67    268      -64.1
   11/24/2018 18:50      58.3      57.9       72     49.2      0.00      0.84      64.0     0.29      1013.6     1.7     SSW   204   2.8     SSW   192   9.67    268      -63.5
   11/24/2018 18:40      59.1      57.9       72     49.4      0.00      0.84      64.0     0.29      1013.6     0.9      SW   220   2.5      SW   219   9.67    268      -64.6
   11/24/2018 18:30      60.2      58.8       69     49.1      0.00      0.84      64.0     0.29      1013.4     0.5     SSE   148   1.2      SE   142   9.67    268      -64.8
   11/24/2018 18:20      61.0      59.9       66     49.1      0.00      0.84      64.0     0.29      1013.3     1.4     SSW   212   2.2      SW   219   9.67    268      -64.1
   11/24/2018 18:10      61.5      60.8       65     49.3      0.00      0.84      63.9     0.29      1013.2     0.3       E    87   2.8     ESE   108   9.67    268      -65.4
   11/24/2018 18:00      61.6      60.8       66     49.8      0.00      0.84      63.9     0.29      1013.1     1.0      SE   139   2.1       S   172   9.67    267      -66.4
   11/24/2018 17:50      62.5      61.4       65     50.0      0.00      0.84      63.9     0.29      1013.0     0.6       E    91   1.7      SE   141   9.67    267      -62.4
   11/24/2018 17:40      63.5      62.2       63     50.1      0.00      0.84      63.9     0.29      1012.9     0.8       S   190   2.0     SSW   194   9.67    267      -52.2
   11/24/2018 17:30      64.0      63.1       62     50.3      0.00      0.84      63.8     0.29      1012.9     0.8     ESE   116   2.5      SE   140   9.67    267      -53.6
   11/24/2018 17:20      64.7      63.8       60     50.3      0.00      0.84      63.8     0.29      1012.8     0.4     ENE    79   1.4      SE   143   9.67    267      -46.0
   11/24/2018 17:10      64.7      64.0       60     50.0      0.00      0.84      63.8     0.29      1012.9     1.6     SSW   195   2.8     SSW   193   9.68    267      -37.7
   11/24/2018 17:00      65.7      63.9       61     50.7      0.00      0.84      63.7     0.29      1012.8     0.7     SSE   149   1.9      SE   144   9.68    267      -49.5
   11/24/2018 16:50      66.5      65.2       58     50.5      0.00      0.84      63.7     0.29      1012.7     0.0      SE   135   0.4      SE   135   9.68    267      -46.6
   11/24/2018 16:40      67.5      66.2       55     50.0      0.00      0.84      63.6     0.29      1012.6     0.6      NW   306   1.8     WNW   297   9.68    266      -48.4
   11/24/2018 16:30      67.9      67.2       52     49.2      0.00      0.84      63.6     0.29      1012.6     0.3     SSW   205   1.1       S   182   9.68    266      -50.0
   11/24/2018 16:20      68.5      67.6       51     49.3      0.00      0.84      63.5     0.29      1012.4     1.4     SSW   192   2.9       S   176   9.68    266      -42.5
   11/24/2018 16:10      68.4      67.9       51     49.5      0.00      0.84      63.5     0.29      1012.4     1.5       S   187   2.8       S   179   9.68    266      -18.8
   11/24/2018 16:00      68.6      67.9       51     49.5      0.00      0.84      63.5     0.29      1012.3     2.3       S   188   4.8       S   174   9.68    266      -16.1
   11/24/2018 15:50      69.1      68.2       50     49.4      0.00      0.84      63.4     0.29      1012.2     2.6       S   178   4.5     SSW   192   9.68    266        1.4
   11/24/2018 15:40      69.4      68.8       50     49.4      0.00      0.84      63.4     0.29      1012.1     3.1       S   177   5.8       S   185   9.68    266       38.7
   11/24/2018 15:30      69.4      69.0       50     49.8      0.00      0.84      63.3     0.29      1012.1     2.4       S   170   3.9       S   182   9.69    266       62.3
   11/24/2018 15:20      69.3      68.7       50     49.6      0.00      0.84      63.3     0.29      1012.1     2.8     SSE   157   4.8     SSW   207   9.69    266       70.4
   11/24/2018 15:10      69.5      68.5       50     49.5      0.00      0.84      63.2     0.29      1012.1     2.9     SSE   168   4.8     SSW   194   9.69    266       56.6
   11/24/2018 15:00      69.5      68.8       49     49.4      0.00      0.84      63.2     0.29      1012.0     3.1     SSE   158   5.4      SE   144   9.69    266      107.8
   11/24/2018 14:50      70.6      68.8       49     49.5      0.00      0.84      63.2     0.29      1011.9     4.2     SSE   150   8.5      SE   143   9.69    266       73.2
   11/24/2018 14:40      70.3      69.7       49     49.9      0.00      0.84      63.1     0.29      1011.8     2.4       S   171   5.0      SE   139   9.69    265      169.6
   11/24/2018 14:30      70.0      68.8       50     50.0      0.00      0.84      63.1     0.29      1011.8     3.2     SSE   168   7.4       S   186   9.69    266      162.0
   11/24/2018 14:20      69.3      68.7       51     50.0      0.00      0.84      63.1     0.29      1011.8     3.1     SSE   155   5.5      SE   139   9.69    266       66.4
   11/24/2018 14:10      69.6      68.4       51     50.3      0.00      0.84      63.0     0.29      1011.8     3.5       S   177   5.4       S   179   9.69    266      146.2
   11/24/2018 14:00      69.4      68.4       52     50.5      0.00      0.84      63.0     0.29      1012.0     4.6       S   189   6.8     SSW   207   9.69    266       88.5
   11/24/2018 13:50      69.9      69.0       51     50.7      0.00      0.84      62.9     0.29      1012.0     4.4       S   175   8.2       S   181   9.69    266      169.9
   11/24/2018 13:40      70.2      69.1       52     51.0      0.00      0.84      62.9     0.29      1012.1     3.4       S   183   6.6     SSW   212   9.70    266      192.4
   11/24/2018 13:30      70.6      69.9       52     51.7      0.00      0.84      62.9     0.29      1012.1     1.9       W   274   5.1       S   185   9.70    265      138.4
   11/24/2018 13:20      70.3      69.8       52     51.6      0.00      0.84      62.8     0.29      1012.2     1.2       E    83   3.0       S   175   9.70    265      147.6
   11/24/2018 13:10      70.2      69.7       52     51.7      0.00      0.84      62.8     0.29      1012.2     1.6     ENE    78   3.6     ENE    77   9.69    265      133.7
   11/24/2018 13:00      71.2      69.8       52     52.1      0.00      0.84      62.8     0.29      1012.2     1.9     ENE    60   4.9      NE    52   9.69    265      108.9
   11/24/2018 12:50      72.9      71.0       51     52.6      0.00      0.84      62.7     0.29      1012.4     2.1      NE    50   5.7      NE    55   9.70    265      176.9
   11/24/2018 12:40      72.5      71.3       51     52.8      0.00      0.84      62.7     0.29      1012.5     1.8     ENE    59   4.3      NE    51   9.69    265      448.8
   11/24/2018 12:30      71.4      70.2       53     52.5      0.00      0.84      62.6     0.29      1012.7     1.6      NE    40   4.3      SE   132   9.69    265      321.5
   11/24/2018 12:20      71.3      70.0       53     52.4      0.00      0.84      62.6     0.29      1012.9     1.7       N     4   4.3      NE    40   9.69    265      330.5
   11/24/2018 12:10      70.3      69.6       54     52.4      0.00      0.84      62.6     0.29      1013.1     2.2      NE    47   5.5      NE    45   9.69    265      333.1
   11/24/2018 12:00      70.0      69.6       54     52.3      0.00      0.84      62.6     0.29      1013.3     2.1      NE    38   5.0     NNW   338   9.69    265      233.2
   11/24/2018 11:50      71.4      69.7       52     52.2      0.00      0.84      62.6     0.29      1013.5     2.8     NNE    21   4.8     NNE    26   9.69    265      295.2
   11/24/2018 11:40      71.8      70.5       51     52.4      0.00      0.84      62.6     0.29      1013.7     1.2     NNW   339   2.6      SE   139   9.69    265      314.2
   11/24/2018 11:30      70.7      69.6       54     52.4      0.00      0.84      62.6     0.29      1013.9     1.7       N   354   4.7     NNW   342   9.69    265      340.6
   11/24/2018 11:20      70.1      69.1       54     52.3      0.00      0.84      62.6     0.29      1014.0     1.9      NW   313   3.9     WNW   292   9.69    266      335.5
   11/24/2018 11:10      69.6      68.8       54     51.7      0.00      0.84      62.6     0.29      1014.0     1.6     ESE   103   3.4     NNE    16   9.69    267      338.0
   11/24/2018 11:00      69.3      68.2       55     51.8      0.00      0.84      62.6     0.29      1014.2     2.2     SSW   192   4.8     WSW   251   9.69    267      338.7
   11/24/2018 10:50      69.3      67.9       57     52.9      0.00      0.84      62.7     0.29      1014.5     1.1       W   272   2.0     SSW   212   9.69    272      331.2
   11/24/2018 10:40      68.0      66.3       60     52.6      0.00      0.84      62.7     0.29      1014.6     0.5     NNE    14   2.0     ENE    57   9.69    284      323.3
   11/24/2018 10:30      66.5      65.2       63     52.9      0.00      0.84      62.7     0.29      1014.8     1.0       N    10   2.7      NE    53   9.69    292      316.1
   11/24/2018 10:20      65.8      64.9       63     52.7      0.00      0.84      62.8     0.29      1015.0     1.5     NNE    25   3.4     NNE    12   9.69    297      306.3
   11/24/2018 10:10      65.3      64.3       65     52.8      0.00      0.84      62.7     0.29      1015.1     1.1      NE    55   2.9       E    94   9.69    300      299.4
   11/24/2018 10:00      64.4      63.8       66     52.5      0.00      0.84      62.8     0.29      1015.3     1.3      NE    55   2.6      NE    41   9.69    303      288.1
   11/24/2018 09:50      64.0      63.2       67     52.3      0.00      0.84      62.8     0.29      1015.3     0.9     NNE    12   2.6     NNE    19   9.69    305      277.8
   11/24/2018 09:40      63.4      61.8       69     52.3      0.00      0.84      62.9     0.29      1015.3     0.9     ENE    59   2.3      NE    37   9.69    309      264.1
   11/24/2018 09:30      61.9      60.9       72     52.0      0.00      0.84      62.8     0.29      1015.4     1.6      NE    44   3.5      NE    54   9.69    313      252.3
   11/24/2018 09:20      61.1      60.5       72     51.6      0.00      0.84      62.9     0.29      1015.3     1.4      NE    45   2.9      NE    54   9.69    327      240.6
   11/24/2018 09:10      61.0      59.2       74     51.8      0.00      0.84      62.9     0.29      1015.4     0.7      NE    54   2.4      NE    54   9.69    346      233.0
   11/24/2018 09:00      59.4      58.4       76     51.3      0.00      0.84      62.9     0.29      1015.4     0.8     NNE    17   2.5     NNW   339   9.69    368      236.7
   11/24/2018 08:50      58.6      57.6       78     51.0      0.00      0.84      62.9     0.29      1015.4     1.5      NE    37   3.5     NNE    25   9.69    394      221.3
   11/24/2018 08:40      58.2      56.4       80     50.9      0.00      0.84      63.0     0.29      1015.3     0.7     ESE   114   2.2      NE    47   9.69    420      204.8
   11/24/2018 08:30      56.6      55.4       82     50.6      0.00      0.84      63.0     0.29      1015.3     1.3     ENE    70   2.4      NE    45   9.69    447      178.6
   11/24/2018 08:20      55.7      54.3       87     51.2      0.00      0.84      63.0     0.29      1015.2     0.5      SE   131   1.7      SE   143   9.69    493      150.9
   11/24/2018 08:10      54.5      53.0       90     50.7      0.00      0.84      63.0     0.29      1015.3     0.5      NE    46   1.7     NNE    32   9.69    506      116.8
   11/24/2018 08:00      53.3      51.4       92     50.1      0.00      0.84      63.0     0.29      1015.1     1.2     ENE    75   1.9     ENE    66   9.69    519       86.9
   11/24/2018 07:50      51.4      50.2       93     48.7      0.00      0.84      63.1     0.29      1015.2     1.4     SSE   161   2.6       S   184   9.69    530       58.7
   11/24/2018 07:40      50.5      49.2       93     48.1      0.00      0.84      63.1     0.29      1015.1     0.1      SE   128   1.3      SE   125   9.69    538       13.3
   11/24/2018 07:30      49.5      48.5       94     47.1      0.00      0.84      63.1     0.29      1015.1     0.7       E    81   1.7      NE    56   9.69    537        9.6
   11/24/2018 07:20      48.6      47.5       94     46.4      0.00      0.84      63.1     0.29      1015.0     0.2      SE   127   1.4     ENE    61   9.69    537        4.0
   11/24/2018 07:10      48.4      47.3       94     46.2      0.00      0.84      63.2     0.29      1015.1     1.1     SSW   206   2.1      SW   225   9.69    536        0.5
   11/24/2018 07:00      47.6      46.9       94     45.5      0.00      0.84      63.2     0.29      1015.0     0.4     SSW   192   1.3     SSW   200   9.69    535       -4.3
   11/24/2018 06:50      47.6      47.2       94     45.7      0.00      0.84      63.2     0.29      1014.9     0.8       N     3   1.6     NNE    25   9.69    532       -8.3
   11/24/2018 06:40      48.0      47.3       94     45.8      0.00      0.84      63.2     0.29      1014.8     0.0       N     0   0.0     ENE    70   9.69    530      -12.2
   11/24/2018 06:30      47.9      47.3       94     46.0      0.00      0.84      63.3     0.29      1014.8     0.6     ESE   118   1.5       S   170   9.69    528      -14.1
   11/24/2018 06:20      48.3      47.3       94     46.0      0.00      0.84      63.3     0.29      1014.9     1.0     SSE   164   2.4      SE   146   9.69    524      -15.3
   11/24/2018 06:10      48.1      47.6       94     46.0      0.00      0.84      63.3     0.29      1014.8     1.0       S   172   2.1      SW   221   9.69    521      -15.8
   11/24/2018 06:00      49.5      47.8       93     46.5      0.00      0.84      63.3     0.29      1014.9     0.1      SE   139   1.0      SE   142   9.69    519      -16.0
   11/24/2018 05:50      49.6      49.3       94     47.7      0.00      0.84      63.3     0.29      1014.8     0.3      SW   225   1.1      SW   218   9.69    516      -15.8
   11/24/2018 05:40      49.7      48.7       94     47.4      0.00      0.84      63.4     0.29      1014.8     0.8     WNW   284   2.5     WNW   289   9.69    512      -16.0
   11/24/2018 05:30      49.4      48.5       94     47.1      0.00      0.84      63.4     0.29      1014.8     0.2     WNW   283   0.7      NW   323   9.69    509      -15.9
   11/24/2018 05:20      50.3      48.8       94     48.0      0.00      0.84      63.4     0.29      1014.8     0.9      SE   136   1.8       S   188   9.69    505      -16.0
   11/24/2018 05:10      50.3      47.8       94     47.1      0.00      0.84      63.4     0.29      1014.8     1.4     SSW   201   3.5     SSW   204   9.69    500      -16.3
   11/24/2018 05:00      48.1      47.5       94     46.0      0.00      0.84      63.4     0.29      1014.8     1.0     SSE   154   1.8      SE   143   9.69    499      -16.7
   11/24/2018 04:50      47.9      47.6       93     45.9      0.00      0.84      63.5     0.29      1014.9     0.9     SSE   160   1.9       S   180   9.69    496      -16.7
   11/24/2018 04:40      48.4      47.4       93     45.9      0.00      0.84      63.5     0.29      1015.0     0.8       S   176   2.1       S   173   9.69    493      -16.6
   11/24/2018 04:30      48.4      47.8       93     46.1      0.00      0.84      63.5     0.29      1014.9     0.5     SSW   205   1.5      SW   224   9.69    490      -16.8
   11/24/2018 04:20      48.9      48.0       93     46.6      0.00      0.84      63.5     0.29      1014.8     0.9      SE   145   2.3     SSW   195   9.69    486      -16.6
   11/24/2018 04:10      48.7      48.1       93     46.3      0.00      0.84      63.5     0.29      1014.8     0.5     SSW   200   2.3     SSW   196   9.69    480      -17.2
   11/24/2018 04:00      49.1      48.3       92     46.5      0.00      0.84      63.5     0.29      1014.8     0.3      SE   125   1.4       S   172   9.69    477      -17.6
   11/24/2018 03:50      49.2      48.7       92     46.8      0.00      0.84      63.6     0.29      1014.8     0.3     SSE   155   1.0      SE   145   9.69    472      -17.9
   11/24/2018 03:40      49.5      48.7       92     46.8      0.00      0.84      63.6     0.29      1015.0     0.7       S   170   1.7     SSE   146   9.69    466      -17.9
   11/24/2018 03:30      50.0      49.2       92     47.1      0.00      0.84      63.6     0.29      1015.2     0.4     SSE   149   1.5      SE   141   9.69    461      -18.1
   11/24/2018 03:20      51.1      49.7       91     47.6      0.00      0.84      63.6     0.29      1015.2     0.3     SSE   149   1.2      SE   146   9.70    454      -18.1
   11/24/2018 03:10      50.9      50.1       91     48.0      0.00      0.84      63.6     0.29      1015.3     1.4     SSW   193   2.4     SSW   205   9.70    442      -18.0
   11/24/2018 03:00      51.1      50.2       90     47.8      0.00      0.84      63.7     0.29      1015.6     0.3      SE   136   1.2     ESE   107   9.70    439      -18.9
   11/24/2018 02:50      52.1      50.9       90     48.6      0.00      0.84      63.7     0.29      1015.7     0.4     NNE    33   1.3      NE    39   9.70    431      -19.0
   11/24/2018 02:40      52.4      51.4       90     48.9      0.00      0.84      63.7     0.29      1015.7     2.0     NNE    25   3.2       N   355   9.70    423      -18.4
   11/24/2018 02:30      52.5      52.0       91     49.8      0.00      0.84      63.8     0.29      1015.7     1.3     SSW   194   3.4     SSW   198   9.70    418      -18.1
   11/24/2018 02:20      52.2      51.2       92     49.4      0.00      0.84      63.7     0.29      1015.8     2.0       S   189   3.3     SSW   193   9.70    417      -18.0
   11/24/2018 02:10      51.4      50.7       92     48.9      0.00      0.84      63.8     0.29      1016.0     1.8      SW   218   3.8     SSW   199   9.70    418      -18.1
   11/24/2018 02:00      51.0      50.6       92     48.6      0.00      0.84      63.8     0.29      1016.2     1.2      SE   136   3.1       S   179   9.70    417      -18.4
   11/24/2018 01:50      51.8      50.8       92     49.1      0.00      0.84      63.8     0.29      1016.2     1.3     ESE   112   3.0      SE   138   9.70    414      -17.9
   11/24/2018 01:40      51.8      51.3       92     49.4      0.00      0.84      63.8     0.29      1016.1     1.7       S   190   2.9     SSW   206   9.70    410      -17.5
   11/24/2018 01:30      51.8      51.3       92     49.2      0.00      0.84      63.8     0.29      1016.1     1.0     SSE   158   2.1     SSW   212   9.70    405      -18.2
   11/24/2018 01:20      51.8      51.2       92     49.1      0.00      0.84      63.8     0.29      1016.0     0.8     SSE   167   2.2      SW   224   9.70    402      -18.8
   11/24/2018 01:10      53.4      51.5       92     50.0      0.00      0.84      63.9     0.29      1015.9     1.5     ENE    61   3.5      NE    54   9.70    398      -18.5
   11/24/2018 01:00      53.2      51.1       94     50.4      0.00      0.84      63.9     0.29      1015.8     1.6      SW   235   4.0      SW   229   9.70    397      -18.3
   11/24/2018 00:50      51.7      51.1       93     49.4      0.00      0.84      63.9     0.29      1016.0     0.4      SE   144   1.2      SE   140   9.70    398      -18.3
   11/24/2018 00:40      51.5      51.1       93     49.3      0.00      0.84      63.9     0.29      1016.0     0.6       S   186   1.6       S   171   9.70    395      -18.5
   11/24/2018 00:30      51.4      50.9       93     49.1      0.00      0.84      63.9     0.29      1016.1     0.2     SSW   212   1.2      SW   227   9.70    387      -19.6
   11/24/2018 00:20      51.8      51.0       93     49.1      0.00      0.84      63.9     0.29      1016.2     0.5      SE   143   1.3      SE   142   9.70    384      -20.5
   11/24/2018 00:10      52.0      51.3       93     49.6      0.00      0.84      63.9     0.29      1016.3     0.3       S   186   1.1       S   183   9.70    373      -20.5
   11/24/2018 00:00      52.1      51.4       92     49.5      0.00      0.84      63.9     0.29      1016.4     0.4       S   186   1.3       S   176   9.70    366      -20.5
   11/23/2018 23:50      52.5      51.7       92     49.8      0.00      0.84      63.9     0.29      1016.4     0.6     ESE   115   1.2       E    90   9.70    364      -20.1
   11/23/2018 23:40      52.5      52.0       92     50.1      0.00      0.84      64.0     0.29      1016.4     0.3      SW   218   1.6      SW   214   9.70    360      -20.8
   11/23/2018 23:30      52.5      52.0       92     50.0      0.00      0.84      64.0     0.29      1016.4     0.5     SSE   151   1.2      SE   146   9.70    357      -21.5
   11/23/2018 23:20      52.5      52.1       92     50.1      0.00      0.84      64.0     0.29      1016.5     1.1     SSE   150   1.8      SE   142   9.70    353      -21.4
   11/23/2018 23:10      52.9      52.1       92     50.1      0.00      0.84      64.0     0.29      1016.7     0.7     SSE   156   1.6      SE   144   9.70    350      -21.8
   11/23/2018 23:00      52.8      52.2       92     50.2      0.00      0.84      64.0     0.29      1017.0     0.3     SSW   201   1.4      SW   234   9.70    347      -22.0
   11/23/2018 22:50      53.0      52.3       91     50.1      0.00      0.84      64.0     0.29      1017.0     0.0       S   180   0.7       S   181   9.70    344      -23.2
   11/23/2018 22:40      53.2      52.6       91     50.6      0.00      0.84      64.0     0.29      1017.0     0.4     SSE   160   1.3      SE   145   9.70    339      -24.1
   11/23/2018 22:30      53.6      52.9       91     50.6      0.00      0.84      64.0     0.29      1017.1     0.4      SE   126   1.3      SE   128   9.70    336      -25.3
   11/23/2018 22:20      53.8      53.3       91     50.9      0.00      0.84      64.0     0.29      1017.1     0.5       S   171   1.2     SSE   157   9.70    332      -26.3
   11/23/2018 22:10      54.3      53.6       91     51.3      0.00      0.84      64.0     0.29      1017.1     1.1       S   177   2.3     SSW   202   9.70    327      -27.2
   11/23/2018 22:00      54.3      53.5       90     51.0      0.00      0.84      64.1     0.29      1017.1     0.6     SSE   156   1.3      SE   145   9.70    324      -29.9
   11/23/2018 21:50      54.5      53.9       90     51.3      0.00      0.84      64.0     0.29      1017.1     0.2     NNE    27   1.0      NE    42   9.70    319      -30.9
   11/23/2018 21:40      54.6      54.0       90     51.3      0.00      0.84      64.0     0.29      1017.2     0.0     SSE   168   0.5     SSE   168   9.71    315      -32.1
   11/23/2018 21:30      54.9      54.1       90     51.4      0.00      0.84      64.0     0.29      1017.2     0.1     SSE   160   0.9       S   170   9.70    310      -35.1
   11/23/2018 21:20      55.1      54.3       89     51.5      0.00      0.84      64.0     0.29      1017.3     0.5      SE   145   1.8      SE   143   9.71    306      -37.1
   11/23/2018 21:10      55.1      54.6       90     52.0      0.00      0.84      64.0     0.29      1017.4     0.4     SSE   160   1.5      SE   133   9.71    303      -38.4
   11/23/2018 21:00      54.9      54.3       89     51.5      0.00      0.84      64.0     0.29      1017.5     0.2     SSE   156   1.0       S   178   9.70    298      -42.0
   11/23/2018 20:50      55.2      54.3       89     51.4      0.00      0.84      64.0     0.29      1017.5     0.1     SSE   148   0.8       S   187   9.70    294      -44.9
   11/23/2018 20:40      55.3      54.9       89     51.7      0.00      0.84      64.0     0.29      1017.5     0.6      SE   130   1.9      SE   145   9.70    289      -47.2
   11/23/2018 20:30      55.9      55.0       87     51.7      0.00      0.84      64.0     0.29      1017.5     0.7     SSE   166   1.7       S   186   9.71    284      -50.7
   11/23/2018 20:20      56.5      55.5       86     51.9      0.00      0.84      64.0     0.29      1017.5     1.1     SSW   200   2.3     SSW   211   9.71    279      -52.5
   11/23/2018 20:10      57.0      56.1       85     52.1      0.00      0.84      64.0     0.29      1017.4     0.0     SSW   201   0.3     SSW   201   9.71    276      -56.4
   11/23/2018 20:00      57.4      56.8       84     52.2      0.00      0.84      64.0     0.29      1017.4     0.0       N     0   0.0     SSW   201   9.71    271      -57.9
   11/23/2018 19:50      58.5      57.1       83     52.3      0.00      0.84      64.0     0.29      1017.3     0.2     SSE   148   1.1     SSW   195   9.71    265      -60.3
   11/23/2018 19:40      58.5      58.0       83     53.2      0.00      0.84      64.0     0.29      1017.3     1.1       S   182   2.2      SW   232   9.71    268      -61.3
   11/23/2018 19:30      58.4      57.6       84     53.1      0.00      0.84      63.9     0.29      1017.4     1.3     SSW   198   3.2      SW   214   9.71    270      -60.3
   11/23/2018 19:20      58.2      57.7       84     53.1      0.00      0.84      63.9     0.29      1017.3     0.7       S   171   2.1       S   185   9.71    264      -61.0
   11/23/2018 19:10      58.7      57.9       83     53.0      0.00      0.84      63.9     0.29      1017.4     1.1     SSE   162   2.4     SSE   155   9.71    266      -61.1
   11/23/2018 19:00      59.1      58.3       82     53.2      0.00      0.84      63.9     0.29      1017.4     1.1     SSE   158   2.1     SSE   168   9.71    267      -61.4
   11/23/2018 18:50      59.7      58.8       81     53.3      0.00      0.84      63.9     0.29      1017.4     1.0     SSE   167   2.2     SSW   191   9.71    268      -62.1
   11/23/2018 18:40      60.6      59.4       79     53.4      0.00      0.84      63.9     0.29      1017.4     1.4       S   182   2.3     SSW   201   9.71    268      -63.2
   11/23/2018 18:30      60.6      60.1       79     53.6      0.00      0.84      63.9     0.29      1017.4     1.6     SSW   210   3.2      SW   232   9.71    268      -64.2
   11/23/2018 18:20      60.9      60.2       78     53.6      0.00      0.84      63.8     0.29      1017.4     1.8     SSW   205   3.7     SSW   203   9.71    268      -64.3
   11/23/2018 18:10      61.0      60.5       78     53.7      0.00      0.84      63.8     0.29      1017.5     2.3      SW   235   3.7     SSW   205   9.71    268      -64.8
   11/23/2018 18:00      61.2      60.8       77     53.7      0.00      0.84      63.8     0.29      1017.5     2.9     SSW   213   5.5      SW   231   9.71    268      -65.2
   11/23/2018 17:50      61.4      60.9       77     53.7      0.00      0.84      63.8     0.29      1017.6     4.0     SSW   212   5.9     SSW   213   9.71    268      -65.5
   11/23/2018 17:40      61.5      61.1       76     53.8      0.00      0.84      63.7     0.29      1017.7     3.8     SSW   211   6.0     SSW   194   9.71    268      -65.5
   11/23/2018 17:30      61.6      61.2       76     53.8      0.00      0.84      63.7     0.29      1017.7     4.0     SSW   205   6.0     SSW   209   9.72    268      -66.0
   11/23/2018 17:20      61.9      61.3       75     53.7      0.00      0.84      63.7     0.29      1017.7     3.5      SW   217   7.0     WNW   292   9.72    268      -66.8
   11/23/2018 17:10      62.2      61.5       75     53.7      0.00      0.84      63.7     0.29      1017.6     3.6      SW   219   8.5     WSW   247   9.72    268      -67.4
   11/23/2018 17:00      62.4      61.9       74     53.6      0.00      0.84      63.6     0.29      1017.6     4.8      SW   231   8.3     WSW   240   9.72    268      -66.6
   11/23/2018 16:50      62.8      62.1       73     53.5      0.00      0.84      63.6     0.29      1017.7     5.1      SW   231   9.4     WSW   245   9.72    267      -64.6
   11/23/2018 16:40      63.2      62.4       72     53.4      0.00      0.84      63.6     0.29      1017.7     4.4      SW   230   8.2      SW   233   9.72    267      -61.5
   11/23/2018 16:30      63.8      63.0       69     53.2      0.00      0.84      63.5     0.29      1017.7     4.8      SW   230   7.9      SW   233   9.72    267      -57.9
   11/23/2018 16:20      64.4      63.6       66     52.6      0.00      0.84      63.5     0.29      1017.6     5.1     WSW   237   9.3     WSW   237   9.73    266      -54.5
   11/23/2018 16:10      64.9      64.3       64     52.1      0.00      0.84      63.5     0.29      1017.6     6.9      SW   235   9.6      SW   214   9.73    266      -27.6
   11/23/2018 16:00      65.5      64.6       61     51.5      0.00      0.84      63.4     0.29      1017.5     6.4     WSW   237  10.3     WSW   238   9.73    266      -11.8
   11/23/2018 15:50      66.6      65.3       60     51.5      0.00      0.84      63.4     0.29      1017.5     6.3     WSW   240  10.4      SW   230   9.73    266        6.6
   11/23/2018 15:40      66.6      66.1       59     51.3      0.00      0.84      63.4     0.29      1017.5     4.3     WSW   238   8.7     WSW   247   9.73    265       27.2
   11/23/2018 15:30      67.1      66.0       56     50.3      0.00      0.84      63.3     0.29      1017.5     7.1     WSW   245  10.3     WSW   246   9.73    266       51.1
   11/23/2018 15:20      67.8      66.6       51     48.7      0.00      0.84      63.3     0.29      1017.5     6.4     WSW   248  10.7     WSW   246   9.74    265       71.9
   11/23/2018 15:10      67.9      67.4       47     46.9      0.00      0.84      63.3     0.29      1017.6     5.8     WSW   248   9.5       W   263   9.74    264       93.9
   11/23/2018 15:00      68.8      67.5       45     46.1      0.00      0.84      63.2     0.29      1017.7     5.9      SW   225   9.6       W   263   9.74    264      115.9
   11/23/2018 14:50      68.7      68.2       44     45.8      0.00      0.84      63.2     0.29      1017.7     4.7      SW   231   8.2      SW   224   9.74    264      137.0
   11/23/2018 14:40      68.5      68.0       44     45.8      0.00      0.84      63.1     0.29      1017.7     5.2      SW   218   9.8      SW   217   9.74    264      159.1
   11/23/2018 14:30      69.3      68.2       44     46.1      0.00      0.84      63.1     0.29      1017.8     5.7      SW   217  10.7     SSW   198   9.74    264      178.1
   11/23/2018 14:20      69.2      68.7       44     46.4      0.00      0.84      63.1     0.29      1018.0     5.1      SW   222  10.1       S   191   9.74    264      195.2
   11/23/2018 14:10      70.2      68.8       43     46.3      0.00      0.84      63.1     0.29      1018.1     5.9     WSW   240   8.5     WSW   244   9.74    263      213.4
   11/23/2018 14:00      70.4      69.5       42     46.0      0.00      0.84      63.0     0.29      1018.3     4.2      SW   230   8.1      SW   219   9.74    264      227.0
   11/23/2018 13:50      70.2      69.6       41     44.9      0.00      0.84      63.0     0.29      1018.3     5.1     WSW   241   8.9     WSW   252   9.74    264      244.6
   11/23/2018 13:40      70.1      69.4       40     44.6      0.00      0.84      63.0     0.29      1018.4     4.4      SW   235   7.6     WSW   257   9.74    263      257.8
   11/23/2018 13:30      71.8      69.8       40     44.9      0.00      0.84      62.9     0.29      1018.6     4.0      SW   227   6.4     WSW   238   9.74    264      270.4
   11/23/2018 13:20      71.8      70.3       42     46.8      0.00      0.84      62.9     0.29      1018.8     1.3      SE   144   4.0     ENE    66   9.75    263      279.8
   11/23/2018 13:10      70.3      68.3       44     46.6      0.00      0.84      62.9     0.29      1019.1     1.2      NE    38   3.0     NNW   331   9.74    264      289.8
   11/23/2018 13:00      68.8      67.8       45     46.3      0.00      0.84      62.9     0.29      1019.3     1.8     ENE    61   3.6       S   175   9.74    264      301.2
   11/23/2018 12:50      68.9      67.8       45     46.5      0.00      0.84      62.9     0.29      1019.4     3.0     WSW   240   6.8     SSW   204   9.74    264      311.4
   11/23/2018 12:40      68.7      67.3       45     45.7      0.00      0.84      62.8     0.29      1019.6     1.9     WSW   245   5.0       W   266   9.75    263      319.4
   11/23/2018 12:30      69.2      67.3       44     45.6      0.00      0.84      62.8     0.29      1019.7     3.3      SW   219   7.1     SSW   208   9.75    264      329.7
   11/23/2018 12:20      69.1      67.7       44     45.8      0.00      0.84      62.8     0.29      1020.0     1.5      NW   319   4.3     NNW   330   9.75    264      334.6
   11/23/2018 12:10      69.0      67.8       45     46.4      0.00      0.84      62.8     0.29      1020.3     1.7     WNW   299   5.4      NW   307   9.75    264      337.4
   11/23/2018 12:00      68.1      67.2       46     46.3      0.00      0.84      62.8     0.29      1020.5     1.7       W   267   4.2     WSW   248   9.75    264      341.0
   11/23/2018 11:50      67.7      66.8       47     46.3      0.00      0.84      62.8     0.29      1020.8     1.8     WSW   251   5.0      NW   319   9.75    265      343.6
   11/23/2018 11:40      67.1      66.0       47     45.6      0.00      0.84      62.8     0.29      1021.0     2.3       W   278   5.4      NW   309   9.74    265      345.4
   11/23/2018 11:30      66.9      66.0       46     45.0      0.00      0.84      62.8     0.29      1021.3     2.6       W   271   5.5       W   273   9.74    266      346.4
   11/23/2018 11:20      66.6      65.6       49     46.3      0.00      0.84      62.8     0.29      1021.6     1.3     NNW   337   3.9       W   275   9.74    266      343.3
   11/23/2018 11:10      65.8      65.0       50     46.2      0.00      0.84      62.8     0.29      1021.8     1.7     WSW   241   3.7       W   276   9.75    274      341.3
   11/23/2018 11:00      65.8      64.9       50     46.5      0.00      0.84      62.8     0.29      1022.1     1.8       N   354   4.3     NNE    25   9.75    282      342.1
   11/23/2018 10:50      65.6      64.6       55     48.3      0.00      0.84      62.8     0.29      1022.4     1.5       N    11   2.7      NW   314   9.75    290      339.6
   11/23/2018 10:40      65.8      64.4       57     49.4      0.00      0.84      62.9     0.29      1022.6     1.4      NE    38   3.1     NNE    32   9.75    298      333.7
   11/23/2018 10:30      65.2      63.2       58     49.5      0.00      0.84      62.9     0.29      1022.8     0.8      SW   225   2.5     SSW   205   9.75    302      327.1
   11/23/2018 10:20      63.5      62.4       62     49.8      0.00      0.84      62.9     0.29      1022.9     1.3      SE   129   3.3      SE   139   9.75    305      321.4
   11/23/2018 10:10      63.5      61.8       64     50.1      0.00      0.84      63.0     0.29      1023.0     0.8     ESE   103   1.8       E    95   9.75    307      309.6
   11/23/2018 10:00      62.0      60.6       66     50.1      0.00      0.84      63.0     0.29      1023.0     0.9      SE   130   1.8      SE   140   9.75    311      299.9
   11/23/2018 09:50      61.6      60.8       67     50.2      0.00      0.84      63.0     0.29      1023.0     1.2      SW   217   2.5     WSW   244   9.74    314      288.1
   11/23/2018 09:40      61.5      59.4       70     50.5      0.00      0.84      63.0     0.29      1023.1     0.3      NW   312   1.2     WNW   286   9.75    329      272.5
   11/23/2018 09:30      59.7      58.8       72     50.4      0.00      0.84      63.1     0.29      1023.1     0.6     NNE    13   2.7       N   355   9.75    348      267.7
   11/23/2018 09:20      58.8      57.5       75     50.4      0.00      0.84      63.1     0.29      1023.1     0.5       N   351   2.4       N     4   9.74    370      267.9
   11/23/2018 09:10      57.7      56.4       78     50.3      0.00      0.84      63.1     0.29      1023.0     0.9       N     9   2.2     NNE    17   9.74    398      261.8
   11/23/2018 09:00      56.6      56.1       80     50.2      0.00      0.84      63.2     0.29      1023.0     0.8       N   360   2.7     NNE    22   9.75    430      244.7
   11/23/2018 08:50      56.6      55.4       83     51.0      0.00      0.84      63.2     0.29      1023.0     0.4     NNE    17   2.3     NNW   347   9.75    487      224.8
   11/23/2018 08:40      55.5      53.6       87     50.6      0.00      0.84      63.3     0.29      1023.0     0.2     SSE   167   1.6       S   184   9.75    510      196.3
   11/23/2018 08:30      53.8      53.2       89     50.5      0.00      0.84      63.3     0.29      1023.0     0.5      SE   146   1.4     SSE   154   9.75    525      166.6
   11/23/2018 08:20      53.5      52.1       92     50.3      0.00      0.84      63.3     0.29      1023.0     0.3       E    87   1.4     ENE    56   9.74    537      138.6
   11/23/2018 08:10      52.3      50.8       93     49.6      0.00      0.84      63.3     0.29      1023.1     0.2      NE    37   1.2     NNE    30   9.74    548      107.8
   11/23/2018 08:00      50.9      49.4       94     48.5      0.00      0.84      63.4     0.29      1022.9     0.4     NNE    25   1.4     NNE    27   9.74    558       78.4
   11/23/2018 07:50      49.6      47.7       95     47.1      0.00      0.84      63.4     0.29      1022.8     0.0       N     0   0.0      NE    51   9.75    566       58.5
   11/23/2018 07:40      48.0      47.3       95     46.1      0.00      0.84      63.5     0.29      1022.6     0.0       N     0   0.0      SE   130   9.75    573       22.3
   11/23/2018 07:30      47.6      46.2       96     45.8      0.00      0.84      63.5     0.29      1022.6     0.4      SE   139   1.1      SE   146   9.75    573       14.9
   11/23/2018 07:20      46.4      44.9       96     44.2      0.00      0.84      63.5     0.29      1022.5     0.4     SSE   159   1.3       S   178   9.75    573        8.3
   11/23/2018 07:10      45.0      44.3       95     43.2      0.00      0.84      63.6     0.29      1022.5     0.0       S   179   0.8       S   179   9.75    573        2.9
   11/23/2018 07:00      44.8      44.4       95     43.3      0.00      0.84      63.6     0.29      1022.5     0.5       S   183   1.3       S   187   9.75    571       -3.9
   11/23/2018 06:50      44.8      44.2       95     43.0      0.00      0.84      63.6     0.29      1022.5     0.0       N     0   0.0     ENE    64   9.75    569       -8.4
   11/23/2018 06:40      45.3      44.5       95     43.4      0.00      0.84      63.6     0.29      1022.2     0.0       N     0   0.0      SE   143   9.75    569      -11.1
   11/23/2018 06:30      45.3      44.9       95     43.6      0.00      0.84      63.6     0.29      1022.1     0.0       N     0   0.0     SSE   153   9.75    566      -12.9
   11/23/2018 06:20      45.3      44.9       95     43.7      0.00      0.84      63.7     0.29      1022.2     0.0       N     0   0.0     SSE   153   9.75    564      -13.5
   11/23/2018 06:10      45.2      44.8       95     43.6      0.00      0.84      63.7     0.29      1022.2     0.0       N     0   0.0     SSE   149   9.75    561      -13.7
   11/23/2018 06:00      45.5      44.9       95     43.6      0.00      0.84      63.8     0.29      1022.2     0.0       N     0   0.0      SE   141   9.75    559      -14.1
   11/23/2018 05:50      45.6      45.0       95     43.8      0.00      0.84      63.8     0.29      1022.2     0.6      SE   142   1.6      SE   140   9.75    556      -14.2
   11/23/2018 05:40      45.8      45.3       95     44.2      0.00      0.84      63.8     0.29      1022.3     0.4       S   179   1.4     SSW   200   9.75    553      -13.8
   11/23/2018 05:30      45.9      45.0       95     43.9      0.00      0.84      63.8     0.29      1022.3     0.0       N     0   0.0      NE    41   9.75    550      -14.5
   11/23/2018 05:20      45.9      45.5       95     44.2      0.00      0.84      63.9     0.29      1022.2     0.6      SE   140   1.3      SE   140   9.75    546      -14.3
   11/23/2018 05:10      45.8      45.3       95     44.1      0.00      0.84      63.9     0.29      1022.2     0.2       S   190   1.4       S   191   9.75    543      -14.3
   11/23/2018 05:00      45.7      45.1       95     44.0      0.00      0.84      64.0     0.29      1022.4     0.5     SSE   164   1.3     SSE   148   9.75    540      -14.5
   11/23/2018 04:50      45.6      45.0       95     43.8      0.00      0.84      64.0     0.29      1022.5     0.3       S   178   1.4       S   179   9.75    535      -14.4
   11/23/2018 04:40      45.8      45.0       95     43.9      0.00      0.84      64.0     0.29      1022.6     0.0       E    83   0.8       E    86   9.75    532      -14.9
   11/23/2018 04:30      46.1      45.6       95     44.5      0.00      0.84      64.0     0.29      1022.5     0.2     SSW   194   1.1     SSW   198   9.75    528      -14.7
   11/23/2018 04:20      46.1      45.4       95     44.2      0.00      0.84      64.0     0.29      1022.5     0.5     SSW   208   1.2     SSW   209   9.75    524      -15.1
   11/23/2018 04:10      46.2      45.6       94     44.3      0.00      0.84      64.0     0.29      1022.5     0.0       N     0   0.0     ESE   110   9.75    521      -15.2
   11/23/2018 04:00      46.9      45.9       94     44.8      0.00      0.84      64.1     0.29      1022.5     0.1      SE   133   0.8      SE   133   9.75    517      -14.9
   11/23/2018 03:50      47.0      46.4       95     45.2      0.00      0.84      64.1     0.29      1022.5     0.0       N     0   0.0     SSE   161   9.75    513      -15.3
   11/23/2018 03:40      46.7      46.1       95     45.0      0.00      0.84      64.2     0.29      1022.6     0.4     SSW   194   1.2     SSW   207   9.75    509      -15.1
   11/23/2018 03:30      47.0      46.0       94     44.9      0.00      0.84      64.2     0.29      1022.6     0.5     SSE   148   1.2      SE   138   9.75    506      -15.4
   11/23/2018 03:20      47.5      46.6       94     45.4      0.00      0.84      64.2     0.29      1022.6     0.0      SE   128   0.5      SE   128   9.75    502      -15.6
   11/23/2018 03:10      47.5      46.9       95     45.7      0.00      0.84      64.3     0.29      1022.6     0.7     SSW   201   1.4     SSW   201   9.75    499      -15.3
   11/23/2018 03:00      47.2      46.8       94     45.4      0.00      0.84      64.3     0.29      1022.6     0.0       N     0   0.0     SSE   168   9.75    496      -15.9
   11/23/2018 02:50      47.6      46.9       94     45.7      0.00      0.84      64.3     0.29      1022.6     0.0       N     0   0.0     SSW   199   9.75    493      -16.9
   11/23/2018 02:40      47.8      46.9       94     45.6      0.00      0.84      64.4     0.29      1022.6     0.0       N     0   0.0     ESE   106   9.75    488      -17.7
   11/23/2018 02:30      48.0      47.4       94     46.0      0.00      0.84      64.3     0.29      1022.6     0.4      SE   138   1.6      SE   135   9.75    484      -17.4
   11/23/2018 02:20      48.2      47.6       94     46.3      0.00      0.84      64.4     0.29      1022.6     0.0       N     0   0.0     SSW   200   9.76    479      -17.8
   11/23/2018 02:10      48.2      47.7       94     46.3      0.00      0.84      64.4     0.29      1022.7     0.3     SSE   157   0.9      SE   138   9.76    470      -18.4
   11/23/2018 02:00      48.0      47.4       94     46.0      0.00      0.84      64.4     0.29      1022.8     0.8     SSE   158   1.4       S   173   9.76    465      -18.5
   11/23/2018 01:50      48.1      47.4       94     46.0      0.00      0.84      64.4     0.29      1022.9     0.4      SE   131   1.4      SE   136   9.76    461      -18.7
   11/23/2018 01:40      48.1      47.8       94     46.3      0.00      0.84      64.5     0.29      1022.9     0.9     SSE   154   1.4     SSE   156   9.76    456      -18.8
   11/23/2018 01:30      48.7      47.7       94     46.4      0.00      0.84      64.5     0.29      1022.8     0.4     SSE   163   1.1       S   179   9.76    450      -19.1
   11/23/2018 01:20      48.3      47.7       94     46.2      0.00      0.84      64.5     0.29      1022.9     0.4     SSE   165   1.2      SE   139   9.76    446      -19.5
   11/23/2018 01:10      48.6      47.8       94     46.2      0.00      0.84      64.5     0.29      1022.9     0.8     SSE   152   1.3      SE   144   9.76    441      -19.3
   11/23/2018 01:00      49.0      48.3       94     46.8      0.00      0.84      64.6     0.29      1023.0     0.5     SSE   166   1.0       S   171   9.76    436      -19.8
   11/23/2018 00:50      48.9      48.4       94     47.0      0.00      0.84      64.6     0.29      1022.9     0.0       N     0   0.0       S   183   9.76    431      -20.1
   11/23/2018 00:40      48.8      48.3       93     46.6      0.00      0.84      64.6     0.29      1022.8     0.0       S   169   0.5       S   170   9.76    427      -20.8
   11/23/2018 00:30      49.3      48.6       93     46.9      0.00      0.84      64.6     0.29      1022.9     0.3     SSE   147   0.9      SE   138   9.76    421      -20.8
   11/23/2018 00:20      49.4      48.7       94     47.2      0.00      0.84      64.6     0.29      1022.8     0.2     SSE   158   0.8     SSE   165   9.76    415      -21.5
   11/23/2018 00:10      49.0      48.6       93     46.8      0.00      0.84      64.7     0.29      1022.8     0.2       S   184   0.8      SW   219   9.76    410      -22.0
   11/23/2018 00:00      49.2      48.6       93     46.9      0.00      0.84      64.7     0.29      1022.8     0.8      SE   145   2.2      SE   140   9.76    403      -22.1
   11/22/2018 23:50      49.7      49.0       93     47.3      0.00      0.84      64.7     0.29      1022.9     0.5      SE   142   1.4      SE   141   9.76    397      -21.9
   11/22/2018 23:40      49.8      49.2       93     47.4      0.00      0.84      64.8     0.29      1023.0     0.0     SSE   152   0.8     SSE   149   9.76    388      -22.4
   11/22/2018 23:30      50.0      49.5       93     47.6      0.00      0.84      64.8     0.29      1023.1     0.3     SSE   148   0.9      SE   144   9.76    369      -22.8
   11/22/2018 23:20      51.0      49.7       92     48.2      0.00      0.84      64.8     0.29      1023.1     0.6       S   170   2.2     SSW   204   9.76    357      -22.7
   11/22/2018 23:10      50.8      50.0       93     48.2      0.00      0.84      64.8     0.29      1023.2     1.2     SSW   192   2.4     SSW   205   9.76    352      -23.9
   11/22/2018 23:00      50.4      49.7       92     47.8      0.00      0.84      64.8     0.29      1023.2     0.3     SSW   207   1.2      SW   223   9.76    346      -25.2
   11/22/2018 22:50      51.1      50.1       92     48.2      0.00      0.84      64.8     0.29      1023.4     0.4      SE   134   1.7      SE   133   9.76    341      -25.0
   11/22/2018 22:40      51.6      50.6       92     48.7      0.00      0.84      64.8     0.29      1023.4     0.4     SSE   158   1.1       S   173   9.76    335      -25.5
   11/22/2018 22:30      51.4      50.9       92     48.9      0.00      0.84      64.8     0.29      1023.3     0.3     WSW   243   1.3     WNW   283   9.77    331      -25.9
   11/22/2018 22:20      51.3      50.9       92     48.7      0.00      0.84      64.8     0.29      1023.3     0.3       S   187   1.7       S   189   9.77    326      -26.9
   11/22/2018 22:10      51.6      51.1       92     48.9      0.00      0.84      64.9     0.29      1023.2     0.2     SSE   147   1.1      SE   144   9.77    322      -28.1
   11/22/2018 22:00      52.0      51.3       91     49.1      0.00      0.84      64.9     0.29      1023.2     0.2     SSE   162   1.0     SSE   154   9.77    319      -28.4
   11/22/2018 21:50      51.9      51.3       92     49.2      0.00      0.84      64.9     0.29      1023.2     1.5      SE   139   2.4      SE   139   9.77    315      -28.8
   11/22/2018 21:40      52.0      51.3       91     49.1      0.00      0.84      64.9     0.29      1023.2     0.9     SSE   153   1.9      SE   145   9.77    312      -30.9
   11/22/2018 21:30      52.2      51.7       91     49.1      0.00      0.84      64.9     0.29      1023.2     0.7     SSE   156   1.5     SSE   146   9.77    308      -32.3
   11/22/2018 21:20      52.4      51.8       90     49.3      0.00      0.84      64.9     0.29      1023.1     0.3     SSE   162   1.1      SE   146   9.77    305      -34.4
   11/22/2018 21:10      52.9      52.2       90     49.4      0.00      0.84      64.9     0.29      1023.0     0.3       S   172   0.9     SSE   163   9.77    300      -36.1
   11/22/2018 21:00      53.0      52.5       89     49.7      0.00      0.84      65.0     0.29      1022.9     0.0     SSE   161   0.4     SSE   160   9.77    296      -38.8
   11/22/2018 20:50      53.3      52.6       89     49.9      0.00      0.84      65.0     0.29      1022.8     0.9     SSE   155   2.0      SE   146   9.77    293      -39.5
   11/22/2018 20:40      53.4      53.0       89     50.0      0.00      0.84      65.0     0.29      1022.7     0.3      SW   224   1.1      SW   223   9.77    290      -42.6
   11/22/2018 20:30      53.5      53.1       89     50.0      0.00      0.84      64.9     0.29      1022.7     0.3     SSW   193   0.9     SSW   204   9.77    288      -44.9
   11/22/2018 20:20      53.9      53.2       88     50.1      0.00      0.84      65.0     0.29      1022.6     0.2     SSE   159   1.0     SSE   149   9.77    285      -47.5
   11/22/2018 20:10      53.8      53.3       88     50.1      0.00      0.84      65.0     0.29      1022.7     0.0      SE   138   0.9     SSE   147   9.77    282      -51.4
   11/22/2018 20:00      54.4      53.5       87     50.1      0.00      0.84      65.0     0.29      1022.6     0.3     SSE   160   1.1     SSE   161   9.77    279      -54.9
   11/22/2018 19:50      54.4      53.9       87     50.3      0.00      0.84      65.0     0.29      1022.5     0.4     SSE   164   1.2     SSE   167   9.77    276      -59.2
   11/22/2018 19:40      54.9      54.0       86     50.1      0.00      0.84      65.0     0.29      1022.3     0.3       S   179   1.3       S   182   9.77    272      -63.3
   11/22/2018 19:30      55.2      54.6       85     50.4      0.00      0.84      65.0     0.29      1022.1     0.7       S   176   1.7      SE   143   9.77    269      -63.0
   11/22/2018 19:20      56.1      55.0       83     50.3      0.00      0.84      65.0     0.29      1022.1     0.4      SE   136   1.3      SE   143   9.77    267      -61.6
   11/22/2018 19:10      56.6      55.9       82     50.7      0.00      0.84      65.0     0.29      1021.9     0.5     SSE   159   1.3     SSE   157   9.77    267      -63.4
   11/22/2018 19:00      57.2      56.4       81     50.9      0.00      0.84      65.0     0.29      1021.9     0.7     SSE   168   1.6       S   172   9.77    269      -64.2
   11/22/2018 18:50      57.9      56.9       79     50.8      0.00      0.84      65.0     0.29      1021.8     1.2       S   173   2.2       S   181   9.78    269      -65.5
   11/22/2018 18:40      58.5      57.5       77     50.8      0.00      0.84      64.9     0.29      1021.8     1.4       S   183   2.2       S   175   9.78    268      -64.9
   11/22/2018 18:30      58.8      58.2       76     50.9      0.00      0.84      64.9     0.29      1021.8     0.8     SSW   197   2.9      SW   235   9.78    268      -66.1
   11/22/2018 18:20      58.8      58.4       75     50.9      0.00      0.84      64.9     0.29      1021.9     1.2     SSW   211   2.4      SW   214   9.78    268      -65.3
   11/22/2018 18:10      59.1      58.5       75     50.8      0.00      0.84      64.9     0.29      1021.9     2.0     SSW   213   3.2     WSW   247   9.78    268      -66.1
   11/22/2018 18:00      59.6      58.8       74     50.8      0.00      0.84      64.9     0.29      1021.8     2.2     SSW   204   3.8     SSW   202   9.78    268      -67.3
   11/22/2018 17:50      59.7      59.1       73     50.8      0.00      0.84      64.9     0.29      1021.7     3.0      SW   232   5.1       W   260   9.78    268      -69.6
   11/22/2018 17:40      59.7      59.3       73     50.8      0.00      0.84      64.9     0.29      1021.6     3.5      SW   216   5.5      SW   229   9.78    268      -69.8
   11/22/2018 17:30      59.9      59.3       73     50.9      0.00      0.84      64.8     0.29      1021.5     2.9     SSW   202   4.9       S   180   9.78    268      -69.8
   11/22/2018 17:20      60.1      59.6       72     50.9      0.00      0.84      64.8     0.29      1021.5     2.9     SSW   209   5.5     WSW   247   9.78    267      -69.9
   11/22/2018 17:10      60.4      59.8       72     51.0      0.00      0.84      64.8     0.29      1021.3     3.0      SW   222   6.7     WSW   256   9.79    267      -69.2
   11/22/2018 17:00      60.7      60.2       71     50.8      0.00      0.84      64.8     0.29      1021.2     3.6      SW   233   7.6      SW   216   9.79    267      -68.7
   11/22/2018 16:50      61.1      60.3       70     50.6      0.00      0.84      64.8     0.29      1021.2     4.7      SW   232   8.1      SW   221   9.79    267      -69.4
   11/22/2018 16:40      61.5      60.7       68     50.4      0.00      0.84      64.7     0.29      1021.1     5.5      SW   236   8.9     WSW   239   9.79    267      -66.8
   11/22/2018 16:30      61.9      61.2       67     50.3      0.00      0.84      64.7     0.29      1021.1     4.7      SW   234   7.3      SW   228   9.79    266      -58.0
   11/22/2018 16:20      62.7      61.7       64     49.9      0.00      0.84      64.7     0.29      1021.0     4.9      SW   236   8.3       W   262   9.80    266      -49.5
   11/22/2018 16:10      63.2      62.4       61     49.4      0.00      0.84      64.7     0.29      1020.8     5.0      SW   233   9.3     WSW   244   9.80    266      -41.8
   11/22/2018 16:00      63.7      63.0       59     48.7      0.00      0.84      64.6     0.29      1020.7     4.8      SW   222   7.4     WSW   242   9.80    266      -21.3
   11/22/2018 15:50      64.0      63.5       57     48.4      0.00      0.84      64.6     0.29      1020.7     4.6      SW   229   8.2      SW   226   9.80    266       -0.8
   11/22/2018 15:40      65.3      63.7       55     47.6      0.00      0.84      64.5     0.29      1020.6     4.7      SW   231   8.0       W   265   9.80    266        4.2
   11/22/2018 15:30      65.2      64.7       54     47.7      0.00      0.84      64.5     0.29      1020.6     3.7     WSW   242   6.0       W   263   9.80    265       47.3
   11/22/2018 15:20      64.9      63.8       55     47.9      0.00      0.84      64.5     0.29      1020.5     4.5     WSW   238   8.5      SW   235   9.81    266       76.1
   11/22/2018 15:10      64.9      63.8       54     47.3      0.00      0.84      64.5     0.29      1020.4     5.3     SSW   213   9.8       S   189   9.81    266       53.2
   11/22/2018 15:00      65.2      64.6       53     47.3      0.00      0.84      64.4     0.29      1020.5     5.7     WSW   246  10.0     SSW   204   9.81    266      104.6
   11/22/2018 14:50      65.2      64.8       53     47.3      0.00      0.84      64.4     0.29      1020.6     5.0      SW   225   8.9     WSW   246   9.81    265      131.3
   11/22/2018 14:40      65.0      64.3       51     46.0      0.00      0.84      64.4     0.29      1020.8     4.7     WSW   239   9.1       W   260   9.81    265       86.2
   11/22/2018 14:30      65.7      64.4       51     46.1      0.00      0.84      64.3     0.29      1020.8     6.2     WSW   239  11.3     WSW   237   9.82    265       80.3
   11/22/2018 14:20      68.0      65.4       51     47.7      0.00      0.84      64.3     0.29      1020.8     5.7     WSW   244   9.8       W   261   9.82    264      108.0
   11/22/2018 14:10      67.9      66.8       49     47.7      0.00      0.84      64.3     0.29      1020.9     4.1       W   279  10.0     WSW   245   9.82    264      313.3
   11/22/2018 14:00      67.1      65.4       49     46.6      0.00      0.84      64.2     0.29      1020.9     5.1     WSW   243   9.6     WSW   254   9.82    264      326.0
   11/22/2018 13:50      65.5      64.7       50     46.2      0.00      0.84      64.2     0.29      1021.0     5.1      SW   232   8.5     WSW   242   9.82    265      114.6
   11/22/2018 13:40      66.6      65.0       50     46.3      0.00      0.84      64.2     0.29      1021.0     4.4      SW   222   7.4      SW   218   9.82    266       53.2
   11/22/2018 13:30      67.1      66.3       48     46.1      0.00      0.84      64.1     0.29      1021.0     4.6     WSW   254   8.7     WSW   254   9.83    264      243.5
   11/22/2018 13:20      67.0      66.4       48     46.4      0.00      0.84      64.1     0.29      1021.1     4.7     WSW   246  10.2       W   272   9.83    264      323.8
   11/22/2018 13:10      66.6      65.7       50     46.6      0.00      0.84      64.0     0.29      1021.0     3.8     WSW   250   6.6     WSW   254   9.83    264      233.9
   11/22/2018 13:00      66.8      65.7       49     46.9      0.00      0.84      64.0     0.29      1021.1     4.3     SSW   214   7.6     WSW   250   9.83    264      319.1
   11/22/2018 12:50      66.8      65.6       50     46.8      0.00      0.84      64.0     0.29      1021.2     3.9      SW   226   9.3      SW   236   9.83    264      352.1
   11/22/2018 12:40      66.9      65.5       50     46.9      0.00      0.84      64.0     0.29      1021.3     3.7     SSW   205   7.5     SSW   206   9.83    264      356.1
   11/22/2018 12:30      66.8      65.9       51     47.4      0.00      0.84      64.0     0.29      1021.2     3.9     WSW   240   8.2     WSW   248   9.84    264      373.0
   11/22/2018 12:20      66.3      65.4       51     46.9      0.00      0.84      64.0     0.29      1021.2     3.0     SSW   206   7.2      SW   215   9.84    265      355.5
   11/22/2018 12:10      66.9      65.2       50     46.9      0.00      0.84      64.0     0.29      1021.4     3.3     SSW   204   5.7     SSW   202   9.84    266      343.8
   11/22/2018 12:00      67.0      65.3       52     48.0      0.00      0.84      64.0     0.29      1021.6     2.1     SSW   198   7.4      SW   234   9.84    265      371.3
   11/22/2018 11:50      65.8      64.4       54     47.6      0.00      0.84      64.0     0.29      1021.7     2.8       S   180   7.0     SSW   214   9.84    265      385.2
   11/22/2018 11:40      65.0      64.3       53     47.3      0.00      0.84      63.9     0.29      1021.8     3.5     SSW   202   7.6     SSW   209   9.84    266      395.0
   11/22/2018 11:30      64.6      64.0       54     47.1      0.00      0.84      63.9     0.29      1022.2     4.0     WSW   236   7.4       W   266   9.84    266      376.7
   11/22/2018 11:20      64.3      63.5       54     47.1      0.00      0.84      63.9     0.29      1022.2     4.5      SW   234   7.8      SW   227   9.84    266      389.1
   11/22/2018 11:10      64.4      63.3       55     47.2      0.00      0.84      63.9     0.29      1022.3     4.7     SSW   206   6.7     SSW   196   9.84    266      377.9
   11/22/2018 11:00      64.4      63.1       56     47.5      0.00      0.84      63.9     0.29      1022.4     3.6     WSW   244   7.3     WNW   285   9.84    266      392.6
   11/22/2018 10:50      63.5      62.7       58     48.4      0.00      0.84      63.9     0.29      1022.4     3.5     WSW   240   6.5       W   264   9.84    267      237.7
   11/22/2018 10:40      63.2      62.6       58     48.0      0.00      0.84      64.0     0.29      1022.4     4.1      SW   226   7.0     SSW   200   9.84    267      361.6
   11/22/2018 10:30      63.1      62.4       61     49.1      0.00      0.84      64.0     0.29      1022.3     3.4      SW   234   6.4      SW   232   9.84    266      362.1
   11/22/2018 10:20      62.4      61.5       64     49.5      0.00      0.84      64.0     0.29      1022.5     4.9     SSW   204   8.5      SW   224   9.84    267      382.0
   11/22/2018 10:10      62.2      61.6       65     50.0      0.00      0.84      64.0     0.29      1022.6     3.9      SW   226   6.9     SSW   197   9.84    267      363.0
   11/22/2018 10:00      61.7      61.1       64     49.2      0.00      0.84      64.0     0.29      1022.7     4.9      SW   235   8.0     WSW   245   9.84    268      304.9
   11/22/2018 09:50      61.4      60.9       66     49.7      0.00      0.84      64.0     0.29      1022.6     5.4     WSW   245   8.5     WSW   245   9.84    276      295.5
   11/22/2018 09:40      61.4      60.7       68     50.6      0.00      0.84      64.0     0.29      1022.4     4.4     WSW   247   8.3     WSW   239   9.84    285      253.1
   11/22/2018 09:30      61.6      60.9       70     51.6      0.00      0.84      64.1     0.29      1022.4     3.7     WSW   244   7.4      SW   227   9.84    291      297.9
   11/22/2018 09:20      62.0      61.3       72     52.4      0.00      0.84      64.0     0.29      1022.4     0.9     WNW   294   2.8       N   353   9.85    296      196.7
   11/22/2018 09:10      61.7      60.2       75     52.9      0.00      0.84      64.0     0.29      1022.3     1.2       W   261   3.6     WSW   248   9.85    299      320.2
   11/22/2018 09:00      60.3      58.6       81     53.7      0.00      0.84      64.0     0.29      1022.2     0.5     SSE   160   3.0     SSW   203   9.85    302      287.5
   11/22/2018 08:50      58.8      57.9       88     54.8      0.00      0.84      64.1     0.29      1022.1     1.5     SSE   165   3.5      SE   134   9.85    305      257.8
   11/22/2018 08:40      58.4      57.0       93     55.7      0.00      0.84      64.1     0.29      1022.1     1.6     SSE   152   2.8     SSE   162   9.85    328      260.9
   11/22/2018 08:30      57.3      56.2       94     55.0      0.00      0.84      64.1     0.29      1021.9     1.2       S   171   2.8       S   179   9.85    347      163.4
   11/22/2018 08:20      56.6      56.1       94     54.6      0.00      0.84      64.1     0.29      1022.1     0.8     SSW   200   1.4     SSW   213   9.85    352      120.2
   11/22/2018 08:10      56.3      55.7       95     54.5      0.00      0.84      64.1     0.29      1021.9     0.6     SSE   152   1.6      SE   138   9.85    355       96.0
   11/22/2018 08:00      55.9      54.7       95     53.6      0.00      0.84      64.1     0.29      1021.8     1.4       S   175   3.0       S   183   9.85    358      111.7
   11/22/2018 07:50      55.2      54.8       95     53.4      0.00      0.84      64.1     0.29      1021.5     0.5     SSE   150   1.7       S   188   9.85    360       38.1
   11/22/2018 07:40      55.1      54.6       95     53.3      0.00      0.84      64.1     0.29      1021.4     0.0     SSE   147   0.0     SSE   147   9.85    358       39.8
   11/22/2018 07:30      54.9      54.5       95     53.2      0.00      0.84      64.1     0.29      1021.4     0.6     WSW   246   1.9       W   271   9.85    360       45.4
   11/22/2018 07:20      54.9      54.5       95     53.1      0.00      0.84      64.2     0.29      1021.3     0.5     WSW   257   2.1      SW   221   9.85    361       27.9
   11/22/2018 07:10      54.6      54.1       95     52.9      0.00      0.84      64.1     0.29      1021.3     0.5     NNE    15   1.6       N     0   9.85    360       23.5
   11/22/2018 07:00      54.5      54.0       95     52.7      0.00      0.84      64.2     0.29      1021.0     0.2     NNE    29   1.3      NE    35   9.85    358        6.1
   11/22/2018 06:50      54.2      53.5       95     52.2      0.00      0.84      64.2     0.29      1020.8     0.7       W   266   2.2       W   261   9.85    356        1.8
   11/22/2018 06:40      54.0      53.6       94     52.2      0.00      0.84      64.2     0.29      1020.5     0.5       W   280   1.8      NW   314   9.85    353       -3.4
   11/22/2018 06:30      54.9      53.5       94     52.3      0.00      0.84      64.1     0.29      1020.3     0.2     WSW   258   1.3     NNW   336   9.85    345       -5.4
   11/22/2018 06:20      54.7      54.3       94     52.9      0.00      0.84      64.2     0.29      1020.2     1.0      SW   223   2.1      SW   224   9.85    336       -5.8
   11/22/2018 06:10      54.9      54.3       94     52.8      0.00      0.84      64.2     0.29      1020.0     0.0      NE    47   0.7      NE    48   9.85    330       -6.4
   11/22/2018 06:00      55.4      54.5       94     53.2      0.00      0.84      64.2     0.29      1019.9     0.2       E    91   1.1      SE   140   9.85    326       -6.9
   11/22/2018 05:50      55.7      55.0       94     53.6      0.00      0.84      64.2     0.29      1019.8     0.6      SE   140   1.5      SE   139   9.85    317       -4.8
   11/22/2018 05:40      55.7      55.3       94     53.9      0.00      0.84      64.2     0.29      1019.5     0.0      SW   229   0.7      SW   227   9.85    313       -4.1
   11/22/2018 05:30      55.8      55.3       94     53.8      0.00      0.84      64.2     0.29      1019.4     0.7       S   185   2.1       S   180   9.85    310       -4.7
   11/22/2018 05:20      55.9      55.4       94     53.9      0.00      0.84      64.2     0.29      1019.4     0.2     SSE   147   1.2      SE   135   9.85    307       -5.0
   11/22/2018 05:10      55.8      55.5       94     54.0      0.00      0.84      64.2     0.29      1019.4     0.5     ENE    67   2.1      NE    52   9.85    301       -3.4
   11/22/2018 05:00      55.8      55.5       94     54.0      0.00      0.84      64.2     0.29      1019.4     0.2      NE    51   1.2      NE    48   9.85    318       -3.1
   11/22/2018 04:50      56.0      55.5       94     53.9      0.00      0.84      64.2     0.29      1019.2     0.0     ESE   123   1.0      SE   142   9.85    321       -2.8
   11/22/2018 04:40      55.9      55.5       94     53.9      0.00      0.84      64.2     0.29      1019.1     0.2      SE   124   1.2     ESE   112   9.85    323       -2.5
   11/22/2018 04:30      55.8      55.5       94     53.9      0.00      0.84      64.2     0.29      1019.1     1.0     ENE    59   2.7     ENE    65   9.85    323       -2.7
   11/22/2018 04:20      55.9      55.4       94     53.9      0.00      0.84      64.2     0.29      1019.1     1.1     ENE    57   2.3      NE    51   9.85    324       -2.5
   11/22/2018 04:10      56.0      55.4       94     53.9      0.00      0.84      64.3     0.29      1019.3     0.7      NE    40   1.9     ENE    57   9.85    325       -2.6
   11/22/2018 04:00      55.9      55.5       94     54.0      0.00      0.84      64.2     0.29      1019.2     0.2     ENE    57   1.0     ENE    59   9.85    325       -3.0
   11/22/2018 03:50      56.3      55.6       94     54.1      0.00      0.84      64.3     0.29      1019.1     1.1     NNE    28   2.6     NNE    20   9.85    325       -2.3
   11/22/2018 03:40      56.6      56.0       94     54.4      0.00      0.84      64.3     0.29      1019.1     1.1     NNE    30   2.2      NE    47   9.85    326       -2.3
   11/22/2018 03:30      56.6      56.2       94     54.6      0.00      0.84      64.3     0.29      1019.1     0.3     ENE    70   1.3     ENE    73   9.85    329       -2.3
   11/22/2018 03:20      56.6      56.2       94     54.5      0.00      0.84      64.3     0.29      1019.1     0.6     SSE   154   1.6      SE   137   9.86    322       -2.5
   11/22/2018 03:10      56.6      56.0       94     54.4      0.00      0.84      64.3     0.29      1019.1     0.0       N     0   0.0     ENE    59   9.86    325       -2.5
   11/22/2018 03:00      56.4      56.0       94     54.3      0.00      0.84      64.3     0.29      1019.1     0.4       E    93   1.1     SSE   149   9.86    327       -2.8
   11/22/2018 02:50      56.4      55.9       94     54.3      0.00      0.84      64.3     0.29      1019.3     0.3      SE   126   1.1      SE   135   9.86    328       -3.2
   11/22/2018 02:40      56.4      56.0       94     54.3      0.00      0.84      64.3     0.29      1019.1     0.5      SE   126   1.3     SSE   157   9.87    330       -3.0
   11/22/2018 02:30      56.3      56.0       94     54.2      0.00      0.84      64.3     0.29      1019.2     0.2     ENE    64   1.0     ENE    64   9.87    333       -2.9
   11/22/2018 02:20      56.3      56.0       93     54.2      0.00      0.84      64.3     0.29      1019.3     0.7       N   358   2.1     NNW   337   9.88    339       -2.5
   11/22/2018 02:10      56.3      55.9       93     54.1      0.00      0.84      64.3     0.29      1019.1     1.5     NNW   345   2.8      NW   320   9.89    357       -2.6
   11/22/2018 02:00      56.3      55.9       93     54.1      0.01      0.84      64.3     0.29      1019.1     1.2     ENE    71   2.9     ESE   123   9.90    371       -2.8
   11/22/2018 01:50      56.3      55.9       93     54.1      0.04      0.83      64.3     0.29      1019.4     0.0       N   351   0.5      NE    37   9.90    452       -2.6
   11/22/2018 01:40      56.4      55.9       93     54.0      0.02      0.79      64.3     0.29      1019.4     0.8      NW   320   2.7     NNW   335   9.89    456       -2.8
   11/22/2018 01:30      56.3      55.9       93     54.1      0.03      0.77      64.3     0.29      1019.4     2.4       W   266   5.3       W   262   9.88    476       -2.7
   11/22/2018 01:20      56.3      55.9       93     54.0      0.02      0.74      64.3     0.29      1019.3     0.5      NW   325   1.9       W   260   9.88    413       -2.7
   11/22/2018 01:10      56.1      55.7       93     53.8      0.01      0.72      64.3     0.29      1019.3     1.0     SSE   167   2.1      SW   214   9.87    471       -2.9
   11/22/2018 01:00      56.1      55.7       92     53.7      0.02      0.71      64.3     0.29      1019.1     0.9     SSW   208   2.5      SW   216   9.87    392       -3.0
   11/22/2018 00:50      56.1      55.7       92     53.6      0.08      0.69      64.3     0.29      1019.2     0.6      SE   137   1.6      SE   139   9.86    456       -2.9
   11/22/2018 00:40      56.1      55.7       92     53.5      0.03      0.61      64.3     0.29      1019.4     0.3     WSW   257   1.4     WNW   299   9.79    452       -3.3
   11/22/2018 00:30      56.3      55.8       92     53.5      0.04      0.58      64.3     0.28      1019.4     1.2       W   263   3.0     WSW   251   9.76    461       -3.3
   11/22/2018 00:20      56.3      55.8       91     53.5      0.02      0.54      64.3     0.28      1019.4     1.6       W   275   3.4     WSW   258   9.73    444       -3.6
   11/22/2018 00:10      56.3      55.8       91     53.5      0.01      0.52      64.3     0.28      1019.4     0.3      NW   312   1.8      NW   325   9.70    442       -3.9
   11/22/2018 00:00      56.4      55.8       91     53.4      0.01      0.51      64.3     0.28      1019.5     0.8       N    11   2.4     NNE    12   9.69    434       -4.0
   11/21/2018 23:50      56.6      55.9       90     53.2      0.04      0.50      64.2     0.28      1019.7     1.6      NW   326   4.8      SW   220   9.68    452       -4.3
   11/21/2018 23:40      56.8      56.1       89     53.3      0.02      0.46      64.2     0.28      1019.6     0.7     WNW   287   4.0     SSW   206   9.66    409       -4.2
   11/21/2018 23:30      56.8      56.3       89     53.3      0.03      0.44      64.2     0.28      1019.8     0.3     WNW   302   1.5      NW   326   9.63    463       -5.1
   11/21/2018 23:20      57.0      56.4       88     53.1      0.02      0.41      64.2     0.28      1020.0     1.0      SW   217   1.7     SSW   199   9.60    426       -5.2
   11/21/2018 23:10      57.0      56.6       87     52.8      0.03      0.39      64.2     0.28      1019.9     0.9      SW   226   2.1     WSW   237   9.58    365       -5.7
   11/21/2018 23:00      57.5      56.8       86     53.0      0.01      0.36      64.2     0.28      1020.1     2.0      SW   217   3.1      SW   229   9.56    343       -6.2
   11/21/2018 22:50      57.9      57.2       86     53.3      0.01      0.35      64.2     0.28      1020.1     1.0       S   172   2.2      SE   135   9.54    334       -5.7
   11/21/2018 22:40      58.4      57.5       84     53.2      0.00      0.34      64.2     0.28      1020.1     0.6     SSE   160   1.6     SSW   208   9.54    341       -5.7
   11/21/2018 22:30      59.0      58.0       81     52.8      0.01      0.34      64.2     0.28      1020.0     0.3     ESE   102   1.8      SE   130   9.53    330       -6.1
   11/21/2018 22:20      60.5      58.7       74     51.3      0.01      0.33      64.2     0.28      1020.1     1.4      SE   140   3.8       S   178   9.53    344       -8.9
   11/21/2018 22:10      60.5      60.2       66     49.0      0.00      0.32      64.2     0.28      1020.2     1.6       S   185   3.2     SSE   164   9.51    309      -11.0
   11/21/2018 22:00      60.5      60.1       65     48.4      0.00      0.32      64.2     0.28      1020.2     0.8      SE   140   2.3     SSE   151   9.51    267      -11.6
   11/21/2018 21:50      60.4      59.9       65     48.4      0.00      0.32      64.1     0.28      1020.2     0.7       S   190   1.4       S   185   9.51    266      -11.8
   11/21/2018 21:40      60.7      60.1       65     48.6      0.00      0.32      64.1     0.28      1020.2     0.0     SSE   155   0.2     SSE   155   9.51    266      -13.1
   11/21/2018 21:30      60.5      60.1       65     48.7      0.00      0.32      64.1     0.28      1020.2     0.5     SSW   209   1.2     SSW   214   9.51    266      -12.7
   11/21/2018 21:20      60.4      60.0       66     49.0      0.00      0.32      64.1     0.28      1020.2     0.5     SSW   207   1.2     SSW   213   9.51    266      -12.2
   11/21/2018 21:10      60.4      59.9       67     49.1      0.00      0.32      64.1     0.28      1020.1     0.1      SW   231   0.7      SW   223   9.51    267      -13.3
   11/21/2018 21:00      60.5      59.9       67     49.3      0.00      0.32      64.1     0.28      1020.0     0.2     SSW   193   1.1     SSW   210   9.51    267      -15.2
   11/21/2018 20:50      60.5      60.1       67     49.1      0.00      0.32      64.1     0.28      1020.1     0.0       N     0   0.0     ENE    76   9.51    267      -14.3
   11/21/2018 20:40      60.5      60.1       67     49.2      0.00      0.32      64.1     0.28      1020.1     0.0       N     0   0.0       S   189   9.51    267      -13.2
   11/21/2018 20:30      60.6      60.2       68     49.6      0.00      0.32      64.0     0.28      1020.3     0.2       S   191   1.2     SSW   201   9.52    267      -14.2
   11/21/2018 20:20      60.7      60.2       68     49.6      0.00      0.32      64.0     0.28      1020.3     1.2       S   178   2.3      SE   131   9.52    267      -18.1
   11/21/2018 20:10      60.7      60.2       69     50.1      0.00      0.32      64.0     0.28      1020.2     1.5     SSE   149   3.0      SE   141   9.52    267      -22.4
   11/21/2018 20:00      60.9      60.4       69     50.2      0.00      0.32      64.0     0.28      1020.1     1.6       S   176   3.4       S   184   9.52    267      -27.0
   11/21/2018 19:50      61.1      60.7       67     50.0      0.00      0.32      64.0     0.28      1020.1     1.1     SSE   148   2.1      SE   131   9.52    266      -23.7
   11/21/2018 19:40      61.2      60.8       66     49.5      0.00      0.32      63.9     0.28      1020.2     0.5       S   178   1.9     SSW   195   9.52    266      -16.3
   11/21/2018 19:30      61.2      60.9       65     49.2      0.00      0.32      64.0     0.28      1020.3     0.7     SSW   194   1.8     SSW   211   9.52    266      -18.3
   11/21/2018 19:20      61.2      60.8       65     49.2      0.00      0.32      63.9     0.28      1020.2     1.6     SSW   201   2.5     SSW   193   9.52    266      -17.6
   11/21/2018 19:10      61.3      60.9       65     49.2      0.00      0.32      63.9     0.28      1020.1     1.7     SSW   201   2.5     SSW   198   9.52    266      -20.7
   11/21/2018 19:00      61.4      60.9       65     49.1      0.00      0.32      63.9     0.28      1020.0     1.7       S   183   3.5       S   186   9.52    266      -18.6
   11/21/2018 18:50      61.4      61.0       65     49.2      0.00      0.32      63.9     0.28      1020.1     1.8     SSW   193   3.2     SSW   193   9.52    266      -19.6
   11/21/2018 18:40      61.5      61.1       64     49.2      0.00      0.32      63.9     0.28      1019.9     2.0       S   183   4.5       S   173   9.52    266      -22.0
   11/21/2018 18:30      61.6      61.2       64     49.0      0.00      0.32      63.8     0.28      1019.9     2.5       S   180   4.3     SSW   196   9.52    266      -22.4
   11/21/2018 18:20      61.8      61.3       63     48.7      0.00      0.32      63.8     0.28      1019.7     2.0       S   171   4.4       S   176   9.52    266      -22.1
   11/21/2018 18:10      62.1      61.5       61     48.1      0.00      0.32      63.8     0.28      1019.6     2.5     SSE   153   4.5      SE   134   9.52    266      -21.9
   11/21/2018 18:00      62.1      61.7       59     47.5      0.00      0.32      63.7     0.28      1019.5     2.1       S   174   4.6       S   174   9.53    266      -24.0
   11/21/2018 17:50      62.4      61.9       59     47.5      0.00      0.32      63.7     0.28      1019.6     1.7       S   177   4.1       S   180   9.53    266      -26.9
   11/21/2018 17:40      62.5      62.0       58     47.3      0.00      0.32      63.7     0.28      1019.5     2.2       S   187   3.9       S   187   9.53    266      -23.0
   11/21/2018 17:30      62.6      62.2       58     47.2      0.00      0.32      63.7     0.28      1019.3     1.4       S   182   3.6     SSE   157   9.53    266      -22.7
   11/21/2018 17:20      62.9      62.3       57     47.3      0.00      0.32      63.6     0.28      1019.0     0.8     SSE   149   1.6      SE   127   9.53    266      -26.6
   11/21/2018 17:10      63.1      62.6       57     47.5      0.00      0.32      63.6     0.28      1019.1     0.9       S   177   2.7      SW   225   9.53    266      -30.0
   11/21/2018 17:00      63.1      62.7       58     47.6      0.00      0.32      63.5     0.28      1019.2     0.7     SSW   193   2.7      SW   224   9.53    266      -24.1
   11/21/2018 16:50      63.1      62.8       58     47.7      0.00      0.32      63.5     0.28      1019.2     1.0       S   181   2.9      SW   218   9.53    266      -26.7
   11/21/2018 16:40      63.3      62.8       57     47.6      0.00      0.32      63.5     0.28      1019.1     2.0     SSW   203   4.5     SSW   206   9.53    266      -35.6
   11/21/2018 16:30      64.0      63.1       56     47.4      0.00      0.32      63.5     0.28      1018.8     2.2     SSW   191   4.8       S   169   9.53    266      -48.1
   11/21/2018 16:20      64.4      63.6       53     46.7      0.00      0.32      63.4     0.28      1018.8     3.0       S   186   6.1     SSW   192   9.53    265      -42.6
   11/21/2018 16:10      65.0      64.2       52     46.6      0.00      0.32      63.4     0.28      1018.9     2.9       S   182   5.3       S   187   9.54    265      -38.2
   11/21/2018 16:00      65.5      64.8       52     46.9      0.00      0.32      63.3     0.28      1018.7     3.4       S   172   5.9     SSE   168   9.54    264      -13.4
   11/21/2018 15:50      65.4      64.7       51     46.7      0.00      0.32      63.3     0.28      1018.7     3.3       S   176   7.1     SSE   161   9.54    264       16.5
   11/21/2018 15:40      65.7      64.9       50     46.1      0.00      0.32      63.3     0.28      1018.7     3.6       S   171   6.6       S   184   9.54    264        4.0
   11/21/2018 15:30      66.2      65.4       48     45.4      0.00      0.32      63.2     0.28      1018.9     4.2     SSE   160   7.8       S   182   9.54    264       -0.8
   11/21/2018 15:20      66.6      65.9       47     45.5      0.00      0.32      63.2     0.28      1018.9     4.3       S   181   8.0     SSW   192   9.54    264       32.0
   11/21/2018 15:10      67.0      66.2       46     45.2      0.00      0.32      63.1     0.28      1018.9     4.5     SSW   199   9.9     SSW   197   9.55    263       55.2
   11/21/2018 15:00      67.7      66.7       43     44.0      0.00      0.32      63.1     0.28      1018.8     5.7       S   185  11.0     SSE   166   9.55    263       96.1
   11/21/2018 14:50      68.2      67.7       40     43.1      0.00      0.32      63.1     0.28      1018.7     4.5       S   180   9.5     SSE   160   9.55    263       94.4
   11/21/2018 14:40      69.6      68.0       39     42.8      0.00      0.32      63.0     0.28      1018.6     3.6     SSE   157   6.9     SSE   164   9.55    263       57.8
   11/21/2018 14:30      69.8      69.3       36     41.4      0.00      0.32      63.0     0.28      1018.6     2.9     SSE   148   6.6       S   184   9.55    263      162.9
   11/21/2018 14:20      70.2      69.3       37     42.1      0.00      0.32      63.0     0.28      1018.6     3.9     SSE   164   6.5       S   190   9.55    263      214.6
   11/21/2018 14:10      70.0      69.0       38     42.6      0.00      0.32      62.9     0.28      1018.6     3.8       S   177   6.7       S   184   9.55    263      250.2
   11/21/2018 14:00      70.3      68.8       36     41.7      0.00      0.32      62.9     0.28      1018.5     4.0       S   180   7.3     SSW   197   9.55    263      220.1
   11/21/2018 13:50      70.1      69.1       36     41.7      0.00      0.32      62.9     0.28      1018.5     2.2     SSE   153   5.0       S   188   9.56    263      242.0
   11/21/2018 13:40      69.7      68.6       37     41.8      0.00      0.32      62.9     0.28      1018.7     2.9      SE   139   6.5      SE   124   9.56    263      216.3
   11/21/2018 13:30      68.9      68.3       36     40.7      0.00      0.32      62.8     0.28      1018.8     2.5      SE   129   4.3     SSE   151   9.56    263      112.8
   11/21/2018 13:20      70.2      68.5       34     39.8      0.00      0.32      62.8     0.28      1018.8     2.7     ESE   114   6.1      SE   129   9.56    263       52.1
   11/21/2018 13:10      71.2      69.9       34     40.7      0.00      0.32      62.8     0.28      1018.7     2.3     ESE   106   6.3      SE   141   9.56    263      158.3
   11/21/2018 13:00      71.2      70.2       34     41.2      0.00      0.32      62.7     0.28      1018.8     2.1       E    96   3.7      NE    39   9.56    263      237.8
   11/21/2018 12:50      70.3      69.7       35     41.2      0.00      0.32      62.8     0.28      1018.9     2.7      SE   143   5.0      SE   143   9.56    263      295.8
   11/21/2018 12:40      70.5      69.2       35     40.8      0.00      0.32      62.7     0.28      1019.1     3.3     ENE    68   6.6     ENE    78   9.56    263      250.9
   11/21/2018 12:30      70.5      69.6       34     40.5      0.00      0.32      62.7     0.28      1019.3     2.1       E    79   5.9     ENE    63   9.56    263      290.0
   11/21/2018 12:20      69.8      68.7       37     41.5      0.00      0.32      62.7     0.28      1019.5     2.4       E    84   8.0     ESE   118   9.56    263      301.0
   11/21/2018 12:10      70.5      68.9       40     43.9      0.00      0.32      62.7     0.28      1019.8     2.7     NNE    18   5.2       N   355   9.56    263      304.4
   11/21/2018 12:00      70.2      69.1       41     45.2      0.00      0.32      62.6     0.28      1019.9     1.5     ENE    72   4.1     NNE    23   9.56    263      325.3
   11/21/2018 11:50      69.1      67.4       46     46.4      0.00      0.32      62.7     0.28      1020.1     1.5     NNE    25   3.4      NE    39   9.56    263      336.2
   11/21/2018 11:40      67.5      66.4       48     46.8      0.00      0.32      62.7     0.28      1020.3     2.3      NE    46   5.0      NE    45   9.56    264      340.9
   11/21/2018 11:30      67.5      66.1       50     47.5      0.00      0.32      62.6     0.28      1020.4     2.4      NE    36   4.6     NNE    31   9.56    264      346.1
   11/21/2018 11:20      66.8      66.0       52     48.3      0.00      0.32      62.7     0.28      1020.5     2.6     NNE    21   5.3       N   354   9.56    264      331.7
   11/21/2018 11:10      67.6      66.2       51     48.4      0.00      0.32      62.7     0.28      1020.8     1.5     NNW   329   4.7     NNE    23   9.56    264      334.7
   11/21/2018 11:00      66.8      65.2       54     48.5      0.00      0.32      62.7     0.28      1020.8     1.6     ENE    65   4.6     ENE    61   9.57    265      356.2
   11/21/2018 10:50      65.4      64.1       56     48.4      0.00      0.32      62.7     0.28      1020.9     1.8     NNW   342   4.1     NNE    24   9.57    265      353.3
   11/21/2018 10:40      64.8      63.2       57     48.6      0.00      0.32      62.7     0.28      1021.0     1.6     NNE    21   4.0       N     8   9.56    265      346.6
   11/21/2018 10:30      63.5      62.7       59     48.4      0.00      0.32      62.8     0.28      1021.2     1.5     NNE    30   3.4     ENE    75   9.56    266      239.5
   11/21/2018 10:20      63.4      61.5       60     48.5      0.00      0.32      62.8     0.28      1021.4     1.4     ENE    68   3.6     NNE    27   9.56    266      279.7
   11/21/2018 10:10      62.0      61.7       62     48.8      0.00      0.32      62.7     0.28      1021.6     1.7     NNE    28   3.5     NNE    18   9.56    266      205.9
   11/21/2018 10:00      61.9      61.3       63     48.9      0.00      0.32      62.8     0.28      1021.5     1.3       N   353   3.8     NNW   349   9.56    266      257.7
   11/21/2018 09:50      62.1      61.1       63     48.8      0.00      0.32      62.8     0.28      1021.6     1.1       S   175   2.2     ESE   122   9.56    266      229.8
   11/21/2018 09:40      61.9      60.2       62     47.7      0.00      0.32      62.8     0.28      1021.6     0.8      NE    48   3.4     NNE    31   9.57    266      228.9
   11/21/2018 09:30      60.9      59.4       63     47.7      0.00      0.32      62.8     0.28      1021.5     0.7      NE    49   2.6      NE    56   9.57    266      228.4
   11/21/2018 09:20      59.6      59.0       67     48.0      0.00      0.32      62.9     0.28      1021.6     1.0       N   358   2.3     NNE    20   9.57    266      209.1
   11/21/2018 09:10      59.5      57.9       67     47.7      0.00      0.32      62.9     0.28      1021.5     0.8       N     6   2.9       N   349   9.57    266      195.6
   11/21/2018 09:00      58.0      56.7       68     46.8      0.00      0.32      62.9     0.28      1021.4     1.1       N     6   2.8     NNE    18   9.57    266      180.7
   11/21/2018 08:50      56.7      56.0       68     46.1      0.00      0.32      63.0     0.28      1021.4     1.2       N     6   2.3       N     5   9.57    267      156.0
   11/21/2018 08:40      56.2      54.7       70     45.9      0.00      0.32      63.0     0.28      1021.5     0.4       N   355   1.3     NNE    16   9.57    267      140.1
   11/21/2018 08:30      55.0      54.0       71     45.5      0.00      0.32      63.0     0.28      1021.6     1.1     NNE    26   2.3     NNE    27   9.42    267      109.1
   11/21/2018 08:20      54.1      52.6       73     44.9      0.00      0.32      63.0     0.28      1021.5     0.3       N   360   1.4     NNE    12   9.42    267      108.1
   11/21/2018 08:10      52.9      51.7       78     45.9      0.00      0.32      63.1     0.28      1021.4     0.3     NNE    23   1.1      NW   315   9.42    268       89.1
   11/21/2018 08:00      51.9      48.8       84     45.5      0.00      0.32      63.1     0.28      1021.1     0.0       N     0   0.0     SSW   197   9.42    268      104.7
   11/21/2018 07:50      48.8      46.9       86     43.8      0.00      0.32      63.1     0.28      1020.9     0.0       N     0   0.0     ENE    72   9.42    260       77.2
   11/21/2018 07:40      47.1      45.9       88     43.0      0.00      0.32      63.1     0.28      1020.9     0.0       N     0   0.0     SSE   159   9.42    270       30.6
   11/21/2018 07:30      46.1      45.3       89     42.7      0.00      0.32      63.1     0.28      1020.9     0.0       N     0   0.0     SSE   159   9.42    278       13.1
   11/21/2018 07:20      45.5      44.8       90     42.2      0.00      0.32      63.2     0.28      1020.9     0.0       N     0   0.0     SSE   158   9.42    279        7.5
   11/21/2018 07:10      45.0      44.0       90     41.7      0.00      0.32      63.2     0.28      1020.8     0.0     SSE   155   0.5     SSE   153   9.42    279       -2.9
   11/21/2018 07:00      44.3      43.9       89     41.0      0.00      0.32      63.2     0.28      1020.7     0.0       N     0   0.0      SE   144   9.42    277      -11.4
   11/21/2018 06:50      44.4      43.9       89     40.9      0.00      0.32      63.3     0.28      1020.6     0.4     SSE   159   1.1      SE   142   9.42    277      -18.8
   11/21/2018 06:40      44.4      44.0       88     40.9      0.00      0.32      63.3     0.28      1020.6     0.3     SSE   161   0.9     SSE   158   9.42    274      -24.3
   11/21/2018 06:30      44.5      43.9       88     40.6      0.00      0.32      63.3     0.28      1020.6     0.0       N     0   0.0     SSE   156   9.42    271      -28.0
   11/21/2018 06:20      44.6      44.1       88     40.9      0.00      0.32      63.3     0.28      1020.5     0.0       N     0   0.0     SSE   156   9.42    268      -30.8
   11/21/2018 06:10      44.6      44.1       87     40.8      0.00      0.32      63.3     0.28      1020.3     0.0     SSE   157   0.5     SSE   156   9.42    264      -32.3
   11/21/2018 06:00      44.6      44.2       87     40.7      0.00      0.32      63.4     0.28      1020.1     0.3     SSE   163   0.8     SSE   167   9.42    261      -34.0
   11/21/2018 05:50      44.6      43.9       86     40.4      0.00      0.32      63.4     0.28      1020.0     0.3     SSE   164   0.9     SSE   160   9.42    258      -36.3
   11/21/2018 05:40      44.5      44.0       86     40.3      0.00      0.32      63.4     0.28      1020.0     0.0       N     0   0.0     SSE   161   9.43    261      -38.0
   11/21/2018 05:30      44.8      44.3       86     40.5      0.00      0.32      63.4     0.28      1019.9     0.0     SSE   161   0.4     SSE   161   9.43    258      -39.1
   11/21/2018 05:20      44.8      44.3       86     40.5      0.00      0.32      63.4     0.28      1019.9     0.4       S   174   1.0       S   181   9.43    254      -40.5
   11/21/2018 05:10      45.1      44.5       86     40.7      0.00      0.32      63.5     0.28      1020.0     0.4     SSE   148   1.5      SE   142   9.43    254      -41.6
   11/21/2018 05:00      45.1      44.3       86     40.8      0.00      0.32      63.5     0.28      1020.1     1.2      SE   145   1.9      SE   143   9.43    254      -43.0
   11/21/2018 04:50      44.8      44.3       85     40.4      0.00      0.32      63.5     0.28      1020.1     0.8     SSE   164   1.4     SSE   149   9.43    250      -45.4
   11/21/2018 04:40      45.1      44.0       83     39.6      0.00      0.32      63.5     0.28      1020.2     0.2     SSE   166   1.0     SSE   166   9.43    247      -48.9
   11/21/2018 04:30      45.3      44.9       84     40.3      0.00      0.32      63.5     0.28      1020.3     0.1     SSE   162   0.6     SSE   162   9.43    243      -48.5
   11/21/2018 04:20      45.3      44.8       83     40.0      0.00      0.32      63.6     0.28      1020.3     0.3     SSE   169   1.1       S   170   9.43    246      -47.0
   11/21/2018 04:10      45.8      44.9       81     39.9      0.00      0.32      63.6     0.28      1020.2     0.2     SSE   150   0.8      SE   141   9.43    249      -49.0
   11/21/2018 04:00      46.2      45.6       80     40.0      0.00      0.32      63.7     0.28      1020.1     0.0       N     0   0.0      SE   140   9.43    259      -49.7
   11/21/2018 03:50      46.4      45.8       79     39.9      0.00      0.32      63.6     0.28      1020.1     0.3      SE   143   1.7      SE   142   9.43    256      -46.7
   11/21/2018 03:40      46.5      46.1       78     39.8      0.00      0.32      63.7     0.28      1020.1     0.2       E    82   1.1       E    97   9.43    265      -33.2
   11/21/2018 03:30      46.7      46.1       77     39.5      0.00      0.32      63.6     0.28      1020.0     0.2     ESE   124   1.5      SE   137   9.43    267      -28.9
   11/21/2018 03:20      46.7      46.1       77     39.6      0.00      0.32      63.7     0.28      1020.0     0.3     ESE   105   2.3      SE   140   9.43    268      -35.4
   11/21/2018 03:10      46.5      46.1       76     39.1      0.00      0.32      63.7     0.28      1020.0     0.5     ENE    59   2.4      SE   139   9.43    266      -34.1
   11/21/2018 03:00      46.4      45.9       78     39.6      0.00      0.32      63.8     0.28      1019.8     0.3     SSW   214   0.9      SW   217   9.43    268      -48.8
   11/21/2018 02:50      46.2      45.8       79     40.0      0.00      0.32      63.8     0.28      1019.7     0.0       N     0   0.0       S   181   9.43    266      -30.9
   11/21/2018 02:40      46.0      45.0       80     39.6      0.00      0.32      63.8     0.28      1019.7     0.0       S   181   0.7       S   181   9.43    268       -3.4
   11/21/2018 02:30      45.4      44.9       80     39.4      0.00      0.32      63.8     0.28      1019.6     0.0     SSE   158   0.5     SSE   158   9.43    268      -26.4
   11/21/2018 02:20      45.5      45.0       80     39.6      0.00      0.32      63.8     0.28      1019.6     0.0     SSE   157   0.8     SSE   157   9.43    260      -36.9
   11/21/2018 02:10      45.2      44.9       80     39.1      0.00      0.32      63.9     0.28      1019.6     0.6     SSE   149   1.5      SE   142   9.43    256      -48.2
   11/21/2018 02:00      45.3      44.9       79     39.0      0.00      0.32      63.9     0.28      1019.6     1.1     SSE   155   1.8      SE   143   9.43    256      -50.7
   11/21/2018 01:50      45.6      45.0       78     38.8      0.00      0.32      63.9     0.28      1019.6     0.4     SSE   147   1.4      SE   142   9.43    260      -51.4
   11/21/2018 01:40      45.4      44.9       79     39.0      0.00      0.32      63.9     0.28      1019.8     0.8     SSE   169   1.6      SE   139   9.43    262      -48.7
   11/21/2018 01:30      45.6      45.0       79     39.2      0.00      0.32      63.9     0.28      1019.8     0.4     SSE   165   1.0     SSE   166   9.43    256      -46.8
   11/21/2018 01:20      46.0      45.4       81     40.0      0.00      0.32      64.0     0.28      1019.9     0.2     SSE   166   0.7     SSE   161   9.43    264      -44.1
   11/21/2018 01:10      45.9      45.3       82     40.2      0.00      0.32      63.9     0.28      1019.9     0.3     SSE   162   0.6     SSE   161   9.43    254      -44.8
   11/21/2018 01:00      46.1      45.5       81     40.3      0.00      0.32      64.0     0.28      1019.8     0.2     SSE   168   0.7     SSE   163   9.43    249      -44.8
   11/21/2018 00:50      46.1      45.5       82     40.4      0.00      0.32      64.0     0.28      1019.8     0.0       S   178   0.4       S   178   9.43    248      -45.2
   11/21/2018 00:40      45.9      45.5       83     41.0      0.00      0.32      64.0     0.28      1019.8     0.3     SSE   168   0.9     SSE   165   9.43    251      -45.1
   11/21/2018 00:30      46.1      45.6       84     41.1      0.00      0.32      64.0     0.28      1019.8     0.3     SSE   167   0.9       S   174   9.43    245      -46.4
   11/21/2018 00:20      46.3      45.9       84     41.5      0.00      0.32      64.1     0.28      1019.8     0.5     SSE   158   1.2       S   171   9.43    243      -47.4
   11/21/2018 00:10      46.6      45.9       83     41.2      0.00      0.32      64.1     0.28      1019.7     0.4     SSE   163   0.9     SSE   160   9.43    244      -49.7
   11/21/2018 00:00      46.9      46.3       82     41.3      0.00      0.32      64.1     0.28      1019.7     0.4     SSE   157   1.0      SE   145   9.43    243      -50.7
   11/20/2018 23:50      47.0      46.4       82     41.4      0.00      0.32      64.1     0.28      1019.8     0.0       S   181   0.5       S   181   9.43    246      -51.4
   11/20/2018 23:40      47.4      46.5       80     40.9      0.00      0.32      64.1     0.28      1019.7     0.1       S   187   0.8       S   180   9.43    245      -53.4
   11/20/2018 23:30      47.8      47.0       79     41.3      0.00      0.32      64.1     0.28      1019.7     0.0     SSE   150   0.4     SSE   153   9.44    248      -54.3
   11/20/2018 23:20      47.8      47.2       79     41.2      0.00      0.32      64.1     0.28      1019.6     0.8     SSW   194   1.4      SW   234   9.44    251      -54.1
   11/20/2018 23:10      48.1      47.3       79     41.6      0.00      0.32      64.1     0.28      1019.5     0.1     SSE   163   0.6     SSE   147   9.44    262      -54.3
   11/20/2018 23:00      48.1      47.8       79     41.8      0.00      0.32      64.1     0.28      1019.4     0.4     SSE   160   1.3     SSE   165   9.44    256      -55.1
   11/20/2018 22:50      48.3      47.8       78     41.4      0.00      0.32      64.2     0.28      1019.3     0.6     SSE   155   1.5      SE   146   9.44    260      -56.5
   11/20/2018 22:40      48.2      47.6       78     41.2      0.00      0.32      64.2     0.28      1019.2     0.5     SSW   204   1.3      SW   231   9.44    260      -55.9
   11/20/2018 22:30      49.0      47.8       78     41.6      0.00      0.32      64.1     0.28      1019.2     0.4     SSE   164   1.4       S   175   9.44    261      -57.3
   11/20/2018 22:20      49.0      48.4       78     42.3      0.00      0.32      64.2     0.28      1019.2     0.7     SSW   196   1.5     SSW   208   9.44    260      -57.1
   11/20/2018 22:10      49.2      48.7       78     42.3      0.00      0.32      64.1     0.28      1019.1     0.3     SSE   159   1.7      SE   136   9.44    259      -59.5
   11/20/2018 22:00      49.5      48.9       78     42.6      0.00      0.32      64.2     0.28      1019.1     1.0     SSE   154   2.0     SSE   154   9.44    259      -58.9
   11/20/2018 21:50      49.9      49.2       78     42.8      0.00      0.32      64.2     0.28      1018.9     0.6     SSE   158   1.4      SE   136   9.44    258      -59.2
   11/20/2018 21:40      50.0      49.4       78     43.0      0.00      0.32      64.2     0.28      1018.9     0.7       S   173   1.4       S   188   9.44    259      -58.0
   11/20/2018 21:30      50.5      49.7       77     43.2      0.00      0.32      64.2     0.28      1018.8     0.3       S   176   0.9       S   174   9.44    262      -58.5
   11/20/2018 21:20      50.5      50.1       77     43.3      0.00      0.32      64.2     0.28      1018.8     0.3     SSE   157   1.1       S   170   9.44    256      -59.4
   11/20/2018 21:10      50.5      49.9       76     43.0      0.00      0.32      64.2     0.28      1018.7     0.7     SSE   153   1.2      SE   141   9.44    262      -60.5
   11/20/2018 21:00      51.0      50.3       75     42.8      0.00      0.32      64.2     0.28      1018.7     0.6     SSE   164   1.5       S   189   9.44    263      -60.2
   11/20/2018 20:50      51.7      50.8       73     42.8      0.00      0.32      64.2     0.28      1018.6     0.4     SSE   162   0.9     SSE   158   9.45    264      -60.6
   11/20/2018 20:40      52.0      51.3       73     43.4      0.00      0.32      64.2     0.28      1018.6     0.2       S   169   0.7       S   191   9.45    266      -59.7
   11/20/2018 20:30      52.2      51.7       73     43.4      0.00      0.32      64.2     0.28      1018.5     0.6     SSE   150   1.3      SE   141   9.45    266      -60.8
   11/20/2018 20:20      52.7      51.9       72     43.3      0.00      0.32      64.1     0.28      1018.4     0.5       S   173   1.4       S   182   9.45    264      -61.2
   11/20/2018 20:10      52.9      52.4       71     43.4      0.00      0.32      64.1     0.28      1018.3     1.0       S   172   1.9     SSW   192   9.45    266      -61.9
   11/20/2018 20:00      52.9      52.5       69     43.0      0.00      0.32      64.1     0.28      1018.2     0.4       S   181   1.4       S   191   9.45    264      -62.8
   11/20/2018 19:50      53.3      52.6       67     42.1      0.00      0.32      64.1     0.28      1018.1     0.2     SSE   151   0.8      SE   138   9.45    266      -63.3
   11/20/2018 19:40      53.6      53.0       64     41.5      0.00      0.32      64.1     0.28      1018.0     0.3     SSE   165   1.2       S   181   9.45    265      -63.8
   11/20/2018 19:30      54.0      53.3       63     41.1      0.00      0.32      64.1     0.28      1017.9     0.6      SE   132   1.9      SE   137   9.45    266      -66.5
   11/20/2018 19:20      55.0      53.8       62     41.3      0.00      0.32      64.0     0.28      1017.8     1.2     SSE   166   1.9       S   174   9.45    266      -66.2
   11/20/2018 19:10      56.8      54.8       60     42.1      0.00      0.32      64.0     0.28      1017.6     1.5       S   175   2.3       S   178   9.45    266      -67.1
   11/20/2018 19:00      56.8      56.4       61     43.3      0.00      0.32      64.1     0.28      1017.6     1.2     SSE   161   1.8     SSE   165   9.45    266      -67.0
   11/20/2018 18:50      57.2      56.3       63     44.0      0.00      0.32      64.0     0.28      1017.5     1.6       S   171   2.3       S   173   9.45    265      -66.6
   11/20/2018 18:40      59.0      57.1       61     44.5      0.00      0.32      64.0     0.28      1017.3     1.4       S   183   2.1       S   186   9.46    265      -66.5
   11/20/2018 18:30      59.0      58.5       59     44.7      0.00      0.32      64.0     0.28      1017.2     1.4     SSW   192   2.1     SSW   200   9.46    265      -66.6
   11/20/2018 18:20      58.9      58.3       57     43.5      0.00      0.32      63.9     0.28      1017.1     1.4       S   186   2.1     SSW   211   9.46    265      -67.8
   11/20/2018 18:10      59.8      58.5       56     43.3      0.00      0.32      63.9     0.28      1016.9     1.8       S   180   2.5       S   170   9.46    264      -68.5
   11/20/2018 18:00      60.9      59.5       55     44.0      0.00      0.32      63.8     0.28      1016.8     1.3     SSW   202   2.0     SSW   199   9.46    264      -67.6
   11/20/2018 17:50      62.1      60.7       53     44.1      0.00      0.32      63.8     0.28      1016.7     0.4      SW   227   2.5      SW   227   9.46    264      -71.2
   11/20/2018 17:40      62.3      61.6       54     45.0      0.00      0.32      63.8     0.28      1016.5     2.6     WSW   239   4.1      SW   227   9.46    264      -73.3
   11/20/2018 17:30      61.9      59.9       46     39.9      0.00      0.32      63.8     0.28      1016.4     2.1      SW   236   3.6       W   263   9.46    264      -71.0
   11/20/2018 17:20      61.5      59.9       38     34.6      0.00      0.32      63.7     0.28      1016.3     1.2       S   182   2.8      SW   226   9.47    263      -72.4
   11/20/2018 17:10      62.7      61.3       36     34.6      0.00      0.32      63.7     0.28      1016.2     1.3     SSW   206   2.3     SSW   214   9.47    263      -73.8
   11/20/2018 17:00      64.0      62.5       35     34.8      0.00      0.32      63.7     0.28      1016.2     0.7      SW   236   1.9     WSW   246   9.47    263      -75.0
   11/20/2018 16:50      65.5      63.9       33     35.2      0.00      0.32      63.6     0.28      1016.1     0.7       S   189   1.9       S   180   9.47    262      -75.0
   11/20/2018 16:40      66.5      65.2       33     35.6      0.00      0.32      63.6     0.28      1016.1     1.1     SSW   197   2.5       S   176   9.47    263      -72.6
   11/20/2018 16:30      67.2      66.2       32     35.8      0.00      0.32      63.5     0.28      1016.0     2.0     SSW   198   4.3       S   186   9.48    262      -69.8
   11/20/2018 16:20      68.3      67.0       31     36.0      0.00      0.32      63.5     0.28      1015.9     2.6     SSW   201   4.7     SSW   195   9.48    262      -65.9
   11/20/2018 16:10      69.3      68.1       30     35.9      0.00      0.32      63.5     0.28      1015.8     2.7       S   189   4.7      SW   214   9.48    262      -50.9
   11/20/2018 16:00      70.0      68.8       29     35.4      0.00      0.32      63.4     0.28      1015.6     2.9       S   178   5.8     SSW   195   9.48    262      -30.9
   11/20/2018 15:50      70.2      69.7       28     35.3      0.00      0.32      63.4     0.28      1015.6     3.0       S   185   7.7       S   190   9.48    261      -12.9
   11/20/2018 15:40      71.0      69.8       28     35.5      0.00      0.32      63.3     0.28      1015.5     4.2       S   169   7.6     SSW   192   9.48    262        7.3
   11/20/2018 15:30      71.6      70.7       27     35.8      0.00      0.32      63.3     0.28      1015.4     4.6       S   186   8.4       S   170   9.49    262       28.1
   11/20/2018 15:20      72.4      71.3       27     36.4      0.00      0.32      63.3     0.28      1015.4     4.5       S   181   7.9       S   189   9.49    261       49.0
   11/20/2018 15:10      73.6      72.0       28     37.5      0.00      0.32      63.2     0.28      1015.3     4.0       S   186   6.3     SSW   203   9.49    261       65.9
   11/20/2018 15:00      74.9      73.2       27     37.8      0.00      0.32      63.2     0.28      1015.3     3.4       S   175   6.5       S   189   9.49    261       83.3
   11/20/2018 14:50      75.7      74.6       25     37.5      0.00      0.32      63.1     0.28      1015.3     1.6     SSW   199   4.9     SSE   149   9.49    261       99.9
   11/20/2018 14:40      74.9      74.1       26     37.0      0.00      0.32      63.1     0.28      1015.3     1.7     NNW   339   3.8      NW   306   9.49    261      117.2
   11/20/2018 14:30      76.3      74.7       25     36.8      0.00      0.32      63.1     0.28      1015.3     1.9       N   358   3.8     NNW   327   9.49    261      136.3
   11/20/2018 14:20      76.2      74.5       25     36.7      0.00      0.32      63.0     0.28      1015.3     0.7      NE    38   3.0      NW   304   9.49    261      157.2
   11/20/2018 14:10      74.8      74.2       26     36.9      0.00      0.32      63.0     0.28      1015.3     2.1       N     5   4.5      NE    44   9.49    261      176.1
   11/20/2018 14:00      75.4      74.1       25     36.7      0.00      0.32      63.0     0.28      1015.4     2.3       N    11   4.0     NNE    23   9.49    261      193.7
   11/20/2018 13:50      75.4      74.9       24     36.4      0.00      0.32      63.0     0.28      1015.5     1.5      NW   325   3.5      NW   310   9.50    261      209.9
   11/20/2018 13:40      75.4      74.1       25     36.5      0.00      0.32      62.9     0.28      1015.7     1.2       S   180   2.7     ENE    67   9.50    261      222.7
   11/20/2018 13:30      74.8      73.9       24     35.4      0.00      0.32      62.9     0.28      1015.7     1.8       N     2   4.3     NNW   341   9.50    261      236.2
   11/20/2018 13:20      75.8      74.1       24     36.0      0.00      0.32      62.9     0.28      1015.7     1.6     ESE   109   3.1       N     6   9.50    261      251.1
   11/20/2018 13:10      75.6      74.2       24     35.7      0.00      0.32      62.8     0.28      1015.9     1.1       N     6   3.1      NE    36   9.50    260      260.6
   11/20/2018 13:00      74.5      73.3       24     34.8      0.00      0.32      62.8     0.28      1016.0     1.8     SSW   214   3.5       S   170   9.50    261      275.0
   11/20/2018 12:50      74.9      73.9       23     34.0      0.00      0.32      62.8     0.28      1016.0     1.8      NE    42   4.4     ENE    60   9.50    261      282.2
   11/20/2018 12:40      74.9      73.2       22     33.2      0.00      0.32      62.8     0.28      1016.1     1.4       W   265   3.3      NW   323   9.50    261      289.4
   11/20/2018 12:30      74.3      73.5       22     32.6      0.00      0.32      62.8     0.28      1016.2     1.6     NNE    15   4.7     NNE    33   9.50    261      299.7
   11/20/2018 12:20      74.8      73.2       21     31.8      0.00      0.32      62.8     0.28      1016.4     1.5     NNE    32   5.0     ESE   114   9.50    261      306.3
   11/20/2018 12:10      73.5      72.3       21     30.8      0.00      0.32      62.7     0.28      1016.5     1.3       N     9   3.4       E    83   9.50    261      311.8
   11/20/2018 12:00      72.7      72.3       20     28.5      0.00      0.32      62.8     0.28      1016.7     1.7     NNE    19   3.4      NE    53   9.50    261      314.2
   11/20/2018 11:50      73.5      72.5       19     27.9      0.00      0.32      62.7     0.28      1017.0     1.9       N   351   4.8       N     3   9.50    261      313.5
   11/20/2018 11:40      73.3      72.1       19     28.1      0.00      0.32      62.7     0.28      1017.1     1.7     NNW   337   4.5     NNW   343   9.50    261      317.1
   11/20/2018 11:30      72.1      71.2       19     27.4      0.00      0.32      62.8     0.28      1017.3     1.2     NNE    17   4.4     NNE    30   9.50    261      316.1
   11/20/2018 11:20      71.7      71.0       19     27.3      0.00      0.32      62.8     0.28      1017.4     1.6     ENE    74   4.0     ENE    63   9.50    261      318.0
   11/20/2018 11:10      71.3      70.5       19     26.6      0.00      0.32      62.8     0.28      1017.7     1.2      NE    51   3.2     NNE    24   9.50    261      318.0
   11/20/2018 11:00      71.2      69.8       19     26.2      0.00      0.32      62.8     0.28      1017.8     1.1       N   358   3.1     NNE    22   9.50    261      315.7
   11/20/2018 10:50      70.0      69.2       19     25.5      0.00      0.32      62.8     0.28      1017.8     1.5     NNE    22   3.5       N   355   9.50    261      310.9
   11/20/2018 10:40      69.3      68.7       18     24.1      0.00      0.32      62.9     0.28      1018.0     1.6     NNE    28   3.9      NE    37   9.50    261      306.8
   11/20/2018 10:30      69.2      68.3       19     24.6      0.00      0.32      62.8     0.28      1018.0     1.5     NNE    27   3.3      NE    49   9.50    261      301.5
   11/20/2018 10:20      68.9      67.4       20     25.6      0.00      0.32      62.9     0.28      1018.1     1.0     NNE    29   3.5      NE    48   9.50    262      295.4
   11/20/2018 10:10      67.7      66.9       22     27.2      0.00      0.32      62.9     0.28      1018.1     1.6     ENE    71   3.8       E    94   9.50    262      284.6
   11/20/2018 10:00      68.2      67.0       24     29.1      0.00      0.32      62.9     0.28      1018.1     1.4     NNE    28   4.1     NNE    13   9.50    262      274.8
   11/20/2018 09:50      67.3      66.2       25     29.6      0.00      0.32      63.0     0.28      1018.1     1.0      NE    44   3.1       E    99   9.50    262      262.9
   11/20/2018 09:40      66.5      65.4       27     31.3      0.00      0.32      63.0     0.28      1018.0     0.8      NE    52   2.5       E    91   9.50    263      251.5
   11/20/2018 09:30      65.6      63.9       29     31.6      0.00      0.32      63.0     0.28      1018.1     0.7     ENE    62   1.9     ESE   115   9.50    263      237.1
   11/20/2018 09:20      64.0      62.5       29     30.9      0.00      0.32      63.1     0.28      1018.0     0.8       E    79   2.4     ESE   107   9.50    263      222.2
   11/20/2018 09:10      62.6      61.0       31     31.3      0.00      0.32      63.1     0.28      1017.9     0.9       E    81   2.7     ESE   105   9.50    263      208.1
   11/20/2018 09:00      61.1      60.1       36     33.2      0.00      0.32      63.1     0.28      1017.8     1.3      NE    45   2.2      NE    40   9.50    264      194.8
   11/20/2018 08:50      60.3      58.8       41     35.5      0.00      0.32      63.2     0.28      1017.8     0.5      NE    41   1.9     NNE    21   9.50    264      178.7
   11/20/2018 08:40      58.9      57.8       42     35.2      0.00      0.32      63.2     0.28      1017.7     0.4     NNE    32   1.2       N     0   9.50    264      162.9
   11/20/2018 08:30      58.0      56.6       42     34.4      0.00      0.32      63.3     0.28      1017.6     0.0     NNE    20   0.7     NNE    12   9.50    264      146.2
   11/20/2018 08:20      56.7      55.7       42     33.1      0.00      0.32      63.3     0.28      1017.5     0.0       N    11   0.6       N     0   9.50    264      128.8
   11/20/2018 08:10      55.7      52.6       43     32.3      0.00      0.32      63.3     0.28      1017.5     0.0       E    88   0.3       E    90   9.50    264      111.0
   11/20/2018 08:00      52.8      51.3       44     30.8      0.00      0.32      63.3     0.28      1017.4     0.0     ENE    66   0.6     ENE    66   9.50    264       92.4
   11/20/2018 07:50      51.5      47.9       48     30.6      0.00      0.32      63.4     0.28      1017.3     0.0       N     0   0.0       S   189   9.50    265       70.9
   11/20/2018 07:40      48.0      46.0       52     30.2      0.00      0.32      63.4     0.28      1017.2     0.1       S   189   0.6       S   189   9.50    266        8.8
   11/20/2018 07:30      46.4      44.5       56     30.8      0.00      0.32      63.5     0.28      1017.1     0.1       S   187   0.7       S   187   9.50    266      -16.5
   11/20/2018 07:20      44.7      42.1       60     30.4      0.00      0.32      63.5     0.28      1017.0     0.4     SSE   161   1.1     SSE   163   9.50    266      -28.6
   11/20/2018 07:10      42.3      41.0       60     28.7      0.00      0.32      63.5     0.28      1016.9     0.0       S   173   0.7       S   175   9.50    266      -32.2
   11/20/2018 07:00      41.5      40.8       64     29.7      0.00      0.32      63.5     0.28      1016.9     0.3     SSE   158   1.1       S   171   9.50    267      -38.2
   11/20/2018 06:50      41.5      41.0       61     28.6      0.00      0.32      63.5     0.28      1016.7     0.0       S   174   0.8       S   174   9.50    267      -42.1
   11/20/2018 06:40      41.5      40.8       63     29.4      0.00      0.32      63.6     0.28      1016.6     0.2       S   174   0.8       S   174   9.50    267      -46.8
   11/20/2018 06:30      41.4      40.7       62     28.9      0.00      0.32      63.6     0.28      1016.6     0.4     SSE   155   1.1     SSE   154   9.50    267      -49.6
   11/20/2018 06:20      41.2      40.7       67     30.8      0.00      0.32      63.6     0.28      1016.5     0.4     SSE   152   1.2     SSE   152   9.50    267      -51.6
   11/20/2018 06:10      41.2      40.6       68     31.1      0.00      0.32      63.7     0.28      1016.4     0.0       N     0   0.0     SSE   152   9.50    266      -51.5
   11/20/2018 06:00      41.3      40.7       65     30.4      0.00      0.32      63.7     0.28      1016.3     0.7     SSE   159   1.4     SSE   147   9.50    266      -52.0
   11/20/2018 05:50      41.4      40.7       66     30.6      0.00      0.32      63.7     0.28      1016.3     0.0       S   187   0.2       S   187   9.50    267      -52.0
   11/20/2018 05:40      41.5      41.0       68     31.5      0.00      0.32      63.8     0.28      1016.3     0.1     SSE   164   0.6     SSE   168   9.50    267      -52.1
   11/20/2018 05:30      41.4      41.0       67     31.1      0.00      0.32      63.8     0.28      1016.2     0.3       S   178   1.2     SSE   157   9.50    266      -51.6
   11/20/2018 05:20      41.7      41.0       66     30.9      0.00      0.32      63.8     0.28      1016.2     0.2     SSE   160   0.7     SSE   160   9.50    266      -53.0
   11/20/2018 05:10      41.8      41.2       65     30.6      0.00      0.32      63.8     0.28      1016.2     0.1     SSE   165   0.8       S   172   9.50    266      -52.1
   11/20/2018 05:00      42.0      41.4       66     30.9      0.00      0.32      63.8     0.28      1016.2     0.0     SSE   162   0.6     SSE   162   9.50    267      -52.4
   11/20/2018 04:50      42.0      41.6       64     30.4      0.00      0.32      63.9     0.28      1016.2     0.0     SSE   163   0.5     SSE   162   9.50    266      -52.4
   11/20/2018 04:40      42.5      41.7       68     32.0      0.00      0.32      63.9     0.28      1016.2     0.0       N     0   0.0     SSE   168   9.50    267      -52.0
   11/20/2018 04:30      42.6      42.2       69     32.9      0.00      0.32      63.9     0.28      1016.3     0.2     SSE   164   1.2     SSE   162   9.51    267      -52.5
   11/20/2018 04:20      42.5      42.1       69     32.9      0.00      0.32      63.9     0.28      1016.3     0.3     SSE   163   1.2     SSE   160   9.51    266      -52.9
   11/20/2018 04:10      42.7      42.0       70     33.3      0.00      0.32      64.0     0.28      1016.3     0.0       S   184   0.5       S   184   9.51    266      -53.7
   11/20/2018 04:00      42.9      42.3       71     34.0      0.00      0.32      64.0     0.28      1016.4     0.2     SSE   159   0.9       S   180   9.51    266      -54.5
   11/20/2018 03:50      42.8      42.5       71     33.8      0.00      0.32      64.0     0.28      1016.4     0.7     SSE   159   1.2     SSE   161   9.51    266      -54.8
   11/20/2018 03:40      43.2      42.5       69     33.1      0.00      0.32      64.1     0.28      1016.5     0.3     SSE   162   1.4     SSE   152   9.51    266      -55.2
   11/20/2018 03:30      43.5      42.6       67     32.8      0.00      0.32      64.1     0.28      1016.5     0.5     SSE   158   1.2     SSE   168   9.51    266      -55.5
   11/20/2018 03:20      43.9      43.1       63     31.8      0.00      0.32      64.0     0.28      1016.5     0.2     SSE   153   1.1     SSE   150   9.51    266      -54.8
   11/20/2018 03:10      44.2      43.5       65     33.1      0.00      0.32      64.1     0.28      1016.5     0.1     SSE   163   0.9     SSE   163   9.51    266      -54.6
   11/20/2018 03:00      44.2      43.6       66     33.1      0.00      0.32      64.2     0.28      1016.5     0.2     SSE   156   1.0     SSE   163   9.51    266      -54.4
   11/20/2018 02:50      44.6      43.9       63     32.6      0.00      0.32      64.2     0.28      1016.5     0.0     SSE   149   0.6      SE   145   9.51    266      -55.2
   11/20/2018 02:40      44.8      44.2       62     32.0      0.00      0.32      64.1     0.28      1016.5     0.0     SSE   161   0.8     SSE   159   9.51    266      -55.1
   11/20/2018 02:30      45.1      44.5       65     33.7      0.00      0.32      64.2     0.28      1016.5     0.0       N     0   0.0     SSE   155   9.51    266      -55.2
   11/20/2018 02:20      45.4      44.8       64     33.8      0.00      0.32      64.2     0.28      1016.5     0.2     SSE   155   0.7     SSE   155   9.51    266      -55.0
   11/20/2018 02:10      45.7      45.1       64     33.9      0.00      0.32      64.3     0.28      1016.5     0.2     SSE   169   0.9       S   183   9.51    266      -55.6
   11/20/2018 02:00      46.1      45.4       63     33.6      0.00      0.32      64.2     0.28      1016.5     0.0       N     0   0.0     SSE   162   9.52    266      -56.2
   11/20/2018 01:50      46.2      45.8       62     33.7      0.00      0.32      64.3     0.28      1016.5     0.0     SSE   162   0.2     SSE   162   9.52    266      -56.1
   11/20/2018 01:40      46.6      45.9       59     32.7      0.00      0.32      64.3     0.28      1016.6     0.1       S   186   0.7       S   187   9.52    266      -55.3
   11/20/2018 01:30      47.1      46.2       59     33.2      0.00      0.32      64.3     0.28      1016.6     0.3     SSE   152   0.9     SSE   153   9.52    265      -54.7
   11/20/2018 01:20      47.1      46.6       56     31.8      0.00      0.32      64.3     0.28      1016.7     0.4     SSE   159   0.9     SSE   160   9.52    265      -51.7
   11/20/2018 01:10      47.5      46.8       56     31.9      0.00      0.32      64.3     0.28      1016.8     0.0     SSE   165   0.0     SSE   165   9.52    265      -47.6
   11/20/2018 01:00      47.5      47.1       57     32.7      0.00      0.32      64.3     0.28      1016.9     0.0     SSE   155   0.6     SSE   156   9.52    265      -44.9
   11/20/2018 00:50      47.7      47.0       55     31.8      0.00      0.32      64.4     0.28      1017.0     0.2     SSE   148   0.8     SSE   148   9.52    265      -45.2
   11/20/2018 00:40      48.1      47.4       54     31.6      0.00      0.32      64.4     0.28      1017.0     0.0     SSE   158   0.6     SSE   161   9.52    264      -46.8
   11/20/2018 00:30      48.4      47.7       51     30.7      0.00      0.32      64.4     0.28      1017.1     0.7     SSE   163   1.4     SSE   152   9.52    265      -46.1
   11/20/2018 00:20      48.7      48.2       50     30.7      0.00      0.32      64.4     0.28      1017.1     0.3     SSE   168   1.6       S   176   9.52    264      -42.6
   11/20/2018 00:10      49.4      48.3       50     30.8      0.00      0.32      64.4     0.28      1017.2     0.0       S   174   0.8       S   175   9.52    264      -41.6
   11/20/2018 00:00      49.6      49.2       49     30.8      0.00      0.32      64.5     0.28      1017.2     0.3       N   355   1.3       N     3   9.52    264      -43.0
   11/19/2018 23:50      49.6      48.7       49     30.7      0.00      0.32      64.5     0.28      1017.3     0.9     SSE   161   1.7      SE   141   9.52    264      -46.6
   11/19/2018 23:40      49.0      48.3       49     30.6      0.00      0.32      64.5     0.28      1017.4     1.3     SSE   159   2.3      SE   139   9.52    264      -50.4
   11/19/2018 23:30      49.0      48.3       50     30.8      0.00      0.32      64.5     0.28      1017.5     1.1     SSE   154   1.7      SE   138   9.52    264      -54.3
   11/19/2018 23:20      49.5      48.8       49     30.8      0.00      0.32      64.5     0.28      1017.5     1.1     SSE   154   1.9     SSE   147   9.53    264      -56.3
   11/19/2018 23:10      49.8      49.0       47     30.1      0.00      0.32      64.5     0.28      1017.7     0.6     SSE   163   1.3      SE   144   9.53    264      -58.5
   11/19/2018 23:00      50.0      49.5       44     28.8      0.00      0.32      64.6     0.28      1017.7     1.6     SSE   155   2.3       S   184   9.53    264      -58.8
   11/19/2018 22:50      50.2      49.6       43     28.2      0.00      0.32      64.5     0.28      1017.7     0.6       S   171   1.5     SSW   194   9.53    264      -58.0
   11/19/2018 22:40      50.6      50.0       41     27.4      0.00      0.32      64.5     0.28      1017.7     0.1       S   186   0.7     SSW   193   9.53    264      -57.7
   11/19/2018 22:30      51.0      50.3       39     26.8      0.00      0.32      64.6     0.28      1017.7     0.0       N     0   0.0       S   183   9.53    264      -56.3
   11/19/2018 22:20      51.4      50.8       41     28.5      0.00      0.32      64.6     0.28      1017.7     0.2     SSE   165   1.1     SSE   153   9.53    264      -53.2
   11/19/2018 22:10      51.2      50.8       42     28.8      0.00      0.32      64.5     0.28      1017.6     0.7     SSE   162   1.3     SSE   168   9.53    264      -49.9
   11/19/2018 22:00      51.3      50.8       42     28.8      0.00      0.32      64.6     0.28      1017.6     0.6     SSE   152   1.1     SSE   159   9.53    264      -48.3
   11/19/2018 21:50      51.3      50.7       42     28.5      0.00      0.32      64.6     0.28      1017.6     1.0     SSE   150   1.8     SSE   154   9.54    264      -51.9
   11/19/2018 21:40      51.3      50.6       40     27.3      0.00      0.32      64.6     0.28      1017.5     0.4       S   182   1.3       S   181   9.54    264      -54.4
   11/19/2018 21:30      51.9      51.1       40     27.6      0.00      0.32      64.6     0.28      1017.4     0.4       S   171   0.9     SSW   196   9.54    264      -56.2
   11/19/2018 21:20      52.4      51.6       39     27.7      0.00      0.32      64.6     0.28      1017.3     0.3     SSE   153   1.0     SSE   161   9.54    264      -56.0
   11/19/2018 21:10      53.2      52.1       38     28.0      0.00      0.32      64.6     0.28      1017.2     0.3     SSE   155   1.1       S   171   9.54    264      -54.8
   11/19/2018 21:00      53.5      52.9       37     27.9      0.00      0.32      64.6     0.28      1017.2     0.6     SSE   153   1.1     SSE   153   9.54    264      -53.8
   11/19/2018 20:50      53.7      52.9       35     26.6      0.00      0.32      64.6     0.28      1017.1     0.2     SSE   165   1.1     SSE   165   9.54    264      -52.4
   11/19/2018 20:40      54.2      53.4       36     27.6      0.00      0.32      64.6     0.28      1017.0     0.2     SSE   162   0.9     SSE   154   9.54    264      -52.9
   11/19/2018 20:30      54.7      53.8       34     26.2      0.00      0.32      64.6     0.28      1017.0     0.4      SE   142   1.1      SE   137   9.54    264      -53.3
   11/19/2018 20:20      55.1      54.3       34     26.4      0.00      0.32      64.6     0.28      1016.9     0.2     SSE   164   0.9     SSE   165   9.55    264      -53.7
   11/19/2018 20:10      55.4      54.6       34     27.4      0.00      0.32      64.6     0.28      1016.9     0.0      SW   236   0.6      SW   236   9.55    264      -53.6
   11/19/2018 20:00      55.7      55.1       35     28.0      0.00      0.32      64.5     0.28      1016.8     1.0     SSE   146   2.0      SE   133   9.55    264      -56.4
   11/19/2018 19:50      56.0      55.4       35     28.1      0.00      0.32      64.5     0.28      1016.7     0.9     SSE   156   1.7      SE   139   9.55    264      -58.1
   11/19/2018 19:40      56.6      55.7       35     28.5      0.00      0.32      64.5     0.28      1016.6     0.6     SSE   157   1.3     SSE   158   9.55    264      -57.9
   11/19/2018 19:30      56.9      56.4       33     28.2      0.00      0.32      64.5     0.28      1016.6     1.7      SE   146   3.1      SE   142   9.55    264      -55.7
   11/19/2018 19:20      56.9      56.0       34     28.5      0.00      0.32      64.5     0.28      1016.5     1.5     SSE   150   2.6      SE   136   9.55    264      -55.1
   11/19/2018 19:10      57.4      56.5       34     29.0      0.00      0.32      64.5     0.28      1016.5     1.4     SSE   151   3.4      SE   139   9.55    264      -58.8
   11/19/2018 19:00      57.7      57.2       34     29.3      0.00      0.32      64.5     0.28      1016.4     1.5     SSE   148   2.4     SSE   157   9.55    264      -61.4
   11/19/2018 18:50      58.3      57.5       33     28.7      0.00      0.32      64.5     0.28      1016.4     1.3     SSE   149   2.3     SSE   149   9.55    263      -60.8
   11/19/2018 18:40      58.7      58.0       32     28.4      0.00      0.32      64.5     0.28      1016.4     1.0     SSE   155   1.9      SE   144   9.56    264      -57.6
   11/19/2018 18:30      59.0      58.3       32     28.8      0.00      0.32      64.5     0.28      1016.4     1.5     SSE   149   3.4      SE   142   9.56    263      -55.0
   11/19/2018 18:20      59.3      58.6       32     28.8      0.00      0.32      64.4     0.28      1016.4     1.1     SSE   156   2.1      SE   133   9.56    263      -54.6
   11/19/2018 18:10      59.6      58.8       32     29.4      0.00      0.32      64.4     0.28      1016.3     1.4     SSE   151   3.4      SE   141   9.56    263      -52.4
   11/19/2018 18:00      59.8      59.2       35     31.7      0.00      0.32      64.4     0.28      1016.2     1.0     SSE   148   1.6      SE   144   9.56    264      -45.8
   11/19/2018 17:50      59.9      59.4       35     31.9      0.00      0.32      64.3     0.28      1016.3     1.6      SE   146   2.4      SE   144   9.56    263      -41.4
   11/19/2018 17:40      60.2      59.5       36     32.5      0.00      0.32      64.3     0.28      1016.3     1.1     SSE   154   1.6     SSE   147   9.57    264      -46.2
   11/19/2018 17:30      60.8      59.9       36     33.3      0.00      0.32      64.3     0.28      1016.2     1.4     SSE   151   2.5      SE   138   9.57    264      -56.9
   11/19/2018 17:20      61.7      60.3       35     33.0      0.00      0.32      64.3     0.28      1016.2     0.8     SSE   162   1.6     SSE   158   9.57    263      -62.3
   11/19/2018 17:10      62.7      61.4       36     35.0      0.00      0.32      64.3     0.28      1016.2     1.1     SSE   153   2.3      SE   140   9.57    263      -67.3
   11/19/2018 17:00      64.4      62.5       34     34.3      0.00      0.32      64.2     0.28      1016.2     0.9     SSE   151   2.2      SE   143   9.57    263      -66.7
   11/19/2018 16:50      66.1      64.2       33     35.4      0.00      0.32      64.2     0.28      1016.1     0.7     SSE   158   1.4      SE   140   9.57    263      -61.6
   11/19/2018 16:40      66.8      65.7       31     34.6      0.00      0.32      64.2     0.28      1016.1     0.1     SSE   159   0.9     SSE   156   9.58    263      -51.5
   11/19/2018 16:30      68.1      66.6       32     36.4      0.00      0.32      64.1     0.28      1016.2     0.4     SSE   155   1.3      SE   140   9.58    263      -33.9
   11/19/2018 16:20      70.0      68.0       28     34.5      0.00      0.32      64.1     0.28      1016.1     0.6      SE   146   1.7      SE   144   9.58    262      -20.9
   11/19/2018 16:10      70.6      69.7       27     34.6      0.00      0.32      64.0     0.28      1016.1     0.0     NNW   331   0.1     NNW   331   9.58    262      -13.5
   11/19/2018 16:00      70.9      70.5       25     32.9      0.00      0.32      64.0     0.28      1016.1     0.0       S   183   0.4       S   183   9.58    262       -7.3
   11/19/2018 15:50      70.7      69.1       26     33.5      0.00      0.32      64.0     0.28      1016.2     0.8       S   180   1.2       S   175   9.58    261       24.9
   11/19/2018 15:40      70.8      69.0       28     34.9      0.00      0.32      64.0     0.28      1016.2     0.8     SSE   148   1.8      SE   144   9.58    262        7.9
   11/19/2018 15:30      71.2      70.7       25     32.9      0.00      0.32      63.9     0.28      1016.2     0.0     SSE   152   0.5     SSE   152   9.58    262       -3.1
   11/19/2018 15:20      71.0      70.2       23     31.3      0.00      0.32      63.9     0.28      1016.2     0.0       N     0   0.0       S   175   9.58    262       19.9
   11/19/2018 15:10      70.8      70.0       24     32.1      0.00      0.32      63.9     0.28      1016.3     0.1     SSE   163   0.8      SE   142   9.58    262        9.1
   11/19/2018 15:00      70.8      70.3       23     31.0      0.00      0.32      63.8     0.28      1016.3     0.3     ESE   115   1.5      SE   143   9.59    262        5.7
   11/19/2018 14:50      71.7      70.6       22     30.4      0.00      0.32      63.8     0.28      1016.3     0.5      SE   139   1.5      SE   140   9.59    262        6.5
   11/19/2018 14:40      71.8      71.2       20     28.2      0.00      0.32      63.8     0.28      1016.4     0.7     ESE   112   1.9      SE   134   9.59    261       18.7
   11/19/2018 14:30      72.2      71.5       19     27.1      0.00      0.32      63.8     0.28      1016.4     0.5      SE   128   1.6      SE   131   9.59    261       30.2
   11/19/2018 14:20      72.0      71.6       18     26.4      0.00      0.32      63.7     0.28      1016.3     0.5     NNE    22   1.3       N   350   9.59    261       34.3
   11/19/2018 14:10      72.0      71.6       18     26.1      0.00      0.32      63.7     0.28      1016.4     0.9     NNE    32   1.9     NNE    17   9.59    261       32.5
   11/19/2018 14:00      72.1      71.6       18     25.4      0.00      0.32      63.7     0.28      1016.5     1.0     NNE    31   2.6      NE    41   9.59    261       46.9
   11/19/2018 13:50      72.2      71.7       18     25.7      0.00      0.32      63.6     0.28      1016.6     1.0      NE    51   2.0      NE    44   9.60    261       56.5
   11/19/2018 13:40      72.1      71.7       17     25.3      0.00      0.32      63.6     0.28      1016.6     1.3      NE    39   2.5      NE    48   9.60    261       60.3
   11/19/2018 13:30      72.0      71.5       17     25.0      0.00      0.32      63.7     0.28      1016.7     1.3      NE    37   3.1      NE    40   9.60    261       56.9
   11/19/2018 13:20      72.3      71.7       17     24.6      0.00      0.32      63.6     0.28      1016.7     1.7      NE    49   3.2      NE    47   9.60    261       59.8
   11/19/2018 13:10      72.2      71.7       17     24.7      0.00      0.32      63.6     0.28      1016.7     1.7     NNE    22   3.2      NE    54   9.60    261      104.1
   11/19/2018 13:00      72.5      71.9       17     25.2      0.00      0.32      63.6     0.28      1016.9     1.2      NE    44   3.1      NE    39   9.60    261      113.6
   11/19/2018 12:50      72.4      71.7       17     25.1      0.00      0.32      63.5     0.28      1017.0     1.6     ENE    64   3.2      NE    46   9.60    261       75.6
   11/19/2018 12:40      72.9      72.1       17     24.9      0.00      0.32      63.6     0.28      1017.1     1.6     ENE    74   3.2     ESE   122   9.60    261       89.6
   11/19/2018 12:30      72.8      72.1       17     24.6      0.00      0.32      63.5     0.28      1017.2     1.0      NE    56   2.4       E    92   9.61    261      101.9
   11/19/2018 12:20      72.5      72.1       16     24.0      0.00      0.32      63.5     0.28      1017.3     1.8     ENE    60   3.7     ENE    72   9.61    261      125.0
   11/19/2018 12:10      72.9      72.1       16     23.5      0.00      0.32      63.5     0.28      1017.5     1.9      NE    55   4.3      NE    44   9.61    261      136.8
   11/19/2018 12:00      72.8      72.2       17     24.8      0.00      0.32      63.5     0.28      1017.7     2.0      NE    46   3.5      NE    41   9.61    261      188.8
   11/19/2018 11:50      72.5      71.2       17     25.1      0.00      0.32      63.5     0.28      1017.8     1.5      NE    55   3.0      NE    54   9.61    261      255.3
   11/19/2018 11:40      71.5      70.9       18     25.3      0.00      0.32      63.5     0.28      1018.0     1.3       E    94   3.6     ENE    71   9.61    262      151.4
   11/19/2018 11:30      71.5      71.0       18     25.7      0.00      0.32      63.5     0.28      1018.2     0.8     ESE   103   2.2      SE   130   9.62    262      101.6
   11/19/2018 11:20      72.0      71.2       17     24.4      0.00      0.32      63.5     0.28      1018.3     0.9     ENE    68   2.9     ENE    75   9.62    262       76.7
   11/19/2018 11:10      72.7      71.7       19     27.4      0.00      0.32      63.5     0.28      1018.5     1.1      NE    49   2.1     ESE   119   9.62    262      129.4
   11/19/2018 11:00      72.5      70.2       22     30.9      0.00      0.32      63.5     0.28      1018.6     0.8      NE    52   2.4       E    93   9.62    261      342.2
   11/19/2018 10:50      70.6      69.3       25     32.3      0.00      0.32      63.5     0.28      1018.8     0.8       N     8   2.4     NNW   333   9.62    262      294.7
   11/19/2018 10:40      69.6      67.0       26     32.2      0.00      0.32      63.6     0.28      1018.9     0.5       E    86   2.1     ENE    72   9.62    262      298.8
   11/19/2018 10:30      67.1      65.7       27     31.1      0.00      0.32      63.6     0.28      1019.0     0.6      NE    44   2.8      NE    50   9.62    263      151.9
   11/19/2018 10:20      67.0      66.0       26     30.8      0.00      0.32      63.6     0.28      1019.0     1.2     NNE    19   1.8       N     8   9.63    263       91.9
   11/19/2018 10:10      67.0      65.6       27     31.4      0.00      0.32      63.6     0.28      1019.0     0.7       N     6   1.9       N     2   9.63    263      210.5
   11/19/2018 10:00      65.8      64.3       31     33.7      0.00      0.32      63.6     0.28      1019.2     0.4       N     5   1.4       N     5   9.63    263      261.6
   11/19/2018 09:50      64.5      63.4       33     33.9      0.00      0.32      63.7     0.28      1019.2     0.1     NNW   336   0.9     NNE    26   9.63    264      130.1
   11/19/2018 09:40      63.5      61.9       36     35.5      0.00      0.32      63.7     0.28      1019.2     0.0     NNE    13   0.7     NNW   339   9.63    264      149.2
   11/19/2018 09:30      62.1      60.9       39     36.5      0.00      0.32      63.7     0.28      1019.2     0.3     WNW   285   1.0       W   266   9.63    264      129.4
   11/19/2018 09:20      61.1      58.6       42     36.9      0.00      0.32      63.8     0.28      1019.2     0.4     NNE    15   1.4     NNW   337   9.64    264      190.5
   11/19/2018 09:10      58.6      57.3       47     37.7      0.00      0.32      63.8     0.28      1019.2     0.9       N     4   1.8       N   355   9.64    264      201.5
   11/19/2018 09:00      57.5      55.9       49     37.6      0.00      0.32      63.8     0.28      1019.1     0.0     NNW   342   1.0     NNW   346   9.64    264      109.4
   11/19/2018 08:50      56.0      55.3       51     37.6      0.00      0.32      63.8     0.28      1019.0     0.2      NE    49   1.4      NE    52   9.64    265       87.2
   11/19/2018 08:40      55.4      54.1       47     35.2      0.00      0.32      63.8     0.28      1018.9     0.0       N     0   0.0       N     6   9.64    265       79.5
   11/19/2018 08:30      54.3      52.5       49     34.9      0.00      0.32      63.9     0.28      1018.9     0.0       N     6   0.1       N     6   9.33    265       74.8
   11/19/2018 08:20      52.6      51.1       52     34.9      0.00      0.32      63.9     0.28      1018.8     0.0      SE   138   0.4      SE   138   9.33    266       60.0
   11/19/2018 08:10      51.4      50.1       53     34.0      0.00      0.32      64.0     0.28      1018.7     0.2      NE    49   0.8      NE    37   9.33    266       45.7
   11/19/2018 08:00      50.1      48.5       54     33.1      0.00      0.32      64.0     0.28      1018.6     0.2       N   350   1.1       N     7   9.33    266       36.5
   11/19/2018 07:50      48.6      47.4       56     33.2      0.00      0.32      64.0     0.28      1018.4     0.0     SSE   159   0.5       S   169   9.33    266       23.4
   11/19/2018 07:40      47.5      46.4       58     32.9      0.00      0.32      64.0     0.28      1018.2     0.0      SE   144   0.8      SE   144   9.33    266       12.8
   11/19/2018 07:30      46.5      45.9       58     32.0      0.00      0.32      64.1     0.28      1018.2     0.4     SSE   154   1.1     SSE   151   9.33    266        2.3
   11/19/2018 07:20      46.1      45.3       57     31.5      0.00      0.32      64.1     0.28      1018.2     0.0       S   181   0.8     SSE   152   9.33    266       -8.0
   11/19/2018 07:10      45.6      45.2       58     31.6      0.00      0.32      64.1     0.28      1018.2     0.0       N     0   0.0       E    86   9.33    266      -13.5
   11/19/2018 07:00      45.5      44.5       58     31.1      0.00      0.32      64.2     0.28      1018.1     0.2     SSE   160   1.0     SSE   151   9.33    266      -19.5
   11/19/2018 06:50      44.6      43.7       59     30.6      0.00      0.32      64.2     0.28      1018.0     0.8       S   190   1.8     SSW   196   9.33    266      -27.5
   11/19/2018 06:40      44.5      43.9       59     30.8      0.00      0.32      64.2     0.28      1018.1     0.4     ESE   120   1.4      SE   133   9.33    266      -33.4
   11/19/2018 06:30      44.3      43.9       58     30.2      0.00      0.32      64.2     0.28      1018.0     0.0       S   182   0.6       S   182   9.33    266      -33.1
   11/19/2018 06:20      44.2      43.3       60     30.8      0.00      0.32      64.3     0.28      1017.9     0.2     SSE   161   0.8     SSE   149   9.33    266      -36.5
   11/19/2018 06:10      43.8      43.2       61     31.0      0.00      0.32      64.3     0.28      1017.9     0.0      SE   139   0.9      SE   137   9.33    266      -38.7
   11/19/2018 06:00      44.4      43.5       61     31.2      0.00      0.32      64.3     0.28      1017.9     0.5     SSE   153   1.5      SE   142   9.33    266      -40.1
   11/19/2018 05:50      44.2      43.5       60     30.9      0.00      0.32      64.3     0.28      1017.9     0.0     SSW   203   0.5     SSW   205   9.33    266      -41.5
   11/19/2018 05:40      43.9      43.3       61     31.1      0.00      0.32      64.3     0.28      1017.8     0.8       S   179   2.0      SE   143   9.33    266      -42.8
   11/19/2018 05:30      44.0      43.5       62     31.4      0.00      0.32      64.4     0.28      1017.7     0.1      SE   128   1.4      SE   133   9.33    266      -44.2
   11/19/2018 05:20      43.9      43.4       63     32.0      0.00      0.32      64.4     0.28      1017.7     0.3     SSE   155   1.6      SE   146   9.33    266      -45.8
   11/19/2018 05:10      44.3      43.6       61     31.4      0.00      0.32      64.4     0.28      1017.6     0.3     SSE   153   1.6     SSE   152   9.33    266      -48.2
   11/19/2018 05:00      44.4      43.6       60     31.0      0.00      0.32      64.5     0.28      1017.6     0.6       S   185   1.5       S   180   9.33    266      -49.7
   11/19/2018 04:50      44.6      44.0       59     31.0      0.00      0.32      64.5     0.28      1017.6     0.3      SE   132   1.3     ENE    65   9.33    266      -51.3
   11/19/2018 04:40      44.6      44.0       61     31.8      0.00      0.32      64.5     0.28      1017.6     0.5       S   170   1.4     SSW   191   9.33    266      -53.1
   11/19/2018 04:30      44.8      44.0       64     32.7      0.00      0.32      64.5     0.28      1017.6     0.0     SSW   194   0.7     SSW   194   9.33    266      -53.9
   11/19/2018 04:20      45.1      44.4       63     32.8      0.00      0.32      64.6     0.28      1017.6     0.0       N     0   0.0       N     5   9.33    266      -52.4
   11/19/2018 04:10      45.1      44.7       61     32.4      0.00      0.32      64.6     0.28      1017.6     0.6      SE   131   1.4      SE   140   9.34    266      -49.3
   11/19/2018 04:00      45.0      44.5       61     32.0      0.00      0.32      64.6     0.28      1017.6     0.7       S   178   1.2     SSE   153   9.33    266      -46.6
   11/19/2018 03:50      45.3      44.5       62     32.6      0.00      0.32      64.6     0.28      1017.6     0.0     SSE   157   0.5     SSE   157   9.33    266      -48.6
   11/19/2018 03:40      45.7      44.9       63     33.1      0.00      0.32      64.7     0.28      1017.6     0.2     SSE   154   0.9     SSE   150   9.33    266      -50.7
   11/19/2018 03:30      46.0      45.4       62     33.6      0.00      0.32      64.7     0.28      1017.6     0.5     SSE   165   1.0     SSE   164   9.34    266      -51.0
   11/19/2018 03:20      45.9      45.3       65     34.3      0.00      0.32      64.7     0.28      1017.6     0.2       S   191   0.9     SSW   192   9.34    266      -50.2
   11/19/2018 03:10      46.1      45.5       66     35.0      0.00      0.32      64.7     0.28      1017.7     0.2     SSE   166   0.9      SE   146   9.34    266      -50.0
   11/19/2018 03:00      46.2      45.8       66     35.2      0.00      0.32      64.8     0.28      1017.7     0.3     SSE   160   1.2      SE   140   9.34    266      -49.9
   11/19/2018 02:50      46.1      45.8       69     36.4      0.00      0.32      64.8     0.28      1017.8     0.7     SSE   153   1.8      SE   141   9.34    266      -52.0
   11/19/2018 02:40      46.3      45.8       68     36.1      0.00      0.32      64.8     0.28      1017.9     0.8     SSE   161   1.2      SE   140   9.34    266      -53.0
   11/19/2018 02:30      46.6      46.0       66     35.6      0.00      0.32      64.8     0.28      1017.9     0.4     SSE   160   1.0     SSE   166   9.34    266      -53.0
   11/19/2018 02:20      47.0      46.3       66     35.8      0.00      0.32      64.9     0.28      1017.9     0.1       S   190   0.9     SSW   198   9.34    266      -53.1
   11/19/2018 02:10      46.9      46.6       67     36.4      0.00      0.32      64.9     0.28      1017.9     0.5     SSE   163   1.3     SSW   196   9.34    266      -52.2
   11/19/2018 02:00      47.3      46.5       66     36.2      0.00      0.32      64.9     0.28      1017.9     0.4     SSE   159   1.1      SE   139   9.34    266      -51.8
   11/19/2018 01:50      47.5      46.8       67     36.6      0.00      0.32      64.9     0.28      1017.9     0.5     SSW   211   1.2      SW   216   9.34    266      -50.8
   11/19/2018 01:40      48.0      47.2       66     36.5      0.00      0.32      64.9     0.28      1018.0     0.0       N     0   0.0      SE   144   9.34    266      -50.0
   11/19/2018 01:30      48.1      47.7       66     37.1      0.00      0.32      64.9     0.28      1018.0     0.2     SSE   151   0.8      SE   144   9.34    266      -48.5
   11/19/2018 01:20      48.1      47.6       65     36.9      0.00      0.32      64.9     0.28      1018.0     0.3     SSE   165   0.9     SSE   165   9.34    266      -50.0
   11/19/2018 01:10      48.5      47.8       66     37.3      0.00      0.32      65.0     0.28      1018.0     0.2       S   172   0.9       S   171   9.34    266      -50.8
   11/19/2018 01:00      48.2      47.7       66     37.0      0.00      0.32      65.0     0.28      1018.1     0.6       S   169   1.2     SSE   158   9.34    266      -49.9
   11/19/2018 00:50      48.3      47.8       65     36.8      0.00      0.32      65.0     0.28      1018.1     0.3      SE   141   1.7      SE   141   9.34    266      -50.4
   11/19/2018 00:40      48.3      47.8       65     36.7      0.00      0.32      65.0     0.28      1018.2     0.5     SSE   160   1.1      SE   146   9.34    266      -49.5
   11/19/2018 00:30      48.7      48.0       63     36.3      0.00      0.32      65.1     0.28      1018.2     0.1     SSE   158   0.7     SSE   159   9.34    266      -50.1
   11/19/2018 00:20      49.1      48.4       62     36.3      0.00      0.32      65.0     0.28      1018.2     0.3     SSE   155   1.4     SSE   148   9.34    266      -52.1
   11/19/2018 00:10      49.2      48.8       60     35.7      0.00      0.32      65.1     0.28      1018.3     0.9      SE   145   2.6      SE   142   9.34    266      -53.3
   11/19/2018 00:00      49.2      48.7       57     34.5      0.00      0.32      65.1     0.28      1018.3     0.4       S   181   1.8      SE   141   9.35    266      -53.6
   11/18/2018 23:50      49.4      48.9       57     34.5      0.00      0.32      65.1     0.28      1018.4     0.9     SSE   147   1.6      SE   138   9.35    266      -54.4
   11/18/2018 23:40      49.0      48.7       57     34.3      0.00      0.32      65.1     0.28      1018.3     1.1     SSE   148   2.0      SE   136   9.35    266      -55.6
   11/18/2018 23:30      49.3      48.8       56     34.0      0.00      0.32      65.2     0.28      1018.3     0.8     SSE   157   1.5     SSE   153   9.35    266      -55.8
   11/18/2018 23:20      49.9      49.0       55     34.1      0.00      0.32      65.2     0.28      1018.3     0.0     SSE   149   0.6     SSE   148   9.35    266      -56.5
   11/18/2018 23:10      50.3      49.7       54     34.1      0.00      0.32      65.1     0.28      1018.2     0.4     SSE   158   0.9     SSE   150   9.35    266      -57.6
   11/18/2018 23:00      50.8      49.9       55     34.5      0.00      0.32      65.2     0.28      1018.1     0.0      NE    49   0.5      NE    49   9.35    266      -57.6
   11/18/2018 22:50      51.1      50.5       55     35.0      0.00      0.32      65.2     0.28      1018.1     0.2      SE   125   1.3      SE   136   9.35    265      -59.7
   11/18/2018 22:40      51.2      50.8       56     35.8      0.00      0.32      65.2     0.28      1018.1     1.1     SSE   149   1.9      SE   139   9.35    266      -59.7
   11/18/2018 22:30      51.3      51.0       57     36.1      0.00      0.32      65.2     0.28      1018.0     1.0     SSE   151   1.9     SSE   150   9.35    266      -60.7
   11/18/2018 22:20      51.5      50.7       58     36.5      0.00      0.32      65.2     0.28      1018.0     1.2     SSE   154   2.1     SSE   166   9.35    266      -60.9
   11/18/2018 22:10      51.4      51.0       58     36.9      0.00      0.32      65.2     0.28      1018.1     1.5      SE   140   2.9     SSE   147   9.35    266      -61.5
   11/18/2018 22:00      51.3      51.0       58     36.7      0.00      0.32      65.2     0.28      1018.0     0.8     SSE   161   2.1     SSE   147   9.35    265      -60.3
   11/18/2018 21:50      52.2      51.1       57     36.6      0.00      0.32      65.3     0.28      1018.0     0.7     SSE   158   1.4      SE   142   9.35    265      -59.9
   11/18/2018 21:40      52.4      51.8       55     36.5      0.00      0.32      65.2     0.28      1018.0     0.5     SSE   163   1.7      SE   141   9.36    265      -58.2
   11/18/2018 21:30      52.4      51.9       56     36.9      0.00      0.32      65.3     0.28      1017.9     0.4       S   174   1.0     SSE   168   9.36    265      -58.4
   11/18/2018 21:20      53.0      51.7       56     37.0      0.00      0.32      65.3     0.28      1017.9     0.5     SSE   156   1.2      SE   145   9.36    265      -59.4
   11/18/2018 21:10      53.2      52.5       54     36.8      0.00      0.32      65.3     0.28      1017.8     0.0       N     0   0.0       S   178   9.36    265      -59.5
   11/18/2018 21:00      53.6      52.7       55     37.3      0.00      0.32      65.3     0.28      1017.7     0.4       S   175   1.1       S   178   9.36    265      -59.3
   11/18/2018 20:50      53.8      53.3       54     37.4      0.00      0.32      65.3     0.28      1017.6     0.5       S   179   1.9       S   188   9.36    265      -59.3
   11/18/2018 20:40      53.8      53.2       56     38.0      0.00      0.32      65.3     0.28      1017.5     0.5       S   169   1.2       S   171   9.36    265      -59.7
   11/18/2018 20:30      54.3      53.5       53     37.3      0.00      0.32      65.2     0.28      1017.3     0.1     SSE   156   0.7     SSE   150   9.36    264      -60.4
   11/18/2018 20:20      54.3      54.0       52     37.0      0.00      0.32      65.3     0.28      1017.2     0.2     SSE   161   1.0     SSW   192   9.36    264      -59.5
   11/18/2018 20:10      54.6      54.0       51     36.4      0.00      0.32      65.2     0.28      1017.0     0.6     SSE   160   1.1     SSE   147   9.36    264      -60.1
   11/18/2018 20:00      55.1      54.1       51     36.6      0.00      0.32      65.2     0.28      1017.0     0.4     SSE   154   1.3     SSE   149   9.37    264      -60.9
   11/18/2018 19:50      55.4      54.8       47     35.4      0.00      0.32      65.2     0.28      1017.0     0.4     SSE   158   1.4     SSE   161   9.37    264      -60.9
   11/18/2018 19:40      55.7      55.0       46     34.9      0.00      0.32      65.2     0.28      1016.9     0.4       S   177   1.0     SSE   169   9.37    264      -61.6
   11/18/2018 19:30      55.8      55.3       46     34.9      0.00      0.32      65.2     0.28      1016.9     0.5       S   177   2.1     SSW   194   9.37    264      -62.7
   11/18/2018 19:20      56.3      55.4       44     34.5      0.00      0.32      65.2     0.28      1016.8     0.2     SSE   165   1.0       S   184   9.37    264      -64.5
   11/18/2018 19:10      56.8      56.0       44     34.7      0.00      0.32      65.2     0.28      1016.7     0.4     SSE   151   1.4      SE   135   9.37    264      -65.1
   11/18/2018 19:00      57.4      56.6       43     34.5      0.00      0.32      65.1     0.28      1016.6     0.4     SSE   160   1.1       S   182   9.37    264      -65.7
   11/18/2018 18:50      57.9      56.9       42     34.4      0.00      0.32      65.1     0.28      1016.6     0.3     SSW   212   1.3     SSW   212   9.37    264      -66.5
   11/18/2018 18:40      58.5      57.7       41     34.5      0.00      0.32      65.1     0.28      1016.5     0.3     SSE   153   1.2      SE   143   9.38    264      -67.5
   11/18/2018 18:30      59.0      58.2       41     34.9      0.00      0.32      65.1     0.28      1016.5     0.9     SSE   150   1.9     SSE   153   9.38    264      -69.3
   11/18/2018 18:20      59.8      58.6       40     34.9      0.00      0.32      65.1     0.28      1016.4     1.3     SSE   148   2.0      SE   142   9.38    264      -70.4
   11/18/2018 18:10      60.2      59.5       38     34.4      0.00      0.32      65.0     0.28      1016.3     1.0     SSE   154   1.7     SSE   153   9.38    264      -70.4
   11/18/2018 18:00      60.8      59.8       39     34.9      0.00      0.32      65.0     0.28      1016.2     1.4     SSE   151   2.3      SE   141   9.38    264      -71.8
   11/18/2018 17:50      61.8      60.4       37     34.7      0.00      0.32      65.0     0.28      1016.1     1.4     SSE   148   2.2     SSE   152   9.38    263      -73.1
   11/18/2018 17:40      61.9      61.3       37     34.9      0.00      0.32      65.0     0.28      1016.1     0.4       S   172   1.5      SE   142   9.38    263      -74.3
   11/18/2018 17:30      62.4      61.6       39     36.4      0.00      0.32      64.9     0.28      1016.0     1.4     SSE   147   2.2      SE   143   9.39    263      -75.6
   11/18/2018 17:20      63.7      62.1       38     36.6      0.00      0.32      64.9     0.28      1016.0     1.0     SSE   161   2.0     SSE   153   9.39    263      -76.7
   11/18/2018 17:10      65.2      63.3       36     36.8      0.00      0.32      64.8     0.28      1015.9     1.3     SSE   147   2.4      SE   145   9.39    263      -77.8
   11/18/2018 17:00      66.2      64.9       34     36.3      0.00      0.32      64.8     0.28      1015.9     1.0     SSE   151   1.8     SSE   160   9.39    263      -79.6
   11/18/2018 16:50      68.5      65.9       31     35.3      0.00      0.32      64.8     0.28      1015.9     0.6     SSE   168   1.5       S   175   9.39    262      -77.5
   11/18/2018 16:40      70.1      68.2       28     34.4      0.00      0.32      64.8     0.28      1015.8     0.4       S   182   0.9     SSW   193   9.39    262      -69.7
   11/18/2018 16:30      72.8      69.8       25     33.4      0.00      0.32      64.7     0.28      1015.8     0.5     SSE   153   1.5      SE   143   9.40    262      -56.4
   11/18/2018 16:20      74.7      72.6       21     31.9      0.00      0.32      64.7     0.28      1015.9     0.0     SSE   159   0.5     SSE   157   9.40    261      -47.6
   11/18/2018 16:10      74.8      74.2       20     30.8      0.00      0.32      64.7     0.28      1015.9     0.0     ESE   120   0.4     ESE   103   9.40    261      -39.9
   11/18/2018 16:00      75.0      74.2       18     28.8      0.00      0.32      64.6     0.28      1015.9     1.1       E    83   2.8     ENE    77   9.40    261      -27.6
   11/18/2018 15:50      75.7      74.8       17     27.8      0.00      0.32      64.6     0.28      1015.9     1.5       E    94   3.1      SE   133   9.40    261      -26.7
   11/18/2018 15:40      75.8      75.2       17     27.6      0.00      0.32      64.6     0.28      1015.9     2.0      SE   125   3.5      SE   124   9.40    261       25.8
   11/18/2018 15:30      75.6      74.8       17     26.7      0.00      0.32      64.5     0.28      1015.9     2.0      SE   135   3.9      SE   127   9.41    261       54.4
   11/18/2018 15:20      75.7      75.0       17     26.9      0.00      0.32      64.5     0.28      1015.8     3.0      SE   127   4.6       E    93   9.41    261       69.2
   11/18/2018 15:10      75.6      74.9       17     27.3      0.00      0.32      64.4     0.28      1015.9     2.6     ESE   103   4.7      SE   130   9.41    261       96.1
   11/18/2018 15:00      76.5      75.3       17     28.6      0.00      0.32      64.4     0.28      1015.9     2.4      SE   135   4.8      SE   137   9.41    261       93.6
   11/18/2018 14:50      76.5      75.3       15     25.5      0.00      0.32      64.4     0.28      1015.9     1.0       E    83   2.2     ESE   109   9.41    261      103.0
   11/18/2018 14:40      76.1      75.3       15     24.2      0.00      0.32      64.3     0.28      1016.0     0.9     ENE    73   1.8     ENE    78   9.41    261       31.9
   11/18/2018 14:30      77.0      75.7       16     26.9      0.00      0.32      64.3     0.28      1016.0     1.7     ENE    75   3.3       E    95   9.41    261       22.7
   11/18/2018 14:20      77.7      76.6       18     29.7      0.00      0.32      64.2     0.28      1016.1     1.0     ENE    64   2.4     ENE    72   9.41    261       61.5
   11/18/2018 14:10      77.6      76.4       19     30.8      0.00      0.32      64.2     0.28      1016.2     1.2       E    95   3.4      SE   138   9.42    261      129.6
   11/18/2018 14:00      77.3      76.3       19     31.3      0.00      0.32      64.2     0.28      1016.2     1.4     ESE   104   3.4      SE   131   9.42    261      188.4
   11/18/2018 13:50      77.6      76.3       19     31.0      0.00      0.32      64.2     0.28      1016.3     1.6       E    90   3.0      NE    38   9.42    261      234.1
   11/18/2018 13:40      77.6      75.3       19     31.1      0.00      0.32      64.1     0.28      1016.4     0.7       N   356   2.2     NNE    26   9.42    261      276.1
   11/18/2018 13:30      75.4      74.6       21     31.9      0.00      0.32      64.1     0.28      1016.5     1.3     ESE   120   3.6      SE   140   9.42    261      169.0
   11/18/2018 13:20      76.9      74.7       20     32.0      0.00      0.32      64.1     0.28      1016.5     1.5      NE    56   4.9       E    95   9.42    261       63.5
   11/18/2018 13:10      76.8      75.3       19     30.6      0.00      0.32      64.1     0.28      1016.6     1.6       E    96   4.0     ESE   107   9.42    261      232.7
   11/18/2018 13:00      76.2      75.3       20     31.4      0.00      0.32      64.0     0.28      1016.8     1.3     NNE    26   3.3       E    95   9.42    261      289.0
   11/18/2018 12:50      76.9      75.5       20     32.3      0.00      0.32      64.0     0.28      1016.9     1.9       N   352   4.2     NNE    29   9.42    261      297.6
   11/18/2018 12:40      76.7      74.7       23     35.0      0.00      0.32      64.0     0.28      1017.0     0.8     WNW   293   2.7     NNW   339   9.42    261      301.5
   11/18/2018 12:30      75.1      74.2       25     36.3      0.00      0.32      64.0     0.28      1017.1     1.2      NW   319   4.1       W   276   9.42    261      306.6
   11/18/2018 12:20      75.0      73.9       27     38.0      0.00      0.32      64.0     0.28      1017.3     1.7       N     2   4.1       N     0   9.42    262      312.6
   11/18/2018 12:10      75.0      74.1       26     37.8      0.00      0.32      64.0     0.28      1017.5     1.1     NNW   343   3.2     NNW   347   9.42    262      321.7
   11/18/2018 12:00      74.7      73.1       27     37.8      0.00      0.32      64.0     0.28      1017.7     0.8     WNW   304   2.8      NE    34   9.42    262      329.6
   11/18/2018 11:50      73.4      72.5       28     37.6      0.00      0.32      64.0     0.28      1017.9     1.0      NE    48   3.0      NE    38   9.42    262      329.1
   11/18/2018 11:40      73.2      71.4       28     37.1      0.00      0.32      64.0     0.28      1018.1     1.0     ESE   102   2.6     ESE   116   9.42    263      330.6
   11/18/2018 11:30      71.6      70.3       32     39.4      0.00      0.32      64.0     0.28      1018.3     1.2     NNE    28   3.5     NNE    25   9.42    263      331.0
   11/18/2018 11:20      71.2      69.8       33     40.0      0.00      0.32      64.0     0.28      1018.5     1.3      NE    35   3.5     NNE    22   9.42    263      329.3
   11/18/2018 11:10      69.9      68.6       35     40.0      0.00      0.32      64.0     0.28      1018.6     1.3       E    99   3.5     ENE    60   9.42    263      328.6
   11/18/2018 11:00      68.8      68.2       37     40.9      0.00      0.32      64.0     0.28      1018.8     1.9      NE    47   4.5       N     2   9.42    263      322.8
   11/18/2018 10:50      69.5      68.2       37     41.4      0.00      0.32      64.0     0.28      1018.9     1.6      NE    46   4.5     ENE    77   9.42    264      319.7
   11/18/2018 10:40      68.1      67.0       40     42.1      0.00      0.32      64.0     0.28      1019.0     1.0     NNE    18   3.0      NE    47   9.42    264      316.4
   11/18/2018 10:30      67.3      66.5       41     42.6      0.00      0.32      64.0     0.28      1019.1     1.2       N     2   4.1     NNE    20   9.42    264      307.9
   11/18/2018 10:20      66.8      65.7       44     43.4      0.00      0.32      64.1     0.28      1019.1     1.4     NNE    13   3.1     NNE    15   9.42    264      302.4
   11/18/2018 10:10      66.0      64.1       47     44.2      0.00      0.32      64.1     0.28      1019.2     1.0     NNW   346   3.0     NNW   331   9.42    265      293.4
   11/18/2018 10:00      64.5      63.9       50     45.0      0.00      0.32      64.1     0.28      1019.3     1.6     NNW   344   3.5     NNE    17   9.42    266      284.1
   11/18/2018 09:50      64.2      63.3       50     44.7      0.00      0.32      64.1     0.28      1019.5     1.1       N     5   3.4     NNE    21   9.42    266      274.0
   11/18/2018 09:40      63.4      61.3       53     45.0      0.00      0.32      64.1     0.28      1019.5     0.9       E   100   2.4      SE   128   9.42    266      258.8
   11/18/2018 09:30      61.6      59.4       59     46.1      0.00      0.32      64.2     0.28      1019.6     1.4     SSE   164   2.7       S   184   9.42    266      268.3
   11/18/2018 09:20      59.4      57.8       65     46.6      0.00      0.32      64.2     0.28      1019.5     1.7     SSE   160   3.6       S   182   9.42    267      204.8
   11/18/2018 09:10      57.8      55.4       70     47.0      0.00      0.32      64.2     0.28      1019.5     0.3     WSW   254   1.2       W   262   9.42    267      131.7
   11/18/2018 09:00      55.7      54.1       74     46.6      0.00      0.32      64.2     0.28      1019.6     0.4     WSW   254   1.6       W   269   9.42    268      116.0
   11/18/2018 08:50      54.2      53.0       77     46.5      0.00      0.32      64.2     0.28      1019.8     0.3      SW   236   1.2     SSW   204   9.42    268       94.4
   11/18/2018 08:40      53.1      52.5       80     46.8      0.00      0.32      64.3     0.28      1019.7     1.1       N   355   2.2     NNE    19   9.42    268       79.3
   11/18/2018 08:30      52.8      51.9       83     47.4      0.00      0.32      64.3     0.28      1019.8     0.4       N     8   1.6     NNE    15   9.42    267       72.6
   11/18/2018 08:20      52.0      51.0       84     46.9      0.00      0.32      64.3     0.28      1019.9     0.0       N     0   0.0     NNW   328   9.42    266       61.2
   11/18/2018 08:10      51.0      49.9       86     46.5      0.00      0.32      64.3     0.28      1020.0     1.1       S   186   2.3       S   177   9.42    265       55.7
   11/18/2018 08:00      50.1      49.4       88     46.4      0.00      0.32      64.3     0.28      1019.9     0.5       S   175   1.4       S   183   9.42    277       54.1
   11/18/2018 07:50      49.5      48.7       90     46.0      0.00      0.32      64.3     0.28      1019.9     0.4     NNE    18   1.2     NNE    16   9.42    292       57.0
   11/18/2018 07:40      48.8      47.9       90     45.4      0.00      0.32      64.4     0.28      1019.8     0.1     SSW   203   0.8     SSW   196   9.42    308       36.6
   11/18/2018 07:30      48.5      48.0       90     45.3      0.00      0.32      64.4     0.28      1019.8     0.1     ENE    74   0.7       E    83   9.42    314       20.9
   11/18/2018 07:20      48.5      47.3       91     45.5      0.00      0.32      64.4     0.28      1019.8     0.3      SE   137   1.2      SE   139   9.42    316       18.1
   11/18/2018 07:10      47.4      46.2       91     44.3      0.00      0.32      64.4     0.28      1019.7     0.4      SE   144   1.4      SE   139   9.42    315       10.2
   11/18/2018 07:00      46.7      45.4       91     43.5      0.00      0.32      64.5     0.28      1019.5     1.0     SSW   201   1.3     SSW   203   9.42    312       -1.5
   11/18/2018 06:50      46.7      45.6       90     43.4      0.00      0.32      64.5     0.28      1019.5     0.1       E    89   0.8     ENE    65   9.42    309      -11.0
   11/18/2018 06:40      47.0      46.4       91     44.1      0.00      0.32      64.5     0.28      1019.5     0.4     SSE   158   1.6      SE   142   9.42    303      -17.9
   11/18/2018 06:30      47.0      46.4       90     44.0      0.00      0.32      64.5     0.28      1019.3     0.0       S   170   0.8       S   170   9.43    299      -22.5
   11/18/2018 06:20      47.0      46.6       91     44.1      0.00      0.32      64.6     0.28      1019.2     0.2     SSW   212   0.9      SW   215   9.43    294      -22.1
   11/18/2018 06:10      46.7      46.3       90     43.8      0.00      0.32      64.5     0.28      1019.1     0.5       S   183   1.5     SSW   200   9.43    290      -21.5
   11/18/2018 06:00      47.2      46.4       90     43.9      0.00      0.32      64.6     0.28      1018.9     0.4      SE   136   1.5      SE   138   9.43    289      -23.6
   11/18/2018 05:50      47.1      46.7       90     44.0      0.00      0.32      64.6     0.28      1018.8     1.0       S   185   2.0     SSW   197   9.43    285      -25.6
   11/18/2018 05:40      47.3      46.6       89     43.8      0.00      0.32      64.6     0.28      1018.6     0.0       N     0   0.0     SSE   168   9.43    282      -27.1
   11/18/2018 05:30      47.7      47.0       89     44.2      0.00      0.32      64.6     0.28      1018.6     0.2      SE   139   0.9      SE   139   9.43    276      -26.4
   11/18/2018 05:20      48.0      47.4       89     44.6      0.00      0.32      64.6     0.28      1018.6     0.1     SSW   194   0.5       S   184   9.43    273      -24.3
   11/18/2018 05:10      48.1      47.5       89     44.6      0.00      0.32      64.7     0.28      1018.6     0.4       S   179   1.5     SSW   192   9.43    277      -24.9
   11/18/2018 05:00      48.3      47.8       89     44.9      0.00      0.32      64.7     0.28      1018.5     0.0     SSE   156   0.7     SSE   155   9.43    276      -25.0
   11/18/2018 04:50      48.1      47.8       89     44.8      0.00      0.32      64.7     0.28      1018.4     0.4       S   191   1.3     SSW   196   9.43    274      -23.9
   11/18/2018 04:40      48.6      47.9       89     45.1      0.00      0.32      64.7     0.28      1018.3     0.2     SSE   152   0.7     SSE   155   9.43    275      -25.2
   11/18/2018 04:30      48.9      48.2       88     45.3      0.00      0.32      64.7     0.28      1018.3     0.7       S   188   1.4       S   187   9.43    272      -28.2
   11/18/2018 04:20      49.4      48.7       88     45.5      0.00      0.32      64.7     0.28      1018.2     0.0       N     0   0.0     SSE   164   9.43    274      -32.3
   11/18/2018 04:10      49.6      49.1       88     45.8      0.00      0.32      64.7     0.28      1018.2     0.0       N     0   0.0     SSE   164   9.43    270      -30.6
   11/18/2018 04:00      50.0      49.3       88     46.1      0.00      0.32      64.7     0.28      1018.2     0.0       N     0   0.0     SSE   164   9.43    267      -26.5
   11/18/2018 03:50      50.0      49.4       88     46.3      0.00      0.32      64.8     0.28      1018.1     0.2      SE   124   0.8     NNE    31   9.43    258      -24.9
   11/18/2018 03:40      50.0      49.5       88     46.4      0.00      0.32      64.8     0.28      1018.1     0.3     NNE    15   1.2       N   352   9.43    266      -24.3
   11/18/2018 03:30      49.8      49.2       88     46.0      0.00      0.32      64.8     0.28      1018.1     0.5     SSE   154   1.4      SE   141   9.43    252      -25.4
   11/18/2018 03:20      49.7      49.2       88     46.0      0.00      0.32      64.8     0.28      1018.1     0.4       S   180   1.1       S   173   9.43    248      -26.2
   11/18/2018 03:10      50.0      49.3       88     46.1      0.00      0.32      64.8     0.28      1018.2     0.2     SSE   158   0.8     SSE   155   9.43    259      -25.9
   11/18/2018 03:00      50.0      49.4       88     46.4      0.00      0.32      64.8     0.28      1018.1     0.0     SSE   164   0.4     SSE   164   9.43    263      -24.3
   11/18/2018 02:50      49.9      49.5       88     46.4      0.00      0.32      64.8     0.28      1018.1     0.6     SSE   167   1.2     SSE   158   9.43    253      -24.0
   11/18/2018 02:40      49.7      49.2       89     46.2      0.00      0.32      64.9     0.28      1018.1     0.4       S   171   1.0       S   171   9.43    264      -24.0
   11/18/2018 02:30      49.5      49.2       88     45.9      0.00      0.32      64.9     0.28      1018.2     0.0       N     0   0.0     SSE   164   9.43    266      -25.1
   11/18/2018 02:20      49.7      49.1       88     45.8      0.00      0.32      64.9     0.28      1018.3     0.0       N     0   0.0     SSE   164   9.43    271      -26.9
   11/18/2018 02:10      49.7      49.2       88     45.9      0.00      0.32      64.9     0.28      1018.4     0.0     SSE   165   0.2     SSE   166   9.43    273      -30.8
   11/18/2018 02:00      50.0      49.4       87     46.0      0.00      0.32      64.9     0.28      1018.3     0.5     SSE   162   1.2      SE   146   9.43    270      -37.1
   11/18/2018 01:50      50.4      49.5       86     45.9      0.00      0.32      64.9     0.28      1018.3     0.3     SSE   162   1.1       S   169   9.43    268      -42.7
   11/18/2018 01:40      50.3      49.9       86     46.1      0.00      0.32      64.9     0.28      1018.4     0.0       N     0   0.0     SSE   165   9.43    268      -47.1
   11/18/2018 01:30      51.1      50.0       85     46.2      0.00      0.32      64.9     0.28      1018.3     0.3     SSE   163   1.1      SE   146   9.44    258      -51.3
   11/18/2018 01:20      51.4      50.9       85     46.7      0.00      0.32      65.0     0.28      1018.3     0.1     SSE   166   0.7       S   190   9.44    255      -52.8
   11/18/2018 01:10      51.5      51.1       84     46.7      0.00      0.32      65.0     0.28      1018.2     0.8      SE   145   2.5      SE   139   9.44    249      -51.4
   11/18/2018 01:00      51.9      51.0       83     46.5      0.00      0.32      65.0     0.28      1018.3     0.4     SSW   197   1.1     SSW   213   9.44    249      -48.3
   11/18/2018 00:50      52.0      51.6       84     47.0      0.00      0.32      65.0     0.28      1018.3     0.7      SE   145   1.8      SE   139   9.44    251      -44.6
   11/18/2018 00:40      52.1      51.2       84     46.8      0.00      0.32      65.0     0.28      1018.3     0.6      SW   230   1.5     WSW   242   9.44    256      -43.4
   11/18/2018 00:30      52.4      51.3       83     46.6      0.00      0.32      65.0     0.28      1018.2     0.7     SSE   162   1.6      SE   136   9.44    251      -47.4
   11/18/2018 00:20      52.5      51.9       83     47.2      0.00      0.32      65.0     0.28      1018.3     0.6      SE   139   2.0      SE   137   9.44    249      -49.2
   11/18/2018 00:10      52.9      52.2       82     47.2      0.00      0.32      65.0     0.28      1018.5     0.9     SSE   148   2.3      SE   145   9.44    253      -49.3
   11/18/2018 00:00      53.3      52.6       80     47.1      0.00      0.32      65.0     0.28      1018.4     1.2       S   190   2.3       S   189   9.44    256      -47.0
   11/17/2018 23:50      53.8      53.0       80     47.4      0.00      0.32      65.0     0.28      1018.3     0.2     SSW   197   1.6       S   186   9.44    258      -45.4
   11/17/2018 23:40      54.0      53.5       79     47.3      0.00      0.32      65.0     0.28      1018.3     0.9     SSW   194   2.3     SSW   192   9.44    260      -42.7
   11/17/2018 23:30      54.5      53.6       78     47.5      0.00      0.32      65.0     0.28      1018.3     0.3       S   182   1.5     SSW   195   9.44    260      -38.5
   11/17/2018 23:20      54.9      54.1       78     47.6      0.00      0.32      65.1     0.28      1018.4     0.7       S   180   2.3     SSW   193   9.44    264      -36.9
   11/17/2018 23:10      54.9      54.2       78     47.9      0.00      0.32      65.1     0.28      1018.4     1.4     NNW   337   2.3       N   354   9.44    259      -35.6
   11/17/2018 23:00      54.5      54.0       78     47.7      0.00      0.32      65.1     0.28      1018.3     1.1     ESE   123   2.2     SSW   210   9.44    263      -33.8
   11/17/2018 22:50      54.5      53.9       77     47.2      0.00      0.32      65.0     0.28      1018.5     0.4      SE   141   1.8      SE   136   9.44    261      -30.2
   11/17/2018 22:40      54.6      54.1       77     47.2      0.00      0.32      65.1     0.28      1018.5     0.7     SSE   149   1.8      SE   139   9.44    264      -31.1
   11/17/2018 22:30      54.8      54.5       75     47.0      0.00      0.32      65.1     0.28      1018.4     0.1     SSE   161   0.8     SSE   151   9.44    263      -34.0
   11/17/2018 22:20      54.8      54.0       77     47.5      0.00      0.32      65.1     0.28      1018.3     0.6       W   277   1.5       W   281   9.44    263      -32.1
   11/17/2018 22:10      54.5      53.9       78     47.4      0.00      0.32      65.1     0.28      1018.3     1.2     SSE   146   2.6      SE   142   9.44    263      -28.8
   11/17/2018 22:00      54.3      53.8       78     47.3      0.00      0.32      65.1     0.28      1018.2     0.3      SW   228   1.3      SW   236   9.45    264      -28.2
   11/17/2018 21:50      54.2      53.7       78     47.3      0.00      0.32      65.1     0.28      1018.2     0.4     ESE   105   1.1      SE   140   9.45    261      -27.7
   11/17/2018 21:40      54.1      53.5       78     47.3      0.00      0.32      65.1     0.28      1018.2     0.7     SSE   155   2.1      SE   141   9.45    262      -26.7
   11/17/2018 21:30      54.0      53.6       78     47.0      0.00      0.32      65.1     0.28      1018.1     0.0       N     0   0.0     ESE   102   9.45    264      -26.9
   11/17/2018 21:20      54.0      53.0       79     47.0      0.00      0.32      65.1     0.28      1018.1     0.5     SSW   210   1.3      SW   222   9.45    262      -25.8
   11/17/2018 21:10      53.5      52.9       79     46.7      0.00      0.32      65.1     0.28      1018.0     0.7       S   176   1.5       S   179   9.45    263      -33.3
   11/17/2018 21:00      53.5      52.5       79     46.7      0.00      0.32      65.1     0.28      1018.0     0.7     SSW   196   1.7       S   180   9.45    262      -41.3
   11/17/2018 20:50      53.3      52.4       77     45.9      0.00      0.32      65.1     0.28      1017.9     0.8     ESE   109   1.2     ENE    65   9.45    262      -48.9
   11/17/2018 20:40      53.8      53.0       77     46.1      0.00      0.32      65.1     0.28      1017.9     0.2     SSE   164   0.8       S   179   9.45    261      -52.1
   11/17/2018 20:30      54.0      53.4       76     46.2      0.00      0.32      65.1     0.28      1017.8     0.3     SSE   153   1.0      SE   145   9.45    262      -55.1
   11/17/2018 20:20      54.2      53.5       74     45.6      0.00      0.32      65.1     0.28      1017.7     0.9     SSE   162   1.8      SE   139   9.45    262      -57.3
   11/17/2018 20:10      54.3      53.9       72     45.4      0.00      0.32      65.1     0.28      1017.6     0.7       S   188   1.3       S   184   9.45    264      -55.8
   11/17/2018 20:00      54.9      53.9       70     44.9      0.00      0.32      65.1     0.28      1017.5     0.3       S   179   1.2     SSW   198   9.45    264      -58.0
   11/17/2018 19:50      54.9      54.2       70     44.9      0.00      0.32      65.0     0.28      1017.4     0.9     SSE   150   2.1      SE   139   9.45    264      -59.3
   11/17/2018 19:40      55.4      54.6       68     44.7      0.00      0.32      65.0     0.28      1017.3     0.6     SSE   157   1.2      SE   142   9.45    264      -59.6
   11/17/2018 19:30      55.4      54.8       67     44.1      0.00      0.32      65.0     0.28      1017.2     0.4      SE   142   1.4      SE   140   9.45    264      -57.7
   11/17/2018 19:20      55.9      54.9       65     44.0      0.00      0.32      65.0     0.28      1017.2     0.7     SSE   163   1.5       S   176   9.45    264      -55.7
   11/17/2018 19:10      56.4      55.6       64     44.0      0.00      0.32      65.0     0.28      1017.1     0.7     SSE   155   1.5      SE   142   9.45    264      -55.4
   11/17/2018 19:00      56.8      56.0       62     43.6      0.00      0.32      65.0     0.28      1017.0     0.8       S   176   1.8       S   183   9.45    264      -54.9
   11/17/2018 18:50      57.4      56.5       61     43.7      0.00      0.32      64.9     0.28      1017.0     0.2     SSE   156   1.1      SE   146   9.46    264      -55.4
   11/17/2018 18:40      57.5      57.0       60     43.5      0.00      0.32      64.9     0.28      1017.0     0.3     SSE   166   1.1       S   185   9.46    264      -54.9
   11/17/2018 18:30      58.1      57.2       58     42.8      0.00      0.32      64.9     0.28      1016.9     0.0     SSW   204   0.9     SSW   199   9.46    264      -54.2
   11/17/2018 18:20      59.1      57.9       56     43.0      0.00      0.32      64.9     0.28      1016.9     0.8     SSE   167   2.0     SSW   194   9.46    264      -54.8
   11/17/2018 18:10      59.6      58.6       54     42.4      0.00      0.32      64.9     0.28      1016.9     1.6      SW   221   2.2     WSW   243   9.46    264      -54.2
   11/17/2018 18:00      60.2      59.3       53     42.6      0.00      0.32      64.8     0.28      1016.9     0.5     SSE   165   1.5     SSE   155   9.46    264      -56.4
   11/17/2018 17:50      60.7      59.9       51     42.1      0.00      0.32      64.8     0.28      1016.8     0.7       S   178   1.4       S   189   9.46    264      -58.2
   11/17/2018 17:40      61.8      60.5       49     41.9      0.00      0.32      64.8     0.28      1016.7     0.8     SSW   203   1.5      SW   222   9.46    264      -59.2
   11/17/2018 17:30      63.1      61.6       47     42.1      0.00      0.32      64.8     0.28      1016.5     0.6      SW   236   1.9     WNW   287   9.46    264      -60.8
   11/17/2018 17:20      64.0      62.8       47     42.8      0.00      0.32      64.7     0.28      1016.5     0.2       N   349   1.4      NW   321   9.46    264      -60.9
   11/17/2018 17:10      64.5      63.6       46     43.0      0.00      0.32      64.7     0.28      1016.5     0.5      NW   307   1.7     WNW   302   9.47    264      -63.5
   11/17/2018 17:00      64.9      64.2       45     42.6      0.00      0.32      64.7     0.28      1016.4     1.5     SSW   211   3.7       S   182   9.47    264      -66.4
   11/17/2018 16:50      65.5      64.6       45     43.3      0.00      0.32      64.6     0.28      1016.3     2.8       S   184   5.3       S   184   9.47    264      -65.3
   11/17/2018 16:40      66.5      65.3       47     44.7      0.00      0.32      64.6     0.28      1016.2     2.8       S   179   5.7     SSE   163   9.47    264      -61.7
   11/17/2018 16:30      67.2      66.2       46     45.2      0.00      0.32      64.5     0.28      1016.1     2.1     SSE   163   3.2     SSE   146   9.47    264      -56.6
   11/17/2018 16:20      68.0      67.0       44     44.6      0.00      0.32      64.5     0.28      1016.0     2.4     SSE   153   4.0      SE   127   9.47    264      -50.8
   11/17/2018 16:10      68.7      67.8       42     43.9      0.00      0.32      64.5     0.28      1016.0     2.3      SE   137   4.2      SE   131   9.47    264      -46.7
   11/17/2018 16:00      69.6      68.5       39     43.0      0.00      0.32      64.5     0.28      1016.0     1.2     ESE   106   2.5       E    91   9.48    263      -44.1
   11/17/2018 15:50      70.5      69.5       36     42.0      0.00      0.32      64.4     0.28      1016.0     1.1     ESE   101   2.8     ESE   121   9.48    263      -45.9
   11/17/2018 15:40      71.3      70.1       35     41.8      0.00      0.32      64.4     0.28      1016.0     1.2     ESE   114   2.5      SE   124   9.48    263      -44.7
   11/17/2018 15:30      73.0      70.9       33     41.2      0.00      0.32      64.4     0.28      1016.0     1.6     ESE   119   3.0     ESE   106   9.48    262      -34.9
   11/17/2018 15:20      72.9      72.0       29     38.6      0.00      0.32      64.3     0.28      1016.0     0.7     ESE   110   2.4      SE   135   9.48    262       36.7
   11/17/2018 15:10      73.1      72.4       30     39.3      0.00      0.32      64.3     0.28      1016.0     1.1     ENE    72   3.2     ESE   122   9.48    262       36.5
   11/17/2018 15:00      73.3      72.5       30     39.2      0.00      0.32      64.3     0.28      1016.0     1.6     ESE   112   3.0       E    96   9.48    261      113.9
   11/17/2018 14:50      73.7      72.9       29     39.4      0.00      0.32      64.2     0.28      1016.1     1.6      NE    36   3.5      NE    55   9.48    261       88.0
   11/17/2018 14:40      73.7      72.6       29     39.2      0.00      0.32      64.2     0.28      1016.1     1.9      NW   324   4.3      NW   325   9.48    261      172.3
   11/17/2018 14:30      73.7      72.6       30     39.8      0.00      0.32      64.1     0.28      1016.2     1.3     NNE    32   4.0      NE    53   9.48    261      219.9
   11/17/2018 14:20      72.9      70.7       33     41.0      0.00      0.32      64.1     0.28      1016.2     1.1     NNE    29   3.0     NNE    31   9.48    262      201.0
   11/17/2018 14:10      71.5      70.5       35     41.6      0.00      0.32      64.1     0.28      1016.3     1.9     NNE    20   3.6       N     2   9.49    263       56.4
   11/17/2018 14:00      72.8      71.3       34     42.0      0.00      0.32      64.1     0.28      1016.2     2.0       N     2   4.7       N     5   9.49    262       68.5
   11/17/2018 13:50      72.6      71.2       35     42.5      0.00      0.32      64.0     0.28      1016.3     1.3      NW   309   3.1     NNW   345   9.49    261      184.2
   11/17/2018 13:40      71.8      70.7       35     42.4      0.00      0.32      64.0     0.28      1016.4     0.9     NNW   339   2.6       N     6   9.49    262      141.5
   11/17/2018 13:30      71.7      70.6       35     42.2      0.00      0.32      64.0     0.28      1016.5     1.6     NNE    21   3.6     NNE    17   9.49    262      189.0
   11/17/2018 13:20      72.0      71.2       35     42.4      0.00      0.32      64.0     0.28      1016.6     2.1      NE    56   3.9     ENE    70   9.49    261      244.8
   11/17/2018 13:10      72.1      71.5       35     42.7      0.00      0.32      64.0     0.28      1016.7     1.6       E    88   3.5     NNW   346   9.49    262      292.4
   11/17/2018 13:00      72.0      70.7       36     43.2      0.00      0.32      64.0     0.28      1016.7     1.4       E    84   4.3     WNW   292   9.49    262      320.7
   11/17/2018 12:50      71.3      70.3       38     43.8      0.00      0.32      63.9     0.28      1016.8     1.4     NNE    20   3.8     NNE    17   9.49    262      318.4
   11/17/2018 12:40      70.8      68.6       40     44.3      0.00      0.32      63.9     0.28      1017.0     1.4      NW   318   2.9      NW   310   9.49    262      292.3
   11/17/2018 12:30      68.6      68.1       42     44.1      0.00      0.32      63.9     0.28      1017.1     1.6     NNW   329   2.9     NNE    32   9.49    263      174.2
   11/17/2018 12:20      69.6      68.2       41     44.1      0.00      0.32      63.9     0.28      1017.2     1.6       N   359   3.4     NNE    22   9.49    263      129.6
   11/17/2018 12:10      69.7      68.2       41     44.3      0.00      0.32      63.8     0.28      1017.3     1.0     NNE    24   3.5     NNE    14   9.49    263      191.0
   11/17/2018 12:00      68.6      67.8       42     44.3      0.00      0.32      63.9     0.28      1017.4     1.2     ENE    73   2.8       E    86   9.49    263      223.2
   11/17/2018 11:50      69.1      67.8       42     44.2      0.00      0.32      63.9     0.28      1017.6     1.9      NE    54   3.5      NE    49   9.49    263      198.6
   11/17/2018 11:40      69.1      67.7       42     44.0      0.00      0.32      63.9     0.28      1017.7     0.9       E    93   3.3      NE    44   9.49    263      220.6
   11/17/2018 11:30      68.0      67.5       42     44.0      0.00      0.32      63.8     0.28      1018.0     1.3       E    95   3.1      NE    41   9.49    263      221.9
   11/17/2018 11:20      67.7      66.7       44     44.1      0.00      0.32      63.9     0.28      1018.1     1.9     ESE   111   4.4      SE   141   9.49    263      319.3
   11/17/2018 11:10      67.1      66.0       44     44.0      0.00      0.32      63.9     0.28      1018.3     1.6       N     3   3.8       N     6   9.49    263      318.3
   11/17/2018 11:00      66.7      65.7       44     43.5      0.00      0.32      63.9     0.28      1018.3     1.8     NNE    23   4.1     NNE    13   9.49    263      301.3
   11/17/2018 10:50      66.5      64.4       46     44.3      0.00      0.32      63.9     0.28      1018.4     0.7      NE    36   2.7      NE    56   9.49    264      298.5
   11/17/2018 10:40      64.9      64.1       47     43.9      0.00      0.32      63.9     0.28      1018.6     1.5      NE    44   3.3       N     0   9.49    264      296.2
   11/17/2018 10:30      64.2      62.4       49     43.6      0.00      0.32      64.0     0.28      1018.6     1.3       S   189   2.4     WSW   243   9.49    264      288.4
   11/17/2018 10:20      62.8      62.1       50     43.5      0.00      0.32      64.0     0.28      1018.7     1.3     WNW   301   2.6       W   263   9.49    264      299.9
   11/17/2018 10:10      62.7      61.1       50     43.2      0.00      0.32      64.0     0.28      1018.7     0.8       N     9   2.7     NNE    12   9.49    264      278.7
   11/17/2018 10:00      61.3      59.8       51     42.1      0.00      0.32      64.0     0.28      1018.8     1.1     NNW   328   2.5      SW   232   9.49    264      292.5
   11/17/2018 09:50      60.2      59.1       50     40.9      0.00      0.32      64.1     0.28      1018.7     1.5     NNW   338   3.3      NW   312   9.49    264      278.2
   11/17/2018 09:40      59.1      57.8       50     40.3      0.00      0.32      64.1     0.28      1018.8     0.6     NNE    16   1.6       N     6   9.49    264      270.9
   11/17/2018 09:30      58.0      55.5       54     40.4      0.00      0.32      64.1     0.28      1018.8     0.4     NNE    24   2.1     NNE    12   9.49    264      248.0
   11/17/2018 09:20      55.7      54.8       58     40.5      0.00      0.32      64.2     0.28      1018.7     0.3     NNW   345   1.4     NNW   348   9.49    265      104.2
   11/17/2018 09:10      55.3      54.7       58     40.4      0.00      0.32      64.2     0.28      1018.7     0.5     NNW   327   1.3      NW   325   9.49    264       60.9
   11/17/2018 09:00      55.1      53.7       59     40.3      0.00      0.32      64.2     0.28      1018.7     0.1      NW   308   0.9      SW   233   9.49    264      114.0
   11/17/2018 08:50      53.9      53.4       60     40.0      0.00      0.32      64.2     0.28      1018.6     1.0       N     7   2.5      NE    37   9.49    265      107.3
   11/17/2018 08:40      53.9      53.2       59     39.6      0.00      0.32      64.3     0.28      1018.6     1.1       N     2   2.4     NNE    15   9.49    265       98.8
   11/17/2018 08:30      55.0      53.6       57     39.2      0.00      0.32      64.3     0.28      1018.5     1.1       N     1   2.3       N   352   9.49    265       93.4
   11/17/2018 08:20      55.0      52.9       57     39.0      0.00      0.32      64.4     0.28      1018.4     0.6      NW   310   1.7      NW   314   9.49    264      169.8
   11/17/2018 08:10      53.0      52.4       58     38.2      0.00      0.32      64.4     0.28      1018.3     1.3       N     4   2.8     NNE    25   9.49    265      127.3
   11/17/2018 08:00      52.7      51.1       60     38.3      0.00      0.32      64.4     0.28      1018.4     0.5     NNE    14   1.2      NW   322   9.49    265      105.1
   11/17/2018 07:50      51.4      49.8       62     38.0      0.00      0.32      64.4     0.28      1018.4     0.2       E    88   1.2     SSE   154   9.49    265       38.5
   11/17/2018 07:40      49.9      45.8       69     38.2      0.00      0.32      64.5     0.28      1018.3     0.1     SSE   163   0.7     SSE   164   9.49    265       67.0
   11/17/2018 07:30      45.6      43.6       74     36.6      0.00      0.32      64.5     0.28      1018.2     0.0       N     0   0.0     SSE   164   9.49    264       33.5
   11/17/2018 07:20      43.8      43.3       75     36.2      0.00      0.32      64.5     0.28      1018.0     0.0       N     0   0.0     SSE   164   9.49    263      -20.2
   11/17/2018 07:10      43.6      42.3       78     36.4      0.00      0.32      64.6     0.28      1018.0     0.0       N     0   0.0     SSE   164   9.49    263      -23.2
   11/17/2018 07:00      42.5      41.9       78     35.8      0.00      0.32      64.6     0.28      1017.9     0.0       N     0   0.0     SSE   164   9.49    263      -20.1
   11/17/2018 06:50      42.2      41.8       78     35.6      0.00      0.32      64.6     0.28      1017.9     0.0       N     0   0.0     SSE   164   9.49    262      -28.6
   11/17/2018 06:40      42.3      41.9       78     35.7      0.00      0.32      64.6     0.28      1017.9     0.0       N     0   0.0     SSE   167   9.49    262      -39.8
   11/17/2018 06:30      42.5      41.9       78     35.7      0.00      0.32      64.7     0.28      1017.8     0.7     SSE   164   1.3     SSE   167   9.49    262      -48.8
   11/17/2018 06:20      42.2      41.6       77     35.3      0.00      0.32      64.7     0.28      1017.8     0.6     SSE   156   1.3      SE   144   9.49    263      -53.7
   11/17/2018 06:10      42.4      41.6       76     35.2      0.00      0.32      64.7     0.28      1017.7     0.5     SSE   162   1.1     SSE   153   9.49    263      -53.3
   11/17/2018 06:00      42.7      42.1       76     35.1      0.00      0.32      64.7     0.28      1017.7     0.2     SSE   161   0.8     SSE   165   9.49    262      -51.3
   11/17/2018 05:50      42.8      42.2       74     34.8      0.00      0.32      64.8     0.28      1017.7     0.2       S   180   0.8     SSW   192   9.49    262      -52.5
   11/17/2018 05:40      43.3      42.5       73     34.8      0.00      0.32      64.8     0.28      1017.6     0.1     SSE   157   0.9     SSE   154   9.49    263      -53.1
   11/17/2018 05:30      43.3      42.6       72     34.6      0.00      0.32      64.8     0.28      1017.6     0.2       S   173   0.8       S   183   9.49    264      -51.4
   11/17/2018 05:20      43.7      42.9       73     35.2      0.00      0.32      64.9     0.28      1017.6     0.0       N     0   0.0     SSE   161   9.49    263      -51.1
   11/17/2018 05:10      43.7      43.0       74     35.5      0.00      0.32      64.9     0.28      1017.5     0.2     SSE   161   0.9     SSE   161   9.49    262      -51.2
   11/17/2018 05:00      43.5      43.0       72     34.8      0.00      0.32      64.9     0.28      1017.5     0.4     SSE   163   1.0     SSE   157   9.49    263      -48.6
   11/17/2018 04:50      43.4      42.9       73     35.1      0.00      0.32      65.0     0.28      1017.4     0.2     SSW   207   1.0     SSW   207   9.49    264      -46.9
   11/17/2018 04:40      43.3      42.8       72     34.7      0.00      0.32      65.0     0.28      1017.3     0.0     SSE   147   0.5     SSE   147   9.50    264      -48.0
   11/17/2018 04:30      43.5      42.8       71     34.2      0.00      0.32      65.0     0.28      1017.2     0.0     SSE   148   0.7     SSE   148   9.50    264      -49.8
   11/17/2018 04:20      44.2      43.3       69     34.1      0.00      0.32      65.0     0.28      1017.2     0.4     SSE   151   1.2     SSE   149   9.50    264      -48.8
   11/17/2018 04:10      44.1      43.7       69     34.5      0.00      0.32      65.1     0.28      1017.1     0.4       S   177   1.1     SSW   198   9.50    264      -51.9
   11/17/2018 04:00      44.3      43.5       71     34.9      0.00      0.32      65.1     0.28      1017.1     0.3     SSE   166   0.7      SE   144   9.50    264      -53.4
   11/17/2018 03:50      44.8      44.0       68     34.4      0.00      0.32      65.1     0.28      1017.1     0.4      SE   131   1.1      SE   136   9.50    263      -54.0
   11/17/2018 03:40      44.9      44.3       67     34.5      0.00      0.32      65.2     0.28      1017.1     0.2     SSE   160   1.0     SSE   149   9.50    263      -52.2
   11/17/2018 03:30      45.1      44.6       67     34.6      0.00      0.32      65.2     0.28      1017.1     0.1       S   172   0.7     SSE   149   9.50    264      -51.3
   11/17/2018 03:20      45.2      44.7       67     34.6      0.00      0.32      65.2     0.28      1017.1     0.2       S   184   0.9       S   188   9.50    264      -45.2
   11/17/2018 03:10      45.3      44.8       67     34.6      0.00      0.32      65.2     0.28      1017.1     0.0     SSE   155   0.7     SSE   155   9.50    263      -50.0
   11/17/2018 03:00      45.3      44.6       67     34.5      0.00      0.32      65.3     0.28      1017.1     0.0       N     0   0.0     SSE   155   9.50    264      -50.2
   11/17/2018 02:50      45.8      45.0       67     35.2      0.00      0.32      65.3     0.28      1017.1     0.5     SSE   155   1.6     SSE   155   9.50    263      -51.0
   11/17/2018 02:40      45.8      45.3       67     35.4      0.00      0.32      65.3     0.28      1017.1     0.7     SSE   159   1.1     SSE   155   9.50    264      -52.0
   11/17/2018 02:30      45.6      45.1       68     35.3      0.00      0.32      65.3     0.28      1017.1     0.5     SSE   157   1.2     SSE   160   9.50    264      -52.5
   11/17/2018 02:20      45.5      44.9       68     35.3      0.00      0.32      65.4     0.28      1017.1     0.3     SSE   161   0.9     SSE   160   9.50    263      -54.0
   11/17/2018 02:10      45.5      45.0       67     34.9      0.00      0.32      65.4     0.28      1017.0     0.6       S   177   1.5     SSW   198   9.50    263      -54.2
   11/17/2018 02:00      45.6      45.0       66     34.6      0.00      0.32      65.4     0.28      1016.9     0.3       S   170   1.0       S   178   9.50    264      -55.1
   11/17/2018 01:50      45.9      45.3       65     34.6      0.00      0.32      65.4     0.28      1016.9     0.6     SSE   161   1.2     SSE   149   9.50    264      -54.3
   11/17/2018 01:40      46.2      45.6       63     34.0      0.00      0.32      65.5     0.28      1016.9     0.3     SSE   162   0.7     SSE   162   9.50    264      -54.5
   11/17/2018 01:30      46.5      45.8       64     34.5      0.00      0.32      65.5     0.28      1016.8     0.0     SSE   162   0.1     SSE   162   9.51    264      -55.0
   11/17/2018 01:20      46.9      46.3       62     34.2      0.00      0.32      65.5     0.28      1016.7     0.1     SSE   162   0.7     SSE   163   9.51    263      -55.0
   11/17/2018 01:10      47.0      46.4       63     34.5      0.00      0.32      65.5     0.28      1016.7     0.2     SSE   156   0.6     SSE   162   9.51    264      -55.1
   11/17/2018 01:00      46.9      46.2       63     34.4      0.00      0.32      65.6     0.28      1016.6     0.6       S   177   1.3       S   181   9.51    264      -55.9
   11/17/2018 00:50      47.1      46.3       64     35.0      0.00      0.32      65.6     0.28      1016.7     0.3     SSE   158   0.8     SSE   168   9.51    264      -56.6
   11/17/2018 00:40      47.1      46.8       61     34.3      0.00      0.32      65.6     0.28      1016.7     0.1     SSE   156   0.8     SSE   155   9.51    264      -56.4
   11/17/2018 00:30      47.3      46.8       62     34.8      0.00      0.32      65.6     0.28      1016.6     0.3       S   178   0.9     SSE   166   9.51    264      -56.1
   11/17/2018 00:20      47.8      47.1       59     33.9      0.00      0.32      65.6     0.28      1016.6     0.4     SSE   157   1.1     SSE   158   9.51    264      -56.4
   11/17/2018 00:10      48.4      47.5       62     35.3      0.00      0.32      65.6     0.28      1016.5     0.0       N     0   0.0     SSE   158   9.51    264      -55.8
   11/17/2018 00:00      48.5      48.1       61     35.5      0.00      0.32      65.6     0.28      1016.5     0.0     SSE   158   0.4     SSE   158   9.51    264      -56.4
   11/16/2018 23:50      48.5      47.9       61     35.6      0.00      0.32      65.7     0.28      1016.5     0.4     SSE   157   1.0     SSE   158   9.51    264      -56.6
   11/16/2018 23:40      48.9      48.0       61     35.7      0.00      0.32      65.7     0.28      1016.5     0.6     SSE   150   1.1      SE   140   9.51    264      -58.5
   11/16/2018 23:30      49.0      48.6       61     35.7      0.00      0.32      65.7     0.28      1016.5     0.6      SE   145   1.2      SE   141   9.51    264      -58.6
   11/16/2018 23:20      49.1      48.7       60     35.4      0.00      0.32      65.7     0.28      1016.5     1.0     SSE   149   1.5     SSE   156   9.51    264      -59.6
   11/16/2018 23:10      49.2      48.8       59     35.1      0.00      0.32      65.7     0.28      1016.5     0.9     SSE   163   1.4     SSE   150   9.51    264      -58.3
   11/16/2018 23:00      49.7      48.8       56     34.1      0.00      0.32      65.7     0.28      1016.4     0.2     SSE   168   1.0     SSE   160   9.52    264      -58.8
   11/16/2018 22:50      49.9      49.3       55     34.1      0.00      0.32      65.8     0.28      1016.3     0.2     SSW   198   1.4     SSW   209   9.52    264      -59.1
   11/16/2018 22:40      50.1      49.7       59     36.0      0.00      0.32      65.7     0.28      1016.3     0.0     SSE   163   0.6     SSE   162   9.52    264      -59.3
   11/16/2018 22:30      50.6      49.7       57     35.7      0.00      0.32      65.8     0.28      1016.2     0.5     SSE   156   1.1     SSE   147   9.52    264      -59.5
   11/16/2018 22:20      51.0      50.2       58     36.2      0.00      0.32      65.8     0.28      1016.3     0.3     SSE   161   1.2     SSE   161   9.52    264      -60.1
   11/16/2018 22:10      51.0      50.7       56     35.5      0.00      0.32      65.8     0.28      1016.3     0.7     SSE   160   1.2     SSE   161   9.52    264      -60.8
   11/16/2018 22:00      51.3      50.8       55     35.3      0.00      0.32      65.8     0.28      1016.3     0.2     SSE   158   1.1     SSE   157   9.52    264      -60.4
   11/16/2018 21:50      51.4      50.9       56     36.2      0.00      0.32      65.8     0.28      1016.3     0.5     SSE   154   1.1     SSE   149   9.52    264      -61.7
   11/16/2018 21:40      51.8      51.0       56     36.0      0.00      0.32      65.8     0.28      1016.3     0.7     SSE   158   1.2     SSE   166   9.52    264      -62.7
   11/16/2018 21:30      52.5      51.5       55     36.1      0.00      0.32      65.8     0.28      1016.4     0.7     SSE   156   1.3     SSE   156   9.53    264      -62.1
   11/16/2018 21:20      52.5      52.1       53     35.7      0.00      0.32      65.8     0.28      1016.3     0.4     SSE   156   1.0     SSE   149   9.53    264      -62.0
   11/16/2018 21:10      52.5      52.0       54     36.0      0.00      0.32      65.8     0.28      1016.4     0.5       S   172   1.5     SSE   147   9.53    264      -63.1
   11/16/2018 21:00      53.2      51.9       53     36.1      0.00      0.32      65.8     0.28      1016.4     0.7     SSE   155   1.4       S   170   9.53    264      -64.8
   11/16/2018 20:50      53.5      52.9       53     36.6      0.00      0.32      65.8     0.28      1016.2     0.8     SSE   152   1.7     SSE   167   9.53    263      -64.8
   11/16/2018 20:40      53.8      53.0       53     36.9      0.00      0.32      65.8     0.28      1016.2     0.8     SSE   159   1.5       S   182   9.53    264      -64.8
   11/16/2018 20:30      54.0      53.6       53     37.2      0.00      0.32      65.8     0.28      1016.2     0.7     SSE   151   1.6      SE   140   9.53    264      -65.0
   11/16/2018 20:20      54.9      53.6       53     37.2      0.00      0.32      65.8     0.28      1016.2     0.9     SSE   160   1.6     SSE   148   9.53    264      -65.1
   11/16/2018 20:10      55.5      54.6       51     37.1      0.00      0.32      65.7     0.28      1016.1     0.5     SSE   159   1.1     SSE   149   9.54    264      -65.8
   11/16/2018 20:00      55.8      55.2       49     36.8      0.00      0.32      65.8     0.28      1015.9     0.2     SSE   165   1.0       S   174   9.54    263      -66.0
   11/16/2018 19:50      55.9      55.3       49     36.6      0.00      0.32      65.7     0.28      1015.9     0.5       S   176   1.1     SSE   154   9.54    263      -65.9
   11/16/2018 19:40      56.3      55.5       52     38.5      0.00      0.32      65.8     0.28      1015.8     0.2     SSE   169   0.9     SSW   194   9.54    264      -66.6
   11/16/2018 19:30      57.0      56.1       51     38.6      0.00      0.32      65.7     0.28      1015.8     0.4     SSE   156   1.4      SE   144   9.54    264      -66.7
   11/16/2018 19:20      57.3      56.7       51     39.0      0.00      0.32      65.7     0.28      1015.7     0.7     SSE   152   1.9      SE   141   9.54    264      -66.9
   11/16/2018 19:10      58.0      57.1       50     39.0      0.00      0.32      65.7     0.28      1015.7     0.7     SSE   157   2.0      SE   144   9.54    263      -67.4
   11/16/2018 19:00      58.8      57.5       50     39.6      0.00      0.32      65.7     0.28      1015.6     0.8     SSE   155   1.5      SE   144   9.54    263      -68.3
   11/16/2018 18:50      59.3      58.5       50     40.1      0.00      0.32      65.6     0.28      1015.5     0.5       S   170   1.4       S   180   9.55    263      -68.0
   11/16/2018 18:40      59.4      59.0       49     40.1      0.00      0.32      65.6     0.28      1015.5     0.3     SSE   162   2.0       S   186   9.55    263      -64.3
   11/16/2018 18:30      60.0      59.1       49     40.4      0.00      0.32      65.6     0.28      1015.5     0.4       S   169   1.0       S   179   9.55    263      -55.9
   11/16/2018 18:20      60.2      59.5       49     40.5      0.00      0.32      65.6     0.28      1015.5     0.4     SSE   160   1.2     SSE   164   9.55    263      -55.2
   11/16/2018 18:10      60.7      59.9       48     40.5      0.00      0.32      65.6     0.28      1015.4     0.4      SE   129   1.4      SE   141   9.55    263      -61.3
   11/16/2018 18:00      61.6      60.4       47     40.5      0.00      0.32      65.5     0.28      1015.2     0.8       S   182   1.7       S   182   9.55    263      -67.6
   11/16/2018 17:50      61.8      61.2       48     41.6      0.00      0.32      65.5     0.28      1015.1     0.2     SSE   164   0.9       S   171   9.56    263      -71.3
   11/16/2018 17:40      61.9      61.3       47     41.4      0.00      0.32      65.5     0.28      1015.1     0.2     SSE   168   1.2       S   180   9.56    263      -74.6
   11/16/2018 17:30      63.6      61.5       46     41.0      0.00      0.32      65.4     0.28      1015.0     0.9       S   179   1.6     SSW   192   9.56    263      -76.8
   11/16/2018 17:20      64.6      63.2       45     41.9      0.00      0.32      65.4     0.28      1015.0     0.5     SSE   164   1.4       S   174   9.56    262      -77.8
   11/16/2018 17:10      66.4      64.4       41     41.3      0.00      0.32      65.4     0.28      1015.0     0.6     SSE   161   1.3       S   177   9.56    262      -78.5
   11/16/2018 17:00      68.6      66.3       39     41.5      0.00      0.32      65.3     0.28      1015.0     2.0     SSW   200   2.6     SSW   198   9.57    262      -77.8
   11/16/2018 16:50      69.5      68.3       37     41.3      0.00      0.32      65.3     0.28      1015.0     1.1       W   279   2.1      SW   234   9.57    262      -78.2
   11/16/2018 16:40      70.1      69.1       34     40.1      0.00      0.32      65.2     0.28      1015.0     1.7     SSW   206   3.3     SSW   210   9.57    261      -75.2
   11/16/2018 16:30      71.3      69.8       32     39.0      0.00      0.32      65.2     0.28      1015.0     1.4       S   181   2.8     SSW   205   9.57    261      -73.7
   11/16/2018 16:20      72.6      71.1       30     39.0      0.00      0.32      65.2     0.28      1014.9     2.2       S   185   3.6       S   186   9.58    261      -71.8
   11/16/2018 16:10      73.7      72.5       30     39.4      0.00      0.32      65.1     0.28      1014.8     2.1     SSE   152   5.0      SE   137   9.58    261      -53.0
   11/16/2018 16:00      75.2      73.5       26     37.5      0.00      0.32      65.1     0.28      1014.7     2.9      SE   140   6.4      SE   133   9.58    261      -31.4
   11/16/2018 15:50      75.8      74.9       21     32.8      0.00      0.32      65.0     0.28      1014.6     2.0      NE    51   4.3      NE    42   9.58    260      -13.3
   11/16/2018 15:40      76.5      75.5       22     33.8      0.00      0.32      65.0     0.28      1014.6     2.1     ENE    65   3.6     ENE    73   9.58    260        6.6
   11/16/2018 15:30      76.5      76.2       21     33.2      0.00      0.32      65.0     0.28      1014.6     1.8     ENE    75   3.7     ENE    66   9.58    260       30.6
   11/16/2018 15:20      77.0      76.2       20     32.9      0.00      0.32      64.9     0.28      1014.6     2.2     ENE    63   5.3       E    96   9.59    260       58.3
   11/16/2018 15:10      77.6      76.5       15     26.4      0.00      0.32      64.9     0.28      1014.6     2.4     ENE    58   4.2      NE    53   9.59    260       61.1
   11/16/2018 15:00      78.1      77.1       14     25.2      0.00      0.32      64.9     0.28      1014.8     2.1     ENE    72   5.1     ENE    61   9.59    259      100.4
   11/16/2018 14:50      79.8      77.9       13     24.1      0.00      0.32      64.8     0.28      1014.8     2.0     ENE    59   4.6       E    94   9.59    259      115.2
   11/16/2018 14:40      79.8      77.7       12     22.4      0.00      0.32      64.8     0.28      1014.9     0.6      NW   316   2.4     WSW   248   9.59    259      133.9
   11/16/2018 14:30      79.6      77.6       12     22.3      0.00      0.32      64.7     0.28      1014.9     1.9     SSE   159   3.1     ESE   115   9.59    259      157.1
   11/16/2018 14:20      79.7      77.8       13     22.7      0.00      0.32      64.7     0.28      1015.0     0.7       E    79   2.1      NE    40   9.60    259      178.4
   11/16/2018 14:10      78.7      77.9       13     22.6      0.00      0.32      64.6     0.28      1015.0     1.5     NNW   347   3.8     ENE    66   9.60    259      202.8
   11/16/2018 14:00      78.0      77.3       13     22.5      0.00      0.32      64.6     0.28      1014.9     2.2     WNW   300   4.0      NW   308   9.60    259      218.3
   11/16/2018 13:50      78.1      77.1       13     22.8      0.00      0.32      64.6     0.28      1014.9     1.7       N   360   3.8     NNW   336   9.60    259      221.5
   11/16/2018 13:40      77.9      77.2       13     22.6      0.00      0.32      64.5     0.28      1014.9     2.1       N     7   4.8      NW   322   9.60    259      284.7
   11/16/2018 13:30      77.3      76.1       14     23.0      0.00      0.32      64.5     0.28      1014.9     2.0       N   354   4.0       N   353   9.60    259      243.0
   11/16/2018 13:20      77.1      76.5       13     22.7      0.00      0.32      64.5     0.28      1015.0     1.7     NNE    14   3.0      NW   319   9.60    259      210.5
   11/16/2018 13:10      77.2      76.7       13     22.8      0.00      0.32      64.5     0.28      1015.1     1.3      NE    43   3.4     NNE    22   9.60    259      232.7
   11/16/2018 13:00      77.4      76.8       13     22.4      0.00      0.32      64.4     0.28      1015.2     1.4     ENE    78   4.6     ENE    77   9.60    259      252.6
   11/16/2018 12:50      77.0      75.3       13     22.3      0.00      0.32      64.4     0.28      1015.3     0.7     NNE    20   3.2     ENE    69   9.61    260      194.3
   11/16/2018 12:40      75.5      74.9       14     22.1      0.00      0.32      64.4     0.28      1015.5     0.9     NNE    29   2.8       N   350   9.61    260      102.9
   11/16/2018 12:30      76.5      75.2       13     22.2      0.00      0.32      64.4     0.28      1015.7     1.5     NNE    12   4.0     NNE    18   9.61    260       91.1
   11/16/2018 12:20      76.4      75.3       14     22.5      0.00      0.32      64.4     0.28      1015.8     1.6     NNE    27   3.3     NNE    25   9.61    260      267.2
   11/16/2018 12:10      76.6      75.4       13     21.9      0.00      0.32      64.4     0.28      1015.9     2.2     NNE    22   5.1     NNE    18   9.61    259      231.0
   11/16/2018 12:00      75.8      74.5       14     22.7      0.00      0.32      64.4     0.28      1016.0     2.2      NE    39   4.3       E    86   9.61    260      309.2
   11/16/2018 11:50      75.8      75.0       14     23.2      0.00      0.32      64.4     0.28      1016.2     2.4       N     4   4.9     NNW   332   9.62    260      226.5
   11/16/2018 11:40      76.2      75.0       14     23.6      0.00      0.32      64.4     0.28      1016.3     2.1      NE    36   5.4      NE    38   9.62    260      402.7
   11/16/2018 11:30      75.0      74.0       15     23.3      0.00      0.32      64.4     0.28      1016.5     2.0     NNE    33   4.0     NNE    20   9.62    260      372.9
   11/16/2018 11:20      74.3      73.3       15     22.9      0.00      0.32      64.5     0.28      1016.7     1.7      NE    40   4.0      NE    45   9.62    260      354.8
   11/16/2018 11:10      74.0      73.2       14     22.0      0.00      0.32      64.5     0.28      1016.9     1.5      NE    54   3.5     NNE    31   9.62    260      289.5
   11/16/2018 11:00      73.6      72.2       15     21.8      0.00      0.32      64.5     0.28      1017.0     1.2      NE    44   3.0     ENE    74   9.62    260      349.2
   11/16/2018 10:50      72.4      71.3       15     22.0      0.00      0.32      64.5     0.28      1017.1     1.0     NNE    29   3.0       N   354   9.63    261      205.2
   11/16/2018 10:40      71.7      70.7       16     23.0      0.00      0.32      64.5     0.28      1017.2     1.5      NE    34   3.1       N     8   9.63    260      282.9
   11/16/2018 10:30      70.7      69.3       17     22.9      0.00      0.32      64.5     0.28      1017.3     1.1     NNE    16   3.8       N     9   9.63    260      285.8
   11/16/2018 10:20      69.9      69.2       17     23.3      0.00      0.32      64.5     0.28      1017.4     1.2       N     8   2.6     NNE    15   9.63    261      158.7
   11/16/2018 10:10      70.6      69.5       17     23.6      0.00      0.32      64.6     0.28      1017.5     0.8     NNW   347   2.8       N     3   9.63    261      175.1
   11/16/2018 10:00      70.6      69.8       18     24.6      0.00      0.32      64.6     0.28      1017.5     0.9     NNW   346   2.1     NNW   344   9.63    261      293.0
   11/16/2018 09:50      70.7      69.0       19     25.9      0.00      0.32      64.7     0.28      1017.5     0.6     NNW   347   2.0      NE    53   9.63    261      359.0
   11/16/2018 09:40      69.3      67.2       20     25.9      0.00      0.32      64.7     0.28      1017.5     0.4      SW   226   1.1     WSW   239   9.64    261      265.7
   11/16/2018 09:30      67.5      65.3       23     27.0      0.00      0.32      64.7     0.28      1017.5     0.8      NE    56   1.8       E    79   9.64    261      262.0
   11/16/2018 09:20      65.5      64.3       25     27.8      0.00      0.32      64.8     0.28      1017.6     0.9       N    10   2.0     NNE    27   9.64    262      243.7
   11/16/2018 09:10      64.5      62.5       28     29.9      0.00      0.32      64.8     0.28      1017.6     0.4       N     5   1.8     NNE    14   9.64    262      220.9
   11/16/2018 09:00      62.6      61.3       29     29.9      0.00      0.32      64.8     0.28      1017.6     0.6     NNE    30   1.4       E    80   9.64    262      183.7
   11/16/2018 08:50      61.3      59.8       32     30.2      0.00      0.32      64.9     0.28      1017.6     0.5     NNE    33   1.4     NNE    23   9.64    262      179.9
   11/16/2018 08:40      60.0      58.8       33     30.7      0.00      0.32      64.9     0.28      1017.6     0.7       N     5   1.8       N     0   9.64    262      162.4
   11/16/2018 08:30      58.9      56.9       34     29.8      0.00      0.32      64.9     0.28      1017.5     0.4     NNE    15   1.2     NNE    17   9.21    262      158.3
   11/16/2018 08:20      56.9      55.0       35     28.8      0.00      0.32      65.0     0.28      1017.6     0.5     NNE    11   1.2     NNE    21   9.21    262      139.1
   11/16/2018 08:10      55.2      53.1       38     29.1      0.00      0.32      65.0     0.28      1017.5     0.6       N   356   1.7       N   355   9.21    262      121.0
   11/16/2018 08:00      53.1      51.4       39     28.3      0.00      0.32      65.0     0.28      1017.5     0.6       N     7   1.4     NNE    25   9.21    262      101.6
   11/16/2018 07:50      51.5      48.5       42     28.0      0.00      0.32      65.1     0.28      1017.4     0.0      SW   226   0.8      SW   224   9.21    263       79.0
   11/16/2018 07:40      48.4      46.0       48     28.0      0.00      0.32      65.1     0.28      1017.4     0.0       N     0   0.0      SE   139   9.21    264       45.4
   11/16/2018 07:30      46.3      45.4       46     26.6      0.00      0.32      65.1     0.28      1017.3     0.4     SSE   149   1.2      SE   140   9.21    263      -29.3
   11/16/2018 07:20      45.5      44.3       48     26.3      0.00      0.32      65.1     0.28      1017.1     0.6      SE   145   1.3      SE   138   9.21    264      -37.8
   11/16/2018 07:10      44.5      42.9       48     25.2      0.00      0.32      65.2     0.28      1017.1     0.6      SW   225   1.3     WSW   246   9.21    264      -39.4
   11/16/2018 07:00      43.1      42.6       51     25.9      0.00      0.32      65.2     0.28      1017.1     0.0     SSW   201   1.0     SSW   201   9.21    264      -44.7
   11/16/2018 06:50      43.3      42.7       50     25.6      0.00      0.32      65.3     0.28      1017.0     0.6     SSE   151   1.1     SSE   161   9.21    264      -49.4
   11/16/2018 06:40      43.4      43.0       46     23.7      0.00      0.32      65.3     0.28      1016.9     0.5     SSE   157   1.1     SSE   149   9.21    264      -51.6
   11/16/2018 06:30      43.4      43.0       45     23.3      0.00      0.32      65.3     0.28      1016.8     0.0       N     0   0.0     SSE   162   9.22    264      -52.2
   11/16/2018 06:20      43.7      43.0       50     25.6      0.00      0.32      65.4     0.28      1016.8     0.1     SSE   160   0.5     SSE   159   9.22    264      -53.5
   11/16/2018 06:10      43.8      43.3       48     25.3      0.00      0.32      65.4     0.28      1016.8     0.4      SE   143   1.2      SE   141   9.22    264      -53.4
   11/16/2018 06:00      44.3      43.5       48     25.3      0.00      0.32      65.4     0.28      1016.8     0.1      SE   145   0.7      SE   145   9.22    264      -51.3
   11/16/2018 05:50      44.1      43.4       45     23.7      0.00      0.32      65.5     0.28      1016.7     0.0       S   187   0.5       S   185   9.22    264      -50.5
   11/16/2018 05:40      43.9      43.4       47     24.4      0.00      0.32      65.5     0.28      1016.6     0.3     SSE   165   0.9      SE   138   9.22    264      -53.0
   11/16/2018 05:30      43.9      43.4       45     23.7      0.00      0.32      65.5     0.28      1016.5     0.9     SSE   162   1.7     SSW   199   9.22    263      -55.2
   11/16/2018 05:20      44.4      43.5       48     25.3      0.00      0.32      65.5     0.28      1016.6     0.2      SE   139   0.9      SE   139   9.22    264      -56.5
   11/16/2018 05:10      44.8      44.1       49     26.4      0.00      0.32      65.6     0.28      1016.5     0.1     SSE   157   0.9     SSE   155   9.22    263      -56.6
   11/16/2018 05:00      45.0      44.5       48     26.1      0.00      0.32      65.6     0.28      1016.5     0.8     SSE   161   1.3     SSE   162   9.22    263      -56.4
   11/16/2018 04:50      45.3      44.8       46     25.5      0.00      0.32      65.6     0.28      1016.5     0.7     SSE   154   1.6      SE   137   9.22    263      -56.7
   11/16/2018 04:40      45.5      45.0       44     24.5      0.00      0.32      65.7     0.28      1016.5     0.7       S   170   1.2     SSE   158   9.22    263      -57.4
   11/16/2018 04:30      45.6      45.0       43     23.9      0.00      0.32      65.7     0.28      1016.5     0.7       S   189   1.3     SSW   210   9.22    263      -57.7
   11/16/2018 04:20      45.7      45.1       42     23.7      0.00      0.32      65.7     0.28      1016.5     1.0       S   181   1.8       S   187   9.22    263      -56.9
   11/16/2018 04:10      45.3      44.5       43     23.6      0.00      0.32      65.8     0.28      1016.6     0.5     SSE   155   1.0     SSE   159   9.22    263      -56.1
   11/16/2018 04:00      45.6      44.6       42     23.5      0.00      0.32      65.8     0.28      1016.7     0.2     SSE   150   0.8     SSE   149   9.22    263      -54.8
   11/16/2018 03:50      46.0      45.3       43     24.4      0.00      0.32      65.8     0.28      1016.7     0.0       N     0   0.0     SSE   149   9.22    263      -53.5
   11/16/2018 03:40      46.4      45.6       41     23.9      0.00      0.32      65.8     0.28      1016.8     0.1     SSE   156   0.7     SSE   149   9.22    263      -54.0
   11/16/2018 03:30      47.0      46.1       40     23.5      0.00      0.32      65.8     0.28      1016.8     0.2     SSE   149   1.0     SSE   148   9.22    263      -55.0
   11/16/2018 03:20      46.9      46.3       39     22.6      0.00      0.32      65.9     0.28      1016.8     0.2       S   177   0.9       S   182   9.22    263      -53.9
   11/16/2018 03:10      46.6      45.9       41     24.2      0.00      0.32      65.9     0.28      1016.8     0.6       S   184   1.3     SSW   205   9.23    263      -53.6
   11/16/2018 03:00      46.6      45.8       42     24.6      0.00      0.32      65.9     0.28      1016.8     0.3     WSW   247   1.1     WSW   242   9.23    263      -53.8
   11/16/2018 02:50      47.0      46.4       43     25.2      0.00      0.32      66.0     0.28      1016.8     0.2     SSE   159   0.8      SE   143   9.23    263      -53.8
   11/16/2018 02:40      46.9      46.3       41     23.9      0.00      0.32      66.0     0.28      1016.8     0.9     SSE   158   1.7       S   184   9.23    263      -53.8
   11/16/2018 02:30      47.5      46.3       41     24.1      0.00      0.32      66.0     0.28      1016.9     0.1       S   170   1.4       S   181   9.23    263      -54.5
   11/16/2018 02:20      47.9      47.2       38     23.1      0.00      0.32      66.0     0.28      1017.0     0.4       S   170   1.2       S   187   9.23    263      -54.7
   11/16/2018 02:10      47.7      47.3       39     23.8      0.00      0.32      66.1     0.28      1017.0     0.1       S   188   0.9       S   179   9.23    263      -55.8
   11/16/2018 02:00      48.8      47.4       39     24.1      0.00      0.32      66.0     0.28      1017.0     0.1       E    91   0.8       E    86   9.23    263      -57.4
   11/16/2018 01:50      49.5      48.6       38     24.5      0.00      0.32      66.1     0.28      1017.0     0.3      SE   141   1.4      SE   141   9.23    263      -56.7
   11/16/2018 01:40      49.3      48.7       38     24.4      0.00      0.32      66.1     0.28      1017.0     1.0     SSE   153   1.5      SE   138   9.23    263      -57.7
   11/16/2018 01:30      49.2      48.6       36     23.3      0.00      0.32      66.1     0.28      1017.0     1.0     SSE   158   1.9      SE   146   9.23    262      -58.7
   11/16/2018 01:20      49.3      48.8       37     23.6      0.00      0.32      66.1     0.28      1017.0     1.0     SSE   156   1.9     SSE   149   9.23    263      -58.9
   11/16/2018 01:10      49.1      48.7       35     22.7      0.00      0.32      66.1     0.28      1017.0     0.7       S   176   1.0     SSE   157   9.23    263      -59.7
   11/16/2018 01:00      49.7      48.7       37     24.1      0.00      0.32      66.2     0.28      1017.0     0.0     SSE   150   0.4     SSE   150   9.23    262      -60.3
   11/16/2018 00:50      49.9      49.4       36     23.8      0.00      0.32      66.2     0.28      1017.0     0.5     SSE   150   1.3      SE   145   9.23    262      -60.6
   11/16/2018 00:40      49.9      49.2       35     23.3      0.00      0.32      66.2     0.28      1017.1     0.9     SSE   156   1.2     SSE   159   9.23    262      -60.4
   11/16/2018 00:30      50.1      49.4       35     23.4      0.00      0.32      66.3     0.28      1017.1     0.3     SSE   162   0.8      SE   146   9.23    262      -60.1
   11/16/2018 00:20      50.0      49.5       33     21.6      0.00      0.32      66.2     0.28      1017.2     0.4       S   180   0.9       S   177   9.23    262      -59.5
   11/16/2018 00:10      50.4      49.3       35     23.2      0.00      0.32      66.3     0.28      1017.1     0.2     SSE   162   0.7     SSE   163   9.24    262      -60.1
   11/16/2018 00:00      51.6      50.1       34     23.7      0.00      0.32      66.3     0.28      1017.1     0.3     SSE   157   0.9     SSE   168   9.24    262      -60.7
   11/15/2018 23:50      51.8      51.2       29     20.6      0.00      0.32      66.3     0.28      1017.1     0.4       S   170   0.8      SE   145   9.24    262      -59.5
   11/15/2018 23:40      52.1      51.4       31     22.2      0.00      0.32      66.3     0.28      1017.2     0.3     SSE   168   1.0       S   173   9.24    262      -59.7
   11/15/2018 23:30      52.5      51.8       33     23.8      0.00      0.32      66.3     0.28      1017.2     0.6     SSE   153   1.4     SSE   146   9.24    262      -60.4
   11/15/2018 23:20      52.9      52.1       29     21.4      0.00      0.32      66.3     0.28      1017.2     0.3     SSE   165   1.0       S   175   9.24    262      -60.6
   11/15/2018 23:10      53.6      52.5       32     24.0      0.00      0.32      66.3     0.28      1017.3     0.5     SSE   154   1.8      SE   146   9.24    262      -61.4
   11/15/2018 23:00      53.5      53.1       31     23.4      0.00      0.32      66.3     0.28      1017.3     0.8     SSE   151   1.2     SSE   155   9.24    262      -60.9
   11/15/2018 22:50      54.4      53.2       30     22.6      0.00      0.32      66.3     0.28      1017.3     0.7     SSE   158   1.3     SSE   148   9.24    262      -61.1
   11/15/2018 22:40      54.7      54.2       26     20.5      0.00      0.32      66.3     0.28      1017.3     0.6     SSE   168   1.5       S   171   9.25    262      -60.0
   11/15/2018 22:30      54.8      54.0       30     23.3      0.00      0.32      66.3     0.29      1017.3     0.2     SSW   211   1.4      SW   217   9.25    262      -60.2
   11/15/2018 22:20      55.2      54.4       29     23.1      0.00      0.32      66.3     0.28      1017.3     0.5      SE   142   1.6      SE   146   9.25    262      -60.5
   11/15/2018 22:10      55.5      54.9       28     22.5      0.00      0.32      66.3     0.29      1017.4     0.8     SSE   164   1.6      SE   136   9.25    262      -59.2
   11/15/2018 22:00      56.8      55.4       28     23.3      0.00      0.32      66.3     0.28      1017.5     0.7      SE   141   1.3      SE   132   9.25    262      -59.9
   11/15/2018 21:50      57.2      56.4       25     21.1      0.00      0.32      66.3     0.28      1017.5     0.6     SSE   164   1.4      SE   143   9.25    262      -58.0
   11/15/2018 21:40      57.6      56.9       24     20.7      0.00      0.32      66.3     0.28      1017.5     0.4     SSE   159   1.4     SSE   152   9.25    262      -58.2
   11/15/2018 21:30      58.2      57.4       23     20.6      0.00      0.32      66.3     0.28      1017.4     1.3     SSE   165   2.3     SSW   193   9.25    262      -58.6
   11/15/2018 21:20      58.3      57.3       24     21.0      0.00      0.32      66.3     0.29      1017.4     0.5       S   172   1.6     SSW   194   9.25    262      -59.4
   11/15/2018 21:10      59.4      58.1       22     20.2      0.00      0.32      66.3     0.29      1017.4     0.7     ESE   122   1.8      SE   143   9.25    262      -60.8
   11/15/2018 21:00      60.4      59.1       22     20.3      0.00      0.32      66.3     0.29      1017.4     0.3     SSW   195   1.2     SSW   195   9.26    262      -61.8
   11/15/2018 20:50      62.1      60.3       20     19.6      0.00      0.32      66.3     0.29      1017.4     0.7     ESE   109   1.5     ENE    68   9.26    261      -63.6
   11/15/2018 20:40      64.5      61.9       18     19.0      0.00      0.32      66.3     0.29      1017.4     0.4      SE   141   1.4      SE   129   9.26    261      -65.3
   11/15/2018 20:30      65.0      64.3       16     18.0      0.00      0.32      66.3     0.29      1017.3     0.9     SSW   203   3.6     SSW   198   9.26    261      -67.6
   11/15/2018 20:20      65.2      64.7       16     17.9      0.00      0.32      66.3     0.29      1017.2     1.5      SW   226   3.3      SW   229   9.26    261      -68.6
   11/15/2018 20:10      65.5      64.8       16     17.7      0.00      0.32      66.3     0.29      1017.2     2.3      SW   223   5.3     SSW   201   9.26    261      -69.3
   11/15/2018 20:00      65.6      64.8       16     17.7      0.00      0.32      66.3     0.29      1017.2     2.4      SW   217   4.8      SW   215   9.26    261      -69.7
   11/15/2018 19:50      66.0      65.2       16     17.7      0.00      0.32      66.3     0.29      1017.2     3.1      SW   235   5.3     WSW   239   9.27    261      -71.0
   11/15/2018 19:40      66.3      65.6       16     17.8      0.00      0.32      66.3     0.29      1017.2     3.7     WSW   238   6.4       W   260   9.27    261      -71.9
   11/15/2018 19:30      66.6      65.8       15     17.8      0.00      0.32      66.2     0.29      1017.2     3.3     SSW   210   5.3      SW   216   9.27    261      -72.1
   11/15/2018 19:20      66.4      65.8       15     17.6      0.00      0.32      66.2     0.29      1017.3     3.1      SW   217   5.8      SW   228   9.27    261      -71.3
   11/15/2018 19:10      66.4      65.8       15     17.8      0.00      0.32      66.2     0.29      1017.2     1.7     SSW   214   4.9     SSW   210   9.27    261      -70.2
   11/15/2018 19:00      66.6      66.1       16     18.2      0.00      0.32      66.2     0.29      1017.2     2.8     SSW   203   5.5      SW   233   9.27    261      -69.4
   11/15/2018 18:50      66.4      65.5       16     18.8      0.00      0.32      66.2     0.29      1017.2     2.8     SSW   197   4.7     SSW   206   9.28    261      -66.7
   11/15/2018 18:40      65.9      65.1       17     19.4      0.00      0.32      66.1     0.29      1017.2     1.3     SSW   214   2.2      SW   226   9.28    261      -62.2
   11/15/2018 18:30      65.5      64.7       18     21.1      0.00      0.32      66.1     0.29      1017.1     1.3       S   189   2.2      SW   216   9.28    261      -60.8
   11/15/2018 18:20      66.3      65.2       17     20.1      0.00      0.32      66.1     0.29      1017.0     1.5     SSW   211   4.2      SW   223   9.28    261      -60.0
   11/15/2018 18:10      66.0      65.2       18     21.0      0.00      0.32      66.0     0.29      1017.0     1.1     SSW   197   1.9       S   188   9.28    261      -59.8
   11/15/2018 18:00      66.5      65.3       19     22.4      0.00      0.32      66.0     0.29      1017.0     1.0       S   183   2.1       S   186   9.28    261      -60.8
   11/15/2018 17:50      67.6      66.3       18     21.6      0.00      0.32      66.0     0.29      1016.9     2.0     SSW   207   2.8     SSW   210   9.28    261      -61.2
   11/15/2018 17:40      68.1      67.3       17     21.0      0.00      0.32      66.0     0.29      1016.8     2.4      SW   225   3.4      SW   225   9.29    261      -63.2
   11/15/2018 17:30      68.3      67.0       16     19.9      0.00      0.32      65.9     0.29      1016.8     2.4      SW   236   3.4     WSW   254   9.29    260      -66.5
   11/15/2018 17:20      69.7      67.1       16     20.3      0.00      0.32      65.9     0.29      1016.7     1.3     SSW   198   2.1      SW   219   9.29    260      -70.1
   11/15/2018 17:10      69.7      69.1       15     19.7      0.00      0.32      65.8     0.29      1016.7     2.7     WSW   246   3.1     WSW   245   9.29    260      -71.3
   11/15/2018 17:00      72.9      69.3       14     19.8      0.00      0.32      65.8     0.29      1016.7     1.4     WSW   239   2.7     WSW   237   9.30    260      -75.5
   11/15/2018 16:50      73.7      72.5       14     20.2      0.00      0.32      65.8     0.28      1016.5     1.9     WNW   289   3.2       W   260   9.30    260      -77.6
   11/15/2018 16:40      74.7      73.4       13     19.6      0.00      0.32      65.7     0.29      1016.5     1.5      NW   324   4.6      NW   314   9.30    260      -76.5
   11/15/2018 16:30      76.1      74.2       12     18.8      0.00      0.32      65.7     0.29      1016.4     3.0     WNW   282   5.7     WSW   252   9.30    260      -73.2
   11/15/2018 16:20      76.9      75.8       10     15.8      0.00      0.32      65.7     0.29      1016.3     3.3     WNW   297   6.5     WSW   252   9.30    260      -68.1
   11/15/2018 16:10      77.5      76.7       10     15.6      0.00      0.32      65.6     0.28      1016.2     3.2      NW   307   6.4     WNW   293   9.31    260      -61.8
   11/15/2018 16:00      77.8      77.2       10     15.4      0.00      0.32      65.6     0.28      1016.2     3.0     WNW   302   6.6       W   275   9.31    260      -54.6
   11/15/2018 15:50      78.1      77.4        9     15.5      0.00      0.32      65.5     0.28      1016.2     2.4     WNW   302   5.0      NW   307   9.31    260      -49.2
   11/15/2018 15:40      78.8      77.9        9     15.4      0.00      0.32      65.5     0.28      1016.1     2.4      NW   316   5.0     WNW   290   9.31    260      -46.8
   11/15/2018 15:30      79.5      78.5        9     15.5      0.00      0.32      65.5     0.28      1016.0     2.4     NNW   328   5.7      NW   322   9.31    260      -36.6
   11/15/2018 15:20      80.0      79.2        9     15.8      0.00      0.32      65.4     0.28      1016.0     2.6      NW   324   5.7       N   354   9.31    260      -18.3
   11/15/2018 15:10      80.0      79.6        9     15.3      0.00      0.32      65.3     0.28      1016.0     1.9      NW   317   4.8     NNW   346   9.32    259       13.3
   11/15/2018 15:00      80.1      79.6        9     15.1      0.00      0.32      65.3     0.28      1016.1     2.3      NW   319   5.8      NW   318   9.32    259       21.5
   11/15/2018 14:50      79.8      79.4        8     14.5      0.00      0.32      65.3     0.28      1016.1     3.3      NW   326   6.1      NW   324   9.32    259       41.8
   11/15/2018 14:40      80.6      79.6        8     14.3      0.00      0.32      65.2     0.28      1016.1     3.9     NNW   344   9.2     NNE    32   9.32    259       25.4
   11/15/2018 14:30      80.7      80.1        8     14.3      0.00      0.32      65.2     0.28      1016.1     3.7     NNW   331   6.5     NNW   349   9.32    259       78.5
   11/15/2018 14:20      80.9      80.3        8     13.9      0.00      0.32      65.2     0.28      1016.2     3.7       N   352   7.6     NNW   345   9.33    259       81.5
   11/15/2018 14:10      81.0      80.4        8     13.6      0.00      0.32      65.1     0.28      1016.2     3.5     NNW   345   5.9     NNE    27   9.33    259       91.5
   11/15/2018 14:00      81.8      80.5        8     13.2      0.00      0.32      65.0     0.28      1016.3     4.2       N     1   7.0     NNW   344   9.33    259       83.2
   11/15/2018 13:50      81.7      81.0        7     12.7      0.00      0.32      65.0     0.28      1016.4     3.0     NNW   343   7.4       N     1   9.33    259      161.5
   11/15/2018 13:40      81.5      80.8        7     12.6      0.00      0.32      65.0     0.28      1016.5     4.2      NW   323   7.2     WNW   293   9.33    259      210.7
   11/15/2018 13:30      81.8      80.6        7     12.2      0.00      0.32      64.9     0.28      1016.6     5.1      NW   324  10.1      NW   311   9.33    259      171.5
   11/15/2018 13:20      82.0      81.5        7     11.8      0.00      0.32      64.9     0.28      1016.7     3.7      NW   304   8.7       W   274   9.33    259      206.0
   11/15/2018 13:10      82.0      81.4        7     12.0      0.00      0.32      64.9     0.28      1016.8     2.9     WNW   303   5.4       W   259   9.34    259      234.9
   11/15/2018 13:00      82.2      81.1        7     12.4      0.00      0.32      64.8     0.28      1017.0     4.1       W   260   9.1     WSW   238   9.34    259      292.8
   11/15/2018 12:50      82.0      80.8        7     12.2      0.00      0.32      64.8     0.28      1017.2     5.4     WSW   245  11.6     WSW   254   9.34    259      316.1
   11/15/2018 12:40      81.3      80.1        8     12.5      0.00      0.32      64.8     0.28      1017.4     3.7     WSW   241   7.8     WSW   239   9.34    259      310.0
   11/15/2018 12:30      80.9      80.3        8     12.7      0.00      0.32      64.8     0.28      1017.6     4.5      SW   230   7.9       S   183   9.34    259      329.0
   11/15/2018 12:20      80.9      79.8        8     13.0      0.00      0.32      64.8     0.28      1017.9     3.6     SSW   205   7.2     WSW   238   9.34    259      299.8
   11/15/2018 12:10      81.2      79.8        8     13.0      0.00      0.32      64.8     0.28      1018.1     2.7      SW   217   7.2      SW   222   9.34    259      302.5
   11/15/2018 12:00      80.9      79.2        8     13.2      0.00      0.32      64.7     0.28      1018.3     2.7     WSW   255   7.1      SW   226   9.35    259      340.9
   11/15/2018 11:50      80.0      78.8        8     13.0      0.00      0.32      64.8     0.28      1018.5     3.1      SW   214   6.9     WSW   241   9.35    259      359.1
   11/15/2018 11:40      79.1      78.3        8     13.5      0.00      0.32      64.7     0.28      1018.7     2.7       W   271   5.8     SSW   212   9.35    259      288.7
   11/15/2018 11:30      79.0      77.9        9     13.9      0.00      0.32      64.7     0.28      1018.9     3.0     SSW   203   5.8     WSW   250   9.35    259      224.4
   11/15/2018 11:20      79.0      77.1        9     13.9      0.00      0.32      64.7     0.28      1019.1     4.1     WSW   242   8.1     SSW   203   9.35    259      364.7
   11/15/2018 11:10      78.0      77.1        9     13.3      0.00      0.32      64.8     0.28      1019.2     3.7     SSW   199   7.0     SSW   192   9.35    259      361.1
   11/15/2018 11:00      77.6      76.9        9     13.5      0.00      0.32      64.8     0.28      1019.3     3.5      SW   230   5.9     SSW   203   9.35    259      352.7
   11/15/2018 10:50      77.2      75.9        9     13.8      0.00      0.32      64.8     0.28      1019.5     3.3      SW   223   6.6      SW   233   9.35    259      349.0
   11/15/2018 10:40      76.0      75.2        9     13.9      0.00      0.32      64.8     0.28      1019.7     3.4      SW   219   6.4      SW   234   9.35    259      342.7
   11/15/2018 10:30      75.6      74.7       10     14.3      0.00      0.32      64.9     0.28      1019.9     4.2     SSW   208   7.1      SW   231   9.35    260      327.4
   11/15/2018 10:20      75.5      74.3       10     14.0      0.00      0.32      64.9     0.28      1020.0     3.2      SW   223   7.0     SSW   210   9.36    259      322.5
   11/15/2018 10:10      74.6      73.6       10     14.1      0.00      0.32      64.9     0.28      1020.1     3.2     WSW   254   5.7       W   270   9.36    259      248.7
   11/15/2018 10:00      74.6      73.9       10     13.9      0.00      0.32      64.9     0.28      1020.2     3.5      SW   228   6.1     SSW   203   9.36    260      268.8
   11/15/2018 09:50      74.3      73.4       10     13.9      0.00      0.32      65.0     0.28      1020.3     2.8      SW   225   5.6       W   261   9.36    259      296.8
   11/15/2018 09:40      73.5      72.0       10     13.6      0.00      0.32      65.0     0.28      1020.3     2.6      SW   234   5.4      SW   231   9.36    260      286.3
   11/15/2018 09:30      72.3      71.4       11     13.8      0.00      0.32      65.0     0.28      1020.3     3.1      SW   216   5.2      SW   228   9.36    260      267.6
   11/15/2018 09:20      71.8      70.6       11     14.5      0.00      0.32      65.0     0.28      1020.3     2.5      SW   220   4.4       W   271   9.36    260      243.0
   11/15/2018 09:10      70.7      70.0       12     14.5      0.00      0.32      65.1     0.28      1020.3     2.5     SSW   191   4.1       S   190   9.36    260      223.8
   11/15/2018 09:00      70.2      69.3       11     13.9      0.00      0.32      65.2     0.28      1020.3     3.1      SW   220   5.3      SW   219   9.36    260      206.9
   11/15/2018 08:50      69.4      68.5       11     13.0      0.00      0.32      65.2     0.28      1020.4     2.9     WSW   246   4.4       W   277   9.36    260      192.5
   11/15/2018 08:40      68.9      68.3       12     13.4      0.00      0.32      65.2     0.28      1020.5     3.0      SW   223   4.6      SW   217   9.36    260      178.6
   11/15/2018 08:30      69.0      68.3       12     13.6      0.00      0.32      65.3     0.28      1020.6     2.0     WSW   242   3.6       W   263   9.36    260      161.7
   11/15/2018 08:20      68.3      65.3       14     16.7      0.00      0.32      65.3     0.28      1020.6     0.4     WSW   239   1.8     WSW   251   9.36    260      143.7
   11/15/2018 08:10      65.3      61.8       18     19.4      0.00      0.32      65.3     0.28      1020.5     0.5      NW   324   1.5     WSW   257   9.36    260      126.5
   11/15/2018 08:00      62.0      59.2       24     23.0      0.00      0.32      65.3     0.28      1020.6     0.5      SE   144   1.7      SE   140   9.36    261       92.6
   11/15/2018 07:50      59.2      55.3       27     23.3      0.00      0.32      65.4     0.28      1020.6     0.9     SSE   149   1.8      SE   141   9.36    262       91.7
   11/15/2018 07:40      55.3      53.9       28     21.7      0.00      0.32      65.4     0.28      1020.6     0.5     SSE   152   1.6     SSE   148   9.36    262       64.5
   11/15/2018 07:30      54.2      52.9       28     21.5      0.00      0.32      65.5     0.28      1020.6     1.1      SE   129   1.8      SE   133   9.36    262      -12.7
   11/15/2018 07:20      53.1      50.8       28     19.9      0.00      0.32      65.5     0.28      1020.6     1.0      SE   146   2.2     SSE   153   9.36    262      -39.0
   11/15/2018 07:10      50.8      48.3       30     19.2      0.00      0.32      65.6     0.28      1020.4     0.8     SSE   164   1.7     SSE   161   9.36    262      -38.1
   11/15/2018 07:00      48.5      46.5       33     19.4      0.00      0.32      65.6     0.28      1020.3     0.8     SSE   158   1.8       S   184   9.36    262      -39.7
   11/15/2018 06:50      46.5      45.6       35     19.9      0.00      0.32      65.6     0.28      1020.3     1.2     SSE   155   2.3     SSE   148   9.36    263      -42.7
   11/15/2018 06:40      45.9      45.1       34     18.8      0.00      0.32      65.7     0.28      1020.3     0.5       S   181   1.5       S   187   9.36    262      -46.4
   11/15/2018 06:30      45.8      45.3       33     18.4      0.00      0.32      65.7     0.28      1020.3     1.0       S   175   2.0     SSE   165   9.36    262      -50.2
   11/15/2018 06:20      46.1      45.4       32     17.6      0.00      0.32      65.7     0.28      1020.3     0.6       S   188   1.9     NNE    20   9.36    262      -55.4
   11/15/2018 06:10      46.3      45.6       31     17.2      0.00      0.32      65.8     0.28      1020.1     0.5     SSW   201   2.7     SSW   193   9.36    262      -56.5
   11/15/2018 06:00      46.7      45.9       31     17.1      0.00      0.32      65.8     0.28      1020.0     0.2       S   179   0.8       S   170   9.36    262      -56.9
   11/15/2018 05:50      46.7      46.2       31     17.5      0.00      0.32      65.8     0.28      1020.0     0.4     WSW   245   1.5     WNW   288   9.36    262      -58.7
   11/15/2018 05:40      46.3      45.6       32     17.5      0.00      0.32      65.8     0.28      1019.9     0.9       S   176   2.9      SW   216   9.36    262      -57.7
   11/15/2018 05:30      46.6      45.9       30     16.6      0.00      0.32      65.9     0.28      1019.8     0.7       S   171   1.9      SE   146   9.36    262      -57.8
   11/15/2018 05:20      46.6      45.8       31     17.2      0.00      0.32      65.9     0.28      1019.8     0.9     SSE   161   2.3     NNE    20   9.37    262      -59.1
   11/15/2018 05:10      47.2      46.0       31     17.6      0.00      0.32      65.9     0.28      1019.8     0.8     WSW   244   2.3       N    11   9.37    262      -59.3
   11/15/2018 05:00      48.0      46.9       30     17.2      0.00      0.32      66.0     0.28      1019.8     0.8     SSE   157   1.6     SSW   201   9.37    262      -59.3
   11/15/2018 04:50      47.7      47.0       28     15.6      0.00      0.32      66.0     0.28      1019.8     0.7     SSW   203   2.2     SSW   211   9.37    262      -59.1
   11/15/2018 04:40      47.8      47.0       29     16.7      0.00      0.32      66.0     0.28      1019.8     0.7     SSW   212   2.4     WSW   237   9.37    262      -58.6
   11/15/2018 04:30      48.6      47.5       29     17.3      0.00      0.32      66.0     0.28      1019.8     0.5      SE   144   1.4     SSE   155   9.37    262      -59.5
   11/15/2018 04:20      48.5      47.8       29     17.2      0.00      0.32      66.0     0.28      1019.8     0.6     SSE   156   1.9     SSE   163   9.37    262      -58.9
   11/15/2018 04:10      48.4      47.8       28     16.5      0.00      0.32      66.1     0.28      1019.8     0.3     SSE   165   1.2     SSE   155   9.37    262      -58.7
   11/15/2018 04:00      48.1      47.7       28     16.4      0.00      0.32      66.1     0.28      1019.8     0.3     SSW   200   1.4       S   173   9.37    262      -59.1
   11/15/2018 03:50      48.0      47.6       29     17.4      0.00      0.32      66.2     0.28      1019.8     1.0     SSE   164   2.0     SSW   210   9.37    262      -60.0
   11/15/2018 03:40      47.8      47.3       29     17.1      0.00      0.32      66.2     0.28      1020.0     0.6     SSW   204   1.8       S   183   9.37    262      -60.4
   11/15/2018 03:30      48.3      47.4       29     17.3      0.00      0.32      66.2     0.28      1020.0     0.5       S   178   2.1      SW   221   9.37    262      -60.4
   11/15/2018 03:20      48.4      47.6       29     17.6      0.00      0.32      66.2     0.28      1020.1     1.1      SE   139   2.1     SSE   162   9.37    262      -60.3
   11/15/2018 03:10      48.6      47.6       29     17.4      0.00      0.32      66.3     0.28      1020.2     0.7       S   172   2.2     SSW   192   9.37    262      -60.1
   11/15/2018 03:00      48.9      48.3       27     16.0      0.00      0.32      66.3     0.28      1020.2     0.1     SSE   168   1.2       S   180   9.37    262      -60.2
   11/15/2018 02:50      49.5      48.6       28     17.1      0.00      0.32      66.3     0.29      1020.2     0.2       S   172   1.4       S   184   9.37    262      -61.1
   11/15/2018 02:40      50.2      49.1       27     17.3      0.00      0.32      66.3     0.28      1020.3     0.6      SE   138   1.3      SE   139   9.37    262      -61.9
   11/15/2018 02:30      50.1      49.3       27     17.0      0.00      0.32      66.4     0.29      1020.4     0.6     SSE   162   1.7     SSE   158   9.37    262      -61.2
   11/15/2018 02:20      50.0      49.1       27     16.7      0.00      0.32      66.4     0.28      1020.5     0.5     SSE   149   1.2      SE   140   9.37    262      -62.5
   11/15/2018 02:10      49.5      49.0       27     16.5      0.00      0.32      66.4     0.29      1020.5     1.1     SSE   166   2.4       S   175   9.38    262      -63.0
   11/15/2018 02:00      49.9      49.0       27     16.7      0.00      0.32      66.4     0.29      1020.6     0.4      SW   219   1.5     SSW   213   9.38    262      -63.3
   11/15/2018 01:50      50.3      49.7       26     16.4      0.00      0.32      66.4     0.29      1020.7     0.2       N   358   1.2     NNE    29   9.38    262      -63.6
   11/15/2018 01:40      50.8      49.9       27     17.2      0.00      0.32      66.5     0.29      1020.7     0.6      SW   219   1.4     WSW   247   9.38    262      -63.6
   11/15/2018 01:30      52.0      50.6       25     16.7      0.00      0.32      66.5     0.29      1020.6     0.9      SE   143   2.3       S   187   9.38    262      -64.8
   11/15/2018 01:20      53.1      51.8       24     16.5      0.00      0.32      66.5     0.29      1020.7     0.9     ENE    72   3.2     SSE   151   9.38    262      -66.4
   11/15/2018 01:10      52.9      52.0       23     15.8      0.00      0.32      66.6     0.29      1020.7     1.2      SE   130   2.8       E    95   9.38    262      -65.3
   11/15/2018 01:00      54.1      52.5       22     15.9      0.00      0.32      66.6     0.29      1020.8     1.0      SE   141   2.1      SE   137   9.38    262      -64.4
   11/15/2018 00:50      54.2      53.2       22     15.6      0.00      0.32      66.6     0.29      1020.8     1.1     SSE   149   1.9      SE   129   9.38    262      -65.5
   11/15/2018 00:40      55.4      54.0       21     15.8      0.00      0.32      66.7     0.29      1020.8     1.5     SSE   152   3.1      SE   134   9.38    262      -65.5
   11/15/2018 00:30      55.8      55.0       21     15.9      0.00      0.32      66.7     0.29      1020.8     1.7      SE   144   2.5      SE   144   9.38    262      -66.5
   11/15/2018 00:20      56.9      55.5       19     14.6      0.00      0.32      66.7     0.29      1020.8     1.4     SSE   150   2.6      SE   145   9.38    262      -66.3
   11/15/2018 00:10      56.8      56.3       19     14.3      0.00      0.32      66.7     0.29      1020.8     1.4     SSE   159   2.5      SE   141   9.39    262      -66.8
   11/15/2018 00:00      56.7      54.6       20     14.3      0.00      0.32      66.7     0.29      1020.9     1.7     SSE   164   4.5       S   183   9.39    262      -65.8
   11/14/2018 23:50      55.0      54.0       21     15.1      0.00      0.32      66.8     0.29      1021.0     1.9     SSE   150   2.9      SE   142   9.39    262      -65.1
   11/14/2018 23:40      55.3      54.2       21     15.4      0.00      0.32      66.8     0.29      1021.0     1.3     SSE   148   2.5      SE   134   9.39    262      -64.5
   11/14/2018 23:30      54.5      53.2       22     15.9      0.00      0.32      66.8     0.29      1021.2     1.9      SE   144   2.9      SE   141   9.39    262      -64.0
   11/14/2018 23:20      53.6      52.7       23     16.6      0.00      0.32      66.8     0.29      1021.3     1.3     SSE   148   2.3     SSE   147   9.39    262      -64.2
   11/14/2018 23:10      53.3      51.8       23     15.7      0.00      0.32      66.8     0.29      1021.4     0.8     SSE   157   2.0      SE   146   9.39    262      -63.3
   11/14/2018 23:00      51.8      51.2       26     17.9      0.00      0.32      66.8     0.29      1021.6     1.0     SSE   162   2.2     SSE   156   9.39    262      -63.2
   11/14/2018 22:50      52.0      51.3       26     17.6      0.00      0.32      66.8     0.29      1021.6     0.2     SSE   151   1.0     SSE   157   9.39    262      -64.2
   11/14/2018 22:40      53.0      51.6       24     16.5      0.00      0.32      66.9     0.29      1021.7     0.5       S   174   1.4       S   176   9.39    262      -65.3
   11/14/2018 22:30      52.9      52.4       23     15.4      0.00      0.32      66.9     0.29      1021.7     0.3     SSE   168   1.0       S   179   9.39    262      -64.8
   11/14/2018 22:20      53.6      52.5       24     17.2      0.00      0.32      66.9     0.29      1021.8     0.2     SSE   150   1.0      SE   146   9.40    262      -66.2
   11/14/2018 22:10      54.4      53.4       23     17.3      0.00      0.32      66.9     0.29      1021.9     0.4     SSE   160   1.4       S   171   9.40    262      -66.8
   11/14/2018 22:00      54.3      53.7       24     17.7      0.00      0.32      66.9     0.29      1021.9     0.9     SSE   149   1.5       S   174   9.40    262      -66.4
   11/14/2018 21:50      54.7      54.0       24     17.7      0.00      0.32      66.9     0.29      1021.9     0.5     SSE   158   1.3     SSE   157   9.40    262      -66.4
   11/14/2018 21:40      54.7      54.0       24     17.9      0.00      0.32      66.9     0.29      1021.9     0.5     SSE   165   1.4       S   175   9.40    262      -67.0
   11/14/2018 21:30      55.4      54.5       23     17.9      0.00      0.32      66.9     0.29      1021.9     0.3     SSE   151   1.2      SE   145   9.40    262      -68.2
   11/14/2018 21:20      55.8      55.1       22     17.3      0.00      0.32      66.9     0.29      1021.9     0.8     SSE   157   1.5       S   178   9.40    261      -68.8
   11/14/2018 21:10      56.4      55.5       21     16.9      0.00      0.32      66.9     0.29      1021.9     0.7     SSE   156   1.6     SSE   161   9.41    261      -70.0
   11/14/2018 21:00      56.9      56.0       20     15.4      0.00      0.32      66.9     0.29      1022.0     0.8       S   184   2.2     SSW   211   9.41    261      -70.6
   11/14/2018 20:50      57.9      56.6       20     16.9      0.00      0.32      66.9     0.29      1021.9     1.3     SSE   147   2.6      SE   131   9.41    261      -73.4
   11/14/2018 20:40      58.3      56.9       19     15.6      0.00      0.32      66.9     0.29      1021.8     1.3     SSE   160   2.5     SSW   210   9.41    261      -72.5
   11/14/2018 20:30      58.5      57.1       20     17.1      0.00      0.32      66.9     0.29      1021.8     0.7     SSE   156   2.1     SSE   156   9.41    261      -73.1
   11/14/2018 20:20      58.5      57.5       20     16.9      0.00      0.32      66.9     0.29      1021.8     1.2      SE   137   2.3      SE   134   9.41    261      -74.5
   11/14/2018 20:10      58.1      57.5       20     17.4      0.00      0.32      66.9     0.29      1021.8     1.7     SSE   167   3.2       S   173   9.41    261      -74.4
   11/14/2018 20:00      58.7      57.5       20     17.4      0.00      0.32      66.9     0.29      1021.7     0.7     SSE   161   1.8      SE   141   9.41    261      -75.4
   11/14/2018 19:50      58.8      58.0       20     17.6      0.00      0.32      66.8     0.29      1021.7     1.0     SSE   154   2.2     SSE   157   9.42    261      -76.2
   11/14/2018 19:40      59.2      58.2       20     17.8      0.00      0.32      66.9     0.29      1021.7     1.3     SSE   158   2.5      SE   136   9.42    261      -76.9
   11/14/2018 19:30      60.3      59.0       19     17.3      0.00      0.32      66.8     0.29      1021.6     1.3     SSE   160   2.4     SSE   147   9.42    261      -77.7
   11/14/2018 19:20      61.8      60.1       18     16.3      0.00      0.32      66.8     0.29      1021.6     1.5     SSE   158   3.1       S   170   9.42    261      -78.4
   11/14/2018 19:10      61.6      60.8       16     14.8      0.00      0.32      66.8     0.29      1021.6     1.2     SSE   163   2.6     SSE   155   9.42    261      -79.3
   11/14/2018 19:00      63.0      61.2       16     15.4      0.00      0.32      66.8     0.29      1021.5     1.6     SSE   155   3.6      SE   132   9.43    261      -81.6
   11/14/2018 18:50      65.7      62.7       14     14.5      0.00      0.32      66.8     0.29      1021.5     1.7     SSE   163   4.2       S   185   9.43    260      -82.9
   11/14/2018 18:40      70.0      65.7       11     11.7      0.00      0.32      66.8     0.29      1021.5     1.3      SE   145   2.7     SSE   149   9.43    260      -85.4
   11/14/2018 18:30      70.6      69.7       10     11.5      0.00      0.32      66.8     0.29      1021.4     1.6       N     2   4.3     NNE    14   9.43    260      -88.2
   11/14/2018 18:20      71.5      70.3       10     11.0      0.00      0.32      66.7     0.29      1021.4     2.6       N     4   5.3      NE    51   9.43    260      -88.8
   11/14/2018 18:10      71.7      71.2        9     10.2      0.00      0.32      66.7     0.29      1021.4     3.3       N     7   8.0       N     2   9.43    260      -90.6
   11/14/2018 18:00      72.0      71.2        9     10.6      0.00      0.32      66.7     0.29      1021.3     2.2       N     8   4.2      NE    38   9.44    260      -90.8
   11/14/2018 17:50      72.4      71.7        9     10.3      0.00      0.32      66.7     0.29      1021.2     3.2       N   350   8.8       N     9   9.44    260      -91.6
   11/14/2018 17:40      72.3      70.6       10     10.8      0.00      0.32      66.6     0.29      1021.1     3.4     NNW   345   8.0       N   351   9.44    260      -91.2
   11/14/2018 17:30      72.0      70.7       10     11.1      0.00      0.32      66.7     0.29      1021.1     1.9     NNW   335   4.5      NW   313   9.44    260      -92.0
   11/14/2018 17:20      72.5      71.8        9     10.4      0.00      0.32      66.6     0.29      1020.9     1.9     NNW   331   4.1      NW   311   9.45    260      -93.0
   11/14/2018 17:10      72.9      72.2        9     10.5      0.00      0.32      66.6     0.29      1020.9     2.6       N   351   5.5     NNW   344   9.45    260      -94.4
   11/14/2018 17:00      73.5      72.6        9     10.5      0.00      0.32      66.6     0.29      1020.8     2.2       N   352   4.7     ENE    77   9.45    260      -95.2
   11/14/2018 16:50      74.2      73.3        8      9.6      0.00      0.32      66.5     0.29      1020.8     2.1       N    11   5.2     NNE    12   9.45    260      -95.2
   11/14/2018 16:40      74.7      73.9        8      9.0      0.00      0.32      66.5     0.29      1020.8     5.0       N     5   8.9     NNE    28   9.45    260      -93.2
   11/14/2018 16:30      75.2      74.5        8      8.9      0.00      0.32      66.5     0.29      1020.8     5.6     NNE    13  10.0     NNE    22   9.46    260      -90.7
   11/14/2018 16:20      75.8      74.8        8      9.0      0.00      0.32      66.4     0.29      1020.7     6.4       N    11  13.9     NNE    24   9.46    260      -88.4
   11/14/2018 16:10      76.5      75.5        7      8.7      0.00      0.32      66.4     0.29      1020.7     7.4     NNE    12  14.5       N     1   9.46    259      -63.9
   11/14/2018 16:00      76.7      76.1        7      9.1      0.00      0.32      66.4     0.29      1020.7     5.4       N    10  10.7      NW   312   9.47    259      -31.8
   11/14/2018 15:50      77.0      76.2        7      8.8      0.00      0.32      66.3     0.29      1020.7     6.2       N     0  12.7     NNE    16   9.47    259      -10.6
   11/14/2018 15:40      77.1      76.5        7      8.6      0.00      0.32      66.3     0.29      1020.6     6.1       N     9  10.9       N     8   9.47    259       11.8
   11/14/2018 15:30      77.1      76.7        7      8.5      0.00      0.32      66.3     0.29      1020.6     6.6       N     3  13.7       N     3   9.48    259       35.7
   11/14/2018 15:20      77.6      76.9        7      8.5      0.00      0.32      66.3     0.29      1020.6     6.6       N    10  14.7       N   352   9.48    259       58.3
   11/14/2018 15:10      77.6      77.2        7      8.4      0.00      0.32      66.2     0.29      1020.6     5.6       N     2  12.5      NE    37   9.48    259       81.1
   11/14/2018 15:00      78.6      77.2        7      7.9      0.00      0.32      66.2     0.29      1020.8     6.1       N     9  13.5     NNW   342   9.48    259      104.4
   11/14/2018 14:50      78.5      77.6        7      8.3      0.00      0.32      66.2     0.29      1020.8     4.9       N     0  11.5     NNE    31   9.49    259      126.0
   11/14/2018 14:40      78.7      77.8        7      7.8      0.00      0.32      66.1     0.29      1020.9     6.3       N     0  12.2     NNW   344   9.49    259      147.7
   11/14/2018 14:30      78.6      77.9        7      7.8      0.00      0.32      66.1     0.29      1020.9     5.4       N   354  13.5      NW   321   9.49    258      167.9
   11/14/2018 14:20      78.5      77.9        6      7.3      0.00      0.32      66.0     0.29      1020.9     5.9       N     6  13.3     NNW   343   9.50    258      186.7
   11/14/2018 14:10      78.7      77.5        6      6.7      0.00      0.32      66.0     0.29      1021.0     6.0       N   356  11.7     NNW   334   9.50    259      204.9
   11/14/2018 14:00      78.6      77.8        6      6.8      0.00      0.32      66.0     0.29      1021.1     5.6     NNE    13  11.6      NW   320   9.50    259      220.7
   11/14/2018 13:50      78.5      77.9        6      6.7      0.00      0.32      66.0     0.29      1021.1     6.0       N     5  10.1       N   354   9.50    259      237.7
   11/14/2018 13:40      78.8      77.9        6      6.6      0.00      0.32      66.0     0.29      1021.2     6.5       N     6  11.5       N   354   9.51    258      251.5
   11/14/2018 13:30      78.8      77.7        6      7.4      0.00      0.32      65.9     0.29      1021.4     4.8       N     2   9.3      NE    52   9.51    258      265.4
   11/14/2018 13:20      78.3      77.3        6      6.6      0.00      0.32      65.9     0.29      1021.6     5.9       N   359  10.4       N     8   9.51    259      278.5
   11/14/2018 13:10      78.1      77.3        6      6.7      0.00      0.32      65.9     0.29      1021.7     5.1       N   352  10.5     NNE    14   9.51    259      288.0
   11/14/2018 13:00      78.1      77.2        6      6.7      0.00      0.32      65.9     0.29      1021.9     6.3       N     0  11.6     NNE    12   9.51    259      298.9
   11/14/2018 12:50      78.2      77.1        6      7.0      0.00      0.32      65.8     0.29      1022.0     5.1       N     2   8.3       N     1   9.52    259      309.3
   11/14/2018 12:40      78.0      77.3        7      7.6      0.00      0.32      65.8     0.29      1022.3     5.1       N   353  11.1       N     5   9.52    259      317.0
   11/14/2018 12:30      77.6      76.3        7      6.7      0.00      0.32      65.8     0.29      1022.5     4.7       N     6   9.7       N   355   9.52    259      324.8
   11/14/2018 12:20      77.1      76.5        7      7.2      0.00      0.32      65.8     0.29      1022.7     4.6     NNE    25  10.9       N     4   9.52    259      331.6
   11/14/2018 12:10      76.8      76.0        7      6.7      0.00      0.32      65.8     0.29      1023.1     5.2     NNE    20   9.2     NNE    18   9.52    259      336.8
   11/14/2018 12:00      76.5      75.5        7      7.1      0.00      0.32      65.8     0.29      1023.3     4.9       N   360   9.6     NNE    32   9.52    259      343.1
   11/14/2018 11:50      76.8      75.3        7      7.2      0.00      0.32      65.7     0.29      1023.5     5.6     NNE    12  11.2     NNE    32   9.52    259      345.6
   11/14/2018 11:40      76.0      75.4        7      6.8      0.00      0.32      65.8     0.29      1023.7     5.7       N   355  10.6       N   353   9.53    259      347.1
   11/14/2018 11:30      76.0      75.1        7      7.1      0.00      0.32      65.8     0.28      1024.0     5.3       N     0   9.3       N   351   9.53    259      346.6
   11/14/2018 11:20      76.0      75.3        7      7.7      0.00      0.32      65.7     0.29      1024.2     4.6     NNE    12   8.7     NNE    24   9.53    259      344.6
   11/14/2018 11:10      75.7      74.6        7      7.2      0.00      0.32      65.7     0.28      1024.4     4.8       N     7   8.6       N   354   9.53    259      343.5
   11/14/2018 11:00      76.2      75.2        7      7.9      0.00      0.32      65.8     0.28      1024.6     3.3       N   356   9.7     NNE    28   9.53    259      338.0
   11/14/2018 10:50      75.6      74.4        8      8.6      0.00      0.32      65.8     0.28      1024.9     1.2     NNW   342   2.9      SE   145   9.53    259      332.5
   11/14/2018 10:40      75.3      74.3        8      9.1      0.00      0.32      65.8     0.28      1025.0     1.5       N   359   4.7     NNE    20   9.53    259      327.6
   11/14/2018 10:30      74.6      73.5        8      8.3      0.00      0.32      65.8     0.28      1025.3     1.5     ENE    63   3.4     ESE   104   9.53    259      323.4
   11/14/2018 10:20      73.8      72.1        8      8.8      0.00      0.32      65.8     0.29      1025.5     1.2       N    11   3.1       N   352   9.54    259      314.9
   11/14/2018 10:10      73.1      72.0        8      9.1      0.00      0.32      65.9     0.29      1025.6     1.9       E    88   4.1       S   171   9.54    259      306.9
   11/14/2018 10:00      72.8      71.7        8      8.2      0.00      0.32      65.9     0.28      1025.7     1.0     SSW   194   2.2     SSW   197   9.54    259      297.4
   11/14/2018 09:50      72.3      71.3        9      8.8      0.00      0.32      66.0     0.29      1025.7     1.2     ENE    59   3.6     ESE   113   9.54    259      285.9
   11/14/2018 09:40      71.3      70.6        9      9.3      0.00      0.32      65.9     0.29      1025.8     1.4       E    79   3.2     ESE   113   9.54    259      274.3
   11/14/2018 09:30      71.4      70.6        9      9.6      0.00      0.32      65.9     0.29      1025.8     1.8       E    92   3.8      NE    35   9.54    259      260.9
   11/14/2018 09:20      71.3      69.7        9      9.8      0.00      0.32      65.9     0.29      1025.8     1.1     ENE    61   3.2      NE    48   9.54    259      245.9
   11/14/2018 09:10      70.0      69.3       10     10.0      0.00      0.32      66.0     0.29      1025.8     1.9     NNE    32   4.0      NE    47   9.54    259      232.4
   11/14/2018 09:00      69.7      68.6       10     11.1      0.00      0.32      66.0     0.29      1025.8     1.8      NE    51   4.0       N    10   9.54    259      217.3
   11/14/2018 08:50      68.9      67.8        9      8.1      0.00      0.32      66.0     0.29      1025.8     3.4      NE    37   8.5     NNE    27   9.54    259      203.4
   11/14/2018 08:40      68.9      67.9        9      7.5      0.00      0.32      66.0     0.29      1025.7     4.1      NE    38   8.9      NE    42   9.54    307      188.9
   11/14/2018 08:30      68.8      67.8        9      8.1      0.00      0.32      66.0     0.29      1025.7     1.7     ESE   105   3.3       E    90   9.55    327      170.5
   11/14/2018 08:20      68.0      66.9        9      6.7      0.00      0.32      66.1     0.29      1025.6     2.5     ENE    65   5.5     NNE    23   9.55    329      148.9
   11/14/2018 08:10      67.0      66.3        9      5.8      0.00      0.32      66.1     0.28      1025.6     2.8     NNE    31   4.7       N     8   9.55    372      114.0
   11/14/2018 08:00      66.7      66.3        9      5.7      0.00      0.32      66.1     0.28      1025.6     3.3      NE    39   9.0      NW   318   9.37    260       94.4
   11/14/2018 07:50      66.5      65.9        9      5.2      0.00      0.32      66.1     0.28      1025.5     2.6      NE    36   6.0       N   353   9.37    260       74.0
   11/14/2018 07:40      66.0      65.3        9      5.1      0.00      0.32      66.1     0.28      1025.3     2.7      NE    46   6.7       N     4   9.37    260       54.7
   11/14/2018 07:30      65.5      63.7        9      4.9      0.00      0.32      66.1     0.28      1025.2     1.9     ENE    61   4.8       N     5   9.37    260       -6.1
   11/14/2018 07:20      63.9      62.8       10      4.9      0.00      0.32      66.1     0.28      1025.1     2.0       S   188   4.0     ENE    72   9.37    260      -63.2
   11/14/2018 07:10      62.9      60.7       10      4.8      0.00      0.32      66.1     0.28      1025.0     1.4      SW   225   5.0      SW   232   9.37    260      -61.3
   11/14/2018 07:00      60.8      59.1       12      6.6      0.00      0.32      66.1     0.28      1025.0     2.0     SSE   149   4.7       N     4   9.37    261      -66.0
   11/14/2018 06:50      61.6      60.5       10      4.2      0.00      0.32      66.1     0.28      1024.9     2.1      SE   145   6.4       S   188   9.37    260      -73.2
   11/14/2018 06:40      61.2      59.4       11      5.3      0.00      0.32      66.1     0.28      1024.8     1.7      SE   144   4.3      NW   325   9.37    260      -76.9
   11/14/2018 06:30      62.4      59.5       10      4.7      0.00      0.32      66.2     0.28      1024.7     2.8      SE   129   5.4       S   184   9.37    260      -80.7
   11/14/2018 06:20      62.5      61.8        9      3.5      0.00      0.32      66.1     0.28      1024.6     1.5     ENE    76   4.3     SSW   195   9.38    260      -83.6
   11/14/2018 06:10      63.3      61.9        9      3.3      0.00      0.32      66.2     0.28      1024.6     2.4      SE   142   5.8       S   171   9.38    260      -84.0
   11/14/2018 06:00      63.5      62.7        9      3.2      0.00      0.32      66.1     0.29      1024.5     2.5       E    90   7.9       N   353   9.38    260      -83.0
   11/14/2018 05:50      63.1      62.4        9      3.1      0.00      0.32      66.2     0.28      1024.6     2.2     ESE   115   7.7      SW   220   9.38    260      -78.8
   11/14/2018 05:40      63.9      62.5        9      3.2      0.00      0.32      66.1     0.29      1024.6     1.8      SE   135   5.3     NNE    22   9.38    260      -78.2
   11/14/2018 05:30      63.9      63.3        9      3.1      0.00      0.32      66.2     0.29      1024.7     2.1     NNE    34   5.1      NE    48   9.38    260      -79.0
   11/14/2018 05:20      63.7      62.9        9      2.7      0.00      0.32      66.2     0.28      1024.7     1.6     NNW   346   4.7      NE    46   9.38    260      -75.1
   11/14/2018 05:10      63.1      62.3        9      3.5      0.00      0.32      66.2     0.28      1024.7     2.2     NNE    17   7.6      SW   234   9.38    260      -71.3
   11/14/2018 05:00      63.7      62.3       10      4.4      0.00      0.32      66.2     0.28      1024.7     2.1     SSE   161   5.3       S   191   9.39    260      -66.8
   11/14/2018 04:50      64.4      63.5        9      3.0      0.00      0.32      66.2     0.29      1024.6     2.7      SE   136   5.2      SE   138   9.39    260      -58.6
   11/14/2018 04:40      64.3      63.9        8      2.4      0.00      0.32      66.2     0.29      1024.5     2.4     SSE   151   5.9       S   186   9.39    260      -51.7
   11/14/2018 04:30      64.7      63.9        8      2.3      0.00      0.32      66.2     0.28      1024.5     1.3     ENE    60   5.4      NW   313   9.39    260      -50.7
   11/14/2018 04:20      64.8      64.3        8      2.1      0.00      0.32      66.2     0.28      1024.7     1.5     ENE    64   4.6       N     7   9.39    260      -51.5
   11/14/2018 04:10      64.9      63.5        8      1.9      0.00      0.32      66.2     0.28      1024.7     2.0     NNE    12   6.3     NNE    31   9.39    260      -53.9
   11/14/2018 04:00      64.5      63.7        8      2.1      0.00      0.32      66.3     0.28      1024.6     1.4      SE   144   5.1     SSW   201   9.39    260      -57.1
   11/14/2018 03:50      64.5      63.9        8      1.7      0.00      0.32      66.2     0.29      1024.7     2.1      SE   141   7.5     WSW   246   9.39    260      -57.4
   11/14/2018 03:40      64.8      64.2        8      1.6      0.00      0.32      66.2     0.28      1024.8     1.4     NNE    33   3.8      NE    55   9.39    260      -59.3
   11/14/2018 03:30      64.9      64.4        8      1.3      0.00      0.32      66.2     0.28      1024.8     3.3       N     8   8.9       N     2   9.40    260      -63.0
   11/14/2018 03:20      64.7      64.2        8      1.2      0.00      0.32      66.2     0.28      1024.8     4.1     NNE    18  10.7     NNE    15   9.40    260      -66.7
   11/14/2018 03:10      65.0      64.3        8      1.4      0.00      0.32      66.2     0.29      1024.8     3.6     NNE    27   8.9     NNE    14   9.40    260      -65.3
   11/14/2018 03:00      65.1      64.7        8      1.5      0.00      0.32      66.2     0.29      1024.9     3.5     NNE    13   8.5     NNE    33   9.40    260      -56.8
   11/14/2018 02:50      65.3      64.8        8      1.4      0.00      0.32      66.2     0.28      1024.9     4.7       N    10  10.1     NNE    32   9.40    260      -52.8
   11/14/2018 02:40      65.2      64.8        8      1.3      0.00      0.32      66.2     0.28      1024.9     5.5     NNE    17  11.0     NNW   346   9.40    260      -54.0
   11/14/2018 02:30      65.1      64.5        8      1.3      0.00      0.32      66.2     0.29      1024.9     5.0     NNE    15  12.2     NNE    32   9.40    260      -56.8
   11/14/2018 02:20      65.0      64.5        8      1.4      0.00      0.32      66.2     0.29      1025.0     4.6     NNE    16  10.2      NE    41   9.40    260      -60.7
   11/14/2018 02:10      65.2      64.8        8      1.4      0.00      0.32      66.2     0.28      1025.2     4.6     NNE    12   8.8       N   354   9.41    260      -65.0
   11/14/2018 02:00      65.2      64.8        8      1.3      0.00      0.32      66.2     0.28      1025.2     5.9     NNE    14  11.9       N     2   9.41    260      -67.8
   11/14/2018 01:50      65.5      64.8        8      1.4      0.00      0.32      66.2     0.28      1025.2     4.6     NNE    15  12.9     NNE    33   9.41    260      -67.9
   11/14/2018 01:40      65.5      65.0        8      1.5      0.00      0.32      66.2     0.29      1025.4     4.1     NNE    19   7.7       N     0   9.41    260      -68.0
   11/14/2018 01:30      65.6      65.1        8      1.5      0.00      0.32      66.2     0.29      1025.5     3.5     NNE    25   8.5       N    11   9.41    260      -66.1
   11/14/2018 01:20      65.6      65.2        8      1.2      0.00      0.32      66.2     0.29      1025.5     3.4     NNE    28   7.8     NNE    26   9.41    260      -61.1
   11/14/2018 01:10      65.5      65.0        8      1.4      0.00      0.32      66.2     0.29      1025.3     3.2     NNE    30   6.0       N     8   9.41    260      -53.2
   11/14/2018 01:00      65.3      64.8        8      1.3      0.00      0.32      66.3     0.28      1025.3     3.2     NNE    22   7.2     NNE    13   9.41    260      -50.8
   11/14/2018 00:50      65.6      64.8        8      1.5      0.00      0.32      66.2     0.28      1025.4     2.7     NNE    20   7.3     NNE    30   9.42    260      -53.3
   11/14/2018 00:40      65.7      65.2        8      1.4      0.00      0.32      66.2     0.29      1025.6     3.0     NNE    16   7.2      NE    36   9.42    260      -54.9
   11/14/2018 00:30      65.9      65.3        8      1.4      0.00      0.32      66.2     0.29      1025.5     2.6     NNE    16   6.4     NNE    22   9.42    260      -53.4
   11/14/2018 00:20      65.7      65.2        8      1.4      0.00      0.32      66.2     0.28      1025.4     3.6     NNE    12   9.8      NE    56   9.42    260      -52.7
   11/14/2018 00:10      65.4      65.1        8      1.2      0.00      0.32      66.3     0.28      1025.5     4.9     NNE    13  10.9       N     5   9.42    260      -52.8
   11/14/2018 00:00      65.7      65.2        7      1.0      0.00      0.32      66.3     0.28      1025.4     4.9     NNE    12   9.6     NNE    19   9.42    260      -53.1
   11/13/2018 23:50      65.7      65.1        7      1.0      0.00      0.32      66.3     0.29      1025.4     6.0     NNE    18  11.6     NNE    30   9.42    260      -54.4
   11/13/2018 23:40      65.7      65.2        7      1.0      0.00      0.32      66.3     0.28      1025.5     5.2     NNE    15  10.1       N     0   9.42    260      -57.3
   11/13/2018 23:30      65.7      65.3        7      0.9      0.00      0.32      66.3     0.29      1025.5     7.1       N    10  13.7     NNE    21   9.43    260      -60.6
   11/13/2018 23:20      65.9      65.1        7      1.1      0.00      0.32      66.2     0.28      1025.5     6.2     NNE    14  13.4     NNE    25   9.43    260      -64.5
   11/13/2018 23:10      66.0      65.5        7      0.9      0.00      0.32      66.3     0.28      1025.6     7.5       N     7  12.4       N   355   9.43    260      -66.1
   11/13/2018 23:00      66.2      65.7        7      0.9      0.00      0.32      66.2     0.29      1025.7     7.4     NNE    13  14.3     NNE    29   9.43    260      -67.9
   11/13/2018 22:50      66.2      65.7        7      1.0      0.00      0.32      66.3     0.28      1025.8     5.4       N     5  13.0       N     2   9.43    260      -72.3
   11/13/2018 22:40      66.4      65.9        7      0.6      0.00      0.32      66.3     0.29      1025.8     6.3       N     8  15.2      NE    42   9.43    260      -75.6
   11/13/2018 22:30      66.5      66.0        7      0.7      0.00      0.32      66.3     0.29      1025.8     5.9       N     5  12.2     NNW   332   9.44    260      -79.6
   11/13/2018 22:20      66.7      66.1        7      0.8      0.00      0.32      66.2     0.28      1025.7     4.9       N     5  11.7     NNE    27   9.44    260      -83.2
   11/13/2018 22:10      67.0      66.4        7      0.8      0.00      0.32      66.2     0.29      1025.6     6.1       N     4  12.6     NNE    19   9.44    260      -87.1
   11/13/2018 22:00      67.2      66.7        7      0.8      0.00      0.32      66.2     0.29      1025.6     5.0       N     6  10.1     NNW   327   9.44    260      -86.9
   11/13/2018 21:50      67.2      66.8        7      0.8      0.00      0.32      66.2     0.28      1025.5     5.4       N    11   9.6      NE    40   9.44    260      -85.4
   11/13/2018 21:40      67.2      66.7        7      1.0      0.00      0.32      66.2     0.29      1025.5     5.0       N     9  13.2     NNW   342   9.44    260      -82.7
   11/13/2018 21:30      67.1      66.7        7      1.3      0.00      0.32      66.2     0.29      1025.4     3.5     NNE    15  12.3     NNE    15   9.44    260      -81.0
   11/13/2018 21:20      67.2      66.6        7      1.6      0.00      0.32      66.2     0.29      1025.3     3.7       N     0   8.5     NNW   346   9.45    260      -81.9
   11/13/2018 21:10      67.3      66.6        7      1.7      0.00      0.32      66.3     0.28      1025.3     3.8     NNW   344   8.0     NNW   327   9.45    260      -81.3
   11/13/2018 21:00      67.1      66.7        7      1.0      0.00      0.32      66.3     0.28      1025.3     4.7       N   353  10.4       N   353   9.45    260      -77.7
   11/13/2018 20:50      67.2      66.7        7      0.9      0.00      0.32      66.2     0.29      1025.2     4.7       N   354  10.2     NNE    17   9.45    260      -76.2
   11/13/2018 20:40      67.3      66.8        7      0.7      0.00      0.32      66.2     0.28      1025.3     5.3       N   358   9.8       N    11   9.45    260      -75.8
   11/13/2018 20:30      67.4      67.0        7      0.6      0.00      0.32      66.2     0.29      1025.2     5.5       N    10  14.5       N   355   9.45    260      -74.2
   11/13/2018 20:20      67.4      66.7        7      0.3      0.00      0.32      66.2     0.28      1025.3     6.2       N    10  14.5       N    10   9.45    260      -73.8
   11/13/2018 20:10      67.1      66.6        7      0.0      0.00      0.32      66.2     0.28      1025.4     4.6       N     2  10.2     NNW   343   9.46    260      -73.8
   11/13/2018 20:00      67.0      66.5        7     -0.0      0.00      0.32      66.2     0.28      1025.5     6.7       N   360  15.3     NNW   331   9.46    260      -75.0
   11/13/2018 19:50      67.2      66.5        7      0.1      0.00      0.32      66.2     0.28      1025.3     5.3       N   359  11.3     NNW   341   9.46    260      -77.4
   11/13/2018 19:40      67.1      66.7        7      0.0      0.00      0.32      66.1     0.28      1025.4     6.0       N     7   9.5       N     6   9.46    260      -79.0
   11/13/2018 19:30      67.1      66.7        7     -0.0      0.00      0.32      66.2     0.28      1025.5     3.6     NNE    12   8.0     NNW   337   9.46    260      -80.8
   11/13/2018 19:20      67.1      66.7        7     -0.4      0.00      0.32      66.1     0.29      1025.4     5.2       N     5   9.1       N     0   9.47    260      -83.2
   11/13/2018 19:10      67.0      66.7        7     -0.2      0.00      0.32      66.1     0.29      1025.2     4.1     NNE    26  12.8       N     4   9.47    260      -86.7
   11/13/2018 19:00      67.2      66.7        7     -0.3      0.00      0.32      66.0     0.29      1025.2     4.5     NNE    18   7.9       N     3   9.47    260      -89.3
   11/13/2018 18:50      67.5      66.7        7     -0.5      0.00      0.32      66.0     0.28      1025.2     4.7     NNE    14  10.0      NE    44   9.47    260      -91.8
   11/13/2018 18:40      67.4      67.0        7     -0.5      0.00      0.32      66.0     0.28      1025.2     5.5     NNE    11  11.9      NE    40   9.47    260      -93.0
   11/13/2018 18:30      67.6      67.1        6     -0.6      0.00      0.32      66.0     0.29      1025.3     5.4       N     4  11.8     NNE    20   9.47    260      -93.7
   11/13/2018 18:20      67.9      67.3        6     -0.9      0.00      0.32      66.0     0.29      1025.3     6.8       N     0  11.7       N     0   9.48    260      -94.7
   11/13/2018 18:10      67.8      67.3        6     -1.3      0.00      0.32      66.0     0.28      1025.2     8.1       N   360  15.0       N     3   9.48    260      -95.0
   11/13/2018 18:00      67.9      67.4        6     -1.8      0.00      0.32      65.9     0.28      1025.2     7.5       N     6  15.4       N     5   9.48    259      -95.1
   11/13/2018 17:50      68.0      67.6        6     -2.1      0.00      0.32      65.9     0.28      1025.3     7.5       N     5  13.1     NNE    22   9.48    260      -95.3
   11/13/2018 17:40      68.3      67.7        6     -2.2      0.00      0.32      65.9     0.28      1025.3     7.7     NNE    12  17.0     NNE    30   9.49    260      -95.7
   11/13/2018 17:30      68.4      67.8        6     -2.0      0.00      0.32      65.9     0.29      1025.3     7.4     NNE    11  17.6      NE    38   9.49    260      -95.8
   11/13/2018 17:20      68.5      68.0        6     -1.9      0.00      0.32      65.8     0.28      1025.2     7.9     NNE    14  15.6     NNE    20   9.49    260      -96.0
   11/13/2018 17:10      68.7      68.2        6     -1.6      0.00      0.32      65.8     0.28      1025.2     7.6     NNE    14  18.2       N     9   9.50    259      -95.7
   11/13/2018 17:00      68.8      68.3        6     -1.5      0.00      0.32      65.8     0.28      1025.4     7.2     NNE    12  14.4      NE    35   9.50    260      -95.1
   11/13/2018 16:50      69.0      68.5        6     -1.3      0.00      0.32      65.7     0.28      1025.5     6.2       N     8  12.8     NNE    18   9.50    260      -90.3
   11/13/2018 16:40      69.2      68.6        6     -1.6      0.00      0.32      65.7     0.28      1025.5     6.1     NNE    12  14.9      NW   324   9.51    260      -83.0
   11/13/2018 16:30      69.5      68.8        6     -1.7      0.00      0.32      65.7     0.28      1025.5     6.5       N     8  13.1     NNE    21   9.51    259      -77.5
   11/13/2018 16:20      70.3      69.3        6     -1.4      0.00      0.32      65.7     0.28      1025.4     7.4       N     8  14.5       N     5   9.51    259      -75.8
   11/13/2018 16:10      70.6      70.0        6     -0.8      0.00      0.32      65.6     0.28      1025.5     4.7     NNE    13  10.5     NNE    33   9.51    259      -51.7
   11/13/2018 16:00      71.2      70.2        6     -0.6      0.00      0.32      65.6     0.28      1025.5     6.5     NNE    14  12.0       N     2   9.52    259      -52.8
   11/13/2018 15:50      71.1      70.7        6     -1.0      0.00      0.32      65.6     0.28      1025.4     7.5       N     8  13.8     NNW   343   9.52    259        7.1
   11/13/2018 15:40      71.7      70.8        5     -1.5      0.00      0.32      65.5     0.28      1025.6     9.1       N    10  13.6       N     4   9.53    259       11.1
   11/13/2018 15:30      72.0      71.2        5     -1.6      0.00      0.32      65.5     0.28      1025.7     7.6     NNE    18  17.3     NNE    15   9.53    259       23.4
   11/13/2018 15:20      72.1      71.4        5     -0.9      0.00      0.32      65.5     0.28      1025.7     7.5     NNE    15  15.3     NNE    32   9.53    259       81.6
   11/13/2018 15:10      72.3      71.6        6      0.0      0.00      0.32      65.5     0.28      1025.8     8.6     NNE    14  22.0     NNE    17   9.54    259      127.1
   11/13/2018 15:00      72.0      71.5        6      0.2      0.00      0.32      65.4     0.28      1025.8     7.0     NNE    20  14.5       N     7   9.54    259      118.2
   11/13/2018 14:50      71.9      71.0        6      0.5      0.00      0.32      65.4     0.28      1025.8     7.6     NNE    15  12.6     NNE    19   9.54    259      128.6
   11/13/2018 14:40      71.7      71.0        6      0.5      0.00      0.32      65.3     0.28      1025.7     8.9       N     4  17.5     NNW   348   9.55    259       87.4
   11/13/2018 14:30      72.0      71.4        6      1.2      0.00      0.32      65.3     0.28      1025.7     6.9     NNE    18  17.3      NE    46   9.55    259      114.5
   11/13/2018 14:20      71.8      71.4        6      1.2      0.00      0.32      65.3     0.28      1025.7     8.7     NNE    15  15.2     NNE    19   9.55    259      178.6
   11/13/2018 14:10      72.0      71.3        6      1.0      0.00      0.32      65.2     0.28      1025.7     8.7     NNE    14  16.1     NNW   347   9.56    259      181.0
   11/13/2018 14:00      72.5      71.7        6      0.7      0.00      0.32      65.2     0.28      1025.7     8.8     NNE    12  16.5       N     7   9.56    259      181.7
   11/13/2018 13:50      73.1      72.1        6      1.0      0.00      0.32      65.2     0.28      1025.8     6.5       N    10  13.1     NNE    18   9.56    259      223.3
   11/13/2018 13:40      72.3      71.6        6      0.2      0.00      0.32      65.2     0.28      1025.9     8.6       N    11  19.7     ENE    59   9.57    259      265.3
   11/13/2018 13:30      72.0      71.4        6      0.7      0.00      0.32      65.1     0.28      1025.9     7.2       N     9  17.2     NNW   344   9.57    259      120.0
   11/13/2018 13:20      72.4      71.7        6      0.7      0.00      0.32      65.1     0.28      1026.1     7.2       N     5  14.3     NNE    29   9.57    259       94.8
   11/13/2018 13:10      73.5      72.0        6      1.1      0.00      0.32      65.1     0.28      1026.1     8.9       N     8  15.3       N    10   9.57    259      181.6
   11/13/2018 13:00      73.4      72.5        6      1.8      0.00      0.32      65.1     0.28      1026.1     7.6       N     5  13.1       N     0   9.58    259      323.8
   11/13/2018 12:50      73.5      72.6        6      2.1      0.00      0.32      65.0     0.28      1026.3     8.9     NNE    16  13.9      NE    45   9.58    259      350.1
   11/13/2018 12:40      73.3      72.4        6      2.2      0.00      0.32      65.0     0.28      1026.5     8.2       N     8  15.1       N   354   9.58    259      365.4
   11/13/2018 12:30      72.9      71.9        6      2.1      0.00      0.32      65.0     0.28      1026.7    10.2       N   360  15.7      NE    47   9.58    259      388.3
   11/13/2018 12:20      72.8      71.8        6      2.7      0.00      0.32      65.0     0.28      1026.9     7.6       N    11  14.5     NNW   347   9.58    259      354.9
   11/13/2018 12:10      72.7      71.7        6      2.6      0.00      0.32      65.0     0.28      1027.0     8.6       N    10  15.8     NNW   340   9.59    259      390.3
   11/13/2018 12:00      72.9      72.3        6      2.2      0.00      0.32      65.0     0.28      1027.3     7.2     NNE    22  13.7      NE    37   9.59    259      369.0
   11/13/2018 11:50      72.6      71.7        6      2.3      0.00      0.32      65.0     0.28      1027.4     8.5       N     3  17.9       N     2   9.59    259      368.1
   11/13/2018 11:40      72.3      71.6        6      1.8      0.00      0.32      65.0     0.28      1027.5     8.9     NNE    11  17.5       N     1   9.59    259      368.9
   11/13/2018 11:30      72.7      71.7        6      1.2      0.00      0.32      65.0     0.28      1027.5     8.7       N     7  14.3     NNE    17   9.59    259      361.0
   11/13/2018 11:20      72.5      71.7        6      0.9      0.00      0.32      65.0     0.28      1027.5     8.3       N     7  14.0     NNE    16   9.60    259      360.9
   11/13/2018 11:10      72.0      71.4        6      0.8      0.00      0.32      65.0     0.28      1027.6     9.1       N     5  18.3       N   355   9.60    259      369.9
   11/13/2018 11:00      71.6      70.8        6      0.7      0.00      0.32      65.0     0.28      1027.7     9.2       N     0  16.7     NNE    26   9.60    259      364.2
   11/13/2018 10:50      71.1      70.5        6      1.0      0.00      0.32      65.0     0.28      1027.7     9.3       N     7  19.0       N     5   9.60    259      357.0
   11/13/2018 10:40      70.9      70.1        6      1.3      0.00      0.32      65.0     0.28      1027.9     7.2     NNE    14  14.5       N   355   9.60    259      344.6
   11/13/2018 10:30      70.4      69.6        6      1.1      0.00      0.32      65.0     0.28      1028.0     8.8       N     7  15.5       N   350   9.60    259      330.1
   11/13/2018 10:20      70.1      69.3        6      1.0      0.00      0.32      65.1     0.28      1027.9     9.0       N     8  18.1      NE    42   9.61    259      327.1
   11/13/2018 10:10      69.8      69.2        6      0.7      0.00      0.32      65.1     0.28      1028.0    10.2     NNE    12  17.2     WNW   287   9.61    259      314.0
   11/13/2018 10:00      69.5      68.7        6      0.6      0.00      0.32      65.1     0.28      1028.1     9.9       N     7  16.7       N   355   9.61    259      299.6
   11/13/2018 09:50      69.1      68.5        6      0.4      0.00      0.32      65.1     0.28      1028.2     9.3       N    11  20.6     NNE    18   9.61    259      295.7
   11/13/2018 09:40      69.2      68.5        7      1.2      0.00      0.32      65.1     0.28      1028.2     7.6     NNE    18  17.7     NNE    26   9.62    259      270.6
   11/13/2018 09:30      69.0      68.3        7      1.6      0.00      0.32      65.1     0.28      1028.3     5.0     NNE    21  12.6     NNW   329   9.61    259      262.4
   11/13/2018 09:20      68.5      67.8        7      2.0      0.00      0.32      65.2     0.28      1028.4     5.3     NNE    18  12.9     NNE    18   9.61    259      237.4
   11/13/2018 09:10      68.2      67.6        7      2.6      0.00      0.32      65.2     0.28      1028.4     4.9       N    11  14.2     NNE    13   9.62    259      220.4
   11/13/2018 09:00      67.8      67.3        7      2.4      0.00      0.32      65.2     0.28      1028.4     4.9     NNE    16  10.6     NNE    14   9.62    259      195.2
   11/13/2018 08:50      67.5      66.5        7      2.2      0.00      0.32      65.3     0.28      1028.4     3.9     NNE    29  10.5     ENE    65   9.62    259      191.1
   11/13/2018 08:40      66.7      65.7        8      2.3      0.00      0.32      65.3     0.28      1028.4     3.8     NNE    15   9.7     NNE    24   9.62    259      159.5
   11/13/2018 08:30      65.8      64.6        8      2.3      0.00      0.32      65.4     0.28      1028.3     4.8     NNE    22  12.9       N     9   9.62    260      165.5
   11/13/2018 08:20      64.7      63.4        8      2.6      0.00      0.32      65.3     0.28      1028.3     4.8      NE    36   9.8      NE    38   9.62    260      162.7
   11/13/2018 08:10      63.5      62.8        9      2.3      0.00      0.32      65.4     0.28      1028.3     4.5     NNE    26   9.7     NNE    22   9.62    260      103.6
   11/13/2018 08:00      63.2      62.4        9      2.2      0.00      0.32      65.4     0.28      1028.3     4.1     NNE    26   9.2     NNE    11   9.62    260       72.9
   11/13/2018 07:50      62.6      61.3        9      2.3      0.00      0.32      65.4     0.28      1028.3     4.0      NE    55   9.3     NNE    33   8.71    260       77.2
   11/13/2018 07:40      61.7      61.0       10      3.7      0.00      0.32      65.4     0.28      1028.3     2.4     ESE   116   5.0      SE   127   8.71    260       73.3
   11/13/2018 07:30      61.3      59.6        9      2.1      0.00      0.32      65.5     0.28      1028.2     1.1       S   172   3.9     WNW   298   8.71    260       11.7
   11/13/2018 07:20      60.5      58.3        9      1.5      0.00      0.32      65.5     0.28      1028.1     3.4      SE   128   6.4      NE    56   8.71    260      -53.5
   11/13/2018 07:10      59.2      57.9        9      0.9      0.00      0.32      65.5     0.28      1028.0     2.4       S   186   4.5     WSW   239   8.71    261      -55.0
   11/13/2018 07:00      58.6      58.1        9      0.4      0.00      0.32      65.5     0.28      1028.0     1.4     ESE   110   5.4      SE   133   8.71    261      -61.9
   11/13/2018 06:50      58.3      57.6       10      0.6      0.00      0.32      65.5     0.28      1027.9     1.3     NNE    29   4.9      NE    48   8.71    261      -65.4
   11/13/2018 06:40      57.8      55.5       11      1.6      0.00      0.32      65.5     0.28      1027.9     2.1     ESE   121   4.6     NNE    13   8.71    261      -69.0
   11/13/2018 06:30      57.6      55.7       11      2.1      0.00      0.32      65.6     0.28      1027.7     1.8      SE   145   4.4       S   178   8.71    261      -73.6
   11/13/2018 06:20      57.6      56.0       10      1.5      0.00      0.32      65.6     0.28      1027.7     2.6       S   187   5.3     SSW   199   8.71    261      -77.0
   11/13/2018 06:10      57.4      56.0       11      2.1      0.00      0.32      65.6     0.28      1027.6     1.8     SSE   155   4.2     SSE   151   8.71    261      -78.6
   11/13/2018 06:00      57.8      57.0       10      1.5      0.00      0.32      65.6     0.28      1027.5     2.7      SE   129   5.2     SSE   150   8.71    261      -79.3
   11/13/2018 05:50      58.1      56.7       10      1.2      0.00      0.32      65.6     0.28      1027.6     1.6     ESE   118   5.3     SSE   154   8.71    261      -78.5
   11/13/2018 05:40      57.9      56.0       10      1.0      0.00      0.32      65.6     0.28      1027.6     1.5       S   189   3.7     SSW   209   8.71    261      -79.0
   11/13/2018 05:30      56.2      54.9       11      1.8      0.00      0.32      65.7     0.28      1027.6     2.2     SSE   161   3.7     SSW   212   8.72    261      -76.8
   11/13/2018 05:20      56.3      53.0       12      2.4      0.00      0.32      65.7     0.28      1027.6     2.3     SSE   161   6.3       S   187   8.72    261      -75.0
   11/13/2018 05:10      55.9      54.6       11      1.7      0.00      0.32      65.6     0.28      1027.5     1.5       S   186   2.9     SSW   212   8.72    261      -73.9
   11/13/2018 05:00      55.7      54.6       11      2.2      0.00      0.32      65.7     0.28      1027.6     0.9     SSE   162   3.6      SE   127   8.72    261      -75.0
   11/13/2018 04:50      54.9      53.6       12      3.2      0.00      0.32      65.7     0.28      1027.5     1.1       S   174   3.0     SSE   149   8.72    261      -74.7
   11/13/2018 04:40      54.3      53.0       13      4.2      0.00      0.32      65.7     0.28      1027.5     2.2      SE   142   4.6      SE   140   8.72    261      -73.7
   11/13/2018 04:30      54.4      52.9       12      2.6      0.00      0.32      65.8     0.28      1027.3     0.9     SSE   153   2.9      SE   141   8.72    261      -71.2
   11/13/2018 04:20      53.0      51.8       13      3.3      0.00      0.32      65.8     0.28      1027.3     0.9     SSE   157   2.1      SE   141   8.72    261      -69.1
   11/13/2018 04:10      52.9      52.2       14      4.4      0.00      0.32      65.8     0.28      1027.5     0.8      SE   136   2.5     SSE   155   8.72    261      -71.6
   11/13/2018 04:00      53.9      52.2       13      4.1      0.00      0.32      65.8     0.28      1027.5     2.1     SSE   156   5.3       S   191   8.72    261      -74.1
   11/13/2018 03:50      54.4      52.2       14      4.5      0.00      0.32      65.8     0.28      1027.4     2.4     SSE   162   4.5       S   187   8.72    261      -74.0
   11/13/2018 03:40      54.6      51.7       13      2.9      0.00      0.32      65.8     0.28      1027.3     2.6       S   173   6.7     SSW   204   8.72    261      -74.3
   11/13/2018 03:30      54.7      52.0       13      3.6      0.00      0.32      65.8     0.28      1027.2     1.6      SE   145   3.4     SSE   146   8.72    261      -77.2
   11/13/2018 03:20      56.5      54.0       11      2.2      0.00      0.32      65.8     0.28      1027.1     1.7     SSE   147   3.9       S   191   8.73    261      -77.5
   11/13/2018 03:10      57.5      55.9       10      1.5      0.00      0.32      65.8     0.28      1027.2     3.4       S   184   6.5       S   187   8.73    260      -78.7
   11/13/2018 03:00      57.3      55.3       11      1.6      0.00      0.32      65.9     0.28      1027.1     2.9     SSE   157   5.5       S   189   8.73    260      -78.9
   11/13/2018 02:50      57.5      56.0       10      1.4      0.00      0.32      65.9     0.28      1027.1     2.2     SSE   167   4.3       S   182   8.73    261      -78.1
   11/13/2018 02:40      58.3      56.4       10      1.0      0.00      0.32      65.9     0.28      1027.1     1.9      SE   141   3.7      SE   133   8.73    261      -79.9
   11/13/2018 02:30      59.7      57.8        9     -0.8      0.00      0.32      65.9     0.28      1027.0     1.7       S   172   3.6       S   174   8.73    260      -81.2
   11/13/2018 02:20      59.5      58.5        9     -1.0      0.00      0.32      65.9     0.28      1026.9     1.6      SE   138   3.3       S   176   8.73    261      -82.0
   11/13/2018 02:10      59.1      58.4        9     -0.8      0.00      0.32      65.9     0.28      1027.0     1.1     ENE    67   3.6      NE    45   8.73    260      -82.9
   11/13/2018 02:00      60.2      58.3        9     -0.4      0.00      0.32      65.9     0.28      1027.0     0.6     ENE    71   3.8      NW   325   8.73    261      -82.9
   11/13/2018 01:50      60.8      59.8        8     -0.8      0.00      0.32      65.9     0.28      1027.2     1.1     NNE    31   3.2       E    86   8.73    260      -84.8
   11/13/2018 01:40      60.7      59.8        8     -0.5      0.00      0.32      65.9     0.28      1027.3     2.4     ESE   104   5.3     SSE   154   8.73    260      -86.9
   11/13/2018 01:30      60.9      59.9        8     -0.5      0.00      0.32      66.0     0.29      1027.4     1.5      SE   124   4.4      SE   146   8.73    260      -86.8
   11/13/2018 01:20      61.2      60.6        8     -1.2      0.00      0.32      65.9     0.28      1027.3     1.8     ESE   118   6.2      NE    36   8.74    260      -87.1
   11/13/2018 01:10      61.0      59.7        8     -1.3      0.00      0.32      65.9     0.28      1027.3     2.1       E    95   6.0     SSE   168   8.74    260      -86.3
   11/13/2018 01:00      60.0      59.0        9     -0.3      0.00      0.32      66.0     0.28      1027.3     1.3     ENE    75   3.9     NNE    27   8.74    260      -84.9
   11/13/2018 00:50      59.6      58.6        9     -0.2      0.00      0.32      66.0     0.28      1027.3     1.2     ESE   118   2.6       E    89   8.74    260      -85.0
   11/13/2018 00:40      59.5      57.0        9     -0.2      0.00      0.32      66.0     0.29      1027.2     1.7     ENE    75   4.4      NE    53   8.74    260      -84.4
   11/13/2018 00:30      58.5      56.9       10      1.4      0.00      0.32      65.9     0.28      1027.3     1.4      SE   144   2.9      SE   142   8.74    260      -84.0
   11/13/2018 00:20      60.5      58.3        9     -0.0      0.00      0.32      65.9     0.29      1027.3     2.4       S   173   4.7       S   190   8.74    260      -86.0
   11/13/2018 00:10      61.4      60.1        8     -2.1      0.00      0.32      66.0     0.28      1027.3     2.3     SSE   151   4.8      SE   132   8.74    260      -87.7
   11/13/2018 00:00      61.3      60.5        7     -2.4      0.00      0.32      66.0     0.29      1027.3     0.6       S   190   2.0     SSW   200   8.74    260      -87.7
   11/12/2018 23:50      62.8      61.1        7     -2.1      0.00      0.32      66.0     0.28      1027.2     0.6      SW   222   3.2     SSE   147   8.75    260      -90.0
   11/12/2018 23:40      63.8      62.5        7     -2.3      0.00      0.32      66.0     0.28      1027.2     2.0     ENE    56   5.9       N   349   8.75    260      -94.7
   11/12/2018 23:30      64.3      63.4        7     -2.8      0.00      0.32      66.0     0.29      1027.1     3.4     NNE    23   7.9      NE    39   8.75    260      -96.6
   11/12/2018 23:20      64.6      63.8        6     -3.1      0.00      0.32      65.9     0.28      1027.0     5.7       N     8  11.6       W   276   8.75    260      -97.4
   11/12/2018 23:10      65.2      64.2        6     -3.3      0.00      0.32      65.9     0.29      1026.9     5.1       N   360   9.8     WNW   304   8.75    260      -98.2
   11/12/2018 23:00      65.4      64.7        6     -3.8      0.00      0.32      66.0     0.29      1026.8     5.8       N   360  14.2       N   352   8.75    260      -98.8
   11/12/2018 22:50      65.5      65.0        6     -3.9      0.00      0.32      66.0     0.28      1026.7     7.3       N     5  15.6     NNE    31   8.76    260      -99.3
   11/12/2018 22:40      65.6      65.2        6     -4.1      0.00      0.32      66.0     0.28      1026.7     7.4       N     5  14.6       N   352   8.76    260      -99.6
   11/12/2018 22:30      65.6      65.2        6     -4.3      0.00      0.32      66.0     0.28      1026.6     8.0       N     9  13.9       N     7   8.76    260      -99.2
   11/12/2018 22:20      65.3      64.8        6     -3.9      0.00      0.32      66.0     0.29      1026.7     7.2       N    10  14.1     NNW   341   8.76    260      -98.4
   11/12/2018 22:10      65.6      65.0        6     -3.9      0.00      0.32      66.0     0.29      1026.8     6.8       N     7  14.1     NNE    26   8.76    260      -98.4
   11/12/2018 22:00      65.5      65.0        6     -4.6      0.00      0.32      66.0     0.28      1027.0     5.7       N   355  10.4     NNW   345   8.76    260      -98.2
   11/12/2018 21:50      65.8      65.3        5     -5.7      0.00      0.32      65.9     0.29      1027.1     3.9       N     7   8.7     NNW   329   8.76    260      -98.7
   11/12/2018 21:40      65.8      65.3        5     -6.2      0.00      0.32      66.0     0.28      1027.0     5.9     NNE    12  11.4     NNE    32   8.77    260      -99.8
   11/12/2018 21:30      66.1      65.5        5     -6.4      0.00      0.32      65.9     0.29      1026.8     6.0     NNE    12  13.1     NNE    16   8.77    260     -100.4
   11/12/2018 21:20      66.0      65.6        5     -7.0      0.00      0.32      65.9     0.29      1026.6     7.3       N     7  14.7       N    10   8.77    260     -101.0
   11/12/2018 21:10      65.9      65.3        5     -6.8      0.00      0.32      65.9     0.29      1026.6     6.7       N     7  10.4      NE    36   8.77    260     -100.4
   11/12/2018 21:00      66.1      65.5        5     -7.0      0.00      0.32      65.9     0.28      1026.6     5.9       N   359  11.7       N   353   8.77    260     -100.4
   11/12/2018 20:50      66.2      65.6        5     -7.4      0.00      0.32      65.9     0.28      1026.5     7.1     NNE    13  13.7       N     0   8.77    260     -100.5
   11/12/2018 20:40      66.2      65.7        5     -7.5      0.00      0.32      65.9     0.29      1026.5     5.8       N     7  12.2       N   349   8.78    260     -100.4
   11/12/2018 20:30      66.2      65.4        5     -7.6      0.00      0.32      65.9     0.29      1026.4     6.4       N     6  15.2     NNW   340   8.78    260      -99.6
   11/12/2018 20:20      65.8      65.3        5     -7.2      0.00      0.32      65.9     0.28      1026.3     5.5       N   357  11.8     NNW   328   8.78    260      -99.2
   11/12/2018 20:10      66.0      65.5        5     -7.2      0.00      0.32      65.9     0.28      1026.2     6.6       N     0  13.2     NNE    13   8.78    260      -99.1
   11/12/2018 20:00      66.0      65.5        5     -7.2      0.00      0.32      65.9     0.28      1026.0     6.1       N     7  12.5      NE    40   8.78    260      -99.0
   11/12/2018 19:50      66.0      65.3        5     -6.8      0.00      0.32      65.9     0.29      1026.1     5.0       N     5   9.6       N   354   8.78    260      -98.5
   11/12/2018 19:40      65.8      65.3        5     -6.7      0.00      0.32      65.9     0.29      1026.1     4.5       N   351   9.6     NNE    15   8.79    260      -98.4
   11/12/2018 19:30      65.6      65.2        5     -6.5      0.00      0.32      65.9     0.29      1026.1     3.4       N   353   8.3     NNE    13   8.79    260      -98.6
   11/12/2018 19:20      65.6      65.2        5     -6.2      0.00      0.32      65.8     0.29      1026.0     3.2       N   356   7.7     NNW   338   8.79    260      -99.2
   11/12/2018 19:10      65.6      65.2        5     -6.0      0.00      0.32      65.8     0.29      1025.9     3.7       N   350   8.4       E    87   8.79    260      -99.6
   11/12/2018 19:00      65.8      65.2        5     -6.1      0.00      0.32      65.8     0.28      1025.9     2.9     NNW   342   6.1       W   267   8.79    260     -100.5
   11/12/2018 18:50      66.2      65.4        5     -6.2      0.00      0.32      65.8     0.28      1025.8     3.9     NNW   341   9.3       N     0   8.79    260     -101.4
   11/12/2018 18:40      66.3      65.7        5     -6.4      0.00      0.32      65.8     0.29      1025.7     4.8     NNW   341   9.6     NNE    13   8.80    260     -101.9
   11/12/2018 18:30      66.5      66.0        5     -6.2      0.00      0.32      65.7     0.29      1025.6     5.7       N   357  13.5       N   352   8.80    260     -102.7
   11/12/2018 18:20      66.7      66.2        5     -6.1      0.00      0.32      65.7     0.29      1025.3     6.1       N     0  13.5     NNE    12   8.80    260     -102.5
   11/12/2018 18:10      66.7      66.3        5     -6.3      0.00      0.32      65.7     0.29      1025.1     6.3       N     2  13.8     WSW   257   8.80    260     -102.8
   11/12/2018 18:00      66.9      66.3        5     -6.4      0.00      0.32      65.7     0.29      1024.9     5.3       N     6  12.8       N   353   8.80    259     -103.7
   11/12/2018 17:50      67.3      66.5        5     -6.6      0.00      0.32      65.7     0.29      1024.8     6.3       N   360  11.8      NW   325   8.81    260     -104.5
   11/12/2018 17:40      67.4      66.9        5     -6.5      0.00      0.32      65.6     0.29      1024.7     8.2       N   359  16.7     NNW   332   8.81    259     -104.9
   11/12/2018 17:30      67.7      67.1        5     -6.5      0.00      0.32      65.6     0.29      1024.6     6.9       N   356  14.2       N     6   8.81    260     -105.5
   11/12/2018 17:20      67.9      67.2        5     -6.5      0.00      0.32      65.5     0.29      1024.6     7.3       N     2  14.7     NNE    25   8.82    259     -105.8
   11/12/2018 17:10      68.0      67.6        5     -6.3      0.00      0.32      65.5     0.29      1024.5     7.2       N     3  17.3      NE    42   8.82    259     -106.1
   11/12/2018 17:00      68.5      67.7        5     -5.8      0.00      0.32      65.5     0.29      1024.5     6.1       N   355  11.0     NNW   340   8.83    260     -105.1
   11/12/2018 16:50      69.0      68.1        5     -5.8      0.00      0.32      65.5     0.29      1024.5     5.2       N     0   9.4       N   353   8.83    260     -102.5
   11/12/2018 16:40      69.3      68.7        5     -5.6      0.00      0.32      65.4     0.28      1024.3     6.9       N   355  13.3       N    10   8.83    259      -99.6
   11/12/2018 16:30      69.8      69.0        5     -5.0      0.00      0.32      65.4     0.28      1024.2     7.2       N     0  15.0       N     7   8.84    259      -96.5
   11/12/2018 16:20      70.2      69.5        5     -4.9      0.00      0.32      65.4     0.29      1024.1     9.4       N     3  16.0     NNE    20   8.84    259      -93.1
   11/12/2018 16:10      70.8      69.9        5     -4.3      0.00      0.32      65.3     0.29      1024.1     6.9       N     1  14.0       N   353   8.84    259      -65.4
   11/12/2018 16:00      71.2      70.4        5     -4.8      0.00      0.32      65.3     0.28      1024.0     7.5       N   359  13.8      NE    42   8.84    259      -29.1
   11/12/2018 15:50      71.6      70.9        5     -5.1      0.00      0.32      65.3     0.28      1024.0     7.4       N     0  14.0       N     9   8.85    259       -6.6
   11/12/2018 15:40      71.8      71.2        5     -5.2      0.00      0.32      65.3     0.28      1024.0     6.7       N   359  14.5     NNW   336   8.85    259       16.9
   11/12/2018 15:30      72.4      71.5        4     -5.3      0.00      0.32      65.2     0.28      1023.9     7.6       N     0  14.7       N     8   8.85    259       40.5
   11/12/2018 15:20      72.9      72.0        4     -5.5      0.00      0.32      65.2     0.28      1023.9     7.3       N     2  17.5      NE    41   8.86    259       64.6
   11/12/2018 15:10      72.9      72.2        5     -4.4      0.00      0.32      65.2     0.28      1023.9     6.2       N   356  13.0     NNE    22   8.86    259       88.6
   11/12/2018 15:00      72.9      72.3        4     -4.5      0.00      0.32      65.1     0.28      1023.9     6.6       N     5  14.4     NNE    20   8.86    259      114.3
   11/12/2018 14:50      73.0      72.4        5     -4.2      0.00      0.32      65.0     0.28      1023.9     7.1       N   357  14.3     NNE    28   8.86    259      137.8
   11/12/2018 14:40      73.2      72.6        5     -3.8      0.00      0.32      65.0     0.28      1023.8     6.7       N     4  14.5       N     5   8.87    259      159.4
   11/12/2018 14:30      73.1      72.5        5     -3.8      0.00      0.32      65.0     0.28      1023.7     6.8       N     2  14.3     NNE    24   8.87    259      180.5
   11/12/2018 14:20      72.9      72.3        5     -4.1      0.00      0.32      65.0     0.28      1023.7     8.9       N     6  14.4      NW   313   8.87    259      201.9
   11/12/2018 14:10      73.0      72.5        4     -4.5      0.00      0.32      64.9     0.28      1023.7     8.3       N     3  16.5       N     3   8.88    259      221.2
   11/12/2018 14:00      73.5      72.7        4     -4.6      0.00      0.32      64.9     0.28      1023.8    10.0       N     8  16.2      NE    45   8.88    258      239.3
   11/12/2018 13:50      73.7      72.9        5     -3.9      0.00      0.32      64.9     0.28      1023.8     8.7       N     8  17.3     NNE    29   8.88    259      252.5
   11/12/2018 13:40      73.7      72.7        4     -4.4      0.00      0.32      64.8     0.28      1023.8    10.5       N     7  21.8     NNE    12   8.88    259      270.3
   11/12/2018 13:30      74.0      73.3        5     -3.5      0.00      0.32      64.8     0.28      1023.7     8.0       N    11  17.9     NNE    14   8.89    259      280.9
   11/12/2018 13:20      73.5      72.8        5     -3.7      0.00      0.32      64.8     0.28      1023.7     8.5       N     2  15.0     NNW   344   8.89    259      295.0
   11/12/2018 13:10      73.5      72.7        5     -3.9      0.00      0.32      64.8     0.28      1023.9     8.3       N     0  15.5      NE    36   8.89    259      306.6
   11/12/2018 13:00      73.5      72.9        4     -4.3      0.00      0.32      64.8     0.28      1024.0     8.3       N     1  18.7     NNW   339   8.90    259      318.1
   11/12/2018 12:50      73.9      73.1        5     -3.6      0.00      0.32      64.8     0.28      1024.0     8.9       N   359  16.9     NNW   331   8.90    258      327.5
   11/12/2018 12:40      73.8      72.7        5     -2.7      0.00      0.32      64.7     0.28      1023.9     7.4       N     4  15.1     NNW   342   8.90    259      336.6
   11/12/2018 12:30      73.0      72.4        5     -2.0      0.00      0.32      64.7     0.28      1024.0     9.2       N     4  15.9      NE    40   8.90    259      344.8
   11/12/2018 12:20      73.1      72.0        5     -1.8      0.00      0.32      64.7     0.28      1024.1     8.5       N     3  16.3     NNW   338   8.90    259      352.5
   11/12/2018 12:10      72.7      72.1        5     -0.6      0.00      0.32      64.7     0.28      1024.2     9.1       N   357  17.2      NW   310   8.91    259      359.1
   11/12/2018 12:00      72.5      71.7        6      0.0      0.00      0.32      64.7     0.28      1024.4     9.3       N     5  16.3      NW   314   8.91    259      363.1
   11/12/2018 11:50      72.4      71.7        6     -0.0      0.00      0.32      64.7     0.28      1024.5     8.6       N   355  15.2       N   353   8.91    259      365.8
   11/12/2018 11:40      72.3      71.8        6     -0.7      0.00      0.32      64.7     0.28      1024.4     8.6       N     3  16.0     NNE    13   8.91    259      368.2
   11/12/2018 11:30      72.5      71.8        5     -0.8      0.00      0.32      64.7     0.28      1024.4     9.5       N     3  15.4     WNW   295   8.92    259      368.5
   11/12/2018 11:20      72.5      72.0        5     -1.5      0.00      0.32      64.7     0.28      1024.3     9.2       N     6  17.3     WNW   288   8.92    259      366.0
   11/12/2018 11:10      72.3      71.4        5     -0.9      0.00      0.32      64.7     0.28      1024.4     9.0     NNE    13  16.3     NNE    11   8.92    259      363.8
   11/12/2018 11:00      71.9      71.5        6     -0.3      0.00      0.32      64.7     0.28      1024.5     8.8       N     8  16.5       N     8   8.92    259      357.9
   11/12/2018 10:50      71.8      71.2        6     -0.2      0.00      0.32      64.7     0.28      1024.6     8.2     NNE    11  19.7       N     6   8.92    259      352.0
   11/12/2018 10:40      71.9      71.3        6      0.2      0.00      0.32      64.7     0.28      1024.7     7.0     NNE    14  12.9     NNE    29   8.92    259      346.1
   11/12/2018 10:30      71.6      70.7        6     -0.0      0.00      0.32      64.8     0.28      1024.7     7.6       N     0  13.8     ENE    58   8.92    259      337.3
   11/12/2018 10:20      71.1      70.7        6     -0.5      0.00      0.32      64.8     0.28      1024.7     9.0       N     6  15.1     NNE    27   8.92    259      329.6
   11/12/2018 10:10      71.1      70.7        6      0.3      0.00      0.32      64.8     0.28      1024.8     8.7       N     5  14.1     NNW   327   8.93    259      320.2
   11/12/2018 10:00      71.0      70.1        6      1.0      0.00      0.32      64.8     0.28      1024.9     6.8       N     6  13.9       N   351   8.92    259      308.7
   11/12/2018 09:50      70.3      69.3        6      0.6      0.00      0.32      64.8     0.28      1024.9     8.6       N     3  15.1     NNE    13   8.93    259      298.4
   11/12/2018 09:40      69.6      68.8        6      0.8      0.00      0.32      64.9     0.28      1024.9     8.4       N     0  19.2       N   354   8.93    259      284.5
   11/12/2018 09:30      69.4      68.5        7      1.1      0.00      0.32      64.9     0.28      1024.9     6.9       N     3  14.4     NNE    28   8.93    259      269.0
   11/12/2018 09:20      68.6      67.8        7      0.4      0.00      0.32      64.9     0.28      1024.8     8.9       N     9  18.3       N   353   8.93    259      253.9
   11/12/2018 09:10      68.1      67.5        7      1.0      0.00      0.32      64.9     0.28      1024.7     7.7     NNE    17  15.5     NNE    16   8.93    259      234.9
   11/12/2018 09:00      67.8      67.2        7      1.6      0.00      0.32      65.0     0.28      1024.6     5.7       N     6  10.3     ENE    64   8.93    259      216.6
   11/12/2018 08:50      67.4      66.4        7      1.6      0.00      0.32      65.0     0.28      1024.6     4.8       N     5  12.6      NE    37   8.93    259      200.2
   11/12/2018 08:40      66.6      65.9        7      0.8      0.00      0.32      65.0     0.28      1024.6     6.8       N     7  14.7       N     4   8.93    259      184.8
   11/12/2018 08:30      66.1      65.3        7      0.8      0.00      0.32      65.1     0.28      1024.5     6.7       N     4  13.5       N     8   8.93    260      165.4
   11/12/2018 08:20      65.6      64.9        8      1.2      0.00      0.32      65.1     0.28      1024.5     5.1     NNE    19   9.9     WNW   284   8.93    260      144.9
   11/12/2018 08:10      65.1      64.2        8      0.8      0.00      0.32      65.1     0.28      1024.5     5.9     NNE    14  12.1     NNE    21   8.93    260      125.8
   11/12/2018 08:00      64.4      63.8        8      0.6      0.00      0.32      65.2     0.28      1024.5     5.9     NNE    13  11.2      NE    35   8.93    260      106.4
   11/12/2018 07:50      64.0      63.2        8      0.5      0.00      0.32      65.2     0.28      1024.4     5.0       N    10   9.0       N    10   8.94    260       84.0
   11/12/2018 07:40      63.4      62.4        8      0.0      0.00      0.32      65.2     0.28      1024.2     5.7       N    10  12.9     NNW   336   8.94    261       60.0
   11/12/2018 07:30      62.7      62.1        8     -0.3      0.00      0.32      65.2     0.28      1024.1     6.3     NNE    13  12.6     NNE    15   8.94    260       -0.9
   11/12/2018 07:20      62.2      59.3        8     -0.2      0.00      0.32      65.3     0.28      1024.0     6.4       N     6  13.1       N     7   8.94    261      -64.1
   11/12/2018 07:10      59.1      56.4       11      2.8      0.00      0.32      65.3     0.28      1024.1     1.8     ENE    63   6.9     NNE    25   8.94    262      -58.6
   11/12/2018 07:00      56.5      54.1       12      3.8      0.00      0.32      65.3     0.28      1024.0     2.3     SSE   149   4.2      SE   143   8.94    262      -59.6
   11/12/2018 06:50      54.9      51.1       13      3.5      0.00      0.32      65.3     0.28      1023.8     1.5      SE   143   5.5       W   260   8.93    261      -62.8
   11/12/2018 06:40      51.3      49.5       16      4.9      0.00      0.32      65.4     0.28      1023.7     1.6     SSE   153   3.1     ESE   104   8.94    262      -63.8
   11/12/2018 06:30      51.6      49.9       15      5.3      0.00      0.32      65.4     0.28      1023.6     2.3     SSE   162   3.8      SE   146   8.94    262      -67.6
   11/12/2018 06:20      51.8      50.5       15      4.9      0.00      0.32      65.5     0.28      1023.7     1.7     SSE   151   3.8      SE   139   8.94    262      -69.4
   11/12/2018 06:10      51.6      48.3       14      3.0      0.00      0.32      65.5     0.28      1023.7     1.7       S   181   4.4     WSW   248   8.94    262      -69.8
   11/12/2018 06:00      49.0      47.7       18      6.7      0.00      0.32      65.5     0.28      1023.7     1.4     SSE   148   3.7     SSE   151   8.94    262      -70.7
   11/12/2018 05:50      48.2      47.6       18      5.9      0.00      0.32      65.5     0.28      1023.6     1.7     SSE   156   3.3     SSE   164   8.94    262      -69.8
   11/12/2018 05:40      48.0      46.7       18      6.2      0.00      0.32      65.5     0.28      1023.6     1.3     SSE   162   3.1      SE   143   8.94    262      -70.5
   11/12/2018 05:30      48.8      46.9       18      6.8      0.00      0.32      65.6     0.28      1023.5     1.8     SSE   154   3.7      SE   135   8.94    262      -70.8
   11/12/2018 05:20      48.5      46.9       18      5.8      0.00      0.32      65.5     0.28      1023.3     1.2     SSE   160   2.8     SSE   153   8.94    262      -70.9
   11/12/2018 05:10      48.3      47.3       19      7.1      0.00      0.32      65.6     0.28      1023.1     1.7      SE   142   4.2       S   188   8.94    262      -72.3
   11/12/2018 05:00      48.8      47.7       18      6.8      0.00      0.32      65.6     0.28      1023.0     1.3      SE   141   2.8     SSE   155   8.94    262      -72.5
   11/12/2018 04:50      50.0      47.8       18      6.9      0.00      0.32      65.6     0.28      1023.0     1.3     SSE   156   3.3      SE   145   8.94    262      -72.9
   11/12/2018 04:40      50.0      48.3       17      5.7      0.00      0.32      65.6     0.28      1023.0     1.8     SSE   151   3.7      SE   142   8.94    262      -72.7
   11/12/2018 04:30      49.9      48.0       17      6.0      0.00      0.32      65.7     0.28      1022.9     1.8     SSE   153   2.8     SSE   148   8.94    262      -72.3
   11/12/2018 04:20      50.1      49.4       16      4.8      0.00      0.32      65.7     0.28      1022.9     1.8     SSE   163   4.2      SE   141   8.94    261      -73.8
   11/12/2018 04:10      52.2      49.9       15      5.2      0.00      0.32      65.7     0.28      1022.9     1.9      SE   145   3.5      SE   130   8.95    262      -75.2
   11/12/2018 04:00      54.1      51.9       12      2.0      0.00      0.32      65.7     0.29      1022.9     2.3     SSE   151   4.5      SE   143   8.95    261      -75.2
   11/12/2018 03:50      55.1      53.7       11      0.8      0.00      0.32      65.8     0.28      1022.8     1.3     SSE   150   3.6      SE   143   8.95    261      -75.8
   11/12/2018 03:40      55.1      53.9       11      0.2      0.00      0.32      65.8     0.28      1022.7     1.9      SE   125   3.7     SSE   148   8.95    261      -76.7
   11/12/2018 03:30      54.5      52.5       11      0.3      0.00      0.32      65.8     0.29      1022.7     1.7     ESE   122   4.1       S   178   8.95    261      -76.9
   11/12/2018 03:20      54.0      52.5       12      1.5      0.00      0.32      65.8     0.28      1022.6     2.2     SSE   152   4.6       S   181   8.95    261      -75.7
   11/12/2018 03:10      55.0      52.4       10     -0.6      0.00      0.32      65.9     0.28      1022.6     1.8     SSE   154   3.9      SE   145   8.95    261      -75.9
   11/12/2018 03:00      53.0      52.2       11      0.5      0.00      0.32      65.9     0.29      1022.7     1.4       S   171   3.4       S   190   8.95    261      -77.1
   11/12/2018 02:50      54.0      52.7       11      0.6      0.00      0.32      65.9     0.29      1022.7     1.3       S   171   2.8      SW   221   8.95    261      -76.2
   11/12/2018 02:40      54.0      52.5       11      0.2      0.00      0.32      65.9     0.29      1022.7     1.1     SSE   147   3.3     ESE   113   8.95    261      -77.9
   11/12/2018 02:30      54.5      52.4       11      0.7      0.00      0.32      65.9     0.29      1022.7     1.5     SSE   159   3.3       S   177   8.95    261      -77.4
   11/12/2018 02:20      53.9      53.0       11     -0.7      0.00      0.32      66.0     0.29      1022.7     1.5     SSE   159   3.0      SE   143   8.95    261      -77.0
   11/12/2018 02:10      53.6      51.4       12      1.1      0.00      0.32      66.0     0.29      1022.8     1.6      SE   133   3.5       E    95   8.95    261      -77.8
   11/12/2018 02:00      54.2      50.8       11     -0.3      0.00      0.32      66.0     0.29      1022.8     1.9       S   173   5.7      SE   129   8.95    261      -78.3
   11/12/2018 01:50      51.5      50.4       13      2.5      0.00      0.32      66.0     0.29      1022.8     1.9     SSE   159   3.2       S   169   8.95    261      -77.7
   11/12/2018 01:40      52.6      51.4       13      2.1      0.00      0.32      66.0     0.29      1022.7     2.1     SSE   156   3.8     SSE   161   8.96    261      -77.6
   11/12/2018 01:30      53.3      52.3       12      0.9      0.00      0.32      66.0     0.29      1022.7     1.3     SSE   169   4.5      SE   143   8.96    261      -78.3
   11/12/2018 01:20      53.3      51.6       11     -1.1      0.00      0.32      66.0     0.29      1022.6     1.8     SSE   166   5.3     NNW   341   8.96    261      -78.1
   11/12/2018 01:10      52.2      51.4       13      1.8      0.00      0.32      66.1     0.29      1022.6     1.9     SSE   160   3.4     SSE   164   8.96    261      -78.7
   11/12/2018 01:00      53.5      51.8       12      1.5      0.00      0.32      66.1     0.29      1022.5     2.0     SSE   154   3.7      SE   132   8.96    261      -79.2
   11/12/2018 00:50      54.5      53.0       11      0.3      0.00      0.32      66.1     0.29      1022.6     1.3     SSE   159   2.8     SSE   150   8.96    261      -79.1
   11/12/2018 00:40      54.8      53.2       11     -0.0      0.00      0.32      66.2     0.29      1022.6     2.0     SSE   160   3.3       S   178   8.96    261      -78.4
   11/12/2018 00:30      54.7      53.3       10     -0.9      0.00      0.32      66.1     0.29      1022.5     1.2     SSE   166   3.7       S   183   8.96    261      -78.7
   11/12/2018 00:20      54.2      53.0       11     -0.4      0.00      0.32      66.2     0.29      1022.4     1.8     SSE   167   3.9       S   187   8.97    261      -80.4
   11/12/2018 00:10      53.6      51.8       12      0.4      0.00      0.32      66.2     0.29      1022.5     1.5     SSE   166   2.8     SSE   152   8.97    261      -80.2
   11/12/2018 00:00      55.5      53.4       10     -0.3      0.00      0.32      66.2     0.29      1022.5     1.4     SSE   157   3.0     SSE   151   8.97    261      -82.5
   11/11/2018 23:50      56.5      55.1       10     -0.9      0.00      0.32      66.2     0.29      1022.5     2.5     SSE   147   6.0       S   186   8.97    261      -83.0
   11/11/2018 23:40      58.3      55.8        8     -3.3      0.00      0.32      66.2     0.29      1022.5     1.3      SE   144   3.3      SE   145   8.97    261      -83.0
   11/11/2018 23:30      57.9      56.3        8     -2.8      0.00      0.32      66.3     0.29      1022.4     2.0      SE   145   4.2     SSE   164   8.97    261      -82.3
   11/11/2018 23:20      57.8      54.4        8     -4.2      0.00      0.32      66.3     0.29      1022.4     1.2       S   180   3.8      SE   138   8.97    261      -80.4
   11/11/2018 23:10      55.3      54.1       10     -1.1      0.00      0.32      66.3     0.29      1022.4     2.0     SSE   154   4.3      SE   129   8.97    261      -79.1
   11/11/2018 23:00      56.8      54.6        9     -1.4      0.00      0.32      66.3     0.29      1022.4     1.8     SSE   155   3.1     SSE   150   8.97    261      -79.2
   11/11/2018 22:50      57.0      54.2        9     -2.7      0.00      0.32      66.3     0.29      1022.1     1.6     SSE   151   3.8     WSW   248   8.97    261      -79.8
   11/11/2018 22:40      56.7      54.1        9     -2.4      0.00      0.32      66.3     0.29      1022.0     1.8     SSE   148   3.4      SE   133   8.98    261      -81.2
   11/11/2018 22:30      55.8      54.1       10     -1.0      0.00      0.32      66.3     0.29      1022.0     1.7     SSE   161   4.1       S   185   8.98    261      -81.7
   11/11/2018 22:20      57.9      55.1        9     -2.1      0.00      0.32      66.3     0.29      1021.9     1.9     SSE   157   3.8     SSE   168   8.98    261      -83.9
   11/11/2018 22:10      60.0      57.3        8     -3.7      0.00      0.32      66.3     0.29      1021.9     1.9     SSE   162   4.0     SSE   162   8.98    260      -86.6
   11/11/2018 22:00      60.4      59.3        7     -6.0      0.00      0.32      66.3     0.29      1021.7     1.6      SE   137   3.9      SE   132   8.98    260      -88.6
   11/11/2018 21:50      61.8      60.4        6     -7.3      0.00      0.32      66.3     0.29      1021.7     1.9       E    98   3.9     ENE    76   8.98    260      -89.4
   11/11/2018 21:40      60.7      57.7        7     -6.2      0.00      0.32      66.3     0.29      1021.7     1.5      SE   141   5.8       N    11   8.98    261      -86.0
   11/11/2018 21:30      58.6      57.6        7     -4.7      0.00      0.32      66.3     0.29      1021.6     1.2     SSE   149   2.8     SSE   161   8.98    261      -85.0
   11/11/2018 21:20      58.9      57.7        8     -3.0      0.00      0.32      66.3     0.29      1021.5     1.3      SE   145   3.6     SSE   153   8.98    261      -85.6
   11/11/2018 21:10      58.6      56.4        7     -4.6      0.00      0.32      66.3     0.29      1021.4     1.2      SE   136   3.3       S   181   8.98    261      -83.9
   11/11/2018 21:00      56.6      55.7        9     -1.5      0.00      0.32      66.3     0.29      1021.4     1.4     SSE   157   3.1     SSE   159   8.99    261      -83.1
   11/11/2018 20:50      57.2      55.3       10     -0.8      0.00      0.32      66.3     0.29      1021.4     1.7     SSE   149   3.9     ESE   122   8.99    261      -83.6
   11/11/2018 20:40      57.1      55.1        9     -2.9      0.00      0.32      66.3     0.29      1021.3     1.5     SSE   168   3.9     SSE   153   8.99    260      -84.8
   11/11/2018 20:30      58.6      55.5        9     -1.4      0.00      0.32      66.3     0.29      1021.1     1.9     SSE   154   4.2      SE   137   8.99    261      -84.7
   11/11/2018 20:20      59.9      58.3        7     -5.2      0.00      0.32      66.3     0.29      1020.9     1.3     SSE   155   3.5     SSE   167   8.99    260      -85.5
   11/11/2018 20:10      59.4      56.6        8     -3.3      0.00      0.32      66.3     0.29      1020.8     1.2      SW   215   3.5     WSW   253   8.99    261      -85.0
   11/11/2018 20:00      57.8      55.7       10      0.8      0.00      0.32      66.3     0.29      1020.7     1.5      SE   135   3.9      SE   138   8.99    261      -84.9
   11/11/2018 19:50      59.7      56.6        8     -2.8      0.00      0.32      66.2     0.29      1020.6     1.9     SSE   156   3.5       S   185   9.00    260      -85.0
   11/11/2018 19:40      59.6      58.8        7     -5.0      0.00      0.32      66.2     0.29      1020.4     1.0     SSE   152   2.9       E    99   9.00    260      -86.9
   11/11/2018 19:30      59.0      56.3        9     -1.7      0.00      0.32      66.2     0.29      1020.3     1.5     SSE   152   3.1       S   174   9.00    260      -88.7
   11/11/2018 19:20      57.9      56.7        9     -0.5      0.00      0.32      66.2     0.29      1020.1     1.6       S   170   3.7       S   183   9.00    260      -90.7
   11/11/2018 19:10      59.9      57.3        9     -0.9      0.00      0.32      66.2     0.29      1020.1     1.8     SSE   165   4.6       S   180   9.00    260      -92.4
   11/11/2018 19:00      63.7      59.6        7     -3.4      0.00      0.32      66.2     0.29      1020.1     2.2     SSE   159   4.3     SSE   162   9.00    260      -95.8
   11/11/2018 18:50      64.6      63.6        5     -7.8      0.00      0.32      66.1     0.29      1019.9     1.8     ESE   123   4.2     SSW   203   9.01    260      -99.0
   11/11/2018 18:40      66.4      64.4        5     -7.7      0.00      0.32      66.1     0.29      1019.7     1.1       E   101   3.7       N     4   9.01    260      -99.8
   11/11/2018 18:30      67.2      66.1        5     -8.3      0.00      0.32      66.2     0.29      1019.5     1.8     NNE    25   4.6     NNW   334   9.01    260     -101.7
   11/11/2018 18:20      67.2      66.6        5     -8.1      0.00      0.32      66.1     0.29      1019.4     3.1     NNE    17   7.9      NE    38   9.01    260     -102.8
   11/11/2018 18:10      67.4      66.7        5     -7.7      0.00      0.32      66.1     0.29      1019.4     3.2     NNE    13   8.5     NNW   330   9.01    260     -104.0
   11/11/2018 18:00      67.4      67.1        4     -8.3      0.00      0.32      66.1     0.29      1019.3     4.4     NNE    18  10.1     NNE    14   9.01    260     -105.4
   11/11/2018 17:50      67.9      66.9        4     -8.7      0.00      0.32      66.0     0.29      1019.2     3.8     NNE    14   8.9       N     0   9.02    260     -106.4
   11/11/2018 17:40      67.9      67.3        4     -9.1      0.00      0.32      66.0     0.29      1019.1     4.9       N     7   9.9       N     3   9.02    260     -108.3
   11/11/2018 17:30      68.4      67.6        4     -9.1      0.00      0.32      66.0     0.29      1019.1     3.9       N   356   8.4       N   350   9.02    260     -110.0
   11/11/2018 17:20      68.7      68.1        4     -9.3      0.00      0.32      66.0     0.29      1019.0     4.3       N     3   8.5     WNW   288   9.02    260     -111.3
   11/11/2018 17:10      69.1      68.3        4     -9.8      0.00      0.32      65.9     0.29      1018.9     4.8       N   357   8.9     NNE    15   9.03    260     -112.1
   11/11/2018 17:00      69.5      68.8        4    -10.2      0.00      0.32      65.9     0.29      1018.9     6.0       N     6  11.9      NE    36   9.03    260     -111.5
   11/11/2018 16:50      70.0      69.2        4    -10.4      0.00      0.32      65.9     0.29      1018.8     6.2       N     0  12.5     NNE    12   9.03    260     -109.3
   11/11/2018 16:40      70.5      69.7        4    -10.7      0.00      0.32      65.8     0.29      1018.7     6.2       N     4  11.7     NNE    21   9.04    259     -106.3
   11/11/2018 16:30      70.9      70.2        3    -11.1      0.00      0.32      65.8     0.29      1018.7     6.2       N     6  11.8       N     6   9.04    260     -102.8
   11/11/2018 16:20      71.5      70.6        3    -10.9      0.00      0.32      65.8     0.29      1018.6     6.3       N     9  13.6     NNE    17   9.04    260      -99.5
   11/11/2018 16:10      72.0      71.2        3    -10.9      0.00      0.32      65.7     0.29      1018.6     6.0       N     2  11.8     NNE    25   9.05    259      -63.0
   11/11/2018 16:00      72.4      71.7        3    -10.1      0.00      0.32      65.7     0.29      1018.5     6.6       N     5  11.1     NNE    28   9.05    259      -35.5
   11/11/2018 15:50      72.9      72.2        4     -9.3      0.00      0.32      65.7     0.29      1018.4     5.6       N     3  10.9       N   354   9.05    259      -12.4
   11/11/2018 15:40      73.0      72.6        4     -8.0      0.00      0.32      65.6     0.29      1018.3     5.0       N   358  10.7     NNW   330   9.06    259       10.4
   11/11/2018 15:30      73.3      72.6        4     -7.3      0.00      0.32      65.6     0.29      1018.2     6.5       N     9  13.0     NNE    27   9.06    259       35.6
   11/11/2018 15:20      73.3      72.8        4     -7.3      0.00      0.32      65.6     0.29      1018.0     7.3       N    10  14.0       E    89   9.06    259       60.3
   11/11/2018 15:10      73.5      72.9        4     -7.2      0.00      0.32      65.6     0.29      1017.9     6.9     NNE    11  15.1     NNE    16   9.06    260       83.3
   11/11/2018 15:00      73.7      73.1        4     -6.8      0.00      0.32      65.5     0.29      1017.8     8.1     NNE    14  14.4       N     4   9.07    259      107.2
   11/11/2018 14:50      74.0      73.4        4     -6.0      0.00      0.32      65.5     0.29      1017.7     6.8       N     6  14.7     NNW   344   9.07    259      133.9
   11/11/2018 14:40      73.8      73.3        4     -5.7      0.00      0.32      65.4     0.29      1017.5     8.4       N     4  14.4       N     6   9.07    259      157.8
   11/11/2018 14:30      73.8      73.2        4     -4.5      0.00      0.32      65.4     0.29      1017.4     8.5       N     6  18.1     NNE    21   9.07    259      182.1
   11/11/2018 14:20      74.1      73.3        5     -2.7      0.00      0.32      65.4     0.29      1017.4     9.9       N     7  17.9     NNW   343   9.08    259      203.7
   11/11/2018 14:10      74.3      73.5        5     -2.3      0.00      0.32      65.4     0.29      1017.3     8.8       N     2  14.6     NNW   330   9.08    259      220.7
   11/11/2018 14:00      74.4      73.7        5     -2.5      0.00      0.32      65.3     0.29      1017.3     9.1       N     5  19.0     NNE    22   9.08    259      239.7
   11/11/2018 13:50      74.8      74.1        5     -1.7      0.00      0.32      65.3     0.29      1017.3     8.4       N   359  14.5     NNW   333   9.09    259      255.5
   11/11/2018 13:40      74.9      74.2        5      0.2      0.00      0.32      65.2     0.29      1017.2     8.1       N   357  15.1      NE    36   9.09    259      270.4
   11/11/2018 13:30      75.1      74.4        5     -0.0      0.00      0.32      65.2     0.29      1017.2     8.1       N     2  14.3       N     5   9.09    259      284.8
   11/11/2018 13:20      74.9      74.2        6      1.6      0.00      0.32      65.2     0.29      1017.2     7.6       N   359  13.7       N     4   9.09    259      297.6
   11/11/2018 13:10      74.6      74.1        6      2.2      0.00      0.32      65.2     0.29      1017.3     8.0       N    10  18.3      NE    37   9.09    259      309.1
   11/11/2018 13:00      74.4      73.5        6      2.8      0.00      0.32      65.2     0.29      1017.4     8.2       N     8  15.2       N     6   9.09    259      321.6
   11/11/2018 12:50      74.0      73.0        6      3.7      0.00      0.32      65.2     0.29      1017.5     7.9       N     6  19.5     NNW   347   9.10    259      330.5
   11/11/2018 12:40      74.2      73.2        7      4.4      0.00      0.32      65.2     0.29      1017.6     8.1       N     8  15.0       N     3   9.10    259      338.4
   11/11/2018 12:30      73.7      73.0        7      4.2      0.00      0.32      65.2     0.29      1017.7     8.1       N     1  14.5       N     3   9.10    259      349.1
   11/11/2018 12:20      73.3      72.7        7      4.2      0.00      0.32      65.2     0.29      1017.7     8.9     NNE    14  15.2       N     8   9.10    259      358.0
   11/11/2018 12:10      73.5      72.8        7      4.5      0.00      0.32      65.2     0.29      1017.9     8.6       N     7  15.8      NW   317   9.11    259      361.9
   11/11/2018 12:00      73.5      72.6        7      4.9      0.00      0.32      65.1     0.29      1018.0     7.6       N     0  15.8     NNW   347   9.11    259      365.9
   11/11/2018 11:50      73.4      72.5        7      4.9      0.00      0.32      65.1     0.29      1018.1     8.9       N    10  14.1       N     7   9.11    260      369.4
   11/11/2018 11:40      73.1      72.4        7      5.6      0.00      0.32      65.2     0.29      1018.3     7.6       N   356  13.9       N     0   9.11    259      368.1
   11/11/2018 11:30      72.9      71.8        8      6.3      0.00      0.32      65.1     0.29      1018.4     7.9     NNE    12  14.8     NNE    33   9.11    260      368.0
   11/11/2018 11:20      72.6      71.8        8      7.1      0.00      0.32      65.2     0.29      1018.5     8.7       N     5  17.2     NNE    32   9.12    260      361.6
   11/11/2018 11:10      72.3      71.4        8      7.9      0.00      0.32      65.2     0.29      1018.5     8.4       N     6  15.9     NNE    23   9.11    260      359.1
   11/11/2018 11:00      72.0      71.3        8      8.5      0.00      0.32      65.2     0.28      1018.6     7.3     NNE    12  13.6     NNE    33   9.11    260      355.2
   11/11/2018 10:50      71.8      71.1        9      8.9      0.00      0.32      65.2     0.28      1018.7     8.0       N   357  15.3       N    10   9.12    260      351.7
   11/11/2018 10:40      71.7      71.1        9      9.2      0.00      0.32      65.3     0.28      1018.7     7.1       N     4  13.0     NNE    13   9.12    260      344.6
   11/11/2018 10:30      71.5      70.9        9      9.2      0.00      0.32      65.3     0.28      1018.6     7.6       N     8  13.5     NNE    16   9.12    260      336.0
   11/11/2018 10:20      70.9      70.4        9      8.8      0.00      0.32      65.3     0.28      1018.7     8.1       N     5  15.8       N     0   9.12    260      325.9
   11/11/2018 10:10      70.8      70.1        9      9.2      0.00      0.32      65.3     0.28      1018.7     7.0       N     6  12.9     NNE    31   9.12    260      313.7
   11/11/2018 10:00      70.5      70.0        9      9.5      0.00      0.32      65.4     0.29      1018.7     7.2       N   358  12.5       N     8   9.12    261      298.6
   11/11/2018 09:50      70.4      69.5        9      8.8      0.00      0.32      65.4     0.28      1018.6     6.5       N     3  10.7     NNE    31   9.12    261      288.8
   11/11/2018 09:40      69.7      68.9        9      8.5      0.00      0.32      65.5     0.29      1018.7     7.2       N     4  13.6      NW   304   9.12    261      266.4
   11/11/2018 09:30      68.9      68.4        9      8.7      0.00      0.32      65.5     0.29      1018.7     6.5       N     2  11.9       N     9   9.12    261      256.5
   11/11/2018 09:20      68.5      67.9       10     10.2      0.00      0.32      65.5     0.29      1018.8     4.2       N     4   8.8     NNW   341   9.12    261      237.6
   11/11/2018 09:10      68.2      66.2       12     12.5      0.00      0.32      65.6     0.29      1018.8     1.5       S   171   2.5     SSW   211   9.12    262      219.0
   11/11/2018 09:00      66.3      64.1       14     14.0      0.00      0.32      65.7     0.29      1018.8     1.4     SSW   205   3.4       W   262   9.12    262      200.8
   11/11/2018 08:50      64.1      60.2       22     22.4      0.00      0.32      65.7     0.29      1018.8     0.8     SSE   165   1.7      SE   137   9.12    262      183.6
   11/11/2018 08:40      60.2      57.2       31     27.7      0.00      0.32      65.7     0.29      1018.8     0.7     SSE   159   1.9       S   184   9.12    262      167.4
   11/11/2018 08:30      57.3      54.2       34     27.5      0.00      0.32      65.8     0.29      1018.7     0.2     NNE    34   1.3     NNW   333   9.12    263      145.4
   11/11/2018 08:20      54.2      51.3       39     28.0      0.00      0.32      65.8     0.29      1018.8     0.6      NE    46   2.3       N   350   9.12    263      126.7
   11/11/2018 08:10      51.4      48.7       41     27.4      0.00      0.32      65.9     0.29      1018.6     0.5     SSE   151   1.8       S   176   9.12    263      104.0
   11/11/2018 08:00      48.9      45.7       45     26.7      0.00      0.32      65.9     0.29      1018.5     0.1     ESE   121   0.8       S   169   9.12    263       82.8
   11/11/2018 07:50      45.7      44.0       48     26.0      0.00      0.32      65.9     0.29      1018.5     1.0      SE   138   2.1     SSE   151   9.12    264       59.4
   11/11/2018 07:40      44.0      41.6       51     26.0      0.00      0.32      66.0     0.29      1018.4     0.5       N   353   2.0     NNW   328   9.12    265       28.2
   11/11/2018 07:30      41.7      40.5       54     25.6      0.00      0.32      66.0     0.29      1018.3     0.2     WNW   287   0.9     WNW   303   9.12    265        2.1
   11/11/2018 07:20      40.5      39.2       57     25.7      0.00      0.32      66.0     0.29      1018.1     0.4      SE   129   1.9      SE   132   9.12    265      -26.3
   11/11/2018 07:10      39.3      38.2       56     24.3      0.00      0.32      66.0     0.29      1017.9     0.4      SE   140   2.2      SE   139   9.12    265      -30.1
   11/11/2018 07:00      38.3      37.1       58     24.0      0.00      0.32      66.1     0.29      1017.8     0.5      SW   224   1.4      SW   234   9.12    265      -38.0
   11/11/2018 06:50      37.9      37.3       57     23.6      0.00      0.32      66.1     0.29      1017.6     0.6       E    91   2.2       S   169   9.12    265      -46.9
   11/11/2018 06:40      37.6      36.5       57     22.9      0.00      0.32      66.2     0.29      1017.5     0.7       S   176   3.0     SSW   201   9.12    265      -52.6
   11/11/2018 06:30      37.7      36.7       56     22.7      0.00      0.32      66.2     0.29      1017.4     0.8       S   172   2.4     SSW   211   9.12    265      -57.5
   11/11/2018 06:20      38.3      37.3       54     22.6      0.00      0.32      66.2     0.29      1017.1     0.4     SSE   162   1.5     SSW   197   9.12    265      -60.8
   11/11/2018 06:10      38.6      37.5       53     22.7      0.00      0.32      66.3     0.29      1017.0     1.0     WSW   252   2.4     SSW   213   9.12    265      -61.7
   11/11/2018 06:00      37.8      37.3       55     22.6      0.00      0.32      66.3     0.29      1016.8     1.1     SSE   154   1.9      SE   140   9.12    265      -60.8
   11/11/2018 05:50      38.4      37.4       53     22.4      0.00      0.32      66.3     0.29      1016.7     0.8     SSE   156   1.6       S   174   9.12    265      -60.2
   11/11/2018 05:40      38.4      37.8       53     22.5      0.00      0.32      66.4     0.29      1016.5     0.2     WSW   246   1.2       N    10   9.12    265      -59.0
   11/11/2018 05:30      38.7      37.9       52     22.2      0.00      0.32      66.3     0.29      1016.4     0.1       N   360   1.0     NNW   337   9.12    265      -59.1
   11/11/2018 05:20      39.0      38.5       51     22.3      0.00      0.32      66.4     0.29      1016.3     0.4     ESE   120   1.2     SSE   157   9.12    265      -59.2
   11/11/2018 05:10      39.3      38.7       50     22.1      0.00      0.32      66.5     0.29      1016.2     0.8     SSE   152   1.8      SE   142   9.12    265      -59.2
   11/11/2018 05:00      39.5      39.0       52     23.0      0.00      0.32      66.5     0.29      1016.2     0.1      NE    37   0.9       N     0   9.12    265      -59.1
   11/11/2018 04:50      39.5      39.0       53     23.4      0.00      0.32      66.5     0.29      1016.2     0.7     SSE   151   1.4     SSE   164   9.12    265      -57.7
   11/11/2018 04:40      39.1      38.4       53     23.1      0.00      0.32      66.6     0.29      1016.2     1.0     SSE   156   2.3     SSE   149   9.12    265      -58.6
   11/11/2018 04:30      39.3      38.4       50     21.7      0.00      0.32      66.6     0.29      1016.1     1.0     SSE   164   1.7       S   169   9.12    264      -60.6
   11/11/2018 04:20      39.5      38.8       50     22.1      0.00      0.32      66.7     0.29      1016.1     0.8     ENE    71   1.6       N     5   9.12    265      -60.1
   11/11/2018 04:10      39.6      38.8       49     21.5      0.00      0.32      66.7     0.29      1016.0     0.6       S   171   1.5       S   181   9.12    264      -59.8
   11/11/2018 04:00      40.0      39.3       49     21.9      0.00      0.32      66.7     0.29      1016.0     0.4       S   174   1.0     SSE   167   9.12    264      -59.9
   11/11/2018 03:50      40.2      39.7       48     22.0      0.00      0.32      66.7     0.29      1016.0     0.0       N     0   0.0     SSE   148   9.12    264      -59.8
   11/11/2018 03:40      40.4      40.0       48     22.0      0.00      0.32      66.8     0.29      1015.9     0.3     SSE   156   1.1     SSE   156   9.12    264      -60.0
   11/11/2018 03:30      40.3      39.6       47     21.4      0.00      0.32      66.8     0.29      1015.8     1.3     SSE   157   2.3      SE   146   9.12    264      -60.6
   11/11/2018 03:20      40.5      39.8       48     21.7      0.00      0.32      66.8     0.29      1015.9     0.5     SSE   169   1.2       S   187   9.12    264      -60.2
   11/11/2018 03:10      41.0      40.3       48     22.3      0.00      0.32      66.9     0.29      1015.8     0.0      NE    35   0.7      NE    35   9.12    264      -59.0
   11/11/2018 03:00      42.0      40.8       46     22.1      0.00      0.32      66.9     0.29      1015.8     0.7     SSE   154   1.6     SSE   151   9.12    264      -58.9
   11/11/2018 02:50      41.9      41.0       41     19.5      0.00      0.32      67.0     0.29      1015.9     0.4     SSE   160   1.1     SSE   163   9.12    264      -58.5
   11/11/2018 02:40      41.4      40.7       42     19.9      0.00      0.32      67.0     0.29      1015.9     0.6       S   170   1.4       S   183   9.13    264      -58.4
   11/11/2018 02:30      41.5      40.8       48     22.9      0.00      0.32      67.0     0.29      1015.9     0.0       S   170   0.6       S   180   9.13    264      -57.9
   11/11/2018 02:20      41.7      41.1       49     23.6      0.00      0.32      67.0     0.29      1015.9     0.3     SSE   161   1.0     SSE   161   9.13    264      -57.8
   11/11/2018 02:10      42.0      41.5       47     23.0      0.00      0.32      67.1     0.29      1015.9     0.2     SSE   161   0.7     SSE   161   9.13    264      -58.4
   11/11/2018 02:00      42.1      41.3       43     20.5      0.00      0.32      67.0     0.29      1015.8     0.4       S   184   0.8       S   186   9.13    264      -58.1
   11/11/2018 01:50      42.5      41.7       44     21.7      0.00      0.32      67.1     0.29      1015.8     0.4     SSE   156   1.0     SSE   155   9.13    264      -58.4
   11/11/2018 01:40      42.7      42.0       44     21.6      0.00      0.32      67.1     0.29      1015.8     0.0     SSE   164   0.6     SSE   165   9.13    264      -58.6
   11/11/2018 01:30      42.8      42.2       45     22.8      0.00      0.32      67.2     0.29      1015.8     0.0       N     0   0.0       S   175   9.13    264      -59.2
   11/11/2018 01:20      42.5      42.0       46     22.8      0.00      0.32      67.2     0.29      1015.8     0.4       S   169   1.2       S   177   9.13    264      -59.6
   11/11/2018 01:10      42.5      41.7       43     21.2      0.00      0.32      67.2     0.29      1015.7     0.8     SSE   157   1.8      SE   142   9.13    264      -60.7
   11/11/2018 01:00      42.7      42.1       42     20.9      0.00      0.32      67.2     0.29      1015.8     0.5     SSE   159   1.6     SSE   167   9.13    263      -60.5
   11/11/2018 00:50      43.3      42.3       41     20.5      0.00      0.32      67.3     0.29      1015.7     0.0     SSE   157   0.2     SSE   157   9.13    263      -60.4
   11/11/2018 00:40      43.9      42.9       39     20.2      0.00      0.32      67.4     0.29      1015.6     0.4     SSE   163   1.0     SSE   155   9.13    263      -61.3
   11/11/2018 00:30      43.9      43.6       38     20.0      0.00      0.32      67.3     0.29      1015.6     0.0       N     0   0.0       S   186   9.13    263      -60.2
   11/11/2018 00:20      44.0      43.6       40     21.4      0.00      0.32      67.3     0.29      1015.5     0.2       S   175   0.9       S   177   9.13    263      -60.7
   11/11/2018 00:10      44.0      43.5       42     22.4      0.00      0.32      67.4     0.29      1015.5     0.7     SSE   160   1.4       S   180   9.13    263      -61.7
   11/11/2018 00:00      44.7      43.6       39     20.9      0.00      0.32      67.4     0.29      1015.6     0.8     SSE   161   1.4     SSE   161   9.13    263      -62.7
   11/10/2018 23:50      44.4      43.9       37     19.6      0.00      0.32      67.4     0.29      1015.7     0.4       S   175   1.1       S   183   9.13    263      -61.5
   11/10/2018 23:40      44.8      44.1       37     20.1      0.00      0.32      67.4     0.29      1015.6     0.2     SSE   155   1.1     SSE   152   9.13    263      -61.7
   11/10/2018 23:30      44.9      44.5       39     20.9      0.00      0.32      67.5     0.29      1015.6     0.0     SSE   161   0.7     SSE   161   9.13    263      -61.3
   11/10/2018 23:20      45.0      44.5       42     23.2      0.00      0.32      67.5     0.29      1015.4     0.5     SSE   153   1.5      SE   143   9.13    263      -63.7
   11/10/2018 23:10      45.3      44.8       37     20.0      0.00      0.32      67.5     0.29      1015.5     0.7     SSE   163   1.4     SSE   158   9.13    263      -62.5
   11/10/2018 23:00      45.5      45.0       39     21.7      0.00      0.32      67.5     0.29      1015.6     0.0       S   174   0.0       S   174   9.13    263      -62.2
   11/10/2018 22:50      45.7      45.0       40     22.1      0.00      0.32      67.5     0.29      1015.4     0.2       S   170   0.9       S   185   9.14    263      -63.3
   11/10/2018 22:40      46.3      45.5       42     24.0      0.00      0.32      67.6     0.29      1015.4     0.5     SSE   157   1.3     SSE   152   9.14    263      -63.9
   11/10/2018 22:30      46.7      45.9       39     22.8      0.00      0.32      67.6     0.29      1015.4     0.8     SSE   163   1.4     SSE   164   9.14    263      -63.2
   11/10/2018 22:20      46.9      46.3       36     20.9      0.00      0.32      67.6     0.29      1015.5     0.7     SSE   162   1.2       S   181   9.14    263      -63.3
   11/10/2018 22:10      47.3      46.6       35     20.5      0.00      0.32      67.6     0.29      1015.4     0.0       E    99   0.7     SSE   151   9.14    263      -64.5
   11/10/2018 22:00      47.4      46.8       39     23.4      0.00      0.32      67.6     0.29      1015.3     0.3     SSE   165   1.0     SSE   162   9.14    263      -64.0
   11/10/2018 21:50      47.3      46.8       41     24.3      0.00      0.32      67.6     0.29      1015.2     0.7     SSE   157   1.4     SSE   156   9.14    263      -64.9
   11/10/2018 21:40      47.5      47.0       38     22.9      0.00      0.32      67.6     0.29      1015.1     0.6     SSE   158   1.4      SE   146   9.14    263      -65.1
   11/10/2018 21:30      48.1      47.4       36     22.1      0.00      0.32      67.6     0.29      1015.1     0.7     SSE   164   1.3     SSE   160   9.14    262      -64.9
   11/10/2018 21:20      48.1      47.4       35     21.7      0.00      0.32      67.6     0.29      1015.0     1.1     SSW   195   2.0     SSW   206   9.14    263      -64.5
   11/10/2018 21:10      48.7      47.3       37     22.6      0.00      0.32      67.6     0.29      1014.8     0.1     WSW   237   1.2     WSW   238   9.14    262      -65.4
   11/10/2018 21:00      49.8      48.4       36     22.9      0.00      0.32      67.7     0.29      1014.7     0.0      SE   143   0.8      SE   143   9.14    262      -66.0
   11/10/2018 20:50      49.9      49.4       31     20.2      0.00      0.32      67.7     0.29      1014.6     0.7       S   171   1.6       S   184   9.14    262      -64.9
   11/10/2018 20:40      49.7      49.2       35     22.8      0.00      0.32      67.7     0.29      1014.7     0.6     SSE   162   1.1     SSE   154   9.14    262      -66.3
   11/10/2018 20:30      50.6      49.4       33     22.2      0.00      0.32      67.7     0.29      1014.7     0.8     SSE   159   1.4      SE   142   9.15    262      -66.8
   11/10/2018 20:20      51.0      50.4       30     20.7      0.00      0.32      67.7     0.29      1014.7     0.5     SSE   163   1.1     SSE   158   9.15    262      -66.6
   11/10/2018 20:10      51.4      50.7       30     20.6      0.00      0.32      67.7     0.29      1014.6     0.0     SSE   159   0.8     SSE   159   9.15    262      -67.2
   11/10/2018 20:00      51.4      50.6       30     20.9      0.00      0.32      67.7     0.29      1014.5     0.5       S   181   1.2       S   180   9.15    262      -68.3
   11/10/2018 19:50      52.2      51.1       31     22.1      0.00      0.32      67.7     0.29      1014.5     0.5     SSE   152   1.5      SE   146   9.15    262      -69.8
   11/10/2018 19:40      52.3      51.9       30     21.8      0.00      0.32      67.7     0.29      1014.4     0.7     SSE   157   1.7      SE   142   9.15    262      -71.0
   11/10/2018 19:30      52.5      51.7       30     21.6      0.00      0.32      67.7     0.29      1014.4     1.1     SSE   160   2.0     SSE   149   9.15    262      -72.5
   11/10/2018 19:20      52.3      51.6       29     20.3      0.00      0.32      67.6     0.29      1014.5     0.9     SSE   167   1.6       S   187   9.16    262      -72.7
   11/10/2018 19:10      52.9      51.9       27     19.5      0.00      0.32      67.6     0.29      1014.4     1.0     SSE   157   2.1      SE   146   9.16    262      -73.0
   11/10/2018 19:00      52.7      52.0       27     19.6      0.00      0.32      67.6     0.29      1014.5     1.0     SSE   161   1.8       S   179   9.16    262      -72.8
   11/10/2018 18:50      54.0      52.5       26     19.2      0.00      0.32      67.6     0.29      1014.4     1.1     ESE   123   1.9      SE   138   9.16    262      -74.6
   11/10/2018 18:40      53.9      53.4       24     17.2      0.00      0.32      67.6     0.29      1014.3     0.9       S   184   1.5     SSW   195   9.16    262      -74.2
   11/10/2018 18:30      54.5      53.6       26     19.9      0.00      0.32      67.5     0.29      1014.2     0.3     SSE   149   1.6      SE   145   9.16    262      -78.2
   11/10/2018 18:20      55.4      54.3       25     19.6      0.00      0.32      67.5     0.29      1014.0     0.9     SSE   159   1.8      SE   146   9.16    262      -78.9
   11/10/2018 18:10      56.5      55.0       24     19.0      0.00      0.32      67.5     0.29      1014.0     0.8     SSE   160   1.3       S   169   9.16    262      -80.0
   11/10/2018 18:00      57.1      56.1       22     18.1      0.00      0.32      67.5     0.29      1014.0     0.7     SSE   153   1.9       S   173   9.17    262      -81.6
   11/10/2018 17:50      57.9      56.8       21     18.2      0.00      0.32      67.4     0.29      1014.0     1.1     SSE   156   1.9      SE   146   9.17    261      -82.9
   11/10/2018 17:40      58.8      57.6       21     18.1      0.00      0.32      67.4     0.29      1013.9     1.0     SSE   156   2.1     SSE   156   9.17    261      -85.1
   11/10/2018 17:30      60.0      58.7       19     17.2      0.00      0.32      67.4     0.29      1013.9     1.2       S   172   2.2       S   188   9.17    261      -86.0
   11/10/2018 17:20      62.3      59.7       18     16.8      0.00      0.32      67.3     0.29      1013.9     0.6     SSE   165   1.4       S   189   9.17    261      -87.3
   11/10/2018 17:10      65.8      62.2       14     14.3      0.00      0.32      67.3     0.29      1013.8     1.0     SSE   152   1.7      SE   137   9.17    261      -88.3
   11/10/2018 17:00      68.0      65.7       10      9.3      0.00      0.32      67.3     0.29      1013.7     0.4       S   173   1.6      SE   143   9.18    260      -89.0
   11/10/2018 16:50      69.7      67.8        9      8.6      0.00      0.32      67.3     0.29      1013.8     0.7      SW   216   2.2      SW   224   9.18    260      -90.1
   11/10/2018 16:40      70.6      69.2        9      7.8      0.00      0.32      67.2     0.29      1013.7     2.2     SSW   210   4.3     SSW   201   9.18    260      -90.3
   11/10/2018 16:30      71.0      70.3        8      6.3      0.00      0.32      67.2     0.29      1013.7     3.3      SW   235   6.0      SW   236   9.18    260      -85.6
   11/10/2018 16:20      71.5      70.6        8      5.5      0.00      0.32      67.1     0.29      1013.6     3.5      SW   228   6.3      SW   230   9.19    260      -79.0
   11/10/2018 16:10      72.4      71.3        7      5.6      0.00      0.32      67.1     0.29      1013.6     3.1      SW   223   5.3      SW   227   9.19    260      -58.8
   11/10/2018 16:00      73.1      72.2        7      5.9      0.00      0.32      67.1     0.29      1013.5     2.3     SSW   209   4.8      SW   215   9.19    260      -45.8
   11/10/2018 15:50      73.4      72.8        7      5.1      0.00      0.32      67.0     0.29      1013.5     2.9      SW   226   6.4     WSW   251   9.19    260      -28.6
   11/10/2018 15:40      73.4      73.1        7      5.4      0.00      0.32      67.0     0.29      1013.4     3.7      SW   218   6.3      SW   222   9.19    260      -11.1
   11/10/2018 15:30      73.6      73.1        7      6.2      0.00      0.32      67.0     0.29      1013.4     3.3      SW   221   6.1     WSW   238   9.20    260      -12.0
   11/10/2018 15:20      74.0      73.3        7      6.9      0.00      0.32      66.9     0.29      1013.5     3.3      SW   225   5.3     WSW   237   9.20    260       -9.7
   11/10/2018 15:10      74.8      73.7        7      6.3      0.00      0.32      66.9     0.29      1013.5     4.6      SW   230   7.4       W   263   9.20    260        0.8
   11/10/2018 15:00      75.1      74.3        7      6.3      0.00      0.32      66.9     0.29      1013.4     4.2      SW   224   7.3     WSW   257   9.20    260       19.1
   11/10/2018 14:50      75.4      74.8        7      6.6      0.00      0.32      66.8     0.29      1013.4     4.7      SW   227   7.3      SW   214   9.20    259       43.7
   11/10/2018 14:40      75.6      75.2        7      6.0      0.00      0.32      66.8     0.29      1013.4     5.2      SW   215   8.0      SW   227   9.21    259       85.0
   11/10/2018 14:30      76.2      75.3        7      6.1      0.00      0.32      66.8     0.29      1013.3     5.3      SW   217   9.0     SSW   212   9.21    259       74.1
   11/10/2018 14:20      76.3      75.7        7      6.3      0.00      0.32      66.7     0.29      1013.3     4.8      SW   215   8.2       S   184   9.21    259      125.0
   11/10/2018 14:10      76.8      75.7        7      6.1      0.00      0.32      66.7     0.29      1013.3     5.9      SW   224  11.1      SW   227   9.21    259      127.5
   11/10/2018 14:00      77.9      76.4        6      6.1      0.00      0.32      66.7     0.29      1013.3     5.6      SW   235   8.5     WSW   241   9.21    259      134.8
   11/10/2018 13:50      78.8      77.6        6      6.6      0.00      0.32      66.6     0.29      1013.3     5.1     WSW   239   8.3      SW   217   9.22    259      190.0
   11/10/2018 13:40      78.7      77.7        6      6.8      0.00      0.32      66.6     0.29      1013.4     4.7     WSW   238   8.6     WSW   240   9.22    259      231.2
   11/10/2018 13:30      78.2      77.7        6      6.0      0.00      0.32      66.6     0.29      1013.5     5.2      SW   215   7.6     SSW   203   9.22    259      251.3
   11/10/2018 13:20      78.8      77.9        6      6.4      0.00      0.32      66.6     0.29      1013.6     6.1      SW   219   8.3     WSW   243   9.22    259      263.1
   11/10/2018 13:10      79.7      78.1        6      7.0      0.00      0.32      66.5     0.29      1013.7     4.7      SW   224   9.3      SW   217   9.22    259      245.3
   11/10/2018 13:00      80.0      79.3        6      7.2      0.00      0.32      66.6     0.29      1013.8     2.5     SSW   211   6.4      SW   230   9.22    259      229.5
   11/10/2018 12:50      80.3      78.7        7      9.6      0.00      0.32      66.5     0.29      1013.9     1.5       E    80   5.2       S   174   9.22    259      256.6
   11/10/2018 12:40      78.7      77.3        7      9.0      0.00      0.32      66.4     0.29      1014.1     1.6       N     9   4.7       N     7   9.22    259      235.5
   11/10/2018 12:30      77.8      77.3        8     10.5      0.00      0.32      66.5     0.29      1014.3     2.1     NNE    20   5.1     NNE    16   9.22    259      237.4
   11/10/2018 12:20      77.9      77.1        8     10.4      0.00      0.32      66.5     0.29      1014.4     1.9       N     4   3.6      NE    38   9.22    259      253.6
   11/10/2018 12:10      78.0      76.9        7      9.4      0.00      0.32      66.5     0.29      1014.6     1.1     NNE    20   2.9     NNE    26   9.22    259      276.1
   11/10/2018 12:00      77.3      75.9        8      9.7      0.00      0.32      66.5     0.29      1014.7     1.5      NE    49   2.9     ESE   113   9.22    259      291.1
   11/10/2018 11:50      76.6      75.7        8     11.7      0.00      0.32      66.5     0.29      1014.9     1.8       N    11   3.8     ESE   114   9.22    259      322.6
   11/10/2018 11:40      76.0      74.5        9     12.0      0.00      0.32      66.6     0.29      1015.1     1.2       N     8   2.7     NNW   346   9.22    259      338.4
   11/10/2018 11:30      75.0      73.4        9     11.7      0.00      0.32      66.6     0.29      1015.3     1.3      NE    35   2.9       E    82   9.22    259      332.4
   11/10/2018 11:20      73.7      72.7       10     12.4      0.00      0.32      66.6     0.29      1015.6     1.7       N     8   3.4     NNE    15   9.22    259      324.3
   11/10/2018 11:10      73.3      71.8        9      9.9      0.00      0.32      66.6     0.29      1015.8     1.8       N     6   3.1       N    10   9.22    259      336.9
   11/10/2018 11:00      72.1      70.9        8      8.0      0.00      0.32      66.7     0.29      1016.0     1.4     NNW   347   3.3      NE    44   9.22    259      326.8
   11/10/2018 10:50      71.5      70.6        9      9.8      0.00      0.32      66.7     0.29      1016.1     1.1       N   349   2.9       N    10   9.22    259      314.0
   11/10/2018 10:40      70.8      69.3       10     11.5      0.00      0.32      66.7     0.29      1016.2     0.9     NNE    17   2.2     NNW   346   9.22    260      309.9
   11/10/2018 10:30      69.9      68.2       10     10.8      0.00      0.32      66.8     0.29      1016.3     0.6       E    79   1.8      NE    38   9.22    260      302.1
   11/10/2018 10:20      69.3      67.7       11     11.3      0.00      0.32      66.8     0.29      1016.3     0.9      NE    44   2.3       N     8   9.22    260      277.6
   11/10/2018 10:10      67.8      66.2       13     14.6      0.00      0.32      66.8     0.29      1016.4     0.6     ENE    65   1.8     ENE    61   9.22    260      263.8
   11/10/2018 10:00      66.3      65.0       16     18.0      0.00      0.32      66.9     0.29      1016.5     0.6       N     5   1.9     NNE    24   9.22    260      252.5
   11/10/2018 09:50      65.2      63.7       18     20.3      0.00      0.32      66.9     0.29      1016.6     0.6       N   355   1.8     WNW   291   9.22    260      244.7
   11/10/2018 09:40      63.9      62.6       19     19.8      0.00      0.32      67.0     0.29      1016.6     0.6     NNW   345   1.3     NNW   346   9.22    261      229.1
   11/10/2018 09:30      62.8      59.9       21     21.2      0.00      0.32      67.0     0.29      1016.7     0.1      NW   324   1.0     WNW   302   9.22    261      213.4
   11/10/2018 09:20      60.1      59.3       24     22.3      0.00      0.32      67.0     0.29      1016.8     1.2       N     9   2.3       N     7   9.22    261      190.5
   11/10/2018 09:10      59.6      57.9       24     22.6      0.00      0.32      67.1     0.29      1016.8     0.3       N     9   1.9       N   355   9.22    261      169.0
   11/10/2018 09:00      58.0      56.8       24     20.9      0.00      0.32      67.1     0.29      1016.9     0.4     NNE    22   1.1     NNE    16   9.22    261      161.7
   11/10/2018 08:50      56.8      55.9       26     21.4      0.00      0.32      67.2     0.29      1016.8     0.7       N    11   1.6      NE    49   9.22    261      156.6
   11/10/2018 08:40      56.2      54.7       26     21.3      0.00      0.32      67.3     0.29      1016.8     0.2       N     1   1.3     NNW   347   9.22    261      163.2
   11/10/2018 08:30      55.0      53.3       27     21.1      0.00      0.32      67.3     0.29      1016.8     0.0      NE    37   0.5      NE    42   9.22    261      158.3
   11/10/2018 08:20      53.3      51.4       29     20.6      0.00      0.32      67.3     0.29      1016.7     0.0      NE    35   0.6      NE    35   9.22    262      132.2
   11/10/2018 08:10      51.7      50.8       29     20.0      0.00      0.32      67.4     0.29      1016.7     0.0       N     0   0.0       E    94   9.22    262      112.9
   11/10/2018 08:00      50.8      47.8       30     19.1      0.00      0.32      67.4     0.29      1016.7     0.0       N     0   0.0       E    95   9.22    262       87.1
   11/10/2018 07:50      47.9      46.6       30     17.6      0.00      0.32      67.5     0.29      1016.7     0.0       N     0   0.0     NNE    18   9.22    262       55.0
   11/10/2018 07:40      46.8      44.2       32     17.4      0.00      0.32      67.5     0.29      1016.6     0.0     NNE    17   0.4     NNE    17   9.22    263       24.2
   11/10/2018 07:30      44.6      42.2       34     17.3      0.00      0.32      67.6     0.29      1016.5     0.0     NNE    17   0.4     NNE    17   9.22    263        9.5
   11/10/2018 07:20      42.2      40.5       34     15.0      0.00      0.32      67.6     0.29      1016.4     0.0     SSE   162   0.7     SSE   162   9.22    263      -32.1
   11/10/2018 07:10      40.6      39.6       37     15.9      0.00      0.32      67.6     0.29      1016.4     0.0     SSE   159   0.4     SSE   160   9.22    263      -34.8
   11/10/2018 07:00      39.8      39.4       37     15.3      0.00      0.32      67.7     0.29      1016.2     0.2      SE   146   0.9      SE   146   9.22    263      -41.0
   11/10/2018 06:50      39.8      39.3       35     14.1      0.00      0.32      67.7     0.29      1016.2     0.7      SE   137   1.6     ESE   112   9.22    263      -48.2
   11/10/2018 06:40      39.7      39.0       36     14.5      0.00      0.32      67.8     0.29      1016.1     0.4     SSW   194   1.1     SSE   151   9.22    263      -53.1
   11/10/2018 06:30      39.7      39.0       38     15.9      0.00      0.32      67.8     0.29      1016.1     0.9      SE   146   2.4      SE   143   9.22    263      -57.8
   11/10/2018 06:20      39.2      37.9       39     15.7      0.00      0.32      67.8     0.29      1016.0     1.4     SSE   150   2.4      SE   141   9.22    263      -61.6
   11/10/2018 06:10      38.2      37.6       38     14.2      0.00      0.32      67.9     0.29      1015.9     1.0     SSE   153   2.0      SE   140   9.22    263      -63.1
   11/10/2018 06:00      39.7      37.8       36     14.0      0.00      0.32      67.9     0.29      1015.9     0.7     SSE   158   1.8     SSE   167   9.22    263      -64.2
   11/10/2018 05:50      39.5      39.0       37     15.1      0.00      0.32      68.0     0.29      1015.9     0.6       N     2   1.3     NNE    12   9.22    263      -62.8
   11/10/2018 05:40      39.1      38.7       38     15.4      0.00      0.32      68.0     0.29      1015.8     0.4       S   180   1.3      SW   220   9.22    263      -61.5
   11/10/2018 05:30      39.4      38.7       35     13.8      0.00      0.32      68.1     0.29      1015.8     0.5     SSE   167   1.2       S   177   9.23    263      -61.5
   11/10/2018 05:20      39.4      38.7       32     11.3      0.00      0.32      68.1     0.29      1015.8     0.5     SSE   163   1.4     SSE   162   9.23    262      -61.6
   11/10/2018 05:10      39.0      38.1       32     11.1      0.00      0.32      68.2     0.29      1015.8     0.7     SSE   161   1.0     SSE   165   9.23    263      -62.2
   11/10/2018 05:00      39.2      38.6       32     11.2      0.00      0.32      68.2     0.29      1015.8     0.0       N     0   0.0     SSE   162   9.23    262      -61.7
   11/10/2018 04:50      39.6      38.9       30     10.0      0.00      0.32      68.2     0.29      1015.7     0.0     SSE   163   0.5     SSE   163   9.23    262      -62.4
   11/10/2018 04:40      40.1      39.3       32     12.0      0.00      0.32      68.3     0.29      1015.8     0.0     SSW   192   0.5     SSW   192   9.23    263      -62.5
   11/10/2018 04:30      40.8      39.8       28      9.6      0.00      0.32      68.3     0.29      1015.7     0.0       N     0   0.0     WSW   247   9.23    262      -63.3
   11/10/2018 04:20      40.7      40.1       28      9.4      0.00      0.32      68.3     0.29      1015.8     0.2      SW   223   0.8     WSW   247   9.23    262      -63.2
   11/10/2018 04:10      40.9      40.3       28      9.9      0.00      0.32      68.4     0.29      1015.8     0.3       S   176   0.9     SSE   165   9.23    262      -63.6
   11/10/2018 04:00      41.0      40.3       30     11.4      0.00      0.32      68.4     0.29      1016.0     0.2       S   170   0.9     SSE   155   9.23    262      -63.9
   11/10/2018 03:50      41.0      40.3       30     11.3      0.00      0.32      68.5     0.29      1016.1     0.5     SSE   165   1.2       S   175   9.23    262      -65.0
   11/10/2018 03:40      41.5      40.4       30     12.1      0.00      0.32      68.5     0.29      1016.1     0.3      SE   126   1.5      SE   140   9.23    262      -65.8
   11/10/2018 03:30      41.4      40.6       25      7.7      0.00      0.32      68.5     0.29      1016.1     0.2     SSE   168   1.1     SSE   152   9.23    262      -64.8
   11/10/2018 03:20      41.2      40.4       28      9.7      0.00      0.32      68.6     0.29      1016.1     0.3       S   171   1.1     SSE   167   9.23    262      -65.6
   11/10/2018 03:10      42.0      41.0       26      9.3      0.00      0.32      68.6     0.29      1016.1     0.2     SSE   146   1.0     SSE   148   9.23    262      -67.1
   11/10/2018 03:00      41.9      41.2       28     11.0      0.00      0.32      68.6     0.29      1016.0     0.1       N     0   1.0     NNE    20   9.23    262      -67.4
   11/10/2018 02:50      42.0      41.4       24      7.6      0.00      0.32      68.7     0.29      1016.0     0.4     SSE   164   1.1       S   172   9.23    262      -66.9
   11/10/2018 02:40      42.4      41.8       26      9.8      0.00      0.32      68.7     0.29      1016.1     0.6     SSE   161   1.8       S   184   9.23    262      -67.6
   11/10/2018 02:30      42.8      42.1       25      8.8      0.00      0.32      68.7     0.29      1016.1     0.0      SE   128   0.6      SE   134   9.23    262      -67.3
   11/10/2018 02:20      43.4      42.4       27     10.8      0.00      0.32      68.8     0.29      1016.2     0.4      SE   143   1.3      SE   141   9.23    262      -68.3
   11/10/2018 02:10      43.4      42.6       23      7.4      0.00      0.32      68.8     0.29      1016.3     0.4       S   175   1.2     SSE   153   9.23    262      -67.6
   11/10/2018 02:00      43.6      42.9       25      9.5      0.00      0.32      68.8     0.29      1016.4     0.1       S   169   1.1     SSE   161   9.23    262      -68.0
   11/10/2018 01:50      44.4      43.2       22      7.5      0.00      0.32      68.8     0.29      1016.5     0.1     SSE   162   0.9     SSE   161   9.24    262      -69.0
   11/10/2018 01:40      44.4      43.7       22      7.9      0.00      0.32      68.9     0.29      1016.6     0.4       S   178   2.0     SSE   160   9.24    262      -69.7
   11/10/2018 01:30      44.2      43.7       23      8.6      0.00      0.32      68.9     0.29      1016.6     0.7     SSW   203   2.3     SSW   192   9.24    262      -70.2
   11/10/2018 01:20      44.4      43.5       24      9.1      0.00      0.32      69.0     0.29      1016.7     0.4      NW   312   1.7       S   186   9.24    262      -70.2
   11/10/2018 01:10      45.5      44.1       22      8.3      0.00      0.32      68.9     0.29      1016.7     0.2      NE    55   1.5       N     8   9.24    262      -70.2
   11/10/2018 01:00      45.8      45.1       20      6.8      0.00      0.32      69.0     0.29      1016.7     0.6     SSE   150   1.6     SSE   163   9.24    262      -70.6
   11/10/2018 00:50      45.6      45.0       20      6.8      0.00      0.32      69.0     0.29      1016.8     0.4       W   276   1.0      NW   308   9.24    262      -70.2
   11/10/2018 00:40      46.4      45.4       20      7.5      0.00      0.32      69.0     0.29      1016.8     0.4     SSE   162   1.7     SSE   154   9.24    262      -71.5
   11/10/2018 00:30      46.5      46.0       20      6.9      0.00      0.32      69.1     0.29      1016.7     0.3     SSE   166   1.2     SSE   165   9.24    262      -72.1
   11/10/2018 00:20      47.0      46.4       20      7.9      0.00      0.32      69.1     0.29      1016.8     0.5     SSE   163   1.9     SSE   163   9.24    262      -73.2
   11/10/2018 00:10      47.2      46.4       20      7.6      0.00      0.32      69.1     0.29      1016.9     0.3     ESE   116   2.1     NNE    23   9.24    262      -74.1
   11/10/2018 00:00      47.2      46.9       22      9.9      0.00      0.32      69.2     0.29      1017.0     0.8     SSE   156   1.9     SSE   165   9.24    262      -73.8
   11/09/2018 23:50      47.6      46.9       22     10.2      0.00      0.32      69.1     0.29      1017.1     0.9     SSE   163   2.0     SSE   158   9.25    262      -74.5
   11/09/2018 23:40      48.6      47.5       18      6.5      0.00      0.32      69.2     0.29      1017.2     0.6     SSE   162   1.8     SSE   155   9.25    262      -74.9
   11/09/2018 23:30      48.5      48.0       18      6.3      0.00      0.32      69.2     0.29      1017.3     0.5       S   181   1.7       S   184   9.25    262      -74.4
   11/09/2018 23:20      49.4      48.2       18      7.0      0.00      0.32      69.2     0.29      1017.3     0.4     SSE   156   1.3     SSW   195   9.25    262      -75.7
   11/09/2018 23:10      50.3      49.3       17      6.6      0.00      0.32      69.2     0.29      1017.3     0.4     SSE   151   1.5       S   179   9.25    262      -77.1
   11/09/2018 23:00      50.8      49.9       18      8.0      0.00      0.32      69.2     0.29      1017.3     0.6      SE   139   2.7       S   172   9.25    262      -78.5
   11/09/2018 22:50      51.1      50.0       18      8.7      0.00      0.32      69.3     0.29      1017.3     1.0     SSE   154   2.1     SSE   167   9.25    262      -78.5
   11/09/2018 22:40      52.1      51.0       17      8.0      0.00      0.32      69.3     0.29      1017.3     1.0     SSE   154   1.7     SSE   157   9.25    262      -78.8
   11/09/2018 22:30      52.4      51.7       14      3.7      0.00      0.32      69.3     0.29      1017.2     0.4     SSE   161   1.6      SE   138   9.26    261      -80.2
   11/09/2018 22:20      53.7      52.2       15      7.0      0.00      0.32      69.3     0.29      1017.2     1.4     SSE   156   2.7      SE   134   9.26    261      -82.2
   11/09/2018 22:10      54.5      53.6       14      5.5      0.00      0.32      69.3     0.29      1017.3     1.1     SSE   157   3.4      SW   215   9.26    261      -83.5
   11/09/2018 22:00      54.5      53.5       14      5.8      0.00      0.32      69.3     0.29      1017.4     1.6     SSE   165   2.8     SSW   205   9.26    261      -83.2
   11/09/2018 21:50      54.8      53.4       14      5.5      0.00      0.32      69.3     0.29      1017.5     1.4     SSE   153   2.9      SW   231   9.26    261      -83.7
   11/09/2018 21:40      55.4      54.4       14      6.0      0.00      0.32      69.3     0.29      1017.5     1.8     SSE   151   3.1      SE   141   9.26    261      -84.4
   11/09/2018 21:30      55.5      54.7       14      6.0      0.00      0.32      69.3     0.29      1017.5     2.1     SSE   149   3.9      SE   136   9.26    261      -85.1
   11/09/2018 21:20      56.4      55.2       13      5.2      0.00      0.32      69.3     0.29      1017.5     2.0     SSE   155   3.8     SSW   201   9.27    261      -84.7
   11/09/2018 21:10      57.4      55.7       12      4.6      0.00      0.32      69.3     0.29      1017.3     1.5     SSE   149   3.2      SE   140   9.27    261      -85.9
   11/09/2018 21:00      57.7      56.5       11      3.1      0.00      0.32      69.3     0.29      1017.2     1.7     SSE   155   3.2      SE   139   9.27    261      -87.0
   11/09/2018 20:50      59.5      57.3       10      2.1      0.00      0.32      69.4     0.29      1017.1     1.4     SSE   159   4.3      SE   134   9.27    261      -88.0
   11/09/2018 20:40      59.3      58.0        9      0.7      0.00      0.32      69.3     0.29      1017.0     1.3     ESE   120   3.7     SSE   162   9.27    261      -88.9
   11/09/2018 20:30      60.1      58.6       10      1.8      0.00      0.32      69.3     0.29      1016.9     2.2     SSE   159   3.8     SSE   165   9.27    261      -89.3
   11/09/2018 20:20      62.5      59.1        8     -0.0      0.00      0.32      69.3     0.29      1016.9     2.0     SSE   154   4.4       S   175   9.27    261      -90.0
   11/09/2018 20:10      62.0      61.2        7     -3.2      0.00      0.32      69.3     0.29      1016.8     1.2     SSE   162   3.1       S   180   9.28    261      -89.9
   11/09/2018 20:00      61.5      59.8        8     -1.3      0.00      0.32      69.3     0.29      1016.9     1.2       S   171   3.1       S   174   9.28    260      -91.1
   11/09/2018 19:50      60.0      59.3        8     -1.1      0.00      0.32      69.3     0.29      1016.9     1.1       S   178   2.6       E    91   9.28    261      -92.0
   11/09/2018 19:40      61.3      59.4        8     -0.0      0.00      0.32      69.3     0.29      1016.9     1.7       S   174   3.8      SE   135   9.28    260      -94.8
   11/09/2018 19:30      63.5      60.8        8      0.8      0.00      0.32      69.3     0.29      1016.8     1.3     SSE   152   3.7     SSE   169   9.28    260      -97.9
   11/09/2018 19:20      68.5      63.3        6     -4.1      0.00      0.32      69.3     0.29      1016.7     1.8       S   169   4.3       S   182   9.28    260      -99.9
   11/09/2018 19:10      68.5      68.1        5     -6.2      0.00      0.32      69.3     0.29      1016.6     2.5     NNE    17   8.2     NNE    13   9.29    260     -104.5
   11/09/2018 19:00      69.0      68.3        5     -6.2      0.00      0.32      69.3     0.29      1016.5     2.9     NNE    21   6.3       N     4   9.29    260     -105.3
   11/09/2018 18:50      69.5      68.6        5     -6.3      0.00      0.32      69.3     0.29      1016.4     3.9       N     9   8.0      NE    37   9.29    260     -105.4
   11/09/2018 18:40      69.6      69.0        5     -6.4      0.00      0.32      69.3     0.29      1016.4     4.2       N    10   7.8     NNE    18   9.29    260     -106.1
   11/09/2018 18:30      69.6      69.2        4     -6.7      0.00      0.32      69.3     0.29      1016.4     4.8       N     8  10.0       N     0   9.29    260     -106.7
   11/09/2018 18:20      69.5      69.1        5     -6.6      0.00      0.32      69.2     0.29      1016.4     4.6       N    10   9.3       N     0   9.30    260     -106.6
   11/09/2018 18:10      69.7      69.1        5     -6.3      0.00      0.32      69.2     0.29      1016.3     4.2     NNE    19   9.3       N     7   9.30    260     -107.2
   11/09/2018 18:00      70.1      69.3        5     -6.5      0.00      0.32      69.2     0.29      1016.2     4.3     NNE    13   9.1     NNE    29   9.30    260     -108.6
   11/09/2018 17:50      70.1      69.7        4     -6.8      0.00      0.32      69.2     0.29      1016.1     6.4       N     8  11.2     NNE    12   9.30    260     -109.4
   11/09/2018 17:40      70.6      69.8        4     -6.7      0.00      0.32      69.2     0.29      1016.0     5.8     NNE    14  11.9       N   351   9.31    260     -110.4
   11/09/2018 17:30      70.6      70.1        4     -6.6      0.00      0.32      69.2     0.29      1016.0     7.0     NNE    17  13.1     NNW   331   9.31    260     -111.1
   11/09/2018 17:20      70.6      70.1        5     -5.9      0.00      0.32      69.2     0.29      1015.9     5.5     NNE    13  10.2      NE    53   9.31    260     -111.5
   11/09/2018 17:10      70.9      70.3        5     -5.5      0.00      0.32      69.1     0.29      1015.9     5.3     NNE    13  10.9      NW   311   9.32    260     -112.2
   11/09/2018 17:00      71.5      70.6        5     -5.4      0.00      0.32      69.1     0.29      1015.9     6.1       N     6  12.8       N   353   9.32    260     -111.1
   11/09/2018 16:50      71.7      70.9        5     -4.9      0.00      0.32      69.1     0.29      1015.9     5.9     NNE    12  13.9     NNE    12   9.33    260     -108.2
   11/09/2018 16:40      72.0      71.3        5     -4.8      0.00      0.32      69.1     0.29      1015.9     7.1     NNE    17  16.3       N     0   9.33    260     -104.9
   11/09/2018 16:30      72.5      71.7        5     -4.7      0.00      0.32      69.1     0.29      1015.9     7.0       N    11  13.1     NNE    20   9.33    260     -101.1
   11/09/2018 16:20      72.9      72.1        4     -4.7      0.00      0.32      69.0     0.29      1015.9     7.3     NNE    13  13.7      NW   317   9.34    260      -95.7
   11/09/2018 16:10      73.3      72.5        5     -4.1      0.00      0.32      69.0     0.29      1015.9     7.0     NNE    16  13.3     WSW   237   9.34    260      -45.8
   11/09/2018 16:00      73.5      72.9        4     -4.1      0.00      0.32      69.0     0.29      1016.0     8.0     NNE    16  13.3       N   355   9.34    259      -31.5
   11/09/2018 15:50      73.6      73.3        5     -3.6      0.00      0.32      69.0     0.29      1016.0     6.9       N    11  12.4     NNW   347   9.35    259       -7.7
   11/09/2018 15:40      74.0      73.4        4     -4.2      0.00      0.32      68.9     0.29      1016.1     8.0       N    10  15.1       N     9   9.35    260       17.1
   11/09/2018 15:30      74.1      73.7        4     -3.6      0.00      0.32      68.9     0.29      1016.1     7.5       N     4  15.6     NNE    16   9.35    260       40.5
   11/09/2018 15:20      74.2      73.7        5     -3.3      0.00      0.32      68.9     0.29      1016.2     7.9       N     5  14.0     NNE    26   9.36    260       63.8
   11/09/2018 15:10      74.5      73.8        4     -3.4      0.00      0.32      68.9     0.29      1016.2     9.3       N     4  19.1       N     9   9.36    260       89.3
   11/09/2018 15:00      74.5      74.1        4     -3.6      0.00      0.32      68.8     0.29      1016.3     8.1       N     7  16.8     NNW   342   9.36    259      113.9
   11/09/2018 14:50      74.7      74.2        4     -3.7      0.00      0.32      68.8     0.29      1016.2     8.7       N     5  16.2       N     8   9.37    259      137.9
   11/09/2018 14:40      75.0      74.5        5     -2.8      0.00      0.32      68.8     0.29      1016.3     7.4       N     8  12.4      NE    43   9.37    259      157.9
   11/09/2018 14:30      74.8      74.2        5     -2.4      0.00      0.32      68.7     0.29      1016.3     7.6       N   357  17.2     NNE    32   9.37    259      180.5
   11/09/2018 14:20      74.7      74.2        5     -2.6      0.00      0.32      68.7     0.29      1016.3     8.4       N     4  15.2       N     4   9.38    259      201.5
   11/09/2018 14:10      75.2      74.3        5     -2.2      0.00      0.32      68.7     0.29      1016.4     9.4       N    10  18.3     NNW   343   9.38    259      220.3
   11/09/2018 14:00      75.4      74.6        5     -2.3      0.00      0.32      68.7     0.29      1016.4     8.3       N    10  13.7       N   351   9.38    259      238.4
   11/09/2018 13:50      75.5      74.7        5     -1.6      0.00      0.32      68.7     0.29      1016.5     6.7       N     9  12.8     NNE    18   9.38    259      253.1
   11/09/2018 13:40      75.2      74.1        5     -2.4      0.00      0.32      68.7     0.29      1016.5     7.6     NNE    19  14.2       E    88   9.39    259      270.4
   11/09/2018 13:30      74.7      73.8        4     -3.8      0.00      0.32      68.6     0.29      1016.6    11.0     NNE    14  19.1     NNE    14   9.39    259      285.5
   11/09/2018 13:20      74.5      74.0        5     -2.8      0.00      0.32      68.6     0.29      1016.7     9.1       N     9  19.0       N     2   9.40    259      298.0
   11/09/2018 13:10      75.2      74.0        5     -2.6      0.00      0.32      68.6     0.29      1016.8    10.0     NNE    12  19.1     NNE    26   9.40    259      307.9
   11/09/2018 13:00      75.0      74.1        4     -3.2      0.00      0.32      68.6     0.29      1016.9     8.5     NNE    20  15.5     NNW   346   9.40    259      321.3
   11/09/2018 12:50      74.8      74.0        5     -2.5      0.00      0.32      68.6     0.29      1017.0     8.1       N    10  16.8     NNE    13   9.40    259      330.6
   11/09/2018 12:40      74.4      73.7        5     -2.8      0.00      0.32      68.6     0.29      1017.1     9.6     NNE    13  20.4     NNE    20   9.40    259      343.5
   11/09/2018 12:30      74.2      73.7        5     -2.2      0.00      0.32      68.5     0.29      1017.1     9.3       N     7  17.8     NNW   329   9.41    259      351.7
   11/09/2018 12:20      74.3      73.5        5     -2.3      0.00      0.32      68.5     0.29      1017.3     9.4       N    10  16.3       N     6   9.41    259      359.6
   11/09/2018 12:10      74.0      73.2        5     -2.8      0.00      0.32      68.5     0.29      1017.4    10.7     NNE    16  19.6     NNE    14   9.41    259      366.7
   11/09/2018 12:00      74.4      73.2        5     -2.4      0.00      0.32      68.5     0.29      1017.6    10.6       N     7  20.8     NNE    31   9.42    259      368.8
   11/09/2018 11:50      74.3      73.3        5     -2.2      0.00      0.32      68.5     0.29      1017.8     8.3     NNE    16  17.8     NNE    22   9.42    259      371.7
   11/09/2018 11:40      73.8      73.0        5     -2.9      0.00      0.32      68.5     0.29      1018.0    10.2       N    11  19.8     NNE    17   9.42    259      374.4
   11/09/2018 11:30      74.0      73.2        5     -2.4      0.00      0.32      68.5     0.29      1018.2     7.9       N     6  14.2       N     8   9.42    259      371.7
   11/09/2018 11:20      74.1      73.2        5     -2.3      0.00      0.32      68.5     0.29      1018.3     9.6     NNE    20  18.1     ENE    58   9.43    259      372.1
   11/09/2018 11:10      73.7      72.7        5     -1.7      0.00      0.32      68.5     0.29      1018.4     7.9       N     5  12.8       N    11   9.43    259      368.2
   11/09/2018 11:00      73.4      72.7        5     -2.7      0.00      0.32      68.5     0.29      1018.6     9.7       N     4  19.9       N   350   9.43    259      364.6
   11/09/2018 10:50      73.3      72.4        5     -2.1      0.00      0.32      68.6     0.29      1018.7     8.3       N     5  16.3       N   350   9.43    259      359.1
   11/09/2018 10:40      72.9      72.3        5     -2.0      0.00      0.32      68.5     0.29      1018.8     8.7       N     5  21.3       N   350   9.44    259      352.9
   11/09/2018 10:30      72.6      72.2        5     -1.8      0.00      0.32      68.5     0.29      1018.9     8.3       N     8  17.0       N     0   9.44    259      344.8
   11/09/2018 10:20      72.5      71.6        5     -1.3      0.00      0.32      68.6     0.29      1018.9     7.7       N     4  16.6     NNE    30   9.44    259      336.4
   11/09/2018 10:10      72.1      71.5        5     -1.2      0.00      0.32      68.6     0.29      1018.9     9.0       N     8  15.3       N    10   9.44    260      327.3
   11/09/2018 10:00      72.1      70.7        6     -0.9      0.00      0.32      68.6     0.29      1019.0     7.5       N     5  13.3       N   354   9.44    259      316.2
   11/09/2018 09:50      71.3      70.7        6     -1.2      0.00      0.32      68.6     0.29      1019.1     9.2       N     9  17.9     NNE    11   9.44    260      303.1
   11/09/2018 09:40      71.4      70.3        6     -0.6      0.00      0.32      68.6     0.29      1019.1     6.8       N   350  12.8     NNW   328   9.44    260      284.8
   11/09/2018 09:30      70.7      70.1        6     -0.8      0.00      0.32      68.7     0.29      1019.2     7.6       N     2  18.0       N     7   9.44    260      260.8
   11/09/2018 09:20      70.6      69.7        6     -1.6      0.00      0.32      68.7     0.29      1019.2     7.9     NNE    12  15.7     NNE    12   9.45    260      251.9
   11/09/2018 09:10      69.9      69.5        6     -1.7      0.00      0.32      68.7     0.29      1019.2     8.7       N     8  17.9     NNW   345   9.45    260      238.5
   11/09/2018 09:00      69.7      69.1        6     -1.4      0.00      0.32      68.7     0.29      1019.3     6.7     NNE    11  16.1       N     3   9.45    260      219.1
   11/09/2018 08:50      69.2      68.5        6     -1.8      0.00      0.32      68.7     0.29      1019.2     8.3       N    10  16.8     NNE    27   9.45    260      201.2
   11/09/2018 08:40      68.9      68.1        6     -1.7      0.00      0.32      68.8     0.29      1019.2     8.8     NNE    16  18.6       N     5   9.45    260      183.1
   11/09/2018 08:30      68.3      67.6        6     -1.7      0.00      0.32      68.8     0.29      1019.2     8.5     NNE    12  15.8     NNE    13   9.45    260      162.4
   11/09/2018 08:20      67.8      67.2        6     -1.4      0.00      0.32      68.8     0.29      1019.1     8.5     NNE    14  16.0      NE    42   9.45    260      141.7
   11/09/2018 08:10      67.4      66.9        6     -1.3      0.00      0.32      68.8     0.29      1019.1     9.3       N     9  17.4       N   352   9.46    260      122.2
   11/09/2018 08:00      67.2      66.3        7     -0.7      0.00      0.32      68.8     0.29      1019.1     7.0       N     7  18.3     NNE    21   9.46    260      102.4
   11/09/2018 07:50      66.6      66.0        7     -1.0      0.00      0.32      68.9     0.29      1019.1     8.7       N     6  16.7     NNE    22   9.46    260       63.8
   11/09/2018 07:40      66.2      65.5        7     -0.3      0.00      0.32      68.9     0.29      1019.0     7.3     NNE    11  15.1     WNW   302   9.46    261        1.4
   11/09/2018 07:30      65.6      64.9        7      0.0      0.00      0.32      68.9     0.29      1019.0     6.7     NNE    15  13.7     ENE    70   9.46    261       23.3
   11/09/2018 07:20      65.2      64.6        7      0.4      0.00      0.32      68.9     0.29      1018.8     7.1     NNE    14  16.5      NE    36   9.46    261      -76.5
   11/09/2018 07:10      64.8      64.2        7      0.0      0.00      0.32      68.9     0.29      1018.8     5.7     NNE    21  13.3       N   352   9.46    261      -78.4
   11/09/2018 07:00      64.5      63.9        7     -0.7      0.00      0.32      69.0     0.29      1018.7     6.0     NNE    13  13.0     NNE    14   9.46    261      -80.8
   11/09/2018 06:50      64.1      63.7        7     -0.9      0.00      0.32      69.0     0.29      1018.6     6.7     NNE    18  13.9      NE    34   9.47    261      -85.5
   11/09/2018 06:40      64.0      63.5        7     -0.8      0.00      0.32      69.0     0.29      1018.5     6.9       N     6  12.4     NNW   342   9.47    261      -90.2
   11/09/2018 06:30      64.2      63.7        7     -0.9      0.00      0.32      69.0     0.29      1018.4     6.7     NNE    16  13.7       N    11   9.47    261      -95.4
   11/09/2018 06:20      64.1      63.7        7     -0.8      0.00      0.32      69.0     0.29      1018.3     7.9     NNE    14  13.5     NNE    23   9.47    261      -99.0
   11/09/2018 06:10      64.2      63.7        7     -0.8      0.00      0.32      69.0     0.29      1018.3     7.5     NNE    17  14.5       N     6   9.47    261     -100.2
   11/09/2018 06:00      64.5      63.8        7     -0.5      0.00      0.32      69.1     0.29      1018.3     6.8     NNE    12  13.2       N   350   9.47    261     -100.2
   11/09/2018 05:50      64.3      63.9        7     -0.5      0.00      0.32      69.1     0.29      1018.2     7.7     NNE    19  16.5     ENE    72   9.48    261      -99.7
   11/09/2018 05:40      64.2      63.7        7     -0.0      0.00      0.32      69.1     0.29      1018.2     6.1     NNE    17  16.0     NNE    28   9.48    261      -99.0
   11/09/2018 05:30      64.3      63.8        7      0.0      0.00      0.32      69.1     0.29      1018.1     5.8     NNE    18  12.1       N     9   9.48    261      -98.7
   11/09/2018 05:20      64.1      63.7        8      0.2      0.00      0.32      69.1     0.29      1018.1     5.3     NNE    22  15.9       N     3   9.48    261      -98.0
   11/09/2018 05:10      64.3      63.8        8      0.3      0.00      0.32      69.2     0.29      1018.0     5.5     NNE    22  10.4     NNE    26   9.48    261      -97.8
   11/09/2018 05:00      64.4      63.8        8      0.4      0.00      0.32      69.2     0.29      1017.9     6.5       N    11  14.2     NNE    15   9.48    261      -98.0
   11/09/2018 04:50      64.5      64.0        8      0.4      0.00      0.32      69.2     0.29      1017.9     6.2     NNE    20  13.5     NNE    31   9.48    261      -97.7
   11/09/2018 04:40      64.5      63.9        8      0.4      0.00      0.32      69.2     0.29      1017.8     7.4     NNE    16  13.8     NNW   337   9.48    261      -97.4
   11/09/2018 04:30      64.3      63.8        8      0.6      0.00      0.32      69.2     0.29      1017.8     6.2     NNE    16  10.8     NNE    14   9.49    261      -97.0
   11/09/2018 04:20      64.4      63.7        8      0.8      0.00      0.32      69.2     0.29      1017.8     5.6     NNE    19  12.6      NW   310   9.49    261      -96.8
   11/09/2018 04:10      64.5      64.0        8      0.7      0.00      0.32      69.3     0.29      1017.8     6.8     NNE    13  10.8     NNE    30   9.49    261      -96.7
   11/09/2018 04:00      64.5      63.9        8      0.8      0.00      0.32      69.3     0.29      1017.8     6.2     NNE    15  12.2     NNE    24   9.49    261      -96.2
   11/09/2018 03:50      64.3      63.8        8      0.9      0.00      0.32      69.3     0.29      1017.8     5.5     NNE    13  11.5       N     2   9.49    261      -95.9
   11/09/2018 03:40      64.6      63.9        8      1.0      0.00      0.32      69.3     0.29      1017.8     4.7       N    10  12.2     NNW   332   9.49    261      -95.9
   11/09/2018 03:30      64.5      64.2        8      0.8      0.00      0.32      69.3     0.29      1017.8     6.1       N     7  12.4     NNW   326   9.50    261      -95.6
   11/09/2018 03:20      64.7      64.3        8      0.8      0.00      0.32      69.3     0.29      1017.8     4.8       N    11  11.0      NE    43   9.50    261      -95.4
   11/09/2018 03:10      65.0      64.4        8      0.7      0.00      0.32      69.3     0.29      1017.8     4.4       N     9  13.7     NNE    29   9.50    261      -95.7
   11/09/2018 03:00      64.8      64.5        8      0.6      0.00      0.32      69.4     0.29      1017.9     5.3       N     8  12.0     NNE    28   9.50    261      -95.0
   11/09/2018 02:50      64.8      64.4        8      0.7      0.00      0.32      69.4     0.29      1017.9     4.3       N     7  10.3       N     6   9.50    261      -94.8
   11/09/2018 02:40      65.2      64.4        8      0.7      0.00      0.32      69.4     0.29      1017.9     5.0       N   360  10.3     NNW   343   9.50    261      -95.0
   11/09/2018 02:30      65.5      64.7        7      0.4      0.00      0.32      69.4     0.29      1017.9     5.0     NNE    15  10.3       N   353   9.50    261      -95.6
   11/09/2018 02:20      65.6      65.0        7      0.2      0.00      0.32      69.4     0.29      1017.9     5.7     NNE    14  12.5       N     0   9.51    261      -95.6
   11/09/2018 02:10      65.7      65.2        7     -0.2      0.00      0.32      69.4     0.29      1017.9     7.0     NNE    17  14.6     NNE    28   9.51    261      -96.1
   11/09/2018 02:00      65.9      65.3        7     -0.2      0.00      0.32      69.4     0.29      1018.0     6.0     NNE    12  12.2     NNW   347   9.51    261      -95.9
   11/09/2018 01:50      66.2      65.6        7     -0.4      0.00      0.32      69.5     0.29      1018.1     6.7     NNE    14  15.3     NNE    32   9.51    261      -96.3
   11/09/2018 01:40      66.2      65.8        7     -0.7      0.00      0.32      69.5     0.29      1018.0     6.4     NNE    11  12.7       N     2   9.51    261      -96.1
   11/09/2018 01:30      66.3      65.7        7     -0.8      0.00      0.32      69.5     0.29      1018.0     6.0     NNE    13  11.7     NNW   334   9.51    261      -96.0
   11/09/2018 01:20      66.5      65.9        7     -0.9      0.00      0.32      69.5     0.29      1018.0     6.0     NNE    15  10.8     NNE    31   9.52    261      -96.1
   11/09/2018 01:10      66.5      66.1        7     -1.1      0.00      0.32      69.5     0.29      1017.9     5.6     NNE    13  10.1      NE    39   9.52    261      -95.9
   11/09/2018 01:00      66.5      66.0        7     -1.2      0.00      0.32      69.5     0.29      1017.9     6.4       N    10  12.1     NNW   338   9.52    261      -95.6
   11/09/2018 00:50      66.5      66.1        6     -1.3      0.00      0.32      69.6     0.29      1017.9     5.8     NNE    14  13.0     NNE    33   9.52    261      -95.4
   11/09/2018 00:40      66.6      66.2        6     -1.6      0.00      0.32      69.6     0.29      1017.9     6.8     NNE    16  13.3     NNE    16   9.52    261      -95.8
   11/09/2018 00:30      66.7      66.2        6     -1.6      0.00      0.32      69.6     0.29      1017.9     6.4     NNE    13  15.1       N     4   9.53    261      -95.7
   11/09/2018 00:20      66.8      66.2        6     -1.6      0.00      0.32      69.6     0.29      1017.9     7.0       N     9  13.3       N     3   9.53    261      -95.9
   11/09/2018 00:10      66.8      66.4        6     -1.7      0.00      0.32      69.6     0.29      1017.9     7.1     NNE    17  16.0     NNW   340   9.53    261      -95.6
   11/09/2018 00:00      66.7      66.3        6     -1.6      0.00      0.32      69.6     0.29      1018.0     5.6     NNE    13  11.2       N     3   9.53    261      -94.7
   11/08/2018 23:50      66.6      65.8        6     -1.3      0.00      0.32      69.7     0.29      1018.1     5.4     NNE    17  10.0      NE    49   9.53    261      -94.2
   11/08/2018 23:40      66.3      65.6        7     -0.7      0.00      0.32      69.6     0.29      1018.1     4.0       N     6   8.3     WNW   299   9.53    261      -93.9
   11/08/2018 23:30      66.4      65.9        7     -0.9      0.00      0.32      69.7     0.29      1018.1     4.8       N     7   9.8       N     3   9.54    261      -95.0
   11/08/2018 23:20      66.6      66.1        7     -0.9      0.00      0.32      69.7     0.29      1018.2     5.2       N     8   9.7      SE   124   9.54    261      -95.3
   11/08/2018 23:10      66.7      66.1        7     -1.0      0.00      0.32      69.7     0.29      1018.1     5.7       N     9  11.3       N     7   9.54    261      -95.5
   11/08/2018 23:00      66.7      66.1        7     -0.9      0.00      0.32      69.7     0.29      1018.1     6.1       N     6  10.4      NE    40   9.54    261      -95.1
   11/08/2018 22:50      66.7      66.3        7     -1.0      0.00      0.32      69.7     0.29      1018.0     6.4       N     9  14.3       N     8   9.54    261      -94.9
   11/08/2018 22:40      66.7      66.3        7     -0.9      0.00      0.32      69.7     0.29      1018.0     6.3       N     9  10.9       N     5   9.55    261      -94.6
   11/08/2018 22:30      66.7      66.3        7     -1.1      0.00      0.32      69.8     0.29      1018.0     5.9       N     9  11.9      NW   318   9.55    261      -94.2
   11/08/2018 22:20      66.8      66.2        7     -0.7      0.00      0.32      69.8     0.29      1018.0     5.5       N    10  12.3      NE    34   9.55    261      -94.0
   11/08/2018 22:10      66.9      66.4        6     -1.0      0.00      0.32      69.8     0.29      1018.0     5.6       N     4  10.1     NNW   333   9.55    261      -94.8
   11/08/2018 22:00      67.0      66.6        6     -1.1      0.00      0.32      69.8     0.29      1018.1     6.2       N     6  10.9     NNW   342   9.55    261      -95.2
   11/08/2018 21:50      67.2      66.6        6     -1.0      0.00      0.32      69.8     0.29      1018.1     5.6       N     9  11.5     NNE    30   9.55    261      -95.3
   11/08/2018 21:40      67.3      66.7        6     -1.1      0.00      0.32      69.8     0.29      1018.0     6.1       N     9  11.0       N     7   9.56    261      -95.0
   11/08/2018 21:30      67.1      66.7        6     -0.9      0.00      0.32      69.8     0.29      1018.0     4.1     NNE    13   9.6       N     4   9.56    261      -94.5
   11/08/2018 21:20      67.2      66.6        7     -0.3      0.00      0.32      69.8     0.29      1017.9     3.2       N     5  10.2     NNE    25   9.56    261      -94.4
   11/08/2018 21:10      67.3      66.9        7      0.0      0.00      0.32      69.8     0.29      1017.9     3.4       N     7   8.1     NNW   334   9.56    261      -94.8
   11/08/2018 21:00      67.7      66.9        7      0.6      0.00      0.32      69.8     0.29      1017.9     3.4     NNE    16   8.1     NNW   344   9.56    261      -94.5
   11/08/2018 20:50      67.8      67.3        7     -0.0      0.00      0.32      69.8     0.29      1017.9     4.0     NNE    15  12.0     NNW   342   9.57    261      -93.7
   11/08/2018 20:40      67.8      67.2        7      0.0      0.00      0.32      69.8     0.29      1017.8     4.3       N     9  10.8      NE    43   9.57    261      -93.0
   11/08/2018 20:30      67.6      67.2        7     -0.1      0.00      0.32      69.8     0.29      1017.8     3.8     NNE    12   7.8     NNE    28   9.57    261      -93.2
   11/08/2018 20:20      67.5      67.1        7      0.2      0.00      0.32      69.8     0.29      1017.8     3.7       N     8   7.9       N    10   9.57    261      -92.8
   11/08/2018 20:10      68.1      67.3        7      0.7      0.00      0.32      69.8     0.29      1017.7     2.0       N   352   4.7     NNW   347   9.57    261      -92.9
   11/08/2018 20:00      68.4      67.8        7      0.5      0.00      0.32      69.8     0.29      1017.7     3.3     NNE    13  10.0     NNE    30   9.57    261      -94.5
   11/08/2018 19:50      68.4      68.0        7      0.3      0.00      0.32      69.8     0.29      1017.6     4.0       N     5   8.3     NNW   339   9.58    261      -94.9
   11/08/2018 19:40      68.7      68.0        7      0.4      0.00      0.32      69.8     0.29      1017.6     3.1     NNE    13   7.1     NNW   348   9.58    261      -95.8
   11/08/2018 19:30      68.8      68.2        7      0.6      0.00      0.32      69.8     0.29      1017.4     4.8     NNE    20  12.4       N   351   9.58    261      -96.8
   11/08/2018 19:20      69.2      68.4        6      0.5      0.00      0.32      69.8     0.29      1017.4     4.2     NNE    30   7.8       N   350   9.58    261      -97.8
   11/08/2018 19:10      69.6      68.9        6     -0.0      0.00      0.32      69.7     0.29      1017.3     6.5     NNE    20  14.6     NNW   343   9.59    261      -98.5
   11/08/2018 19:00      69.9      69.2        6     -1.3      0.00      0.32      69.7     0.29      1017.2     5.8     NNE    20  12.7      NE    47   9.59    261      -99.0
   11/08/2018 18:50      70.0      69.5        6     -2.2      0.00      0.32      69.7     0.29      1017.1     6.2     NNE    15  14.3     NNW   337   9.60    261      -98.9
   11/08/2018 18:40      70.4      69.7        5     -3.2      0.00      0.32      69.7     0.29      1017.0     5.9     NNE    16  11.2     ENE    61   9.60    261      -99.2
   11/08/2018 18:30      70.6      70.0        5     -3.6      0.00      0.32      69.7     0.29      1016.9     6.6     NNE    17  15.1       N     2   9.60    261      -98.7
   11/08/2018 18:20      70.8      70.1        5     -2.6      0.00      0.32      69.7     0.29      1016.7     6.6     NNE    15  15.8     NNE    16   9.60    261      -98.9
   11/08/2018 18:10      71.1      70.4        5     -2.5      0.00      0.32      69.7     0.29      1016.6     6.1     NNE    13  14.5       N    10   9.60    261      -99.0
   11/08/2018 18:00      71.1      70.6        5     -2.1      0.00      0.32      69.6     0.29      1016.5     7.3     NNE    13  16.1       N   354   9.61    261      -99.2
   11/08/2018 17:50      71.6      70.8        6     -0.0      0.00      0.32      69.7     0.29      1016.4     5.3       N     7  11.7       N     8   9.61    261      -99.7
   11/08/2018 17:40      71.7      71.2        6      0.7      0.00      0.32      69.6     0.29      1016.2     6.9       N     7  12.2       N     0   9.61    261     -100.3
   11/08/2018 17:30      72.0      71.4        6      0.7      0.00      0.32      69.6     0.29      1016.1     5.5       N    10  12.2     NNE    21   9.62    261     -101.0
   11/08/2018 17:20      72.1      71.6        6      0.8      0.00      0.32      69.6     0.29      1016.0     5.8       N    10  11.9       W   265   9.62    261     -102.1
   11/08/2018 17:10      72.5      71.9        6      0.7      0.00      0.32      69.5     0.29      1015.9     7.5       N     4  14.5      NE    48   9.63    261     -102.2
   11/08/2018 17:00      73.0      72.2        6      1.3      0.00      0.32      69.5     0.29      1015.7     7.3     NNE    13  13.7       S   177   9.63    261     -100.3
   11/08/2018 16:50      73.4      72.6        6      2.1      0.00      0.32      69.5     0.29      1015.6     7.5       N     6  14.7     NNE    28   9.63    261      -96.2
   11/08/2018 16:40      73.7      73.1        6      3.4      0.00      0.32      69.5     0.29      1015.5     7.2     NNE    16  13.0      NE    39   9.64    261      -90.0
   11/08/2018 16:30      74.3      73.4        7      4.7      0.00      0.32      69.5     0.29      1015.4     7.5     NNE    14  16.1     NNW   345   9.64    261      -83.1
   11/08/2018 16:20      74.7      73.9        7      5.0      0.00      0.32      69.5     0.29      1015.3     7.2     NNE    14  12.9      NE    53   9.65    261      -74.8
   11/08/2018 16:10      75.7      74.5        7      5.9      0.00      0.32      69.4     0.29      1015.2     7.7     NNE    15  16.5      NE    37   9.65    261      -44.4
   11/08/2018 16:00      76.1      75.2        7      7.1      0.00      0.32      69.4     0.29      1015.1     6.8     NNE    20  14.5       N     4   9.66    261      -26.8
   11/08/2018 15:50      76.3      75.8        7      8.2      0.00      0.32      69.3     0.29      1015.0     5.2     NNE    18  10.1       N     2   9.66    261       -5.8
   11/08/2018 15:40      76.7      76.0        7      8.2      0.00      0.32      69.3     0.29      1014.8     7.0     NNE    27  12.7       N     4   9.66    261       19.4
   11/08/2018 15:30      77.0      76.4        7      9.3      0.00      0.32      69.3     0.29      1014.7     6.5     NNE    19  14.4     NNE    13   9.67    261       42.3
   11/08/2018 15:20      77.3      76.6        7      9.5      0.00      0.32      69.2     0.29      1014.6     6.7     NNE    17  11.3      NW   316   9.67    261       65.8
   11/08/2018 15:10      77.3      76.8        7      9.8      0.00      0.32      69.2     0.29      1014.5     6.8       N     7  12.0       N     6   9.67    261       89.4
   11/08/2018 15:00      77.5      76.9        7      9.8      0.00      0.32      69.2     0.29      1014.5     8.0       N     2  15.9     NNW   332   9.68    261      114.0
   11/08/2018 14:50      78.0      77.3        7     10.1      0.00      0.32      69.1     0.29      1014.5     7.4       N     3  14.9     NNE    16   9.68    261      135.7
   11/08/2018 14:40      78.1      77.6        7     10.0      0.00      0.32      69.1     0.29      1014.5     6.7     NNE    13  12.8     NNE    11   9.68    261      156.4
   11/08/2018 14:30      78.0      77.5        7     10.3      0.00      0.32      69.0     0.29      1014.4     6.8       N     7  13.7     NNE    22   9.69    261      176.1
   11/08/2018 14:20      78.5      77.7        8     10.7      0.00      0.32      69.0     0.29      1014.3     7.1       N     6  14.2       N    10   9.69    261      195.1
   11/08/2018 14:10      78.2      77.8        7     10.5      0.00      0.32      69.0     0.29      1014.3     6.3     NNE    12  12.2     NNE    13   9.70    261      215.0
   11/08/2018 14:00      78.4      77.7        8     10.5      0.00      0.32      69.0     0.29      1014.2     7.9       N     9  15.6     NNE    23   9.70    261      233.9
   11/08/2018 13:50      78.2      77.7        8     10.7      0.00      0.32      68.9     0.29      1014.2     7.8       N     5  15.1       N     0   9.71    261      248.1
   11/08/2018 13:40      78.4      77.7        8     10.8      0.00      0.32      68.9     0.29      1014.3     7.8       N    10  16.6       N     0   9.71    261      263.6
   11/08/2018 13:30      78.7      77.9        8     11.5      0.00      0.32      68.9     0.29      1014.3     6.5       N     9  12.8      NW   323   9.71    261      274.2
   11/08/2018 13:20      78.2      77.6        8     10.7      0.00      0.32      68.9     0.29      1014.3     7.7       N     9  15.6       N   352   9.72    261      290.1
   11/08/2018 13:10      78.7      77.9        8     11.5      0.00      0.32      68.8     0.29      1014.3     7.7       N     3  15.9     NNE    14   9.72    261      298.3
   11/08/2018 13:00      78.6      77.7        8     12.1      0.00      0.32      68.8     0.29      1014.3     6.7     NNE    17  13.8     NNE    17   9.72    261      309.6
   11/08/2018 12:50      78.6      77.7        9     13.8      0.00      0.32      68.8     0.29      1014.3     7.4       N     8  15.4       N     7   9.73    262      316.3
   11/08/2018 12:40      78.6      77.7       17     28.9      0.00      0.32      68.8     0.29      1014.3     3.8     NNE    33   9.1      NW   320   9.73    262      324.6
   11/08/2018 12:30      78.4      76.9       19     32.2      0.00      0.32      68.7     0.29      1014.4     2.8     NNE    27   5.2       S   177   9.73    262      333.6
   11/08/2018 12:20      76.9      76.2       21     33.8      0.00      0.32      68.7     0.29      1014.5     4.3      NE    38   7.7      NE    38   9.73    263      345.2
   11/08/2018 12:10      76.5      75.4       26     38.6      0.00      0.32      68.7     0.29      1014.6     2.1     NNE    33   5.4     ENE    60   9.74    263      348.6
   11/08/2018 12:00      76.4      75.1       27     39.7      0.00      0.32      68.7     0.29      1014.6     2.0      NE    44   5.8      NE    49   9.74    263      355.2
   11/08/2018 11:50      75.7      74.3       30     41.7      0.00      0.32      68.7     0.29      1014.7     1.9     ESE   120   5.9       N    10   9.74    263      359.7
   11/08/2018 11:40      74.9      73.9       32     42.7      0.00      0.32      68.7     0.29      1014.8     1.5     ENE    58   3.4      NE    39   9.74    263      360.4
   11/08/2018 11:30      74.3      72.1       34     43.0      0.00      0.32      68.7     0.29      1014.9     1.8       E    88   4.9     ENE    76   9.74    264      359.5
   11/08/2018 11:20      72.3      71.0       37     44.5      0.00      0.32      68.7     0.29      1015.1     1.8     NNE    27   4.7      NE    55   9.75    264      356.9
   11/08/2018 11:10      72.0      70.8       42     47.1      0.00      0.32      68.7     0.29      1015.2     1.5      NE    36   4.5     NNW   328   9.75    265      355.8
   11/08/2018 11:00      71.2      69.7       44     47.6      0.00      0.32      68.7     0.29      1015.4     1.3       E    92   4.3       E    91   9.76    266      354.8
   11/08/2018 10:50      69.9      69.2       47     48.3      0.00      0.32      68.7     0.29      1015.4     1.6     ENE    65   4.3     ENE    72   9.76    266      351.5
   11/08/2018 10:40      69.8      68.7       49     49.2      0.00      0.32      68.8     0.29      1015.5     1.9     ESE   109   3.4     NNE    27   9.76    266      344.6
   11/08/2018 10:30      69.0      67.7       50     49.1      0.00      0.32      68.8     0.29      1015.6     1.4      NE    36   3.5     ENE    77   9.77    266      337.2
   11/08/2018 10:20      68.1      67.1       53     49.6      0.00      0.32      68.8     0.29      1015.6     2.4     ENE    56   5.1       E    91   9.77    266      335.6
   11/08/2018 10:10      68.1      66.4       55     50.3      0.00      0.32      68.8     0.29      1015.7     1.3       E    94   4.3      SE   131   9.77    266      324.3
   11/08/2018 10:00      66.7      65.1       58     50.7      0.00      0.32      68.8     0.29      1015.9     1.8      NE    36   4.1      NE    48   9.78    267      313.4
   11/08/2018 09:50      66.0      65.0       60     51.4      0.00      0.32      68.8     0.29      1016.0     2.4       E    95   5.1       E    90   9.78    267      300.3
   11/08/2018 09:40      65.8      64.9       61     51.6      0.00      0.32      68.8     0.29      1016.0     1.9       E    84   5.1     ESE   118   9.78    267      287.4
   11/08/2018 09:30      65.3      64.7       61     51.2      0.00      0.32      68.8     0.29      1016.0     1.9     ENE    78   3.8      NE    55   9.79    268      276.5
   11/08/2018 09:20      65.0      64.0       62     51.5      0.00      0.32      68.9     0.29      1016.0     2.0       E    97   5.2      SE   140   9.79    268      260.4
   11/08/2018 09:10      64.3      62.3       65     51.2      0.00      0.32      68.9     0.29      1016.1     1.8     ENE    75   4.7       E    86   9.80    268      240.5
   11/08/2018 09:00      62.7      61.3       68     51.5      0.00      0.32      68.9     0.29      1016.3     2.1       E    89   4.4     ESE   117   9.81    279      223.0
   11/08/2018 08:50      61.9      61.4       73     52.7      0.00      0.32      69.0     0.29      1016.3     2.3       E    94   4.3     ESE   104   9.81    286      200.4
   11/08/2018 08:40      62.1      61.2       73     52.9      0.00      0.32      69.0     0.29      1016.2     1.5     ESE   104   3.2       E    98   9.82    288      160.9
   11/08/2018 08:30      62.2      60.7       72     52.4      0.00      0.32      69.0     0.29      1016.2     0.9       E    89   3.6     ENE    57   9.83    290      175.6
   11/08/2018 08:20      60.9      59.4       76     52.3      0.00      0.32      69.0     0.29      1016.1     0.6     SSE   152   1.9     ESE   123   9.83    291      178.7
   11/08/2018 08:10      59.5      58.4       79     52.4      0.00      0.32      69.0     0.29      1016.2     1.3     SSW   204   2.5      SW   218   9.85    292      145.4
   11/08/2018 08:00      58.6      57.5       83     52.8      0.00      0.32      69.0     0.29      1016.2     1.6      SW   216   3.5      SW   229   9.86    293      153.8
   11/08/2018 07:50      57.7      56.9       88     53.9      0.00      0.32      69.0     0.29      1016.1     1.3       S   170   2.7       S   191   9.32    290      128.3
   11/08/2018 07:40      57.0      55.4       91     53.5      0.00      0.32      69.0     0.29      1016.1     0.6      SE   129   1.6      SE   143   9.32    357       79.0
   11/08/2018 07:30      55.7      54.7       91     52.6      0.00      0.32      69.1     0.29      1016.2     0.5     SSE   159   1.9       S   181   9.32    365       41.8
   11/08/2018 07:20      55.1      54.6       92     52.4      0.00      0.32      69.1     0.29      1016.2     0.5     SSW   194   1.3      SE   143   9.32    363       26.6
   11/08/2018 07:10      54.9      54.5       91     52.3      0.00      0.32      69.1     0.29      1016.2     0.2      SE   146   0.9      SE   130   9.32    360       15.4
   11/08/2018 07:00      55.3      54.6       92     52.5      0.00      0.32      69.1     0.29      1016.0     0.5       E    91   1.7       E    86   9.32    357       12.2
   11/08/2018 06:50      54.8      54.0       92     51.9      0.00      0.32      69.1     0.29      1015.9     0.3      SW   221   1.0      NW   311   9.32    358        3.7
   11/08/2018 06:40      54.7      53.8       91     51.6      0.00      0.32      69.2     0.29      1015.7     0.5       S   190   1.6      SW   230   9.32    356       -4.9
   11/08/2018 06:30      55.1      54.3       91     52.1      0.00      0.32      69.2     0.29      1015.5     0.4     WSW   240   1.6     WSW   242   9.32    346      -10.8
   11/08/2018 06:20      55.3      54.7       91     52.3      0.00      0.32      69.2     0.29      1015.4     0.0       S   180   0.6       S   182   9.32    327      -11.8
   11/08/2018 06:10      55.6      55.0       91     52.6      0.00      0.32      69.2     0.29      1015.3     0.2       S   174   0.9       S   176   9.31    317      -12.7
   11/08/2018 06:00      55.8      55.4       91     52.9      0.00      0.32      69.2     0.29      1015.3     0.0       N     0   0.0     NNW   340   9.31    311      -12.5
   11/08/2018 05:50      55.7      55.4       91     53.0      0.00      0.32      69.3     0.29      1015.3     0.3      NE    44   1.0     ENE    59   9.31    300       -3.4
   11/08/2018 05:40      55.7      55.2       91     52.9      0.00      0.32      69.3     0.29      1015.3     0.1      NE    37   0.8       N     0   9.31    311       -2.6
   11/08/2018 05:30      55.7      55.1       91     52.8      0.00      0.32      69.2     0.29      1015.2     0.4      NE    53   2.5     ENE    64   9.32    327       -2.2
   11/08/2018 05:20      55.6      55.2       91     52.8      0.00      0.32      69.3     0.29      1015.2     0.0     ESE   102   0.7     ESE   104   9.32    349       -2.2
   11/08/2018 05:10      55.5      55.2       91     52.7      0.00      0.32      69.3     0.29      1015.1     0.1       S   181   0.7     SSE   153   9.32    358       -2.1
   11/08/2018 05:00      55.4      55.0       91     52.5      0.00      0.32      69.3     0.29      1015.1     0.7     WSW   257   2.7      SW   235   9.32    359       -1.9
   11/08/2018 04:50      55.3      54.9       91     52.4      0.00      0.32      69.4     0.29      1015.1     0.9      SW   232   2.4      SW   228   9.32    364       -1.5
   11/08/2018 04:40      55.2      54.7       91     52.3      0.00      0.32      69.4     0.29      1015.1     1.0     WSW   258   1.8     WSW   259   9.32    370       -1.3
   11/08/2018 04:30      54.9      54.5       91     52.0      0.00      0.32      69.4     0.29      1015.1     0.8      NW   315   2.6     NNW   345   9.32    378       -1.2
   11/08/2018 04:20      54.7      54.0       91     51.6      0.00      0.32      69.5     0.29      1015.0     0.6     NNE    14   2.0       N    10   9.32    384       -1.1
   11/08/2018 04:10      54.3      53.8       91     51.4      0.00      0.32      69.5     0.29      1014.9     0.5     NNE    20   2.1       N     7   9.31    393       -0.7
   11/08/2018 04:00      54.0      53.6       91     51.3      0.00      0.32      69.5     0.29      1014.8     0.1       N   349   1.6       N   353   9.31    399       -0.4
   11/08/2018 03:50      53.8      53.3       92     51.2      0.00      0.32      69.5     0.29      1014.8     0.6      NE    52   1.7     NNE    26   9.31    405       -0.2
   11/08/2018 03:40      53.6      53.0       92     51.0      0.00      0.32      69.6     0.29      1014.8     0.3     NNE    22   1.1     NNE    24   9.31    409       -0.3
   11/08/2018 03:30      53.3      52.7       92     50.9      0.00      0.32      69.6     0.29      1014.7     0.0       N     0   0.0     ESE   114   9.31    413       -0.5
   11/08/2018 03:20      53.0      52.6       93     50.6      0.00      0.32      69.6     0.29      1014.8     0.0       N     0   0.0     ESE   114   9.31    414       -0.3
   11/08/2018 03:10      52.9      52.3       93     50.5      0.00      0.32      69.7     0.29      1014.8     0.0     ENE    78   0.6     ENE    74   9.31    415       -0.3
   11/08/2018 03:00      52.5      52.0       93     50.3      0.00      0.32      69.7     0.29      1014.9     0.0      SE   129   0.4      SE   129   9.31    416       -0.2
   11/08/2018 02:50      52.3      51.7       93     50.1      0.00      0.32      69.7     0.29      1014.9     0.2      NE    52   1.2       N    11   9.31    417       -0.1
   11/08/2018 02:40      51.9      51.4       93     49.7      0.00      0.32      69.8     0.29      1014.8     0.0      NE    37   0.6      SE   142   9.31    417       -0.4
   11/08/2018 02:30      51.6      51.1       93     49.4      0.00      0.32      69.8     0.29      1014.8     0.0       N     0   0.0       S   177   9.31    418       -2.9
   11/08/2018 02:20      51.2      50.0       93     48.8      0.00      0.32      69.8     0.29      1014.8     0.0       S   177   0.9       S   177   9.31    420       -4.1
   11/08/2018 02:10      50.3      49.7       93     47.9      0.00      0.32      69.8     0.29      1014.8     0.3     SSE   166   1.3       S   177   9.31    419       -4.6
   11/08/2018 02:00      50.5      49.7       93     48.1      0.00      0.32      69.8     0.29      1014.9     0.0     SSE   164   0.1     SSE   164   9.32    416      -14.0
   11/08/2018 01:50      50.5      50.0       93     48.2      0.00      0.32      69.9     0.29      1014.9     0.4       S   172   1.2       S   171   9.32    413      -18.5
   11/08/2018 01:40      50.8      50.1       93     48.3      0.00      0.32      69.9     0.29      1014.9     0.2     SSE   166   1.0     SSE   166   9.32    410      -19.6
   11/08/2018 01:30      50.9      50.1       93     48.6      0.00      0.32      69.9     0.29      1014.8     0.2     SSE   161   1.0     SSE   153   9.32    405      -20.0
   11/08/2018 01:20      51.1      50.1       92     48.2      0.00      0.32      70.0     0.29      1014.8     0.5     SSE   162   1.2      SE   145   9.32    399      -20.1
   11/08/2018 01:10      51.1      50.6       92     48.7      0.00      0.32      70.0     0.29      1014.9     0.3     SSE   155   1.4     SSE   159   9.32    395      -20.5
   11/08/2018 01:00      51.0      50.3       92     48.4      0.00      0.32      70.0     0.29      1014.8     0.0     SSE   157   0.4     SSE   157   9.32    388      -21.0
   11/08/2018 00:50      51.4      50.3       92     48.4      0.00      0.32      70.0     0.29      1014.8     0.4     SSE   149   1.4      SE   144   9.32    384      -22.0
   11/08/2018 00:40      51.7      51.1       92     49.3      0.00      0.32      70.0     0.29      1014.8     0.2     SSE   163   0.9     SSE   163   9.32    378      -22.0
   11/08/2018 00:30      51.9      51.2       92     49.1      0.00      0.32      70.1     0.29      1014.9     0.2     SSE   153   1.1     SSE   147   9.32    373      -22.4
   11/08/2018 00:20      51.9      51.3       92     49.3      0.00      0.32      70.1     0.30      1014.9     0.3     SSW   202   1.1     SSW   207   9.32    362      -22.7
   11/08/2018 00:10      51.9      51.1       92     49.1      0.00      0.32      70.1     0.30      1014.9     0.4     SSE   168   1.4     SSE   162   9.32    357      -24.1
   11/08/2018 00:00      52.0      51.6       92     49.4      0.00      0.32      70.1     0.30      1015.0     0.7     SSE   165   1.4      SE   141   9.32    350      -24.1
   11/07/2018 23:50      52.0      51.4       92     49.4      0.00      0.32      70.2     0.30      1015.0     0.6     SSE   167   1.6       S   182   9.32    344      -24.6
   11/07/2018 23:40      52.2      51.4       91     49.3      0.00      0.32      70.2     0.30      1015.0     0.6     SSE   165   1.6       S   174   9.32    336      -25.3
   11/07/2018 23:30      52.5      51.8       91     49.5      0.00      0.32      70.2     0.30      1015.0     0.3     SSE   163   0.9     SSE   168   9.32    329      -25.4
   11/07/2018 23:20      52.7      52.2       91     49.9      0.00      0.32      70.2     0.30      1015.1     0.5       S   180   1.7       S   185   9.32    323      -25.7
   11/07/2018 23:10      53.0      52.1       91     49.8      0.00      0.32      70.2     0.30      1015.1     0.0       S   184   0.6       S   184   9.32    319      -27.3
   11/07/2018 23:00      53.2      52.6       91     50.3      0.00      0.32      70.3     0.30      1015.1     0.0       S   172   0.4       S   172   9.32    311      -28.3
   11/07/2018 22:50      53.0      52.6       90     50.0      0.00      0.32      70.3     0.30      1015.1     0.5       S   174   1.2       S   184   9.32    305      -29.1
   11/07/2018 22:40      53.2      52.7       90     50.1      0.00      0.32      70.3     0.30      1015.1     0.2     SSE   155   1.2     SSE   151   9.32    300      -30.1
   11/07/2018 22:30      53.3      52.9       90     50.2      0.00      0.32      70.3     0.30      1015.2     0.5     SSE   157   1.1     SSE   149   9.33    296      -31.5
   11/07/2018 22:20      53.8      53.0       89     50.3      0.00      0.32      70.3     0.30      1015.2     0.4     SSE   168   1.0       S   169   9.33    292      -32.8
   11/07/2018 22:10      54.0      53.5       89     50.6      0.00      0.32      70.3     0.30      1015.2     0.7     SSE   147   1.3     SSE   148   9.33    289      -34.2
   11/07/2018 22:00      54.2      53.6       89     50.8      0.00      0.32      70.3     0.30      1015.2     0.7     SSE   152   1.3      SE   146   9.33    284      -35.7
   11/07/2018 21:50      54.2      53.7       89     50.8      0.00      0.32      70.3     0.30      1015.2     1.0     SSW   195   1.7       S   190   9.33    280      -36.6
   11/07/2018 21:40      54.5      53.6       88     50.5      0.00      0.32      70.3     0.30      1015.2     0.3     SSE   158   0.9       S   172   9.33    277      -40.4
   11/07/2018 21:30      54.6      54.0       88     50.7      0.00      0.32      70.4     0.30      1015.2     0.3     SSE   151   1.1      SE   141   9.33    277      -42.2
   11/07/2018 21:20      54.9      54.0       88     50.7      0.00      0.32      70.4     0.30      1015.2     0.3     SSE   155   1.0     SSE   156   9.33    274      -45.0
   11/07/2018 21:10      55.2      54.6       88     51.3      0.00      0.32      70.4     0.30      1015.1     0.3       S   170   1.3       S   180   9.33    270      -46.3
   11